<?xml version="1.0" encoding="UTF-8"?>
<gpx creator="Garmin Connect" version="1.1"
  xsi:schemaLocation="http://www.topografix.com/GPX/1/1 http://www.topografix.com/GPX/11.xsd"
  xmlns:ns3="http://www.garmin.com/xmlschemas/TrackPointExtension/v1"
  xmlns="http://www.topografix.com/GPX/1/1"
  xmlns:xsi="http://www.w3.org/2001/XMLSchema-instance" xmlns:ns2="http://www.garmin.com/xmlschemas/GpxExtensions/v3">
  <metadata>
    <name>24k</name>
    <link href="connect.garmin.com">
      <text>Garmin Connect</text>
    </link>
    <time>2024-05-28T11:08:20.000Z</time>
  </metadata>
  <trk>
    <name>24k</name>
    <trkseg>
      <trkpt lat="45.8721299842" lon="8.69257296435535">
        <ele>392.94</ele>
        <time>2024-05-28T11:08:20.000Z</time>
      </trkpt>
      <trkpt lat="45.87213291786611" lon="8.6925979424268">
        <ele>392.95</ele>
        <time>2024-05-28T11:08:20.001Z</time>
      </trkpt>
      <trkpt lat="45.87213291786611" lon="8.692626943811774">
        <ele>392.97</ele>
        <time>2024-05-28T11:08:20.002Z</time>
      </trkpt>
      <trkpt lat="45.87212696671486" lon="8.692677989602089">
        <ele>393.0</ele>
        <time>2024-05-28T11:08:20.004Z</time>
      </trkpt>
      <trkpt lat="45.87212696671486" lon="8.69272693991661">
        <ele>393.03</ele>
        <time>2024-05-28T11:08:20.008Z</time>
      </trkpt>
      <trkpt lat="45.872117998078465" lon="8.692766921594739">
        <ele>393.07</ele>
        <time>2024-05-28T11:08:20.013Z</time>
      </trkpt>
      <trkpt lat="45.87210793979466" lon="8.692799946293235">
        <ele>393.11</ele>
        <time>2024-05-28T11:08:20.018Z</time>
      </trkpt>
      <trkpt lat="45.8720919303596" lon="8.692841939628124">
        <ele>393.17</ele>
        <time>2024-05-28T11:08:20.025Z</time>
      </trkpt>
      <trkpt lat="45.8720919303596" lon="8.692881921306252">
        <ele>393.23</ele>
        <time>2024-05-28T11:08:20.032Z</time>
      </trkpt>
      <trkpt lat="45.87208799086511" lon="8.692919975146651">
        <ele>393.29</ele>
        <time>2024-05-28T11:08:20.040Z</time>
      </trkpt>
      <trkpt lat="45.87208195589483" lon="8.69295995682478">
        <ele>393.36</ele>
        <time>2024-05-28T11:08:20.049Z</time>
      </trkpt>
      <trkpt lat="45.87206292897463" lon="8.692989964038134">
        <ele>393.44</ele>
        <time>2024-05-28T11:08:20.059Z</time>
      </trkpt>
      <trkpt lat="45.87204993702471" lon="8.69302298873663">
        <ele>393.52</ele>
        <time>2024-05-28T11:08:20.070Z</time>
      </trkpt>
      <trkpt lat="45.87203795090318" lon="8.693057941272855">
        <ele>393.6</ele>
        <time>2024-05-28T11:08:20.082Z</time>
      </trkpt>
      <trkpt lat="45.87202495895326" lon="8.693104963749647">
        <ele>393.69</ele>
        <time>2024-05-28T11:08:20.095Z</time>
      </trkpt>
      <trkpt lat="45.87201498448849" lon="8.693147962912917">
        <ele>393.78</ele>
        <time>2024-05-28T11:08:20.109Z</time>
      </trkpt>
      <trkpt lat="45.87201498448849" lon="8.693181993439794">
        <ele>393.87</ele>
        <time>2024-05-28T11:08:20.124Z</time>
      </trkpt>
      <trkpt lat="45.87200492620468" lon="8.6932179518044">
        <ele>393.97</ele>
        <time>2024-05-28T11:08:20.140Z</time>
      </trkpt>
      <trkpt lat="45.871992940083146" lon="8.693254999816418">
        <ele>394.07</ele>
        <time>2024-05-28T11:08:20.157Z</time>
      </trkpt>
      <trkpt lat="45.8719729911536" lon="8.693292969837785">
        <ele>394.17</ele>
        <time>2024-05-28T11:08:20.175Z</time>
      </trkpt>
      <trkpt lat="45.87196293286979" lon="8.693332951515913">
        <ele>394.28</ele>
        <time>2024-05-28T11:08:20.194Z</time>
      </trkpt>
      <trkpt lat="45.87195497006178" lon="8.693356923758984">
        <ele>394.38</ele>
        <time>2024-05-28T11:08:20.214Z</time>
      </trkpt>
      <trkpt lat="45.87193795479834" lon="8.69339196011424">
        <ele>394.49</ele>
        <time>2024-05-28T11:08:20.235Z</time>
      </trkpt>
      <trkpt lat="45.871924962848425" lon="8.693422973155975">
        <ele>394.6</ele>
        <time>2024-05-28T11:08:20.256Z</time>
      </trkpt>
      <trkpt lat="45.87191691622138" lon="8.693446945399046">
        <ele>394.71</ele>
        <time>2024-05-28T11:08:20.278Z</time>
      </trkpt>
      <trkpt lat="45.87190995924175" lon="8.693471923470497">
        <ele>394.81</ele>
        <time>2024-05-28T11:08:20.301Z</time>
      </trkpt>
      <trkpt lat="45.87189294397831" lon="8.693511988967657">
        <ele>394.92</ele>
        <time>2024-05-28T11:08:20.325Z</time>
      </trkpt>
      <trkpt lat="45.87187492288649" lon="8.693546941503882">
        <ele>395.06</ele>
        <time>2024-05-28T11:08:20.350Z</time>
      </trkpt>
      <trkpt lat="45.871857991442084" lon="8.693579966202378">
        <ele>395.2</ele>
        <time>2024-05-28T11:08:20.376Z</time>
      </trkpt>
      <trkpt lat="45.87184499949217" lon="8.69360695593059">
        <ele>395.35</ele>
        <time>2024-05-28T11:08:20.403Z</time>
      </trkpt>
      <trkpt lat="45.87182999588549" lon="8.693639980629086">
        <ele>395.51</ele>
        <time>2024-05-28T11:08:20.430Z</time>
      </trkpt>
      <trkpt lat="45.87180694565177" lon="8.69366998784244">
        <ele>395.69</ele>
        <time>2024-05-28T11:08:20.459Z</time>
      </trkpt>
      <trkpt lat="45.87178791873157" lon="8.693696977570653">
        <ele>395.87</ele>
        <time>2024-05-28T11:08:20.488Z</time>
      </trkpt>
      <trkpt lat="45.871771993115544" lon="8.693729918450117">
        <ele>396.06</ele>
        <time>2024-05-28T11:08:20.518Z</time>
      </trkpt>
      <trkpt lat="45.871752966195345" lon="8.693764954805374">
        <ele>396.25</ele>
        <time>2024-05-28T11:08:20.549Z</time>
      </trkpt>
      <trkpt lat="45.871729999780655" lon="8.693789932876825">
        <ele>396.44</ele>
        <time>2024-05-28T11:08:20.581Z</time>
      </trkpt>
      <trkpt lat="45.871707955375314" lon="8.69381994009018">
        <ele>396.65</ele>
        <time>2024-05-28T11:08:20.614Z</time>
      </trkpt>
      <trkpt lat="45.871684988960624" lon="8.69384198449552">
        <ele>396.85</ele>
        <time>2024-05-28T11:08:20.648Z</time>
      </trkpt>
      <trkpt lat="45.87165699340403" lon="8.69386293925345">
        <ele>397.08</ele>
        <time>2024-05-28T11:08:20.683Z</time>
      </trkpt>
      <trkpt lat="45.87163494899869" lon="8.69388498365879">
        <ele>397.31</ele>
        <time>2024-05-28T11:08:20.719Z</time>
      </trkpt>
      <trkpt lat="45.87160795927048" lon="8.693901998922229">
        <ele>397.55</ele>
        <time>2024-05-28T11:08:20.756Z</time>
      </trkpt>
      <trkpt lat="45.8715929556638" lon="8.693917924538255">
        <ele>397.81</ele>
        <time>2024-05-28T11:08:20.794Z</time>
      </trkpt>
      <trkpt lat="45.87156697176397" lon="8.693942986428738">
        <ele>398.07</ele>
        <time>2024-05-28T11:08:20.833Z</time>
      </trkpt>
      <trkpt lat="45.871537970378995" lon="8.693967964500189">
        <ele>398.35</ele>
        <time>2024-05-28T11:08:20.873Z</time>
      </trkpt>
      <trkpt lat="45.87152497842908" lon="8.694002917036414">
        <ele>398.64</ele>
        <time>2024-05-28T11:08:20.914Z</time>
      </trkpt>
      <trkpt lat="45.8715099748224" lon="8.694021943956614">
        <ele>398.94</ele>
        <time>2024-05-28T11:08:20.956Z</time>
      </trkpt>
      <trkpt lat="45.87148692458868" lon="8.694026973098516">
        <ele>399.24</ele>
        <time>2024-05-28T11:08:20.998Z</time>
      </trkpt>
      <trkpt lat="45.87146798148751" lon="8.694026973098516">
        <ele>399.56</ele>
        <time>2024-05-28T11:08:21.041Z</time>
      </trkpt>
      <trkpt lat="45.87143696844578" lon="8.694022949784994">
        <ele>399.88</ele>
        <time>2024-05-28T11:08:21.085Z</time>
      </trkpt>
      <trkpt lat="45.871409978717566" lon="8.694007946178317">
        <ele>400.21</ele>
        <time>2024-05-28T11:08:21.130Z</time>
      </trkpt>
      <trkpt lat="45.87137795984745" lon="8.694022949784994">
        <ele>400.56</ele>
        <time>2024-05-28T11:08:21.176Z</time>
      </trkpt>
      <trkpt lat="45.871367985382676" lon="8.69405698031187">
        <ele>400.92</ele>
        <time>2024-05-28T11:08:21.223Z</time>
      </trkpt>
      <trkpt lat="45.87134292349219" lon="8.6940779350698">
        <ele>401.3</ele>
        <time>2024-05-28T11:08:21.271Z</time>
      </trkpt>
      <trkpt lat="45.87132993154228" lon="8.694106936454773">
        <ele>401.71</ele>
        <time>2024-05-28T11:08:21.320Z</time>
      </trkpt>
      <trkpt lat="45.87130797095597" lon="8.694126969203353">
        <ele>402.13</ele>
        <time>2024-05-28T11:08:21.370Z</time>
      </trkpt>
      <trkpt lat="45.87128793820739" lon="8.694139961153269">
        <ele>402.57</ele>
        <time>2024-05-28T11:08:21.420Z</time>
      </trkpt>
      <trkpt lat="45.87127293460071" lon="8.694151947274804">
        <ele>403.03</ele>
        <time>2024-05-28T11:08:21.471Z</time>
      </trkpt>
      <trkpt lat="45.87124996818602" lon="8.694171980023384">
        <ele>403.5</ele>
        <time>2024-05-28T11:08:21.523Z</time>
      </trkpt>
      <trkpt lat="45.871234964579344" lon="8.694197963923216">
        <ele>404.0</ele>
        <time>2024-05-28T11:08:21.576Z</time>
      </trkpt>
      <trkpt lat="45.87122197262943" lon="8.694216990843415">
        <ele>404.51</ele>
        <time>2024-05-28T11:08:21.629Z</time>
      </trkpt>
      <trkpt lat="45.87120797485113" lon="8.694244986400008">
        <ele>405.04</ele>
        <time>2024-05-28T11:08:21.683Z</time>
      </trkpt>
      <trkpt lat="45.87118299677968" lon="8.694276921451092">
        <ele>405.62</ele>
        <time>2024-05-28T11:08:21.738Z</time>
      </trkpt>
      <trkpt lat="45.87116992101073" lon="8.694299971684813">
        <ele>406.2</ele>
        <time>2024-05-28T11:08:21.794Z</time>
      </trkpt>
      <trkpt lat="45.87115994654596" lon="8.694322938099504">
        <ele>406.8</ele>
        <time>2024-05-28T11:08:21.850Z</time>
      </trkpt>
      <trkpt lat="45.871154917404056" lon="8.694364931434393">
        <ele>407.41</ele>
        <time>2024-05-28T11:08:21.907Z</time>
      </trkpt>
      <trkpt lat="45.87114192545414" lon="8.694402985274792">
        <ele>408.05</ele>
        <time>2024-05-28T11:08:21.965Z</time>
      </trkpt>
      <trkpt lat="45.871131950989366" lon="8.694432992488146">
        <ele>408.69</ele>
        <time>2024-05-28T11:08:22.024Z</time>
      </trkpt>
      <trkpt lat="45.87112792767584" lon="8.69446492753923">
        <ele>409.35</ele>
        <time>2024-05-28T11:08:22.084Z</time>
      </trkpt>
      <trkpt lat="45.87111694738269" lon="8.694487977772951">
        <ele>410.01</ele>
        <time>2024-05-28T11:08:22.145Z</time>
      </trkpt>
      <trkpt lat="45.871109990403056" lon="8.694522930309176">
        <ele>410.68</ele>
        <time>2024-05-28T11:08:22.206Z</time>
      </trkpt>
      <trkpt lat="45.87109993211925" lon="8.694559978321195">
        <ele>411.37</ele>
        <time>2024-05-28T11:08:22.268Z</time>
      </trkpt>
      <trkpt lat="45.871089957654476" lon="8.694587973877788">
        <ele>412.05</ele>
        <time>2024-05-28T11:08:22.331Z</time>
      </trkpt>
      <trkpt lat="45.87108291685581" lon="8.694619992747903">
        <ele>412.74</ele>
        <time>2024-05-28T11:08:22.395Z</time>
      </trkpt>
      <trkpt lat="45.8710749540478" lon="8.694652933627367">
        <ele>413.43</ele>
        <time>2024-05-28T11:08:22.460Z</time>
      </trkpt>
      <trkpt lat="45.871064979583025" lon="8.694674978032708">
        <ele>414.11</ele>
        <time>2024-05-28T11:08:22.525Z</time>
      </trkpt>
      <trkpt lat="45.87106196209788" lon="8.694707918912172">
        <ele>414.79</ele>
        <time>2024-05-28T11:08:22.591Z</time>
      </trkpt>
      <trkpt lat="45.87105492129922" lon="8.694739937782288">
        <ele>415.46</ele>
        <time>2024-05-28T11:08:22.658Z</time>
      </trkpt>
      <trkpt lat="45.871044946834445" lon="8.69476793333888">
        <ele>416.13</ele>
        <time>2024-05-28T11:08:22.726Z</time>
      </trkpt>
      <trkpt lat="45.87103991769254" lon="8.694792995229363">
        <ele>416.79</ele>
        <time>2024-05-28T11:08:22.794Z</time>
      </trkpt>
      <trkpt lat="45.87102994322777" lon="8.694819984957576">
        <ele>417.43</ele>
        <time>2024-05-28T11:08:22.863Z</time>
      </trkpt>
      <trkpt lat="45.871019968762994" lon="8.694846974685788">
        <ele>418.07</ele>
        <time>2024-05-28T11:08:22.933Z</time>
      </trkpt>
      <trkpt lat="45.87100999429822" lon="8.694881927222013">
        <ele>418.69</ele>
        <time>2024-05-28T11:08:23.004Z</time>
      </trkpt>
      <trkpt lat="45.8709919732064" lon="8.694904977455735">
        <ele>419.3</ele>
        <time>2024-05-28T11:08:23.075Z</time>
      </trkpt>
      <trkpt lat="45.87097194045782" lon="8.694929955527186">
        <ele>419.9</ele>
        <time>2024-05-28T11:08:23.147Z</time>
      </trkpt>
      <trkpt lat="45.870959954336286" lon="8.694961974397302">
        <ele>420.49</ele>
        <time>2024-05-28T11:08:23.220Z</time>
      </trkpt>
      <trkpt lat="45.87094293907285" lon="8.694999944418669">
        <ele>421.06</ele>
        <time>2024-05-28T11:08:23.294Z</time>
      </trkpt>
      <trkpt lat="45.87091997265816" lon="8.69502198882401">
        <ele>421.63</ele>
        <time>2024-05-28T11:08:23.369Z</time>
      </trkpt>
      <trkpt lat="45.87090496905148" lon="8.695034980773926">
        <ele>422.16</ele>
        <time>2024-05-28T11:08:23.445Z</time>
      </trkpt>
      <trkpt lat="45.87088191881776" lon="8.695057947188616">
        <ele>422.68</ele>
        <time>2024-05-28T11:08:23.522Z</time>
      </trkpt>
      <trkpt lat="45.87086699903011" lon="8.695082925260067">
        <ele>423.17</ele>
        <time>2024-05-28T11:08:23.599Z</time>
      </trkpt>
      <trkpt lat="45.87085694074631" lon="8.695104969665408">
        <ele>423.64</ele>
        <time>2024-05-28T11:08:23.677Z</time>
      </trkpt>
      <trkpt lat="45.87085995823145" lon="8.695134976878762">
        <ele>424.09</ele>
        <time>2024-05-28T11:08:23.756Z</time>
      </trkpt>
      <trkpt lat="45.870852917432785" lon="8.695162972435355">
        <ele>424.52</ele>
        <time>2024-05-28T11:08:23.835Z</time>
      </trkpt>
      <trkpt lat="45.87083992548287" lon="8.69519499130547">
        <ele>424.94</ele>
        <time>2024-05-28T11:08:23.915Z</time>
      </trkpt>
      <trkpt lat="45.87083498016" lon="8.695221981033683">
        <ele>425.34</ele>
        <time>2024-05-28T11:08:23.996Z</time>
      </trkpt>
      <trkpt lat="45.87082198821008" lon="8.695247964933515">
        <ele>425.72</ele>
        <time>2024-05-28T11:08:24.078Z</time>
      </trkpt>
      <trkpt lat="45.870811929926276" lon="8.695281995460391">
        <ele>426.08</ele>
        <time>2024-05-28T11:08:24.160Z</time>
      </trkpt>
      <trkpt lat="45.870804972946644" lon="8.695314936339855">
        <ele>426.43</ele>
        <time>2024-05-28T11:08:24.243Z</time>
      </trkpt>
      <trkpt lat="45.87079994380474" lon="8.695357935503125">
        <ele>426.77</ele>
        <time>2024-05-28T11:08:24.327Z</time>
      </trkpt>
      <trkpt lat="45.8707969263196" lon="8.695392971858382">
        <ele>427.1</ele>
        <time>2024-05-28T11:08:24.412Z</time>
      </trkpt>
      <trkpt lat="45.87079994380474" lon="8.695426918566227">
        <ele>427.41</ele>
        <time>2024-05-28T11:08:24.498Z</time>
      </trkpt>
      <trkpt lat="45.870804972946644" lon="8.695457931607962">
        <ele>427.71</ele>
        <time>2024-05-28T11:08:24.585Z</time>
      </trkpt>
      <trkpt lat="45.87081494741142" lon="8.695492967963219">
        <ele>428.0</ele>
        <time>2024-05-28T11:08:24.673Z</time>
      </trkpt>
      <trkpt lat="45.87082198821008" lon="8.695527920499444">
        <ele>428.28</ele>
        <time>2024-05-28T11:08:24.761Z</time>
      </trkpt>
      <trkpt lat="45.87082492187619" lon="8.69555993936956">
        <ele>428.55</ele>
        <time>2024-05-28T11:08:24.850Z</time>
      </trkpt>
      <trkpt lat="45.87083799764514" lon="8.695597993209958">
        <ele>428.81</ele>
        <time>2024-05-28T11:08:24.940Z</time>
      </trkpt>
      <trkpt lat="45.87084294296801" lon="8.69562498293817">
        <ele>429.07</ele>
        <time>2024-05-28T11:08:25.031Z</time>
      </trkpt>
      <trkpt lat="45.870849983766675" lon="8.695654990151525">
        <ele>429.35</ele>
        <time>2024-05-28T11:08:25.122Z</time>
      </trkpt>
      <trkpt lat="45.87085694074631" lon="8.695691954344511">
        <ele>429.63</ele>
        <time>2024-05-28T11:08:25.214Z</time>
      </trkpt>
      <trkpt lat="45.87085694074631" lon="8.69573193602264">
        <ele>429.91</ele>
        <time>2024-05-28T11:08:25.307Z</time>
      </trkpt>
      <trkpt lat="45.870852917432785" lon="8.695771917700768">
        <ele>430.2</ele>
        <time>2024-05-28T11:08:25.401Z</time>
      </trkpt>
      <trkpt lat="45.87085694074631" lon="8.695809971541166">
        <ele>430.49</ele>
        <time>2024-05-28T11:08:25.496Z</time>
      </trkpt>
      <trkpt lat="45.870852917432785" lon="8.695844924077392">
        <ele>430.78</ele>
        <time>2024-05-28T11:08:25.592Z</time>
      </trkpt>
      <trkpt lat="45.87085995823145" lon="8.695877948775887">
        <ele>431.06</ele>
        <time>2024-05-28T11:08:25.689Z</time>
      </trkpt>
      <trkpt lat="45.87085995823145" lon="8.695907955989242">
        <ele>431.37</ele>
        <time>2024-05-28T11:08:25.786Z</time>
      </trkpt>
      <trkpt lat="45.87085694074631" lon="8.695934945717454">
        <ele>431.68</ele>
        <time>2024-05-28T11:08:25.884Z</time>
      </trkpt>
      <trkpt lat="45.87085995823145" lon="8.695969982072711">
        <ele>432.01</ele>
        <time>2024-05-28T11:08:25.983Z</time>
      </trkpt>
      <trkpt lat="45.870872950181365" lon="8.696004934608936">
        <ele>432.35</ele>
        <time>2024-05-28T11:08:26.083Z</time>
      </trkpt>
      <trkpt lat="45.870872950181365" lon="8.69603494182229">
        <ele>432.69</ele>
        <time>2024-05-28T11:08:26.184Z</time>
      </trkpt>
      <trkpt lat="45.87086699903011" lon="8.696067966520786">
        <ele>433.03</ele>
        <time>2024-05-28T11:08:26.285Z</time>
      </trkpt>
      <trkpt lat="45.870872950181365" lon="8.696099985390902">
        <ele>433.38</ele>
        <time>2024-05-28T11:08:26.387Z</time>
      </trkpt>
      <trkpt lat="45.87086699903011" lon="8.696132926270366">
        <ele>433.73</ele>
        <time>2024-05-28T11:08:26.490Z</time>
      </trkpt>
      <trkpt lat="45.870872950181365" lon="8.696166956797242">
        <ele>434.08</ele>
        <time>2024-05-28T11:08:26.594Z</time>
      </trkpt>
      <trkpt lat="45.870872950181365" lon="8.696192940697074">
        <ele>434.43</ele>
        <time>2024-05-28T11:08:26.698Z</time>
      </trkpt>
      <trkpt lat="45.87088191881776" lon="8.696212973445654">
        <ele>434.78</ele>
        <time>2024-05-28T11:08:26.803Z</time>
      </trkpt>
      <trkpt lat="45.87087697349489" lon="8.696246920153499">
        <ele>435.13</ele>
        <time>2024-05-28T11:08:26.909Z</time>
      </trkpt>
      <trkpt lat="45.87086297571659" lon="8.696272987872362">
        <ele>435.48</ele>
        <time>2024-05-28T11:08:27.015Z</time>
      </trkpt>
      <trkpt lat="45.870852917432785" lon="8.696304922923446">
        <ele>435.82</ele>
        <time>2024-05-28T11:08:27.122Z</time>
      </trkpt>
      <trkpt lat="45.87083799764514" lon="8.69633199647069">
        <ele>436.16</ele>
        <time>2024-05-28T11:08:27.230Z</time>
      </trkpt>
      <trkpt lat="45.87082198821008" lon="8.696356974542141">
        <ele>436.5</ele>
        <time>2024-05-28T11:08:27.339Z</time>
      </trkpt>
      <trkpt lat="45.8708019554615" lon="8.696371978148818">
        <ele>436.83</ele>
        <time>2024-05-28T11:08:27.449Z</time>
      </trkpt>
      <trkpt lat="45.8707829285413" lon="8.696384970098734">
        <ele>437.16</ele>
        <time>2024-05-28T11:08:27.559Z</time>
      </trkpt>
      <trkpt lat="45.870762979611754" lon="8.696391927078366">
        <ele>437.47</ele>
        <time>2024-05-28T11:08:27.670Z</time>
      </trkpt>
      <trkpt lat="45.870744958519936" lon="8.696409948170185">
        <ele>437.78</ele>
        <time>2024-05-28T11:08:27.782Z</time>
      </trkpt>
      <trkpt lat="45.87071293964982" lon="8.696424951776862">
        <ele>438.09</ele>
        <time>2024-05-28T11:08:27.895Z</time>
      </trkpt>
      <trkpt lat="45.87069299072027" lon="8.696436937898397">
        <ele>438.38</ele>
        <time>2024-05-28T11:08:28.009Z</time>
      </trkpt>
      <trkpt lat="45.87066499516368" lon="8.696456970646977">
        <ele>438.67</ele>
        <time>2024-05-28T11:08:28.124Z</time>
      </trkpt>
      <trkpt lat="45.8706449624151" lon="8.696476919576526">
        <ele>438.95</ele>
        <time>2024-05-28T11:08:28.239Z</time>
      </trkpt>
      <trkpt lat="45.87061998434365" lon="8.69648496620357">
        <ele>439.21</ele>
        <time>2024-05-28T11:08:28.355Z</time>
      </trkpt>
      <trkpt lat="45.87059995159507" lon="8.696489995345473">
        <ele>439.46</ele>
        <time>2024-05-28T11:08:28.472Z</time>
      </trkpt>
      <trkpt lat="45.87057799100876" lon="8.69648496620357">
        <ele>439.69</ele>
        <time>2024-05-28T11:08:28.590Z</time>
      </trkpt>
      <trkpt lat="45.870546977967024" lon="8.69648496620357">
        <ele>439.92</ele>
        <time>2024-05-28T11:08:28.709Z</time>
      </trkpt>
      <trkpt lat="45.870526945218444" lon="8.69648295454681">
        <ele>440.13</ele>
        <time>2024-05-28T11:08:28.828Z</time>
      </trkpt>
      <trkpt lat="45.870507918298244" lon="8.69648295454681">
        <ele>440.33</ele>
        <time>2024-05-28T11:08:28.948Z</time>
      </trkpt>
      <trkpt lat="45.870484951883554" lon="8.69648496620357">
        <ele>440.53</ele>
        <time>2024-05-28T11:08:29.069Z</time>
      </trkpt>
      <trkpt lat="45.870466930791736" lon="8.696494940668344">
        <ele>440.72</ele>
        <time>2024-05-28T11:08:29.190Z</time>
      </trkpt>
      <trkpt lat="45.87044698186219" lon="8.69650298729539">
        <ele>440.9</ele>
        <time>2024-05-28T11:08:29.312Z</time>
      </trkpt>
      <trkpt lat="45.870421919971704" lon="8.69650499895215">
        <ele>441.08</ele>
        <time>2024-05-28T11:08:29.435Z</time>
      </trkpt>
      <trkpt lat="45.870399959385395" lon="8.696509944275022">
        <ele>441.26</ele>
        <time>2024-05-28T11:08:29.559Z</time>
      </trkpt>
      <trkpt lat="45.8703669346869" lon="8.69650793261826">
        <ele>441.42</ele>
        <time>2024-05-28T11:08:29.684Z</time>
      </trkpt>
      <trkpt lat="45.87034497410059" lon="8.696499969810247">
        <ele>441.56</ele>
        <time>2024-05-28T11:08:29.810Z</time>
      </trkpt>
      <trkpt lat="45.87032192386687" lon="8.69650298729539">
        <ele>441.71</ele>
        <time>2024-05-28T11:08:29.936Z</time>
      </trkpt>
      <trkpt lat="45.870289988815784" lon="8.696496952325106">
        <ele>441.84</ele>
        <time>2024-05-28T11:08:30.063Z</time>
      </trkpt>
      <trkpt lat="45.87026794441044" lon="8.696491923183203">
        <ele>441.97</ele>
        <time>2024-05-28T11:08:30.191Z</time>
      </trkpt>
      <trkpt lat="45.87024497799575" lon="8.696494940668344">
        <ele>442.1</ele>
        <time>2024-05-28T11:08:30.320Z</time>
      </trkpt>
      <trkpt lat="45.87022293359041" lon="8.69650298729539">
        <ele>442.24</ele>
        <time>2024-05-28T11:08:30.450Z</time>
      </trkpt>
      <trkpt lat="45.870209941640496" lon="8.696522936224937">
        <ele>442.39</ele>
        <time>2024-05-28T11:08:30.580Z</time>
      </trkpt>
      <trkpt lat="45.87022293359041" lon="8.696542968973517">
        <ele>442.55</ele>
        <time>2024-05-28T11:08:30.711Z</time>
      </trkpt>
      <trkpt lat="45.87024497799575" lon="8.69656995870173">
        <ele>442.72</ele>
        <time>2024-05-28T11:08:30.843Z</time>
      </trkpt>
      <trkpt lat="45.87026199325919" lon="8.696587979793549">
        <ele>442.89</ele>
        <time>2024-05-28T11:08:30.976Z</time>
      </trkpt>
      <trkpt lat="45.87027993053198" lon="8.69658999145031">
        <ele>443.05</ele>
        <time>2024-05-28T11:08:31.109Z</time>
      </trkpt>
      <trkpt lat="45.8703029807657" lon="8.696604995056987">
        <ele>443.22</ele>
        <time>2024-05-28T11:08:31.243Z</time>
      </trkpt>
      <trkpt lat="45.87032494135201" lon="8.696624943986535">
        <ele>443.4</ele>
        <time>2024-05-28T11:08:31.378Z</time>
      </trkpt>
      <trkpt lat="45.87034497410059" lon="8.696639947593212">
        <ele>443.58</ele>
        <time>2024-05-28T11:08:31.514Z</time>
      </trkpt>
      <trkpt lat="45.87036299519241" lon="8.696649922057986">
        <ele>443.77</ele>
        <time>2024-05-28T11:08:31.650Z</time>
      </trkpt>
      <trkpt lat="45.870379926636815" lon="8.696661991998553">
        <ele>443.95</ele>
        <time>2024-05-28T11:08:31.787Z</time>
      </trkpt>
      <trkpt lat="45.870401971042156" lon="8.69667992927134">
        <ele>444.14</ele>
        <time>2024-05-28T11:08:31.925Z</time>
      </trkpt>
      <trkpt lat="45.87043499574065" lon="8.69667992927134">
        <ele>444.31</ele>
        <time>2024-05-28T11:08:32.064Z</time>
      </trkpt>
      <trkpt lat="45.87045293301344" lon="8.696687975898385">
        <ele>444.49</ele>
        <time>2024-05-28T11:08:32.204Z</time>
      </trkpt>
      <trkpt lat="45.87048193439841" lon="8.696702979505062">
        <ele>444.69</ele>
        <time>2024-05-28T11:08:32.345Z</time>
      </trkpt>
      <trkpt lat="45.87049794383347" lon="8.6967199947685">
        <ele>444.89</ele>
        <time>2024-05-28T11:08:32.486Z</time>
      </trkpt>
      <trkpt lat="45.87051998823881" lon="8.69672292843461">
        <ele>445.08</ele>
        <time>2024-05-28T11:08:32.628Z</time>
      </trkpt>
      <trkpt lat="45.8705569524318" lon="8.696739943698049">
        <ele>445.27</ele>
        <time>2024-05-28T11:08:32.771Z</time>
      </trkpt>
      <trkpt lat="45.87058796547353" lon="8.696747990325093">
        <ele>445.47</ele>
        <time>2024-05-28T11:08:32.915Z</time>
      </trkpt>
      <trkpt lat="45.87060699239373" lon="8.696757964789867">
        <ele>445.68</ele>
        <time>2024-05-28T11:08:33.060Z</time>
      </trkpt>
      <trkpt lat="45.87062694132328" lon="8.69676198810339">
        <ele>445.88</ele>
        <time>2024-05-28T11:08:33.206Z</time>
      </trkpt>
      <trkpt lat="45.87065493687987" lon="8.696772968396544">
        <ele>446.1</ele>
        <time>2024-05-28T11:08:33.353Z</time>
      </trkpt>
      <trkpt lat="45.870677987113595" lon="8.696797946467996">
        <ele>446.33</ele>
        <time>2024-05-28T11:08:33.501Z</time>
      </trkpt>
      <trkpt lat="45.87069299072027" lon="8.696817979216576">
        <ele>446.57</ele>
        <time>2024-05-28T11:08:33.649Z</time>
      </trkpt>
      <trkpt lat="45.87070698849857" lon="8.696836922317743">
        <ele>446.82</ele>
        <time>2024-05-28T11:08:33.798Z</time>
      </trkpt>
      <trkpt lat="45.870724925771356" lon="8.696852931752801">
        <ele>447.07</ele>
        <time>2024-05-28T11:08:33.948Z</time>
      </trkpt>
      <trkpt lat="45.870744958519936" lon="8.696876987814903">
        <ele>447.33</ele>
        <time>2024-05-28T11:08:34.099Z</time>
      </trkpt>
      <trkpt lat="45.870762979611754" lon="8.696902971714735">
        <ele>447.6</ele>
        <time>2024-05-28T11:08:34.250Z</time>
      </trkpt>
      <trkpt lat="45.87077295407653" lon="8.69693691842258">
        <ele>447.89</ele>
        <time>2024-05-28T11:08:34.402Z</time>
      </trkpt>
      <trkpt lat="45.87077697739005" lon="8.696964997798204">
        <ele>448.18</ele>
        <time>2024-05-28T11:08:34.555Z</time>
      </trkpt>
      <trkpt lat="45.87077999487519" lon="8.696991987526417">
        <ele>448.48</ele>
        <time>2024-05-28T11:08:34.709Z</time>
      </trkpt>
      <trkpt lat="45.8707829285413" lon="8.697024928405881">
        <ele>448.79</ele>
        <time>2024-05-28T11:08:34.863Z</time>
      </trkpt>
      <trkpt lat="45.870786951854825" lon="8.697059964761138">
        <ele>449.11</ele>
        <time>2024-05-28T11:08:35.018Z</time>
      </trkpt>
      <trkpt lat="45.870786951854825" lon="8.697091983631253">
        <ele>449.44</ele>
        <time>2024-05-28T11:08:35.174Z</time>
      </trkpt>
      <trkpt lat="45.87079298682511" lon="8.697124924510717">
        <ele>449.77</ele>
        <time>2024-05-28T11:08:35.331Z</time>
      </trkpt>
      <trkpt lat="45.8707969263196" lon="8.697159960865974">
        <ele>450.11</ele>
        <time>2024-05-28T11:08:35.489Z</time>
      </trkpt>
      <trkpt lat="45.8707969263196" lon="8.697186950594187">
        <ele>450.45</ele>
        <time>2024-05-28T11:08:35.647Z</time>
      </trkpt>
      <trkpt lat="45.8707969263196" lon="8.697216957807541">
        <ele>450.79</ele>
        <time>2024-05-28T11:08:35.806Z</time>
      </trkpt>
      <trkpt lat="45.8708019554615" lon="8.69725693948567">
        <ele>451.14</ele>
        <time>2024-05-28T11:08:35.966Z</time>
      </trkpt>
      <trkpt lat="45.87079994380474" lon="8.697287952527404">
        <ele>451.5</ele>
        <time>2024-05-28T11:08:36.127Z</time>
      </trkpt>
      <trkpt lat="45.8707969263196" lon="8.697319971397519">
        <ele>451.86</ele>
        <time>2024-05-28T11:08:36.288Z</time>
      </trkpt>
      <trkpt lat="45.8707969263196" lon="8.697349978610873">
        <ele>452.23</ele>
        <time>2024-05-28T11:08:36.450Z</time>
      </trkpt>
      <trkpt lat="45.87079994380474" lon="8.697382919490337">
        <ele>452.61</ele>
        <time>2024-05-28T11:08:36.613Z</time>
      </trkpt>
      <trkpt lat="45.87079298682511" lon="8.697419967502356">
        <ele>452.99</ele>
        <time>2024-05-28T11:08:36.777Z</time>
      </trkpt>
      <trkpt lat="45.870786951854825" lon="8.697457937523723">
        <ele>453.37</ele>
        <time>2024-05-28T11:08:36.942Z</time>
      </trkpt>
      <trkpt lat="45.870786951854825" lon="8.69749297387898">
        <ele>453.76</ele>
        <time>2024-05-28T11:08:37.107Z</time>
      </trkpt>
      <trkpt lat="45.870786951854825" lon="8.697527926415205">
        <ele>454.15</ele>
        <time>2024-05-28T11:08:37.273Z</time>
      </trkpt>
      <trkpt lat="45.870786951854825" lon="8.697566986083984">
        <ele>454.54</ele>
        <time>2024-05-28T11:08:37.440Z</time>
      </trkpt>
      <trkpt lat="45.870786951854825" lon="8.697606967762113">
        <ele>454.94</ele>
        <time>2024-05-28T11:08:37.608Z</time>
      </trkpt>
      <trkpt lat="45.870786951854825" lon="8.697639992460608">
        <ele>455.34</ele>
        <time>2024-05-28T11:08:37.777Z</time>
      </trkpt>
      <trkpt lat="45.870786951854825" lon="8.697671927511692">
        <ele>455.74</ele>
        <time>2024-05-28T11:08:37.947Z</time>
      </trkpt>
      <trkpt lat="45.870786951854825" lon="8.697701934725046">
        <ele>456.14</ele>
        <time>2024-05-28T11:08:38.117Z</time>
      </trkpt>
      <trkpt lat="45.87077999487519" lon="8.697729930281639">
        <ele>456.55</ele>
        <time>2024-05-28T11:08:38.288Z</time>
      </trkpt>
      <trkpt lat="45.8707829285413" lon="8.697759937494993">
        <ele>456.95</ele>
        <time>2024-05-28T11:08:38.460Z</time>
      </trkpt>
      <trkpt lat="45.8707829285413" lon="8.697797991335392">
        <ele>457.35</ele>
        <time>2024-05-28T11:08:38.633Z</time>
      </trkpt>
      <trkpt lat="45.87079298682511" lon="8.69783696718514">
        <ele>457.76</ele>
        <time>2024-05-28T11:08:38.806Z</time>
      </trkpt>
      <trkpt lat="45.8708019554615" lon="8.697871919721365">
        <ele>458.16</ele>
        <time>2024-05-28T11:08:38.980Z</time>
      </trkpt>
      <trkpt lat="45.870811929926276" lon="8.6979029327631">
        <ele>458.55</ele>
        <time>2024-05-28T11:08:39.155Z</time>
      </trkpt>
      <trkpt lat="45.87082198821008" lon="8.697934951633215">
        <ele>458.94</ele>
        <time>2024-05-28T11:08:39.331Z</time>
      </trkpt>
      <trkpt lat="45.870831962674856" lon="8.697962947189808">
        <ele>459.33</ele>
        <time>2024-05-28T11:08:39.508Z</time>
      </trkpt>
      <trkpt lat="45.87083799764514" lon="8.698002928867936">
        <ele>459.71</ele>
        <time>2024-05-28T11:08:39.686Z</time>
      </trkpt>
      <trkpt lat="45.870852917432785" lon="8.698037965223193">
        <ele>460.09</ele>
        <time>2024-05-28T11:08:39.865Z</time>
      </trkpt>
      <trkpt lat="45.87086699903011" lon="8.698067972436547">
        <ele>460.46</ele>
        <time>2024-05-28T11:08:40.044Z</time>
      </trkpt>
      <trkpt lat="45.87087999098003" lon="8.698099991306663">
        <ele>460.83</ele>
        <time>2024-05-28T11:08:40.224Z</time>
      </trkpt>
      <trkpt lat="45.870891977101564" lon="8.698132932186127">
        <ele>461.18</ele>
        <time>2024-05-28T11:08:40.405Z</time>
      </trkpt>
      <trkpt lat="45.870897928252816" lon="8.69816293939948">
        <ele>461.52</ele>
        <time>2024-05-28T11:08:40.587Z</time>
      </trkpt>
      <trkpt lat="45.87090496905148" lon="8.69820199906826">
        <ele>461.85</ele>
        <time>2024-05-28T11:08:40.770Z</time>
      </trkpt>
      <trkpt lat="45.87090195156634" lon="8.698239969089627">
        <ele>462.16</ele>
        <time>2024-05-28T11:08:40.954Z</time>
      </trkpt>
      <trkpt lat="45.87090195156634" lon="8.698277939110994">
        <ele>462.47</ele>
        <time>2024-05-28T11:08:41.139Z</time>
      </trkpt>
      <trkpt lat="45.87090195156634" lon="8.698312975466251">
        <ele>462.77</ele>
        <time>2024-05-28T11:08:41.324Z</time>
      </trkpt>
      <trkpt lat="45.870897928252816" lon="8.69835295714438">
        <ele>463.06</ele>
        <time>2024-05-28T11:08:41.510Z</time>
      </trkpt>
      <trkpt lat="45.87090195156634" lon="8.698386987671256">
        <ele>463.34</ele>
        <time>2024-05-28T11:08:41.697Z</time>
      </trkpt>
      <trkpt lat="45.87091192603111" lon="8.698417916893959">
        <ele>463.6</ele>
        <time>2024-05-28T11:08:41.885Z</time>
      </trkpt>
      <trkpt lat="45.87092994712293" lon="8.698457982391119">
        <ele>463.85</ele>
        <time>2024-05-28T11:08:42.074Z</time>
      </trkpt>
      <trkpt lat="45.87094293907285" lon="8.69848195463419">
        <ele>464.08</ele>
        <time>2024-05-28T11:08:42.264Z</time>
      </trkpt>
      <trkpt lat="45.870959954336286" lon="8.698511961847544">
        <ele>464.3</ele>
        <time>2024-05-28T11:08:42.455Z</time>
      </trkpt>
      <trkpt lat="45.870977975428104" lon="8.698539957404137">
        <ele>464.5</ele>
        <time>2024-05-28T11:08:42.647Z</time>
      </trkpt>
      <trkpt lat="45.8709919732064" lon="8.698576921597123">
        <ele>464.7</ele>
        <time>2024-05-28T11:08:42.840Z</time>
      </trkpt>
      <trkpt lat="45.87099499069154" lon="8.698622938245535">
        <ele>464.89</ele>
        <time>2024-05-28T11:08:43.034Z</time>
      </trkpt>
      <trkpt lat="45.87098199874163" lon="8.698664931580424">
        <ele>465.07</ele>
        <time>2024-05-28T11:08:43.229Z</time>
      </trkpt>
      <trkpt lat="45.87097194045782" lon="8.698702985420823">
        <ele>465.23</ele>
        <time>2024-05-28T11:08:43.425Z</time>
      </trkpt>
      <trkpt lat="45.870956936851144" lon="8.698742967098951">
        <ele>465.39</ele>
        <time>2024-05-28T11:08:43.622Z</time>
      </trkpt>
      <trkpt lat="45.87094293907285" lon="8.69878294877708">
        <ele>465.54</ele>
        <time>2024-05-28T11:08:43.820Z</time>
      </trkpt>
      <trkpt lat="45.87095299735665" lon="8.698821924626827">
        <ele>465.67</ele>
        <time>2024-05-28T11:08:44.019Z</time>
      </trkpt>
      <trkpt lat="45.87097194045782" lon="8.698852937668562">
        <ele>465.78</ele>
        <time>2024-05-28T11:08:44.219Z</time>
      </trkpt>
      <trkpt lat="45.87098199874163" lon="8.698891997337341">
        <ele>465.88</ele>
        <time>2024-05-28T11:08:44.420Z</time>
      </trkpt>
      <trkpt lat="45.87099792435765" lon="8.698907922953367">
        <ele>465.97</ele>
        <time>2024-05-28T11:08:44.621Z</time>
      </trkpt>
      <trkpt lat="45.87101292796433" lon="8.698919992893934">
        <ele>466.05</ele>
        <time>2024-05-28T11:08:44.823Z</time>
      </trkpt>
      <trkpt lat="45.87103296071291" lon="8.69893298484385">
        <ele>466.11</ele>
        <time>2024-05-28T11:08:45.026Z</time>
      </trkpt>
      <trkpt lat="45.87105198763311" lon="8.698947988450527">
        <ele>466.16</ele>
        <time>2024-05-28T11:08:45.229Z</time>
      </trkpt>
      <trkpt lat="45.871064979583025" lon="8.698977995663881">
        <ele>466.21</ele>
        <time>2024-05-28T11:08:45.433Z</time>
      </trkpt>
      <trkpt lat="45.87109297513962" lon="8.699007919058204">
        <ele>466.25</ele>
        <time>2024-05-28T11:08:45.638Z</time>
      </trkpt>
      <trkpt lat="45.871112924069166" lon="8.699007919058204">
        <ele>466.28</ele>
        <time>2024-05-28T11:08:45.844Z</time>
      </trkpt>
      <trkpt lat="45.871131950989366" lon="8.699002973735332">
        <ele>466.29</ele>
        <time>2024-05-28T11:08:46.051Z</time>
      </trkpt>
      <trkpt lat="45.871151983737946" lon="8.699001967906952">
        <ele>466.3</ele>
        <time>2024-05-28T11:08:46.258Z</time>
      </trkpt>
      <trkpt lat="45.87116992101073" lon="8.699006997048855">
        <ele>466.31</ele>
        <time>2024-05-28T11:08:46.466Z</time>
      </trkpt>
      <trkpt lat="45.87120193988085" lon="8.699031975120306">
        <ele>466.31</ele>
        <time>2024-05-28T11:08:46.675Z</time>
      </trkpt>
      <trkpt lat="45.87122197262943" lon="8.699051924049854">
        <ele>466.31</ele>
        <time>2024-05-28T11:08:46.885Z</time>
      </trkpt>
      <trkpt lat="45.871234964579344" lon="8.699071956798434">
        <ele>466.31</ele>
        <time>2024-05-28T11:08:47.096Z</time>
      </trkpt>
      <trkpt lat="45.87125692516565" lon="8.69908494874835">
        <ele>466.31</ele>
        <time>2024-05-28T11:08:47.307Z</time>
      </trkpt>
      <trkpt lat="45.87127293460071" lon="8.699067933484912">
        <ele>466.3</ele>
        <time>2024-05-28T11:08:47.519Z</time>
      </trkpt>
      <trkpt lat="45.87130797095597" lon="8.699077991768718">
        <ele>466.29</ele>
        <time>2024-05-28T11:08:47.732Z</time>
      </trkpt>
      <trkpt lat="45.87132993154228" lon="8.699101964011788">
        <ele>466.28</ele>
        <time>2024-05-28T11:08:47.946Z</time>
      </trkpt>
      <trkpt lat="45.871352981776" lon="8.699137922376394">
        <ele>466.28</ele>
        <time>2024-05-28T11:08:48.161Z</time>
      </trkpt>
      <trkpt lat="45.871367985382676" lon="8.699159966781735">
        <ele>466.27</ele>
        <time>2024-05-28T11:08:48.377Z</time>
      </trkpt>
      <trkpt lat="45.871387934312224" lon="8.699211934581399">
        <ele>466.27</ele>
        <time>2024-05-28T11:08:48.594Z</time>
      </trkpt>
      <trkpt lat="45.87139992043376" lon="8.69923791848123">
        <ele>466.27</ele>
        <time>2024-05-28T11:08:48.812Z</time>
      </trkpt>
      <trkpt lat="45.871409978717566" lon="8.699261974543333">
        <ele>466.27</ele>
        <time>2024-05-28T11:08:49.031Z</time>
      </trkpt>
      <trkpt lat="45.87141995318234" lon="8.699286952614784">
        <ele>466.26</ele>
        <time>2024-05-28T11:08:49.250Z</time>
      </trkpt>
      <trkpt lat="45.871429927647114" lon="8.699309919029474">
        <ele>466.26</ele>
        <time>2024-05-28T11:08:49.470Z</time>
      </trkpt>
      <trkpt lat="45.87143998593092" lon="8.69934294372797">
        <ele>466.26</ele>
        <time>2024-05-28T11:08:49.691Z</time>
      </trkpt>
      <trkpt lat="45.87144794873893" lon="8.699367921799421">
        <ele>466.27</ele>
        <time>2024-05-28T11:08:49.913Z</time>
      </trkpt>
      <trkpt lat="45.87146194651723" lon="8.699392983689904">
        <ele>466.27</ele>
        <time>2024-05-28T11:08:50.135Z</time>
      </trkpt>
      <trkpt lat="45.871474938467145" lon="8.699417961761355">
        <ele>466.28</ele>
        <time>2024-05-28T11:08:50.358Z</time>
      </trkpt>
      <trkpt lat="45.87148994207382" lon="8.699444951489568">
        <ele>466.29</ele>
        <time>2024-05-28T11:08:50.582Z</time>
      </trkpt>
      <trkpt lat="45.87150695733726" lon="8.699467917904258">
        <ele>466.3</ele>
        <time>2024-05-28T11:08:50.807Z</time>
      </trkpt>
      <trkpt lat="45.87152799591422" lon="8.699507983401418">
        <ele>466.32</ele>
        <time>2024-05-28T11:08:51.033Z</time>
      </trkpt>
      <trkpt lat="45.87154199369252" lon="8.699539918452501">
        <ele>466.34</ele>
        <time>2024-05-28T11:08:51.260Z</time>
      </trkpt>
      <trkpt lat="45.871559930965304" lon="8.699567997828126">
        <ele>466.36</ele>
        <time>2024-05-28T11:08:51.488Z</time>
      </trkpt>
      <trkpt lat="45.87157694622874" lon="8.699597921222448">
        <ele>466.39</ele>
        <time>2024-05-28T11:08:51.716Z</time>
      </trkpt>
      <trkpt lat="45.8715929556638" lon="8.699632957577705">
        <ele>466.43</ele>
        <time>2024-05-28T11:08:51.945Z</time>
      </trkpt>
      <trkpt lat="45.87160795927048" lon="8.699657935649157">
        <ele>466.46</ele>
        <time>2024-05-28T11:08:52.175Z</time>
      </trkpt>
      <trkpt lat="45.871621957048774" lon="8.699692972004414">
        <ele>466.51</ele>
        <time>2024-05-28T11:08:52.406Z</time>
      </trkpt>
      <trkpt lat="45.87163796648383" lon="8.699721973389387">
        <ele>466.55</ele>
        <time>2024-05-28T11:08:52.638Z</time>
      </trkpt>
      <trkpt lat="45.87165297009051" lon="8.699747957289219">
        <ele>466.59</ele>
        <time>2024-05-28T11:08:52.871Z</time>
      </trkpt>
      <trkpt lat="45.87167291902006" lon="8.69977293536067">
        <ele>466.64</ele>
        <time>2024-05-28T11:08:53.105Z</time>
      </trkpt>
      <trkpt lat="45.8716949634254" lon="8.699797997251153">
        <ele>466.69</ele>
        <time>2024-05-28T11:08:53.340Z</time>
      </trkpt>
      <trkpt lat="45.871711978688836" lon="8.699817946180701">
        <ele>466.75</ele>
        <time>2024-05-28T11:08:53.575Z</time>
      </trkpt>
      <trkpt lat="45.871729999780655" lon="8.699837978929281">
        <ele>466.8</ele>
        <time>2024-05-28T11:08:53.811Z</time>
      </trkpt>
      <trkpt lat="45.8717499487102" lon="8.69985499419272">
        <ele>466.86</ele>
        <time>2024-05-28T11:08:54.048Z</time>
      </trkpt>
      <trkpt lat="45.87176796980202" lon="8.699869997799397">
        <ele>466.92</ele>
        <time>2024-05-28T11:08:54.286Z</time>
      </trkpt>
      <trkpt lat="45.87179194204509" lon="8.699889946728945">
        <ele>466.98</ele>
        <time>2024-05-28T11:08:54.524Z</time>
      </trkpt>
      <trkpt lat="45.87181298062205" lon="8.699906961992383">
        <ele>467.05</ele>
        <time>2024-05-28T11:08:54.763Z</time>
      </trkpt>
      <trkpt lat="45.871836952865124" lon="8.699926994740963">
        <ele>467.12</ele>
        <time>2024-05-28T11:08:55.003Z</time>
      </trkpt>
      <trkpt lat="45.87185497395694" lon="8.69994199834764">
        <ele>467.19</ele>
        <time>2024-05-28T11:08:55.244Z</time>
      </trkpt>
      <trkpt lat="45.871882969513535" lon="8.699959935620427">
        <ele>467.27</ele>
        <time>2024-05-28T11:08:55.486Z</time>
      </trkpt>
      <trkpt lat="45.871902918443084" lon="8.699976950883865">
        <ele>467.34</ele>
        <time>2024-05-28T11:08:55.729Z</time>
      </trkpt>
      <trkpt lat="45.871924962848425" lon="8.69998692534864">
        <ele>467.42</ele>
        <time>2024-05-28T11:08:55.972Z</time>
      </trkpt>
      <trkpt lat="45.871947929263115" lon="8.699996983632445">
        <ele>467.49</ele>
        <time>2024-05-28T11:08:56.216Z</time>
      </trkpt>
      <trkpt lat="45.871966956183314" lon="8.700009975582361">
        <ele>467.57</ele>
        <time>2024-05-28T11:08:56.461Z</time>
      </trkpt>
      <trkpt lat="45.871986988931894" lon="8.700022967532277">
        <ele>467.66</ele>
        <time>2024-05-28T11:08:56.707Z</time>
      </trkpt>
      <trkpt lat="45.87200199253857" lon="8.700036965310574">
        <ele>467.74</ele>
        <time>2024-05-28T11:08:56.953Z</time>
      </trkpt>
      <trkpt lat="45.8720179181546" lon="8.700047945603728">
        <ele>467.83</ele>
        <time>2024-05-28T11:08:57.200Z</time>
      </trkpt>
      <trkpt lat="45.87203795090318" lon="8.700059931725264">
        <ele>467.92</ele>
        <time>2024-05-28T11:08:57.448Z</time>
      </trkpt>
      <trkpt lat="45.87205697782338" lon="8.70006999000907">
        <ele>468.01</ele>
        <time>2024-05-28T11:08:57.696Z</time>
      </trkpt>
      <trkpt lat="45.87208195589483" lon="8.700082981958985">
        <ele>468.1</ele>
        <time>2024-05-28T11:08:57.945Z</time>
      </trkpt>
      <trkpt lat="45.872117998078465" lon="8.700109971687198">
        <ele>468.21</ele>
        <time>2024-05-28T11:08:58.196Z</time>
      </trkpt>
      <trkpt lat="45.87213694117963" lon="8.700124975293875">
        <ele>468.31</ele>
        <time>2024-05-28T11:08:58.447Z</time>
      </trkpt>
      <trkpt lat="45.87215697392821" lon="8.700139978900552">
        <ele>468.41</ele>
        <time>2024-05-28T11:08:58.699Z</time>
      </trkpt>
      <trkpt lat="45.87217499502003" lon="8.70015699416399">
        <ele>468.52</ele>
        <time>2024-05-28T11:08:58.952Z</time>
      </trkpt>
      <trkpt lat="45.87219494394958" lon="8.700162945315242">
        <ele>468.61</ele>
        <time>2024-05-28T11:08:59.205Z</time>
      </trkpt>
      <trkpt lat="45.8722129650414" lon="8.700174931436777">
        <ele>468.72</ele>
        <time>2024-05-28T11:08:59.459Z</time>
      </trkpt>
      <trkpt lat="45.87223299778998" lon="8.700184989720583">
        <ele>468.82</ele>
        <time>2024-05-28T11:08:59.714Z</time>
      </trkpt>
      <trkpt lat="45.87225194089115" lon="8.700197981670499">
        <ele>468.93</ele>
        <time>2024-05-28T11:08:59.969Z</time>
      </trkpt>
      <trkpt lat="45.87227993644774" lon="8.700207956135273">
        <ele>469.03</ele>
        <time>2024-05-28T11:09:00.225Z</time>
      </trkpt>
      <trkpt lat="45.87231698445976" lon="8.700209967792034">
        <ele>469.12</ele>
        <time>2024-05-28T11:09:00.483Z</time>
      </trkpt>
      <trkpt lat="45.87234498001635" lon="8.700209967792034">
        <ele>469.21</ele>
        <time>2024-05-28T11:09:00.742Z</time>
      </trkpt>
      <trkpt lat="45.8723699580878" lon="8.700214996933937">
        <ele>469.31</ele>
        <time>2024-05-28T11:09:01.001Z</time>
      </trkpt>
      <trkpt lat="45.872396947816014" lon="8.700217930600047">
        <ele>469.41</ele>
        <time>2024-05-28T11:09:01.261Z</time>
      </trkpt>
      <trkpt lat="45.87242494337261" lon="8.70022195391357">
        <ele>469.5</ele>
        <time>2024-05-28T11:09:01.522Z</time>
      </trkpt>
      <trkpt lat="45.872442964464426" lon="8.70022295974195">
        <ele>469.61</ele>
        <time>2024-05-28T11:09:01.784Z</time>
      </trkpt>
      <trkpt lat="45.8724669367075" lon="8.700229916721582">
        <ele>469.71</ele>
        <time>2024-05-28T11:09:02.047Z</time>
      </trkpt>
      <trkpt lat="45.872484957799315" lon="8.70024198666215">
        <ele>469.83</ele>
        <time>2024-05-28T11:09:02.310Z</time>
      </trkpt>
      <trkpt lat="45.872507924214005" lon="8.700254978612065">
        <ele>469.94</ele>
        <time>2024-05-28T11:09:02.574Z</time>
      </trkpt>
      <trkpt lat="45.87253298610449" lon="8.700271993875504">
        <ele>470.06</ele>
        <time>2024-05-28T11:09:02.839Z</time>
      </trkpt>
      <trkpt lat="45.8725599758327" lon="8.70028791949153">
        <ele>470.18</ele>
        <time>2024-05-28T11:09:03.105Z</time>
      </trkpt>
      <trkpt lat="45.87257799692452" lon="8.700302923098207">
        <ele>470.3</ele>
        <time>2024-05-28T11:09:03.372Z</time>
      </trkpt>
      <trkpt lat="45.872594928368926" lon="8.700322955846786">
        <ele>470.43</ele>
        <time>2024-05-28T11:09:03.640Z</time>
      </trkpt>
      <trkpt lat="45.87261999025941" lon="8.700341982766986">
        <ele>470.56</ele>
        <time>2024-05-28T11:09:03.908Z</time>
      </trkpt>
      <trkpt lat="45.87263993918896" lon="8.700359920039773">
        <ele>470.69</ele>
        <time>2024-05-28T11:09:04.177Z</time>
      </trkpt>
      <trkpt lat="45.8726619835943" lon="8.70037299580872">
        <ele>470.82</ele>
        <time>2024-05-28T11:09:04.447Z</time>
      </trkpt>
      <trkpt lat="45.872679920867085" lon="8.700392944738269">
        <ele>470.95</ele>
        <time>2024-05-28T11:09:04.718Z</time>
      </trkpt>
      <trkpt lat="45.87270297110081" lon="8.700411971658468">
        <ele>471.08</ele>
        <time>2024-05-28T11:09:04.990Z</time>
      </trkpt>
      <trkpt lat="45.87272199802101" lon="8.70043694972992">
        <ele>471.21</ele>
        <time>2024-05-28T11:09:05.263Z</time>
      </trkpt>
      <trkpt lat="45.872741946950555" lon="8.7004569824785">
        <ele>471.34</ele>
        <time>2024-05-28T11:09:05.536Z</time>
      </trkpt>
      <trkpt lat="45.872762985527515" lon="8.700472991913557">
        <ele>471.47</ele>
        <time>2024-05-28T11:09:05.810Z</time>
      </trkpt>
      <trkpt lat="45.87278997525573" lon="8.700497969985008">
        <ele>471.59</ele>
        <time>2024-05-28T11:09:06.085Z</time>
      </trkpt>
      <trkpt lat="45.87281797081232" lon="8.700519930571318">
        <ele>471.71</ele>
        <time>2024-05-28T11:09:06.361Z</time>
      </trkpt>
      <trkpt lat="45.87283993139863" lon="8.700539963319898">
        <ele>471.83</ele>
        <time>2024-05-28T11:09:06.638Z</time>
      </trkpt>
      <trkpt lat="45.87286298163235" lon="8.700554966926575">
        <ele>471.94</ele>
        <time>2024-05-28T11:09:06.916Z</time>
      </trkpt>
      <trkpt lat="45.87288494221866" lon="8.700564941391349">
        <ele>472.05</ele>
        <time>2024-05-28T11:09:07.195Z</time>
      </trkpt>
      <trkpt lat="45.872911931946874" lon="8.700581956654787">
        <ele>472.15</ele>
        <time>2024-05-28T11:09:07.475Z</time>
      </trkpt>
      <trkpt lat="45.87293699383736" lon="8.700594948604703">
        <ele>472.24</ele>
        <time>2024-05-28T11:09:07.756Z</time>
      </trkpt>
      <trkpt lat="45.872956942766905" lon="8.700604923069477">
        <ele>472.33</ele>
        <time>2024-05-28T11:09:08.037Z</time>
      </trkpt>
      <trkpt lat="45.872977981343865" lon="8.700614981353283">
        <ele>472.41</ele>
        <time>2024-05-28T11:09:08.319Z</time>
      </trkpt>
      <trkpt lat="45.872999941930175" lon="8.700619926676154">
        <ele>472.48</ele>
        <time>2024-05-28T11:09:08.602Z</time>
      </trkpt>
      <trkpt lat="45.873019974678755" lon="8.700631996616721">
        <ele>472.55</ele>
        <time>2024-05-28T11:09:08.886Z</time>
      </trkpt>
      <trkpt lat="45.873041935265064" lon="8.700641971081495">
        <ele>472.62</ele>
        <time>2024-05-28T11:09:09.170Z</time>
      </trkpt>
      <trkpt lat="45.873064985498786" lon="8.700649933889508">
        <ele>472.67</ele>
        <time>2024-05-28T11:09:09.455Z</time>
      </trkpt>
      <trkpt lat="45.873086946085095" lon="8.700654963031411">
        <ele>472.72</ele>
        <time>2024-05-28T11:09:09.741Z</time>
      </trkpt>
      <trkpt lat="45.87310999631882" lon="8.70065194554627">
        <ele>472.76</ele>
        <time>2024-05-28T11:09:10.028Z</time>
      </trkpt>
      <trkpt lat="45.87313799187541" lon="8.700654963031411">
        <ele>472.79</ele>
        <time>2024-05-28T11:09:10.316Z</time>
      </trkpt>
      <trkpt lat="45.87315794080496" lon="8.700659992173314">
        <ele>472.83</ele>
        <time>2024-05-28T11:09:10.604Z</time>
      </trkpt>
      <trkpt lat="45.8731799852103" lon="8.700662925839424">
        <ele>472.85</ele>
        <time>2024-05-28T11:09:10.893Z</time>
      </trkpt>
      <trkpt lat="45.87320194579661" lon="8.700659992173314">
        <ele>472.86</ele>
        <time>2024-05-28T11:09:11.183Z</time>
      </trkpt>
      <trkpt lat="45.873234970495105" lon="8.700656974688172">
        <ele>472.87</ele>
        <time>2024-05-28T11:09:11.474Z</time>
      </trkpt>
      <trkpt lat="45.873259948566556" lon="8.700659992173314">
        <ele>472.88</ele>
        <time>2024-05-28T11:09:11.766Z</time>
      </trkpt>
      <trkpt lat="45.8732819929719" lon="8.700659992173314">
        <ele>472.88</ele>
        <time>2024-05-28T11:09:12.058Z</time>
      </trkpt>
      <trkpt lat="45.873301941901445" lon="8.700659992173314">
        <ele>472.88</ele>
        <time>2024-05-28T11:09:12.351Z</time>
      </trkpt>
      <trkpt lat="45.873319962993264" lon="8.700659992173314">
        <ele>472.88</ele>
        <time>2024-05-28T11:09:12.645Z</time>
      </trkpt>
      <trkpt lat="45.873339995741844" lon="8.700654963031411">
        <ele>472.87</ele>
        <time>2024-05-28T11:09:12.939Z</time>
      </trkpt>
      <trkpt lat="45.873364973813295" lon="8.700644988566637">
        <ele>472.86</ele>
        <time>2024-05-28T11:09:13.234Z</time>
      </trkpt>
      <trkpt lat="45.873384922742844" lon="8.700639959424734">
        <ele>472.85</ele>
        <time>2024-05-28T11:09:13.530Z</time>
      </trkpt>
      <trkpt lat="45.87340294383466" lon="8.700631996616721">
        <ele>472.84</ele>
        <time>2024-05-28T11:09:13.826Z</time>
      </trkpt>
      <trkpt lat="45.87343295104802" lon="8.700624955818057">
        <ele>472.82</ele>
        <time>2024-05-28T11:09:14.124Z</time>
      </trkpt>
      <trkpt lat="45.87345499545336" lon="8.700624955818057">
        <ele>472.81</ele>
        <time>2024-05-28T11:09:14.422Z</time>
      </trkpt>
      <trkpt lat="45.87347997352481" lon="8.70062998495996">
        <ele>472.81</ele>
        <time>2024-05-28T11:09:14.721Z</time>
      </trkpt>
      <trkpt lat="45.873516937717795" lon="8.700637947767973">
        <ele>472.8</ele>
        <time>2024-05-28T11:09:15.021Z</time>
      </trkpt>
      <trkpt lat="45.87355197407305" lon="8.70065194554627">
        <ele>472.81</ele>
        <time>2024-05-28T11:09:15.323Z</time>
      </trkpt>
      <trkpt lat="45.87357292883098" lon="8.700659992173314">
        <ele>472.81</ele>
        <time>2024-05-28T11:09:15.625Z</time>
      </trkpt>
      <trkpt lat="45.873596984893084" lon="8.700669966638088">
        <ele>472.81</ele>
        <time>2024-05-28T11:09:15.928Z</time>
      </trkpt>
      <trkpt lat="45.87362498044968" lon="8.70067692361772">
        <ele>472.82</ele>
        <time>2024-05-28T11:09:16.232Z</time>
      </trkpt>
      <trkpt lat="45.873642917722464" lon="8.700681952759624">
        <ele>472.82</ele>
        <time>2024-05-28T11:09:16.537Z</time>
      </trkpt>
      <trkpt lat="45.873662950471044" lon="8.700684970244765">
        <ele>472.83</ele>
        <time>2024-05-28T11:09:16.842Z</time>
      </trkpt>
      <trkpt lat="45.87370494380593" lon="8.700689999386668">
        <ele>472.84</ele>
        <time>2024-05-28T11:09:17.149Z</time>
      </trkpt>
      <trkpt lat="45.873729921877384" lon="8.700686981901526">
        <ele>472.85</ele>
        <time>2024-05-28T11:09:17.457Z</time>
      </trkpt>
      <trkpt lat="45.873752972111106" lon="8.700684970244765">
        <ele>472.86</ele>
        <time>2024-05-28T11:09:17.765Z</time>
      </trkpt>
      <trkpt lat="45.873774932697415" lon="8.700684970244765">
        <ele>472.87</ele>
        <time>2024-05-28T11:09:18.074Z</time>
      </trkpt>
      <trkpt lat="45.87380996905267" lon="8.70069494470954">
        <ele>472.9</ele>
        <time>2024-05-28T11:09:18.384Z</time>
      </trkpt>
      <trkpt lat="45.87382991798222" lon="8.700704919174314">
        <ele>472.92</ele>
        <time>2024-05-28T11:09:18.695Z</time>
      </trkpt>
      <trkpt lat="45.87385196238756" lon="8.70071698911488">
        <ele>472.95</ele>
        <time>2024-05-28T11:09:19.007Z</time>
      </trkpt>
      <trkpt lat="45.873879957944155" lon="8.700736938044429">
        <ele>472.99</ele>
        <time>2024-05-28T11:09:19.320Z</time>
      </trkpt>
      <trkpt lat="45.873899990692735" lon="8.700747918337584">
        <ele>473.02</ele>
        <time>2024-05-28T11:09:19.634Z</time>
      </trkpt>
      <trkpt lat="45.87393494322896" lon="8.70076292194426">
        <ele>473.06</ele>
        <time>2024-05-28T11:09:19.949Z</time>
      </trkpt>
      <trkpt lat="45.87395497597754" lon="8.700769962742925">
        <ele>473.09</ele>
        <time>2024-05-28T11:09:20.264Z</time>
      </trkpt>
      <trkpt lat="45.87397995404899" lon="8.700777925550938">
        <ele>473.12</ele>
        <time>2024-05-28T11:09:20.580Z</time>
      </trkpt>
      <trkpt lat="45.87402194738388" lon="8.700792929157615">
        <ele>473.16</ele>
        <time>2024-05-28T11:09:20.898Z</time>
      </trkpt>
      <trkpt lat="45.874052960425615" lon="8.70080298744142">
        <ele>473.2</ele>
        <time>2024-05-28T11:09:21.217Z</time>
      </trkpt>
      <trkpt lat="45.87408799678087" lon="8.700817991048098">
        <ele>473.24</ele>
        <time>2024-05-28T11:09:21.537Z</time>
      </trkpt>
      <trkpt lat="45.874117920175195" lon="8.700834922492504">
        <ele>473.28</ele>
        <time>2024-05-28T11:09:21.858Z</time>
      </trkpt>
      <trkpt lat="45.874139964580536" lon="8.700837939977646">
        <ele>473.31</ele>
        <time>2024-05-28T11:09:22.180Z</time>
      </trkpt>
      <trkpt lat="45.87417491711676" lon="8.70084498077631">
        <ele>473.34</ele>
        <time>2024-05-28T11:09:22.503Z</time>
      </trkpt>
      <trkpt lat="45.87419494986534" lon="8.700852943584323">
        <ele>473.37</ele>
        <time>2024-05-28T11:09:22.827Z</time>
      </trkpt>
      <trkpt lat="45.87421992793679" lon="8.700859984382987">
        <ele>473.39</ele>
        <time>2024-05-28T11:09:23.152Z</time>
      </trkpt>
      <trkpt lat="45.87424197234213" lon="8.700869958847761">
        <ele>473.42</ele>
        <time>2024-05-28T11:09:23.477Z</time>
      </trkpt>
      <trkpt lat="45.874267956241965" lon="8.700879933312535">
        <ele>473.44</ele>
        <time>2024-05-28T11:09:23.803Z</time>
      </trkpt>
      <trkpt lat="45.874286983162165" lon="8.700889991596341">
        <ele>473.46</ele>
        <time>2024-05-28T11:09:24.130Z</time>
      </trkpt>
      <trkpt lat="45.874312967062" lon="8.700899966061115">
        <ele>473.48</ele>
        <time>2024-05-28T11:09:24.458Z</time>
      </trkpt>
      <trkpt lat="45.874334927648306" lon="8.700902983546257">
        <ele>473.48</ele>
        <time>2024-05-28T11:09:24.787Z</time>
      </trkpt>
      <trkpt lat="45.874354960396886" lon="8.700901977717876">
        <ele>473.49</ele>
        <time>2024-05-28T11:09:25.116Z</time>
      </trkpt>
      <trkpt lat="45.874386979267" lon="8.700894936919212">
        <ele>473.48</ele>
        <time>2024-05-28T11:09:25.446Z</time>
      </trkpt>
      <trkpt lat="45.874417992308736" lon="8.700879933312535">
        <ele>473.47</ele>
        <time>2024-05-28T11:09:25.777Z</time>
      </trkpt>
      <trkpt lat="45.87444992735982" lon="8.700881944969296">
        <ele>473.46</ele>
        <time>2024-05-28T11:09:26.109Z</time>
      </trkpt>
      <trkpt lat="45.87447993457317" lon="8.700884962454438">
        <ele>473.45</ele>
        <time>2024-05-28T11:09:26.442Z</time>
      </trkpt>
      <trkpt lat="45.87450793012977" lon="8.70088797993958">
        <ele>473.43</ele>
        <time>2024-05-28T11:09:26.776Z</time>
      </trkpt>
      <trkpt lat="45.87452997453511" lon="8.700889991596341">
        <ele>473.4</ele>
        <time>2024-05-28T11:09:27.111Z</time>
      </trkpt>
      <trkpt lat="45.87455696426332" lon="8.700894936919212">
        <ele>473.37</ele>
        <time>2024-05-28T11:09:27.447Z</time>
      </trkpt>
      <trkpt lat="45.87457498535514" lon="8.700897954404354">
        <ele>473.34</ele>
        <time>2024-05-28T11:09:27.784Z</time>
      </trkpt>
      <trkpt lat="45.87459795176983" lon="8.700894936919212">
        <ele>473.3</ele>
        <time>2024-05-28T11:09:28.121Z</time>
      </trkpt>
      <trkpt lat="45.87461697869003" lon="8.700889991596341">
        <ele>473.25</ele>
        <time>2024-05-28T11:09:28.459Z</time>
      </trkpt>
      <trkpt lat="45.87463692761958" lon="8.700889991596341">
        <ele>473.2</ele>
        <time>2024-05-28T11:09:28.798Z</time>
      </trkpt>
      <trkpt lat="45.87465796619654" lon="8.700892925262451">
        <ele>473.15</ele>
        <time>2024-05-28T11:09:29.137Z</time>
      </trkpt>
      <trkpt lat="45.87468294426799" lon="8.700901977717876">
        <ele>473.09</ele>
        <time>2024-05-28T11:09:29.477Z</time>
      </trkpt>
      <trkpt lat="45.87470691651106" lon="8.700902983546257">
        <ele>473.03</ele>
        <time>2024-05-28T11:09:29.818Z</time>
      </trkpt>
      <trkpt lat="45.87475796230137" lon="8.700899966061115">
        <ele>472.96</ele>
        <time>2024-05-28T11:09:30.161Z</time>
      </trkpt>
      <trkpt lat="45.87479299865663" lon="8.700894936919212">
        <ele>472.89</ele>
        <time>2024-05-28T11:09:30.505Z</time>
      </trkpt>
      <trkpt lat="45.8748119417578" lon="8.700894936919212">
        <ele>472.81</ele>
        <time>2024-05-28T11:09:30.850Z</time>
      </trkpt>
      <trkpt lat="45.8748499955982" lon="8.700892925262451">
        <ele>472.73</ele>
        <time>2024-05-28T11:09:31.196Z</time>
      </trkpt>
      <trkpt lat="45.87487296201289" lon="8.70088797993958">
        <ele>472.64</ele>
        <time>2024-05-28T11:09:31.543Z</time>
      </trkpt>
      <trkpt lat="45.874894922599196" lon="8.70088797993958">
        <ele>472.55</ele>
        <time>2024-05-28T11:09:31.890Z</time>
      </trkpt>
      <trkpt lat="45.87491797283292" lon="8.700882950797677">
        <ele>472.46</ele>
        <time>2024-05-28T11:09:32.238Z</time>
      </trkpt>
      <trkpt lat="45.87494697421789" lon="8.700884962454438">
        <ele>472.37</ele>
        <time>2024-05-28T11:09:32.587Z</time>
      </trkpt>
      <trkpt lat="45.87498494423926" lon="8.700879933312535">
        <ele>472.28</ele>
        <time>2024-05-28T11:09:32.937Z</time>
      </trkpt>
      <trkpt lat="45.8750069886446" lon="8.700874987989664">
        <ele>472.18</ele>
        <time>2024-05-28T11:09:33.288Z</time>
      </trkpt>
      <trkpt lat="45.87502693757415" lon="8.700867947191">
        <ele>472.09</ele>
        <time>2024-05-28T11:09:33.640Z</time>
      </trkpt>
      <trkpt lat="45.87504797615111" lon="8.700867947191">
        <ele>472.0</ele>
        <time>2024-05-28T11:09:33.992Z</time>
      </trkpt>
      <trkpt lat="45.87507194839418" lon="8.700874987989664">
        <ele>471.92</ele>
        <time>2024-05-28T11:09:34.345Z</time>
      </trkpt>
      <trkpt lat="45.87509298697114" lon="8.700877921655774">
        <ele>471.83</ele>
        <time>2024-05-28T11:09:34.699Z</time>
      </trkpt>
      <trkpt lat="45.87511695921421" lon="8.70088797993958">
        <ele>471.75</ele>
        <time>2024-05-28T11:09:35.054Z</time>
      </trkpt>
      <trkpt lat="45.87514193728566" lon="8.700894936919212">
        <ele>471.67</ele>
        <time>2024-05-28T11:09:35.410Z</time>
      </trkpt>
      <trkpt lat="45.875166999176145" lon="8.700899966061115">
        <ele>471.59</ele>
        <time>2024-05-28T11:09:35.767Z</time>
      </trkpt>
      <trkpt lat="45.87518694810569" lon="8.700899966061115">
        <ele>471.52</ele>
        <time>2024-05-28T11:09:36.124Z</time>
      </trkpt>
      <trkpt lat="45.87520798668265" lon="8.700902983546257">
        <ele>471.46</ele>
        <time>2024-05-28T11:09:36.482Z</time>
      </trkpt>
      <trkpt lat="45.875234976410866" lon="8.700919998809695">
        <ele>471.4</ele>
        <time>2024-05-28T11:09:36.841Z</time>
      </trkpt>
      <trkpt lat="45.87526699528098" lon="8.700937936082482">
        <ele>471.35</ele>
        <time>2024-05-28T11:09:37.201Z</time>
      </trkpt>
      <trkpt lat="45.87529197335243" lon="8.700961992144585">
        <ele>471.31</ele>
        <time>2024-05-28T11:09:37.562Z</time>
      </trkpt>
      <trkpt lat="45.87530798278749" lon="8.700986970216036">
        <ele>471.27</ele>
        <time>2024-05-28T11:09:37.924Z</time>
      </trkpt>
      <trkpt lat="45.87532298639417" lon="8.701014965772629">
        <ele>471.25</ele>
        <time>2024-05-28T11:09:38.287Z</time>
      </trkpt>
      <trkpt lat="45.87533991783857" lon="8.70103994384408">
        <ele>471.23</ele>
        <time>2024-05-28T11:09:38.650Z</time>
      </trkpt>
      <trkpt lat="45.875361962243915" lon="8.701066933572292">
        <ele>471.22</ele>
        <time>2024-05-28T11:09:39.014Z</time>
      </trkpt>
      <trkpt lat="45.875381994992495" lon="8.701091995462775">
        <ele>471.21</ele>
        <time>2024-05-28T11:09:39.379Z</time>
      </trkpt>
      <trkpt lat="45.87540999054909" lon="8.701121918857098">
        <ele>471.21</ele>
        <time>2024-05-28T11:09:39.745Z</time>
      </trkpt>
      <trkpt lat="45.875429939478636" lon="8.701136922463775">
        <ele>471.21</ele>
        <time>2024-05-28T11:09:40.112Z</time>
      </trkpt>
      <trkpt lat="45.875447960570455" lon="8.70114698074758">
        <ele>471.22</ele>
        <time>2024-05-28T11:09:40.480Z</time>
      </trkpt>
      <trkpt lat="45.87546497583389" lon="8.701162990182638">
        <ele>471.24</ele>
        <time>2024-05-28T11:09:40.849Z</time>
      </trkpt>
      <trkpt lat="45.87548299692571" lon="8.701177993789315">
        <ele>471.27</ele>
        <time>2024-05-28T11:09:41.218Z</time>
      </trkpt>
      <trkpt lat="45.87549992837012" lon="8.701196936890483">
        <ele>471.31</ele>
        <time>2024-05-28T11:09:41.588Z</time>
      </trkpt>
      <trkpt lat="45.875512920320034" lon="8.701216969639063">
        <ele>471.37</ele>
        <time>2024-05-28T11:09:41.959Z</time>
      </trkpt>
      <trkpt lat="45.87553194724023" lon="8.701236918568611">
        <ele>471.43</ele>
        <time>2024-05-28T11:09:42.330Z</time>
      </trkpt>
      <trkpt lat="45.875557931140065" lon="8.701257957145572">
        <ele>471.5</ele>
        <time>2024-05-28T11:09:42.702Z</time>
      </trkpt>
      <trkpt lat="45.87558693252504" lon="8.701284946873784">
        <ele>471.58</ele>
        <time>2024-05-28T11:09:43.076Z</time>
      </trkpt>
      <trkpt lat="45.87560495361686" lon="8.701311936601996">
        <ele>471.67</ele>
        <time>2024-05-28T11:09:43.450Z</time>
      </trkpt>
      <trkpt lat="45.87562498636544" lon="8.70134194381535">
        <ele>471.78</ele>
        <time>2024-05-28T11:09:43.825Z</time>
      </trkpt>
      <trkpt lat="45.875639989972115" lon="8.701371951028705">
        <ele>471.89</ele>
        <time>2024-05-28T11:09:44.201Z</time>
      </trkpt>
      <trkpt lat="45.87565692141652" lon="8.701396929100156">
        <ele>472.02</ele>
        <time>2024-05-28T11:09:44.578Z</time>
      </trkpt>
      <trkpt lat="45.87566999718547" lon="8.701416961848736">
        <ele>472.15</ele>
        <time>2024-05-28T11:09:44.956Z</time>
      </trkpt>
      <trkpt lat="45.875687934458256" lon="8.701436994597316">
        <ele>472.3</ele>
        <time>2024-05-28T11:09:45.334Z</time>
      </trkpt>
      <trkpt lat="45.87570193223655" lon="8.701454931870103">
        <ele>472.46</ele>
        <time>2024-05-28T11:09:45.713Z</time>
      </trkpt>
      <trkpt lat="45.875726994127035" lon="8.701494997367263">
        <ele>472.64</ele>
        <time>2024-05-28T11:09:46.093Z</time>
      </trkpt>
      <trkpt lat="45.87574694305658" lon="8.701509917154908">
        <ele>472.81</ele>
        <time>2024-05-28T11:09:46.474Z</time>
      </trkpt>
      <trkpt lat="45.875767981633544" lon="8.701522992923856">
        <ele>472.99</ele>
        <time>2024-05-28T11:09:46.856Z</time>
      </trkpt>
      <trkpt lat="45.875791953876615" lon="8.701539924368262">
        <ele>473.18</ele>
        <time>2024-05-28T11:09:47.239Z</time>
      </trkpt>
      <trkpt lat="45.87580997496843" lon="8.701557945460081">
        <ele>473.37</ele>
        <time>2024-05-28T11:09:47.622Z</time>
      </trkpt>
      <trkpt lat="45.87582992389798" lon="8.701579989865422">
        <ele>473.57</ele>
        <time>2024-05-28T11:09:48.006Z</time>
      </trkpt>
      <trkpt lat="45.875857919454575" lon="8.701602956280112">
        <ele>473.78</ele>
        <time>2024-05-28T11:09:48.391Z</time>
      </trkpt>
      <trkpt lat="45.87588298134506" lon="8.70164293795824">
        <ele>474.01</ele>
        <time>2024-05-28T11:09:48.778Z</time>
      </trkpt>
      <trkpt lat="45.87590695358813" lon="8.70166196487844">
        <ele>474.22</ele>
        <time>2024-05-28T11:09:49.166Z</time>
      </trkpt>
      <trkpt lat="45.875921957194805" lon="8.70168199762702">
        <ele>474.44</ele>
        <time>2024-05-28T11:09:49.554Z</time>
      </trkpt>
      <trkpt lat="45.87593796662986" lon="8.701701946556568">
        <ele>474.66</ele>
        <time>2024-05-28T11:09:49.943Z</time>
      </trkpt>
      <trkpt lat="45.87595992721617" lon="8.701732959598303">
        <ele>474.89</ele>
        <time>2024-05-28T11:09:50.333Z</time>
      </trkpt>
      <trkpt lat="45.87597694247961" lon="8.701752992346883">
        <ele>475.1</ele>
        <time>2024-05-28T11:09:50.724Z</time>
      </trkpt>
      <trkpt lat="45.87599697522819" lon="8.701777970418334">
        <ele>475.33</ele>
        <time>2024-05-28T11:09:51.116Z</time>
      </trkpt>
      <trkpt lat="45.87602195329964" lon="8.701802948489785">
        <ele>475.55</ele>
        <time>2024-05-28T11:09:51.509Z</time>
      </trkpt>
      <trkpt lat="45.87603997439146" lon="8.701826920732856">
        <ele>475.77</ele>
        <time>2024-05-28T11:09:51.902Z</time>
      </trkpt>
      <trkpt lat="45.8760569896549" lon="8.701846953481436">
        <ele>475.99</ele>
        <time>2024-05-28T11:09:52.296Z</time>
      </trkpt>
      <trkpt lat="45.876069981604815" lon="8.701866986230016">
        <ele>476.22</ele>
        <time>2024-05-28T11:09:52.691Z</time>
      </trkpt>
      <trkpt lat="45.8760879188776" lon="8.701886935159564">
        <ele>476.44</ele>
        <time>2024-05-28T11:09:53.087Z</time>
      </trkpt>
      <trkpt lat="45.87610795162618" lon="8.701912919059396">
        <ele>476.66</ele>
        <time>2024-05-28T11:09:53.483Z</time>
      </trkpt>
      <trkpt lat="45.87611993774772" lon="8.701931945979595">
        <ele>476.88</ele>
        <time>2024-05-28T11:09:53.880Z</time>
      </trkpt>
      <trkpt lat="45.876136953011155" lon="8.701951978728175">
        <ele>477.1</ele>
        <time>2024-05-28T11:09:54.278Z</time>
      </trkpt>
      <trkpt lat="45.87615296244621" lon="8.701977962628007">
        <ele>477.33</ele>
        <time>2024-05-28T11:09:54.677Z</time>
      </trkpt>
      <trkpt lat="45.876161931082606" lon="8.702019955962896">
        <ele>477.55</ele>
        <time>2024-05-28T11:09:55.077Z</time>
      </trkpt>
      <trkpt lat="45.876177940517664" lon="8.702066978439689">
        <ele>477.77</ele>
        <time>2024-05-28T11:09:55.478Z</time>
      </trkpt>
      <trkpt lat="45.876197973266244" lon="8.702099919319153">
        <ele>477.98</ele>
        <time>2024-05-28T11:09:55.880Z</time>
      </trkpt>
      <trkpt lat="45.87620694190264" lon="8.702131938189268">
        <ele>478.2</ele>
        <time>2024-05-28T11:09:56.283Z</time>
      </trkpt>
      <trkpt lat="45.87621993385255" lon="8.702159933745861">
        <ele>478.41</ele>
        <time>2024-05-28T11:09:56.686Z</time>
      </trkpt>
      <trkpt lat="45.87623996660113" lon="8.702187929302454">
        <ele>478.61</ele>
        <time>2024-05-28T11:09:57.090Z</time>
      </trkpt>
      <trkpt lat="45.87625195272267" lon="8.702216930687428">
        <ele>478.82</ele>
        <time>2024-05-28T11:09:57.495Z</time>
      </trkpt>
      <trkpt lat="45.87626192718744" lon="8.702247943729162">
        <ele>479.02</ele>
        <time>2024-05-28T11:09:57.901Z</time>
      </trkpt>
      <trkpt lat="45.876264944672585" lon="8.702277950942516">
        <ele>479.23</ele>
        <time>2024-05-28T11:09:58.308Z</time>
      </trkpt>
      <trkpt lat="45.876267962157726" lon="8.70230795815587">
        <ele>479.44</ele>
        <time>2024-05-28T11:09:58.715Z</time>
      </trkpt>
      <trkpt lat="45.87627994827926" lon="8.702341988682747">
        <ele>479.65</ele>
        <time>2024-05-28T11:09:59.123Z</time>
      </trkpt>
      <trkpt lat="45.876286989077926" lon="8.702374929562211">
        <ele>479.85</ele>
        <time>2024-05-28T11:09:59.532Z</time>
      </trkpt>
      <trkpt lat="45.87629294022918" lon="8.702406948432326">
        <ele>480.05</ele>
        <time>2024-05-28T11:09:59.942Z</time>
      </trkpt>
      <trkpt lat="45.87629998102784" lon="8.702432932332158">
        <ele>480.25</ele>
        <time>2024-05-28T11:10:00.352Z</time>
      </trkpt>
      <trkpt lat="45.87631699629128" lon="8.702466962859035">
        <ele>480.45</ele>
        <time>2024-05-28T11:10:00.763Z</time>
      </trkpt>
      <trkpt lat="45.87632194161415" lon="8.70249998755753">
        <ele>480.64</ele>
        <time>2024-05-28T11:10:01.175Z</time>
      </trkpt>
      <trkpt lat="45.87633199989796" lon="8.702531922608614">
        <ele>480.84</ele>
        <time>2024-05-28T11:10:01.588Z</time>
      </trkpt>
      <trkpt lat="45.87633795104921" lon="8.702561929821968">
        <ele>481.03</ele>
        <time>2024-05-28T11:10:02.002Z</time>
      </trkpt>
      <trkpt lat="45.87634197436273" lon="8.702592942863703">
        <ele>481.23</ele>
        <time>2024-05-28T11:10:02.416Z</time>
      </trkpt>
      <trkpt lat="45.876351948827505" lon="8.70262697339058">
        <ele>481.43</ele>
        <time>2024-05-28T11:10:02.831Z</time>
      </trkpt>
      <trkpt lat="45.87635496631265" lon="8.702661925926805">
        <ele>481.63</ele>
        <time>2024-05-28T11:10:03.247Z</time>
      </trkpt>
      <trkpt lat="45.87635798379779" lon="8.702696962282062">
        <ele>481.82</ele>
        <time>2024-05-28T11:10:03.664Z</time>
      </trkpt>
      <trkpt lat="45.87636695243418" lon="8.702719928696752">
        <ele>482.01</ele>
        <time>2024-05-28T11:10:04.082Z</time>
      </trkpt>
      <trkpt lat="45.876372987404466" lon="8.702749935910106">
        <ele>482.21</ele>
        <time>2024-05-28T11:10:04.500Z</time>
      </trkpt>
      <trkpt lat="45.8763799443841" lon="8.70277994312346">
        <ele>482.4</ele>
        <time>2024-05-28T11:10:04.919Z</time>
      </trkpt>
      <trkpt lat="45.87638698518276" lon="8.702809950336814">
        <ele>482.58</ele>
        <time>2024-05-28T11:10:05.339Z</time>
      </trkpt>
      <trkpt lat="45.87639796547592" lon="8.70284297503531">
        <ele>482.77</ele>
        <time>2024-05-28T11:10:05.760Z</time>
      </trkpt>
      <trkpt lat="45.87640198878944" lon="8.702869964763522">
        <ele>482.95</ele>
        <time>2024-05-28T11:10:06.181Z</time>
      </trkpt>
      <trkpt lat="45.87641196325421" lon="8.702897960320115">
        <ele>483.13</ele>
        <time>2024-05-28T11:10:06.603Z</time>
      </trkpt>
      <trkpt lat="45.8764179982245" lon="8.702924950048327">
        <ele>483.31</ele>
        <time>2024-05-28T11:10:07.026Z</time>
      </trkpt>
      <trkpt lat="45.87642193771899" lon="8.702956968918443">
        <ele>483.48</ele>
        <time>2024-05-28T11:10:07.449Z</time>
      </trkpt>
      <trkpt lat="45.87642495520413" lon="8.702984964475036">
        <ele>483.65</ele>
        <time>2024-05-28T11:10:07.873Z</time>
      </trkpt>
      <trkpt lat="45.87642495520413" lon="8.703017989173532">
        <ele>483.82</ele>
        <time>2024-05-28T11:10:08.298Z</time>
      </trkpt>
      <trkpt lat="45.87642193771899" lon="8.703047996386886">
        <ele>483.99</ele>
        <time>2024-05-28T11:10:08.724Z</time>
      </trkpt>
      <trkpt lat="45.8764179982245" lon="8.703077919781208">
        <ele>484.14</ele>
        <time>2024-05-28T11:10:09.150Z</time>
      </trkpt>
      <trkpt lat="45.8764179982245" lon="8.703107926994562">
        <ele>484.29</ele>
        <time>2024-05-28T11:10:09.577Z</time>
      </trkpt>
      <trkpt lat="45.8764179982245" lon="8.703141957521439">
        <ele>484.43</ele>
        <time>2024-05-28T11:10:10.005Z</time>
      </trkpt>
      <trkpt lat="45.8764179982245" lon="8.703176993876696">
        <ele>484.56</ele>
        <time>2024-05-28T11:10:10.434Z</time>
      </trkpt>
      <trkpt lat="45.87642495520413" lon="8.703212952241302">
        <ele>484.68</ele>
        <time>2024-05-28T11:10:10.863Z</time>
      </trkpt>
      <trkpt lat="45.87643199600279" lon="8.703246982768178">
        <ele>484.8</ele>
        <time>2024-05-28T11:10:11.293Z</time>
      </trkpt>
      <trkpt lat="45.876437947154045" lon="8.703277995809913">
        <ele>484.9</ele>
        <time>2024-05-28T11:10:11.724Z</time>
      </trkpt>
      <trkpt lat="45.876437947154045" lon="8.703304985538125">
        <ele>485.0</ele>
        <time>2024-05-28T11:10:12.156Z</time>
      </trkpt>
      <trkpt lat="45.8764349296689" lon="8.703331975266337">
        <ele>485.09</ele>
        <time>2024-05-28T11:10:12.588Z</time>
      </trkpt>
      <trkpt lat="45.8764349296689" lon="8.70335997082293">
        <ele>485.17</ele>
        <time>2024-05-28T11:10:13.021Z</time>
      </trkpt>
      <trkpt lat="45.8764349296689" lon="8.703391989693046">
        <ele>485.24</ele>
        <time>2024-05-28T11:10:13.455Z</time>
      </trkpt>
      <trkpt lat="45.8764349296689" lon="8.7034219969064">
        <ele>485.29</ele>
        <time>2024-05-28T11:10:13.889Z</time>
      </trkpt>
      <trkpt lat="45.8764349296689" lon="8.703454937785864">
        <ele>485.34</ele>
        <time>2024-05-28T11:10:14.324Z</time>
      </trkpt>
      <trkpt lat="45.876437947154045" lon="8.703484944999218">
        <ele>485.38</ele>
        <time>2024-05-28T11:10:14.760Z</time>
      </trkpt>
      <trkpt lat="45.87644699960947" lon="8.703514952212572">
        <ele>485.4</ele>
        <time>2024-05-28T11:10:15.197Z</time>
      </trkpt>
      <trkpt lat="45.876459991559386" lon="8.703542947769165">
        <ele>485.42</ele>
        <time>2024-05-28T11:10:15.634Z</time>
      </trkpt>
      <trkpt lat="45.8764729835093" lon="8.703569937497377">
        <ele>485.43</ele>
        <time>2024-05-28T11:10:16.072Z</time>
      </trkpt>
      <trkpt lat="45.87648496963084" lon="8.703609919175506">
        <ele>485.43</ele>
        <time>2024-05-28T11:10:16.511Z</time>
      </trkpt>
      <trkpt lat="45.876501984894276" lon="8.703642943874002">
        <ele>485.42</ele>
        <time>2024-05-28T11:10:16.951Z</time>
      </trkpt>
      <trkpt lat="45.876504918560386" lon="8.703672951087356">
        <ele>485.41</ele>
        <time>2024-05-28T11:10:17.392Z</time>
      </trkpt>
      <trkpt lat="45.87651799432933" lon="8.703697929158807">
        <ele>485.38</ele>
        <time>2024-05-28T11:10:17.834Z</time>
      </trkpt>
      <trkpt lat="45.87651992216706" lon="8.703727936372161">
        <ele>485.35</ele>
        <time>2024-05-28T11:10:18.276Z</time>
      </trkpt>
      <trkpt lat="45.87653299793601" lon="8.703754926100373">
        <ele>485.32</ele>
        <time>2024-05-28T11:10:18.719Z</time>
      </trkpt>
      <trkpt lat="45.8765369374305" lon="8.703786944970489">
        <ele>485.28</ele>
        <time>2024-05-28T11:10:19.163Z</time>
      </trkpt>
      <trkpt lat="45.87653995491564" lon="8.70381292887032">
        <ele>485.24</ele>
        <time>2024-05-28T11:10:19.607Z</time>
      </trkpt>
      <trkpt lat="45.876542972400784" lon="8.703842936083674">
        <ele>485.2</ele>
        <time>2024-05-28T11:10:20.052Z</time>
      </trkpt>
      <trkpt lat="45.87655998766422" lon="8.70389792136848">
        <ele>485.15</ele>
        <time>2024-05-28T11:10:20.499Z</time>
      </trkpt>
      <trkpt lat="45.87655998766422" lon="8.703922983258963">
        <ele>485.1</ele>
        <time>2024-05-28T11:10:20.946Z</time>
      </trkpt>
      <trkpt lat="45.876561999320984" lon="8.703951984643936">
        <ele>485.06</ele>
        <time>2024-05-28T11:10:21.394Z</time>
      </trkpt>
      <trkpt lat="45.87657792493701" lon="8.703999929130077">
        <ele>485.0</ele>
        <time>2024-05-28T11:10:21.843Z</time>
      </trkpt>
      <trkpt lat="45.876591922715306" lon="8.70402499102056">
        <ele>484.95</ele>
        <time>2024-05-28T11:10:22.293Z</time>
      </trkpt>
      <trkpt lat="45.87659996934235" lon="8.70404695160687">
        <ele>484.91</ele>
        <time>2024-05-28T11:10:22.743Z</time>
      </trkpt>
      <trkpt lat="45.87661296129227" lon="8.704074947163463">
        <ele>484.87</ele>
        <time>2024-05-28T11:10:23.194Z</time>
      </trkpt>
      <trkpt lat="45.87662293575704" lon="8.704097997397184">
        <ele>484.83</ele>
        <time>2024-05-28T11:10:23.646Z</time>
      </trkpt>
      <trkpt lat="45.87663299404085" lon="8.704121969640255">
        <ele>484.79</ele>
        <time>2024-05-28T11:10:24.098Z</time>
      </trkpt>
      <trkpt lat="45.87664196267724" lon="8.704144936054945">
        <ele>484.77</ele>
        <time>2024-05-28T11:10:24.551Z</time>
      </trkpt>
      <trkpt lat="45.876651937142015" lon="8.704171925783157">
        <ele>484.74</ele>
        <time>2024-05-28T11:10:25.005Z</time>
      </trkpt>
      <trkpt lat="45.87666492909193" lon="8.70419992133975">
        <ele>484.73</ele>
        <time>2024-05-28T11:10:25.460Z</time>
      </trkpt>
      <trkpt lat="45.876677921041846" lon="8.704229928553104">
        <ele>484.72</ele>
        <time>2024-05-28T11:10:25.915Z</time>
      </trkpt>
      <trkpt lat="45.87668295018375" lon="8.704256918281317">
        <ele>484.73</ele>
        <time>2024-05-28T11:10:26.371Z</time>
      </trkpt>
      <trkpt lat="45.87668999098241" lon="8.70428298600018">
        <ele>484.75</ele>
        <time>2024-05-28T11:10:26.828Z</time>
      </trkpt>
      <trkpt lat="45.87669292464852" lon="8.704314921051264">
        <ele>484.78</ele>
        <time>2024-05-28T11:10:27.285Z</time>
      </trkpt>
      <trkpt lat="45.876696947962046" lon="8.704342916607857">
        <ele>484.81</ele>
        <time>2024-05-28T11:10:27.743Z</time>
      </trkpt>
      <trkpt lat="45.87669996544719" lon="8.7043699901551">
        <ele>484.86</ele>
        <time>2024-05-28T11:10:28.202Z</time>
      </trkpt>
      <trkpt lat="45.87670993991196" lon="8.704404942691326">
        <ele>484.92</ele>
        <time>2024-05-28T11:10:28.662Z</time>
      </trkpt>
      <trkpt lat="45.876716980710626" lon="8.704441990703344">
        <ele>484.99</ele>
        <time>2024-05-28T11:10:29.122Z</time>
      </trkpt>
      <trkpt lat="45.8767129573971" lon="8.704474931582808">
        <ele>485.08</ele>
        <time>2024-05-28T11:10:29.583Z</time>
      </trkpt>
      <trkpt lat="45.87670993991196" lon="8.704502927139401">
        <ele>485.18</ele>
        <time>2024-05-28T11:10:30.045Z</time>
      </trkpt>
      <trkpt lat="45.876716980710626" lon="8.704536957666278">
        <ele>485.3</ele>
        <time>2024-05-28T11:10:30.508Z</time>
      </trkpt>
      <trkpt lat="45.87671999819577" lon="8.704567970708013">
        <ele>485.42</ele>
        <time>2024-05-28T11:10:30.971Z</time>
      </trkpt>
      <trkpt lat="45.87672796100378" lon="8.704596972092986">
        <ele>485.56</ele>
        <time>2024-05-28T11:10:31.435Z</time>
      </trkpt>
      <trkpt lat="45.8767319843173" lon="8.704621950164437">
        <ele>485.7</ele>
        <time>2024-05-28T11:10:31.900Z</time>
      </trkpt>
      <trkpt lat="45.87674195878208" lon="8.704651957377791">
        <ele>485.86</ele>
        <time>2024-05-28T11:10:32.366Z</time>
      </trkpt>
      <trkpt lat="45.876757968217134" lon="8.704677941277623">
        <ele>486.03</ele>
        <time>2024-05-28T11:10:32.832Z</time>
      </trkpt>
      <trkpt lat="45.87676995433867" lon="8.704704931005836">
        <ele>486.2</ele>
        <time>2024-05-28T11:10:33.299Z</time>
      </trkpt>
      <trkpt lat="45.876779928803444" lon="8.704731920734048">
        <ele>486.39</ele>
        <time>2024-05-28T11:10:33.767Z</time>
      </trkpt>
      <trkpt lat="45.876779928803444" lon="8.704757988452911">
        <ele>486.6</ele>
        <time>2024-05-28T11:10:34.235Z</time>
      </trkpt>
      <trkpt lat="45.876782946288586" lon="8.704784978181124">
        <ele>486.81</ele>
        <time>2024-05-28T11:10:34.704Z</time>
      </trkpt>
      <trkpt lat="45.87678998708725" lon="8.704816997051239">
        <ele>487.04</ele>
        <time>2024-05-28T11:10:35.174Z</time>
      </trkpt>
      <trkpt lat="45.876782946288586" lon="8.704851949587464">
        <ele>487.28</ele>
        <time>2024-05-28T11:10:35.645Z</time>
      </trkpt>
      <trkpt lat="45.876779928803444" lon="8.704886985942721">
        <ele>487.53</ele>
        <time>2024-05-28T11:10:36.117Z</time>
      </trkpt>
      <trkpt lat="45.876779928803444" lon="8.704922944307327">
        <ele>487.78</ele>
        <time>2024-05-28T11:10:36.589Z</time>
      </trkpt>
      <trkpt lat="45.876776995137334" lon="8.704956974834204">
        <ele>488.04</ele>
        <time>2024-05-28T11:10:37.062Z</time>
      </trkpt>
      <trkpt lat="45.876782946288586" lon="8.7049899995327">
        <ele>488.31</ele>
        <time>2024-05-28T11:10:37.536Z</time>
      </trkpt>
      <trkpt lat="45.876782946288586" lon="8.705022940412164">
        <ele>488.58</ele>
        <time>2024-05-28T11:10:38.011Z</time>
      </trkpt>
      <trkpt lat="45.87678998708725" lon="8.705054959282279">
        <ele>488.85</ele>
        <time>2024-05-28T11:10:38.487Z</time>
      </trkpt>
      <trkpt lat="45.87679694406688" lon="8.70507993735373">
        <ele>489.11</ele>
        <time>2024-05-28T11:10:38.963Z</time>
      </trkpt>
      <trkpt lat="45.87680792436004" lon="8.705107932910323">
        <ele>489.39</ele>
        <time>2024-05-28T11:10:39.440Z</time>
      </trkpt>
      <trkpt lat="45.87681194767356" lon="8.705134922638535">
        <ele>489.67</ele>
        <time>2024-05-28T11:10:39.918Z</time>
      </trkpt>
      <trkpt lat="45.8768149651587" lon="8.70516199618578">
        <ele>489.95</ele>
        <time>2024-05-28T11:10:40.396Z</time>
      </trkpt>
      <trkpt lat="45.87682192213833" lon="8.705201977863908">
        <ele>490.23</ele>
        <time>2024-05-28T11:10:40.875Z</time>
      </trkpt>
      <trkpt lat="45.87683499790728" lon="8.705231985077262">
        <ele>490.51</ele>
        <time>2024-05-28T11:10:41.355Z</time>
      </trkpt>
      <trkpt lat="45.876842960715294" lon="8.705259980633855">
        <ele>490.78</ele>
        <time>2024-05-28T11:10:41.836Z</time>
      </trkpt>
      <trkpt lat="45.87685997597873" lon="8.705286970362067">
        <ele>491.05</ele>
        <time>2024-05-28T11:10:42.318Z</time>
      </trkpt>
      <trkpt lat="45.87688193656504" lon="8.705311948433518">
        <ele>491.31</ele>
        <time>2024-05-28T11:10:42.800Z</time>
      </trkpt>
      <trkpt lat="45.87690792046487" lon="8.705332987010479">
        <ele>491.56</ele>
        <time>2024-05-28T11:10:43.283Z</time>
      </trkpt>
      <trkpt lat="45.87692694738507" lon="8.705359976738691">
        <ele>491.82</ele>
        <time>2024-05-28T11:10:43.767Z</time>
      </trkpt>
      <trkpt lat="45.87693692184985" lon="8.705391995608807">
        <ele>492.08</ele>
        <time>2024-05-28T11:10:44.252Z</time>
      </trkpt>
      <trkpt lat="45.876949997618794" lon="8.705421919003129">
        <ele>492.33</ele>
        <time>2024-05-28T11:10:44.738Z</time>
      </trkpt>
      <trkpt lat="45.87695997208357" lon="8.705451926216483">
        <ele>492.57</ele>
        <time>2024-05-28T11:10:45.225Z</time>
      </trkpt>
      <trkpt lat="45.87696793489158" lon="8.705479921773076">
        <ele>492.82</ele>
        <time>2024-05-28T11:10:45.712Z</time>
      </trkpt>
      <trkpt lat="45.876974975690246" lon="8.70550699532032">
        <ele>493.05</ele>
        <time>2024-05-28T11:10:46.200Z</time>
      </trkpt>
      <trkpt lat="45.87698796764016" lon="8.705531973391771">
        <ele>493.28</ele>
        <time>2024-05-28T11:10:46.689Z</time>
      </trkpt>
      <trkpt lat="45.876997942104936" lon="8.705559968948364">
        <ele>493.5</ele>
        <time>2024-05-28T11:10:47.179Z</time>
      </trkpt>
      <trkpt lat="45.87700699456036" lon="8.705586958676577">
        <ele>493.72</ele>
        <time>2024-05-28T11:10:47.669Z</time>
      </trkpt>
      <trkpt lat="45.87700992822647" lon="8.70561696588993">
        <ele>493.93</ele>
        <time>2024-05-28T11:10:48.160Z</time>
      </trkpt>
      <trkpt lat="45.877016969025135" lon="8.705647978931665">
        <ele>494.12</ele>
        <time>2024-05-28T11:10:48.652Z</time>
      </trkpt>
      <trkpt lat="45.87702694348991" lon="8.70567999780178">
        <ele>494.31</ele>
        <time>2024-05-28T11:10:49.145Z</time>
      </trkpt>
      <trkpt lat="45.87703297846019" lon="8.70570296421647">
        <ele>494.49</ele>
        <time>2024-05-28T11:10:49.638Z</time>
      </trkpt>
      <trkpt lat="45.87704798206687" lon="8.705734983086586">
        <ele>494.65</ele>
        <time>2024-05-28T11:10:50.132Z</time>
      </trkpt>
      <trkpt lat="45.87704798206687" lon="8.705794997513294">
        <ele>494.82</ele>
        <time>2024-05-28T11:10:50.627Z</time>
      </trkpt>
      <trkpt lat="45.877041947096586" lon="8.705832967534661">
        <ele>494.99</ele>
        <time>2024-05-28T11:10:51.123Z</time>
      </trkpt>
      <trkpt lat="45.877041947096586" lon="8.705862974748015">
        <ele>495.13</ele>
        <time>2024-05-28T11:10:51.620Z</time>
      </trkpt>
      <trkpt lat="45.877041947096586" lon="8.705891976132989">
        <ele>495.28</ele>
        <time>2024-05-28T11:10:52.118Z</time>
      </trkpt>
      <trkpt lat="45.877041947096586" lon="8.705922989174724">
        <ele>495.4</ele>
        <time>2024-05-28T11:10:52.616Z</time>
      </trkpt>
      <trkpt lat="45.87704798206687" lon="8.705956935882568">
        <ele>495.52</ele>
        <time>2024-05-28T11:10:53.115Z</time>
      </trkpt>
      <trkpt lat="45.877057956531644" lon="8.705986943095922">
        <ele>495.62</ele>
        <time>2024-05-28T11:10:53.615Z</time>
      </trkpt>
      <trkpt lat="45.877061979845166" lon="8.706016950309277">
        <ele>495.72</ele>
        <time>2024-05-28T11:10:54.116Z</time>
      </trkpt>
      <trkpt lat="45.87707497179508" lon="8.706052992492914">
        <ele>495.8</ele>
        <time>2024-05-28T11:10:54.618Z</time>
      </trkpt>
      <trkpt lat="45.87707991711795" lon="8.706077970564365">
        <ele>495.88</ele>
        <time>2024-05-28T11:10:55.120Z</time>
      </trkpt>
      <trkpt lat="45.8770929928869" lon="8.706104960292578">
        <ele>495.94</ele>
        <time>2024-05-28T11:10:55.623Z</time>
      </trkpt>
      <trkpt lat="45.8771069906652" lon="8.706137984991074">
        <ele>496.0</ele>
        <time>2024-05-28T11:10:56.127Z</time>
      </trkpt>
      <trkpt lat="45.87711294181645" lon="8.706166986376047">
        <ele>496.05</ele>
        <time>2024-05-28T11:10:56.632Z</time>
      </trkpt>
      <trkpt lat="45.87711998261511" lon="8.706191964447498">
        <ele>496.09</ele>
        <time>2024-05-28T11:10:57.137Z</time>
      </trkpt>
      <trkpt lat="45.87713498622179" lon="8.706219960004091">
        <ele>496.11</ele>
        <time>2024-05-28T11:10:57.643Z</time>
      </trkpt>
      <trkpt lat="45.877147978171706" lon="8.706244938075542">
        <ele>496.13</ele>
        <time>2024-05-28T11:10:58.150Z</time>
      </trkpt>
      <trkpt lat="45.87715996429324" lon="8.706276956945658">
        <ele>496.14</ele>
        <time>2024-05-28T11:10:58.658Z</time>
      </trkpt>
      <trkpt lat="45.87717697955668" lon="8.70630294084549">
        <ele>496.14</ele>
        <time>2024-05-28T11:10:59.166Z</time>
      </trkpt>
      <trkpt lat="45.87719298899174" lon="8.706331942230463">
        <ele>496.13</ele>
        <time>2024-05-28T11:10:59.675Z</time>
      </trkpt>
      <trkpt lat="45.87720497511327" lon="8.706359937787056">
        <ele>496.12</ele>
        <time>2024-05-28T11:11:00.185Z</time>
      </trkpt>
      <trkpt lat="45.87721494957805" lon="8.70638994500041">
        <ele>496.1</ele>
        <time>2024-05-28T11:11:00.696Z</time>
      </trkpt>
      <trkpt lat="45.87721796706319" lon="8.706419952213764">
        <ele>496.08</ele>
        <time>2024-05-28T11:11:01.208Z</time>
      </trkpt>
      <trkpt lat="45.87722199037671" lon="8.70645297691226">
        <ele>496.05</ele>
        <time>2024-05-28T11:11:01.720Z</time>
      </trkpt>
      <trkpt lat="45.87723498232663" lon="8.706481978297234">
        <ele>496.02</ele>
        <time>2024-05-28T11:11:02.233Z</time>
      </trkpt>
      <trkpt lat="45.8772399276495" lon="8.706509973853827">
        <ele>495.99</ele>
        <time>2024-05-28T11:11:02.747Z</time>
      </trkpt>
      <trkpt lat="45.877249985933304" lon="8.70653998106718">
        <ele>495.94</ele>
        <time>2024-05-28T11:11:03.262Z</time>
      </trkpt>
      <trkpt lat="45.877252919599414" lon="8.706567976623774">
        <ele>495.9</ele>
        <time>2024-05-28T11:11:03.777Z</time>
      </trkpt>
      <trkpt lat="45.877256942912936" lon="8.706599995493889">
        <ele>495.85</ele>
        <time>2024-05-28T11:11:04.293Z</time>
      </trkpt>
      <trkpt lat="45.87726691737771" lon="8.706627991050482">
        <ele>495.8</ele>
        <time>2024-05-28T11:11:04.810Z</time>
      </trkpt>
      <trkpt lat="45.87726993486285" lon="8.706657998263836">
        <ele>495.74</ele>
        <time>2024-05-28T11:11:05.327Z</time>
      </trkpt>
      <trkpt lat="45.87728493846953" lon="8.706712983548641">
        <ele>495.68</ele>
        <time>2024-05-28T11:11:05.846Z</time>
      </trkpt>
      <trkpt lat="45.877294996753335" lon="8.70675296522677">
        <ele>495.62</ele>
        <time>2024-05-28T11:11:06.366Z</time>
      </trkpt>
      <trkpt lat="45.87730798870325" lon="8.70677794329822">
        <ele>495.55</ele>
        <time>2024-05-28T11:11:06.887Z</time>
      </trkpt>
      <trkpt lat="45.877317963168025" lon="8.706806944683194">
        <ele>495.47</ele>
        <time>2024-05-28T11:11:07.408Z</time>
      </trkpt>
      <trkpt lat="45.8773329667747" lon="8.706857990473509">
        <ele>495.39</ele>
        <time>2024-05-28T11:11:07.931Z</time>
      </trkpt>
      <trkpt lat="45.877346964553" lon="8.706886991858482">
        <ele>495.31</ele>
        <time>2024-05-28T11:11:08.454Z</time>
      </trkpt>
      <trkpt lat="45.877359956502914" lon="8.706917921081185">
        <ele>495.22</ele>
        <time>2024-05-28T11:11:08.978Z</time>
      </trkpt>
      <trkpt lat="45.87737194262445" lon="8.706946922466159">
        <ele>495.13</ele>
        <time>2024-05-28T11:11:09.503Z</time>
      </trkpt>
      <trkpt lat="45.87737797759473" lon="8.706979947164655">
        <ele>495.04</ele>
        <time>2024-05-28T11:11:10.029Z</time>
      </trkpt>
      <trkpt lat="45.87737496010959" lon="8.707009954378009">
        <ele>494.95</ele>
        <time>2024-05-28T11:11:10.556Z</time>
      </trkpt>
      <trkpt lat="45.87737496010959" lon="8.707036944106221">
        <ele>494.85</ele>
        <time>2024-05-28T11:11:11.083Z</time>
      </trkpt>
      <trkpt lat="45.87737496010959" lon="8.707079943269491">
        <ele>494.75</ele>
        <time>2024-05-28T11:11:11.611Z</time>
      </trkpt>
      <trkpt lat="45.87737496010959" lon="8.70711699128151">
        <ele>494.64</ele>
        <time>2024-05-28T11:11:12.140Z</time>
      </trkpt>
      <trkpt lat="45.87737496010959" lon="8.707154961302876">
        <ele>494.53</ele>
        <time>2024-05-28T11:11:12.670Z</time>
      </trkpt>
      <trkpt lat="45.87737496010959" lon="8.70718496851623">
        <ele>494.41</ele>
        <time>2024-05-28T11:11:13.201Z</time>
      </trkpt>
      <trkpt lat="45.87737797759473" lon="8.707214975729585">
        <ele>494.28</ele>
        <time>2024-05-28T11:11:13.732Z</time>
      </trkpt>
      <trkpt lat="45.877384934574366" lon="8.707247916609049">
        <ele>494.15</ele>
        <time>2024-05-28T11:11:14.264Z</time>
      </trkpt>
      <trkpt lat="45.877384934574366" lon="8.707281947135925">
        <ele>494.02</ele>
        <time>2024-05-28T11:11:14.797Z</time>
      </trkpt>
      <trkpt lat="45.87738795205951" lon="8.707314971834421">
        <ele>493.88</ele>
        <time>2024-05-28T11:11:15.331Z</time>
      </trkpt>
      <trkpt lat="45.877384934574366" lon="8.707359982654452">
        <ele>493.74</ele>
        <time>2024-05-28T11:11:15.866Z</time>
      </trkpt>
      <trkpt lat="45.877384934574366" lon="8.707391917705536">
        <ele>493.6</ele>
        <time>2024-05-28T11:11:16.402Z</time>
      </trkpt>
      <trkpt lat="45.87739197537303" lon="8.70744195766747">
        <ele>493.46</ele>
        <time>2024-05-28T11:11:16.939Z</time>
      </trkpt>
      <trkpt lat="45.87739499285817" lon="8.707492919638753">
        <ele>493.31</ele>
        <time>2024-05-28T11:11:17.477Z</time>
      </trkpt>
      <trkpt lat="45.87739792652428" lon="8.707524938508868">
        <ele>493.16</ele>
        <time>2024-05-28T11:11:18.016Z</time>
      </trkpt>
      <trkpt lat="45.87739792652428" lon="8.707557963207364">
        <ele>493.01</ele>
        <time>2024-05-28T11:11:18.555Z</time>
      </trkpt>
      <trkpt lat="45.877402955666184" lon="8.70758998207748">
        <ele>492.85</ele>
        <time>2024-05-28T11:11:19.095Z</time>
      </trkpt>
      <trkpt lat="45.87740697897971" lon="8.707619989290833">
        <ele>492.68</ele>
        <time>2024-05-28T11:11:19.636Z</time>
      </trkpt>
      <trkpt lat="45.87741293013096" lon="8.707651924341917">
        <ele>492.52</ele>
        <time>2024-05-28T11:11:20.178Z</time>
      </trkpt>
      <trkpt lat="45.877426927909255" lon="8.70767991989851">
        <ele>492.34</ele>
        <time>2024-05-28T11:11:20.720Z</time>
      </trkpt>
      <trkpt lat="45.87743698619306" lon="8.707709927111864">
        <ele>492.16</ele>
        <time>2024-05-28T11:11:21.263Z</time>
      </trkpt>
      <trkpt lat="45.877444949001074" lon="8.707736916840076">
        <ele>491.99</ele>
        <time>2024-05-28T11:11:21.807Z</time>
      </trkpt>
      <trkpt lat="45.87745794095099" lon="8.707779999822378">
        <ele>491.81</ele>
        <time>2024-05-28T11:11:22.352Z</time>
      </trkpt>
      <trkpt lat="45.877467999234796" lon="8.7078099232167">
        <ele>491.63</ele>
        <time>2024-05-28T11:11:22.898Z</time>
      </trkpt>
      <trkpt lat="45.877471938729286" lon="8.707836996763945">
        <ele>491.46</ele>
        <time>2024-05-28T11:11:23.444Z</time>
      </trkpt>
      <trkpt lat="45.877471938729286" lon="8.707861974835396">
        <ele>491.28</ele>
        <time>2024-05-28T11:11:23.991Z</time>
      </trkpt>
      <trkpt lat="45.87747495621443" lon="8.70789298787713">
        <ele>491.11</ele>
        <time>2024-05-28T11:11:24.539Z</time>
      </trkpt>
      <trkpt lat="45.87748291902244" lon="8.707927940413356">
        <ele>490.93</ele>
        <time>2024-05-28T11:11:25.088Z</time>
      </trkpt>
      <trkpt lat="45.87748291902244" lon="8.707961970940232">
        <ele>490.76</ele>
        <time>2024-05-28T11:11:25.637Z</time>
      </trkpt>
      <trkpt lat="45.87748694233596" lon="8.707991978153586">
        <ele>490.6</ele>
        <time>2024-05-28T11:11:26.187Z</time>
      </trkpt>
      <trkpt lat="45.87749297730625" lon="8.708022991195321">
        <ele>490.44</ele>
        <time>2024-05-28T11:11:26.738Z</time>
      </trkpt>
      <trkpt lat="45.87749691680074" lon="8.708059955388308">
        <ele>490.28</ele>
        <time>2024-05-28T11:11:27.290Z</time>
      </trkpt>
      <trkpt lat="45.87750697508454" lon="8.708092980086803">
        <ele>490.12</ele>
        <time>2024-05-28T11:11:27.843Z</time>
      </trkpt>
      <trkpt lat="45.877512926235795" lon="8.708126926794648">
        <ele>489.98</ele>
        <time>2024-05-28T11:11:28.396Z</time>
      </trkpt>
      <trkpt lat="45.87751996703446" lon="8.708159951493144">
        <ele>489.83</ele>
        <time>2024-05-28T11:11:28.950Z</time>
      </trkpt>
      <trkpt lat="45.87751996703446" lon="8.708186941221356">
        <ele>489.71</ele>
        <time>2024-05-28T11:11:29.505Z</time>
      </trkpt>
      <trkpt lat="45.87751996703446" lon="8.708221977576613">
        <ele>489.58</ele>
        <time>2024-05-28T11:11:30.061Z</time>
      </trkpt>
      <trkpt lat="45.87751996703446" lon="8.70825994759798">
        <ele>489.47</ele>
        <time>2024-05-28T11:11:30.618Z</time>
      </trkpt>
      <trkpt lat="45.87752499617636" lon="8.708296995609999">
        <ele>489.37</ele>
        <time>2024-05-28T11:11:31.175Z</time>
      </trkpt>
      <trkpt lat="45.877531953155994" lon="8.70834494009614">
        <ele>489.27</ele>
        <time>2024-05-28T11:11:31.734Z</time>
      </trkpt>
      <trkpt lat="45.877534970641136" lon="8.708399925380945">
        <ele>489.18</ele>
        <time>2024-05-28T11:11:32.294Z</time>
      </trkpt>
      <trkpt lat="45.877534970641136" lon="8.708444936200976">
        <ele>489.12</ele>
        <time>2024-05-28T11:11:32.855Z</time>
      </trkpt>
      <trkpt lat="45.877534970641136" lon="8.708489947021008">
        <ele>489.08</ele>
        <time>2024-05-28T11:11:33.417Z</time>
      </trkpt>
      <trkpt lat="45.87754494510591" lon="8.708522971719503">
        <ele>489.04</ele>
        <time>2024-05-28T11:11:33.980Z</time>
      </trkpt>
      <trkpt lat="45.87753798812628" lon="8.708561947569251">
        <ele>489.03</ele>
        <time>2024-05-28T11:11:34.544Z</time>
      </trkpt>
      <trkpt lat="45.87753798812628" lon="8.70860192924738">
        <ele>489.03</ele>
        <time>2024-05-28T11:11:35.109Z</time>
      </trkpt>
      <trkpt lat="45.87754796259105" lon="8.70864199474454">
        <ele>489.04</ele>
        <time>2024-05-28T11:11:35.675Z</time>
      </trkpt>
      <trkpt lat="45.87754796259105" lon="8.708679964765906">
        <ele>489.07</ele>
        <time>2024-05-28T11:11:36.241Z</time>
      </trkpt>
      <trkpt lat="45.877554919570684" lon="8.708717934787273">
        <ele>489.12</ele>
        <time>2024-05-28T11:11:36.808Z</time>
      </trkpt>
      <trkpt lat="45.877557937055826" lon="8.708747942000628">
        <ele>489.18</ele>
        <time>2024-05-28T11:11:37.376Z</time>
      </trkpt>
      <trkpt lat="45.87756296619773" lon="8.708782978355885">
        <ele>489.26</ele>
        <time>2024-05-28T11:11:37.945Z</time>
      </trkpt>
      <trkpt lat="45.87756296619773" lon="8.70881692506373">
        <ele>489.36</ele>
        <time>2024-05-28T11:11:38.515Z</time>
      </trkpt>
      <trkpt lat="45.87756296619773" lon="8.708846932277083">
        <ele>489.47</ele>
        <time>2024-05-28T11:11:39.085Z</time>
      </trkpt>
      <trkpt lat="45.87756296619773" lon="8.70887995697558">
        <ele>489.6</ele>
        <time>2024-05-28T11:11:39.656Z</time>
      </trkpt>
      <trkpt lat="45.877557937055826" lon="8.708906946703792">
        <ele>489.75</ele>
        <time>2024-05-28T11:11:40.228Z</time>
      </trkpt>
      <trkpt lat="45.877554919570684" lon="8.708932930603623">
        <ele>489.92</ele>
        <time>2024-05-28T11:11:40.800Z</time>
      </trkpt>
      <trkpt lat="45.87754796259105" lon="8.708957992494106">
        <ele>490.1</ele>
        <time>2024-05-28T11:11:41.373Z</time>
      </trkpt>
      <trkpt lat="45.877534970641136" lon="8.708979953080416">
        <ele>490.29</ele>
        <time>2024-05-28T11:11:41.947Z</time>
      </trkpt>
      <trkpt lat="45.87751694954932" lon="8.708996968343854">
        <ele>490.51</ele>
        <time>2024-05-28T11:11:42.521Z</time>
      </trkpt>
      <trkpt lat="45.87749297730625" lon="8.709014989435673">
        <ele>490.74</ele>
        <time>2024-05-28T11:11:43.096Z</time>
      </trkpt>
      <trkpt lat="45.87745492346585" lon="8.709039967507124">
        <ele>490.99</ele>
        <time>2024-05-28T11:11:43.673Z</time>
      </trkpt>
      <trkpt lat="45.87743698619306" lon="8.70905195362866">
        <ele>491.23</ele>
        <time>2024-05-28T11:11:44.250Z</time>
      </trkpt>
      <trkpt lat="45.87740697897971" lon="8.709059916436672">
        <ele>491.5</ele>
        <time>2024-05-28T11:11:44.828Z</time>
      </trkpt>
      <trkpt lat="45.877384934574366" lon="8.70907198637724">
        <ele>491.77</ele>
        <time>2024-05-28T11:11:45.407Z</time>
      </trkpt>
      <trkpt lat="45.87736498564482" lon="8.709084978327155">
        <ele>492.05</ele>
        <time>2024-05-28T11:11:45.987Z</time>
      </trkpt>
      <trkpt lat="45.877346964553" lon="8.709099981933832">
        <ele>492.32</ele>
        <time>2024-05-28T11:11:46.568Z</time>
      </trkpt>
      <trkpt lat="45.877319974824786" lon="8.709111968055367">
        <ele>492.61</ele>
        <time>2024-05-28T11:11:47.150Z</time>
      </trkpt>
      <trkpt lat="45.87729197926819" lon="8.70913996361196">
        <ele>492.91</ele>
        <time>2024-05-28T11:11:47.733Z</time>
      </trkpt>
      <trkpt lat="45.877272952347994" lon="8.709154967218637">
        <ele>493.2</ele>
        <time>2024-05-28T11:11:48.316Z</time>
      </trkpt>
      <trkpt lat="45.877256942912936" lon="8.709169970825315">
        <ele>493.49</ele>
        <time>2024-05-28T11:11:48.900Z</time>
      </trkpt>
      <trkpt lat="45.8772399276495" lon="8.709192937240005">
        <ele>493.78</ele>
        <time>2024-05-28T11:11:49.485Z</time>
      </trkpt>
      <trkpt lat="45.877231964841485" lon="8.709219926968217">
        <ele>494.06</ele>
        <time>2024-05-28T11:11:50.071Z</time>
      </trkpt>
      <trkpt lat="45.87722794152796" lon="8.709249934181571">
        <ele>494.33</ele>
        <time>2024-05-28T11:11:50.657Z</time>
      </trkpt>
      <trkpt lat="45.87722794152796" lon="8.709289999678731">
        <ele>494.59</ele>
        <time>2024-05-28T11:11:51.244Z</time>
      </trkpt>
      <trkpt lat="45.877231964841485" lon="8.709322940558195">
        <ele>494.85</ele>
        <time>2024-05-28T11:11:51.832Z</time>
      </trkpt>
      <trkpt lat="45.8772399276495" lon="8.709361916407943">
        <ele>495.09</ele>
        <time>2024-05-28T11:11:52.421Z</time>
      </trkpt>
      <trkpt lat="45.87724696844816" lon="8.709387984126806">
        <ele>495.34</ele>
        <time>2024-05-28T11:11:53.011Z</time>
      </trkpt>
      <trkpt lat="45.87723799981177" lon="8.709431989118457">
        <ele>495.6</ele>
        <time>2024-05-28T11:11:53.602Z</time>
      </trkpt>
      <trkpt lat="45.877231964841485" lon="8.70946291834116">
        <ele>495.85</ele>
        <time>2024-05-28T11:11:54.193Z</time>
      </trkpt>
      <trkpt lat="45.877231964841485" lon="8.709499966353178">
        <ele>496.1</ele>
        <time>2024-05-28T11:11:54.785Z</time>
      </trkpt>
      <trkpt lat="45.877231964841485" lon="8.709559980779886">
        <ele>496.33</ele>
        <time>2024-05-28T11:11:55.379Z</time>
      </trkpt>
      <trkpt lat="45.877231964841485" lon="8.70959292165935">
        <ele>496.56</ele>
        <time>2024-05-28T11:11:55.973Z</time>
      </trkpt>
      <trkpt lat="45.877231964841485" lon="8.709624940529466">
        <ele>496.78</ele>
        <time>2024-05-28T11:11:56.568Z</time>
      </trkpt>
      <trkpt lat="45.877231964841485" lon="8.70965494774282">
        <ele>497.0</ele>
        <time>2024-05-28T11:11:57.164Z</time>
      </trkpt>
      <trkpt lat="45.877231964841485" lon="8.709686966612935">
        <ele>497.21</ele>
        <time>2024-05-28T11:11:57.761Z</time>
      </trkpt>
      <trkpt lat="45.87721796706319" lon="8.709719991311431">
        <ele>497.44</ele>
        <time>2024-05-28T11:11:58.359Z</time>
      </trkpt>
      <trkpt lat="45.877211932092905" lon="8.709751926362514">
        <ele>497.65</ele>
        <time>2024-05-28T11:11:58.957Z</time>
      </trkpt>
      <trkpt lat="45.87719298899174" lon="8.709779921919107">
        <ele>497.88</ele>
        <time>2024-05-28T11:11:59.556Z</time>
      </trkpt>
      <trkpt lat="45.877186954021454" lon="8.709839936345816">
        <ele>498.09</ele>
        <time>2024-05-28T11:12:00.157Z</time>
      </trkpt>
      <trkpt lat="45.87717999704182" lon="8.709871955215931">
        <ele>498.29</ele>
        <time>2024-05-28T11:12:00.758Z</time>
      </trkpt>
      <trkpt lat="45.877186954021454" lon="8.709897939115763">
        <ele>498.46</ele>
        <time>2024-05-28T11:12:01.360Z</time>
      </trkpt>
      <trkpt lat="45.877186954021454" lon="8.709927946329117">
        <ele>498.64</ele>
        <time>2024-05-28T11:12:01.963Z</time>
      </trkpt>
      <trkpt lat="45.877189971506596" lon="8.709959965199232">
        <ele>498.8</ele>
        <time>2024-05-28T11:12:02.567Z</time>
      </trkpt>
      <trkpt lat="45.87719298899174" lon="8.709994917735457">
        <ele>498.96</ele>
        <time>2024-05-28T11:12:03.171Z</time>
      </trkpt>
      <trkpt lat="45.87719298899174" lon="8.710027942433953">
        <ele>499.12</ele>
        <time>2024-05-28T11:12:03.776Z</time>
      </trkpt>
      <trkpt lat="45.87719692848623" lon="8.710057949647307">
        <ele>499.27</ele>
        <time>2024-05-28T11:12:04.382Z</time>
      </trkpt>
      <trkpt lat="45.87720497511327" lon="8.710086951032281">
        <ele>499.42</ele>
        <time>2024-05-28T11:12:04.989Z</time>
      </trkpt>
      <trkpt lat="45.877207992598414" lon="8.710117964074016">
        <ele>499.56</ele>
        <time>2024-05-28T11:12:05.596Z</time>
      </trkpt>
      <trkpt lat="45.877207992598414" lon="8.71014696545899">
        <ele>499.71</ele>
        <time>2024-05-28T11:12:06.204Z</time>
      </trkpt>
      <trkpt lat="45.877211932092905" lon="8.710177978500724">
        <ele>499.85</ele>
        <time>2024-05-28T11:12:06.813Z</time>
      </trkpt>
      <trkpt lat="45.87721494957805" lon="8.710207985714078">
        <ele>499.99</ele>
        <time>2024-05-28T11:12:07.422Z</time>
      </trkpt>
      <trkpt lat="45.87721796706319" lon="8.710241932421923">
        <ele>500.13</ele>
        <time>2024-05-28T11:12:08.032Z</time>
      </trkpt>
      <trkpt lat="45.877231964841485" lon="8.710272945463657">
        <ele>500.25</ele>
        <time>2024-05-28T11:12:08.643Z</time>
      </trkpt>
      <trkpt lat="45.87723498232663" lon="8.710304964333773">
        <ele>500.39</ele>
        <time>2024-05-28T11:12:09.255Z</time>
      </trkpt>
      <trkpt lat="45.8772399276495" lon="8.710336983203888">
        <ele>500.52</ele>
        <time>2024-05-28T11:12:09.868Z</time>
      </trkpt>
      <trkpt lat="45.87724696844816" lon="8.71036497876048">
        <ele>500.66</ele>
        <time>2024-05-28T11:12:10.481Z</time>
      </trkpt>
      <trkpt lat="45.877252919599414" lon="8.710394985973835">
        <ele>500.79</ele>
        <time>2024-05-28T11:12:11.095Z</time>
      </trkpt>
      <trkpt lat="45.87725996039808" lon="8.710424993187189">
        <ele>500.93</ele>
        <time>2024-05-28T11:12:11.710Z</time>
      </trkpt>
      <trkpt lat="45.87725996039808" lon="8.710459945723414">
        <ele>501.08</ele>
        <time>2024-05-28T11:12:12.326Z</time>
      </trkpt>
      <trkpt lat="45.87726993486285" lon="8.710494982078671">
        <ele>501.21</ele>
        <time>2024-05-28T11:12:12.942Z</time>
      </trkpt>
      <trkpt lat="45.877272952347994" lon="8.710526917129755">
        <ele>501.36</ele>
        <time>2024-05-28T11:12:13.559Z</time>
      </trkpt>
      <trkpt lat="45.877272952347994" lon="8.71055994182825">
        <ele>501.51</ele>
        <time>2024-05-28T11:12:14.177Z</time>
      </trkpt>
      <trkpt lat="45.87726993486285" lon="8.710592966526747">
        <ele>501.66</ele>
        <time>2024-05-28T11:12:14.796Z</time>
      </trkpt>
      <trkpt lat="45.87726993486285" lon="8.7106229737401">
        <ele>501.81</ele>
        <time>2024-05-28T11:12:15.415Z</time>
      </trkpt>
      <trkpt lat="45.87726993486285" lon="8.710657926276326">
        <ele>501.97</ele>
        <time>2024-05-28T11:12:16.035Z</time>
      </trkpt>
      <trkpt lat="45.87726691737771" lon="8.710692962631583">
        <ele>502.13</ele>
        <time>2024-05-28T11:12:16.656Z</time>
      </trkpt>
      <trkpt lat="45.87726691737771" lon="8.710724981501698">
        <ele>502.29</ele>
        <time>2024-05-28T11:12:17.278Z</time>
      </trkpt>
      <trkpt lat="45.87726691737771" lon="8.710759934037924">
        <ele>502.45</ele>
        <time>2024-05-28T11:12:17.901Z</time>
      </trkpt>
      <trkpt lat="45.87725996039808" lon="8.710789941251278">
        <ele>502.62</ele>
        <time>2024-05-28T11:12:18.524Z</time>
      </trkpt>
      <trkpt lat="45.87725996039808" lon="8.710821960121393">
        <ele>502.78</ele>
        <time>2024-05-28T11:12:19.148Z</time>
      </trkpt>
      <trkpt lat="45.87726691737771" lon="8.710852973163128">
        <ele>502.93</ele>
        <time>2024-05-28T11:12:19.773Z</time>
      </trkpt>
      <trkpt lat="45.87726993486285" lon="8.71087996289134">
        <ele>503.08</ele>
        <time>2024-05-28T11:12:20.398Z</time>
      </trkpt>
      <trkpt lat="45.877272952347994" lon="8.710906952619553">
        <ele>503.23</ele>
        <time>2024-05-28T11:12:21.024Z</time>
      </trkpt>
      <trkpt lat="45.87726691737771" lon="8.710932936519384">
        <ele>503.39</ele>
        <time>2024-05-28T11:12:21.651Z</time>
      </trkpt>
      <trkpt lat="45.87726691737771" lon="8.710959926247597">
        <ele>503.54</ele>
        <time>2024-05-28T11:12:22.278Z</time>
      </trkpt>
      <trkpt lat="45.877256942912936" lon="8.71098792180419">
        <ele>503.71</ele>
        <time>2024-05-28T11:12:22.906Z</time>
      </trkpt>
      <trkpt lat="45.8772399276495" lon="8.711036955937743">
        <ele>503.88</ele>
        <time>2024-05-28T11:12:23.535Z</time>
      </trkpt>
      <trkpt lat="45.87722199037671" lon="8.711054977029562">
        <ele>504.04</ele>
        <time>2024-05-28T11:12:24.165Z</time>
      </trkpt>
      <trkpt lat="45.87720497511327" lon="8.711097976192832">
        <ele>504.19</ele>
        <time>2024-05-28T11:12:24.796Z</time>
      </trkpt>
      <trkpt lat="45.87719692848623" lon="8.711121948435903">
        <ele>504.33</ele>
        <time>2024-05-28T11:12:25.428Z</time>
      </trkpt>
      <trkpt lat="45.87717999704182" lon="8.711166959255934">
        <ele>504.47</ele>
        <time>2024-05-28T11:12:26.061Z</time>
      </trkpt>
      <trkpt lat="45.877186954021454" lon="8.711206940934062">
        <ele>504.59</ele>
        <time>2024-05-28T11:12:26.695Z</time>
      </trkpt>
      <trkpt lat="45.87719298899174" lon="8.711239965632558">
        <ele>504.71</ele>
        <time>2024-05-28T11:12:27.330Z</time>
      </trkpt>
      <trkpt lat="45.87719994597137" lon="8.711269972845912">
        <ele>504.82</ele>
        <time>2024-05-28T11:12:27.966Z</time>
      </trkpt>
      <trkpt lat="45.877207992598414" lon="8.711292939260602">
        <ele>504.91</ele>
        <time>2024-05-28T11:12:28.602Z</time>
      </trkpt>
      <trkpt lat="45.877207992598414" lon="8.711324958130717">
        <ele>505.01</ele>
        <time>2024-05-28T11:12:29.239Z</time>
      </trkpt>
      <trkpt lat="45.87721494957805" lon="8.711361922323704">
        <ele>505.1</ele>
        <time>2024-05-28T11:12:29.877Z</time>
      </trkpt>
      <trkpt lat="45.87722794152796" lon="8.711399976164103">
        <ele>505.17</ele>
        <time>2024-05-28T11:12:30.516Z</time>
      </trkpt>
      <trkpt lat="45.877231964841485" lon="8.711432917043567">
        <ele>505.24</ele>
        <time>2024-05-28T11:12:31.156Z</time>
      </trkpt>
      <trkpt lat="45.8772399276495" lon="8.71145999059081">
        <ele>505.3</ele>
        <time>2024-05-28T11:12:31.796Z</time>
      </trkpt>
      <trkpt lat="45.877249985933304" lon="8.711487986147404">
        <ele>505.35</ele>
        <time>2024-05-28T11:12:32.437Z</time>
      </trkpt>
      <trkpt lat="45.87726993486285" lon="8.711577923968434">
        <ele>505.4</ele>
        <time>2024-05-28T11:12:33.080Z</time>
      </trkpt>
      <trkpt lat="45.87727999314666" lon="8.711602985858917">
        <ele>505.43</ele>
        <time>2024-05-28T11:12:33.724Z</time>
      </trkpt>
      <trkpt lat="45.87728795595467" lon="8.71165294200182">
        <ele>505.46</ele>
        <time>2024-05-28T11:12:34.369Z</time>
      </trkpt>
      <trkpt lat="45.87729197926819" lon="8.711679931730032">
        <ele>505.47</ele>
        <time>2024-05-28T11:12:35.015Z</time>
      </trkpt>
      <trkpt lat="45.87728493846953" lon="8.711721925064921">
        <ele>505.49</ele>
        <time>2024-05-28T11:12:35.662Z</time>
      </trkpt>
      <trkpt lat="45.87728493846953" lon="8.711751932278275">
        <ele>505.48</ele>
        <time>2024-05-28T11:12:36.309Z</time>
      </trkpt>
      <trkpt lat="45.87727999314666" lon="8.711779927834868">
        <ele>505.46</ele>
        <time>2024-05-28T11:12:36.957Z</time>
      </trkpt>
      <trkpt lat="45.87729197926819" lon="8.711814964190125">
        <ele>505.42</ele>
        <time>2024-05-28T11:12:37.606Z</time>
      </trkpt>
      <trkpt lat="45.87730497121811" lon="8.711854945868254">
        <ele>505.37</ele>
        <time>2024-05-28T11:12:38.256Z</time>
      </trkpt>
      <trkpt lat="45.877317963168025" lon="8.71188998222351">
        <ele>505.31</ele>
        <time>2024-05-28T11:12:38.907Z</time>
      </trkpt>
      <trkpt lat="45.87732994928956" lon="8.71191194280982">
        <ele>505.24</ele>
        <time>2024-05-28T11:12:39.559Z</time>
      </trkpt>
      <trkpt lat="45.877339923754334" lon="8.711939938366413">
        <ele>505.16</ele>
        <time>2024-05-28T11:12:40.211Z</time>
      </trkpt>
      <trkpt lat="45.87735693901777" lon="8.711969945579767">
        <ele>505.08</ele>
        <time>2024-05-28T11:12:40.864Z</time>
      </trkpt>
      <trkpt lat="45.87736791931093" lon="8.71199693530798">
        <ele>504.99</ele>
        <time>2024-05-28T11:12:41.518Z</time>
      </trkpt>
      <trkpt lat="45.87737797759473" lon="8.712032977491617">
        <ele>504.9</ele>
        <time>2024-05-28T11:12:42.173Z</time>
      </trkpt>
      <trkpt lat="45.877384934574366" lon="8.71205996721983">
        <ele>504.8</ele>
        <time>2024-05-28T11:12:42.829Z</time>
      </trkpt>
      <trkpt lat="45.87739792652428" lon="8.712109923362732">
        <ele>504.7</ele>
        <time>2024-05-28T11:12:43.486Z</time>
      </trkpt>
      <trkpt lat="45.877402955666184" lon="8.712139930576086">
        <ele>504.59</ele>
        <time>2024-05-28T11:12:44.143Z</time>
      </trkpt>
      <trkpt lat="45.87741695344448" lon="8.712172955274582">
        <ele>504.48</ele>
        <time>2024-05-28T11:12:44.801Z</time>
      </trkpt>
      <trkpt lat="45.87741997092962" lon="8.712201956659555">
        <ele>504.37</ele>
        <time>2024-05-28T11:12:45.460Z</time>
      </trkpt>
      <trkpt lat="45.87743296287954" lon="8.712246967479587">
        <ele>504.25</ele>
        <time>2024-05-28T11:12:46.120Z</time>
      </trkpt>
      <trkpt lat="45.877444949001074" lon="8.71227697469294">
        <ele>504.12</ele>
        <time>2024-05-28T11:12:46.781Z</time>
      </trkpt>
      <trkpt lat="45.87745492346585" lon="8.712301952764392">
        <ele>504.0</ele>
        <time>2024-05-28T11:12:47.443Z</time>
      </trkpt>
      <trkpt lat="45.877471938729286" lon="8.712327936664224">
        <ele>503.88</ele>
        <time>2024-05-28T11:12:48.105Z</time>
      </trkpt>
      <trkpt lat="45.87749297730625" lon="8.712376970797777">
        <ele>503.76</ele>
        <time>2024-05-28T11:12:48.769Z</time>
      </trkpt>
      <trkpt lat="45.87750295177102" lon="8.712399937212467">
        <ele>503.64</ele>
        <time>2024-05-28T11:12:49.433Z</time>
      </trkpt>
      <trkpt lat="45.87751694954932" lon="8.712441930547357">
        <ele>503.52</ele>
        <time>2024-05-28T11:12:50.099Z</time>
      </trkpt>
      <trkpt lat="45.877531953155994" lon="8.712484929710627">
        <ele>503.41</ele>
        <time>2024-05-28T11:12:50.766Z</time>
      </trkpt>
      <trkpt lat="45.87754796259105" lon="8.712511919438839">
        <ele>503.29</ele>
        <time>2024-05-28T11:12:51.433Z</time>
      </trkpt>
      <trkpt lat="45.877557937055826" lon="8.712536981329322">
        <ele>503.18</ele>
        <time>2024-05-28T11:12:52.101Z</time>
      </trkpt>
      <trkpt lat="45.87756698951125" lon="8.712561959400773">
        <ele>503.08</ele>
        <time>2024-05-28T11:12:52.770Z</time>
      </trkpt>
      <trkpt lat="45.8775729406625" lon="8.712589954957366">
        <ele>502.98</ele>
        <time>2024-05-28T11:12:53.440Z</time>
      </trkpt>
      <trkpt lat="45.877576963976026" lon="8.712616944685578">
        <ele>502.9</ele>
        <time>2024-05-28T11:12:54.110Z</time>
      </trkpt>
      <trkpt lat="45.87758299894631" lon="8.712646951898932">
        <ele>502.81</ele>
        <time>2024-05-28T11:12:54.781Z</time>
      </trkpt>
      <trkpt lat="45.8775869384408" lon="8.712689951062202">
        <ele>502.74</ele>
        <time>2024-05-28T11:12:55.453Z</time>
      </trkpt>
      <trkpt lat="45.87758995592594" lon="8.71272498741746">
        <ele>502.68</ele>
        <time>2024-05-28T11:12:56.126Z</time>
      </trkpt>
      <trkpt lat="45.8775869384408" lon="8.712756922468543">
        <ele>502.62</ele>
        <time>2024-05-28T11:12:56.799Z</time>
      </trkpt>
      <trkpt lat="45.8775869384408" lon="8.712789947167039">
        <ele>502.58</ele>
        <time>2024-05-28T11:12:57.473Z</time>
      </trkpt>
      <trkpt lat="45.8775869384408" lon="8.712817942723632">
        <ele>502.54</ele>
        <time>2024-05-28T11:12:58.148Z</time>
      </trkpt>
      <trkpt lat="45.87760194204748" lon="8.712862953543663">
        <ele>502.51</ele>
        <time>2024-05-28T11:12:58.824Z</time>
      </trkpt>
      <trkpt lat="45.87761191651225" lon="8.712886925786734">
        <ele>502.5</ele>
        <time>2024-05-28T11:12:59.501Z</time>
      </trkpt>
      <trkpt lat="45.87762792594731" lon="8.712906958535314">
        <ele>502.49</ele>
        <time>2024-05-28T11:13:00.178Z</time>
      </trkpt>
      <trkpt lat="45.87764997035265" lon="8.712931936606765">
        <ele>502.5</ele>
        <time>2024-05-28T11:13:00.856Z</time>
      </trkpt>
      <trkpt lat="45.877662962302566" lon="8.712956998497248">
        <ele>502.52</ele>
        <time>2024-05-28T11:13:01.535Z</time>
      </trkpt>
      <trkpt lat="45.87767696008086" lon="8.71298298239708">
        <ele>502.55</ele>
        <time>2024-05-28T11:13:02.215Z</time>
      </trkpt>
      <trkpt lat="45.87768794037402" lon="8.71300695464015">
        <ele>502.61</ele>
        <time>2024-05-28T11:13:02.895Z</time>
      </trkpt>
      <trkpt lat="45.877704955637455" lon="8.71302799321711">
        <ele>502.67</ele>
        <time>2024-05-28T11:13:03.576Z</time>
      </trkpt>
      <trkpt lat="45.87771794758737" lon="8.713052971288562">
        <ele>502.75</ele>
        <time>2024-05-28T11:13:04.258Z</time>
      </trkpt>
      <trkpt lat="45.87773295119405" lon="8.713079961016774">
        <ele>502.85</ele>
        <time>2024-05-28T11:13:04.941Z</time>
      </trkpt>
      <trkpt lat="45.877749966457486" lon="8.713106950744987">
        <ele>502.96</ele>
        <time>2024-05-28T11:13:05.625Z</time>
      </trkpt>
      <trkpt lat="45.877771927043796" lon="8.713152967393398">
        <ele>503.09</ele>
        <time>2024-05-28T11:13:06.310Z</time>
      </trkpt>
      <trkpt lat="45.87778491899371" lon="8.71317794546485">
        <ele>503.24</ele>
        <time>2024-05-28T11:13:06.996Z</time>
      </trkpt>
      <trkpt lat="45.87779497727752" lon="8.71319998987019">
        <ele>503.41</ele>
        <time>2024-05-28T11:13:07.682Z</time>
      </trkpt>
      <trkpt lat="45.87780696339905" lon="8.713224967941642">
        <ele>503.59</ele>
        <time>2024-05-28T11:13:08.369Z</time>
      </trkpt>
      <trkpt lat="45.877832947298884" lon="8.713271990418434">
        <ele>503.79</ele>
        <time>2024-05-28T11:13:09.057Z</time>
      </trkpt>
      <trkpt lat="45.87784493342042" lon="8.713296968489885">
        <ele>504.01</ele>
        <time>2024-05-28T11:13:09.746Z</time>
      </trkpt>
      <trkpt lat="45.87784795090556" lon="8.713339967653155">
        <ele>504.25</ele>
        <time>2024-05-28T11:13:10.436Z</time>
      </trkpt>
      <trkpt lat="45.877854991704226" lon="8.713389923796058">
        <ele>504.51</ele>
        <time>2024-05-28T11:13:11.127Z</time>
      </trkpt>
      <trkpt lat="45.877854991704226" lon="8.71341791935265">
        <ele>504.79</ele>
        <time>2024-05-28T11:13:11.819Z</time>
      </trkpt>
      <trkpt lat="45.877864966169" lon="8.713449938222766">
        <ele>505.08</ele>
        <time>2024-05-28T11:13:12.512Z</time>
      </trkpt>
      <trkpt lat="45.87786194868386" lon="8.713501989841461">
        <ele>505.4</ele>
        <time>2024-05-28T11:13:13.206Z</time>
      </trkpt>
      <trkpt lat="45.877851974219084" lon="8.713534930720925">
        <ele>505.73</ele>
        <time>2024-05-28T11:13:13.901Z</time>
      </trkpt>
      <trkpt lat="45.877851974219084" lon="8.713562926277518">
        <ele>506.08</ele>
        <time>2024-05-28T11:13:14.596Z</time>
      </trkpt>
      <trkpt lat="45.877851974219084" lon="8.71360793709755">
        <ele>506.44</ele>
        <time>2024-05-28T11:13:15.292Z</time>
      </trkpt>
      <trkpt lat="45.87786798365414" lon="8.713621934875846">
        <ele>506.81</ele>
        <time>2024-05-28T11:13:15.989Z</time>
      </trkpt>
      <trkpt lat="45.87787996977568" lon="8.713659988716245">
        <ele>507.2</ele>
        <time>2024-05-28T11:13:16.687Z</time>
      </trkpt>
      <trkpt lat="45.87788692675531" lon="8.713682955130935">
        <ele>507.6</ele>
        <time>2024-05-28T11:13:17.386Z</time>
      </trkpt>
      <trkpt lat="45.87787996977568" lon="8.713711956515908">
        <ele>508.02</ele>
        <time>2024-05-28T11:13:18.085Z</time>
      </trkpt>
      <trkpt lat="45.877896985039115" lon="8.713739952072501">
        <ele>508.44</ele>
        <time>2024-05-28T11:13:18.785Z</time>
      </trkpt>
      <trkpt lat="45.87790695950389" lon="8.713766941800714">
        <ele>508.88</ele>
        <time>2024-05-28T11:13:19.486Z</time>
      </trkpt>
      <trkpt lat="45.87791299447417" lon="8.71379996649921">
        <ele>509.34</ele>
        <time>2024-05-28T11:13:20.188Z</time>
      </trkpt>
      <trkpt lat="45.87792498059571" lon="8.713827962055802">
        <ele>509.8</ele>
        <time>2024-05-28T11:13:20.891Z</time>
      </trkpt>
      <trkpt lat="45.87792799808085" lon="8.713879929855466">
        <ele>510.29</ele>
        <time>2024-05-28T11:13:21.595Z</time>
      </trkpt>
      <trkpt lat="45.87792799808085" lon="8.713906919583678">
        <ele>510.78</ele>
        <time>2024-05-28T11:13:22.299Z</time>
      </trkpt>
      <trkpt lat="45.877921963110566" lon="8.713954947888851">
        <ele>511.29</ele>
        <time>2024-05-28T11:13:23.004Z</time>
      </trkpt>
      <trkpt lat="45.877921963110566" lon="8.71399492956698">
        <ele>511.8</ele>
        <time>2024-05-28T11:13:23.710Z</time>
      </trkpt>
      <trkpt lat="45.87790997698903" lon="8.71403499506414">
        <ele>512.33</ele>
        <time>2024-05-28T11:13:24.417Z</time>
      </trkpt>
      <trkpt lat="45.87788994424045" lon="8.714076988399029">
        <ele>512.88</ele>
        <time>2024-05-28T11:13:25.126Z</time>
      </trkpt>
      <trkpt lat="45.87788994424045" lon="8.714122921228409">
        <ele>513.42</ele>
        <time>2024-05-28T11:13:25.836Z</time>
      </trkpt>
      <trkpt lat="45.87788994424045" lon="8.714157957583666">
        <ele>513.95</ele>
        <time>2024-05-28T11:13:26.547Z</time>
      </trkpt>
      <trkpt lat="45.87787996977568" lon="8.71418796479702">
        <ele>514.5</ele>
        <time>2024-05-28T11:13:27.258Z</time>
      </trkpt>
      <trkpt lat="45.87787996977568" lon="8.714214954525232">
        <ele>515.03</ele>
        <time>2024-05-28T11:13:27.970Z</time>
      </trkpt>
      <trkpt lat="45.87787192314863" lon="8.714261977002025">
        <ele>515.58</ele>
        <time>2024-05-28T11:13:28.683Z</time>
      </trkpt>
      <trkpt lat="45.87787192314863" lon="8.714287960901856">
        <ele>516.11</ele>
        <time>2024-05-28T11:13:29.397Z</time>
      </trkpt>
      <trkpt lat="45.87786798365414" lon="8.71433992870152">
        <ele>516.66</ele>
        <time>2024-05-28T11:13:30.112Z</time>
      </trkpt>
      <trkpt lat="45.877851974219084" lon="8.714386951178312">
        <ele>517.2</ele>
        <time>2024-05-28T11:13:30.828Z</time>
      </trkpt>
      <trkpt lat="45.87783697061241" lon="8.714412935078144">
        <ele>517.73</ele>
        <time>2024-05-28T11:13:31.545Z</time>
      </trkpt>
      <trkpt lat="45.87782297283411" lon="8.714436991140246">
        <ele>518.26</ele>
        <time>2024-05-28T11:13:32.263Z</time>
      </trkpt>
      <trkpt lat="45.87780696339905" lon="8.714447971433401">
        <ele>518.78</ele>
        <time>2024-05-28T11:13:32.981Z</time>
      </trkpt>
      <trkpt lat="45.877791959792376" lon="8.714461969211698">
        <ele>519.29</ele>
        <time>2024-05-28T11:13:33.700Z</time>
      </trkpt>
      <trkpt lat="45.87777494452894" lon="8.714486947283149">
        <ele>519.8</ele>
        <time>2024-05-28T11:13:34.420Z</time>
      </trkpt>
      <trkpt lat="45.87775298394263" lon="8.714524917304516">
        <ele>520.3</ele>
        <time>2024-05-28T11:13:35.141Z</time>
      </trkpt>
      <trkpt lat="45.87773697450757" lon="8.714556936174631">
        <ele>520.79</ele>
        <time>2024-05-28T11:13:35.863Z</time>
      </trkpt>
      <trkpt lat="45.877729933708906" lon="8.714584931731224">
        <ele>521.26</ele>
        <time>2024-05-28T11:13:36.585Z</time>
      </trkpt>
      <trkpt lat="45.87771199643612" lon="8.714609993621707">
        <ele>521.72</ele>
        <time>2024-05-28T11:13:37.308Z</time>
      </trkpt>
      <trkpt lat="45.87769498117268" lon="8.714624997228384">
        <ele>522.16</ele>
        <time>2024-05-28T11:13:38.032Z</time>
      </trkpt>
      <trkpt lat="45.87771493010223" lon="8.71463991701603">
        <ele>522.56</ele>
        <time>2024-05-28T11:13:38.757Z</time>
      </trkpt>
      <trkpt lat="45.877722976729274" lon="8.714669924229383">
        <ele>522.95</ele>
        <time>2024-05-28T11:13:39.482Z</time>
      </trkpt>
      <trkpt lat="45.87771794758737" lon="8.714694986119866">
        <ele>523.34</ele>
        <time>2024-05-28T11:13:40.208Z</time>
      </trkpt>
      <trkpt lat="45.877704955637455" lon="8.714716946706176">
        <ele>523.72</ele>
        <time>2024-05-28T11:13:40.935Z</time>
      </trkpt>
      <trkpt lat="45.87771794758737" lon="8.71474695391953">
        <ele>524.06</ele>
        <time>2024-05-28T11:13:41.662Z</time>
      </trkpt>
      <trkpt lat="45.8777079731226" lon="8.714792970567942">
        <ele>524.41</ele>
        <time>2024-05-28T11:13:42.391Z</time>
      </trkpt>
      <trkpt lat="45.8777079731226" lon="8.71483295224607">
        <ele>524.73</ele>
        <time>2024-05-28T11:13:43.121Z</time>
      </trkpt>
      <trkpt lat="45.8777079731226" lon="8.714867988601327">
        <ele>525.04</ele>
        <time>2024-05-28T11:13:43.851Z</time>
      </trkpt>
      <trkpt lat="45.8777079731226" lon="8.71489497832954">
        <ele>525.33</ele>
        <time>2024-05-28T11:13:44.582Z</time>
      </trkpt>
      <trkpt lat="45.87771493010223" lon="8.71493998914957">
        <ele>525.61</ele>
        <time>2024-05-28T11:13:45.314Z</time>
      </trkpt>
      <trkpt lat="45.87768794037402" lon="8.714932948350906">
        <ele>525.88</ele>
        <time>2024-05-28T11:13:46.047Z</time>
      </trkpt>
      <trkpt lat="45.8777079731226" lon="8.714934960007668">
        <ele>526.11</ele>
        <time>2024-05-28T11:13:46.781Z</time>
      </trkpt>
      <trkpt lat="45.877726916223764" lon="8.714947951957583">
        <ele>526.32</ele>
        <time>2024-05-28T11:13:47.515Z</time>
      </trkpt>
      <trkpt lat="45.87773295119405" lon="8.714986927807331">
        <ele>526.53</ele>
        <time>2024-05-28T11:13:48.250Z</time>
      </trkpt>
      <trkpt lat="45.877749966457486" lon="8.715014923363924">
        <ele>526.72</ele>
        <time>2024-05-28T11:13:48.986Z</time>
      </trkpt>
      <trkpt lat="45.877767987549305" lon="8.715052977204323">
        <ele>526.89</ele>
        <time>2024-05-28T11:13:49.723Z</time>
      </trkpt>
      <trkpt lat="45.87778491899371" lon="8.715099999681115">
        <ele>527.05</ele>
        <time>2024-05-28T11:13:50.461Z</time>
      </trkpt>
      <trkpt lat="45.87778793647885" lon="8.715126989409328">
        <ele>527.2</ele>
        <time>2024-05-28T11:13:51.200Z</time>
      </trkpt>
      <trkpt lat="45.87779799476266" lon="8.715156996622682">
        <ele>527.33</ele>
        <time>2024-05-28T11:13:51.940Z</time>
      </trkpt>
      <trkpt lat="45.877812998369336" lon="8.715181974694133">
        <ele>527.45</ele>
        <time>2024-05-28T11:13:52.681Z</time>
      </trkpt>
      <trkpt lat="45.87782699614763" lon="8.715211981907487">
        <ele>527.55</ele>
        <time>2024-05-28T11:13:53.422Z</time>
      </trkpt>
      <trkpt lat="45.87783697061241" lon="8.715257998555899">
        <ele>527.64</ele>
        <time>2024-05-28T11:13:54.165Z</time>
      </trkpt>
      <trkpt lat="45.87784493342042" lon="8.715284988284111">
        <ele>527.72</ele>
        <time>2024-05-28T11:13:54.908Z</time>
      </trkpt>
      <trkpt lat="45.877854991704226" lon="8.715311978012323">
        <ele>527.78</ele>
        <time>2024-05-28T11:13:55.652Z</time>
      </trkpt>
      <trkpt lat="45.87786798365414" lon="8.715339973568916">
        <ele>527.83</ele>
        <time>2024-05-28T11:13:56.397Z</time>
      </trkpt>
      <trkpt lat="45.87787996977568" lon="8.715366963297129">
        <ele>527.87</ele>
        <time>2024-05-28T11:13:57.142Z</time>
      </trkpt>
      <trkpt lat="45.877896985039115" lon="8.715416919440031">
        <ele>527.9</ele>
        <time>2024-05-28T11:13:57.889Z</time>
      </trkpt>
      <trkpt lat="45.87790695950389" lon="8.715442987158895">
        <ele>527.92</ele>
        <time>2024-05-28T11:13:58.636Z</time>
      </trkpt>
      <trkpt lat="45.87790997698903" lon="8.715474922209978">
        <ele>527.93</ele>
        <time>2024-05-28T11:13:59.384Z</time>
      </trkpt>
      <trkpt lat="45.87791299447417" lon="8.715499984100461">
        <ele>527.92</ele>
        <time>2024-05-28T11:14:00.133Z</time>
      </trkpt>
      <trkpt lat="45.87791299447417" lon="8.715542983263731">
        <ele>527.91</ele>
        <time>2024-05-28T11:14:00.883Z</time>
      </trkpt>
      <trkpt lat="45.87792498059571" lon="8.715577935799956">
        <ele>527.89</ele>
        <time>2024-05-28T11:14:01.634Z</time>
      </trkpt>
      <trkpt lat="45.87793495506048" lon="8.715612972155213">
        <ele>527.85</ele>
        <time>2024-05-28T11:14:02.386Z</time>
      </trkpt>
      <trkpt lat="45.8779479470104" lon="8.715647924691439">
        <ele>527.79</ele>
        <time>2024-05-28T11:14:03.139Z</time>
      </trkpt>
      <trkpt lat="45.877944929525256" lon="8.715679943561554">
        <ele>527.72</ele>
        <time>2024-05-28T11:14:03.892Z</time>
      </trkpt>
      <trkpt lat="45.877941995859146" lon="8.715709950774908">
        <ele>527.65</ele>
        <time>2024-05-28T11:14:04.646Z</time>
      </trkpt>
      <trkpt lat="45.87795197032392" lon="8.715752949938178">
        <ele>527.57</ele>
        <time>2024-05-28T11:14:05.401Z</time>
      </trkpt>
      <trkpt lat="45.87795993313193" lon="8.71577792800963">
        <ele>527.47</ele>
        <time>2024-05-28T11:14:06.157Z</time>
      </trkpt>
      <trkpt lat="45.87797292508185" lon="8.715807935222983">
        <ele>527.35</ele>
        <time>2024-05-28T11:14:06.913Z</time>
      </trkpt>
      <trkpt lat="45.87797996588051" lon="8.715857975184917">
        <ele>527.24</ele>
        <time>2024-05-28T11:14:07.671Z</time>
      </trkpt>
      <trkpt lat="45.87798994034529" lon="8.71590793132782">
        <ele>527.1</ele>
        <time>2024-05-28T11:14:08.430Z</time>
      </trkpt>
      <trkpt lat="45.87799698114395" lon="8.715932993218303">
        <ele>526.96</ele>
        <time>2024-05-28T11:14:09.190Z</time>
      </trkpt>
      <trkpt lat="45.878007961437106" lon="8.715957971289754">
        <ele>526.8</ele>
        <time>2024-05-28T11:14:09.950Z</time>
      </trkpt>
      <trkpt lat="45.87801491841674" lon="8.715984961017966">
        <ele>526.63</ele>
        <time>2024-05-28T11:14:10.711Z</time>
      </trkpt>
      <trkpt lat="45.87801198475063" lon="8.716011950746179">
        <ele>526.46</ele>
        <time>2024-05-28T11:14:11.473Z</time>
      </trkpt>
      <trkpt lat="45.87801491841674" lon="8.716064924374223">
        <ele>526.27</ele>
        <time>2024-05-28T11:14:12.236Z</time>
      </trkpt>
      <trkpt lat="45.87803193368018" lon="8.716106917709112">
        <ele>526.07</ele>
        <time>2024-05-28T11:14:13.000Z</time>
      </trkpt>
      <trkpt lat="45.87804299779236" lon="8.716139942407608">
        <ele>525.85</ele>
        <time>2024-05-28T11:14:13.765Z</time>
      </trkpt>
      <trkpt lat="45.87805992923677" lon="8.716169949620962">
        <ele>525.63</ele>
        <time>2024-05-28T11:14:14.531Z</time>
      </trkpt>
      <trkpt lat="45.87805992923677" lon="8.716202974319458">
        <ele>525.4</ele>
        <time>2024-05-28T11:14:15.297Z</time>
      </trkpt>
      <trkpt lat="45.87805297225714" lon="8.71622996404767">
        <ele>525.17</ele>
        <time>2024-05-28T11:14:16.064Z</time>
      </trkpt>
      <trkpt lat="45.87804299779236" lon="8.716267934069037">
        <ele>524.93</ele>
        <time>2024-05-28T11:14:16.832Z</time>
      </trkpt>
      <trkpt lat="45.878024976700544" lon="8.716299952939153">
        <ele>524.69</ele>
        <time>2024-05-28T11:14:17.601Z</time>
      </trkpt>
      <trkpt lat="45.878007961437106" lon="8.716339934617281">
        <ele>524.44</ele>
        <time>2024-05-28T11:14:18.371Z</time>
      </trkpt>
      <trkpt lat="45.87799698114395" lon="8.716367930173874">
        <ele>524.17</ele>
        <time>2024-05-28T11:14:19.142Z</time>
      </trkpt>
      <trkpt lat="45.87799295783043" lon="8.71640196070075">
        <ele>523.89</ele>
        <time>2024-05-28T11:14:19.914Z</time>
      </trkpt>
      <trkpt lat="45.877986922860146" lon="8.716432973742485">
        <ele>523.6</ele>
        <time>2024-05-28T11:14:20.686Z</time>
      </trkpt>
      <trkpt lat="45.877986922860146" lon="8.716459963470697">
        <ele>523.29</ele>
        <time>2024-05-28T11:14:21.459Z</time>
      </trkpt>
      <trkpt lat="45.87800192646682" lon="8.716491982340813">
        <ele>522.95</ele>
        <time>2024-05-28T11:14:22.233Z</time>
      </trkpt>
      <trkpt lat="45.8780219592154" lon="8.716512937098742">
        <ele>522.61</ele>
        <time>2024-05-28T11:14:23.008Z</time>
      </trkpt>
      <trkpt lat="45.878024976700544" lon="8.716539926826954">
        <ele>522.26</ele>
        <time>2024-05-28T11:14:23.783Z</time>
      </trkpt>
      <trkpt lat="45.878027994185686" lon="8.71657194569707">
        <ele>521.91</ele>
        <time>2024-05-28T11:14:24.559Z</time>
      </trkpt>
      <trkpt lat="45.878027994185686" lon="8.716599941253662">
        <ele>521.55</ele>
        <time>2024-05-28T11:14:25.336Z</time>
      </trkpt>
      <trkpt lat="45.878027994185686" lon="8.71663992293179">
        <ele>521.18</ele>
        <time>2024-05-28T11:14:26.114Z</time>
      </trkpt>
      <trkpt lat="45.87803998030722" lon="8.716664984822273">
        <ele>520.8</ele>
        <time>2024-05-28T11:14:26.892Z</time>
      </trkpt>
      <trkpt lat="45.878049954771996" lon="8.716689962893724">
        <ele>520.4</ele>
        <time>2024-05-28T11:14:27.671Z</time>
      </trkpt>
      <trkpt lat="45.878069987520576" lon="8.716719970107079">
        <ele>519.99</ele>
        <time>2024-05-28T11:14:28.451Z</time>
      </trkpt>
      <trkpt lat="45.87808792479336" lon="8.71674494817853">
        <ele>519.57</ele>
        <time>2024-05-28T11:14:29.232Z</time>
      </trkpt>
      <trkpt lat="45.87812991812825" lon="8.716784929856658">
        <ele>519.11</ele>
        <time>2024-05-28T11:14:30.015Z</time>
      </trkpt>
      <trkpt lat="45.878159925341606" lon="8.71680999174714">
        <ele>518.67</ele>
        <time>2024-05-28T11:14:30.799Z</time>
      </trkpt>
      <trkpt lat="45.87818196974695" lon="8.716842932626605">
        <ele>518.23</ele>
        <time>2024-05-28T11:14:31.584Z</time>
      </trkpt>
      <trkpt lat="45.87819194421172" lon="8.716869922354817">
        <ele>517.8</ele>
        <time>2024-05-28T11:14:32.369Z</time>
      </trkpt>
      <trkpt lat="45.878199990838766" lon="8.716902947053313">
        <ele>517.37</ele>
        <time>2024-05-28T11:14:33.155Z</time>
      </trkpt>
      <trkpt lat="45.878219939768314" lon="8.716942928731441">
        <ele>516.93</ele>
        <time>2024-05-28T11:14:33.942Z</time>
      </trkpt>
      <trkpt lat="45.87824793532491" lon="8.716969918459654">
        <ele>516.48</ele>
        <time>2024-05-28T11:14:34.731Z</time>
      </trkpt>
      <trkpt lat="45.87826796807349" lon="8.71697997674346">
        <ele>516.04</ele>
        <time>2024-05-28T11:14:35.520Z</time>
      </trkpt>
      <trkpt lat="45.87829294614494" lon="8.716987939551473">
        <ele>515.59</ele>
        <time>2024-05-28T11:14:36.310Z</time>
      </trkpt>
      <trkpt lat="45.87831297889352" lon="8.716987939551473">
        <ele>515.15</ele>
        <time>2024-05-28T11:14:37.101Z</time>
      </trkpt>
      <trkpt lat="45.878344997763634" lon="8.716996992006898">
        <ele>514.7</ele>
        <time>2024-05-28T11:14:37.893Z</time>
      </trkpt>
      <trkpt lat="45.878382967785" lon="8.716997997835279">
        <ele>514.26</ele>
        <time>2024-05-28T11:14:38.686Z</time>
      </trkpt>
      <trkpt lat="45.8784019947052" lon="8.716996992006898">
        <ele>513.83</ele>
        <time>2024-05-28T11:14:39.480Z</time>
      </trkpt>
      <trkpt lat="45.87842194363475" lon="8.716989951208234">
        <ele>513.4</ele>
        <time>2024-05-28T11:14:40.274Z</time>
      </trkpt>
      <trkpt lat="45.87843996472657" lon="8.716984922066331">
        <ele>512.99</ele>
        <time>2024-05-28T11:14:41.069Z</time>
      </trkpt>
      <trkpt lat="45.87846293114126" lon="8.71697997674346">
        <ele>512.57</ele>
        <time>2024-05-28T11:14:41.865Z</time>
      </trkpt>
      <trkpt lat="45.8784849755466" lon="8.71697997674346">
        <ele>512.16</ele>
        <time>2024-05-28T11:14:42.662Z</time>
      </trkpt>
      <trkpt lat="45.87850794196129" lon="8.716977965086699">
        <ele>511.77</ele>
        <time>2024-05-28T11:14:43.459Z</time>
      </trkpt>
      <trkpt lat="45.87852998636663" lon="8.716974947601557">
        <ele>511.38</ele>
        <time>2024-05-28T11:14:44.257Z</time>
      </trkpt>
      <trkpt lat="45.87854993529618" lon="8.716972935944796">
        <ele>511.01</ele>
        <time>2024-05-28T11:14:45.056Z</time>
      </trkpt>
      <trkpt lat="45.87857793085277" lon="8.71697997674346">
        <ele>510.64</ele>
        <time>2024-05-28T11:14:45.856Z</time>
      </trkpt>
      <trkpt lat="45.87859796360135" lon="8.716997997835279">
        <ele>510.29</ele>
        <time>2024-05-28T11:14:46.656Z</time>
      </trkpt>
      <trkpt lat="45.8786229416728" lon="8.717037979513407">
        <ele>509.96</ele>
        <time>2024-05-28T11:14:47.458Z</time>
      </trkpt>
      <trkpt lat="45.87863995693624" lon="8.717059940099716">
        <ele>509.65</ele>
        <time>2024-05-28T11:14:48.261Z</time>
      </trkpt>
      <trkpt lat="45.87866191752255" lon="8.717081984505057">
        <ele>509.35</ele>
        <time>2024-05-28T11:14:49.064Z</time>
      </trkpt>
      <trkpt lat="45.87868697941303" lon="8.717099921777844">
        <ele>509.07</ele>
        <time>2024-05-28T11:14:49.868Z</time>
      </trkpt>
      <trkpt lat="45.87870692834258" lon="8.717114925384521">
        <ele>508.8</ele>
        <time>2024-05-28T11:14:50.673Z</time>
      </trkpt>
      <trkpt lat="45.87874196469784" lon="8.717141998931766">
        <ele>508.55</ele>
        <time>2024-05-28T11:14:51.479Z</time>
      </trkpt>
      <trkpt lat="45.878757974132895" lon="8.717159936204553">
        <ele>508.32</ele>
        <time>2024-05-28T11:14:52.286Z</time>
      </trkpt>
      <trkpt lat="45.87876996025443" lon="8.717182986438274">
        <ele>508.12</ele>
        <time>2024-05-28T11:14:53.094Z</time>
      </trkpt>
      <trkpt lat="45.878779934719205" lon="8.71721693314612">
        <ele>507.93</ele>
        <time>2024-05-28T11:14:53.903Z</time>
      </trkpt>
      <trkpt lat="45.87878697551787" lon="8.717246940359473">
        <ele>507.77</ele>
        <time>2024-05-28T11:14:54.712Z</time>
      </trkpt>
      <trkpt lat="45.87878697551787" lon="8.717272924259305">
        <ele>507.63</ele>
        <time>2024-05-28T11:14:55.522Z</time>
      </trkpt>
      <trkpt lat="45.87878697551787" lon="8.717306954786181">
        <ele>507.51</ele>
        <time>2024-05-28T11:14:56.333Z</time>
      </trkpt>
      <trkpt lat="45.878801979124546" lon="8.717336961999536">
        <ele>507.4</ele>
        <time>2024-05-28T11:14:57.145Z</time>
      </trkpt>
      <trkpt lat="45.87882796302438" lon="8.717371998354793">
        <ele>507.31</ele>
        <time>2024-05-28T11:14:57.958Z</time>
      </trkpt>
      <trkpt lat="45.87884698994458" lon="8.717381972819567">
        <ele>507.24</ele>
        <time>2024-05-28T11:14:58.771Z</time>
      </trkpt>
      <trkpt lat="45.87887699715793" lon="8.717371998354793">
        <ele>507.16</ele>
        <time>2024-05-28T11:14:59.586Z</time>
      </trkpt>
      <trkpt lat="45.87889493443072" lon="8.717352971434593">
        <ele>507.11</ele>
        <time>2024-05-28T11:15:00.401Z</time>
      </trkpt>
      <trkpt lat="45.87893692776561" lon="8.717339979484677">
        <ele>507.06</ele>
        <time>2024-05-28T11:15:01.218Z</time>
      </trkpt>
      <trkpt lat="45.87896198965609" lon="8.717336961999536">
        <ele>507.05</ele>
        <time>2024-05-28T11:15:02.036Z</time>
      </trkpt>
      <trkpt lat="45.87898495607078" lon="8.717337967827916">
        <ele>507.06</ele>
        <time>2024-05-28T11:15:02.854Z</time>
      </trkpt>
      <trkpt lat="45.87899995967746" lon="8.717349953949451">
        <ele>507.1</ele>
        <time>2024-05-28T11:15:03.673Z</time>
      </trkpt>
      <trkpt lat="45.879016974940896" lon="8.71736696921289">
        <ele>507.15</ele>
        <time>2024-05-28T11:15:04.493Z</time>
      </trkpt>
      <trkpt lat="45.879032984375954" lon="8.717381972819567">
        <ele>507.23</ele>
        <time>2024-05-28T11:15:05.313Z</time>
      </trkpt>
      <trkpt lat="45.87904497049749" lon="8.717399993911386">
        <ele>507.32</ele>
        <time>2024-05-28T11:15:06.134Z</time>
      </trkpt>
      <trkpt lat="45.87906198576093" lon="8.717419942840934">
        <ele>507.43</ele>
        <time>2024-05-28T11:15:06.956Z</time>
      </trkpt>
      <trkpt lat="45.879082940518856" lon="8.717436958104372">
        <ele>507.55</ele>
        <time>2024-05-28T11:15:07.778Z</time>
      </trkpt>
      <trkpt lat="45.87910699658096" lon="8.717456990852952">
        <ele>507.69</ele>
        <time>2024-05-28T11:15:08.601Z</time>
      </trkpt>
      <trkpt lat="45.879124933853745" lon="8.717479957267642">
        <ele>507.84</ele>
        <time>2024-05-28T11:15:09.425Z</time>
      </trkpt>
      <trkpt lat="45.879144966602325" lon="8.717511976137757">
        <ele>508.01</ele>
        <time>2024-05-28T11:15:10.250Z</time>
      </trkpt>
      <trkpt lat="45.879162987694144" lon="8.717536954209208">
        <ele>508.2</ele>
        <time>2024-05-28T11:15:11.076Z</time>
      </trkpt>
      <trkpt lat="45.87917991913855" lon="8.717559920623899">
        <ele>508.39</ele>
        <time>2024-05-28T11:15:11.903Z</time>
      </trkpt>
      <trkpt lat="45.87919794023037" lon="8.717579953372478">
        <ele>508.58</ele>
        <time>2024-05-28T11:15:12.730Z</time>
      </trkpt>
      <trkpt lat="45.87921495549381" lon="8.717612978070974">
        <ele>508.79</ele>
        <time>2024-05-28T11:15:13.558Z</time>
      </trkpt>
      <trkpt lat="45.87921797297895" lon="8.717642985284328">
        <ele>509.01</ele>
        <time>2024-05-28T11:15:14.387Z</time>
      </trkpt>
      <trkpt lat="45.87922199629247" lon="8.717677937820554">
        <ele>509.24</ele>
        <time>2024-05-28T11:15:15.217Z</time>
      </trkpt>
      <trkpt lat="45.87920196354389" lon="8.717719931155443">
        <ele>509.48</ele>
        <time>2024-05-28T11:15:16.048Z</time>
      </trkpt>
      <trkpt lat="45.87917296215892" lon="8.717727977782488">
        <ele>509.72</ele>
        <time>2024-05-28T11:15:16.880Z</time>
      </trkpt>
      <trkpt lat="45.87914798408747" lon="8.717737952247262">
        <ele>509.96</ele>
        <time>2024-05-28T11:15:17.713Z</time>
      </trkpt>
      <trkpt lat="45.879121916368604" lon="8.717741975560784">
        <ele>510.21</ele>
        <time>2024-05-28T11:15:18.547Z</time>
      </trkpt>
      <trkpt lat="45.879102973267436" lon="8.717752955853939">
        <ele>510.47</ele>
        <time>2024-05-28T11:15:19.381Z</time>
      </trkpt>
      <trkpt lat="45.87907497771084" lon="8.717784974724054">
        <ele>510.73</ele>
        <time>2024-05-28T11:15:20.217Z</time>
      </trkpt>
      <trkpt lat="45.87906198576093" lon="8.717809952795506">
        <ele>510.99</ele>
        <time>2024-05-28T11:15:21.053Z</time>
      </trkpt>
      <trkpt lat="45.87905494496226" lon="8.717861920595169">
        <ele>511.25</ele>
        <time>2024-05-28T11:15:21.891Z</time>
      </trkpt>
      <trkpt lat="45.87905494496226" lon="8.717887988314033">
        <ele>511.48</ele>
        <time>2024-05-28T11:15:22.729Z</time>
      </trkpt>
      <trkpt lat="45.87905192747712" lon="8.717919923365116">
        <ele>511.72</ele>
        <time>2024-05-28T11:15:23.568Z</time>
      </trkpt>
      <trkpt lat="45.87905192747712" lon="8.717966945841908">
        <ele>511.96</ele>
        <time>2024-05-28T11:15:24.408Z</time>
      </trkpt>
      <trkpt lat="45.87904497049749" lon="8.71799292974174">
        <ele>512.18</ele>
        <time>2024-05-28T11:15:25.249Z</time>
      </trkpt>
      <trkpt lat="45.87904195301235" lon="8.718019919469953">
        <ele>512.4</ele>
        <time>2024-05-28T11:15:26.090Z</time>
      </trkpt>
      <trkpt lat="45.87904195301235" lon="8.718051938340068">
        <ele>512.61</ele>
        <time>2024-05-28T11:15:26.932Z</time>
      </trkpt>
      <trkpt lat="45.879039941355586" lon="8.71807993389666">
        <ele>512.81</ele>
        <time>2024-05-28T11:15:27.775Z</time>
      </trkpt>
      <trkpt lat="45.879039941355586" lon="8.718111952766776">
        <ele>513.0</ele>
        <time>2024-05-28T11:15:28.619Z</time>
      </trkpt>
      <trkpt lat="45.879039941355586" lon="8.718139948323369">
        <ele>513.18</ele>
        <time>2024-05-28T11:15:29.463Z</time>
      </trkpt>
      <trkpt lat="45.87904497049749" lon="8.718169955536723">
        <ele>513.35</ele>
        <time>2024-05-28T11:15:30.308Z</time>
      </trkpt>
      <trkpt lat="45.879057962447405" lon="8.718189988285303">
        <ele>513.5</ele>
        <time>2024-05-28T11:15:31.154Z</time>
      </trkpt>
      <trkpt lat="45.87906491942704" lon="8.718216978013515">
        <ele>513.65</ele>
        <time>2024-05-28T11:15:32.000Z</time>
      </trkpt>
      <trkpt lat="45.879079923033714" lon="8.718242961913347">
        <ele>513.78</ele>
        <time>2024-05-28T11:15:32.847Z</time>
      </trkpt>
      <trkpt lat="45.87909299880266" lon="8.718282943591475">
        <ele>513.9</ele>
        <time>2024-05-28T11:15:33.695Z</time>
      </trkpt>
      <trkpt lat="45.879102973267436" lon="8.718316974118352">
        <ele>514.01</ele>
        <time>2024-05-28T11:15:34.544Z</time>
      </trkpt>
      <trkpt lat="45.87911294773221" lon="8.718342958018184">
        <ele>514.11</ele>
        <time>2024-05-28T11:15:35.394Z</time>
      </trkpt>
      <trkpt lat="45.87913499213755" lon="8.718372965231538">
        <ele>514.19</ele>
        <time>2024-05-28T11:15:36.245Z</time>
      </trkpt>
      <trkpt lat="45.87915795855224" lon="8.71837799437344">
        <ele>514.26</ele>
        <time>2024-05-28T11:15:37.096Z</time>
      </trkpt>
      <trkpt lat="45.87918293662369" lon="8.718382939696312">
        <ele>514.32</ele>
        <time>2024-05-28T11:15:37.948Z</time>
      </trkpt>
      <trkpt lat="45.87922199629247" lon="8.718389980494976">
        <ele>514.37</ele>
        <time>2024-05-28T11:15:38.802Z</time>
      </trkpt>
      <trkpt lat="45.8792429510504" lon="8.718387968838215">
        <ele>514.4</ele>
        <time>2024-05-28T11:15:39.656Z</time>
      </trkpt>
      <trkpt lat="45.879272958263755" lon="8.71839995495975">
        <ele>514.44</ele>
        <time>2024-05-28T11:15:40.511Z</time>
      </trkpt>
      <trkpt lat="45.87930497713387" lon="8.718412946909666">
        <ele>514.45</ele>
        <time>2024-05-28T11:15:41.367Z</time>
      </trkpt>
      <trkpt lat="45.87933297269046" lon="8.718424933031201">
        <ele>514.46</ele>
        <time>2024-05-28T11:15:42.224Z</time>
      </trkpt>
      <trkpt lat="45.87936499156058" lon="8.718427950516343">
        <ele>514.46</ele>
        <time>2024-05-28T11:15:43.082Z</time>
      </trkpt>
      <trkpt lat="45.87938494049013" lon="8.718454940244555">
        <ele>514.47</ele>
        <time>2024-05-28T11:15:43.941Z</time>
      </trkpt>
      <trkpt lat="45.879399944096804" lon="8.718502968549728">
        <ele>514.48</ele>
        <time>2024-05-28T11:15:44.802Z</time>
      </trkpt>
      <trkpt lat="45.87941695936024" lon="8.718526940792799">
        <ele>514.47</ele>
        <time>2024-05-28T11:15:45.663Z</time>
      </trkpt>
      <trkpt lat="45.8794329687953" lon="8.71855292469263">
        <ele>514.46</ele>
        <time>2024-05-28T11:15:46.525Z</time>
      </trkpt>
      <trkpt lat="45.87944193743169" lon="8.718577986583114">
        <ele>514.44</ele>
        <time>2024-05-28T11:15:47.388Z</time>
      </trkpt>
      <trkpt lat="45.87945794686675" lon="8.718606987968087">
        <ele>514.42</ele>
        <time>2024-05-28T11:15:48.252Z</time>
      </trkpt>
      <trkpt lat="45.879464987665415" lon="8.718636995181441">
        <ele>514.4</ele>
        <time>2024-05-28T11:15:49.116Z</time>
      </trkpt>
      <trkpt lat="45.879489965736866" lon="8.718672953546047">
        <ele>514.37</ele>
        <time>2024-05-28T11:15:49.982Z</time>
      </trkpt>
      <trkpt lat="45.87950295768678" lon="8.718696925789118">
        <ele>514.34</ele>
        <time>2024-05-28T11:15:50.848Z</time>
      </trkpt>
      <trkpt lat="45.87951997295022" lon="8.718717964366078">
        <ele>514.29</ele>
        <time>2024-05-28T11:15:51.715Z</time>
      </trkpt>
      <trkpt lat="45.879531959071755" lon="8.718739924952388">
        <ele>514.25</ele>
        <time>2024-05-28T11:15:52.583Z</time>
      </trkpt>
      <trkpt lat="45.879551991820335" lon="8.718797927722335">
        <ele>514.21</ele>
        <time>2024-05-28T11:15:53.452Z</time>
      </trkpt>
      <trkpt lat="45.87956992909312" lon="8.718824917450547">
        <ele>514.16</ele>
        <time>2024-05-28T11:15:54.322Z</time>
      </trkpt>
      <trkpt lat="45.87960194796324" lon="8.71884997934103">
        <ele>514.09</ele>
        <time>2024-05-28T11:15:55.193Z</time>
      </trkpt>
      <trkpt lat="45.879617957398295" lon="8.718861965462565">
        <ele>514.04</ele>
        <time>2024-05-28T11:15:56.065Z</time>
      </trkpt>
      <trkpt lat="45.87964997626841" lon="8.718889961019158">
        <ele>513.98</ele>
        <time>2024-05-28T11:15:56.938Z</time>
      </trkpt>
      <trkpt lat="45.879679983481765" lon="8.718921979889274">
        <ele>513.92</ele>
        <time>2024-05-28T11:15:57.812Z</time>
      </trkpt>
      <trkpt lat="45.87969498708844" lon="8.718937989324331">
        <ele>513.87</ele>
        <time>2024-05-28T11:15:58.687Z</time>
      </trkpt>
      <trkpt lat="45.87970797903836" lon="8.718956932425499">
        <ele>513.83</ele>
        <time>2024-05-28T11:15:59.563Z</time>
      </trkpt>
      <trkpt lat="45.87972993962467" lon="8.718999931588769">
        <ele>513.78</ele>
        <time>2024-05-28T11:16:00.440Z</time>
      </trkpt>
      <trkpt lat="45.87973698042333" lon="8.719027927145362">
        <ele>513.75</ele>
        <time>2024-05-28T11:16:01.318Z</time>
      </trkpt>
      <trkpt lat="45.87973999790847" lon="8.719069920480251">
        <ele>513.72</ele>
        <time>2024-05-28T11:16:02.197Z</time>
      </trkpt>
      <trkpt lat="45.87973698042333" lon="8.719114931300282">
        <ele>513.7</ele>
        <time>2024-05-28T11:16:03.077Z</time>
      </trkpt>
      <trkpt lat="45.87971191853285" lon="8.719147955998778">
        <ele>513.7</ele>
        <time>2024-05-28T11:16:03.958Z</time>
      </trkpt>
      <trkpt lat="45.87969792075455" lon="8.719169916585088">
        <ele>513.69</ele>
        <time>2024-05-28T11:16:04.839Z</time>
      </trkpt>
      <trkpt lat="45.87969792075455" lon="8.719207970425487">
        <ele>513.68</ele>
        <time>2024-05-28T11:16:05.721Z</time>
      </trkpt>
      <trkpt lat="45.87969498708844" lon="8.719246946275234">
        <ele>513.67</ele>
        <time>2024-05-28T11:16:06.604Z</time>
      </trkpt>
      <trkpt lat="45.87968794628978" lon="8.719281982630491">
        <ele>513.67</ele>
        <time>2024-05-28T11:16:07.488Z</time>
      </trkpt>
      <trkpt lat="45.879659950733185" lon="8.719312995672226">
        <ele>513.68</ele>
        <time>2024-05-28T11:16:08.373Z</time>
      </trkpt>
      <trkpt lat="45.8796729426831" lon="8.719347948208451">
        <ele>513.67</ele>
        <time>2024-05-28T11:16:09.259Z</time>
      </trkpt>
      <trkpt lat="45.879701944068074" lon="8.719342919066548">
        <ele>513.64</ele>
        <time>2024-05-28T11:16:10.146Z</time>
      </trkpt>
      <trkpt lat="45.879726922139525" lon="8.71934694238007">
        <ele>513.63</ele>
        <time>2024-05-28T11:16:11.034Z</time>
      </trkpt>
      <trkpt lat="45.87974293157458" lon="8.719359934329987">
        <ele>513.62</ele>
        <time>2024-05-28T11:16:11.923Z</time>
      </trkpt>
      <trkpt lat="45.879767993465066" lon="8.719381978735328">
        <ele>513.61</ele>
        <time>2024-05-28T11:16:12.813Z</time>
      </trkpt>
      <trkpt lat="45.879787942394614" lon="8.719412991777062">
        <ele>513.61</ele>
        <time>2024-05-28T11:16:13.704Z</time>
      </trkpt>
      <trkpt lat="45.87979791685939" lon="8.719444926828146">
        <ele>513.62</ele>
        <time>2024-05-28T11:16:14.595Z</time>
      </trkpt>
      <trkpt lat="45.879806969314814" lon="8.719471916556358">
        <ele>513.64</ele>
        <time>2024-05-28T11:16:15.487Z</time>
      </trkpt>
      <trkpt lat="45.87981996126473" lon="8.719504941254854">
        <ele>513.66</ele>
        <time>2024-05-28T11:16:16.380Z</time>
      </trkpt>
      <trkpt lat="45.87982297874987" lon="8.719534948468208">
        <ele>513.69</ele>
        <time>2024-05-28T11:16:17.274Z</time>
      </trkpt>
      <trkpt lat="45.879832953214645" lon="8.71955799870193">
        <ele>513.72</ele>
        <time>2024-05-28T11:16:18.168Z</time>
      </trkpt>
      <trkpt lat="45.8798579312861" lon="8.719586916267872">
        <ele>513.75</ele>
        <time>2024-05-28T11:16:19.063Z</time>
      </trkpt>
      <trkpt lat="45.87987796403468" lon="8.719616923481226">
        <ele>513.79</ele>
        <time>2024-05-28T11:16:19.959Z</time>
      </trkpt>
      <trkpt lat="45.879892967641354" lon="8.719659922644496">
        <ele>513.83</ele>
        <time>2024-05-28T11:16:20.856Z</time>
      </trkpt>
      <trkpt lat="45.879896990954876" lon="8.71970996260643">
        <ele>513.89</ele>
        <time>2024-05-28T11:16:21.755Z</time>
      </trkpt>
      <trkpt lat="45.879892967641354" lon="8.719736952334642">
        <ele>513.94</ele>
        <time>2024-05-28T11:16:22.654Z</time>
      </trkpt>
      <trkpt lat="45.87988995015621" lon="8.719762936234474">
        <ele>514.0</ele>
        <time>2024-05-28T11:16:23.554Z</time>
      </trkpt>
      <trkpt lat="45.87987796403468" lon="8.719802917912602">
        <ele>514.07</ele>
        <time>2024-05-28T11:16:24.455Z</time>
      </trkpt>
      <trkpt lat="45.87990696541965" lon="8.719841977581382">
        <ele>514.13</ele>
        <time>2024-05-28T11:16:25.357Z</time>
      </trkpt>
      <trkpt lat="45.87992792017758" lon="8.719872990623116">
        <ele>514.2</ele>
        <time>2024-05-28T11:16:26.260Z</time>
      </trkpt>
      <trkpt lat="45.87994795292616" lon="8.71988296508789">
        <ele>514.25</ele>
        <time>2024-05-28T11:16:27.164Z</time>
      </trkpt>
      <trkpt lat="45.87996697984636" lon="8.719899980351329">
        <ele>514.32</ele>
        <time>2024-05-28T11:16:28.069Z</time>
      </trkpt>
      <trkpt lat="45.879979971796274" lon="8.719926970079541">
        <ele>514.39</ele>
        <time>2024-05-28T11:16:28.974Z</time>
      </trkpt>
      <trkpt lat="45.880004949867725" lon="8.719934932887554">
        <ele>514.45</ele>
        <time>2024-05-28T11:16:29.880Z</time>
      </trkpt>
      <trkpt lat="45.88003193959594" lon="8.719921940937638">
        <ele>514.5</ele>
        <time>2024-05-28T11:16:30.787Z</time>
      </trkpt>
      <trkpt lat="45.88005993515253" lon="8.71990199200809">
        <ele>514.54</ele>
        <time>2024-05-28T11:16:31.695Z</time>
      </trkpt>
      <trkpt lat="45.880087930709124" lon="8.719907943159342">
        <ele>514.61</ele>
        <time>2024-05-28T11:16:32.604Z</time>
      </trkpt>
      <trkpt lat="45.88010494597256" lon="8.719942979514599">
        <ele>514.7</ele>
        <time>2024-05-28T11:16:33.514Z</time>
      </trkpt>
      <trkpt lat="45.8801269903779" lon="8.719996958971024">
        <ele>514.79</ele>
        <time>2024-05-28T11:16:34.426Z</time>
      </trkpt>
      <trkpt lat="45.88013998232782" lon="8.720021937042475">
        <ele>514.88</ele>
        <time>2024-05-28T11:16:35.338Z</time>
      </trkpt>
      <trkpt lat="45.88014995679259" lon="8.720046998932958">
        <ele>514.98</ele>
        <time>2024-05-28T11:16:36.251Z</time>
      </trkpt>
      <trkpt lat="45.88015993125737" lon="8.720067953690886">
        <ele>515.07</ele>
        <time>2024-05-28T11:16:37.165Z</time>
      </trkpt>
      <trkpt lat="45.880174934864044" lon="8.720091925933957">
        <ele>515.16</ele>
        <time>2024-05-28T11:16:38.079Z</time>
      </trkpt>
      <trkpt lat="45.88019195012748" lon="8.720106929540634">
        <ele>515.26</ele>
        <time>2024-05-28T11:16:38.994Z</time>
      </trkpt>
      <trkpt lat="45.880219945684075" lon="8.72013995423913">
        <ele>515.36</ele>
        <time>2024-05-28T11:16:39.910Z</time>
      </trkpt>
      <trkpt lat="45.880236960947514" lon="8.720161998644471">
        <ele>515.46</ele>
        <time>2024-05-28T11:16:40.827Z</time>
      </trkpt>
      <trkpt lat="45.88025196455419" lon="8.720184965059161">
        <ele>515.58</ele>
        <time>2024-05-28T11:16:41.745Z</time>
      </trkpt>
      <trkpt lat="45.88027199730277" lon="8.72020692564547">
        <ele>515.69</ele>
        <time>2024-05-28T11:16:42.664Z</time>
      </trkpt>
      <trkpt lat="45.880282977595925" lon="8.720229975879192">
        <ele>515.81</ele>
        <time>2024-05-28T11:16:43.583Z</time>
      </trkpt>
      <trkpt lat="45.880306949838996" lon="8.72026995755732">
        <ele>515.95</ele>
        <time>2024-05-28T11:16:44.504Z</time>
      </trkpt>
      <trkpt lat="45.88031994178891" lon="8.72029191814363">
        <ele>516.08</ele>
        <time>2024-05-28T11:16:45.425Z</time>
      </trkpt>
      <trkpt lat="45.88033494539559" lon="8.720314968377352">
        <ele>516.23</ele>
        <time>2024-05-28T11:16:46.347Z</time>
      </trkpt>
      <trkpt lat="45.88035497814417" lon="8.72033198364079">
        <ele>516.37</ele>
        <time>2024-05-28T11:16:47.270Z</time>
      </trkpt>
      <trkpt lat="45.880369981750846" lon="8.720346987247467">
        <ele>516.52</ele>
        <time>2024-05-28T11:16:48.193Z</time>
      </trkpt>
      <trkpt lat="45.880386997014284" lon="8.720371965318918">
        <ele>516.69</ele>
        <time>2024-05-28T11:16:49.117Z</time>
      </trkpt>
      <trkpt lat="45.88040493428707" lon="8.720391998067498">
        <ele>516.86</ele>
        <time>2024-05-28T11:16:50.042Z</time>
      </trkpt>
      <trkpt lat="45.880434941500425" lon="8.720424938946962">
        <ele>517.04</ele>
        <time>2024-05-28T11:16:50.968Z</time>
      </trkpt>
      <trkpt lat="45.88046293705702" lon="8.72045997530222">
        <ele>517.23</ele>
        <time>2024-05-28T11:16:51.895Z</time>
      </trkpt>
      <trkpt lat="45.88048498146236" lon="8.720477996394038">
        <ele>517.43</ele>
        <time>2024-05-28T11:16:52.823Z</time>
      </trkpt>
      <trkpt lat="45.88050493039191" lon="8.720514960587025">
        <ele>517.65</ele>
        <time>2024-05-28T11:16:53.752Z</time>
      </trkpt>
      <trkpt lat="45.88052295148373" lon="8.720552930608392">
        <ele>517.88</ele>
        <time>2024-05-28T11:16:54.682Z</time>
      </trkpt>
      <trkpt lat="45.8805329259485" lon="8.720579920336604">
        <ele>518.12</ele>
        <time>2024-05-28T11:16:55.613Z</time>
      </trkpt>
      <trkpt lat="45.88054994121194" lon="8.720609927549958">
        <ele>518.37</ele>
        <time>2024-05-28T11:16:56.545Z</time>
      </trkpt>
      <trkpt lat="45.880561927333474" lon="8.720634989440441">
        <ele>518.63</ele>
        <time>2024-05-28T11:16:57.478Z</time>
      </trkpt>
      <trkpt lat="45.880581960082054" lon="8.720661979168653">
        <ele>518.9</ele>
        <time>2024-05-28T11:16:58.412Z</time>
      </trkpt>
      <trkpt lat="45.88059796951711" lon="8.720681928098202">
        <ele>519.18</ele>
        <time>2024-05-28T11:16:59.346Z</time>
      </trkpt>
      <trkpt lat="45.88061297312379" lon="8.720707995817065">
        <ele>519.47</ele>
        <time>2024-05-28T11:17:00.281Z</time>
      </trkpt>
      <trkpt lat="45.88062294758856" lon="8.720731968060136">
        <ele>519.78</ele>
        <time>2024-05-28T11:17:01.217Z</time>
      </trkpt>
      <trkpt lat="45.880644991993904" lon="8.720771949738264">
        <ele>520.11</ele>
        <time>2024-05-28T11:17:02.154Z</time>
      </trkpt>
      <trkpt lat="45.88067499920726" lon="8.720816960558295">
        <ele>520.45</ele>
        <time>2024-05-28T11:17:03.092Z</time>
      </trkpt>
      <trkpt lat="45.880689918994904" lon="8.720841938629746">
        <ele>520.8</ele>
        <time>2024-05-28T11:17:04.031Z</time>
      </trkpt>
      <trkpt lat="45.88070693425834" lon="8.7208719458431">
        <ele>521.16</ele>
        <time>2024-05-28T11:17:04.971Z</time>
      </trkpt>
      <trkpt lat="45.880712969228625" lon="8.720897929742932">
        <ele>521.54</ele>
        <time>2024-05-28T11:17:05.912Z</time>
      </trkpt>
      <trkpt lat="45.88071699254215" lon="8.720924919471145">
        <ele>521.94</ele>
        <time>2024-05-28T11:17:06.853Z</time>
      </trkpt>
      <trkpt lat="45.88072495535016" lon="8.720959955826402">
        <ele>522.34</ele>
        <time>2024-05-28T11:17:07.795Z</time>
      </trkpt>
      <trkpt lat="45.880731996148825" lon="8.720994992181659">
        <ele>522.77</ele>
        <time>2024-05-28T11:17:08.738Z</time>
      </trkpt>
      <trkpt lat="45.880731996148825" lon="8.72101997025311">
        <ele>523.21</ele>
        <time>2024-05-28T11:17:09.682Z</time>
      </trkpt>
      <trkpt lat="45.880731996148825" lon="8.721049977466464">
        <ele>523.66</ele>
        <time>2024-05-28T11:17:10.626Z</time>
      </trkpt>
      <trkpt lat="45.880731996148825" lon="8.721076967194676">
        <ele>524.13</ele>
        <time>2024-05-28T11:17:11.571Z</time>
      </trkpt>
      <trkpt lat="45.88072495535016" lon="8.721122983843088">
        <ele>524.63</ele>
        <time>2024-05-28T11:17:12.517Z</time>
      </trkpt>
      <trkpt lat="45.88072495535016" lon="8.7211499735713">
        <ele>525.12</ele>
        <time>2024-05-28T11:17:13.464Z</time>
      </trkpt>
      <trkpt lat="45.88071699254215" lon="8.721197918057442">
        <ele>525.65</ele>
        <time>2024-05-28T11:17:14.412Z</time>
      </trkpt>
      <trkpt lat="45.88071699254215" lon="8.721227925270796">
        <ele>526.18</ele>
        <time>2024-05-28T11:17:15.361Z</time>
      </trkpt>
      <trkpt lat="45.88072193786502" lon="8.72125499881804">
        <ele>526.7</ele>
        <time>2024-05-28T11:17:16.310Z</time>
      </trkpt>
      <trkpt lat="45.88072495535016" lon="8.721287939697504">
        <ele>527.24</ele>
        <time>2024-05-28T11:17:17.260Z</time>
      </trkpt>
      <trkpt lat="45.880731996148825" lon="8.721334962174296">
        <ele>527.8</ele>
        <time>2024-05-28T11:17:18.211Z</time>
      </trkpt>
      <trkpt lat="45.880731996148825" lon="8.72136295773089">
        <ele>528.36</ele>
        <time>2024-05-28T11:17:19.163Z</time>
      </trkpt>
      <trkpt lat="45.880734929814935" lon="8.721394976601005">
        <ele>528.93</ele>
        <time>2024-05-28T11:17:20.115Z</time>
      </trkpt>
      <trkpt lat="45.880731996148825" lon="8.721439987421036">
        <ele>529.51</ele>
        <time>2024-05-28T11:17:21.069Z</time>
      </trkpt>
      <trkpt lat="45.88072495535016" lon="8.721486926078796">
        <ele>530.12</ele>
        <time>2024-05-28T11:17:22.024Z</time>
      </trkpt>
      <trkpt lat="45.880731996148825" lon="8.721517939120531">
        <ele>530.73</ele>
        <time>2024-05-28T11:17:22.979Z</time>
      </trkpt>
      <trkpt lat="45.8807419706136" lon="8.721539983525872">
        <ele>531.32</ele>
        <time>2024-05-28T11:17:23.935Z</time>
      </trkpt>
      <trkpt lat="45.88074498809874" lon="8.721579965204">
        <ele>531.94</ele>
        <time>2024-05-28T11:17:24.892Z</time>
      </trkpt>
      <trkpt lat="45.88075194507837" lon="8.721624976024032">
        <ele>532.56</ele>
        <time>2024-05-28T11:17:25.850Z</time>
      </trkpt>
      <trkpt lat="45.88075999170542" lon="8.72166495770216">
        <ele>533.17</ele>
        <time>2024-05-28T11:17:26.809Z</time>
      </trkpt>
      <trkpt lat="45.88076694868505" lon="8.721694964915514">
        <ele>533.78</ele>
        <time>2024-05-28T11:17:27.769Z</time>
      </trkpt>
      <trkpt lat="45.880754962563515" lon="8.72174995020032">
        <ele>534.41</ele>
        <time>2024-05-28T11:17:28.730Z</time>
      </trkpt>
      <trkpt lat="45.88074792176485" lon="8.72177492827177">
        <ele>535.02</ele>
        <time>2024-05-28T11:17:29.692Z</time>
      </trkpt>
      <trkpt lat="45.88074498809874" lon="8.721799990162253">
        <ele>535.62</ele>
        <time>2024-05-28T11:17:30.654Z</time>
      </trkpt>
      <trkpt lat="45.88072193786502" lon="8.721852963790298">
        <ele>536.23</ele>
        <time>2024-05-28T11:17:31.618Z</time>
      </trkpt>
      <trkpt lat="45.88070693425834" lon="8.721877941861749">
        <ele>536.82</ele>
        <time>2024-05-28T11:17:32.583Z</time>
      </trkpt>
      <trkpt lat="45.88067994453013" lon="8.721907949075103">
        <ele>537.41</ele>
        <time>2024-05-28T11:17:33.549Z</time>
      </trkpt>
      <trkpt lat="45.88066494092345" lon="8.721927981823683">
        <ele>537.97</ele>
        <time>2024-05-28T11:17:34.515Z</time>
      </trkpt>
      <trkpt lat="45.88066494092345" lon="8.721967963501811">
        <ele>538.53</ele>
        <time>2024-05-28T11:17:35.482Z</time>
      </trkpt>
      <trkpt lat="45.880667958408594" lon="8.721997970715165">
        <ele>539.06</ele>
        <time>2024-05-28T11:17:36.450Z</time>
      </trkpt>
      <trkpt lat="45.88067499920726" lon="8.722034934908152">
        <ele>539.58</ele>
        <time>2024-05-28T11:17:37.419Z</time>
      </trkpt>
      <trkpt lat="45.88067994453013" lon="8.72207298874855">
        <ele>540.09</ele>
        <time>2024-05-28T11:17:38.389Z</time>
      </trkpt>
      <trkpt lat="45.88067994453013" lon="8.722119927406311">
        <ele>540.59</ele>
        <time>2024-05-28T11:17:39.360Z</time>
      </trkpt>
      <trkpt lat="45.88066192343831" lon="8.722139960154891">
        <ele>541.05</ele>
        <time>2024-05-28T11:17:40.332Z</time>
      </trkpt>
      <trkpt lat="45.880647925660014" lon="8.722166949883103">
        <ele>541.5</ele>
        <time>2024-05-28T11:17:41.304Z</time>
      </trkpt>
      <trkpt lat="45.88063694536686" lon="8.722191927954555">
        <ele>541.92</ele>
        <time>2024-05-28T11:17:42.277Z</time>
      </trkpt>
      <trkpt lat="45.88063694536686" lon="8.722236938774586">
        <ele>542.33</ele>
        <time>2024-05-28T11:17:43.251Z</time>
      </trkpt>
      <trkpt lat="45.88061297312379" lon="8.722246997058392">
        <ele>542.7</ele>
        <time>2024-05-28T11:17:44.226Z</time>
      </trkpt>
      <trkpt lat="45.88059495203197" lon="8.722271975129843">
        <ele>543.05</ele>
        <time>2024-05-28T11:17:45.202Z</time>
      </trkpt>
      <trkpt lat="45.88057491928339" lon="8.722269963473082">
        <ele>543.36</ele>
        <time>2024-05-28T11:17:46.178Z</time>
      </trkpt>
      <trkpt lat="45.880564944818616" lon="8.722284967079759">
        <ele>543.64</ele>
        <time>2024-05-28T11:17:47.155Z</time>
      </trkpt>
      <trkpt lat="45.880561927333474" lon="8.722311956807971">
        <ele>543.9</ele>
        <time>2024-05-28T11:17:48.133Z</time>
      </trkpt>
      <trkpt lat="45.8805469237268" lon="8.722324948757887">
        <ele>544.13</ele>
        <time>2024-05-28T11:17:49.111Z</time>
      </trkpt>
      <trkpt lat="45.88052999228239" lon="8.722337940707803">
        <ele>544.33</ele>
        <time>2024-05-28T11:17:50.090Z</time>
      </trkpt>
      <trkpt lat="45.88051197119057" lon="8.722336934879422">
        <ele>544.49</ele>
        <time>2024-05-28T11:17:51.069Z</time>
      </trkpt>
      <trkpt lat="45.88050493039191" lon="8.722354955971241">
        <ele>544.63</ele>
        <time>2024-05-28T11:17:52.049Z</time>
      </trkpt>
      <trkpt lat="45.88052697479725" lon="8.722341964021325">
        <ele>544.7</ele>
        <time>2024-05-28T11:17:53.030Z</time>
      </trkpt>
      <trkpt lat="45.88053694926202" lon="8.722364930436015">
        <ele>544.77</ele>
        <time>2024-05-28T11:17:54.011Z</time>
      </trkpt>
      <trkpt lat="45.88054994121194" lon="8.722384963184595">
        <ele>544.82</ele>
        <time>2024-05-28T11:17:54.993Z</time>
      </trkpt>
      <trkpt lat="45.88057198561728" lon="8.722359985113144">
        <ele>544.8</ele>
        <time>2024-05-28T11:17:55.976Z</time>
      </trkpt>
      <trkpt lat="45.88059495203197" lon="8.722341964021325">
        <ele>544.76</ele>
        <time>2024-05-28T11:17:56.960Z</time>
      </trkpt>
      <trkpt lat="45.88061297312379" lon="8.722321931272745">
        <ele>544.7</ele>
        <time>2024-05-28T11:17:57.945Z</time>
      </trkpt>
      <trkpt lat="45.88063292205334" lon="8.722304999828339">
        <ele>544.62</ele>
        <time>2024-05-28T11:17:58.930Z</time>
      </trkpt>
      <trkpt lat="45.880647925660014" lon="8.722291924059391">
        <ele>544.53</ele>
        <time>2024-05-28T11:17:59.916Z</time>
      </trkpt>
      <trkpt lat="45.88066494092345" lon="8.722277926281095">
        <ele>544.42</ele>
        <time>2024-05-28T11:18:00.903Z</time>
      </trkpt>
      <trkpt lat="45.88068698532879" lon="8.722239956259727">
        <ele>544.29</ele>
        <time>2024-05-28T11:18:01.891Z</time>
      </trkpt>
      <trkpt lat="45.88068698532879" lon="8.7221999745816">
        <ele>544.14</ele>
        <time>2024-05-28T11:18:02.880Z</time>
      </trkpt>
      <trkpt lat="45.88069695979357" lon="8.722162926569581">
        <ele>543.99</ele>
        <time>2024-05-28T11:18:03.870Z</time>
      </trkpt>
      <trkpt lat="45.880712969228625" lon="8.722142977640033">
        <ele>543.83</ele>
        <time>2024-05-28T11:18:04.860Z</time>
      </trkpt>
      <trkpt lat="45.8807279728353" lon="8.722122944891453">
        <ele>543.67</ele>
        <time>2024-05-28T11:18:05.851Z</time>
      </trkpt>
      <trkpt lat="45.88074498809874" lon="8.722082963213325">
        <ele>543.49</ele>
        <time>2024-05-28T11:18:06.843Z</time>
      </trkpt>
      <trkpt lat="45.88076996617019" lon="8.722061924636364">
        <ele>543.32</ele>
        <time>2024-05-28T11:18:07.836Z</time>
      </trkpt>
      <trkpt lat="45.88078999891877" lon="8.722046921029687">
        <ele>543.15</ele>
        <time>2024-05-28T11:18:08.830Z</time>
      </trkpt>
      <trkpt lat="45.88081497699022" lon="8.722034934908152">
        <ele>542.98</ele>
        <time>2024-05-28T11:18:09.825Z</time>
      </trkpt>
      <trkpt lat="45.88084699586034" lon="8.722041975706816">
        <ele>542.82</ele>
        <time>2024-05-28T11:18:10.821Z</time>
      </trkpt>
      <trkpt lat="45.88088194839656" lon="8.722059996798635">
        <ele>542.67</ele>
        <time>2024-05-28T11:18:11.818Z</time>
      </trkpt>
      <trkpt lat="45.88090198114514" lon="8.722076928243041">
        <ele>542.53</ele>
        <time>2024-05-28T11:18:12.816Z</time>
      </trkpt>
      <trkpt lat="45.88091991841793" lon="8.722087992355227">
        <ele>542.39</ele>
        <time>2024-05-28T11:18:13.814Z</time>
      </trkpt>
      <trkpt lat="45.88094296865165" lon="8.722106935456395">
        <ele>542.27</ele>
        <time>2024-05-28T11:18:14.813Z</time>
      </trkpt>
      <trkpt lat="45.8809679467231" lon="8.722126968204975">
        <ele>542.14</ele>
        <time>2024-05-28T11:18:15.813Z</time>
      </trkpt>
      <trkpt lat="45.880991918966174" lon="8.722146917134523">
        <ele>542.02</ele>
        <time>2024-05-28T11:18:16.814Z</time>
      </trkpt>
      <trkpt lat="45.8810199983418" lon="8.7221619207412">
        <ele>541.91</ele>
        <time>2024-05-28T11:18:17.816Z</time>
      </trkpt>
      <trkpt lat="45.88104799389839" lon="8.72218195348978">
        <ele>541.81</ele>
        <time>2024-05-28T11:18:18.819Z</time>
      </trkpt>
      <trkpt lat="45.88106794282794" lon="8.722197962924838">
        <ele>541.71</ele>
        <time>2024-05-28T11:18:19.823Z</time>
      </trkpt>
      <trkpt lat="45.88108696974814" lon="8.722211960703135">
        <ele>541.63</ele>
        <time>2024-05-28T11:18:20.828Z</time>
      </trkpt>
      <trkpt lat="45.88111295364797" lon="8.722241967916489">
        <ele>541.56</ele>
        <time>2024-05-28T11:18:21.834Z</time>
      </trkpt>
      <trkpt lat="45.88112493976951" lon="8.722259989008307">
        <ele>541.5</ele>
        <time>2024-05-28T11:18:22.840Z</time>
      </trkpt>
      <trkpt lat="45.881141955032945" lon="8.722281949594617">
        <ele>541.45</ele>
        <time>2024-05-28T11:18:23.847Z</time>
      </trkpt>
      <trkpt lat="45.881157964468" lon="8.722304999828339">
        <ele>541.41</ele>
        <time>2024-05-28T11:18:24.855Z</time>
      </trkpt>
      <trkpt lat="45.88117992505431" lon="8.722344981506467">
        <ele>541.38</ele>
        <time>2024-05-28T11:18:25.864Z</time>
      </trkpt>
      <trkpt lat="45.88119291700423" lon="8.72237691655755">
        <ele>541.36</ele>
        <time>2024-05-28T11:18:26.874Z</time>
      </trkpt>
      <trkpt lat="45.88120196945965" lon="8.722404995933175">
        <ele>541.34</ele>
        <time>2024-05-28T11:18:27.885Z</time>
      </trkpt>
      <trkpt lat="45.881204986944795" lon="8.722429974004626">
        <ele>541.33</ele>
        <time>2024-05-28T11:18:28.896Z</time>
      </trkpt>
      <trkpt lat="45.881204986944795" lon="8.722476996481419">
        <ele>541.34</ele>
        <time>2024-05-28T11:18:29.908Z</time>
      </trkpt>
      <trkpt lat="45.881207920610905" lon="8.72250298038125">
        <ele>541.34</ele>
        <time>2024-05-28T11:18:30.921Z</time>
      </trkpt>
      <trkpt lat="45.88121797889471" lon="8.722527958452702">
        <ele>541.32</ele>
        <time>2024-05-28T11:18:31.935Z</time>
      </trkpt>
      <trkpt lat="45.881227953359485" lon="8.722572969272733">
        <ele>541.31</ele>
        <time>2024-05-28T11:18:32.950Z</time>
      </trkpt>
      <trkpt lat="45.88123792782426" lon="8.722597947344184">
        <ele>541.29</ele>
        <time>2024-05-28T11:18:33.965Z</time>
      </trkpt>
      <trkpt lat="45.881249997764826" lon="8.722639940679073">
        <ele>541.27</ele>
        <time>2024-05-28T11:18:34.981Z</time>
      </trkpt>
      <trkpt lat="45.8812599722296" lon="8.722684951499104">
        <ele>541.24</ele>
        <time>2024-05-28T11:18:35.999Z</time>
      </trkpt>
      <trkpt lat="45.881272964179516" lon="8.722707917913795">
        <ele>541.19</ele>
        <time>2024-05-28T11:18:37.017Z</time>
      </trkpt>
      <trkpt lat="45.88128495030105" lon="8.722729962319136">
        <ele>541.13</ele>
        <time>2024-05-28T11:18:38.036Z</time>
      </trkpt>
      <trkpt lat="45.88129794225097" lon="8.722757957875729">
        <ele>541.06</ele>
        <time>2024-05-28T11:18:39.056Z</time>
      </trkpt>
      <trkpt lat="45.88131194002926" lon="8.722796933725476">
        <ele>540.99</ele>
        <time>2024-05-28T11:18:40.077Z</time>
      </trkpt>
      <trkpt lat="45.88132996112108" lon="8.722819983959198">
        <ele>540.89</ele>
        <time>2024-05-28T11:18:41.099Z</time>
      </trkpt>
      <trkpt lat="45.881339935585856" lon="8.722842950373888">
        <ele>540.79</ele>
        <time>2024-05-28T11:18:42.121Z</time>
      </trkpt>
      <trkpt lat="45.881359968334436" lon="8.722891984507442">
        <ele>540.67</ele>
        <time>2024-05-28T11:18:43.144Z</time>
      </trkpt>
      <trkpt lat="45.881381928920746" lon="8.722926937043667">
        <ele>540.53</ele>
        <time>2024-05-28T11:18:44.169Z</time>
      </trkpt>
      <trkpt lat="45.8813979383558" lon="8.722939928993583">
        <ele>540.36</ele>
        <time>2024-05-28T11:18:45.194Z</time>
      </trkpt>
      <trkpt lat="45.881416965276" lon="8.722959961742163">
        <ele>540.18</ele>
        <time>2024-05-28T11:18:46.220Z</time>
      </trkpt>
      <trkpt lat="45.881441943347454" lon="8.722991980612278">
        <ele>539.98</ele>
        <time>2024-05-28T11:18:47.247Z</time>
      </trkpt>
      <trkpt lat="45.88145795278251" lon="8.723006984218955">
        <ele>539.77</ele>
        <time>2024-05-28T11:18:48.275Z</time>
      </trkpt>
      <trkpt lat="45.88148293085396" lon="8.723034979775548">
        <ele>539.53</ele>
        <time>2024-05-28T11:18:49.304Z</time>
      </trkpt>
      <trkpt lat="45.881509920582175" lon="8.723051995038986">
        <ele>539.27</ele>
        <time>2024-05-28T11:18:50.334Z</time>
      </trkpt>
      <trkpt lat="45.88152492418885" lon="8.723066998645663">
        <ele>539.02</ele>
        <time>2024-05-28T11:18:51.364Z</time>
      </trkpt>
      <trkpt lat="45.8815379999578" lon="8.723094994202256">
        <ele>538.75</ele>
        <time>2024-05-28T11:18:52.395Z</time>
      </trkpt>
      <trkpt lat="45.881547974422574" lon="8.72312692925334">
        <ele>538.47</ele>
        <time>2024-05-28T11:18:53.427Z</time>
      </trkpt>
      <trkpt lat="45.88156297802925" lon="8.723151991143823">
        <ele>538.17</ele>
        <time>2024-05-28T11:18:54.460Z</time>
      </trkpt>
      <trkpt lat="45.88158996775746" lon="8.723139921203256">
        <ele>537.81</ele>
        <time>2024-05-28T11:18:55.494Z</time>
      </trkpt>
      <trkpt lat="45.881617963314056" lon="8.723121983930469">
        <ele>537.43</ele>
        <time>2024-05-28T11:18:56.529Z</time>
      </trkpt>
      <trkpt lat="45.88164294138551" lon="8.723116954788566">
        <ele>537.05</ele>
        <time>2024-05-28T11:18:57.565Z</time>
      </trkpt>
      <trkpt lat="45.881676971912384" lon="8.723121983930469">
        <ele>536.64</ele>
        <time>2024-05-28T11:18:58.602Z</time>
      </trkpt>
      <trkpt lat="45.88170496746898" lon="8.723136987537146">
        <ele>536.23</ele>
        <time>2024-05-28T11:18:59.640Z</time>
      </trkpt>
      <trkpt lat="45.881726928055286" lon="8.723137993365526">
        <ele>535.8</ele>
        <time>2024-05-28T11:19:00.678Z</time>
      </trkpt>
      <trkpt lat="45.88175693526864" lon="8.723142938688397">
        <ele>535.35</ele>
        <time>2024-05-28T11:19:01.717Z</time>
      </trkpt>
      <trkpt lat="45.88177495636046" lon="8.723149979487062">
        <ele>534.9</ele>
        <time>2024-05-28T11:19:02.757Z</time>
      </trkpt>
      <trkpt lat="45.88179993443191" lon="8.723156936466694">
        <ele>534.43</ele>
        <time>2024-05-28T11:19:03.798Z</time>
      </trkpt>
      <trkpt lat="45.88182298466563" lon="8.723156936466694">
        <ele>533.94</ele>
        <time>2024-05-28T11:19:04.840Z</time>
      </trkpt>
      <trkpt lat="45.88182692416012" lon="8.723129946738482">
        <ele>533.43</ele>
        <time>2024-05-28T11:19:05.882Z</time>
      </trkpt>
      <trkpt lat="45.881832959130406" lon="8.723091976717114">
        <ele>532.9</ele>
        <time>2024-05-28T11:19:06.925Z</time>
      </trkpt>
      <trkpt lat="45.88184494525194" lon="8.723059957847">
        <ele>532.36</ele>
        <time>2024-05-28T11:19:07.969Z</time>
      </trkpt>
      <trkpt lat="45.8818799816072" lon="8.72304193675518">
        <ele>531.8</ele>
        <time>2024-05-28T11:19:09.014Z</time>
      </trkpt>
      <trkpt lat="45.88190294802189" lon="8.72303799726069">
        <ele>531.25</ele>
        <time>2024-05-28T11:19:10.060Z</time>
      </trkpt>
      <trkpt lat="45.88191996328533" lon="8.72303799726069">
        <ele>530.7</ele>
        <time>2024-05-28T11:19:11.107Z</time>
      </trkpt>
      <trkpt lat="45.881934966892004" lon="8.72303799726069">
        <ele>530.15</ele>
        <time>2024-05-28T11:19:12.154Z</time>
      </trkpt>
      <trkpt lat="45.881957933306694" lon="8.72303799726069">
        <ele>529.59</ele>
        <time>2024-05-28T11:19:13.202Z</time>
      </trkpt>
      <trkpt lat="45.88197293691337" lon="8.723046965897083">
        <ele>529.04</ele>
        <time>2024-05-28T11:19:14.250Z</time>
      </trkpt>
      <trkpt lat="45.88199296966195" lon="8.723044954240322">
        <ele>528.47</ele>
        <time>2024-05-28T11:19:15.299Z</time>
      </trkpt>
      <trkpt lat="45.882001938298345" lon="8.72301796451211">
        <ele>527.88</ele>
        <time>2024-05-28T11:19:16.349Z</time>
      </trkpt>
      <trkpt lat="45.882021971046925" lon="8.723004972562194">
        <ele>527.3</ele>
        <time>2024-05-28T11:19:17.400Z</time>
      </trkpt>
      <trkpt lat="45.88203999213874" lon="8.723014947026968">
        <ele>526.73</ele>
        <time>2024-05-28T11:19:18.451Z</time>
      </trkpt>
      <trkpt lat="45.88206295855343" lon="8.723031962290406">
        <ele>526.15</ele>
        <time>2024-05-28T11:19:19.503Z</time>
      </trkpt>
      <trkpt lat="45.88208198547363" lon="8.72303992509842">
        <ele>525.57</ele>
        <time>2024-05-28T11:19:20.556Z</time>
      </trkpt>
      <trkpt lat="45.88210495188832" lon="8.723051995038986">
        <ele>524.99</ele>
        <time>2024-05-28T11:19:21.610Z</time>
      </trkpt>
      <trkpt lat="45.88212297298014" lon="8.72306196950376">
        <ele>524.41</ele>
        <time>2024-05-28T11:19:22.664Z</time>
      </trkpt>
      <trkpt lat="45.88215993717313" lon="8.723077978938818">
        <ele>523.81</ele>
        <time>2024-05-28T11:19:23.719Z</time>
      </trkpt>
      <trkpt lat="45.88217795826495" lon="8.72308493591845">
        <ele>523.22</ele>
        <time>2024-05-28T11:19:24.775Z</time>
      </trkpt>
      <trkpt lat="45.882199918851256" lon="8.72310496866703">
        <ele>522.65</ele>
        <time>2024-05-28T11:19:25.832Z</time>
      </trkpt>
      <trkpt lat="45.88222992606461" lon="8.723124917596579">
        <ele>522.06</ele>
        <time>2024-05-28T11:19:26.890Z</time>
      </trkpt>
      <trkpt lat="45.88225197046995" lon="8.723149979487062">
        <ele>521.49</ele>
        <time>2024-05-28T11:19:27.949Z</time>
      </trkpt>
      <trkpt lat="45.88226496241987" lon="8.723176969215274">
        <ele>520.93</ele>
        <time>2024-05-28T11:19:29.009Z</time>
      </trkpt>
      <trkpt lat="45.88228994049132" lon="8.723199935629964">
        <ele>520.35</ele>
        <time>2024-05-28T11:19:30.070Z</time>
      </trkpt>
      <trkpt lat="45.8823099732399" lon="8.723222985863686">
        <ele>519.79</ele>
        <time>2024-05-28T11:19:31.132Z</time>
      </trkpt>
      <trkpt lat="45.88233193382621" lon="8.723247963935137">
        <ele>519.22</ele>
        <time>2024-05-28T11:19:32.195Z</time>
      </trkpt>
      <trkpt lat="45.88237694464624" lon="8.723277971148491">
        <ele>518.64</ele>
        <time>2024-05-28T11:19:33.259Z</time>
      </trkpt>
      <trkpt lat="45.88239999487996" lon="8.723292974755168">
        <ele>518.07</ele>
        <time>2024-05-28T11:19:34.324Z</time>
      </trkpt>
      <trkpt lat="45.88242195546627" lon="8.723304960876703">
        <ele>517.5</ele>
        <time>2024-05-28T11:19:35.390Z</time>
      </trkpt>
      <trkpt lat="45.88243997655809" lon="8.72331996448338">
        <ele>516.94</ele>
        <time>2024-05-28T11:19:36.457Z</time>
      </trkpt>
      <trkpt lat="45.88245992548764" lon="8.723334968090057">
        <ele>516.37</ele>
        <time>2024-05-28T11:19:37.524Z</time>
      </trkpt>
      <trkpt lat="45.88247995823622" lon="8.723347960039973">
        <ele>515.8</ele>
        <time>2024-05-28T11:19:38.592Z</time>
      </trkpt>
      <trkpt lat="45.88250795379281" lon="8.723374949768186">
        <ele>515.24</ele>
        <time>2024-05-28T11:19:39.661Z</time>
      </trkpt>
      <trkpt lat="45.88253293186426" lon="8.723389953374863">
        <ele>514.66</ele>
        <time>2024-05-28T11:19:40.731Z</time>
      </trkpt>
      <trkpt lat="45.8825499471277" lon="8.723372938111424">
        <ele>514.07</ele>
        <time>2024-05-28T11:19:41.802Z</time>
      </trkpt>
      <trkpt lat="45.882559921592474" lon="8.723344942554832">
        <ele>513.48</ele>
        <time>2024-05-28T11:19:42.873Z</time>
      </trkpt>
      <trkpt lat="45.882559921592474" lon="8.723309990018606">
        <ele>512.89</ele>
        <time>2024-05-28T11:19:43.945Z</time>
      </trkpt>
      <trkpt lat="45.882536955177784" lon="8.723262967541814">
        <ele>512.31</ele>
        <time>2024-05-28T11:19:45.019Z</time>
      </trkpt>
      <trkpt lat="45.88252999819815" lon="8.723236983641982">
        <ele>511.73</ele>
        <time>2024-05-28T11:19:46.093Z</time>
      </trkpt>
      <trkpt lat="45.882519939914346" lon="8.723204964771867">
        <ele>511.15</ele>
        <time>2024-05-28T11:19:47.168Z</time>
      </trkpt>
      <trkpt lat="45.882519939914346" lon="8.723174957558513">
        <ele>510.56</ele>
        <time>2024-05-28T11:19:48.244Z</time>
      </trkpt>
      <trkpt lat="45.882517928257585" lon="8.72314696200192">
        <ele>509.98</ele>
        <time>2024-05-28T11:19:49.320Z</time>
      </trkpt>
      <trkpt lat="45.882514994591475" lon="8.723109997808933">
        <ele>509.38</ele>
        <time>2024-05-28T11:19:50.397Z</time>
      </trkpt>
      <trkpt lat="45.882514994591475" lon="8.72307999059558">
        <ele>508.79</ele>
        <time>2024-05-28T11:19:51.475Z</time>
      </trkpt>
      <trkpt lat="45.882514994591475" lon="8.723051995038986">
        <ele>508.19</ele>
        <time>2024-05-28T11:19:52.554Z</time>
      </trkpt>
      <trkpt lat="45.882514994591475" lon="8.723021987825632">
        <ele>507.6</ele>
        <time>2024-05-28T11:19:53.633Z</time>
      </trkpt>
      <trkpt lat="45.882514994591475" lon="8.722991980612278">
        <ele>507.01</ele>
        <time>2024-05-28T11:19:54.713Z</time>
      </trkpt>
      <trkpt lat="45.882514994591475" lon="8.722959961742163">
        <ele>506.43</ele>
        <time>2024-05-28T11:19:55.794Z</time>
      </trkpt>
      <trkpt lat="45.882514994591475" lon="8.722927942872047">
        <ele>505.84</ele>
        <time>2024-05-28T11:19:56.876Z</time>
      </trkpt>
      <trkpt lat="45.882514994591475" lon="8.722892990335822">
        <ele>505.25</ele>
        <time>2024-05-28T11:19:57.958Z</time>
      </trkpt>
      <trkpt lat="45.882519939914346" lon="8.722859965637326">
        <ele>504.66</ele>
        <time>2024-05-28T11:19:59.041Z</time>
      </trkpt>
      <trkpt lat="45.88252295739949" lon="8.72282694093883">
        <ele>504.07</ele>
        <time>2024-05-28T11:20:00.125Z</time>
      </trkpt>
      <trkpt lat="45.88252999819815" lon="8.722796933725476">
        <ele>503.48</ele>
        <time>2024-05-28T11:20:01.210Z</time>
      </trkpt>
      <trkpt lat="45.88253293186426" lon="8.722762987017632">
        <ele>502.89</ele>
        <time>2024-05-28T11:20:02.295Z</time>
      </trkpt>
      <trkpt lat="45.882539972662926" lon="8.722726944833994">
        <ele>502.3</ele>
        <time>2024-05-28T11:20:03.381Z</time>
      </trkpt>
      <trkpt lat="45.88254299014807" lon="8.722687968984246">
        <ele>501.72</ele>
        <time>2024-05-28T11:20:04.468Z</time>
      </trkpt>
      <trkpt lat="45.88255296461284" lon="8.72265293262899">
        <ele>501.13</ele>
        <time>2024-05-28T11:20:05.556Z</time>
      </trkpt>
      <trkpt lat="45.88256796821952" lon="8.722622925415635">
        <ele>500.55</ele>
        <time>2024-05-28T11:20:06.645Z</time>
      </trkpt>
      <trkpt lat="45.88257492519915" lon="8.722596941515803">
        <ele>499.98</ele>
        <time>2024-05-28T11:20:07.735Z</time>
      </trkpt>
      <trkpt lat="45.882581965997815" lon="8.72256794013083">
        <ele>499.4</ele>
        <time>2024-05-28T11:20:08.825Z</time>
      </trkpt>
      <trkpt lat="45.88259495794773" lon="8.722536927089095">
        <ele>498.82</ele>
        <time>2024-05-28T11:20:09.916Z</time>
      </trkpt>
      <trkpt lat="45.88259797543287" lon="8.72250298038125">
        <ele>498.24</ele>
        <time>2024-05-28T11:20:11.008Z</time>
      </trkpt>
      <trkpt lat="45.882606944069266" lon="8.722469955682755">
        <ele>497.66</ele>
        <time>2024-05-28T11:20:12.101Z</time>
      </trkpt>
      <trkpt lat="45.88260996155441" lon="8.722429974004626">
        <ele>497.08</ele>
        <time>2024-05-28T11:20:13.195Z</time>
      </trkpt>
      <trkpt lat="45.882606944069266" lon="8.722391920164227">
        <ele>496.5</ele>
        <time>2024-05-28T11:20:14.290Z</time>
      </trkpt>
      <trkpt lat="45.882599987089634" lon="8.722346993163228">
        <ele>495.93</ele>
        <time>2024-05-28T11:20:15.386Z</time>
      </trkpt>
      <trkpt lat="45.88260996155441" lon="8.722311956807971">
        <ele>495.37</ele>
        <time>2024-05-28T11:20:16.483Z</time>
      </trkpt>
      <trkpt lat="45.88261691853404" lon="8.722271975129843">
        <ele>494.8</ele>
        <time>2024-05-28T11:20:17.581Z</time>
      </trkpt>
      <trkpt lat="45.88261993601918" lon="8.722232999280095">
        <ele>494.25</ele>
        <time>2024-05-28T11:20:18.679Z</time>
      </trkpt>
      <trkpt lat="45.88262999430299" lon="8.722197962924838">
        <ele>493.7</ele>
        <time>2024-05-28T11:20:19.778Z</time>
      </trkpt>
      <trkpt lat="45.88263996876776" lon="8.722159992903471">
        <ele>493.16</ele>
        <time>2024-05-28T11:20:20.878Z</time>
      </trkpt>
      <trkpt lat="45.88265798985958" lon="8.722132919356227">
        <ele>492.62</ele>
        <time>2024-05-28T11:20:21.979Z</time>
      </trkpt>
      <trkpt lat="45.88267492130399" lon="8.722106935456395">
        <ele>492.1</ele>
        <time>2024-05-28T11:20:23.081Z</time>
      </trkpt>
      <trkpt lat="45.88267198763788" lon="8.72207298874855">
        <ele>491.58</ele>
        <time>2024-05-28T11:20:24.184Z</time>
      </trkpt>
      <trkpt lat="45.882667964324355" lon="8.722037952393293">
        <ele>491.07</ele>
        <time>2024-05-28T11:20:25.288Z</time>
      </trkpt>
      <trkpt lat="45.88265798985958" lon="8.721997970715165">
        <ele>490.57</ele>
        <time>2024-05-28T11:20:26.393Z</time>
      </trkpt>
      <trkpt lat="45.88264198042452" lon="8.721959916874766">
        <ele>490.08</ele>
        <time>2024-05-28T11:20:27.499Z</time>
      </trkpt>
      <trkpt lat="45.882622953504324" lon="8.721914989873767">
        <ele>489.59</ele>
        <time>2024-05-28T11:20:28.606Z</time>
      </trkpt>
      <trkpt lat="45.88261297903955" lon="8.72187995351851">
        <ele>489.11</ele>
        <time>2024-05-28T11:20:29.714Z</time>
      </trkpt>
      <trkpt lat="45.88259797543287" lon="8.721844917163253">
        <ele>488.64</ele>
        <time>2024-05-28T11:20:30.823Z</time>
      </trkpt>
      <trkpt lat="45.882581965997815" lon="8.721809964627028">
        <ele>488.18</ele>
        <time>2024-05-28T11:20:31.933Z</time>
      </trkpt>
      <trkpt lat="45.88257199153304" lon="8.721776939928532">
        <ele>487.73</ele>
        <time>2024-05-28T11:20:33.043Z</time>
      </trkpt>
      <trkpt lat="45.882556987926364" lon="8.721746932715178">
        <ele>487.28</ele>
        <time>2024-05-28T11:20:34.154Z</time>
      </trkpt>
      <trkpt lat="45.88254299014807" lon="8.721716925501823">
        <ele>486.84</ele>
        <time>2024-05-28T11:20:35.266Z</time>
      </trkpt>
      <trkpt lat="45.88252999819815" lon="8.72168499045074">
        <ele>486.41</ele>
        <time>2024-05-28T11:20:36.379Z</time>
      </trkpt>
      <trkpt lat="45.882517928257585" lon="8.721651965752244">
        <ele>485.99</ele>
        <time>2024-05-28T11:20:37.493Z</time>
      </trkpt>
      <trkpt lat="45.88250191882253" lon="8.721617935225368">
        <ele>485.56</ele>
        <time>2024-05-28T11:20:38.608Z</time>
      </trkpt>
      <trkpt lat="45.88248792104423" lon="8.721584994345903">
        <ele>485.14</ele>
        <time>2024-05-28T11:20:39.724Z</time>
      </trkpt>
      <trkpt lat="45.882476940751076" lon="8.721547946333885">
        <ele>484.72</ele>
        <time>2024-05-28T11:20:40.841Z</time>
      </trkpt>
      <trkpt lat="45.88245992548764" lon="8.72151693329215">
        <ele>484.31</ele>
        <time>2024-05-28T11:20:41.959Z</time>
      </trkpt>
      <trkpt lat="45.88243997655809" lon="8.721482986584306">
        <ele>483.89</ele>
        <time>2024-05-28T11:20:43.078Z</time>
      </trkpt>
      <trkpt lat="45.882431929931045" lon="8.721451973542571">
        <ele>483.48</ele>
        <time>2024-05-28T11:20:44.197Z</time>
      </trkpt>
      <trkpt lat="45.88241499848664" lon="8.721419954672456">
        <ele>483.06</ele>
        <time>2024-05-28T11:20:45.317Z</time>
      </trkpt>
      <trkpt lat="45.882407957687974" lon="8.72138692997396">
        <ele>482.65</ele>
        <time>2024-05-28T11:20:46.438Z</time>
      </trkpt>
      <trkpt lat="45.88239697739482" lon="8.721352983266115">
        <ele>482.23</ele>
        <time>2024-05-28T11:20:47.560Z</time>
      </trkpt>
      <trkpt lat="45.88238297961652" lon="8.721317946910858">
        <ele>481.81</ele>
        <time>2024-05-28T11:20:48.683Z</time>
      </trkpt>
      <trkpt lat="45.88237694464624" lon="8.721284922212362">
        <ele>481.38</ele>
        <time>2024-05-28T11:20:49.807Z</time>
      </trkpt>
      <trkpt lat="45.88236998766661" lon="8.721252987161279">
        <ele>480.94</ele>
        <time>2024-05-28T11:20:50.932Z</time>
      </trkpt>
      <trkpt lat="45.88236998766661" lon="8.721217950806022">
        <ele>480.5</ele>
        <time>2024-05-28T11:20:52.057Z</time>
      </trkpt>
      <trkpt lat="45.88236294686794" lon="8.721184926107526">
        <ele>480.04</ele>
        <time>2024-05-28T11:20:53.183Z</time>
      </trkpt>
      <trkpt lat="45.88236294686794" lon="8.721139999106526">
        <ele>479.57</ele>
        <time>2024-05-28T11:20:54.310Z</time>
      </trkpt>
      <trkpt lat="45.88236998766661" lon="8.721102951094508">
        <ele>479.08</ele>
        <time>2024-05-28T11:20:55.438Z</time>
      </trkpt>
      <trkpt lat="45.88236998766661" lon="8.72106296941638">
        <ele>478.6</ele>
        <time>2024-05-28T11:20:56.567Z</time>
      </trkpt>
      <trkpt lat="45.88237694464624" lon="8.721024999395013">
        <ele>478.09</ele>
        <time>2024-05-28T11:20:57.697Z</time>
      </trkpt>
      <trkpt lat="45.88238297961652" lon="8.720984933897853">
        <ele>477.58</ele>
        <time>2024-05-28T11:20:58.828Z</time>
      </trkpt>
      <trkpt lat="45.88238297961652" lon="8.720946963876486">
        <ele>477.07</ele>
        <time>2024-05-28T11:20:59.960Z</time>
      </trkpt>
      <trkpt lat="45.8823929540813" lon="8.7209099996835">
        <ele>476.53</ele>
        <time>2024-05-28T11:21:01.093Z</time>
      </trkpt>
      <trkpt lat="45.88239697739482" lon="8.7208719458431">
        <ele>475.99</ele>
        <time>2024-05-28T11:21:02.227Z</time>
      </trkpt>
      <trkpt lat="45.88240192271769" lon="8.720836993306875">
        <ele>475.44</ele>
        <time>2024-05-28T11:21:03.361Z</time>
      </trkpt>
      <trkpt lat="45.88241499848664" lon="8.720802962779999">
        <ele>474.87</ele>
        <time>2024-05-28T11:21:04.496Z</time>
      </trkpt>
      <trkpt lat="45.882427990436554" lon="8.720772955566645">
        <ele>474.3</ele>
        <time>2024-05-28T11:21:05.632Z</time>
      </trkpt>
      <trkpt lat="45.88244299404323" lon="8.720739930868149">
        <ele>473.71</ele>
        <time>2024-05-28T11:21:06.769Z</time>
      </trkpt>
      <trkpt lat="45.88245699182153" lon="8.720706989988685">
        <ele>473.11</ele>
        <time>2024-05-28T11:21:07.907Z</time>
      </trkpt>
      <trkpt lat="45.88246998377144" lon="8.720671953633428">
        <ele>472.5</ele>
        <time>2024-05-28T11:21:09.046Z</time>
      </trkpt>
      <trkpt lat="45.882476940751076" lon="8.720634989440441">
        <ele>471.89</ele>
        <time>2024-05-28T11:21:10.186Z</time>
      </trkpt>
      <trkpt lat="45.88247995823622" lon="8.720597941428423">
        <ele>471.28</ele>
        <time>2024-05-28T11:21:11.327Z</time>
      </trkpt>
      <trkpt lat="45.88248792104423" lon="8.720559971407056">
        <ele>470.66</ele>
        <time>2024-05-28T11:21:12.469Z</time>
      </trkpt>
      <trkpt lat="45.88249194435775" lon="8.72052795253694">
        <ele>470.04</ele>
        <time>2024-05-28T11:21:13.611Z</time>
      </trkpt>
      <trkpt lat="45.882494961842895" lon="8.720487970858812">
        <ele>469.41</ele>
        <time>2024-05-28T11:21:14.754Z</time>
      </trkpt>
      <trkpt lat="45.882497979328036" lon="8.720454946160316">
        <ele>468.78</ele>
        <time>2024-05-28T11:21:15.898Z</time>
      </trkpt>
      <trkpt lat="45.88250795379281" lon="8.720419993624091">
        <ele>468.14</ele>
        <time>2024-05-28T11:21:17.043Z</time>
      </trkpt>
      <trkpt lat="45.882514994591475" lon="8.720379928126931">
        <ele>467.5</ele>
        <time>2024-05-28T11:21:18.189Z</time>
      </trkpt>
      <trkpt lat="45.88252295739949" lon="8.720339946448803">
        <ele>466.85</ele>
        <time>2024-05-28T11:21:19.336Z</time>
      </trkpt>
      <trkpt lat="45.88253293186426" lon="8.720299964770675">
        <ele>466.2</ele>
        <time>2024-05-28T11:21:20.484Z</time>
      </trkpt>
      <trkpt lat="45.88254299014807" lon="8.720266940072179">
        <ele>465.56</ele>
        <time>2024-05-28T11:21:21.633Z</time>
      </trkpt>
      <trkpt lat="45.882559921592474" lon="8.720239950343966">
        <ele>464.92</ele>
        <time>2024-05-28T11:21:22.783Z</time>
      </trkpt>
      <trkpt lat="45.88257492519915" lon="8.720216983929276">
        <ele>464.29</ele>
        <time>2024-05-28T11:21:23.933Z</time>
      </trkpt>
      <trkpt lat="45.88259495794773" lon="8.720191922038794">
        <ele>463.66</ele>
        <time>2024-05-28T11:21:25.084Z</time>
      </trkpt>
      <trkpt lat="45.88261691853404" lon="8.720166943967342">
        <ele>463.03</ele>
        <time>2024-05-28T11:21:26.236Z</time>
      </trkpt>
      <trkpt lat="45.88263695128262" lon="8.720141965895891">
        <ele>462.41</ele>
        <time>2024-05-28T11:21:27.389Z</time>
      </trkpt>
      <trkpt lat="45.88265497237444" lon="8.72011992149055">
        <ele>461.8</ele>
        <time>2024-05-28T11:21:28.543Z</time>
      </trkpt>
      <trkpt lat="45.88267793878913" lon="8.72009796090424">
        <ele>461.2</ele>
        <time>2024-05-28T11:21:29.698Z</time>
      </trkpt>
      <trkpt lat="45.882692942395806" lon="8.72007298283279">
        <ele>460.6</ele>
        <time>2024-05-28T11:21:30.853Z</time>
      </trkpt>
      <trkpt lat="45.882709957659245" lon="8.720046998932958">
        <ele>460.02</ele>
        <time>2024-05-28T11:21:32.009Z</time>
      </trkpt>
      <trkpt lat="45.88271993212402" lon="8.720016991719604">
        <ele>459.44</ele>
        <time>2024-05-28T11:21:33.166Z</time>
      </trkpt>
      <trkpt lat="45.882731918245554" lon="8.719979943707585">
        <ele>458.87</ele>
        <time>2024-05-28T11:21:34.324Z</time>
      </trkpt>
      <trkpt lat="45.88273795321584" lon="8.719942979514599">
        <ele>458.32</ele>
        <time>2024-05-28T11:21:35.483Z</time>
      </trkpt>
      <trkpt lat="45.882751950994134" lon="8.719912972301245">
        <ele>457.78</ele>
        <time>2024-05-28T11:21:36.643Z</time>
      </trkpt>
      <trkpt lat="45.882751950994134" lon="8.71988296508789">
        <ele>457.27</ele>
        <time>2024-05-28T11:21:37.803Z</time>
      </trkpt>
      <trkpt lat="45.88275798596442" lon="8.719822950661182">
        <ele>456.76</ele>
        <time>2024-05-28T11:21:38.965Z</time>
      </trkpt>
      <trkpt lat="45.88275999762118" lon="8.71979696676135">
        <ele>456.27</ele>
        <time>2024-05-28T11:21:40.127Z</time>
      </trkpt>
      <trkpt lat="45.88275999762118" lon="8.7197529617697">
        <ele>455.8</ele>
        <time>2024-05-28T11:21:41.290Z</time>
      </trkpt>
      <trkpt lat="45.88275999762118" lon="8.71970996260643">
        <ele>455.34</ele>
        <time>2024-05-28T11:21:42.454Z</time>
      </trkpt>
      <trkpt lat="45.88275999762118" lon="8.719674926251173">
        <ele>454.91</ele>
        <time>2024-05-28T11:21:43.619Z</time>
      </trkpt>
      <trkpt lat="45.882754968479276" lon="8.719637962058187">
        <ele>454.49</ele>
        <time>2024-05-28T11:21:44.785Z</time>
      </trkpt>
      <trkpt lat="45.882754968479276" lon="8.71959999203682">
        <ele>454.09</ele>
        <time>2024-05-28T11:21:45.952Z</time>
      </trkpt>
      <trkpt lat="45.882751950994134" lon="8.71956193819642">
        <ele>453.71</ele>
        <time>2024-05-28T11:21:47.120Z</time>
      </trkpt>
      <trkpt lat="45.882751950994134" lon="8.719526985660195">
        <ele>453.35</ele>
        <time>2024-05-28T11:21:48.289Z</time>
      </trkpt>
      <trkpt lat="45.88275798596442" lon="8.719496978446841">
        <ele>453.01</ele>
        <time>2024-05-28T11:21:49.458Z</time>
      </trkpt>
      <trkpt lat="45.882772989571095" lon="8.719472922384739">
        <ele>452.7</ele>
        <time>2024-05-28T11:21:50.628Z</time>
      </trkpt>
      <trkpt lat="45.88279293850064" lon="8.719464959576726">
        <ele>452.41</ele>
        <time>2024-05-28T11:21:51.799Z</time>
      </trkpt>
      <trkpt lat="45.88281196542084" lon="8.719466971233487">
        <ele>452.14</ele>
        <time>2024-05-28T11:21:52.971Z</time>
      </trkpt>
      <trkpt lat="45.88283199816942" lon="8.719477951526642">
        <ele>451.89</ele>
        <time>2024-05-28T11:21:54.143Z</time>
      </trkpt>
      <trkpt lat="45.88284993544221" lon="8.719496978446841">
        <ele>451.67</ele>
        <time>2024-05-28T11:21:55.316Z</time>
      </trkpt>
      <trkpt lat="45.88287298567593" lon="8.719519944861531">
        <ele>451.47</ele>
        <time>2024-05-28T11:21:56.490Z</time>
      </trkpt>
      <trkpt lat="45.88289494626224" lon="8.719539977610111">
        <ele>451.29</ele>
        <time>2024-05-28T11:21:57.665Z</time>
      </trkpt>
      <trkpt lat="45.88291799649596" lon="8.71956193819642">
        <ele>451.14</ele>
        <time>2024-05-28T11:21:58.841Z</time>
      </trkpt>
      <trkpt lat="45.88293995708227" lon="8.719581970945">
        <ele>451.0</ele>
        <time>2024-05-28T11:22:00.018Z</time>
      </trkpt>
      <trkpt lat="45.88296493515372" lon="8.71959999203682">
        <ele>450.89</ele>
        <time>2024-05-28T11:22:01.196Z</time>
      </trkpt>
      <trkpt lat="45.882987985387444" lon="8.719619940966368">
        <ele>450.8</ele>
        <time>2024-05-28T11:22:02.374Z</time>
      </trkpt>
      <trkpt lat="45.88300298899412" lon="8.719639973714948">
        <ele>450.72</ele>
        <time>2024-05-28T11:22:03.553Z</time>
      </trkpt>
      <trkpt lat="45.88301698677242" lon="8.719659922644496">
        <ele>450.67</ele>
        <time>2024-05-28T11:22:04.733Z</time>
      </trkpt>
      <trkpt lat="45.883029978722334" lon="8.719682972878218">
        <ele>450.64</ele>
        <time>2024-05-28T11:22:05.913Z</time>
      </trkpt>
      <trkpt lat="45.88304498232901" lon="8.719702921807766">
        <ele>450.62</ele>
        <time>2024-05-28T11:22:07.094Z</time>
      </trkpt>
      <trkpt lat="45.883074989542365" lon="8.719742987304926">
        <ele>450.63</ele>
        <time>2024-05-28T11:22:08.277Z</time>
      </trkpt>
      <trkpt lat="45.88309292681515" lon="8.719767965376377">
        <ele>450.65</ele>
        <time>2024-05-28T11:22:09.460Z</time>
      </trkpt>
      <trkpt lat="45.88311295956373" lon="8.71979696676135">
        <ele>450.68</ele>
        <time>2024-05-28T11:22:10.644Z</time>
      </trkpt>
      <trkpt lat="45.88312796317041" lon="8.71981498785317">
        <ele>450.73</ele>
        <time>2024-05-28T11:22:11.829Z</time>
      </trkpt>
      <trkpt lat="45.88314497843385" lon="8.71983996592462">
        <ele>450.79</ele>
        <time>2024-05-28T11:22:13.015Z</time>
      </trkpt>
      <trkpt lat="45.88315797038376" lon="8.719869973137975">
        <ele>450.87</ele>
        <time>2024-05-28T11:22:14.202Z</time>
      </trkpt>
      <trkpt lat="45.88317699730396" lon="8.719897968694568">
        <ele>450.96</ele>
        <time>2024-05-28T11:22:15.390Z</time>
      </trkpt>
      <trkpt lat="45.88319292291999" lon="8.719921940937638">
        <ele>451.06</ele>
        <time>2024-05-28T11:22:16.578Z</time>
      </trkpt>
      <trkpt lat="45.88321194984019" lon="8.71994691900909">
        <ele>451.17</ele>
        <time>2024-05-28T11:22:17.767Z</time>
      </trkpt>
      <trkpt lat="45.88323198258877" lon="8.719971980899572">
        <ele>451.29</ele>
        <time>2024-05-28T11:22:18.957Z</time>
      </trkpt>
      <trkpt lat="45.883246986195445" lon="8.719996958971024">
        <ele>451.43</ele>
        <time>2024-05-28T11:22:20.148Z</time>
      </trkpt>
      <trkpt lat="45.883269952610135" lon="8.720022942870855">
        <ele>451.57</ele>
        <time>2024-05-28T11:22:21.340Z</time>
      </trkpt>
      <trkpt lat="45.88328495621681" lon="8.720046998932958">
        <ele>451.73</ele>
        <time>2024-05-28T11:22:22.533Z</time>
      </trkpt>
      <trkpt lat="45.88330498896539" lon="8.72007298283279">
        <ele>451.89</ele>
        <time>2024-05-28T11:22:23.726Z</time>
      </trkpt>
      <trkpt lat="45.88331798091531" lon="8.720099972561002">
        <ele>452.07</ele>
        <time>2024-05-28T11:22:24.920Z</time>
      </trkpt>
      <trkpt lat="45.883332984521985" lon="8.720122938975692">
        <ele>452.25</ele>
        <time>2024-05-28T11:22:26.115Z</time>
      </trkpt>
      <trkpt lat="45.88334999978542" lon="8.720144983381033">
        <ele>452.44</ele>
        <time>2024-05-28T11:22:27.311Z</time>
      </trkpt>
      <trkpt lat="45.88336793705821" lon="8.720171973109245">
        <ele>452.63</ele>
        <time>2024-05-28T11:22:28.508Z</time>
      </trkpt>
      <trkpt lat="45.88338495232165" lon="8.720191922038794">
        <ele>452.83</ele>
        <time>2024-05-28T11:22:29.705Z</time>
      </trkpt>
      <trkpt lat="45.88340297341347" lon="8.720219917595387">
        <ele>453.04</ele>
        <time>2024-05-28T11:22:30.903Z</time>
      </trkpt>
      <trkpt lat="45.883422922343016" lon="8.720239950343966">
        <ele>453.26</ele>
        <time>2024-05-28T11:22:32.102Z</time>
      </trkpt>
      <trkpt lat="45.88343692012131" lon="8.720261994749308">
        <ele>453.48</ele>
        <time>2024-05-28T11:22:33.302Z</time>
      </trkpt>
      <trkpt lat="45.88345192372799" lon="8.720281943678856">
        <ele>453.7</ele>
        <time>2024-05-28T11:22:34.502Z</time>
      </trkpt>
      <trkpt lat="45.88346793316305" lon="8.720304993912578">
        <ele>453.93</ele>
        <time>2024-05-28T11:22:35.703Z</time>
      </trkpt>
      <trkpt lat="45.88348997756839" lon="8.7203349173069">
        <ele>454.17</ele>
        <time>2024-05-28T11:22:36.905Z</time>
      </trkpt>
      <trkpt lat="45.883506992831826" lon="8.720356961712241">
        <ele>454.4</ele>
        <time>2024-05-28T11:22:38.108Z</time>
      </trkpt>
      <trkpt lat="45.883527947589755" lon="8.72039694339037">
        <ele>454.65</ele>
        <time>2024-05-28T11:22:39.312Z</time>
      </trkpt>
      <trkpt lat="45.88354496285319" lon="8.720422927290201">
        <ele>454.89</ele>
        <time>2024-05-28T11:22:40.517Z</time>
      </trkpt>
      <trkpt lat="45.88355996645987" lon="8.720449917018414">
        <ele>455.14</ele>
        <time>2024-05-28T11:22:41.723Z</time>
      </trkpt>
      <trkpt lat="45.88357999920845" lon="8.72050498612225">
        <ele>455.39</ele>
        <time>2024-05-28T11:22:42.930Z</time>
      </trkpt>
      <trkpt lat="45.88359693065286" lon="8.720554942265153">
        <ele>455.64</ele>
        <time>2024-05-28T11:22:44.138Z</time>
      </trkpt>
      <trkpt lat="45.8836049772799" lon="8.720579920336604">
        <ele>455.89</ele>
        <time>2024-05-28T11:22:45.347Z</time>
      </trkpt>
      <trkpt lat="45.88362492620945" lon="8.720627948641777">
        <ele>456.13</ele>
        <time>2024-05-28T11:22:46.557Z</time>
      </trkpt>
      <trkpt lat="45.883634984493256" lon="8.720659967511892">
        <ele>456.37</ele>
        <time>2024-05-28T11:22:47.768Z</time>
      </trkpt>
      <trkpt lat="45.88364697061479" lon="8.720692992210388">
        <ele>456.61</ele>
        <time>2024-05-28T11:22:48.980Z</time>
      </trkpt>
      <trkpt lat="45.88364998809993" lon="8.720721993595362">
        <ele>456.85</ele>
        <time>2024-05-28T11:22:50.193Z</time>
      </trkpt>
      <trkpt lat="45.88366298004985" lon="8.720747977495193">
        <ele>457.08</ele>
        <time>2024-05-28T11:22:51.407Z</time>
      </trkpt>
      <trkpt lat="45.88367295451462" lon="8.720779996365309">
        <ele>457.31</ele>
        <time>2024-05-28T11:22:52.621Z</time>
      </trkpt>
      <trkpt lat="45.88368494063616" lon="8.720806986093521">
        <ele>457.53</ele>
        <time>2024-05-28T11:22:53.836Z</time>
      </trkpt>
      <trkpt lat="45.8836879581213" lon="8.720836993306875">
        <ele>457.75</ele>
        <time>2024-05-28T11:22:55.052Z</time>
      </trkpt>
      <trkpt lat="45.883701955899596" lon="8.720866916701198">
        <ele>457.96</ele>
        <time>2024-05-28T11:22:56.269Z</time>
      </trkpt>
      <trkpt lat="45.88370799086988" lon="8.720894996076822">
        <ele>458.18</ele>
        <time>2024-05-28T11:22:57.486Z</time>
      </trkpt>
      <trkpt lat="45.88371494784951" lon="8.720921985805035">
        <ele>458.39</ele>
        <time>2024-05-28T11:22:58.704Z</time>
      </trkpt>
      <trkpt lat="45.88372299447656" lon="8.720951993018389">
        <ele>458.59</ele>
        <time>2024-05-28T11:22:59.923Z</time>
      </trkpt>
      <trkpt lat="45.88372995145619" lon="8.720979988574982">
        <ele>458.78</ele>
        <time>2024-05-28T11:23:01.142Z</time>
      </trkpt>
      <trkpt lat="45.883742943406105" lon="8.721009995788336">
        <ele>458.97</ele>
        <time>2024-05-28T11:23:02.362Z</time>
      </trkpt>
      <trkpt lat="45.88374998420477" lon="8.721034973859787">
        <ele>459.15</ele>
        <time>2024-05-28T11:23:03.583Z</time>
      </trkpt>
      <trkpt lat="45.883767921477556" lon="8.721079984679818">
        <ele>459.33</ele>
        <time>2024-05-28T11:23:04.805Z</time>
      </trkpt>
      <trkpt lat="45.88378191925585" lon="8.721099933609366">
        <ele>459.49</ele>
        <time>2024-05-28T11:23:06.028Z</time>
      </trkpt>
      <trkpt lat="45.88379994034767" lon="8.721119966357946">
        <ele>459.64</ele>
        <time>2024-05-28T11:23:07.251Z</time>
      </trkpt>
      <trkpt lat="45.88381293229759" lon="8.721142932772636">
        <ele>459.79</ele>
        <time>2024-05-28T11:23:08.475Z</time>
      </trkpt>
      <trkpt lat="45.8838399220258" lon="8.721159948036075">
        <ele>459.92</ele>
        <time>2024-05-28T11:23:09.700Z</time>
      </trkpt>
      <trkpt lat="45.88385794311762" lon="8.721177969127893">
        <ele>460.05</ele>
        <time>2024-05-28T11:23:10.926Z</time>
      </trkpt>
      <trkpt lat="45.8838779758662" lon="8.721197918057442">
        <ele>460.17</ele>
        <time>2024-05-28T11:23:12.153Z</time>
      </trkpt>
      <trkpt lat="45.883892979472876" lon="8.72121493332088">
        <ele>460.29</ele>
        <time>2024-05-28T11:23:13.380Z</time>
      </trkpt>
      <trkpt lat="45.883909994736314" lon="8.721227925270796">
        <ele>460.4</ele>
        <time>2024-05-28T11:23:14.608Z</time>
      </trkpt>
      <trkpt lat="45.8839279320091" lon="8.721239995211363">
        <ele>460.49</ele>
        <time>2024-05-28T11:23:15.837Z</time>
      </trkpt>
      <trkpt lat="45.88394494727254" lon="8.72125793248415">
        <ele>460.59</ele>
        <time>2024-05-28T11:23:17.066Z</time>
      </trkpt>
      <trkpt lat="45.88396992534399" lon="8.72127796523273">
        <ele>460.67</ele>
        <time>2024-05-28T11:23:18.296Z</time>
      </trkpt>
      <trkpt lat="45.88398995809257" lon="8.721292968839407">
        <ele>460.75</ele>
        <time>2024-05-28T11:23:19.527Z</time>
      </trkpt>
      <trkpt lat="45.88400797918439" lon="8.721307972446084">
        <ele>460.82</ele>
        <time>2024-05-28T11:23:20.759Z</time>
      </trkpt>
      <trkpt lat="45.88402792811394" lon="8.721327921375632">
        <ele>460.9</ele>
        <time>2024-05-28T11:23:21.992Z</time>
      </trkpt>
      <trkpt lat="45.884042931720614" lon="8.72134292498231">
        <ele>460.96</ele>
        <time>2024-05-28T11:23:23.225Z</time>
      </trkpt>
      <trkpt lat="45.88405994698405" lon="8.721357928588986">
        <ele>461.02</ele>
        <time>2024-05-28T11:23:24.459Z</time>
      </trkpt>
      <trkpt lat="45.88407997973263" lon="8.721381984651089">
        <ele>461.07</ele>
        <time>2024-05-28T11:23:25.694Z</time>
      </trkpt>
      <trkpt lat="45.88409791700542" lon="8.721397994086146">
        <ele>461.11</ele>
        <time>2024-05-28T11:23:26.929Z</time>
      </trkpt>
      <trkpt lat="45.8841229788959" lon="8.721436969935894">
        <ele>461.16</ele>
        <time>2024-05-28T11:23:28.166Z</time>
      </trkpt>
      <trkpt lat="45.88413999415934" lon="8.721456918865442">
        <ele>461.2</ele>
        <time>2024-05-28T11:23:29.403Z</time>
      </trkpt>
      <trkpt lat="45.88416497223079" lon="8.721477957442403">
        <ele>461.24</ele>
        <time>2024-05-28T11:23:30.641Z</time>
      </trkpt>
      <trkpt lat="45.88418198749423" lon="8.721497990190983">
        <ele>461.27</ele>
        <time>2024-05-28T11:23:31.880Z</time>
      </trkpt>
      <trkpt lat="45.88419799692929" lon="8.72151693329215">
        <ele>461.29</ele>
        <time>2024-05-28T11:23:33.120Z</time>
      </trkpt>
      <trkpt lat="45.884216940030456" lon="8.721532942727208">
        <ele>461.3</ele>
        <time>2024-05-28T11:23:34.361Z</time>
      </trkpt>
      <trkpt lat="45.884236972779036" lon="8.721544928848743">
        <ele>461.31</ele>
        <time>2024-05-28T11:23:35.602Z</time>
      </trkpt>
      <trkpt lat="45.884254993870854" lon="8.721551969647408">
        <ele>461.3</ele>
        <time>2024-05-28T11:23:36.844Z</time>
      </trkpt>
      <trkpt lat="45.884277960285544" lon="8.721552975475788">
        <ele>461.29</ele>
        <time>2024-05-28T11:23:38.087Z</time>
      </trkpt>
      <trkpt lat="45.884296987205744" lon="8.721552975475788">
        <ele>461.26</ele>
        <time>2024-05-28T11:23:39.330Z</time>
      </trkpt>
      <trkpt lat="45.88432498276234" lon="8.721541995182633">
        <ele>461.22</ele>
        <time>2024-05-28T11:23:40.574Z</time>
      </trkpt>
      <trkpt lat="45.884344931691885" lon="8.721544928848743">
        <ele>461.19</ele>
        <time>2024-05-28T11:23:41.819Z</time>
      </trkpt>
      <trkpt lat="45.88436999358237" lon="8.721539983525872">
        <ele>461.16</ele>
        <time>2024-05-28T11:23:43.065Z</time>
      </trkpt>
      <trkpt lat="45.884389942511916" lon="8.721532942727208">
        <ele>461.13</ele>
        <time>2024-05-28T11:23:44.311Z</time>
      </trkpt>
      <trkpt lat="45.88441492058337" lon="8.721521962434053">
        <ele>461.11</ele>
        <time>2024-05-28T11:23:45.558Z</time>
      </trkpt>
      <trkpt lat="45.88443495333195" lon="8.721517939120531">
        <ele>461.09</ele>
        <time>2024-05-28T11:23:46.806Z</time>
      </trkpt>
      <trkpt lat="45.884452974423766" lon="8.721507964655757">
        <ele>461.07</ele>
        <time>2024-05-28T11:23:48.055Z</time>
      </trkpt>
      <trkpt lat="45.88447996415198" lon="8.721497990190983">
        <ele>461.05</ele>
        <time>2024-05-28T11:23:49.305Z</time>
      </trkpt>
      <trkpt lat="45.8844979852438" lon="8.721487931907177">
        <ele>461.04</ele>
        <time>2024-05-28T11:23:50.555Z</time>
      </trkpt>
      <trkpt lat="45.88451994583011" lon="8.721481980755925">
        <ele>461.04</ele>
        <time>2024-05-28T11:23:51.806Z</time>
      </trkpt>
      <trkpt lat="45.88454299606383" lon="8.7214729283005">
        <ele>461.05</ele>
        <time>2024-05-28T11:23:53.058Z</time>
      </trkpt>
      <trkpt lat="45.88456797413528" lon="8.721459936350584">
        <ele>461.06</ele>
        <time>2024-05-28T11:23:54.311Z</time>
      </trkpt>
      <trkpt lat="45.88458792306483" lon="8.721446944400668">
        <ele>461.09</ele>
        <time>2024-05-28T11:23:55.564Z</time>
      </trkpt>
      <trkpt lat="45.88461298495531" lon="8.721436969935894">
        <ele>461.14</ele>
        <time>2024-05-28T11:23:56.818Z</time>
      </trkpt>
      <trkpt lat="45.884647937491536" lon="8.721417943015695">
        <ele>461.19</ele>
        <time>2024-05-28T11:23:58.073Z</time>
      </trkpt>
      <trkpt lat="45.88467995636165" lon="8.721411991864443">
        <ele>461.26</ele>
        <time>2024-05-28T11:23:59.330Z</time>
      </trkpt>
      <trkpt lat="45.88469998911023" lon="8.721412997692823">
        <ele>461.35</ele>
        <time>2024-05-28T11:24:00.587Z</time>
      </trkpt>
      <trkpt lat="45.88472194969654" lon="8.721417943015695">
        <ele>461.45</ele>
        <time>2024-05-28T11:24:01.845Z</time>
      </trkpt>
      <trkpt lat="45.88474499993026" lon="8.72142699547112">
        <ele>461.57</ele>
        <time>2024-05-28T11:24:03.104Z</time>
      </trkpt>
      <trkpt lat="45.88475991971791" lon="8.721437975764275">
        <ele>461.7</ele>
        <time>2024-05-28T11:24:04.363Z</time>
      </trkpt>
      <trkpt lat="45.88478296995163" lon="8.721452979370952">
        <ele>461.86</ele>
        <time>2024-05-28T11:24:05.623Z</time>
      </trkpt>
      <trkpt lat="45.88480199687183" lon="8.72147192247212">
        <ele>462.02</ele>
        <time>2024-05-28T11:24:06.884Z</time>
      </trkpt>
      <trkpt lat="45.88482194580138" lon="8.721486926078796">
        <ele>462.2</ele>
        <time>2024-05-28T11:24:08.146Z</time>
      </trkpt>
      <trkpt lat="45.884839966893196" lon="8.721506958827376">
        <ele>462.39</ele>
        <time>2024-05-28T11:24:09.408Z</time>
      </trkpt>
      <trkpt lat="45.88485295884311" lon="8.721526991575956">
        <ele>462.6</ele>
        <time>2024-05-28T11:24:10.671Z</time>
      </trkpt>
      <trkpt lat="45.88487299159169" lon="8.721571918576956">
        <ele>462.83</ele>
        <time>2024-05-28T11:24:11.935Z</time>
      </trkpt>
      <trkpt lat="45.88489193469286" lon="8.721616929396987">
        <ele>463.07</ele>
        <time>2024-05-28T11:24:13.201Z</time>
      </trkpt>
      <trkpt lat="45.88489796966314" lon="8.721639979630709">
        <ele>463.32</ele>
        <time>2024-05-28T11:24:14.467Z</time>
      </trkpt>
      <trkpt lat="45.884904926642776" lon="8.721671998500824">
        <ele>463.59</ele>
        <time>2024-05-28T11:24:15.734Z</time>
      </trkpt>
      <trkpt lat="45.88491498492658" lon="8.721696976572275">
        <ele>463.88</ele>
        <time>2024-05-28T11:24:17.002Z</time>
      </trkpt>
      <trkpt lat="45.88492998853326" lon="8.72174995020032">
        <ele>464.18</ele>
        <time>2024-05-28T11:24:18.271Z</time>
      </trkpt>
      <trkpt lat="45.88493292219937" lon="8.721776939928532">
        <ele>464.49</ele>
        <time>2024-05-28T11:24:19.541Z</time>
      </trkpt>
      <trkpt lat="45.884942980483174" lon="8.72181499376893">
        <ele>464.82</ele>
        <time>2024-05-28T11:24:20.811Z</time>
      </trkpt>
      <trkpt lat="45.884942980483174" lon="8.721842989325523">
        <ele>465.16</ele>
        <time>2024-05-28T11:24:22.082Z</time>
      </trkpt>
      <trkpt lat="45.884946919977665" lon="8.721869979053736">
        <ele>465.51</ele>
        <time>2024-05-28T11:24:23.354Z</time>
      </trkpt>
      <trkpt lat="45.884942980483174" lon="8.721904931589961">
        <ele>465.88</ele>
        <time>2024-05-28T11:24:24.627Z</time>
      </trkpt>
      <trkpt lat="45.884942980483174" lon="8.721934938803315">
        <ele>466.26</ele>
        <time>2024-05-28T11:24:25.900Z</time>
      </trkpt>
      <trkpt lat="45.884942980483174" lon="8.721972992643714">
        <ele>466.66</ele>
        <time>2024-05-28T11:24:27.174Z</time>
      </trkpt>
      <trkpt lat="45.884942980483174" lon="8.721999982371926">
        <ele>467.06</ele>
        <time>2024-05-28T11:24:28.449Z</time>
      </trkpt>
      <trkpt lat="45.884942980483174" lon="8.722026972100139">
        <ele>467.47</ele>
        <time>2024-05-28T11:24:29.724Z</time>
      </trkpt>
      <trkpt lat="45.884942980483174" lon="8.72207298874855">
        <ele>467.9</ele>
        <time>2024-05-28T11:24:31.001Z</time>
      </trkpt>
      <trkpt lat="45.884946919977665" lon="8.722101990133524">
        <ele>468.33</ele>
        <time>2024-05-28T11:24:32.278Z</time>
      </trkpt>
      <trkpt lat="45.88495697826147" lon="8.722151946276426">
        <ele>468.78</ele>
        <time>2024-05-28T11:24:33.556Z</time>
      </trkpt>
      <trkpt lat="45.88495999574661" lon="8.722192933782935">
        <ele>469.24</ele>
        <time>2024-05-28T11:24:34.835Z</time>
      </trkpt>
      <trkpt lat="45.88495999574661" lon="8.722219923511147">
        <ele>469.71</ele>
        <time>2024-05-28T11:24:36.115Z</time>
      </trkpt>
      <trkpt lat="45.88496192358434" lon="8.722246997058392">
        <ele>470.18</ele>
        <time>2024-05-28T11:24:37.396Z</time>
      </trkpt>
      <trkpt lat="45.88497198186815" lon="8.722279937937856">
        <ele>470.66</ele>
        <time>2024-05-28T11:24:38.677Z</time>
      </trkpt>
      <trkpt lat="45.884984973818064" lon="8.722301982343197">
        <ele>471.15</ele>
        <time>2024-05-28T11:24:39.959Z</time>
      </trkpt>
      <trkpt lat="45.88499796576798" lon="8.722339952364564">
        <ele>471.64</ele>
        <time>2024-05-28T11:24:41.242Z</time>
      </trkpt>
      <trkpt lat="45.885009951889515" lon="8.722364930436015">
        <ele>472.14</ele>
        <time>2024-05-28T11:24:42.526Z</time>
      </trkpt>
      <trkpt lat="45.88501699268818" lon="8.722391920164227">
        <ele>472.64</ele>
        <time>2024-05-28T11:24:43.810Z</time>
      </trkpt>
      <trkpt lat="45.88503694161773" lon="8.722429974004626">
        <ele>473.15</ele>
        <time>2024-05-28T11:24:45.096Z</time>
      </trkpt>
      <trkpt lat="45.885051945224404" lon="8.722462998703122">
        <ele>473.66</ele>
        <time>2024-05-28T11:24:46.383Z</time>
      </trkpt>
      <trkpt lat="45.88506493717432" lon="8.722491916269064">
        <ele>474.18</ele>
        <time>2024-05-28T11:24:47.670Z</time>
      </trkpt>
      <trkpt lat="45.885079940781" lon="8.722519995644689">
        <ele>474.69</ele>
        <time>2024-05-28T11:24:48.958Z</time>
      </trkpt>
      <trkpt lat="45.885096956044436" lon="8.722549919039011">
        <ele>475.2</ele>
        <time>2024-05-28T11:24:50.247Z</time>
      </trkpt>
      <trkpt lat="45.88510299101472" lon="8.722577998414636">
        <ele>475.72</ele>
        <time>2024-05-28T11:24:51.537Z</time>
      </trkpt>
      <trkpt lat="45.88511296547949" lon="8.722601970657706">
        <ele>476.24</ele>
        <time>2024-05-28T11:24:52.827Z</time>
      </trkpt>
      <trkpt lat="45.885116988793015" lon="8.722627954557538">
        <ele>476.75</ele>
        <time>2024-05-28T11:24:54.118Z</time>
      </trkpt>
      <trkpt lat="45.885119922459126" lon="8.722657961770892">
        <ele>477.27</ele>
        <time>2024-05-28T11:24:55.410Z</time>
      </trkpt>
      <trkpt lat="45.88512796908617" lon="8.722682939842343">
        <ele>477.78</ele>
        <time>2024-05-28T11:24:56.702Z</time>
      </trkpt>
      <trkpt lat="45.8851349260658" lon="8.722712947055697">
        <ele>478.28</ele>
        <time>2024-05-28T11:24:57.995Z</time>
      </trkpt>
      <trkpt lat="45.88515194132924" lon="8.722742954269052">
        <ele>478.77</ele>
        <time>2024-05-28T11:24:59.289Z</time>
      </trkpt>
      <trkpt lat="45.88516996242106" lon="8.722771955654025">
        <ele>479.26</ele>
        <time>2024-05-28T11:25:00.584Z</time>
      </trkpt>
      <trkpt lat="45.885182954370975" lon="8.722799951210618">
        <ele>479.73</ele>
        <time>2024-05-28T11:25:01.880Z</time>
      </trkpt>
      <trkpt lat="45.885201981291175" lon="8.722837921231985">
        <ele>480.21</ele>
        <time>2024-05-28T11:25:03.177Z</time>
      </trkpt>
      <trkpt lat="45.88521195575595" lon="8.72286792844534">
        <ele>480.67</ele>
        <time>2024-05-28T11:25:04.475Z</time>
      </trkpt>
      <trkpt lat="45.88521799072623" lon="8.722902964800596">
        <ele>481.13</ele>
        <time>2024-05-28T11:25:05.773Z</time>
      </trkpt>
      <trkpt lat="45.88523492217064" lon="8.72293297201395">
        <ele>481.56</ele>
        <time>2024-05-28T11:25:07.072Z</time>
      </trkpt>
      <trkpt lat="45.88525294326246" lon="8.722959961742163">
        <ele>481.98</ele>
        <time>2024-05-28T11:25:08.372Z</time>
      </trkpt>
      <trkpt lat="45.885269958525896" lon="8.722986951470375">
        <ele>482.39</ele>
        <time>2024-05-28T11:25:09.673Z</time>
      </trkpt>
      <trkpt lat="45.88527993299067" lon="8.723011929541826">
        <ele>482.79</ele>
        <time>2024-05-28T11:25:10.975Z</time>
      </trkpt>
      <trkpt lat="45.88530197739601" lon="8.72303992509842">
        <ele>483.16</ele>
        <time>2024-05-28T11:25:12.278Z</time>
      </trkpt>
      <trkpt lat="45.88531798683107" lon="8.723059957847">
        <ele>483.52</ele>
        <time>2024-05-28T11:25:13.581Z</time>
      </trkpt>
      <trkpt lat="45.88533994741738" lon="8.723091976717114">
        <ele>483.86</ele>
        <time>2024-05-28T11:25:14.885Z</time>
      </trkpt>
      <trkpt lat="45.88535998016596" lon="8.723116954788566">
        <ele>484.19</ele>
        <time>2024-05-28T11:25:16.190Z</time>
      </trkpt>
      <trkpt lat="45.885371966287494" lon="8.723144950345159">
        <ele>484.5</ele>
        <time>2024-05-28T11:25:17.496Z</time>
      </trkpt>
      <trkpt lat="45.885377917438745" lon="8.723174957558513">
        <ele>484.8</ele>
        <time>2024-05-28T11:25:18.803Z</time>
      </trkpt>
      <trkpt lat="45.885394932702184" lon="8.72320999391377">
        <ele>485.08</ele>
        <time>2024-05-28T11:25:20.111Z</time>
      </trkpt>
      <trkpt lat="45.88539996184409" lon="8.723242934793234">
        <ele>485.35</ele>
        <time>2024-05-28T11:25:21.420Z</time>
      </trkpt>
      <trkpt lat="45.88540691882372" lon="8.723269924521446">
        <ele>485.59</ele>
        <time>2024-05-28T11:25:22.729Z</time>
      </trkpt>
      <trkpt lat="45.885416977107525" lon="8.723301943391562">
        <ele>485.81</ele>
        <time>2024-05-28T11:25:24.039Z</time>
      </trkpt>
      <trkpt lat="45.88541999459267" lon="8.723327927291393">
        <ele>486.01</ele>
        <time>2024-05-28T11:25:25.350Z</time>
      </trkpt>
      <trkpt lat="45.88541999459267" lon="8.723364975303411">
        <ele>486.2</ele>
        <time>2024-05-28T11:25:26.662Z</time>
      </trkpt>
      <trkpt lat="45.88543692603707" lon="8.723401939496398">
        <ele>486.35</ele>
        <time>2024-05-28T11:25:27.975Z</time>
      </trkpt>
      <trkpt lat="45.88545192964375" lon="8.723434964194894">
        <ele>486.46</ele>
        <time>2024-05-28T11:25:29.288Z</time>
      </trkpt>
      <trkpt lat="45.88547497987747" lon="8.72347192838788">
        <ele>486.55</ele>
        <time>2024-05-28T11:25:30.603Z</time>
      </trkpt>
      <trkpt lat="45.88549694046378" lon="8.723506964743137">
        <ele>486.62</ele>
        <time>2024-05-28T11:25:31.919Z</time>
      </trkpt>
      <trkpt lat="45.88551294989884" lon="8.723519956693053">
        <ele>486.66</ele>
        <time>2024-05-28T11:25:33.235Z</time>
      </trkpt>
      <trkpt lat="45.88554195128381" lon="8.723537977784872">
        <ele>486.66</ele>
        <time>2024-05-28T11:25:34.552Z</time>
      </trkpt>
      <trkpt lat="45.88555796071887" lon="8.723552981391549">
        <ele>486.65</ele>
        <time>2024-05-28T11:25:35.870Z</time>
      </trkpt>
      <trkpt lat="45.88557296432555" lon="8.723567984998226">
        <ele>486.63</ele>
        <time>2024-05-28T11:25:37.189Z</time>
      </trkpt>
      <trkpt lat="45.885589979588985" lon="8.723579971119761">
        <ele>486.57</ele>
        <time>2024-05-28T11:25:38.508Z</time>
      </trkpt>
      <trkpt lat="45.885611940175295" lon="8.723592963069677">
        <ele>486.5</ele>
        <time>2024-05-28T11:25:39.828Z</time>
      </trkpt>
      <trkpt lat="45.885631972923875" lon="8.723606960847974">
        <ele>486.41</ele>
        <time>2024-05-28T11:25:41.149Z</time>
      </trkpt>
      <trkpt lat="45.885649994015694" lon="8.72361995279789">
        <ele>486.3</ele>
        <time>2024-05-28T11:25:42.470Z</time>
      </trkpt>
      <trkpt lat="45.88566994294524" lon="8.723626993596554">
        <ele>486.17</ele>
        <time>2024-05-28T11:25:43.792Z</time>
      </trkpt>
      <trkpt lat="45.88570799678564" lon="8.72364199720323">
        <ele>486.0</ele>
        <time>2024-05-28T11:25:45.115Z</time>
      </trkpt>
      <trkpt lat="45.885736998170614" lon="8.723651971668005">
        <ele>485.83</ele>
        <time>2024-05-28T11:25:46.439Z</time>
      </trkpt>
      <trkpt lat="45.88577195070684" lon="8.723657922819257">
        <ele>485.64</ele>
        <time>2024-05-28T11:25:47.765Z</time>
      </trkpt>
      <trkpt lat="45.88579198345542" lon="8.723671920597553">
        <ele>485.46</ele>
        <time>2024-05-28T11:25:49.091Z</time>
      </trkpt>
      <trkpt lat="45.88580992072821" lon="8.72368692420423">
        <ele>485.27</ele>
        <time>2024-05-28T11:25:50.418Z</time>
      </trkpt>
      <trkpt lat="45.88583297096193" lon="8.72370494529605">
        <ele>485.07</ele>
        <time>2024-05-28T11:25:51.746Z</time>
      </trkpt>
      <trkpt lat="45.885847974568605" lon="8.723719948902726">
        <ele>484.87</ele>
        <time>2024-05-28T11:25:53.075Z</time>
      </trkpt>
      <trkpt lat="45.885867923498154" lon="8.723741993308067">
        <ele>484.67</ele>
        <time>2024-05-28T11:25:54.404Z</time>
      </trkpt>
      <trkpt lat="45.88589298538864" lon="8.72377191670239">
        <ele>484.46</ele>
        <time>2024-05-28T11:25:55.734Z</time>
      </trkpt>
      <trkpt lat="45.88590991683304" lon="8.723797984421253">
        <ele>484.26</ele>
        <time>2024-05-28T11:25:57.065Z</time>
      </trkpt>
      <trkpt lat="45.885934978723526" lon="8.723817933350801">
        <ele>484.04</ele>
        <time>2024-05-28T11:25:58.397Z</time>
      </trkpt>
      <trkpt lat="45.885957945138216" lon="8.723839977756143">
        <ele>483.82</ele>
        <time>2024-05-28T11:25:59.730Z</time>
      </trkpt>
      <trkpt lat="45.88598694652319" lon="8.72385992668569">
        <ele>483.6</ele>
        <time>2024-05-28T11:26:01.064Z</time>
      </trkpt>
      <trkpt lat="45.88601192459464" lon="8.72387794777751">
        <ele>483.38</ele>
        <time>2024-05-28T11:26:02.399Z</time>
      </trkpt>
      <trkpt lat="45.8860279340297" lon="8.723891945555806">
        <ele>483.18</ele>
        <time>2024-05-28T11:26:03.735Z</time>
      </trkpt>
      <trkpt lat="45.886042937636375" lon="8.723909966647625">
        <ele>482.98</ele>
        <time>2024-05-28T11:26:05.071Z</time>
      </trkpt>
      <trkpt lat="45.88606992736459" lon="8.723929999396205">
        <ele>482.78</ele>
        <time>2024-05-28T11:26:06.408Z</time>
      </trkpt>
      <trkpt lat="45.88608794845641" lon="8.723947936668992">
        <ele>482.6</ele>
        <time>2024-05-28T11:26:07.746Z</time>
      </trkpt>
      <trkpt lat="45.88611192069948" lon="8.723967969417572">
        <ele>482.42</ele>
        <time>2024-05-28T11:26:09.085Z</time>
      </trkpt>
      <trkpt lat="45.886129941791296" lon="8.723982973024249">
        <ele>482.26</ele>
        <time>2024-05-28T11:26:10.425Z</time>
      </trkpt>
      <trkpt lat="45.886149974539876" lon="8.724002921953797">
        <ele>482.11</ele>
        <time>2024-05-28T11:26:11.766Z</time>
      </trkpt>
      <trkpt lat="45.886171935126185" lon="8.724022954702377">
        <ele>481.98</ele>
        <time>2024-05-28T11:26:13.108Z</time>
      </trkpt>
      <trkpt lat="45.88619498535991" lon="8.724041981622577">
        <ele>481.85</ele>
        <time>2024-05-28T11:26:14.450Z</time>
      </trkpt>
      <trkpt lat="45.88621694594622" lon="8.724059918895364">
        <ele>481.75</ele>
        <time>2024-05-28T11:26:15.793Z</time>
      </trkpt>
      <trkpt lat="45.886232955381274" lon="8.724072994664311">
        <ele>481.65</ele>
        <time>2024-05-28T11:26:17.137Z</time>
      </trkpt>
      <trkpt lat="45.886254999786615" lon="8.72409495525062">
        <ele>481.58</ele>
        <time>2024-05-28T11:26:18.482Z</time>
      </trkpt>
      <trkpt lat="45.88627193123102" lon="8.72411297634244">
        <ele>481.52</ele>
        <time>2024-05-28T11:26:19.827Z</time>
      </trkpt>
      <trkpt lat="45.88628995232284" lon="8.724127979949117">
        <ele>481.48</ele>
        <time>2024-05-28T11:26:21.173Z</time>
      </trkpt>
      <trkpt lat="45.88630696758628" lon="8.724146923050284">
        <ele>481.47</ele>
        <time>2024-05-28T11:26:22.520Z</time>
      </trkpt>
      <trkpt lat="45.886321971192956" lon="8.724166955798864">
        <ele>481.47</ele>
        <time>2024-05-28T11:26:23.868Z</time>
      </trkpt>
      <trkpt lat="45.886341920122504" lon="8.724196963012218">
        <ele>481.51</ele>
        <time>2024-05-28T11:26:25.217Z</time>
      </trkpt>
      <trkpt lat="45.88635499589145" lon="8.724219929426908">
        <ele>481.56</ele>
        <time>2024-05-28T11:26:26.566Z</time>
      </trkpt>
      <trkpt lat="45.88636698201299" lon="8.72424197383225">
        <ele>481.63</ele>
        <time>2024-05-28T11:26:27.916Z</time>
      </trkpt>
      <trkpt lat="45.886382991448045" lon="8.724271981045604">
        <ele>481.73</ele>
        <time>2024-05-28T11:26:29.267Z</time>
      </trkpt>
      <trkpt lat="45.88639296591282" lon="8.724299976602197">
        <ele>481.85</ele>
        <time>2024-05-28T11:26:30.618Z</time>
      </trkpt>
      <trkpt lat="45.886407969519496" lon="8.724326966330409">
        <ele>481.99</ele>
        <time>2024-05-28T11:26:31.970Z</time>
      </trkpt>
      <trkpt lat="45.88642196729779" lon="8.724359991028905">
        <ele>482.15</ele>
        <time>2024-05-28T11:26:33.323Z</time>
      </trkpt>
      <trkpt lat="45.88644292205572" lon="8.724417993798852">
        <ele>482.35</ele>
        <time>2024-05-28T11:26:34.678Z</time>
      </trkpt>
      <trkpt lat="45.88645298033953" lon="8.724446995183825">
        <ele>482.55</ele>
        <time>2024-05-28T11:26:36.033Z</time>
      </trkpt>
      <trkpt lat="45.8864629548043" lon="8.72447993606329">
        <ele>482.77</ele>
        <time>2024-05-28T11:26:37.389Z</time>
      </trkpt>
      <trkpt lat="45.886472929269075" lon="8.724511954933405">
        <ele>483.01</ele>
        <time>2024-05-28T11:26:38.746Z</time>
      </trkpt>
      <trkpt lat="45.88648499920964" lon="8.724541962146759">
        <ele>483.27</ele>
        <time>2024-05-28T11:26:40.104Z</time>
      </trkpt>
      <trkpt lat="45.88649497367442" lon="8.724574986845255">
        <ele>483.54</ele>
        <time>2024-05-28T11:26:41.463Z</time>
      </trkpt>
      <trkpt lat="45.88650796562433" lon="8.724602982401848">
        <ele>483.82</ele>
        <time>2024-05-28T11:26:42.823Z</time>
      </trkpt>
      <trkpt lat="45.886514922603965" lon="8.724636929109693">
        <ele>484.13</ele>
        <time>2024-05-28T11:26:44.183Z</time>
      </trkpt>
      <trkpt lat="45.88652992621064" lon="8.724659979343414">
        <ele>484.43</ele>
        <time>2024-05-28T11:26:45.544Z</time>
      </trkpt>
      <trkpt lat="45.88654694147408" lon="8.724684957414865">
        <ele>484.74</ele>
        <time>2024-05-28T11:26:46.906Z</time>
      </trkpt>
      <trkpt lat="45.8865649625659" lon="8.724719993770123">
        <ele>485.08</ele>
        <time>2024-05-28T11:26:48.269Z</time>
      </trkpt>
      <trkpt lat="45.88658499531448" lon="8.724762992933393">
        <ele>485.42</ele>
        <time>2024-05-28T11:26:49.633Z</time>
      </trkpt>
      <trkpt lat="45.886599998921156" lon="8.724784953519702">
        <ele>485.77</ele>
        <time>2024-05-28T11:26:50.998Z</time>
      </trkpt>
      <trkpt lat="45.88661299087107" lon="8.724809931591153">
        <ele>486.13</ele>
        <time>2024-05-28T11:26:52.364Z</time>
      </trkpt>
      <trkpt lat="45.88663293980062" lon="8.724837927147746">
        <ele>486.5</ele>
        <time>2024-05-28T11:26:53.730Z</time>
      </trkpt>
      <trkpt lat="45.8866479434073" lon="8.724861983209848">
        <ele>486.88</ele>
        <time>2024-05-28T11:26:55.097Z</time>
      </trkpt>
      <trkpt lat="45.88665791787207" lon="8.7248869612813">
        <ele>487.27</ele>
        <time>2024-05-28T11:26:56.465Z</time>
      </trkpt>
      <trkpt lat="45.886664958670735" lon="8.724912945181131">
        <ele>487.67</ele>
        <time>2024-05-28T11:26:57.834Z</time>
      </trkpt>
      <trkpt lat="45.8866719994694" lon="8.724946975708008">
        <ele>488.09</ele>
        <time>2024-05-28T11:26:59.203Z</time>
      </trkpt>
      <trkpt lat="45.886686919257045" lon="8.725007995963097">
        <ele>488.51</ele>
        <time>2024-05-28T11:27:00.574Z</time>
      </trkpt>
      <trkpt lat="45.88668993674219" lon="8.725041942670941">
        <ele>488.93</ele>
        <time>2024-05-28T11:27:01.946Z</time>
      </trkpt>
      <trkpt lat="45.88669999502599" lon="8.725072955712676">
        <ele>489.33</ele>
        <time>2024-05-28T11:27:03.318Z</time>
      </trkpt>
      <trkpt lat="45.8867029286921" lon="8.72510195709765">
        <ele>489.74</ele>
        <time>2024-05-28T11:27:04.691Z</time>
      </trkpt>
      <trkpt lat="45.8867029286921" lon="8.725136993452907">
        <ele>490.15</ele>
        <time>2024-05-28T11:27:06.065Z</time>
      </trkpt>
      <trkpt lat="45.886706952005625" lon="8.725179992616177">
        <ele>490.56</ele>
        <time>2024-05-28T11:27:07.440Z</time>
      </trkpt>
      <trkpt lat="45.88670996949077" lon="8.72521192766726">
        <ele>490.96</ele>
        <time>2024-05-28T11:27:08.816Z</time>
      </trkpt>
      <trkpt lat="45.88670996949077" lon="8.725239923223853">
        <ele>491.35</ele>
        <time>2024-05-28T11:27:10.192Z</time>
      </trkpt>
      <trkpt lat="45.88670996949077" lon="8.72529692016542">
        <ele>491.75</ele>
        <time>2024-05-28T11:27:11.570Z</time>
      </trkpt>
      <trkpt lat="45.88670996949077" lon="8.72533698566258">
        <ele>492.14</ele>
        <time>2024-05-28T11:27:12.949Z</time>
      </trkpt>
      <trkpt lat="45.88670996949077" lon="8.725364981219172">
        <ele>492.51</ele>
        <time>2024-05-28T11:27:14.328Z</time>
      </trkpt>
      <trkpt lat="45.88670996949077" lon="8.72540295124054">
        <ele>492.88</ele>
        <time>2024-05-28T11:27:15.708Z</time>
      </trkpt>
      <trkpt lat="45.88670996949077" lon="8.725429940968752">
        <ele>493.22</ele>
        <time>2024-05-28T11:27:17.089Z</time>
      </trkpt>
      <trkpt lat="45.886706952005625" lon="8.725462965667248">
        <ele>493.56</ele>
        <time>2024-05-28T11:27:18.471Z</time>
      </trkpt>
      <trkpt lat="45.886706952005625" lon="8.725494984537363">
        <ele>493.89</ele>
        <time>2024-05-28T11:27:19.853Z</time>
      </trkpt>
      <trkpt lat="45.886706952005625" lon="8.725534966215491">
        <ele>494.2</ele>
        <time>2024-05-28T11:27:21.236Z</time>
      </trkpt>
      <trkpt lat="45.886706952005625" lon="8.725567990913987">
        <ele>494.49</ele>
        <time>2024-05-28T11:27:22.620Z</time>
      </trkpt>
      <trkpt lat="45.886706952005625" lon="8.725601937621832">
        <ele>494.77</ele>
        <time>2024-05-28T11:27:24.005Z</time>
      </trkpt>
      <trkpt lat="45.8867029286921" lon="8.725632950663567">
        <ele>495.03</ele>
        <time>2024-05-28T11:27:25.391Z</time>
      </trkpt>
      <trkpt lat="45.8867029286921" lon="8.72566195204854">
        <ele>495.26</ele>
        <time>2024-05-28T11:27:26.777Z</time>
      </trkpt>
      <trkpt lat="45.8867029286921" lon="8.725699922069907">
        <ele>495.48</ele>
        <time>2024-05-28T11:27:28.164Z</time>
      </trkpt>
      <trkpt lat="45.8867029286921" lon="8.725731940940022">
        <ele>495.68</ele>
        <time>2024-05-28T11:27:29.552Z</time>
      </trkpt>
      <trkpt lat="45.8867029286921" lon="8.725759936496615">
        <ele>495.86</ele>
        <time>2024-05-28T11:27:30.941Z</time>
      </trkpt>
      <trkpt lat="45.886706952005625" lon="8.72579195536673">
        <ele>496.02</ele>
        <time>2024-05-28T11:27:32.330Z</time>
      </trkpt>
      <trkpt lat="45.88671994395554" lon="8.725844928994775">
        <ele>496.15</ele>
        <time>2024-05-28T11:27:33.721Z</time>
      </trkpt>
      <trkpt lat="45.886724973097444" lon="8.725871918722987">
        <ele>496.27</ele>
        <time>2024-05-28T11:27:35.112Z</time>
      </trkpt>
      <trkpt lat="45.886731930077076" lon="8.725899998098612">
        <ele>496.37</ele>
        <time>2024-05-28T11:27:36.504Z</time>
      </trkpt>
      <trkpt lat="45.88674492202699" lon="8.725926987826824">
        <ele>496.43</ele>
        <time>2024-05-28T11:27:37.897Z</time>
      </trkpt>
      <trkpt lat="45.88675799779594" lon="8.725951965898275">
        <ele>496.47</ele>
        <time>2024-05-28T11:27:39.290Z</time>
      </trkpt>
      <trkpt lat="45.886769983917475" lon="8.725984990596771">
        <ele>496.5</ele>
        <time>2024-05-28T11:27:40.684Z</time>
      </trkpt>
      <trkpt lat="45.88677995838225" lon="8.726011980324984">
        <ele>496.53</ele>
        <time>2024-05-28T11:27:42.079Z</time>
      </trkpt>
      <trkpt lat="45.886792950332165" lon="8.726042993366718">
        <ele>496.53</ele>
        <time>2024-05-28T11:27:43.475Z</time>
      </trkpt>
      <trkpt lat="45.8868049364537" lon="8.72606998309493">
        <ele>496.53</ele>
        <time>2024-05-28T11:27:44.872Z</time>
      </trkpt>
      <trkpt lat="45.886817928403616" lon="8.726089932024479">
        <ele>496.51</ele>
        <time>2024-05-28T11:27:46.269Z</time>
      </trkpt>
      <trkpt lat="45.88682798668742" lon="8.726114993914962">
        <ele>496.47</ele>
        <time>2024-05-28T11:27:47.667Z</time>
      </trkpt>
      <trkpt lat="45.88683997280896" lon="8.726137960329652">
        <ele>496.43</ele>
        <time>2024-05-28T11:27:49.066Z</time>
      </trkpt>
      <trkpt lat="45.886859921738505" lon="8.726181965321302">
        <ele>496.38</ele>
        <time>2024-05-28T11:27:50.466Z</time>
      </trkpt>
      <trkpt lat="45.886879954487085" lon="8.726207949221134">
        <ele>496.32</ele>
        <time>2024-05-28T11:27:51.867Z</time>
      </trkpt>
      <trkpt lat="45.88689194060862" lon="8.726234938949347">
        <ele>496.25</ele>
        <time>2024-05-28T11:27:53.268Z</time>
      </trkpt>
      <trkpt lat="45.8869119733572" lon="8.72626293450594">
        <ele>496.18</ele>
        <time>2024-05-28T11:27:54.670Z</time>
      </trkpt>
      <trkpt lat="45.88692999444902" lon="8.726287996396422">
        <ele>496.1</ele>
        <time>2024-05-28T11:27:56.073Z</time>
      </trkpt>
      <trkpt lat="45.88694994337857" lon="8.72630794532597">
        <ele>496.02</ele>
        <time>2024-05-28T11:27:57.477Z</time>
      </trkpt>
      <trkpt lat="45.88696796447039" lon="8.726322948932648">
        <ele>495.93</ele>
        <time>2024-05-28T11:27:58.882Z</time>
      </trkpt>
      <trkpt lat="45.88698799721897" lon="8.726341975852847">
        <ele>495.84</ele>
        <time>2024-05-28T11:28:00.288Z</time>
      </trkpt>
      <trkpt lat="45.88700291700661" lon="8.726357985287905">
        <ele>495.75</ele>
        <time>2024-05-28T11:28:01.694Z</time>
      </trkpt>
      <trkpt lat="45.88702294975519" lon="8.726371983066201">
        <ele>495.66</ele>
        <time>2024-05-28T11:28:03.101Z</time>
      </trkpt>
      <trkpt lat="45.88706192560494" lon="8.726379945874214">
        <ele>495.57</ele>
        <time>2024-05-28T11:28:04.509Z</time>
      </trkpt>
      <trkpt lat="45.88707994669676" lon="8.726362930610776">
        <ele>495.49</ele>
        <time>2024-05-28T11:28:05.918Z</time>
      </trkpt>
      <trkpt lat="45.88710995391011" lon="8.726341975852847">
        <ele>495.42</ele>
        <time>2024-05-28T11:28:07.328Z</time>
      </trkpt>
      <trkpt lat="45.88712797500193" lon="8.726336946710944">
        <ele>495.36</ele>
        <time>2024-05-28T11:28:08.739Z</time>
      </trkpt>
      <trkpt lat="45.88715999387205" lon="8.726299982517958">
        <ele>495.3</ele>
        <time>2024-05-28T11:28:10.151Z</time>
      </trkpt>
      <trkpt lat="45.88717692531645" lon="8.726281961426139">
        <ele>495.25</ele>
        <time>2024-05-28T11:28:11.564Z</time>
      </trkpt>
      <trkpt lat="45.887201987206936" lon="8.726252960041165">
        <ele>495.21</ele>
        <time>2024-05-28T11:28:12.978Z</time>
      </trkpt>
      <trkpt lat="45.8872349280864" lon="8.726234938949347">
        <ele>495.18</ele>
        <time>2024-05-28T11:28:14.393Z</time>
      </trkpt>
      <trkpt lat="45.88726292364299" lon="8.726217923685908">
        <ele>495.16</ele>
        <time>2024-05-28T11:28:15.809Z</time>
      </trkpt>
      <trkpt lat="45.88728195056319" lon="8.726207949221134">
        <ele>495.17</ele>
        <time>2024-05-28T11:28:17.226Z</time>
      </trkpt>
      <trkpt lat="45.887307934463024" lon="8.726199986413121">
        <ele>495.18</ele>
        <time>2024-05-28T11:28:18.644Z</time>
      </trkpt>
      <trkpt lat="45.88732696138322" lon="8.726187916472554">
        <ele>495.21</ele>
        <time>2024-05-28T11:28:20.062Z</time>
      </trkpt>
      <trkpt lat="45.88735998608172" lon="8.726172996684909">
        <ele>495.27</ele>
        <time>2024-05-28T11:28:21.481Z</time>
      </trkpt>
      <trkpt lat="45.88738496415317" lon="8.726159920915961">
        <ele>495.34</ele>
        <time>2024-05-28T11:28:22.901Z</time>
      </trkpt>
      <trkpt lat="45.887419916689396" lon="8.726147934794426">
        <ele>495.44</ele>
        <time>2024-05-28T11:28:24.322Z</time>
      </trkpt>
      <trkpt lat="45.88744497857988" lon="8.726132931187749">
        <ele>495.55</ele>
        <time>2024-05-28T11:28:25.744Z</time>
      </trkpt>
      <trkpt lat="45.887457970529795" lon="8.726096972823143">
        <ele>495.66</ele>
        <time>2024-05-28T11:28:27.167Z</time>
      </trkpt>
      <trkpt lat="45.88747498579323" lon="8.726059924811125">
        <ele>495.8</ele>
        <time>2024-05-28T11:28:28.591Z</time>
      </trkpt>
      <trkpt lat="45.88748697191477" lon="8.726039975881577">
        <ele>495.96</ele>
        <time>2024-05-28T11:28:30.016Z</time>
      </trkpt>
      <trkpt lat="45.88750692084432" lon="8.726022960618138">
        <ele>496.15</ele>
        <time>2024-05-28T11:28:31.442Z</time>
      </trkpt>
      <trkpt lat="45.88753793388605" lon="8.725999994203448">
        <ele>496.36</ele>
        <time>2024-05-28T11:28:32.869Z</time>
      </trkpt>
      <trkpt lat="45.88755796663463" lon="8.726009968668222">
        <ele>496.59</ele>
        <time>2024-05-28T11:28:34.297Z</time>
      </trkpt>
      <trkpt lat="45.88757297024131" lon="8.72602991759777">
        <ele>496.84</ele>
        <time>2024-05-28T11:28:35.725Z</time>
      </trkpt>
      <trkpt lat="45.88758294470608" lon="8.72606998309493">
        <ele>497.11</ele>
        <time>2024-05-28T11:28:37.154Z</time>
      </trkpt>
      <trkpt lat="45.88759291917086" lon="8.72609294950962">
        <ele>497.4</ele>
        <time>2024-05-28T11:28:38.584Z</time>
      </trkpt>
      <trkpt lat="45.887611946091056" lon="8.7261129822582">
        <ele>497.71</ele>
        <time>2024-05-28T11:28:40.015Z</time>
      </trkpt>
      <trkpt lat="45.88762192055583" lon="8.726139971986413">
        <ele>498.03</ele>
        <time>2024-05-28T11:28:41.446Z</time>
      </trkpt>
      <trkpt lat="45.88763792999089" lon="8.726157993078232">
        <ele>498.38</ele>
        <time>2024-05-28T11:28:42.878Z</time>
      </trkpt>
      <trkpt lat="45.887652933597565" lon="8.726194957271218">
        <ele>498.75</ele>
        <time>2024-05-28T11:28:44.311Z</time>
      </trkpt>
      <trkpt lat="45.88766299188137" lon="8.726227981969714">
        <ele>499.13</ele>
        <time>2024-05-28T11:28:45.745Z</time>
      </trkpt>
      <trkpt lat="45.88767992332578" lon="8.726252960041165">
        <ele>499.53</ele>
        <time>2024-05-28T11:28:47.180Z</time>
      </trkpt>
      <trkpt lat="45.887694926932454" lon="8.726267963647842">
        <ele>499.94</ele>
        <time>2024-05-28T11:28:48.615Z</time>
      </trkpt>
      <trkpt lat="45.887717977166176" lon="8.726279949769378">
        <ele>500.36</ele>
        <time>2024-05-28T11:28:50.051Z</time>
      </trkpt>
      <trkpt lat="45.88773298077285" lon="8.726292941719294">
        <ele>500.8</ele>
        <time>2024-05-28T11:28:51.488Z</time>
      </trkpt>
      <trkpt lat="45.8877529297024" lon="8.72630794532597">
        <ele>501.25</ele>
        <time>2024-05-28T11:28:52.926Z</time>
      </trkpt>
      <trkpt lat="45.88776499964297" lon="8.726332923397422">
        <ele>501.71</ele>
        <time>2024-05-28T11:28:54.364Z</time>
      </trkpt>
      <trkpt lat="45.88777497410774" lon="8.726356979459524">
        <ele>502.18</ele>
        <time>2024-05-28T11:28:55.803Z</time>
      </trkpt>
      <trkpt lat="45.887784948572516" lon="8.726379945874214">
        <ele>502.65</ele>
        <time>2024-05-28T11:28:57.242Z</time>
      </trkpt>
      <trkpt lat="45.88779995217919" lon="8.726396961137652">
        <ele>503.14</ele>
        <time>2024-05-28T11:28:58.682Z</time>
      </trkpt>
      <trkpt lat="45.88781294412911" lon="8.726416993886232">
        <ele>503.64</ele>
        <time>2024-05-28T11:29:00.123Z</time>
      </trkpt>
      <trkpt lat="45.88782995939255" lon="8.726437948644161">
        <ele>504.14</ele>
        <time>2024-05-28T11:29:01.565Z</time>
      </trkpt>
      <trkpt lat="45.88784194551408" lon="8.72645697556436">
        <ele>504.64</ele>
        <time>2024-05-28T11:29:03.007Z</time>
      </trkpt>
      <trkpt lat="45.88785191997886" lon="8.726476924493909">
        <ele>505.15</ele>
        <time>2024-05-28T11:29:04.450Z</time>
      </trkpt>
      <trkpt lat="45.88786197826266" lon="8.72649796307087">
        <ele>505.67</ele>
        <time>2024-05-28T11:29:05.893Z</time>
      </trkpt>
      <trkpt lat="45.88787798769772" lon="8.72651799581945">
        <ele>506.19</ele>
        <time>2024-05-28T11:29:07.337Z</time>
      </trkpt>
      <trkpt lat="45.88789693079889" lon="8.726544985547662">
        <ele>506.71</ele>
        <time>2024-05-28T11:29:08.782Z</time>
      </trkpt>
      <trkpt lat="45.887909922748804" lon="8.726579938083887">
        <ele>507.23</ele>
        <time>2024-05-28T11:29:10.228Z</time>
      </trkpt>
      <trkpt lat="45.887909922748804" lon="8.726611956954002">
        <ele>507.75</ele>
        <time>2024-05-28T11:29:11.675Z</time>
      </trkpt>
      <trkpt lat="45.887912940233946" lon="8.72664992697537">
        <ele>508.27</ele>
        <time>2024-05-28T11:29:13.122Z</time>
      </trkpt>
      <trkpt lat="45.88790296576917" lon="8.72667197138071">
        <ele>508.79</ele>
        <time>2024-05-28T11:29:14.570Z</time>
      </trkpt>
      <trkpt lat="45.88790296576917" lon="8.726709941402078">
        <ele>509.31</ele>
        <time>2024-05-28T11:29:16.019Z</time>
      </trkpt>
      <trkpt lat="45.88789994828403" lon="8.726742966100574">
        <ele>509.84</ele>
        <time>2024-05-28T11:29:17.469Z</time>
      </trkpt>
      <trkpt lat="45.887889973819256" lon="8.726772973313928">
        <ele>510.36</ele>
        <time>2024-05-28T11:29:18.919Z</time>
      </trkpt>
      <trkpt lat="45.88787195272744" lon="8.72679996304214">
        <ele>510.87</ele>
        <time>2024-05-28T11:29:20.370Z</time>
      </trkpt>
      <trkpt lat="45.88785191997886" lon="8.726817984133959">
        <ele>511.38</ele>
        <time>2024-05-28T11:29:21.822Z</time>
      </trkpt>
      <trkpt lat="45.88783297687769" lon="8.726829970255494">
        <ele>511.88</ele>
        <time>2024-05-28T11:29:23.275Z</time>
      </trkpt>
      <trkpt lat="45.88781294412911" lon="8.726839944720268">
        <ele>512.37</ele>
        <time>2024-05-28T11:29:24.729Z</time>
      </trkpt>
      <trkpt lat="45.88779198937118" lon="8.726859977468848">
        <ele>512.87</ele>
        <time>2024-05-28T11:29:26.183Z</time>
      </trkpt>
      <trkpt lat="45.887777991592884" lon="8.7268849555403">
        <ele>513.37</ele>
        <time>2024-05-28T11:29:27.638Z</time>
      </trkpt>
      <trkpt lat="45.887759970501065" lon="8.726894930005074">
        <ele>513.86</ele>
        <time>2024-05-28T11:29:29.094Z</time>
      </trkpt>
      <trkpt lat="45.88774697855115" lon="8.726914962753654">
        <ele>514.35</ele>
        <time>2024-05-28T11:29:30.550Z</time>
      </trkpt>
      <trkpt lat="45.88772996328771" lon="8.726934995502234">
        <ele>514.84</ele>
        <time>2024-05-28T11:29:32.007Z</time>
      </trkpt>
      <trkpt lat="45.88771194219589" lon="8.726959973573685">
        <ele>515.32</ele>
        <time>2024-05-28T11:29:33.465Z</time>
      </trkpt>
      <trkpt lat="45.88770196773112" lon="8.726979922503233">
        <ele>515.81</ele>
        <time>2024-05-28T11:29:34.924Z</time>
      </trkpt>
      <trkpt lat="45.887697944417596" lon="8.727012947201729">
        <ele>516.3</ele>
        <time>2024-05-28T11:29:36.383Z</time>
      </trkpt>
      <trkpt lat="45.887697944417596" lon="8.727039936929941">
        <ele>516.78</ele>
        <time>2024-05-28T11:29:37.843Z</time>
      </trkpt>
      <trkpt lat="45.88770498521626" lon="8.727066926658154">
        <ele>517.27</ele>
        <time>2024-05-28T11:29:39.304Z</time>
      </trkpt>
      <trkpt lat="45.88772292248905" lon="8.727071955800056">
        <ele>517.74</ele>
        <time>2024-05-28T11:29:40.765Z</time>
      </trkpt>
      <trkpt lat="45.8877529297024" lon="8.727061981335282">
        <ele>518.2</ele>
        <time>2024-05-28T11:29:42.227Z</time>
      </trkpt>
      <trkpt lat="45.8877719566226" lon="8.727072961628437">
        <ele>518.67</ele>
        <time>2024-05-28T11:29:43.690Z</time>
      </trkpt>
      <trkpt lat="45.88779492303729" lon="8.727091988548636">
        <ele>519.14</ele>
        <time>2024-05-28T11:29:45.154Z</time>
      </trkpt>
      <trkpt lat="45.88780992664397" lon="8.727107997983694">
        <ele>519.6</ele>
        <time>2024-05-28T11:29:46.618Z</time>
      </trkpt>
      <trkpt lat="45.88783297687769" lon="8.72711998410523">
        <ele>520.05</ele>
        <time>2024-05-28T11:29:48.083Z</time>
      </trkpt>
      <trkpt lat="45.88785191997886" lon="8.727132976055145">
        <ele>520.5</ele>
        <time>2024-05-28T11:29:49.549Z</time>
      </trkpt>
      <trkpt lat="45.88787497021258" lon="8.727152924984694">
        <ele>520.95</ele>
        <time>2024-05-28T11:29:51.016Z</time>
      </trkpt>
      <trkpt lat="45.88788293302059" lon="8.727181926369667">
        <ele>521.4</ele>
        <time>2024-05-28T11:29:52.484Z</time>
      </trkpt>
      <trkpt lat="45.88789693079889" lon="8.727204976603389">
        <ele>521.83</ele>
        <time>2024-05-28T11:29:53.952Z</time>
      </trkpt>
      <trkpt lat="45.88791998103261" lon="8.72722995467484">
        <ele>522.25</ele>
        <time>2024-05-28T11:29:55.421Z</time>
      </trkpt>
      <trkpt lat="45.88793498463929" lon="8.727256944403052">
        <ele>522.67</ele>
        <time>2024-05-28T11:29:56.891Z</time>
      </trkpt>
      <trkpt lat="45.88795795105398" lon="8.72729198075831">
        <ele>523.09</ele>
        <time>2024-05-28T11:29:58.362Z</time>
      </trkpt>
      <trkpt lat="45.88796993717551" lon="8.727309918031096">
        <ele>523.49</ele>
        <time>2024-05-28T11:29:59.834Z</time>
      </trkpt>
      <trkpt lat="45.88798996992409" lon="8.72733699157834">
        <ele>523.88</ele>
        <time>2024-05-28T11:30:01.307Z</time>
      </trkpt>
      <trkpt lat="45.88800195604563" lon="8.727364987134933">
        <ele>524.27</ele>
        <time>2024-05-28T11:30:02.780Z</time>
      </trkpt>
      <trkpt lat="45.88801494799554" lon="8.727394994348288">
        <ele>524.65</ele>
        <time>2024-05-28T11:30:04.254Z</time>
      </trkpt>
      <trkpt lat="45.88802198879421" lon="8.72742298990488">
        <ele>525.02</ele>
        <time>2024-05-28T11:30:05.729Z</time>
      </trkpt>
      <trkpt lat="45.88803498074412" lon="8.72746498323977">
        <ele>525.4</ele>
        <time>2024-05-28T11:30:07.205Z</time>
      </trkpt>
      <trkpt lat="45.888037998229265" lon="8.727497924119234">
        <ele>525.76</ele>
        <time>2024-05-28T11:30:08.682Z</time>
      </trkpt>
      <trkpt lat="45.888039926066995" lon="8.727527931332588">
        <ele>526.11</ele>
        <time>2024-05-28T11:30:10.160Z</time>
      </trkpt>
      <trkpt lat="45.8880499843508" lon="8.7275549210608">
        <ele>526.45</ele>
        <time>2024-05-28T11:30:11.638Z</time>
      </trkpt>
      <trkpt lat="45.8880499843508" lon="8.7275929749012">
        <ele>526.78</ele>
        <time>2024-05-28T11:30:13.117Z</time>
      </trkpt>
      <trkpt lat="45.888037998229265" lon="8.727646954357624">
        <ele>527.11</ele>
        <time>2024-05-28T11:30:14.597Z</time>
      </trkpt>
      <trkpt lat="45.88802492246032" lon="8.727672938257456">
        <ele>527.42</ele>
        <time>2024-05-28T11:30:16.078Z</time>
      </trkpt>
      <trkpt lat="45.88802198879421" lon="8.727699927985668">
        <ele>527.71</ele>
        <time>2024-05-28T11:30:17.560Z</time>
      </trkpt>
      <trkpt lat="45.88800799101591" lon="8.72774695046246">
        <ele>528.02</ele>
        <time>2024-05-28T11:30:19.043Z</time>
      </trkpt>
      <trkpt lat="45.887999944388866" lon="8.727771928533912">
        <ele>528.3</ele>
        <time>2024-05-28T11:30:20.527Z</time>
      </trkpt>
      <trkpt lat="45.88797999545932" lon="8.727819956839085">
        <ele>528.59</ele>
        <time>2024-05-28T11:30:22.012Z</time>
      </trkpt>
      <trkpt lat="45.88795795105398" lon="8.727876953780651">
        <ele>528.84</ele>
        <time>2024-05-28T11:30:23.498Z</time>
      </trkpt>
      <trkpt lat="45.88794495910406" lon="8.727901931852102">
        <ele>529.07</ele>
        <time>2024-05-28T11:30:24.985Z</time>
      </trkpt>
      <trkpt lat="45.88792199268937" lon="8.727956917136908">
        <ele>529.31</ele>
        <time>2024-05-28T11:30:26.474Z</time>
      </trkpt>
      <trkpt lat="45.887909922748804" lon="8.72797996737063">
        <ele>529.53</ele>
        <time>2024-05-28T11:30:27.963Z</time>
      </trkpt>
      <trkpt lat="45.887889973819256" lon="8.72800494544208">
        <ele>529.74</ele>
        <time>2024-05-28T11:30:29.453Z</time>
      </trkpt>
      <trkpt lat="45.88787195272744" lon="8.728029923513532">
        <ele>529.93</ele>
        <time>2024-05-28T11:30:30.944Z</time>
      </trkpt>
      <trkpt lat="45.887854937464" lon="8.728044927120209">
        <ele>530.09</ele>
        <time>2024-05-28T11:30:32.436Z</time>
      </trkpt>
      <trkpt lat="45.88783691637218" lon="8.728061942383647">
        <ele>530.24</ele>
        <time>2024-05-28T11:30:33.928Z</time>
      </trkpt>
      <trkpt lat="45.88781294412911" lon="8.728082980960608">
        <ele>530.38</ele>
        <time>2024-05-28T11:30:35.421Z</time>
      </trkpt>
      <trkpt lat="45.88779492303729" lon="8.728099996224046">
        <ele>530.51</ele>
        <time>2024-05-28T11:30:36.915Z</time>
      </trkpt>
      <trkpt lat="45.88777497410774" lon="8.728116927668452">
        <ele>530.62</ele>
        <time>2024-05-28T11:30:38.410Z</time>
      </trkpt>
      <trkpt lat="45.887761982157826" lon="8.728156993165612">
        <ele>530.72</ele>
        <time>2024-05-28T11:30:39.906Z</time>
      </trkpt>
      <trkpt lat="45.887761982157826" lon="8.728189934045076">
        <ele>530.8</ele>
        <time>2024-05-28T11:30:41.403Z</time>
      </trkpt>
      <trkpt lat="45.887761982157826" lon="8.728224970400333">
        <ele>530.86</ele>
        <time>2024-05-28T11:30:42.901Z</time>
      </trkpt>
      <trkpt lat="45.8877719566226" lon="8.728254977613688">
        <ele>530.91</ele>
        <time>2024-05-28T11:30:44.399Z</time>
      </trkpt>
      <trkpt lat="45.887777991592884" lon="8.728292947635055">
        <ele>530.95</ele>
        <time>2024-05-28T11:30:45.898Z</time>
      </trkpt>
      <trkpt lat="45.887784948572516" lon="8.728337958455086">
        <ele>530.97</ele>
        <time>2024-05-28T11:30:47.398Z</time>
      </trkpt>
      <trkpt lat="45.887784948572516" lon="8.72836796566844">
        <ele>530.98</ele>
        <time>2024-05-28T11:30:48.899Z</time>
      </trkpt>
      <trkpt lat="45.887781931087375" lon="8.728416999801993">
        <ele>530.98</ele>
        <time>2024-05-28T11:30:50.401Z</time>
      </trkpt>
      <trkpt lat="45.887781931087375" lon="8.7284529581666">
        <ele>530.95</ele>
        <time>2024-05-28T11:30:51.904Z</time>
      </trkpt>
      <trkpt lat="45.887781931087375" lon="8.728479947894812">
        <ele>530.91</ele>
        <time>2024-05-28T11:30:53.408Z</time>
      </trkpt>
      <trkpt lat="45.887781931087375" lon="8.728512972593307">
        <ele>530.85</ele>
        <time>2024-05-28T11:30:54.912Z</time>
      </trkpt>
      <trkpt lat="45.887781931087375" lon="8.728552954271436">
        <ele>530.78</ele>
        <time>2024-05-28T11:30:56.417Z</time>
      </trkpt>
      <trkpt lat="45.88779198937118" lon="8.728609951213002">
        <ele>530.7</ele>
        <time>2024-05-28T11:30:57.924Z</time>
      </trkpt>
      <trkpt lat="45.887784948572516" lon="8.72864498756826">
        <ele>530.61</ele>
        <time>2024-05-28T11:30:59.431Z</time>
      </trkpt>
      <trkpt lat="45.88776499964297" lon="8.728699972853065">
        <ele>530.51</ele>
        <time>2024-05-28T11:31:00.940Z</time>
      </trkpt>
      <trkpt lat="45.88775695301592" lon="8.72877691872418">
        <ele>530.39</ele>
        <time>2024-05-28T11:31:02.451Z</time>
      </trkpt>
      <trkpt lat="45.88774295523763" lon="8.72881991788745">
        <ele>530.27</ele>
        <time>2024-05-28T11:31:03.963Z</time>
      </trkpt>
      <trkpt lat="45.88773692026734" lon="8.72885998338461">
        <ele>530.13</ele>
        <time>2024-05-28T11:31:05.476Z</time>
      </trkpt>
      <trkpt lat="45.88773298077285" lon="8.728897953405976">
        <ele>529.99</ele>
        <time>2024-05-28T11:31:06.990Z</time>
      </trkpt>
      <trkpt lat="45.88772292248905" lon="8.72892796061933">
        <ele>529.84</ele>
        <time>2024-05-28T11:31:08.504Z</time>
      </trkpt>
      <trkpt lat="45.88771194219589" lon="8.728959979489446">
        <ele>529.68</ele>
        <time>2024-05-28T11:31:10.019Z</time>
      </trkpt>
      <trkpt lat="45.88770196773112" lon="8.728994932025671">
        <ele>529.49</ele>
        <time>2024-05-28T11:31:11.535Z</time>
      </trkpt>
      <trkpt lat="45.887691993266344" lon="8.729024939239025">
        <ele>529.3</ele>
        <time>2024-05-28T11:31:13.052Z</time>
      </trkpt>
      <trkpt lat="45.88767698965967" lon="8.72905494645238">
        <ele>529.11</ele>
        <time>2024-05-28T11:31:14.570Z</time>
      </trkpt>
      <trkpt lat="45.88765695691109" lon="8.729077996686101">
        <ele>528.91</ele>
        <time>2024-05-28T11:31:16.089Z</time>
      </trkpt>
      <trkpt lat="45.88763499632478" lon="8.729092916473746">
        <ele>528.71</ele>
        <time>2024-05-28T11:31:17.608Z</time>
      </trkpt>
      <trkpt lat="45.887611946091056" lon="8.729096939787269">
        <ele>528.51</ele>
        <time>2024-05-28T11:31:19.128Z</time>
      </trkpt>
      <trkpt lat="45.887586968019605" lon="8.729094928130507">
        <ele>528.28</ele>
        <time>2024-05-28T11:31:20.649Z</time>
      </trkpt>
      <trkpt lat="45.887566935271025" lon="8.729086965322495">
        <ele>528.04</ele>
        <time>2024-05-28T11:31:22.171Z</time>
      </trkpt>
      <trkpt lat="45.88754195719957" lon="8.72907497920096">
        <ele>527.8</ele>
        <time>2024-05-28T11:31:23.694Z</time>
      </trkpt>
      <trkpt lat="45.887519996613264" lon="8.729061987251043">
        <ele>527.55</ele>
        <time>2024-05-28T11:31:25.217Z</time>
      </trkpt>
      <trkpt lat="45.88749694637954" lon="8.729052934795618">
        <ele>527.29</ele>
        <time>2024-05-28T11:31:26.741Z</time>
      </trkpt>
      <trkpt lat="45.88745495304465" lon="8.729037931188941">
        <ele>527.02</ele>
        <time>2024-05-28T11:31:28.267Z</time>
      </trkpt>
      <trkpt lat="45.88742695748806" lon="8.72903298586607">
        <ele>526.75</ele>
        <time>2024-05-28T11:31:29.794Z</time>
      </trkpt>
      <trkpt lat="45.88740692473948" lon="8.729029968380928">
        <ele>526.47</ele>
        <time>2024-05-28T11:31:31.321Z</time>
      </trkpt>
      <trkpt lat="45.88738496415317" lon="8.729052934795618">
        <ele>526.17</ele>
        <time>2024-05-28T11:31:32.849Z</time>
      </trkpt>
      <trkpt lat="45.887394938617945" lon="8.729081936180592">
        <ele>525.87</ele>
        <time>2024-05-28T11:31:34.378Z</time>
      </trkpt>
      <trkpt lat="45.88740298524499" lon="8.72912191785872">
        <ele>525.57</ele>
        <time>2024-05-28T11:31:35.908Z</time>
      </trkpt>
      <trkpt lat="45.887416983023286" lon="8.7291419506073">
        <ele>525.27</ele>
        <time>2024-05-28T11:31:37.439Z</time>
      </trkpt>
      <trkpt lat="45.887436931952834" lon="8.729172963649035">
        <ele>524.96</ele>
        <time>2024-05-28T11:31:38.971Z</time>
      </trkpt>
      <trkpt lat="45.88746199384332" lon="8.729206994175911">
        <ele>524.64</ele>
        <time>2024-05-28T11:31:40.504Z</time>
      </trkpt>
      <trkpt lat="45.887479931116104" lon="8.72922794893384">
        <ele>524.33</ele>
        <time>2024-05-28T11:31:42.037Z</time>
      </trkpt>
      <trkpt lat="45.887499963864684" lon="8.729242952540517">
        <ele>524.02</ele>
        <time>2024-05-28T11:31:43.571Z</time>
      </trkpt>
      <trkpt lat="45.88752192445099" lon="8.729266924783587">
        <ele>523.7</ele>
        <time>2024-05-28T11:31:45.106Z</time>
      </trkpt>
      <trkpt lat="45.887544974684715" lon="8.729281928390265">
        <ele>523.38</ele>
        <time>2024-05-28T11:31:46.642Z</time>
      </trkpt>
      <trkpt lat="45.887566935271025" lon="8.729286957532167">
        <ele>523.07</ele>
        <time>2024-05-28T11:31:48.179Z</time>
      </trkpt>
      <trkpt lat="45.88759995996952" lon="8.729284945875406">
        <ele>522.76</ele>
        <time>2024-05-28T11:31:49.717Z</time>
      </trkpt>
      <trkpt lat="45.887631978839636" lon="8.729284945875406">
        <ele>522.44</ele>
        <time>2024-05-28T11:31:51.256Z</time>
      </trkpt>
      <trkpt lat="45.88765695691109" lon="8.729292992502451">
        <ele>522.11</ele>
        <time>2024-05-28T11:31:52.796Z</time>
      </trkpt>
      <trkpt lat="45.88768193498254" lon="8.729311935603619">
        <ele>521.78</ele>
        <time>2024-05-28T11:31:54.337Z</time>
      </trkpt>
      <trkpt lat="45.88770196773112" lon="8.729339931160212">
        <ele>521.45</ele>
        <time>2024-05-28T11:31:55.879Z</time>
      </trkpt>
      <trkpt lat="45.88770498521626" lon="8.72937697917223">
        <ele>521.12</ele>
        <time>2024-05-28T11:31:57.422Z</time>
      </trkpt>
      <trkpt lat="45.887691993266344" lon="8.729439927265048">
        <ele>520.8</ele>
        <time>2024-05-28T11:31:58.966Z</time>
      </trkpt>
      <trkpt lat="45.887672966346145" lon="8.729482926428318">
        <ele>520.5</ele>
        <time>2024-05-28T11:32:00.511Z</time>
      </trkpt>
      <trkpt lat="45.887652933597565" lon="8.729516956955194">
        <ele>520.2</ele>
        <time>2024-05-28T11:32:02.057Z</time>
      </trkpt>
      <trkpt lat="45.88763499632478" lon="8.72954796999693">
        <ele>519.92</ele>
        <time>2024-05-28T11:32:03.604Z</time>
      </trkpt>
      <trkpt lat="45.88760498911142" lon="8.729594992473722">
        <ele>519.64</ele>
        <time>2024-05-28T11:32:05.153Z</time>
      </trkpt>
      <trkpt lat="45.88757992722094" lon="8.72963497415185">
        <ele>519.35</ele>
        <time>2024-05-28T11:32:06.703Z</time>
      </trkpt>
      <trkpt lat="45.88755997829139" lon="8.729672944173217">
        <ele>519.08</ele>
        <time>2024-05-28T11:32:08.254Z</time>
      </trkpt>
      <trkpt lat="45.88753491640091" lon="8.72970194555819">
        <ele>518.83</ele>
        <time>2024-05-28T11:32:09.806Z</time>
      </trkpt>
      <trkpt lat="45.8875129558146" lon="8.729722984135151">
        <ele>518.59</ele>
        <time>2024-05-28T11:32:11.359Z</time>
      </trkpt>
      <trkpt lat="45.887479931116104" lon="8.729754919186234">
        <ele>518.36</ele>
        <time>2024-05-28T11:32:12.913Z</time>
      </trkpt>
      <trkpt lat="45.88746492750943" lon="8.729779981076717">
        <ele>518.15</ele>
        <time>2024-05-28T11:32:14.468Z</time>
      </trkpt>
      <trkpt lat="45.88744497857988" lon="8.729797918349504">
        <ele>517.95</ele>
        <time>2024-05-28T11:32:16.024Z</time>
      </trkpt>
      <trkpt lat="45.88742695748806" lon="8.729817951098084">
        <ele>517.77</ele>
        <time>2024-05-28T11:32:17.581Z</time>
      </trkpt>
      <trkpt lat="45.88740692473948" lon="8.729837983846664">
        <ele>517.6</ele>
        <time>2024-05-28T11:32:19.138Z</time>
      </trkpt>
      <trkpt lat="45.88738496415317" lon="8.729857932776213">
        <ele>517.45</ele>
        <time>2024-05-28T11:32:20.696Z</time>
      </trkpt>
      <trkpt lat="45.88735998608172" lon="8.72987293638289">
        <ele>517.32</ele>
        <time>2024-05-28T11:32:22.255Z</time>
      </trkpt>
      <trkpt lat="45.88733299635351" lon="8.729882994666696">
        <ele>517.2</ele>
        <time>2024-05-28T11:32:23.815Z</time>
      </trkpt>
      <trkpt lat="45.88731497526169" lon="8.729887939989567">
        <ele>517.1</ele>
        <time>2024-05-28T11:32:25.376Z</time>
      </trkpt>
      <trkpt lat="45.88727993890643" lon="8.729896992444992">
        <ele>517.01</ele>
        <time>2024-05-28T11:32:26.938Z</time>
      </trkpt>
      <trkpt lat="45.88725697249174" lon="8.729887939989567">
        <ele>516.95</ele>
        <time>2024-05-28T11:32:28.501Z</time>
      </trkpt>
      <trkpt lat="45.88722797110677" lon="8.729879977181554">
        <ele>516.9</ele>
        <time>2024-05-28T11:32:30.065Z</time>
      </trkpt>
      <trkpt lat="45.88720793835819" lon="8.729866985231638">
        <ele>516.86</ele>
        <time>2024-05-28T11:32:31.629Z</time>
      </trkpt>
      <trkpt lat="45.88718991726637" lon="8.729839995503426">
        <ele>516.86</ele>
        <time>2024-05-28T11:32:33.194Z</time>
      </trkpt>
      <trkpt lat="45.88716292753816" lon="8.729802947491407">
        <ele>516.86</ele>
        <time>2024-05-28T11:32:34.761Z</time>
      </trkpt>
      <trkpt lat="45.88714499026537" lon="8.729771934449673">
        <ele>516.88</ele>
        <time>2024-05-28T11:32:36.329Z</time>
      </trkpt>
      <trkpt lat="45.88712495751679" lon="8.72973999939859">
        <ele>516.91</ele>
        <time>2024-05-28T11:32:37.898Z</time>
      </trkpt>
      <trkpt lat="45.88710995391011" lon="8.729694988578558">
        <ele>516.96</ele>
        <time>2024-05-28T11:32:39.468Z</time>
      </trkpt>
      <trkpt lat="45.88709997944534" lon="8.729654923081398">
        <ele>517.03</ele>
        <time>2024-05-28T11:32:41.039Z</time>
      </trkpt>
      <trkpt lat="45.8870829641819" lon="8.729617958888412">
        <ele>517.1</ele>
        <time>2024-05-28T11:32:42.611Z</time>
      </trkpt>
      <trkpt lat="45.887071983888745" lon="8.729579988867044">
        <ele>517.19</ele>
        <time>2024-05-28T11:32:44.184Z</time>
      </trkpt>
      <trkpt lat="45.88705798611045" lon="8.72954796999693">
        <ele>517.29</ele>
        <time>2024-05-28T11:32:45.758Z</time>
      </trkpt>
      <trkpt lat="45.88704499416053" lon="8.729509999975562">
        <ele>517.41</ele>
        <time>2024-05-28T11:32:47.333Z</time>
      </trkpt>
      <trkpt lat="45.887029990553856" lon="8.729469934478402">
        <ele>517.54</ele>
        <time>2024-05-28T11:32:48.909Z</time>
      </trkpt>
      <trkpt lat="45.88701993227005" lon="8.729436993598938">
        <ele>517.68</ele>
        <time>2024-05-28T11:32:50.485Z</time>
      </trkpt>
      <trkpt lat="45.887006940320134" lon="8.729404974728823">
        <ele>517.84</ele>
        <time>2024-05-28T11:32:52.062Z</time>
      </trkpt>
      <trkpt lat="45.88699193671346" lon="8.729371950030327">
        <ele>517.99</ele>
        <time>2024-05-28T11:32:53.640Z</time>
      </trkpt>
      <trkpt lat="45.88696796447039" lon="8.729344960302114">
        <ele>518.16</ele>
        <time>2024-05-28T11:32:55.219Z</time>
      </trkpt>
      <trkpt lat="45.88694994337857" lon="8.729319982230663">
        <ele>518.33</ele>
        <time>2024-05-28T11:32:56.799Z</time>
      </trkpt>
      <trkpt lat="45.886922953650355" lon="8.729301961138844">
        <ele>518.49</ele>
        <time>2024-05-28T11:32:58.380Z</time>
      </trkpt>
      <trkpt lat="45.88690199889243" lon="8.729281928390265">
        <ele>518.67</ele>
        <time>2024-05-28T11:32:59.962Z</time>
      </trkpt>
      <trkpt lat="45.88688498362899" lon="8.729261979460716">
        <ele>518.85</ele>
        <time>2024-05-28T11:33:01.545Z</time>
      </trkpt>
      <trkpt lat="45.886859921738505" lon="8.729236917570233">
        <ele>519.03</ele>
        <time>2024-05-28T11:33:03.129Z</time>
      </trkpt>
      <trkpt lat="45.88683997280896" lon="8.729216968640685">
        <ele>519.21</ele>
        <time>2024-05-28T11:33:04.713Z</time>
      </trkpt>
      <trkpt lat="45.88682195171714" lon="8.729199953377247">
        <ele>519.39</ele>
        <time>2024-05-28T11:33:06.298Z</time>
      </trkpt>
      <trkpt lat="45.8868049364537" lon="8.729186961427331">
        <ele>519.57</ele>
        <time>2024-05-28T11:33:07.884Z</time>
      </trkpt>
      <trkpt lat="45.88678993284702" lon="8.72916298918426">
        <ele>519.74</ele>
        <time>2024-05-28T11:33:09.471Z</time>
      </trkpt>
      <trkpt lat="45.88676696643233" lon="8.729131976142526">
        <ele>519.92</ele>
        <time>2024-05-28T11:33:11.059Z</time>
      </trkpt>
      <trkpt lat="45.88674492202699" lon="8.72909995727241">
        <ele>520.1</ele>
        <time>2024-05-28T11:33:12.648Z</time>
      </trkpt>
      <trkpt lat="45.886727990582585" lon="8.729067938402295">
        <ele>520.27</ele>
        <time>2024-05-28T11:33:14.238Z</time>
      </trkpt>
      <trkpt lat="45.88671298697591" lon="8.729042960330844">
        <ele>520.44</ele>
        <time>2024-05-28T11:33:15.828Z</time>
      </trkpt>
      <trkpt lat="45.88669295422733" lon="8.729007923975587">
        <ele>520.6</ele>
        <time>2024-05-28T11:33:17.419Z</time>
      </trkpt>
      <trkpt lat="45.886682979762554" lon="8.728977916762233">
        <ele>520.74</ele>
        <time>2024-05-28T11:33:19.011Z</time>
      </trkpt>
      <trkpt lat="45.88666797615588" lon="8.72892796061933">
        <ele>520.88</ele>
        <time>2024-05-28T11:33:20.604Z</time>
      </trkpt>
      <trkpt lat="45.886661941185594" lon="8.728897953405976">
        <ele>521.0</ele>
        <time>2024-05-28T11:33:22.198Z</time>
      </trkpt>
      <trkpt lat="45.88665791787207" lon="8.728849925100803">
        <ele>521.1</ele>
        <time>2024-05-28T11:33:23.793Z</time>
      </trkpt>
      <trkpt lat="45.88665196672082" lon="8.72881698422134">
        <ele>521.2</ele>
        <time>2024-05-28T11:33:25.389Z</time>
      </trkpt>
      <trkpt lat="45.8866479434073" lon="8.72877792455256">
        <ele>521.28</ele>
        <time>2024-05-28T11:33:26.986Z</time>
      </trkpt>
      <trkpt lat="45.886641992256045" lon="8.728739954531193">
        <ele>521.34</ele>
        <time>2024-05-28T11:33:28.584Z</time>
      </trkpt>
      <trkpt lat="45.88663293980062" lon="8.728704918175936">
        <ele>521.39</ele>
        <time>2024-05-28T11:33:30.183Z</time>
      </trkpt>
      <trkpt lat="45.88662698864937" lon="8.728661919012666">
        <ele>521.42</ele>
        <time>2024-05-28T11:33:31.783Z</time>
      </trkpt>
      <trkpt lat="45.886619947850704" lon="8.72862696647644">
        <ele>521.43</ele>
        <time>2024-05-28T11:33:33.384Z</time>
      </trkpt>
      <trkpt lat="45.88660997338593" lon="8.728599976748228">
        <ele>521.42</ele>
        <time>2024-05-28T11:33:34.985Z</time>
      </trkpt>
      <trkpt lat="45.88659496977925" lon="8.728557983413339">
        <ele>521.4</ele>
        <time>2024-05-28T11:33:36.587Z</time>
      </trkpt>
      <trkpt lat="45.88658792898059" lon="8.728531999513507">
        <ele>521.35</ele>
        <time>2024-05-28T11:33:38.190Z</time>
      </trkpt>
      <trkpt lat="45.886577954515815" lon="8.728492939844728">
        <ele>521.28</ele>
        <time>2024-05-28T11:33:39.794Z</time>
      </trkpt>
      <trkpt lat="45.88656798005104" lon="8.728447929024696">
        <ele>521.2</ele>
        <time>2024-05-28T11:33:41.399Z</time>
      </trkpt>
      <trkpt lat="45.8865649625659" lon="8.728407947346568">
        <ele>521.09</ele>
        <time>2024-05-28T11:33:43.005Z</time>
      </trkpt>
      <trkpt lat="45.88656798005104" lon="8.72836695984006">
        <ele>520.95</ele>
        <time>2024-05-28T11:33:44.612Z</time>
      </trkpt>
      <trkpt lat="45.88656798005104" lon="8.728322954848409">
        <ele>520.78</ele>
        <time>2024-05-28T11:33:46.220Z</time>
      </trkpt>
      <trkpt lat="45.88657191954553" lon="8.7282819673419">
        <ele>520.6</ele>
        <time>2024-05-28T11:33:47.829Z</time>
      </trkpt>
      <trkpt lat="45.88658197782934" lon="8.728242991492152">
        <ele>520.39</ele>
        <time>2024-05-28T11:33:49.439Z</time>
      </trkpt>
      <trkpt lat="45.88658499531448" lon="8.728207955136895">
        <ele>520.17</ele>
        <time>2024-05-28T11:33:51.050Z</time>
      </trkpt>
      <trkpt lat="45.88658499531448" lon="8.7281749304384">
        <ele>519.93</ele>
        <time>2024-05-28T11:33:52.662Z</time>
      </trkpt>
      <trkpt lat="45.88659195229411" lon="8.728124974295497">
        <ele>519.66</ele>
        <time>2024-05-28T11:33:54.275Z</time>
      </trkpt>
      <trkpt lat="45.88659496977925" lon="8.728086920455098">
        <ele>519.38</ele>
        <time>2024-05-28T11:33:55.889Z</time>
      </trkpt>
      <trkpt lat="45.88660695590079" lon="8.728037970140576">
        <ele>519.08</ele>
        <time>2024-05-28T11:33:57.504Z</time>
      </trkpt>
      <trkpt lat="45.886602932587266" lon="8.727984996512532">
        <ele>518.76</ele>
        <time>2024-05-28T11:33:59.120Z</time>
      </trkpt>
      <trkpt lat="45.886599998921156" lon="8.727939985692501">
        <ele>518.43</ele>
        <time>2024-05-28T11:34:00.737Z</time>
      </trkpt>
      <trkpt lat="45.88659195229411" lon="8.727891957387328">
        <ele>518.08</ele>
        <time>2024-05-28T11:34:02.355Z</time>
      </trkpt>
      <trkpt lat="45.88659195229411" lon="8.727846946567297">
        <ele>517.71</ele>
        <time>2024-05-28T11:34:03.974Z</time>
      </trkpt>
      <trkpt lat="45.88658792898059" lon="8.727802941575646">
        <ele>517.34</ele>
        <time>2024-05-28T11:34:05.594Z</time>
      </trkpt>
      <trkpt lat="45.88658792898059" lon="8.72776698321104">
        <ele>516.96</ele>
        <time>2024-05-28T11:34:07.215Z</time>
      </trkpt>
      <trkpt lat="45.88659195229411" lon="8.72772691771388">
        <ele>516.57</ele>
        <time>2024-05-28T11:34:08.837Z</time>
      </trkpt>
      <trkpt lat="45.88659195229411" lon="8.727687941864133">
        <ele>516.16</ele>
        <time>2024-05-28T11:34:10.460Z</time>
      </trkpt>
      <trkpt lat="45.88659195229411" lon="8.727652989327908">
        <ele>515.75</ele>
        <time>2024-05-28T11:34:12.084Z</time>
      </trkpt>
      <trkpt lat="45.88659195229411" lon="8.727614935487509">
        <ele>515.32</ele>
        <time>2024-05-28T11:34:13.709Z</time>
      </trkpt>
      <trkpt lat="45.88659195229411" lon="8.727577971294522">
        <ele>514.88</ele>
        <time>2024-05-28T11:34:15.335Z</time>
      </trkpt>
      <trkpt lat="45.88659195229411" lon="8.727536983788013">
        <ele>514.44</ele>
        <time>2024-05-28T11:34:16.962Z</time>
      </trkpt>
      <trkpt lat="45.88658792898059" lon="8.727492978796363">
        <ele>514.0</ele>
        <time>2024-05-28T11:34:18.590Z</time>
      </trkpt>
      <trkpt lat="45.88658197782934" lon="8.727447967976332">
        <ele>513.57</ele>
        <time>2024-05-28T11:34:20.219Z</time>
      </trkpt>
      <trkpt lat="45.88658197782934" lon="8.727399939671159">
        <ele>513.12</ele>
        <time>2024-05-28T11:34:21.849Z</time>
      </trkpt>
      <trkpt lat="45.88658499531448" lon="8.727356940507889">
        <ele>512.68</ele>
        <time>2024-05-28T11:34:23.480Z</time>
      </trkpt>
      <trkpt lat="45.88658499531448" lon="8.727311929687858">
        <ele>512.23</ele>
        <time>2024-05-28T11:34:25.112Z</time>
      </trkpt>
      <trkpt lat="45.88658499531448" lon="8.72727194800973">
        <ele>511.78</ele>
        <time>2024-05-28T11:34:26.745Z</time>
      </trkpt>
      <trkpt lat="45.88658499531448" lon="8.727231966331601">
        <ele>511.35</ele>
        <time>2024-05-28T11:34:28.379Z</time>
      </trkpt>
      <trkpt lat="45.88659195229411" lon="8.727192990481853">
        <ele>510.93</ele>
        <time>2024-05-28T11:34:30.014Z</time>
      </trkpt>
      <trkpt lat="45.88659496977925" lon="8.727156948298216">
        <ele>510.51</ele>
        <time>2024-05-28T11:34:31.650Z</time>
      </trkpt>
      <trkpt lat="45.88659496977925" lon="8.727116966620088">
        <ele>510.11</ele>
        <time>2024-05-28T11:34:33.287Z</time>
      </trkpt>
      <trkpt lat="45.886599998921156" lon="8.727072961628437">
        <ele>509.7</ele>
        <time>2024-05-28T11:34:34.925Z</time>
      </trkpt>
      <trkpt lat="45.886602932587266" lon="8.727032979950309">
        <ele>509.31</ele>
        <time>2024-05-28T11:34:36.563Z</time>
      </trkpt>
      <trkpt lat="45.88660997338593" lon="8.726997943595052">
        <ele>508.93</ele>
        <time>2024-05-28T11:34:38.202Z</time>
      </trkpt>
      <trkpt lat="45.886622965335846" lon="8.726959973573685">
        <ele>508.58</ele>
        <time>2024-05-28T11:34:39.842Z</time>
      </trkpt>
      <trkpt lat="45.88662992231548" lon="8.726921919733286">
        <ele>508.26</ele>
        <time>2024-05-28T11:34:41.483Z</time>
      </trkpt>
      <trkpt lat="45.886641992256045" lon="8.726882943883538">
        <ele>507.94</ele>
        <time>2024-05-28T11:34:43.125Z</time>
      </trkpt>
      <trkpt lat="45.88665791787207" lon="8.726844973862171">
        <ele>507.62</ele>
        <time>2024-05-28T11:34:44.768Z</time>
      </trkpt>
      <trkpt lat="45.886664958670735" lon="8.726809937506914">
        <ele>507.34</ele>
        <time>2024-05-28T11:34:46.412Z</time>
      </trkpt>
      <trkpt lat="45.88667493313551" lon="8.726769955828786">
        <ele>507.07</ele>
        <time>2024-05-28T11:34:48.057Z</time>
      </trkpt>
      <trkpt lat="45.886686919257045" lon="8.726734919473529">
        <ele>506.82</ele>
        <time>2024-05-28T11:34:49.703Z</time>
      </trkpt>
      <trkpt lat="45.88668993674219" lon="8.726691920310259">
        <ele>506.63</ele>
        <time>2024-05-28T11:34:51.350Z</time>
      </trkpt>
      <trkpt lat="45.88669999502599" lon="8.726644981652498">
        <ele>506.44</ele>
        <time>2024-05-28T11:34:52.998Z</time>
      </trkpt>
      <trkpt lat="45.8867029286921" lon="8.72660499997437">
        <ele>506.3</ele>
        <time>2024-05-28T11:34:54.647Z</time>
      </trkpt>
      <trkpt lat="45.886706952005625" lon="8.726561916992068">
        <ele>506.18</ele>
        <time>2024-05-28T11:34:56.297Z</time>
      </trkpt>
      <trkpt lat="45.88671298697591" lon="8.726531993597746">
        <ele>506.09</ele>
        <time>2024-05-28T11:34:57.948Z</time>
      </trkpt>
      <trkpt lat="45.88671994395554" lon="8.726481953635812">
        <ele>506.02</ele>
        <time>2024-05-28T11:34:59.600Z</time>
      </trkpt>
      <trkpt lat="45.8867219556123" lon="8.726439960300922">
        <ele>505.98</ele>
        <time>2024-05-28T11:35:01.253Z</time>
      </trkpt>
      <trkpt lat="45.8867219556123" lon="8.726399978622794">
        <ele>505.96</ele>
        <time>2024-05-28T11:35:02.907Z</time>
      </trkpt>
      <trkpt lat="45.886724973097444" lon="8.726362930610776">
        <ele>505.97</ele>
        <time>2024-05-28T11:35:04.562Z</time>
      </trkpt>
      <trkpt lat="45.88673796504736" lon="8.726322948932648">
        <ele>505.98</ele>
        <time>2024-05-28T11:35:06.218Z</time>
      </trkpt>
      <trkpt lat="45.8867219556123" lon="8.72630693949759">
        <ele>506.08</ele>
        <time>2024-05-28T11:35:07.874Z</time>
      </trkpt>
      <trkpt lat="45.8867029286921" lon="8.726312974467874">
        <ele>506.21</ele>
        <time>2024-05-28T11:35:09.531Z</time>
      </trkpt>
      <trkpt lat="45.88667996227741" lon="8.726331917569041">
        <ele>506.37</ele>
        <time>2024-05-28T11:35:11.189Z</time>
      </trkpt>
      <trkpt lat="45.88665791787207" lon="8.726359996944666">
        <ele>506.56</ele>
        <time>2024-05-28T11:35:12.848Z</time>
      </trkpt>
      <trkpt lat="45.886639980599284" lon="8.726367959752679">
        <ele>506.75</ele>
        <time>2024-05-28T11:35:14.508Z</time>
      </trkpt>
      <trkpt lat="45.886622965335846" lon="8.726381957530975">
        <ele>506.97</ele>
        <time>2024-05-28T11:35:16.168Z</time>
      </trkpt>
      <trkpt lat="45.88659496977925" lon="8.726381957530975">
        <ele>507.21</ele>
        <time>2024-05-28T11:35:17.829Z</time>
      </trkpt>
      <trkpt lat="45.88658197782934" lon="8.726352956146002">
        <ele>507.44</ele>
        <time>2024-05-28T11:35:19.491Z</time>
      </trkpt>
      <trkpt lat="45.8865649625659" lon="8.726337952539325">
        <ele>507.69</ele>
        <time>2024-05-28T11:35:21.154Z</time>
      </trkpt>
      <trkpt lat="45.886552976444364" lon="8.726352956146002">
        <ele>507.95</ele>
        <time>2024-05-28T11:35:22.817Z</time>
      </trkpt>
      <trkpt lat="45.88654694147408" lon="8.726379945874214">
        <ele>508.21</ele>
        <time>2024-05-28T11:35:24.481Z</time>
      </trkpt>
      <trkpt lat="45.88653998449445" lon="8.726397966966033">
        <ele>508.49</ele>
        <time>2024-05-28T11:35:26.145Z</time>
      </trkpt>
      <trkpt lat="45.886514922603965" lon="8.726399978622794">
        <ele>508.79</ele>
        <time>2024-05-28T11:35:27.810Z</time>
      </trkpt>
      <trkpt lat="45.88650494813919" lon="8.726379945874214">
        <ele>509.07</ele>
        <time>2024-05-28T11:35:29.476Z</time>
      </trkpt>
      <trkpt lat="45.88648499920964" lon="8.726351950317621">
        <ele>509.37</ele>
        <time>2024-05-28T11:35:31.143Z</time>
      </trkpt>
      <trkpt lat="45.8864819817245" lon="8.726317919790745">
        <ele>509.63</ele>
        <time>2024-05-28T11:35:32.810Z</time>
      </trkpt>
      <trkpt lat="45.88647997006774" lon="8.726274920627475">
        <ele>509.89</ele>
        <time>2024-05-28T11:35:34.478Z</time>
      </trkpt>
      <trkpt lat="45.8864629548043" lon="8.726234938949347">
        <ele>510.18</ele>
        <time>2024-05-28T11:35:36.148Z</time>
      </trkpt>
      <trkpt lat="45.886449962854385" lon="8.726201998069882">
        <ele>510.46</ele>
        <time>2024-05-28T11:35:37.818Z</time>
      </trkpt>
      <trkpt lat="45.8864629548043" lon="8.726164950057864">
        <ele>510.68</ele>
        <time>2024-05-28T11:35:39.489Z</time>
      </trkpt>
      <trkpt lat="45.88645993731916" lon="8.72613494284451">
        <ele>510.93</ele>
        <time>2024-05-28T11:35:41.161Z</time>
      </trkpt>
      <trkpt lat="45.886449962854385" lon="8.726104935631156">
        <ele>511.19</ele>
        <time>2024-05-28T11:35:42.834Z</time>
      </trkpt>
      <trkpt lat="45.88643998838961" lon="8.72606998309493">
        <ele>511.45</ele>
        <time>2024-05-28T11:35:44.508Z</time>
      </trkpt>
      <trkpt lat="45.88643194176257" lon="8.726036958396435">
        <ele>511.69</ele>
        <time>2024-05-28T11:35:46.183Z</time>
      </trkpt>
      <trkpt lat="45.886427918449044" lon="8.726002927869558">
        <ele>511.92</ele>
        <time>2024-05-28T11:35:47.858Z</time>
      </trkpt>
      <trkpt lat="45.88641492649913" lon="8.725956995040178">
        <ele>512.16</ele>
        <time>2024-05-28T11:35:49.535Z</time>
      </trkpt>
      <trkpt lat="45.886407969519496" lon="8.725924976170063">
        <ele>512.37</ele>
        <time>2024-05-28T11:35:51.212Z</time>
      </trkpt>
      <trkpt lat="45.88639296591282" lon="8.725879965350032">
        <ele>512.59</ele>
        <time>2024-05-28T11:35:52.891Z</time>
      </trkpt>
      <trkpt lat="45.886386930942535" lon="8.725831937044859">
        <ele>512.77</ele>
        <time>2024-05-28T11:35:54.571Z</time>
      </trkpt>
      <trkpt lat="45.886382991448045" lon="8.725781980901957">
        <ele>512.94</ele>
        <time>2024-05-28T11:35:56.252Z</time>
      </trkpt>
      <trkpt lat="45.8863799739629" lon="8.725756919011474">
        <ele>513.11</ele>
        <time>2024-05-28T11:35:57.933Z</time>
      </trkpt>
      <trkpt lat="45.88637293316424" lon="8.725726995617151">
        <ele>513.28</ele>
        <time>2024-05-28T11:35:59.615Z</time>
      </trkpt>
      <trkpt lat="45.88636698201299" lon="8.725667987018824">
        <ele>513.42</ele>
        <time>2024-05-28T11:36:01.299Z</time>
      </trkpt>
      <trkpt lat="45.88635499589145" lon="8.725636973977089">
        <ele>513.58</ele>
        <time>2024-05-28T11:36:02.983Z</time>
      </trkpt>
      <trkpt lat="45.886344937607646" lon="8.725607972592115">
        <ele>513.72</ele>
        <time>2024-05-28T11:36:04.668Z</time>
      </trkpt>
      <trkpt lat="45.88633194565773" lon="8.725586934015155">
        <ele>513.85</ele>
        <time>2024-05-28T11:36:06.354Z</time>
      </trkpt>
      <trkpt lat="45.88631694205105" lon="8.725561955943704">
        <ele>513.98</ele>
        <time>2024-05-28T11:36:08.041Z</time>
      </trkpt>
      <trkpt lat="45.88630696758628" lon="8.725534966215491">
        <ele>514.08</ele>
        <time>2024-05-28T11:36:09.728Z</time>
      </trkpt>
      <trkpt lat="45.8862869348377" lon="8.725504959002137">
        <ele>514.19</ele>
        <time>2024-05-28T11:36:11.416Z</time>
      </trkpt>
      <trkpt lat="45.88627193123102" lon="8.725481992587447">
        <ele>514.28</ele>
        <time>2024-05-28T11:36:13.105Z</time>
      </trkpt>
      <trkpt lat="45.886251982301474" lon="8.725457936525345">
        <ele>514.37</ele>
        <time>2024-05-28T11:36:14.795Z</time>
      </trkpt>
      <trkpt lat="45.8862369786948" lon="8.72542792931199">
        <ele>514.44</ele>
        <time>2024-05-28T11:36:16.486Z</time>
      </trkpt>
      <trkpt lat="45.88622692041099" lon="8.725396916270256">
        <ele>514.49</ele>
        <time>2024-05-28T11:36:18.177Z</time>
      </trkpt>
      <trkpt lat="45.886209988966584" lon="8.725369926542044">
        <ele>514.54</ele>
        <time>2024-05-28T11:36:19.869Z</time>
      </trkpt>
      <trkpt lat="45.88619791902602" lon="8.725342936813831">
        <ele>514.57</ele>
        <time>2024-05-28T11:36:21.562Z</time>
      </trkpt>
      <trkpt lat="45.88618794456124" lon="8.725302955135703">
        <ele>514.58</ele>
        <time>2024-05-28T11:36:23.256Z</time>
      </trkpt>
      <trkpt lat="45.886171935126185" lon="8.725276971235871">
        <ele>514.6</ele>
        <time>2024-05-28T11:36:24.951Z</time>
      </trkpt>
      <trkpt lat="45.88616196066141" lon="8.72525199316442">
        <ele>514.6</ele>
        <time>2024-05-28T11:36:26.647Z</time>
      </trkpt>
      <trkpt lat="45.886146957054734" lon="8.72521192766726">
        <ele>514.59</ele>
        <time>2024-05-28T11:36:28.344Z</time>
      </trkpt>
      <trkpt lat="45.886129941791296" lon="8.725186949595809">
        <ele>514.59</ele>
        <time>2024-05-28T11:36:30.041Z</time>
      </trkpt>
      <trkpt lat="45.88611795566976" lon="8.725166916847229">
        <ele>514.57</ele>
        <time>2024-05-28T11:36:31.739Z</time>
      </trkpt>
      <trkpt lat="45.88609498925507" lon="8.72512492351234">
        <ele>514.54</ele>
        <time>2024-05-28T11:36:33.438Z</time>
      </trkpt>
      <trkpt lat="45.886084930971265" lon="8.72510195709765">
        <ele>514.51</ele>
        <time>2024-05-28T11:36:35.138Z</time>
      </trkpt>
      <trkpt lat="45.88606699369848" lon="8.725077984854579">
        <ele>514.48</ele>
        <time>2024-05-28T11:36:36.839Z</time>
      </trkpt>
      <trkpt lat="45.88604997843504" lon="8.725052922964096">
        <ele>514.43</ele>
        <time>2024-05-28T11:36:38.541Z</time>
      </trkpt>
      <trkpt lat="45.88603497482836" lon="8.725031968206167">
        <ele>514.38</ele>
        <time>2024-05-28T11:36:40.243Z</time>
      </trkpt>
      <trkpt lat="45.88601494207978" lon="8.724999949336052">
        <ele>514.33</ele>
        <time>2024-05-28T11:36:41.946Z</time>
      </trkpt>
      <trkpt lat="45.885999938473105" lon="8.724976982921362">
        <ele>514.26</ele>
        <time>2024-05-28T11:36:43.650Z</time>
      </trkpt>
      <trkpt lat="45.88597294874489" lon="8.724942952394485">
        <ele>514.2</ele>
        <time>2024-05-28T11:36:45.355Z</time>
      </trkpt>
      <trkpt lat="45.885957945138216" lon="8.724922919645905">
        <ele>514.13</ele>
        <time>2024-05-28T11:36:47.061Z</time>
      </trkpt>
      <trkpt lat="45.885934978723526" lon="8.724896935746074">
        <ele>514.05</ele>
        <time>2024-05-28T11:36:48.768Z</time>
      </trkpt>
      <trkpt lat="45.88591695763171" lon="8.724862989038229">
        <ele>513.96</ele>
        <time>2024-05-28T11:36:50.476Z</time>
      </trkpt>
      <trkpt lat="45.88589298538864" lon="8.724834993481636">
        <ele>513.86</ele>
        <time>2024-05-28T11:36:52.185Z</time>
      </trkpt>
      <trkpt lat="45.885867923498154" lon="8.724814960733056">
        <ele>513.77</ele>
        <time>2024-05-28T11:36:53.895Z</time>
      </trkpt>
      <trkpt lat="45.88583992794156" lon="8.724789982661605">
        <ele>513.67</ele>
        <time>2024-05-28T11:36:55.606Z</time>
      </trkpt>
      <trkpt lat="45.88581997901201" lon="8.724767938256264">
        <ele>513.56</ele>
        <time>2024-05-28T11:36:57.318Z</time>
      </trkpt>
      <trkpt lat="45.885802963748574" lon="8.724744971841574">
        <ele>513.44</ele>
        <time>2024-05-28T11:36:59.031Z</time>
      </trkpt>
      <trkpt lat="45.88579198345542" lon="8.724722927436233">
        <ele>513.31</ele>
        <time>2024-05-28T11:37:00.744Z</time>
      </trkpt>
      <trkpt lat="45.88577195070684" lon="8.724709935486317">
        <ele>513.19</ele>
        <time>2024-05-28T11:37:02.458Z</time>
      </trkpt>
      <trkpt lat="45.88574999012053" lon="8.724697949364781">
        <ele>513.07</ele>
        <time>2024-05-28T11:37:04.173Z</time>
      </trkpt>
      <trkpt lat="45.88571193628013" lon="8.724682945758104">
        <ele>512.95</ele>
        <time>2024-05-28T11:37:05.889Z</time>
      </trkpt>
      <trkpt lat="45.88569492101669" lon="8.724669953808188">
        <ele>512.82</ele>
        <time>2024-05-28T11:37:07.606Z</time>
      </trkpt>
      <trkpt lat="45.885676983743906" lon="8.724657967686653">
        <ele>512.68</ele>
        <time>2024-05-28T11:37:09.323Z</time>
      </trkpt>
      <trkpt lat="45.885649994015694" lon="8.724636929109693">
        <ele>512.53</ele>
        <time>2024-05-28T11:37:11.041Z</time>
      </trkpt>
      <trkpt lat="45.88562794961035" lon="8.724611951038241">
        <ele>512.36</ele>
        <time>2024-05-28T11:37:12.760Z</time>
      </trkpt>
      <trkpt lat="45.885589979588985" lon="8.724594935774803">
        <ele>512.21</ele>
        <time>2024-05-28T11:37:14.481Z</time>
      </trkpt>
      <trkpt lat="45.88555494323373" lon="8.724577920511365">
        <ele>512.05</ele>
        <time>2024-05-28T11:37:16.203Z</time>
      </trkpt>
      <trkpt lat="45.88553499430418" lon="8.724564928561449">
        <ele>511.88</ele>
        <time>2024-05-28T11:37:17.926Z</time>
      </trkpt>
      <trkpt lat="45.88551294989884" lon="8.724554954096675">
        <ele>511.71</ele>
        <time>2024-05-28T11:37:19.649Z</time>
      </trkpt>
      <trkpt lat="45.88549291715026" lon="8.724537938833237">
        <ele>511.53</ele>
        <time>2024-05-28T11:37:21.373Z</time>
      </trkpt>
      <trkpt lat="45.88547196239233" lon="8.724517989903688">
        <ele>511.35</ele>
        <time>2024-05-28T11:37:23.098Z</time>
      </trkpt>
      <trkpt lat="45.88544799014926" lon="8.72449996881187">
        <ele>511.17</ele>
        <time>2024-05-28T11:37:24.824Z</time>
      </trkpt>
      <trkpt lat="45.88543298654258" lon="8.72447993606329">
        <ele>510.98</ele>
        <time>2024-05-28T11:37:26.550Z</time>
      </trkpt>
      <trkpt lat="45.885416977107525" lon="8.724459987133741">
        <ele>510.79</ele>
        <time>2024-05-28T11:37:28.277Z</time>
      </trkpt>
      <trkpt lat="45.88540691882372" lon="8.72443693690002">
        <ele>510.59</ele>
        <time>2024-05-28T11:37:30.005Z</time>
      </trkpt>
      <trkpt lat="45.885391999036074" lon="8.724411958828568">
        <ele>510.39</ele>
        <time>2024-05-28T11:37:31.734Z</time>
      </trkpt>
      <trkpt lat="45.885374983772635" lon="8.724392931908369">
        <ele>510.2</ele>
        <time>2024-05-28T11:37:33.463Z</time>
      </trkpt>
      <trkpt lat="45.88535998016596" lon="8.72437197715044">
        <ele>510.01</ele>
        <time>2024-05-28T11:37:35.193Z</time>
      </trkpt>
      <trkpt lat="45.88534992188215" lon="8.724344987422228">
        <ele>509.81</ele>
        <time>2024-05-28T11:37:36.924Z</time>
      </trkpt>
      <trkpt lat="45.88533692993224" lon="8.724319925531745">
        <ele>509.61</ele>
        <time>2024-05-28T11:37:38.655Z</time>
      </trkpt>
      <trkpt lat="45.88531999848783" lon="8.724296959117055">
        <ele>509.42</ele>
        <time>2024-05-28T11:37:40.387Z</time>
      </trkpt>
      <trkpt lat="45.88530792854726" lon="8.724272986873984">
        <ele>509.23</ele>
        <time>2024-05-28T11:37:42.120Z</time>
      </trkpt>
      <trkpt lat="45.885287979617715" lon="8.724247924983501">
        <ele>509.04</ele>
        <time>2024-05-28T11:37:43.854Z</time>
      </trkpt>
      <trkpt lat="45.885269958525896" lon="8.724226970225573">
        <ele>508.86</ele>
        <time>2024-05-28T11:37:45.589Z</time>
      </trkpt>
      <trkpt lat="45.885249925777316" lon="8.724202997982502">
        <ele>508.69</ele>
        <time>2024-05-28T11:37:47.324Z</time>
      </trkpt>
      <trkpt lat="45.88523492217064" lon="8.724181959405541">
        <ele>508.52</ele>
        <time>2024-05-28T11:37:49.060Z</time>
      </trkpt>
      <trkpt lat="45.88521497324109" lon="8.724146923050284">
        <ele>508.35</ele>
        <time>2024-05-28T11:37:50.797Z</time>
      </trkpt>
      <trkpt lat="45.885199969634414" lon="8.72411792166531">
        <ele>508.18</ele>
        <time>2024-05-28T11:37:52.535Z</time>
      </trkpt>
      <trkpt lat="45.88517691940069" lon="8.724089926108718">
        <ele>508.02</ele>
        <time>2024-05-28T11:37:54.274Z</time>
      </trkpt>
      <trkpt lat="45.88514498434961" lon="8.724062936380506">
        <ele>507.87</ele>
        <time>2024-05-28T11:37:56.014Z</time>
      </trkpt>
      <trkpt lat="45.885119922459126" lon="8.724036952480674">
        <ele>507.72</ele>
        <time>2024-05-28T11:37:57.755Z</time>
      </trkpt>
      <trkpt lat="45.885096956044436" lon="8.724001999944448">
        <ele>507.57</ele>
        <time>2024-05-28T11:37:59.497Z</time>
      </trkpt>
      <trkpt lat="45.885079940781" lon="8.723969981074333">
        <ele>507.42</ele>
        <time>2024-05-28T11:38:01.240Z</time>
      </trkpt>
      <trkpt lat="45.88506191968918" lon="8.72394299134612">
        <ele>507.27</ele>
        <time>2024-05-28T11:38:02.984Z</time>
      </trkpt>
      <trkpt lat="45.88504498824477" lon="8.723916923627257">
        <ele>507.13</ele>
        <time>2024-05-28T11:38:04.729Z</time>
      </trkpt>
      <trkpt lat="45.88501992635429" lon="8.723896974697709">
        <ele>507.0</ele>
        <time>2024-05-28T11:38:06.475Z</time>
      </trkpt>
      <trkpt lat="45.88499494828284" lon="8.723876941949129">
        <ele>506.87</ele>
        <time>2024-05-28T11:38:08.222Z</time>
      </trkpt>
      <trkpt lat="45.88497499935329" lon="8.72385699301958">
        <ele>506.75</ele>
        <time>2024-05-28T11:38:09.970Z</time>
      </trkpt>
      <trkpt lat="45.884946919977665" lon="8.723839977756143">
        <ele>506.63</ele>
        <time>2024-05-28T11:38:11.719Z</time>
      </trkpt>
      <trkpt lat="45.88491993024945" lon="8.723819945007563">
        <ele>506.51</ele>
        <time>2024-05-28T11:38:13.469Z</time>
      </trkpt>
      <trkpt lat="45.884901992976665" lon="8.723799996078014">
        <ele>506.4</ele>
        <time>2024-05-28T11:38:15.220Z</time>
      </trkpt>
      <trkpt lat="45.88488497771323" lon="8.723784992471337">
        <ele>506.28</ele>
        <time>2024-05-28T11:38:16.971Z</time>
      </trkpt>
      <trkpt lat="45.884862933307886" lon="8.723764959722757">
        <ele>506.17</ele>
        <time>2024-05-28T11:38:18.723Z</time>
      </trkpt>
      <trkpt lat="45.88484692387283" lon="8.723741993308067">
        <ele>506.06</ele>
        <time>2024-05-28T11:38:20.476Z</time>
      </trkpt>
      <trkpt lat="45.88483192026615" lon="8.723721960559487">
        <ele>505.95</ele>
        <time>2024-05-28T11:38:22.230Z</time>
      </trkpt>
      <trkpt lat="45.884814988821745" lon="8.723697988316417">
        <ele>505.83</ele>
        <time>2024-05-28T11:38:23.984Z</time>
      </trkpt>
      <trkpt lat="45.88479797355831" lon="8.723676949739456">
        <ele>505.72</ele>
        <time>2024-05-28T11:38:25.739Z</time>
      </trkpt>
      <trkpt lat="45.884776934981346" lon="8.723652977496386">
        <ele>505.6</ele>
        <time>2024-05-28T11:38:27.495Z</time>
      </trkpt>
      <trkpt lat="45.88475799188018" lon="8.723636968061328">
        <ele>505.5</ele>
        <time>2024-05-28T11:38:29.252Z</time>
      </trkpt>
      <trkpt lat="45.88473494164646" lon="8.723617941141129">
        <ele>505.39</ele>
        <time>2024-05-28T11:38:31.010Z</time>
      </trkpt>
      <trkpt lat="45.88469697162509" lon="8.723586928099394">
        <ele>505.28</ele>
        <time>2024-05-28T11:38:32.769Z</time>
      </trkpt>
      <trkpt lat="45.88467492721975" lon="8.72357695363462">
        <ele>505.18</ele>
        <time>2024-05-28T11:38:34.529Z</time>
      </trkpt>
      <trkpt lat="45.884647937491536" lon="8.723567984998226">
        <ele>505.09</ele>
        <time>2024-05-28T11:38:36.290Z</time>
      </trkpt>
      <trkpt lat="45.88462698273361" lon="8.723559938371181">
        <ele>504.99</ele>
        <time>2024-05-28T11:38:38.051Z</time>
      </trkpt>
      <trkpt lat="45.884602926671505" lon="8.723552981391549">
        <ele>504.9</ele>
        <time>2024-05-28T11:38:39.813Z</time>
      </trkpt>
      <trkpt lat="45.88458498939872" lon="8.723541917279363">
        <ele>504.81</ele>
        <time>2024-05-28T11:38:41.576Z</time>
      </trkpt>
      <trkpt lat="45.884559927508235" lon="8.723522974178195">
        <ele>504.71</ele>
        <time>2024-05-28T11:38:43.340Z</time>
      </trkpt>
      <trkpt lat="45.884536961093545" lon="8.723507970571518">
        <ele>504.62</ele>
        <time>2024-05-28T11:38:45.105Z</time>
      </trkpt>
      <trkpt lat="45.884494967758656" lon="8.72349196113646">
        <ele>504.53</ele>
        <time>2024-05-28T11:38:46.871Z</time>
      </trkpt>
      <trkpt lat="45.88445699773729" lon="8.723486931994557">
        <ele>504.46</ele>
        <time>2024-05-28T11:38:48.638Z</time>
      </trkpt>
      <trkpt lat="45.88443495333195" lon="8.723479975014925">
        <ele>504.37</ele>
        <time>2024-05-28T11:38:50.406Z</time>
      </trkpt>
      <trkpt lat="45.88439991697669" lon="8.72346698306501">
        <ele>504.29</ele>
        <time>2024-05-28T11:38:52.175Z</time>
      </trkpt>
      <trkpt lat="45.884366976097226" lon="8.723459942266345">
        <ele>504.21</ele>
        <time>2024-05-28T11:38:53.946Z</time>
      </trkpt>
      <trkpt lat="45.88433797471225" lon="8.723441921174526">
        <ele>504.12</ele>
        <time>2024-05-28T11:38:55.718Z</time>
      </trkpt>
      <trkpt lat="45.88430696167052" lon="8.72342792339623">
        <ele>504.03</ele>
        <time>2024-05-28T11:38:57.491Z</time>
      </trkpt>
      <trkpt lat="45.88428298942745" lon="8.723412919789553">
        <ele>503.94</ele>
        <time>2024-05-28T11:38:59.265Z</time>
      </trkpt>
      <trkpt lat="45.88426496833563" lon="8.723389953374863">
        <ele>503.84</ele>
        <time>2024-05-28T11:39:01.039Z</time>
      </trkpt>
      <trkpt lat="45.88424493558705" lon="8.723374949768186">
        <ele>503.75</ele>
        <time>2024-05-28T11:39:02.814Z</time>
      </trkpt>
      <trkpt lat="45.88422297500074" lon="8.723354917019606">
        <ele>503.65</ele>
        <time>2024-05-28T11:39:04.590Z</time>
      </trkpt>
      <trkpt lat="45.88420294225216" lon="8.72333999723196">
        <ele>503.56</ele>
        <time>2024-05-28T11:39:06.367Z</time>
      </trkpt>
      <trkpt lat="45.88418793864548" lon="8.723324993625283">
        <ele>503.46</ele>
        <time>2024-05-28T11:39:08.144Z</time>
      </trkpt>
      <trkpt lat="45.88416497223079" lon="8.723304960876703">
        <ele>503.37</ele>
        <time>2024-05-28T11:39:09.922Z</time>
      </trkpt>
      <trkpt lat="45.88414695113897" lon="8.723282916471362">
        <ele>503.27</ele>
        <time>2024-05-28T11:39:11.701Z</time>
      </trkpt>
      <trkpt lat="45.88412691839039" lon="8.723264979198575">
        <ele>503.18</ele>
        <time>2024-05-28T11:39:13.481Z</time>
      </trkpt>
      <trkpt lat="45.884107975289226" lon="8.723249975591898">
        <ele>503.09</ele>
        <time>2024-05-28T11:39:15.262Z</time>
      </trkpt>
      <trkpt lat="45.884084925055504" lon="8.723227931186557">
        <ele>503.0</ele>
        <time>2024-05-28T11:39:17.043Z</time>
      </trkpt>
      <trkpt lat="45.88406698778272" lon="8.723204964771867">
        <ele>502.91</ele>
        <time>2024-05-28T11:39:18.825Z</time>
      </trkpt>
      <trkpt lat="45.884042931720614" lon="8.723187949508429">
        <ele>502.82</ele>
        <time>2024-05-28T11:39:20.608Z</time>
      </trkpt>
      <trkpt lat="45.88402499444783" lon="8.7231669947505">
        <ele>502.74</ele>
        <time>2024-05-28T11:39:22.392Z</time>
      </trkpt>
      <trkpt lat="45.88400496169925" lon="8.723149979487062">
        <ele>502.66</ele>
        <time>2024-05-28T11:39:24.177Z</time>
      </trkpt>
      <trkpt lat="45.88398995809257" lon="8.723131958395243">
        <ele>502.59</ele>
        <time>2024-05-28T11:39:25.962Z</time>
      </trkpt>
      <trkpt lat="45.88396992534399" lon="8.723116954788566">
        <ele>502.52</ele>
        <time>2024-05-28T11:39:27.748Z</time>
      </trkpt>
      <trkpt lat="45.88394796475768" lon="8.723099939525127">
        <ele>502.45</ele>
        <time>2024-05-28T11:39:29.535Z</time>
      </trkpt>
      <trkpt lat="45.88392499834299" lon="8.72307999059558">
        <ele>502.4</ele>
        <time>2024-05-28T11:39:31.323Z</time>
      </trkpt>
      <trkpt lat="45.88390295393765" lon="8.72306196950376">
        <ele>502.35</ele>
        <time>2024-05-28T11:39:33.112Z</time>
      </trkpt>
      <trkpt lat="45.88388694450259" lon="8.723044954240322">
        <ele>502.3</ele>
        <time>2024-05-28T11:39:34.901Z</time>
      </trkpt>
      <trkpt lat="45.88386791758239" lon="8.723021987825632">
        <ele>502.27</ele>
        <time>2024-05-28T11:39:36.691Z</time>
      </trkpt>
      <trkpt lat="45.88385199196637" lon="8.722999943420291">
        <ele>502.24</ele>
        <time>2024-05-28T11:39:38.482Z</time>
      </trkpt>
      <trkpt lat="45.883829947561026" lon="8.722979994490743">
        <ele>502.22</ele>
        <time>2024-05-28T11:39:40.274Z</time>
      </trkpt>
      <trkpt lat="45.883806981146336" lon="8.722959961742163">
        <ele>502.22</ele>
        <time>2024-05-28T11:39:42.067Z</time>
      </trkpt>
      <trkpt lat="45.88378191925585" lon="8.722941940650344">
        <ele>502.23</ele>
        <time>2024-05-28T11:39:43.861Z</time>
      </trkpt>
      <trkpt lat="45.88375995866954" lon="8.722921991720796">
        <ele>502.25</ele>
        <time>2024-05-28T11:39:45.655Z</time>
      </trkpt>
      <trkpt lat="45.88372995145619" lon="8.722899947315454">
        <ele>502.29</ele>
        <time>2024-05-28T11:39:47.451Z</time>
      </trkpt>
      <trkpt lat="45.88370799086988" lon="8.722879998385906">
        <ele>502.34</ele>
        <time>2024-05-28T11:39:49.247Z</time>
      </trkpt>
      <trkpt lat="45.883681923151016" lon="8.722862983122468">
        <ele>502.39</ele>
        <time>2024-05-28T11:39:51.044Z</time>
      </trkpt>
      <trkpt lat="45.88365996256471" lon="8.722852924838662">
        <ele>502.47</ele>
        <time>2024-05-28T11:39:52.842Z</time>
      </trkpt>
      <trkpt lat="45.883634984493256" lon="8.72284697368741">
        <ele>502.57</ele>
        <time>2024-05-28T11:39:54.641Z</time>
      </trkpt>
      <trkpt lat="45.883611934259534" lon="8.722847979515791">
        <ele>502.68</ele>
        <time>2024-05-28T11:39:56.441Z</time>
      </trkpt>
      <trkpt lat="45.88358695618808" lon="8.722851919010282">
        <ele>502.82</ele>
        <time>2024-05-28T11:39:58.242Z</time>
      </trkpt>
      <trkpt lat="45.88355996645987" lon="8.722851919010282">
        <ele>502.97</ele>
        <time>2024-05-28T11:40:00.044Z</time>
      </trkpt>
      <trkpt lat="45.88353498838842" lon="8.722859965637326">
        <ele>503.14</ele>
        <time>2024-05-28T11:40:01.846Z</time>
      </trkpt>
      <trkpt lat="45.8835169672966" lon="8.722872957587242">
        <ele>503.33</ele>
        <time>2024-05-28T11:40:03.649Z</time>
      </trkpt>
      <trkpt lat="45.883502969518304" lon="8.722916962578893">
        <ele>503.56</ele>
        <time>2024-05-28T11:40:05.453Z</time>
      </trkpt>
      <trkpt lat="45.88349693454802" lon="8.722952920943499">
        <ele>503.81</ele>
        <time>2024-05-28T11:40:07.258Z</time>
      </trkpt>
      <trkpt lat="45.88349693454802" lon="8.723001955077052">
        <ele>504.08</ele>
        <time>2024-05-28T11:40:09.064Z</time>
      </trkpt>
      <trkpt lat="45.883506992831826" lon="8.723044954240322">
        <ele>504.37</ele>
        <time>2024-05-28T11:40:10.871Z</time>
      </trkpt>
      <trkpt lat="45.883506992831826" lon="8.723094994202256">
        <ele>504.68</ele>
        <time>2024-05-28T11:40:12.679Z</time>
      </trkpt>
      <trkpt lat="45.88349299505353" lon="8.723142938688397">
        <ele>505.01</ele>
        <time>2024-05-28T11:40:14.489Z</time>
      </trkpt>
      <trkpt lat="45.88347991928458" lon="8.723184932023287">
        <ele>505.35</ele>
        <time>2024-05-28T11:40:16.300Z</time>
      </trkpt>
      <trkpt lat="45.88346793316305" lon="8.723207982257009">
        <ele>505.7</ele>
        <time>2024-05-28T11:40:18.111Z</time>
      </trkpt>
      <trkpt lat="45.88346499949694" lon="8.72323296032846">
        <ele>506.07</ele>
        <time>2024-05-28T11:40:19.923Z</time>
      </trkpt>
      <trkpt lat="45.88345192372799" lon="8.723272942006588">
        <ele>506.46</ele>
        <time>2024-05-28T11:40:21.736Z</time>
      </trkpt>
      <trkpt lat="45.88343298062682" lon="8.723309990018606">
        <ele>506.87</ele>
        <time>2024-05-28T11:40:23.550Z</time>
      </trkpt>
      <trkpt lat="45.88340297341347" lon="8.723347960039973">
        <ele>507.3</ele>
        <time>2024-05-28T11:40:25.365Z</time>
      </trkpt>
      <trkpt lat="45.88338796980679" lon="8.72336296364665">
        <ele>507.73</ele>
        <time>2024-05-28T11:40:27.181Z</time>
      </trkpt>
      <trkpt lat="45.88336491957307" lon="8.723394982516766">
        <ele>508.18</ele>
        <time>2024-05-28T11:40:28.998Z</time>
      </trkpt>
      <trkpt lat="45.88334295898676" lon="8.723422978073359">
        <ele>508.65</ele>
        <time>2024-05-28T11:40:30.816Z</time>
      </trkpt>
      <trkpt lat="45.88332292623818" lon="8.723439993336797">
        <ele>509.12</ele>
        <time>2024-05-28T11:40:32.635Z</time>
      </trkpt>
      <trkpt lat="45.88330498896539" lon="8.72347192838788">
        <ele>509.62</ele>
        <time>2024-05-28T11:40:34.455Z</time>
      </trkpt>
      <trkpt lat="45.88328495621681" lon="8.723482992500067">
        <ele>510.12</ele>
        <time>2024-05-28T11:40:36.276Z</time>
      </trkpt>
      <trkpt lat="45.883269952610135" lon="8.723499923944473">
        <ele>510.64</ele>
        <time>2024-05-28T11:40:38.097Z</time>
      </trkpt>
      <trkpt lat="45.8832529373467" lon="8.723517945036292">
        <ele>511.17</ele>
        <time>2024-05-28T11:40:39.919Z</time>
      </trkpt>
      <trkpt lat="45.883227959275246" lon="8.723539989441633">
        <ele>511.72</ele>
        <time>2024-05-28T11:40:41.742Z</time>
      </trkpt>
      <trkpt lat="45.88319694623351" lon="8.723561950027943">
        <ele>512.27</ele>
        <time>2024-05-28T11:40:43.566Z</time>
      </trkpt>
      <trkpt lat="45.88317297399044" lon="8.723579971119761">
        <ele>512.84</ele>
        <time>2024-05-28T11:40:45.391Z</time>
      </trkpt>
      <trkpt lat="45.88314799591899" lon="8.723592963069677">
        <ele>513.43</ele>
        <time>2024-05-28T11:40:47.217Z</time>
      </trkpt>
      <trkpt lat="45.88312494568527" lon="8.723601931706071">
        <ele>514.02</ele>
        <time>2024-05-28T11:40:49.044Z</time>
      </trkpt>
      <trkpt lat="45.88310298509896" lon="8.723617941141129">
        <ele>514.64</ele>
        <time>2024-05-28T11:40:50.871Z</time>
      </trkpt>
      <trkpt lat="45.8830869756639" lon="8.723632944747806">
        <ele>515.26</ele>
        <time>2024-05-28T11:40:52.699Z</time>
      </trkpt>
      <trkpt lat="45.883074989542365" lon="8.723651971668005">
        <ele>515.91</ele>
        <time>2024-05-28T11:40:54.528Z</time>
      </trkpt>
      <trkpt lat="45.88307197205722" lon="8.7236849963665">
        <ele>516.57</ele>
        <time>2024-05-28T11:40:56.357Z</time>
      </trkpt>
      <trkpt lat="45.88308295235038" lon="8.723721960559487">
        <ele>517.24</ele>
        <time>2024-05-28T11:40:58.187Z</time>
      </trkpt>
      <trkpt lat="45.88308295235038" lon="8.723756996914744">
        <ele>517.92</ele>
        <time>2024-05-28T11:41:00.018Z</time>
      </trkpt>
      <trkpt lat="45.88308999314904" lon="8.72379194945097">
        <ele>518.62</ele>
        <time>2024-05-28T11:41:01.850Z</time>
      </trkpt>
      <trkpt lat="45.8830869756639" lon="8.723826985806227">
        <ele>519.32</ele>
        <time>2024-05-28T11:41:03.683Z</time>
      </trkpt>
      <trkpt lat="45.8830869756639" lon="8.723862944170833">
        <ele>520.04</ele>
        <time>2024-05-28T11:41:05.517Z</time>
      </trkpt>
      <trkpt lat="45.88308295235038" lon="8.723896974697709">
        <ele>520.76</ele>
        <time>2024-05-28T11:41:07.351Z</time>
      </trkpt>
      <trkpt lat="45.883074989542365" lon="8.723929999396205">
        <ele>521.49</ele>
        <time>2024-05-28T11:41:09.186Z</time>
      </trkpt>
      <trkpt lat="45.88306493125856" lon="8.723976938053966">
        <ele>522.24</ele>
        <time>2024-05-28T11:41:11.022Z</time>
      </trkpt>
      <trkpt lat="45.8830679487437" lon="8.724012980237603">
        <ele>522.99</ele>
        <time>2024-05-28T11:41:12.859Z</time>
      </trkpt>
      <trkpt lat="45.8830679487437" lon="8.724044999107718">
        <ele>523.75</ele>
        <time>2024-05-28T11:41:14.697Z</time>
      </trkpt>
      <trkpt lat="45.883054956793785" lon="8.724064948037267">
        <ele>524.5</ele>
        <time>2024-05-28T11:41:16.536Z</time>
      </trkpt>
      <trkpt lat="45.88303995318711" lon="8.724097972735763">
        <ele>525.26</ele>
        <time>2024-05-28T11:41:18.376Z</time>
      </trkpt>
      <trkpt lat="45.88303995318711" lon="8.724122950807214">
        <ele>526.02</ele>
        <time>2024-05-28T11:41:20.216Z</time>
      </trkpt>
      <trkpt lat="45.88304799981415" lon="8.72415798716247">
        <ele>526.79</ele>
        <time>2024-05-28T11:41:22.057Z</time>
      </trkpt>
      <trkpt lat="45.88305797427893" lon="8.72417994774878">
        <ele>527.55</ele>
        <time>2024-05-28T11:41:23.899Z</time>
      </trkpt>
      <trkpt lat="45.88306493125856" lon="8.724207943305373">
        <ele>528.32</ele>
        <time>2024-05-28T11:41:25.741Z</time>
      </trkpt>
      <trkpt lat="45.88305797427893" lon="8.724232921376824">
        <ele>529.08</ele>
        <time>2024-05-28T11:41:27.584Z</time>
      </trkpt>
      <trkpt lat="45.883036935701966" lon="8.7242669519037">
        <ele>529.85</ele>
        <time>2024-05-28T11:41:29.428Z</time>
      </trkpt>
      <trkpt lat="45.88305193930864" lon="8.724299976602197">
        <ele>530.61</ele>
        <time>2024-05-28T11:41:31.273Z</time>
      </trkpt>
      <trkpt lat="45.883054956793785" lon="8.724326966330409">
        <ele>531.36</ele>
        <time>2024-05-28T11:41:33.119Z</time>
      </trkpt>
      <trkpt lat="45.883054956793785" lon="8.724357979372144">
        <ele>532.11</ele>
        <time>2024-05-28T11:41:34.965Z</time>
      </trkpt>
      <trkpt lat="45.88305797427893" lon="8.724389998242259">
        <ele>532.86</ele>
        <time>2024-05-28T11:41:36.812Z</time>
      </trkpt>
      <trkpt lat="45.883054956793785" lon="8.724417993798852">
        <ele>533.6</ele>
        <time>2024-05-28T11:41:38.660Z</time>
      </trkpt>
      <trkpt lat="45.88305193930864" lon="8.724444983527064">
        <ele>534.34</ele>
        <time>2024-05-28T11:41:40.508Z</time>
      </trkpt>
      <trkpt lat="45.88305193930864" lon="8.72447993606329">
        <ele>535.07</ele>
        <time>2024-05-28T11:41:42.357Z</time>
      </trkpt>
      <trkpt lat="45.883036935701966" lon="8.724511954933405">
        <ele>535.79</ele>
        <time>2024-05-28T11:41:44.207Z</time>
      </trkpt>
      <trkpt lat="45.88303995318711" lon="8.724539950489998">
        <ele>536.49</ele>
        <time>2024-05-28T11:41:46.058Z</time>
      </trkpt>
      <trkpt lat="45.88304498232901" lon="8.724564928561449">
        <ele>537.17</ele>
        <time>2024-05-28T11:41:47.909Z</time>
      </trkpt>
      <trkpt lat="45.88304498232901" lon="8.724596947431564">
        <ele>537.85</ele>
        <time>2024-05-28T11:41:49.761Z</time>
      </trkpt>
      <trkpt lat="45.883032996207476" lon="8.724616980180144">
        <ele>538.51</ele>
        <time>2024-05-28T11:41:51.614Z</time>
      </trkpt>
      <trkpt lat="45.88301992043853" lon="8.724636929109693">
        <ele>539.16</ele>
        <time>2024-05-28T11:41:53.467Z</time>
      </trkpt>
      <trkpt lat="45.88301698677242" lon="8.724662996828556">
        <ele>539.81</ele>
        <time>2024-05-28T11:41:55.321Z</time>
      </trkpt>
      <trkpt lat="45.88301992043853" lon="8.724687974900007">
        <ele>540.43</ele>
        <time>2024-05-28T11:41:57.176Z</time>
      </trkpt>
      <trkpt lat="45.88301698677242" lon="8.72471496462822">
        <ele>541.05</ele>
        <time>2024-05-28T11:41:59.031Z</time>
      </trkpt>
      <trkpt lat="45.88301698677242" lon="8.724744971841574">
        <ele>541.65</ele>
        <time>2024-05-28T11:42:00.887Z</time>
      </trkpt>
      <trkpt lat="45.883012963458896" lon="8.724772967398167">
        <ele>542.24</ele>
        <time>2024-05-28T11:42:02.744Z</time>
      </trkpt>
      <trkpt lat="45.88301992043853" lon="8.724799957126379">
        <ele>542.81</ele>
        <time>2024-05-28T11:42:04.601Z</time>
      </trkpt>
      <trkpt lat="45.883029978722334" lon="8.724821917712688">
        <ele>543.35</ele>
        <time>2024-05-28T11:42:06.459Z</time>
      </trkpt>
      <trkpt lat="45.88304498232901" lon="8.724837927147746">
        <ele>543.88</ele>
        <time>2024-05-28T11:42:08.317Z</time>
      </trkpt>
      <trkpt lat="45.883054956793785" lon="8.724879920482635">
        <ele>544.41</ele>
        <time>2024-05-28T11:42:10.176Z</time>
      </trkpt>
      <trkpt lat="45.88307197205722" lon="8.72490799985826">
        <ele>544.91</ele>
        <time>2024-05-28T11:42:12.036Z</time>
      </trkpt>
      <trkpt lat="45.88308295235038" lon="8.724901964887977">
        <ele>545.37</ele>
        <time>2024-05-28T11:42:13.897Z</time>
      </trkpt>
      <trkpt lat="45.88310298509896" lon="8.724922919645905">
        <ele>545.83</ele>
        <time>2024-05-28T11:42:15.759Z</time>
      </trkpt>
      <trkpt lat="45.883116982877254" lon="8.724956950172782">
        <ele>546.29</ele>
        <time>2024-05-28T11:42:17.621Z</time>
      </trkpt>
      <trkpt lat="45.88312796317041" lon="8.724977988749743">
        <ele>546.72</ele>
        <time>2024-05-28T11:42:19.484Z</time>
      </trkpt>
      <trkpt lat="45.88314497843385" lon="8.725006990134716">
        <ele>547.15</ele>
        <time>2024-05-28T11:42:21.348Z</time>
      </trkpt>
      <trkpt lat="45.88315797038376" lon="8.725022999569774">
        <ele>547.55</ele>
        <time>2024-05-28T11:42:23.213Z</time>
      </trkpt>
      <trkpt lat="45.88317699730396" lon="8.725051917135715">
        <ele>547.94</ele>
        <time>2024-05-28T11:42:25.078Z</time>
      </trkpt>
      <trkpt lat="45.88318998925388" lon="8.725071949884295">
        <ele>548.32</ele>
        <time>2024-05-28T11:42:26.944Z</time>
      </trkpt>
      <trkpt lat="45.883207926526666" lon="8.725092988461256">
        <ele>548.69</ele>
        <time>2024-05-28T11:42:28.811Z</time>
      </trkpt>
      <trkpt lat="45.883224941790104" lon="8.725109919905663">
        <ele>549.04</ele>
        <time>2024-05-28T11:42:30.679Z</time>
      </trkpt>
      <trkpt lat="45.88324296288192" lon="8.725119978189468">
        <ele>549.37</ele>
        <time>2024-05-28T11:42:32.547Z</time>
      </trkpt>
      <trkpt lat="45.88326693512499" lon="8.725134981796145">
        <ele>549.7</ele>
        <time>2024-05-28T11:42:34.416Z</time>
      </trkpt>
      <trkpt lat="45.88328495621681" lon="8.725151997059584">
        <ele>550.02</ele>
        <time>2024-05-28T11:42:36.286Z</time>
      </trkpt>
      <trkpt lat="45.8833079226315" lon="8.725159959867597">
        <ele>550.33</ele>
        <time>2024-05-28T11:42:38.157Z</time>
      </trkpt>
      <trkpt lat="45.883332984521985" lon="8.725159959867597">
        <ele>550.61</ele>
        <time>2024-05-28T11:42:40.028Z</time>
      </trkpt>
      <trkpt lat="45.88336198590696" lon="8.725176975131035">
        <ele>550.91</ele>
        <time>2024-05-28T11:42:41.900Z</time>
      </trkpt>
      <trkpt lat="45.88339199312031" lon="8.72516993433237">
        <ele>551.17</ele>
        <time>2024-05-28T11:42:43.773Z</time>
      </trkpt>
      <trkpt lat="45.8834099303931" lon="8.725171945989132">
        <ele>551.45</ele>
        <time>2024-05-28T11:42:45.647Z</time>
      </trkpt>
      <trkpt lat="45.88342996314168" lon="8.725177980959415">
        <ele>551.73</ele>
        <time>2024-05-28T11:42:47.522Z</time>
      </trkpt>
      <trkpt lat="45.88344496674836" lon="8.725194996222854">
        <ele>552.03</ele>
        <time>2024-05-28T11:42:49.397Z</time>
      </trkpt>
      <trkpt lat="45.88346793316305" lon="8.725219974294305">
        <ele>552.36</ele>
        <time>2024-05-28T11:42:51.273Z</time>
      </trkpt>
      <trkpt lat="45.88349299505353" lon="8.725224919617176">
        <ele>552.66</ele>
        <time>2024-05-28T11:42:53.150Z</time>
      </trkpt>
      <trkpt lat="45.88351294398308" lon="8.725226931273937">
        <ele>552.96</ele>
        <time>2024-05-28T11:42:55.028Z</time>
      </trkpt>
      <trkpt lat="45.88353498838842" lon="8.725234977900982">
        <ele>553.27</ele>
        <time>2024-05-28T11:42:56.907Z</time>
      </trkpt>
      <trkpt lat="45.883547980338335" lon="8.725236989557743">
        <ele>553.58</ele>
        <time>2024-05-28T11:42:58.786Z</time>
      </trkpt>
      <trkpt lat="45.8835669234395" lon="8.725237995386124">
        <ele>553.9</ele>
        <time>2024-05-28T11:43:00.666Z</time>
      </trkpt>
      <trkpt lat="45.88358695618808" lon="8.725237995386124">
        <ele>554.23</ele>
        <time>2024-05-28T11:43:02.546Z</time>
      </trkpt>
      <trkpt lat="45.8836049772799" lon="8.725221985951066">
        <ele>554.55</ele>
        <time>2024-05-28T11:43:04.427Z</time>
      </trkpt>
      <trkpt lat="45.88362492620945" lon="8.725219974294305">
        <ele>554.91</ele>
        <time>2024-05-28T11:43:06.309Z</time>
      </trkpt>
      <trkpt lat="45.88364294730127" lon="8.725224919617176">
        <ele>555.28</ele>
        <time>2024-05-28T11:43:08.191Z</time>
      </trkpt>
      <trkpt lat="45.88366691954434" lon="8.725229948759079">
        <ele>555.68</ele>
        <time>2024-05-28T11:43:10.074Z</time>
      </trkpt>
      <trkpt lat="45.88369198143482" lon="8.725237995386124">
        <ele>556.09</ele>
        <time>2024-05-28T11:43:11.958Z</time>
      </trkpt>
      <trkpt lat="45.883719976991415" lon="8.72523196041584">
        <ele>556.51</ele>
        <time>2024-05-28T11:43:13.843Z</time>
      </trkpt>
      <trkpt lat="45.883742943406105" lon="8.725229948759079">
        <ele>556.94</ele>
        <time>2024-05-28T11:43:15.729Z</time>
      </trkpt>
      <trkpt lat="45.883764987811446" lon="8.725241934880614">
        <ele>557.41</ele>
        <time>2024-05-28T11:43:17.615Z</time>
      </trkpt>
      <trkpt lat="45.883784936740994" lon="8.725269930437207">
        <ele>557.91</ele>
        <time>2024-05-28T11:43:19.502Z</time>
      </trkpt>
      <trkpt lat="45.883806981146336" lon="8.725289963185787">
        <ele>558.42</ele>
        <time>2024-05-28T11:43:21.390Z</time>
      </trkpt>
      <trkpt lat="45.8838399220258" lon="8.725279988721013">
        <ele>558.93</ele>
        <time>2024-05-28T11:43:23.279Z</time>
      </trkpt>
      <trkpt lat="45.88386196643114" lon="8.725261967629194">
        <ele>559.45</ele>
        <time>2024-05-28T11:43:25.169Z</time>
      </trkpt>
      <trkpt lat="45.88388292118907" lon="8.72525492683053">
        <ele>560.0</ele>
        <time>2024-05-28T11:43:27.060Z</time>
      </trkpt>
      <trkpt lat="45.88390295393765" lon="8.725256938487291">
        <ele>560.58</ele>
        <time>2024-05-28T11:43:28.952Z</time>
      </trkpt>
      <trkpt lat="45.88392198085785" lon="8.72525492683053">
        <ele>561.17</ele>
        <time>2024-05-28T11:43:30.844Z</time>
      </trkpt>
      <trkpt lat="45.88394494727254" lon="8.725246964022517">
        <ele>561.79</ele>
        <time>2024-05-28T11:43:32.737Z</time>
      </trkpt>
      <trkpt lat="45.88397294282913" lon="8.725239923223853">
        <ele>562.43</ele>
        <time>2024-05-28T11:43:34.631Z</time>
      </trkpt>
      <trkpt lat="45.88399297557771" lon="8.725242940708995">
        <ele>563.1</ele>
        <time>2024-05-28T11:43:36.526Z</time>
      </trkpt>
      <trkpt lat="45.88401795364916" lon="8.725256938487291">
        <ele>563.81</ele>
        <time>2024-05-28T11:43:38.422Z</time>
      </trkpt>
      <trkpt lat="45.884039998054504" lon="8.725269930437207">
        <ele>564.53</ele>
        <time>2024-05-28T11:43:40.318Z</time>
      </trkpt>
      <trkpt lat="45.884062964469194" lon="8.725286945700645">
        <ele>565.28</ele>
        <time>2024-05-28T11:43:42.215Z</time>
      </trkpt>
      <trkpt lat="45.884084925055504" lon="8.725304966792464">
        <ele>566.06</ele>
        <time>2024-05-28T11:43:44.113Z</time>
      </trkpt>
      <trkpt lat="45.88410194031894" lon="8.725334974005818">
        <ele>566.86</ele>
        <time>2024-05-28T11:43:46.012Z</time>
      </trkpt>
      <trkpt lat="45.884117949754" lon="8.725347965955734">
        <ele>567.66</ele>
        <time>2024-05-28T11:43:47.912Z</time>
      </trkpt>
      <trkpt lat="45.88413999415934" lon="8.725369926542044">
        <ele>568.5</ele>
        <time>2024-05-28T11:43:49.813Z</time>
      </trkpt>
      <trkpt lat="45.88416497223079" lon="8.725396916270256">
        <ele>569.36</ele>
        <time>2024-05-28T11:43:51.715Z</time>
      </trkpt>
      <trkpt lat="45.88418793864548" lon="8.72542792931199">
        <ele>570.24</ele>
        <time>2024-05-28T11:43:53.618Z</time>
      </trkpt>
      <trkpt lat="45.88419992476702" lon="8.725452991202474">
        <ele>571.13</ele>
        <time>2024-05-28T11:43:55.521Z</time>
      </trkpt>
      <trkpt lat="45.884216940030456" lon="8.725474951788783">
        <ele>572.04</ele>
        <time>2024-05-28T11:43:57.425Z</time>
      </trkpt>
      <trkpt lat="45.88422699831426" lon="8.725501941516995">
        <ele>572.96</ele>
        <time>2024-05-28T11:43:59.330Z</time>
      </trkpt>
      <trkpt lat="45.884236972779036" lon="8.725527925416827">
        <ele>573.89</ele>
        <time>2024-05-28T11:44:01.235Z</time>
      </trkpt>
      <trkpt lat="45.88424795307219" lon="8.725554998964071">
        <ele>574.84</ele>
        <time>2024-05-28T11:44:03.141Z</time>
      </trkpt>
      <trkpt lat="45.884257927536964" lon="8.725582994520664">
        <ele>575.8</ele>
        <time>2024-05-28T11:44:05.048Z</time>
      </trkpt>
      <trkpt lat="45.88426496833563" lon="8.725607972592115">
        <ele>576.77</ele>
        <time>2024-05-28T11:44:06.956Z</time>
      </trkpt>
      <trkpt lat="45.88426798582077" lon="8.72564292512834">
        <ele>577.77</ele>
        <time>2024-05-28T11:44:08.864Z</time>
      </trkpt>
      <trkpt lat="45.88427192531526" lon="8.72568198479712">
        <ele>578.78</ele>
        <time>2024-05-28T11:44:10.773Z</time>
      </trkpt>
      <trkpt lat="45.88428298942745" lon="8.725706962868571">
        <ele>579.77</ele>
        <time>2024-05-28T11:44:12.683Z</time>
      </trkpt>
      <trkpt lat="45.884299920871854" lon="8.725721966475248">
        <ele>580.76</ele>
        <time>2024-05-28T11:44:14.594Z</time>
      </trkpt>
      <trkpt lat="45.88431693613529" lon="8.725739987567067">
        <ele>581.76</ele>
        <time>2024-05-28T11:44:16.505Z</time>
      </trkpt>
      <trkpt lat="45.88430997915566" lon="8.725764965638518">
        <ele>582.77</ele>
        <time>2024-05-28T11:44:18.417Z</time>
      </trkpt>
      <trkpt lat="45.88430696167052" lon="8.72581198811531">
        <ele>583.81</ele>
        <time>2024-05-28T11:44:20.330Z</time>
      </trkpt>
      <trkpt lat="45.88430997915566" lon="8.725839983671904">
        <ele>584.83</ele>
        <time>2024-05-28T11:44:22.244Z</time>
      </trkpt>
      <trkpt lat="45.88432498276234" lon="8.72585498727858">
        <ele>585.83</ele>
        <time>2024-05-28T11:44:24.158Z</time>
      </trkpt>
      <trkpt lat="45.884321965277195" lon="8.725886922329664">
        <ele>586.85</ele>
        <time>2024-05-28T11:44:26.073Z</time>
      </trkpt>
      <trkpt lat="45.884299920871854" lon="8.725921958684921">
        <ele>587.88</ele>
        <time>2024-05-28T11:44:27.989Z</time>
      </trkpt>
      <trkpt lat="45.88428994640708" lon="8.725942997261882">
        <ele>588.88</ele>
        <time>2024-05-28T11:44:29.906Z</time>
      </trkpt>
      <trkpt lat="45.88428994640708" lon="8.725974932312965">
        <ele>589.89</ele>
        <time>2024-05-28T11:44:31.824Z</time>
      </trkpt>
      <trkpt lat="45.884299920871854" lon="8.725996976718307">
        <ele>590.87</ele>
        <time>2024-05-28T11:44:33.742Z</time>
      </trkpt>
      <trkpt lat="45.884302938356996" lon="8.72602991759777">
        <ele>591.85</ele>
        <time>2024-05-28T11:44:35.661Z</time>
      </trkpt>
      <trkpt lat="45.88430997915566" lon="8.726059924811125">
        <ele>592.82</ele>
        <time>2024-05-28T11:44:37.581Z</time>
      </trkpt>
      <trkpt lat="45.884319953620434" lon="8.726094961166382">
        <ele>593.79</ele>
        <time>2024-05-28T11:44:39.502Z</time>
      </trkpt>
      <trkpt lat="45.88431693613529" lon="8.726122956722975">
        <ele>594.73</ele>
        <time>2024-05-28T11:44:41.423Z</time>
      </trkpt>
      <trkpt lat="45.884319953620434" lon="8.726147934794426">
        <ele>595.65</ele>
        <time>2024-05-28T11:44:43.345Z</time>
      </trkpt>
      <trkpt lat="45.884321965277195" lon="8.726169979199767">
        <ele>596.56</ele>
        <time>2024-05-28T11:44:45.267Z</time>
      </trkpt>
      <trkpt lat="45.88430997915566" lon="8.726204931735992">
        <ele>597.46</ele>
        <time>2024-05-28T11:44:47.190Z</time>
      </trkpt>
      <trkpt lat="45.88430997915566" lon="8.726234938949347">
        <ele>598.33</ele>
        <time>2024-05-28T11:44:49.114Z</time>
      </trkpt>
      <trkpt lat="45.88430997915566" lon="8.726261928677559">
        <ele>599.19</ele>
        <time>2024-05-28T11:44:51.039Z</time>
      </trkpt>
      <trkpt lat="45.88430696167052" lon="8.726296965032816">
        <ele>600.03</ele>
        <time>2024-05-28T11:44:52.964Z</time>
      </trkpt>
      <trkpt lat="45.88431693613529" lon="8.726331917569041">
        <ele>600.84</ele>
        <time>2024-05-28T11:44:54.890Z</time>
      </trkpt>
      <trkpt lat="45.884321965277195" lon="8.726352956146002">
        <ele>601.62</ele>
        <time>2024-05-28T11:44:56.817Z</time>
      </trkpt>
      <trkpt lat="45.88432791642845" lon="8.726379945874214">
        <ele>602.39</ele>
        <time>2024-05-28T11:44:58.744Z</time>
      </trkpt>
      <trkpt lat="45.88433797471225" lon="8.726406935602427">
        <ele>603.13</ele>
        <time>2024-05-28T11:45:00.672Z</time>
      </trkpt>
      <trkpt lat="45.88433797471225" lon="8.72643199749291">
        <ele>603.85</ele>
        <time>2024-05-28T11:45:02.601Z</time>
      </trkpt>
      <trkpt lat="45.88432498276234" lon="8.726452952250838">
        <ele>604.55</ele>
        <time>2024-05-28T11:45:04.530Z</time>
      </trkpt>
      <trkpt lat="45.88430997915566" lon="8.72647994197905">
        <ele>605.23</ele>
        <time>2024-05-28T11:45:06.460Z</time>
      </trkpt>
      <trkpt lat="45.884299920871854" lon="8.726504920050502">
        <ele>605.89</ele>
        <time>2024-05-28T11:45:08.391Z</time>
      </trkpt>
      <trkpt lat="45.88428692892194" lon="8.726524952799082">
        <ele>606.52</ele>
        <time>2024-05-28T11:45:10.322Z</time>
      </trkpt>
      <trkpt lat="45.88426496833563" lon="8.726524952799082">
        <ele>607.11</ele>
        <time>2024-05-28T11:45:12.254Z</time>
      </trkpt>
      <trkpt lat="45.88424493558705" lon="8.726526964455843">
        <ele>607.68</ele>
        <time>2024-05-28T11:45:14.187Z</time>
      </trkpt>
      <trkpt lat="45.8842199575156" lon="8.726537944748998">
        <ele>608.24</ele>
        <time>2024-05-28T11:45:16.121Z</time>
      </trkpt>
      <trkpt lat="45.88419799692929" lon="8.726544985547662">
        <ele>608.77</ele>
        <time>2024-05-28T11:45:18.056Z</time>
      </trkpt>
      <trkpt lat="45.88417796418071" lon="8.726546997204423">
        <ele>609.28</ele>
        <time>2024-05-28T11:45:19.991Z</time>
      </trkpt>
      <trkpt lat="45.88415994308889" lon="8.726556971669197">
        <ele>609.79</ele>
        <time>2024-05-28T11:45:21.927Z</time>
      </trkpt>
      <trkpt lat="45.8841369766742" lon="8.726551942527294">
        <ele>610.26</ele>
        <time>2024-05-28T11:45:23.864Z</time>
      </trkpt>
      <trkpt lat="45.884117949754" lon="8.726537944748998">
        <ele>610.71</ele>
        <time>2024-05-28T11:45:25.801Z</time>
      </trkpt>
      <trkpt lat="45.884087942540646" lon="8.726537944748998">
        <ele>611.16</ele>
        <time>2024-05-28T11:45:27.739Z</time>
      </trkpt>
      <trkpt lat="45.884062964469194" lon="8.726539956405759">
        <ele>611.61</ele>
        <time>2024-05-28T11:45:29.678Z</time>
      </trkpt>
      <trkpt lat="45.88403195142746" lon="8.726524952799082">
        <ele>612.03</ele>
        <time>2024-05-28T11:45:31.618Z</time>
      </trkpt>
      <trkpt lat="45.88400496169925" lon="8.726511960849166">
        <ele>612.45</ele>
        <time>2024-05-28T11:45:33.559Z</time>
      </trkpt>
      <trkpt lat="45.88398694060743" lon="8.726504920050502">
        <ele>612.86</ele>
        <time>2024-05-28T11:45:35.501Z</time>
      </trkpt>
      <trkpt lat="45.88396296836436" lon="8.72649796307087">
        <ele>613.26</ele>
        <time>2024-05-28T11:45:37.444Z</time>
      </trkpt>
      <trkpt lat="45.88394494727254" lon="8.726504920050502">
        <ele>613.67</ele>
        <time>2024-05-28T11:45:39.387Z</time>
      </trkpt>
      <trkpt lat="45.88392198085785" lon="8.726526964455843">
        <ele>614.1</ele>
        <time>2024-05-28T11:45:41.331Z</time>
      </trkpt>
      <trkpt lat="45.88389993645251" lon="8.726504920050502">
        <ele>614.49</ele>
        <time>2024-05-28T11:45:43.276Z</time>
      </trkpt>
      <trkpt lat="45.88388292118907" lon="8.726492933928967">
        <ele>614.89</ele>
        <time>2024-05-28T11:45:45.222Z</time>
      </trkpt>
      <trkpt lat="45.88386196643114" lon="8.726504920050502">
        <ele>615.32</ele>
        <time>2024-05-28T11:45:47.168Z</time>
      </trkpt>
      <trkpt lat="45.88383296504617" lon="8.726492933928967">
        <ele>615.73</ele>
        <time>2024-05-28T11:45:49.115Z</time>
      </trkpt>
      <trkpt lat="45.88380999863148" lon="8.726489916443825">
        <ele>616.16</ele>
        <time>2024-05-28T11:45:51.063Z</time>
      </trkpt>
      <trkpt lat="45.88379197753966" lon="8.726506931707263">
        <ele>616.62</ele>
        <time>2024-05-28T11:45:53.012Z</time>
      </trkpt>
      <trkpt lat="45.88377194479108" lon="8.726519923657179">
        <ele>617.1</ele>
        <time>2024-05-28T11:45:54.962Z</time>
      </trkpt>
      <trkpt lat="45.88375291787088" lon="8.726544985547662">
        <ele>617.61</ele>
        <time>2024-05-28T11:45:56.913Z</time>
      </trkpt>
      <trkpt lat="45.883742943406105" lon="8.726579938083887">
        <ele>618.15</ele>
        <time>2024-05-28T11:45:58.864Z</time>
      </trkpt>
      <trkpt lat="45.88372995145619" lon="8.726611956954002">
        <ele>618.69</ele>
        <time>2024-05-28T11:46:00.816Z</time>
      </trkpt>
      <trkpt lat="45.88372693397105" lon="8.726644981652498">
        <ele>619.25</ele>
        <time>2024-05-28T11:46:02.769Z</time>
      </trkpt>
      <trkpt lat="45.88371494784951" lon="8.726674988865852">
        <ele>619.82</ele>
        <time>2024-05-28T11:46:04.723Z</time>
      </trkpt>
      <trkpt lat="45.88370497338474" lon="8.726702984422445">
        <ele>620.4</ele>
        <time>2024-05-28T11:46:06.678Z</time>
      </trkpt>
      <trkpt lat="45.88369198143482" lon="8.726722933351994">
        <ele>620.98</ele>
        <time>2024-05-28T11:46:08.633Z</time>
      </trkpt>
      <trkpt lat="45.883681923151016" lon="8.726747995242476">
        <ele>621.57</ele>
        <time>2024-05-28T11:46:10.589Z</time>
      </trkpt>
      <trkpt lat="45.88367295451462" lon="8.726767944172025">
        <ele>622.17</ele>
        <time>2024-05-28T11:46:12.545Z</time>
      </trkpt>
      <trkpt lat="45.88366298004985" lon="8.726789988577366">
        <ele>622.79</ele>
        <time>2024-05-28T11:46:14.502Z</time>
      </trkpt>
      <trkpt lat="45.88364998809993" lon="8.726809937506914">
        <ele>623.42</ele>
        <time>2024-05-28T11:46:16.460Z</time>
      </trkpt>
      <trkpt lat="45.883634984493256" lon="8.726827958598733">
        <ele>624.05</ele>
        <time>2024-05-28T11:46:18.418Z</time>
      </trkpt>
      <trkpt lat="45.883611934259534" lon="8.726847991347313">
        <ele>624.7</ele>
        <time>2024-05-28T11:46:20.377Z</time>
      </trkpt>
      <trkpt lat="45.88359693065286" lon="8.72686198912561">
        <ele>625.34</ele>
        <time>2024-05-28T11:46:22.337Z</time>
      </trkpt>
      <trkpt lat="45.88357999920845" lon="8.726874981075525">
        <ele>626.0</ele>
        <time>2024-05-28T11:46:24.297Z</time>
      </trkpt>
      <trkpt lat="45.8835669234395" lon="8.726892918348312">
        <ele>626.69</ele>
        <time>2024-05-28T11:46:26.258Z</time>
      </trkpt>
      <trkpt lat="45.883547980338335" lon="8.72690792195499">
        <ele>627.37</ele>
        <time>2024-05-28T11:46:28.220Z</time>
      </trkpt>
      <trkpt lat="45.88353197090328" lon="8.726921919733286">
        <ele>628.07</ele>
        <time>2024-05-28T11:46:30.182Z</time>
      </trkpt>
      <trkpt lat="45.88351294398308" lon="8.726937929168344">
        <ele>628.77</ele>
        <time>2024-05-28T11:46:32.145Z</time>
      </trkpt>
      <trkpt lat="45.88348997756839" lon="8.726954944431782">
        <ele>629.48</ele>
        <time>2024-05-28T11:46:34.109Z</time>
      </trkpt>
      <trkpt lat="45.88347195647657" lon="8.726981934159994">
        <ele>630.22</ele>
        <time>2024-05-28T11:46:36.074Z</time>
      </trkpt>
      <trkpt lat="45.88345494121313" lon="8.726997943595052">
        <ele>630.94</ele>
        <time>2024-05-28T11:46:38.040Z</time>
      </trkpt>
      <trkpt lat="45.88343298062682" lon="8.727012947201729">
        <ele>631.67</ele>
        <time>2024-05-28T11:46:40.006Z</time>
      </trkpt>
      <trkpt lat="45.88341294787824" lon="8.727019988000393">
        <ele>632.39</ele>
        <time>2024-05-28T11:46:41.973Z</time>
      </trkpt>
      <trkpt lat="45.88339199312031" lon="8.727019988000393">
        <ele>633.1</ele>
        <time>2024-05-28T11:46:43.941Z</time>
      </trkpt>
      <trkpt lat="45.88336793705821" lon="8.727022921666503">
        <ele>633.82</ele>
        <time>2024-05-28T11:46:45.910Z</time>
      </trkpt>
      <trkpt lat="45.88334698230028" lon="8.727032979950309">
        <ele>634.55</ele>
        <time>2024-05-28T11:46:47.879Z</time>
      </trkpt>
      <trkpt lat="45.8833269495517" lon="8.727032979950309">
        <ele>635.27</ele>
        <time>2024-05-28T11:46:49.849Z</time>
      </trkpt>
      <trkpt lat="45.883311945945024" lon="8.727021999657154">
        <ele>635.97</ele>
        <time>2024-05-28T11:46:51.820Z</time>
      </trkpt>
      <trkpt lat="45.883294930681586" lon="8.7270369194448">
        <ele>636.72</ele>
        <time>2024-05-28T11:46:53.791Z</time>
      </trkpt>
      <trkpt lat="45.88327297009528" lon="8.727052928879857">
        <ele>637.46</ele>
        <time>2024-05-28T11:46:55.763Z</time>
      </trkpt>
      <trkpt lat="45.88325696066022" lon="8.727071955800056">
        <ele>638.21</ele>
        <time>2024-05-28T11:46:57.736Z</time>
      </trkpt>
      <trkpt lat="45.88323491625488" lon="8.72707991860807">
        <ele>638.94</ele>
        <time>2024-05-28T11:46:59.710Z</time>
      </trkpt>
      <trkpt lat="45.88321496732533" lon="8.727092994377017">
        <ele>639.68</ele>
        <time>2024-05-28T11:47:01.684Z</time>
      </trkpt>
      <trkpt lat="45.88319996371865" lon="8.72709995135665">
        <ele>640.4</ele>
        <time>2024-05-28T11:47:03.659Z</time>
      </trkpt>
      <trkpt lat="45.8831699565053" lon="8.727092994377017">
        <ele>641.1</ele>
        <time>2024-05-28T11:47:05.635Z</time>
      </trkpt>
      <trkpt lat="45.88315193541348" lon="8.727097939699888">
        <ele>641.82</ele>
        <time>2024-05-28T11:47:07.611Z</time>
      </trkpt>
      <trkpt lat="45.88312796317041" lon="8.727111937478185">
        <ele>642.56</ele>
        <time>2024-05-28T11:47:09.588Z</time>
      </trkpt>
      <trkpt lat="45.88310298509896" lon="8.727102968841791">
        <ele>643.26</ele>
        <time>2024-05-28T11:47:11.566Z</time>
      </trkpt>
      <trkpt lat="45.883077923208475" lon="8.727102968841791">
        <ele>643.96</ele>
        <time>2024-05-28T11:47:13.545Z</time>
      </trkpt>
      <trkpt lat="45.88305797427893" lon="8.727117972448468">
        <ele>644.68</ele>
        <time>2024-05-28T11:47:15.525Z</time>
      </trkpt>
      <trkpt lat="45.88303995318711" lon="8.727126941084862">
        <ele>645.38</ele>
        <time>2024-05-28T11:47:17.505Z</time>
      </trkpt>
      <trkpt lat="45.883012963458896" lon="8.727132976055145">
        <ele>646.08</ele>
        <time>2024-05-28T11:47:19.486Z</time>
      </trkpt>
      <trkpt lat="45.882991924881935" lon="8.727132976055145">
        <ele>646.74</ele>
        <time>2024-05-28T11:47:21.468Z</time>
      </trkpt>
      <trkpt lat="45.88297197595239" lon="8.727139933034778">
        <ele>647.41</ele>
        <time>2024-05-28T11:47:23.451Z</time>
      </trkpt>
      <trkpt lat="45.882946997880936" lon="8.727152924984694">
        <ele>648.08</ele>
        <time>2024-05-28T11:47:25.435Z</time>
      </trkpt>
      <trkpt lat="45.8829299826175" lon="8.727171951904893">
        <ele>648.74</ele>
        <time>2024-05-28T11:47:27.419Z</time>
      </trkpt>
      <trkpt lat="45.88291196152568" lon="8.727171951904893">
        <ele>649.36</ele>
        <time>2024-05-28T11:47:29.404Z</time>
      </trkpt>
      <trkpt lat="45.8828919287771" lon="8.727184943854809">
        <ele>649.99</ele>
        <time>2024-05-28T11:47:31.390Z</time>
      </trkpt>
      <trkpt lat="45.88287298567593" lon="8.72718695551157">
        <ele>650.59</ele>
        <time>2024-05-28T11:47:33.376Z</time>
      </trkpt>
      <trkpt lat="45.88285295292735" lon="8.727181926369667">
        <ele>651.16</ele>
        <time>2024-05-28T11:47:35.363Z</time>
      </trkpt>
      <trkpt lat="45.88283493183553" lon="8.72716499492526">
        <ele>651.71</ele>
        <time>2024-05-28T11:47:37.351Z</time>
      </trkpt>
      <trkpt lat="45.88281196542084" lon="8.727151919156313">
        <ele>652.25</ele>
        <time>2024-05-28T11:47:39.339Z</time>
      </trkpt>
      <trkpt lat="45.88279293850064" lon="8.727139933034778">
        <ele>652.78</ele>
        <time>2024-05-28T11:47:41.328Z</time>
      </trkpt>
      <trkpt lat="45.88276695460081" lon="8.727136999368668">
        <ele>653.32</ele>
        <time>2024-05-28T11:47:43.318Z</time>
      </trkpt>
      <trkpt lat="45.88274792768061" lon="8.72714295051992">
        <ele>653.85</ele>
        <time>2024-05-28T11:47:45.309Z</time>
      </trkpt>
      <trkpt lat="45.882731918245554" lon="8.727132976055145">
        <ele>654.35</ele>
        <time>2024-05-28T11:47:47.300Z</time>
      </trkpt>
      <trkpt lat="45.882709957659245" lon="8.727127946913242">
        <ele>654.84</ele>
        <time>2024-05-28T11:47:49.292Z</time>
      </trkpt>
      <trkpt lat="45.882686991244555" lon="8.727116966620088">
        <ele>655.31</ele>
        <time>2024-05-28T11:47:51.285Z</time>
      </trkpt>
      <trkpt lat="45.88265798985958" lon="8.727112943306565">
        <ele>655.79</ele>
        <time>2024-05-28T11:47:53.279Z</time>
      </trkpt>
      <trkpt lat="45.88263996876776" lon="8.727072961628437">
        <ele>656.21</ele>
        <time>2024-05-28T11:47:55.274Z</time>
      </trkpt>
      <trkpt lat="45.88261993601918" lon="8.727052928879857">
        <ele>656.64</ele>
        <time>2024-05-28T11:47:57.270Z</time>
      </trkpt>
      <trkpt lat="45.882599987089634" lon="8.727027950808406">
        <ele>657.06</ele>
        <time>2024-05-28T11:47:59.267Z</time>
      </trkpt>
      <trkpt lat="45.882581965997815" lon="8.727026944980025">
        <ele>657.51</ele>
        <time>2024-05-28T11:48:01.264Z</time>
      </trkpt>
      <trkpt lat="45.88255296461284" lon="8.727027950808406">
        <ele>657.96</ele>
        <time>2024-05-28T11:48:03.262Z</time>
      </trkpt>
      <trkpt lat="45.88252999819815" lon="8.727016970515251">
        <ele>658.39</ele>
        <time>2024-05-28T11:48:05.261Z</time>
      </trkpt>
      <trkpt lat="45.88250191882253" lon="8.727011941373348">
        <ele>658.82</ele>
        <time>2024-05-28T11:48:07.261Z</time>
      </trkpt>
      <trkpt lat="45.882476940751076" lon="8.727026944980025">
        <ele>659.28</ele>
        <time>2024-05-28T11:48:09.262Z</time>
      </trkpt>
      <trkpt lat="45.88245699182153" lon="8.727032979950309">
        <ele>659.71</ele>
        <time>2024-05-28T11:48:11.263Z</time>
      </trkpt>
      <trkpt lat="45.88246294297278" lon="8.727059969678521">
        <ele>660.14</ele>
        <time>2024-05-28T11:48:13.265Z</time>
      </trkpt>
      <trkpt lat="45.88243997655809" lon="8.72705795802176">
        <ele>660.56</ele>
        <time>2024-05-28T11:48:15.268Z</time>
      </trkpt>
      <trkpt lat="45.88242195546627" lon="8.727059969678521">
        <ele>660.97</ele>
        <time>2024-05-28T11:48:17.271Z</time>
      </trkpt>
      <trkpt lat="45.88239999487996" lon="8.727062987163663">
        <ele>661.39</ele>
        <time>2024-05-28T11:48:19.275Z</time>
      </trkpt>
      <trkpt lat="45.88237996213138" lon="8.727059969678521">
        <ele>661.79</ele>
        <time>2024-05-28T11:48:21.280Z</time>
      </trkpt>
      <trkpt lat="45.8823599293828" lon="8.72705795802176">
        <ele>662.2</ele>
        <time>2024-05-28T11:48:23.286Z</time>
      </trkpt>
      <trkpt lat="45.882344925776124" lon="8.727047983556986">
        <ele>662.59</ele>
        <time>2024-05-28T11:48:25.292Z</time>
      </trkpt>
      <trkpt lat="45.88231693021953" lon="8.727046977728605">
        <ele>663.0</ele>
        <time>2024-05-28T11:48:27.299Z</time>
      </trkpt>
      <trkpt lat="45.882299998775125" lon="8.72707698494196">
        <ele>663.43</ele>
        <time>2024-05-28T11:48:29.307Z</time>
      </trkpt>
      <trkpt lat="45.882282983511686" lon="8.727086959406734">
        <ele>663.85</ele>
        <time>2024-05-28T11:48:31.316Z</time>
      </trkpt>
      <trkpt lat="45.8822579216212" lon="8.72707991860807">
        <ele>664.25</ele>
        <time>2024-05-28T11:48:33.325Z</time>
      </trkpt>
      <trkpt lat="45.882239984348416" lon="8.727087965235114">
        <ele>664.66</ele>
        <time>2024-05-28T11:48:35.335Z</time>
      </trkpt>
      <trkpt lat="45.882219951599836" lon="8.727096933871508">
        <ele>665.08</ele>
        <time>2024-05-28T11:48:37.346Z</time>
      </trkpt>
      <trkpt lat="45.882199918851256" lon="8.72707799077034">
        <ele>665.47</ele>
        <time>2024-05-28T11:48:39.358Z</time>
      </trkpt>
      <trkpt lat="45.88218499906361" lon="8.727062987163663">
        <ele>665.86</ele>
        <time>2024-05-28T11:48:41.370Z</time>
      </trkpt>
      <trkpt lat="45.88216194882989" lon="8.727059969678521">
        <ele>666.28</ele>
        <time>2024-05-28T11:48:43.383Z</time>
      </trkpt>
      <trkpt lat="45.88214292190969" lon="8.727071955800056">
        <ele>666.71</ele>
        <time>2024-05-28T11:48:45.397Z</time>
      </trkpt>
      <trkpt lat="45.88212297298014" lon="8.727067932486534">
        <ele>667.13</ele>
        <time>2024-05-28T11:48:47.411Z</time>
      </trkpt>
      <trkpt lat="45.88210193440318" lon="8.72705795802176">
        <ele>667.54</ele>
        <time>2024-05-28T11:48:49.426Z</time>
      </trkpt>
      <trkpt lat="45.88208491913974" lon="8.727051923051476">
        <ele>667.97</ele>
        <time>2024-05-28T11:48:51.442Z</time>
      </trkpt>
      <trkpt lat="45.882066981866956" lon="8.727047983556986">
        <ele>668.4</ele>
        <time>2024-05-28T11:48:53.458Z</time>
      </trkpt>
      <trkpt lat="45.88204292580485" lon="8.727041948586702">
        <ele>668.84</ele>
        <time>2024-05-28T11:48:55.475Z</time>
      </trkpt>
      <trkpt lat="45.8820179477334" lon="8.727022921666503">
        <ele>669.26</ele>
        <time>2024-05-28T11:48:57.493Z</time>
      </trkpt>
      <trkpt lat="45.881997998803854" lon="8.727016970515251">
        <ele>669.71</ele>
        <time>2024-05-28T11:48:59.512Z</time>
      </trkpt>
      <trkpt lat="45.88197696022689" lon="8.727012947201729">
        <ele>670.16</ele>
        <time>2024-05-28T11:49:01.531Z</time>
      </trkpt>
      <trkpt lat="45.88194795884192" lon="8.726987969130278">
        <ele>670.6</ele>
        <time>2024-05-28T11:49:03.551Z</time>
      </trkpt>
      <trkpt lat="45.88192499242723" lon="8.726974977180362">
        <ele>671.07</ele>
        <time>2024-05-28T11:49:05.572Z</time>
      </trkpt>
      <trkpt lat="45.88189993053675" lon="8.726966930553317">
        <ele>671.55</ele>
        <time>2024-05-28T11:49:07.594Z</time>
      </trkpt>
      <trkpt lat="45.8818799816072" lon="8.726979922503233">
        <ele>672.07</ele>
        <time>2024-05-28T11:49:09.617Z</time>
      </trkpt>
      <trkpt lat="45.88186799548566" lon="8.727002972736955">
        <ele>672.61</ele>
        <time>2024-05-28T11:49:11.641Z</time>
      </trkpt>
      <trkpt lat="45.88184796273708" lon="8.727016970515251">
        <ele>673.15</ele>
        <time>2024-05-28T11:49:13.665Z</time>
      </trkpt>
      <trkpt lat="45.88182692416012" lon="8.727021999657154">
        <ele>673.7</ele>
        <time>2024-05-28T11:49:15.690Z</time>
      </trkpt>
      <trkpt lat="45.88179993443191" lon="8.727031974121928">
        <ele>674.26</ele>
        <time>2024-05-28T11:49:17.716Z</time>
      </trkpt>
      <trkpt lat="45.88178199715912" lon="8.7270369194448">
        <ele>674.83</ele>
        <time>2024-05-28T11:49:19.743Z</time>
      </trkpt>
      <trkpt lat="45.88176196441054" lon="8.72703792527318">
        <ele>675.42</ele>
        <time>2024-05-28T11:49:21.770Z</time>
      </trkpt>
      <trkpt lat="45.881746960803866" lon="8.727046977728605">
        <ele>676.02</ele>
        <time>2024-05-28T11:49:23.798Z</time>
      </trkpt>
      <trkpt lat="45.881719971075654" lon="8.727072961628437">
        <ele>676.66</ele>
        <time>2024-05-28T11:49:25.827Z</time>
      </trkpt>
      <trkpt lat="45.881701949983835" lon="8.727072961628437">
        <ele>677.28</ele>
        <time>2024-05-28T11:49:27.856Z</time>
      </trkpt>
      <trkpt lat="45.88166993111372" lon="8.727072961628437">
        <ele>677.91</ele>
        <time>2024-05-28T11:49:29.887Z</time>
      </trkpt>
      <trkpt lat="45.88164696469903" lon="8.727066926658154">
        <ele>678.54</ele>
        <time>2024-05-28T11:49:31.918Z</time>
      </trkpt>
      <trkpt lat="45.88162793777883" lon="8.727052928879857">
        <ele>679.17</ele>
        <time>2024-05-28T11:49:33.950Z</time>
      </trkpt>
      <trkpt lat="45.88160798884928" lon="8.727059969678521">
        <ele>679.84</ele>
        <time>2024-05-28T11:49:35.983Z</time>
      </trkpt>
      <trkpt lat="45.88157999329269" lon="8.727072961628437">
        <ele>680.53</ele>
        <time>2024-05-28T11:49:38.017Z</time>
      </trkpt>
      <trkpt lat="45.881547974422574" lon="8.727086959406734">
        <ele>681.22</ele>
        <time>2024-05-28T11:49:40.052Z</time>
      </trkpt>
      <trkpt lat="45.88152492418885" lon="8.727092994377017">
        <ele>681.91</ele>
        <time>2024-05-28T11:49:42.088Z</time>
      </trkpt>
      <trkpt lat="45.8814999461174" lon="8.72709995135665">
        <ele>682.61</ele>
        <time>2024-05-28T11:49:44.124Z</time>
      </trkpt>
      <trkpt lat="45.88147195056081" lon="8.727117972448468">
        <ele>683.34</ele>
        <time>2024-05-28T11:49:46.161Z</time>
      </trkpt>
      <trkpt lat="45.88143993169069" lon="8.727107997983694">
        <ele>684.04</ele>
        <time>2024-05-28T11:49:48.200Z</time>
      </trkpt>
      <trkpt lat="45.881416965276" lon="8.727112943306565">
        <ele>684.76</ele>
        <time>2024-05-28T11:49:50.239Z</time>
      </trkpt>
      <trkpt lat="45.88138796389103" lon="8.727112943306565">
        <ele>685.49</ele>
        <time>2024-05-28T11:49:52.279Z</time>
      </trkpt>
      <trkpt lat="45.88136499747634" lon="8.727111937478185">
        <ele>686.2</ele>
        <time>2024-05-28T11:49:54.320Z</time>
      </trkpt>
      <trkpt lat="45.881342953071" lon="8.72709995135665">
        <ele>686.9</ele>
        <time>2024-05-28T11:49:56.362Z</time>
      </trkpt>
      <trkpt lat="45.88131194002926" lon="8.727087965235114">
        <ele>687.61</ele>
        <time>2024-05-28T11:49:58.405Z</time>
      </trkpt>
      <trkpt lat="45.88128495030105" lon="8.727072961628437">
        <ele>688.31</ele>
        <time>2024-05-28T11:50:00.449Z</time>
      </trkpt>
      <trkpt lat="45.88126692920923" lon="8.727066926658154">
        <ele>689.01</ele>
        <time>2024-05-28T11:50:02.493Z</time>
      </trkpt>
      <trkpt lat="45.881246980279684" lon="8.72705795802176">
        <ele>689.71</ele>
        <time>2024-05-28T11:50:04.538Z</time>
      </trkpt>
      <trkpt lat="45.88123197667301" lon="8.72707698494196">
        <ele>690.43</ele>
        <time>2024-05-28T11:50:06.584Z</time>
      </trkpt>
      <trkpt lat="45.8812599722296" lon="8.727096933871508">
        <ele>691.09</ele>
        <time>2024-05-28T11:50:08.631Z</time>
      </trkpt>
      <trkpt lat="45.88123993948102" lon="8.72710196301341">
        <ele>691.79</ele>
        <time>2024-05-28T11:50:10.679Z</time>
      </trkpt>
      <trkpt lat="45.88121194392443" lon="8.727107997983694">
        <ele>692.49</ele>
        <time>2024-05-28T11:50:12.728Z</time>
      </trkpt>
      <trkpt lat="45.88117992505431" lon="8.727107997983694">
        <ele>693.18</ele>
        <time>2024-05-28T11:50:14.778Z</time>
      </trkpt>
      <trkpt lat="45.88115192949772" lon="8.727102968841791">
        <ele>693.85</ele>
        <time>2024-05-28T11:50:16.829Z</time>
      </trkpt>
      <trkpt lat="45.88112795725465" lon="8.727092994377017">
        <ele>694.5</ele>
        <time>2024-05-28T11:50:18.880Z</time>
      </trkpt>
      <trkpt lat="45.88111295364797" lon="8.727072961628437">
        <ele>695.12</ele>
        <time>2024-05-28T11:50:20.932Z</time>
      </trkpt>
      <trkpt lat="45.88108998723328" lon="8.727059969678521">
        <ele>695.74</ele>
        <time>2024-05-28T11:50:22.985Z</time>
      </trkpt>
      <trkpt lat="45.8810649253428" lon="8.727052928879857">
        <ele>696.36</ele>
        <time>2024-05-28T11:50:25.039Z</time>
      </trkpt>
      <trkpt lat="45.88104497641325" lon="8.727061981335282">
        <ele>696.99</ele>
        <time>2024-05-28T11:50:27.093Z</time>
      </trkpt>
      <trkpt lat="45.88102997280657" lon="8.72707698494196">
        <ele>697.6</ele>
        <time>2024-05-28T11:50:29.148Z</time>
      </trkpt>
      <trkpt lat="45.88100994005799" lon="8.727087965235114">
        <ele>698.19</ele>
        <time>2024-05-28T11:50:31.204Z</time>
      </trkpt>
      <trkpt lat="45.880994936451316" lon="8.727112943306565">
        <ele>698.78</ele>
        <time>2024-05-28T11:50:33.260Z</time>
      </trkpt>
      <trkpt lat="45.8809679467231" lon="8.727097939699888">
        <ele>699.32</ele>
        <time>2024-05-28T11:50:35.317Z</time>
      </trkpt>
      <trkpt lat="45.88094296865165" lon="8.72707698494196">
        <ele>699.84</ele>
        <time>2024-05-28T11:50:37.375Z</time>
      </trkpt>
      <trkpt lat="45.88092997670174" lon="8.727059969678521">
        <ele>700.34</ele>
        <time>2024-05-28T11:50:39.434Z</time>
      </trkpt>
      <trkpt lat="45.880907932296395" lon="8.727041948586702">
        <ele>700.83</ele>
        <time>2024-05-28T11:50:41.494Z</time>
      </trkpt>
      <trkpt lat="45.88088194839656" lon="8.727041948586702">
        <ele>701.32</ele>
        <time>2024-05-28T11:50:43.555Z</time>
      </trkpt>
      <trkpt lat="45.88085294701159" lon="8.727042954415083">
        <ele>701.8</ele>
        <time>2024-05-28T11:50:45.617Z</time>
      </trkpt>
      <trkpt lat="45.88083199225366" lon="8.727039936929941">
        <ele>702.26</ele>
        <time>2024-05-28T11:50:47.679Z</time>
      </trkpt>
      <trkpt lat="45.88080198504031" lon="8.727032979950309">
        <ele>702.7</ele>
        <time>2024-05-28T11:50:49.742Z</time>
      </trkpt>
      <trkpt lat="45.88076996617019" lon="8.727019988000393">
        <ele>703.12</ele>
        <time>2024-05-28T11:50:51.807Z</time>
      </trkpt>
      <trkpt lat="45.880731996148825" lon="8.727012947201729">
        <ele>703.54</ele>
        <time>2024-05-28T11:50:53.873Z</time>
      </trkpt>
      <trkpt lat="45.88071699254215" lon="8.726997943595052">
        <ele>703.91</ele>
        <time>2024-05-28T11:50:55.939Z</time>
      </trkpt>
      <trkpt lat="45.880689918994904" lon="8.726986963301897">
        <ele>704.28</ele>
        <time>2024-05-28T11:50:58.006Z</time>
      </trkpt>
      <trkpt lat="45.880667958408594" lon="8.726982939988375">
        <ele>704.64</ele>
        <time>2024-05-28T11:51:00.074Z</time>
      </trkpt>
      <trkpt lat="45.880647925660014" lon="8.726981934159994">
        <ele>704.97</ele>
        <time>2024-05-28T11:51:02.143Z</time>
      </trkpt>
      <trkpt lat="45.88063292205334" lon="8.72697195969522">
        <ele>705.28</ele>
        <time>2024-05-28T11:51:04.212Z</time>
      </trkpt>
      <trkpt lat="45.88061699643731" lon="8.72694999910891">
        <ele>705.56</ele>
        <time>2024-05-28T11:51:06.282Z</time>
      </trkpt>
      <trkpt lat="45.880606938153505" lon="8.72692795470357">
        <ele>705.83</ele>
        <time>2024-05-28T11:51:08.353Z</time>
      </trkpt>
      <trkpt lat="45.880581960082054" lon="8.726912951096892">
        <ele>706.1</ele>
        <time>2024-05-28T11:51:10.425Z</time>
      </trkpt>
      <trkpt lat="45.88054994121194" lon="8.72690792195499">
        <ele>706.36</ele>
        <time>2024-05-28T11:51:12.498Z</time>
      </trkpt>
      <trkpt lat="45.88052697479725" lon="8.72690792195499">
        <ele>706.61</ele>
        <time>2024-05-28T11:51:14.571Z</time>
      </trkpt>
      <trkpt lat="45.880497973412275" lon="8.726901970803738">
        <ele>706.85</ele>
        <time>2024-05-28T11:51:16.645Z</time>
      </trkpt>
      <trkpt lat="45.880476934835315" lon="8.726889984682202">
        <ele>707.06</ele>
        <time>2024-05-28T11:51:18.720Z</time>
      </trkpt>
      <trkpt lat="45.88045698590577" lon="8.726882943883538">
        <ele>707.28</ele>
        <time>2024-05-28T11:51:20.796Z</time>
      </trkpt>
      <trkpt lat="45.88042798452079" lon="8.72686198912561">
        <ele>707.47</ele>
        <time>2024-05-28T11:51:22.873Z</time>
      </trkpt>
      <trkpt lat="45.880411975085735" lon="8.726847991347313">
        <ele>707.66</ele>
        <time>2024-05-28T11:51:24.951Z</time>
      </trkpt>
      <trkpt lat="45.88038297370076" lon="8.726834999397397">
        <ele>707.84</ele>
        <time>2024-05-28T11:51:27.030Z</time>
      </trkpt>
      <trkpt lat="45.88035497814417" lon="8.726827958598733">
        <ele>708.03</ele>
        <time>2024-05-28T11:51:29.109Z</time>
      </trkpt>
      <trkpt lat="45.88033494539559" lon="8.72682292945683">
        <ele>708.2</ele>
        <time>2024-05-28T11:51:31.189Z</time>
      </trkpt>
      <trkpt lat="45.88030996732414" lon="8.726812954992056">
        <ele>708.37</ele>
        <time>2024-05-28T11:51:33.270Z</time>
      </trkpt>
      <trkpt lat="45.880282977595925" lon="8.726807925850153">
        <ele>708.53</ele>
        <time>2024-05-28T11:51:35.352Z</time>
      </trkpt>
      <trkpt lat="45.88025498203933" lon="8.726802980527282">
        <ele>708.69</ele>
        <time>2024-05-28T11:51:37.435Z</time>
      </trkpt>
      <trkpt lat="45.88022992014885" lon="8.726797951385379">
        <ele>708.85</ele>
        <time>2024-05-28T11:51:39.519Z</time>
      </trkpt>
      <trkpt lat="45.88020695373416" lon="8.726789988577366">
        <ele>709.0</ele>
        <time>2024-05-28T11:51:41.604Z</time>
      </trkpt>
      <trkpt lat="45.8801719173789" lon="8.72677993029356">
        <ele>709.14</ele>
        <time>2024-05-28T11:51:43.690Z</time>
      </trkpt>
      <trkpt lat="45.88013998232782" lon="8.726792922243476">
        <ele>709.3</ele>
        <time>2024-05-28T11:51:45.777Z</time>
      </trkpt>
      <trkpt lat="45.88011793792248" lon="8.726802980527282">
        <ele>709.45</ele>
        <time>2024-05-28T11:51:47.865Z</time>
      </trkpt>
      <trkpt lat="45.88009497150779" lon="8.726812954992056">
        <ele>709.59</ele>
        <time>2024-05-28T11:51:49.953Z</time>
      </trkpt>
      <trkpt lat="45.880084997043014" lon="8.726849919185042">
        <ele>709.74</ele>
        <time>2024-05-28T11:51:52.042Z</time>
      </trkpt>
      <trkpt lat="45.88005993515253" lon="8.7268849555403">
        <ele>709.89</ele>
        <time>2024-05-28T11:51:54.132Z</time>
      </trkpt>
      <trkpt lat="45.88003998622298" lon="8.726926948875189">
        <ele>710.04</ele>
        <time>2024-05-28T11:51:56.224Z</time>
      </trkpt>
      <trkpt lat="45.88001794181764" lon="8.726954944431782">
        <ele>710.17</ele>
        <time>2024-05-28T11:51:58.317Z</time>
      </trkpt>
      <trkpt lat="45.87999992072582" lon="8.72697195969522">
        <ele>710.29</ele>
        <time>2024-05-28T11:52:00.410Z</time>
      </trkpt>
      <trkpt lat="45.879979971796274" lon="8.726996937766671">
        <ele>710.42</ele>
        <time>2024-05-28T11:52:02.504Z</time>
      </trkpt>
      <trkpt lat="45.879959939047694" lon="8.727019988000393">
        <ele>710.53</ele>
        <time>2024-05-28T11:52:04.599Z</time>
      </trkpt>
      <trkpt lat="45.87995197623968" lon="8.727046977728605">
        <ele>710.65</ele>
        <time>2024-05-28T11:52:06.695Z</time>
      </trkpt>
      <trkpt lat="45.87995197623968" lon="8.72709995135665">
        <ele>710.77</ele>
        <time>2024-05-28T11:52:08.792Z</time>
      </trkpt>
      <trkpt lat="45.87994795292616" lon="8.727126941084862">
        <ele>710.89</ele>
        <time>2024-05-28T11:52:10.890Z</time>
      </trkpt>
      <trkpt lat="45.879941917955875" lon="8.727157954126596">
        <ele>711.0</ele>
        <time>2024-05-28T11:52:12.988Z</time>
      </trkpt>
      <trkpt lat="45.87993496097624" lon="8.72718695551157">
        <ele>711.11</ele>
        <time>2024-05-28T11:52:15.087Z</time>
      </trkpt>
      <trkpt lat="45.8799319434911" lon="8.727219980210066">
        <ele>711.22</ele>
        <time>2024-05-28T11:52:17.187Z</time>
      </trkpt>
      <trkpt lat="45.8799319434911" lon="8.727251999080181">
        <ele>711.33</ele>
        <time>2024-05-28T11:52:19.288Z</time>
      </trkpt>
      <trkpt lat="45.87992792017758" lon="8.727289969101548">
        <ele>711.44</ele>
        <time>2024-05-28T11:52:21.390Z</time>
      </trkpt>
      <trkpt lat="45.87992196902633" lon="8.727314947173">
        <ele>711.53</ele>
        <time>2024-05-28T11:52:23.492Z</time>
      </trkpt>
      <trkpt lat="45.8799129165709" lon="8.727344954386353">
        <ele>711.62</ele>
        <time>2024-05-28T11:52:25.595Z</time>
      </trkpt>
      <trkpt lat="45.879896990954876" lon="8.727376973256469">
        <ele>711.71</ele>
        <time>2024-05-28T11:52:27.699Z</time>
      </trkpt>
      <trkpt lat="45.87987796403468" lon="8.727389965206385">
        <ele>711.79</ele>
        <time>2024-05-28T11:52:29.804Z</time>
      </trkpt>
      <trkpt lat="45.87984192185104" lon="8.727396922186017">
        <ele>711.86</ele>
        <time>2024-05-28T11:52:31.910Z</time>
      </trkpt>
      <trkpt lat="45.87981996126473" lon="8.727399939671159">
        <ele>711.94</ele>
        <time>2024-05-28T11:52:34.016Z</time>
      </trkpt>
      <trkpt lat="45.87979791685939" lon="8.727399939671159">
        <ele>712.0</ele>
        <time>2024-05-28T11:52:36.123Z</time>
      </trkpt>
      <trkpt lat="45.879767993465066" lon="8.727399939671159">
        <ele>712.07</ele>
        <time>2024-05-28T11:52:38.231Z</time>
      </trkpt>
      <trkpt lat="45.87974293157458" lon="8.7274029571563">
        <ele>712.13</ele>
        <time>2024-05-28T11:52:40.340Z</time>
      </trkpt>
      <trkpt lat="45.879701944068074" lon="8.727416954934597">
        <ele>712.19</ele>
        <time>2024-05-28T11:52:42.450Z</time>
      </trkpt>
      <trkpt lat="45.8796729426831" lon="8.727429946884513">
        <ele>712.27</ele>
        <time>2024-05-28T11:52:44.561Z</time>
      </trkpt>
      <trkpt lat="45.87965299375355" lon="8.727442938834429">
        <ele>712.34</ele>
        <time>2024-05-28T11:52:46.673Z</time>
      </trkpt>
      <trkpt lat="45.87963195517659" lon="8.727457942441106">
        <ele>712.42</ele>
        <time>2024-05-28T11:52:48.786Z</time>
      </trkpt>
      <trkpt lat="45.87960194796324" lon="8.727474957704544">
        <ele>712.51</ele>
        <time>2024-05-28T11:52:50.900Z</time>
      </trkpt>
      <trkpt lat="45.87957696989179" lon="8.727482920512557">
        <ele>712.59</ele>
        <time>2024-05-28T11:52:53.015Z</time>
      </trkpt>
      <trkpt lat="45.87954193353653" lon="8.727484932169318">
        <ele>712.66</ele>
        <time>2024-05-28T11:52:55.131Z</time>
      </trkpt>
      <trkpt lat="45.87952198460698" lon="8.727479986846447">
        <ele>712.74</ele>
        <time>2024-05-28T11:52:57.248Z</time>
      </trkpt>
      <trkpt lat="45.87950295768678" lon="8.727477975189686">
        <ele>712.82</ele>
        <time>2024-05-28T11:52:59.365Z</time>
      </trkpt>
      <trkpt lat="45.87947797961533" lon="8.727472946047783">
        <ele>712.9</ele>
        <time>2024-05-28T11:53:01.483Z</time>
      </trkpt>
      <trkpt lat="45.87944193743169" lon="8.727469928562641">
        <ele>712.98</ele>
        <time>2024-05-28T11:53:03.602Z</time>
      </trkpt>
      <trkpt lat="45.87940991856158" lon="8.727472946047783">
        <ele>713.08</ele>
        <time>2024-05-28T11:53:05.723Z</time>
      </trkpt>
      <trkpt lat="45.879377983510494" lon="8.727479986846447">
        <ele>713.18</ele>
        <time>2024-05-28T11:53:07.845Z</time>
      </trkpt>
      <trkpt lat="45.879356944933534" lon="8.727484932169318">
        <ele>713.29</ele>
        <time>2024-05-28T11:53:09.967Z</time>
      </trkpt>
      <trkpt lat="45.87932299822569" lon="8.727489961311221">
        <ele>713.41</ele>
        <time>2024-05-28T11:53:12.090Z</time>
      </trkpt>
      <trkpt lat="45.87930195964873" lon="8.727496918290854">
        <ele>713.52</ele>
        <time>2024-05-28T11:53:14.214Z</time>
      </trkpt>
      <trkpt lat="45.87927999906242" lon="8.727497924119234">
        <ele>713.64</ele>
        <time>2024-05-28T11:53:16.339Z</time>
      </trkpt>
      <trkpt lat="45.87925996631384" lon="8.727497924119234">
        <ele>713.77</ele>
        <time>2024-05-28T11:53:18.465Z</time>
      </trkpt>
      <trkpt lat="45.8792379219085" lon="8.727497924119234">
        <ele>713.9</ele>
        <time>2024-05-28T11:53:20.591Z</time>
      </trkpt>
      <trkpt lat="45.879211938008666" lon="8.727499935775995">
        <ele>714.03</ele>
        <time>2024-05-28T11:53:22.718Z</time>
      </trkpt>
      <trkpt lat="45.87917991913855" lon="8.727504964917898">
        <ele>714.18</ele>
        <time>2024-05-28T11:53:24.846Z</time>
      </trkpt>
      <trkpt lat="45.87914798408747" lon="8.727497924119234">
        <ele>714.32</ele>
        <time>2024-05-28T11:53:26.975Z</time>
      </trkpt>
      <trkpt lat="45.879119988530874" lon="8.727499935775995">
        <ele>714.46</ele>
        <time>2024-05-28T11:53:29.105Z</time>
      </trkpt>
      <trkpt lat="45.87908696383238" lon="8.727497924119234">
        <ele>714.62</ele>
        <time>2024-05-28T11:53:31.236Z</time>
      </trkpt>
      <trkpt lat="45.87906491942704" lon="8.727497924119234">
        <ele>714.77</ele>
        <time>2024-05-28T11:53:33.368Z</time>
      </trkpt>
      <trkpt lat="45.87904195301235" lon="8.727497924119234">
        <ele>714.93</ele>
        <time>2024-05-28T11:53:35.501Z</time>
      </trkpt>
      <trkpt lat="45.87902292609215" lon="8.727502953261137">
        <ele>715.09</ele>
        <time>2024-05-28T11:53:37.634Z</time>
      </trkpt>
      <trkpt lat="45.87899995967746" lon="8.727504964917898">
        <ele>715.26</ele>
        <time>2024-05-28T11:53:39.768Z</time>
      </trkpt>
      <trkpt lat="45.87897498160601" lon="8.72750798240304">
        <ele>715.43</ele>
        <time>2024-05-28T11:53:41.903Z</time>
      </trkpt>
      <trkpt lat="45.878952937200665" lon="8.727509994059801">
        <ele>715.6</ele>
        <time>2024-05-28T11:53:44.039Z</time>
      </trkpt>
      <trkpt lat="45.878907926380634" lon="8.727514939382672">
        <ele>715.78</ele>
        <time>2024-05-28T11:53:46.176Z</time>
      </trkpt>
      <trkpt lat="45.87886995635927" lon="8.727534972131252">
        <ele>715.97</ele>
        <time>2024-05-28T11:53:48.315Z</time>
      </trkpt>
      <trkpt lat="45.878842966631055" lon="8.727544946596026">
        <ele>716.15</ele>
        <time>2024-05-28T11:53:50.455Z</time>
      </trkpt>
      <trkpt lat="45.878821928054094" lon="8.7275549210608">
        <ele>716.32</ele>
        <time>2024-05-28T11:53:52.595Z</time>
      </trkpt>
      <trkpt lat="45.878801979124546" lon="8.727559950202703">
        <ele>716.49</ele>
        <time>2024-05-28T11:53:54.736Z</time>
      </trkpt>
      <trkpt lat="45.87877691723406" lon="8.727564979344606">
        <ele>716.66</ele>
        <time>2024-05-28T11:53:56.878Z</time>
      </trkpt>
      <trkpt lat="45.878757974132895" lon="8.727562967687845">
        <ele>716.82</ele>
        <time>2024-05-28T11:53:59.021Z</time>
      </trkpt>
      <trkpt lat="45.878734923899174" lon="8.727569924667478">
        <ele>716.99</ele>
        <time>2024-05-28T11:54:01.164Z</time>
      </trkpt>
      <trkpt lat="45.87870994582772" lon="8.727589957416058">
        <ele>717.16</ele>
        <time>2024-05-28T11:54:03.308Z</time>
      </trkpt>
      <trkpt lat="45.878689996898174" lon="8.727602949365973">
        <ele>717.32</ele>
        <time>2024-05-28T11:54:05.453Z</time>
      </trkpt>
      <trkpt lat="45.87866493500769" lon="8.727607978507876">
        <ele>717.47</ele>
        <time>2024-05-28T11:54:07.599Z</time>
      </trkpt>
      <trkpt lat="45.878626964986324" lon="8.727619964629412">
        <ele>717.63</ele>
        <time>2024-05-28T11:54:09.746Z</time>
      </trkpt>
      <trkpt lat="45.87859997525811" lon="8.727629939094186">
        <ele>717.78</ele>
        <time>2024-05-28T11:54:11.894Z</time>
      </trkpt>
      <trkpt lat="45.878567956388" lon="8.727647960186005">
        <ele>717.92</ele>
        <time>2024-05-28T11:54:14.043Z</time>
      </trkpt>
      <trkpt lat="45.878546917811036" lon="8.727666987106204">
        <ele>718.06</ele>
        <time>2024-05-28T11:54:16.193Z</time>
      </trkpt>
      <trkpt lat="45.878519928082824" lon="8.727681990712881">
        <ele>718.18</ele>
        <time>2024-05-28T11:54:18.344Z</time>
      </trkpt>
      <trkpt lat="45.878497967496514" lon="8.727699927985668">
        <ele>718.29</ele>
        <time>2024-05-28T11:54:20.496Z</time>
      </trkpt>
      <trkpt lat="45.878479946404696" lon="8.727711997926235">
        <ele>718.39</ele>
        <time>2024-05-28T11:54:22.648Z</time>
      </trkpt>
      <trkpt lat="45.87844298221171" lon="8.727707974612713">
        <ele>718.47</ele>
        <time>2024-05-28T11:54:24.802Z</time>
      </trkpt>
      <trkpt lat="45.878411969169974" lon="8.72770294547081">
        <ele>718.55</ele>
        <time>2024-05-28T11:54:26.957Z</time>
      </trkpt>
      <trkpt lat="45.878392942249775" lon="8.727687941864133">
        <ele>718.61</ele>
        <time>2024-05-28T11:54:29.112Z</time>
      </trkpt>
      <trkpt lat="45.87837693281472" lon="8.727666987106204">
        <ele>718.67</ele>
        <time>2024-05-28T11:54:31.268Z</time>
      </trkpt>
      <trkpt lat="45.87835798971355" lon="8.727629939094186">
        <ele>718.7</ele>
        <time>2024-05-28T11:54:33.425Z</time>
      </trkpt>
      <trkpt lat="45.878344997763634" lon="8.727599931880832">
        <ele>718.73</ele>
        <time>2024-05-28T11:54:35.583Z</time>
      </trkpt>
      <trkpt lat="45.878331921994686" lon="8.7275549210608">
        <ele>718.75</ele>
        <time>2024-05-28T11:54:37.742Z</time>
      </trkpt>
      <trkpt lat="45.878327982500196" lon="8.727512927725911">
        <ele>718.78</ele>
        <time>2024-05-28T11:54:39.902Z</time>
      </trkpt>
      <trkpt lat="45.878324965015054" lon="8.727476969361305">
        <ele>718.8</ele>
        <time>2024-05-28T11:54:42.063Z</time>
      </trkpt>
      <trkpt lat="45.87831993587315" lon="8.727439921349287">
        <ele>718.82</ele>
        <time>2024-05-28T11:54:44.225Z</time>
      </trkpt>
      <trkpt lat="45.87830292060971" lon="8.727407986298203">
        <ele>718.85</ele>
        <time>2024-05-28T11:54:46.388Z</time>
      </trkpt>
      <trkpt lat="45.8782899286598" lon="8.72737999074161">
        <ele>718.88</ele>
        <time>2024-05-28T11:54:48.552Z</time>
      </trkpt>
      <trkpt lat="45.878282971680164" lon="8.727349983528256">
        <ele>718.9</ele>
        <time>2024-05-28T11:54:50.716Z</time>
      </trkpt>
      <trkpt lat="45.87827794253826" lon="8.727311929687858">
        <ele>718.93</ele>
        <time>2024-05-28T11:54:52.881Z</time>
      </trkpt>
      <trkpt lat="45.87826796807349" lon="8.727277982980013">
        <ele>718.96</ele>
        <time>2024-05-28T11:54:55.047Z</time>
      </trkpt>
      <trkpt lat="45.878261933103204" lon="8.727244958281517">
        <ele>719.0</ele>
        <time>2024-05-28T11:54:57.214Z</time>
      </trkpt>
      <trkpt lat="45.878241984173656" lon="8.727211933583021">
        <ele>719.05</ele>
        <time>2024-05-28T11:54:59.382Z</time>
      </trkpt>
      <trkpt lat="45.87822698056698" lon="8.727184943854809">
        <ele>719.11</ele>
        <time>2024-05-28T11:55:01.551Z</time>
      </trkpt>
      <trkpt lat="45.8782069478184" lon="8.727157954126596">
        <ele>719.17</ele>
        <time>2024-05-28T11:55:03.721Z</time>
      </trkpt>
      <trkpt lat="45.87818498723209" lon="8.727126941084862">
        <ele>719.25</ele>
        <time>2024-05-28T11:55:05.892Z</time>
      </trkpt>
      <trkpt lat="45.87816193699837" lon="8.727097939699888">
        <ele>719.33</ele>
        <time>2024-05-28T11:55:08.064Z</time>
      </trkpt>
      <trkpt lat="45.8781429938972" lon="8.727071955800056">
        <ele>719.43</ele>
        <time>2024-05-28T11:55:10.237Z</time>
      </trkpt>
      <trkpt lat="45.87812296114862" lon="8.727041948586702">
        <ele>719.54</ele>
        <time>2024-05-28T11:55:12.411Z</time>
      </trkpt>
      <trkpt lat="45.8781049400568" lon="8.727012947201729">
        <ele>719.67</ele>
        <time>2024-05-28T11:55:14.586Z</time>
      </trkpt>
      <trkpt lat="45.87808499112725" lon="8.726979922503233">
        <ele>719.8</ele>
        <time>2024-05-28T11:55:16.762Z</time>
      </trkpt>
      <trkpt lat="45.878072921186686" lon="8.726946981623769">
        <ele>719.94</ele>
        <time>2024-05-28T11:55:18.938Z</time>
      </trkpt>
      <trkpt lat="45.87805992923677" lon="8.726914962753654">
        <ele>720.09</ele>
        <time>2024-05-28T11:55:21.115Z</time>
      </trkpt>
      <trkpt lat="45.87804299779236" lon="8.726889984682202">
        <ele>720.26</ele>
        <time>2024-05-28T11:55:23.293Z</time>
      </trkpt>
      <trkpt lat="45.878027994185686" lon="8.72686198912561">
        <ele>720.43</ele>
        <time>2024-05-28T11:55:25.472Z</time>
      </trkpt>
      <trkpt lat="45.87801491841674" lon="8.726832987740636">
        <ele>720.62</ele>
        <time>2024-05-28T11:55:27.652Z</time>
      </trkpt>
      <trkpt lat="45.87800192646682" lon="8.72679996304214">
        <ele>720.82</ele>
        <time>2024-05-28T11:55:29.833Z</time>
      </trkpt>
      <trkpt lat="45.87799295783043" lon="8.726774984970689">
        <ele>721.02</ele>
        <time>2024-05-28T11:55:32.014Z</time>
      </trkpt>
      <trkpt lat="45.87797996588051" lon="8.726747995242476">
        <ele>721.24</ele>
        <time>2024-05-28T11:55:34.196Z</time>
      </trkpt>
      <trkpt lat="45.87795993313193" lon="8.726722933351994">
        <ele>721.48</ele>
        <time>2024-05-28T11:55:36.379Z</time>
      </trkpt>
      <trkpt lat="45.877944929525256" lon="8.726702984422445">
        <ele>721.72</ele>
        <time>2024-05-28T11:55:38.563Z</time>
      </trkpt>
      <trkpt lat="45.877921963110566" lon="8.726682951673865">
        <ele>721.98</ele>
        <time>2024-05-28T11:55:40.747Z</time>
      </trkpt>
      <trkpt lat="45.87790293619037" lon="8.726661996915936">
        <ele>722.24</ele>
        <time>2024-05-28T11:55:42.932Z</time>
      </trkpt>
      <trkpt lat="45.87787996977568" lon="8.726639952510595">
        <ele>722.51</ele>
        <time>2024-05-28T11:55:45.118Z</time>
      </trkpt>
      <trkpt lat="45.877864966169" lon="8.726614974439144">
        <ele>722.78</ele>
        <time>2024-05-28T11:55:47.305Z</time>
      </trkpt>
      <trkpt lat="45.87784795090556" lon="8.726589996367693">
        <ele>723.06</ele>
        <time>2024-05-28T11:55:49.493Z</time>
      </trkpt>
      <trkpt lat="45.877832947298884" lon="8.72656493447721">
        <ele>723.35</ele>
        <time>2024-05-28T11:55:51.682Z</time>
      </trkpt>
      <trkpt lat="45.87781693786383" lon="8.72654196806252">
        <ele>723.64</ele>
        <time>2024-05-28T11:55:53.871Z</time>
      </trkpt>
      <trkpt lat="45.87779799476266" lon="8.726519923657179">
        <ele>723.94</ele>
        <time>2024-05-28T11:55:56.061Z</time>
      </trkpt>
      <trkpt lat="45.87778491899371" lon="8.72649796307087">
        <ele>724.23</ele>
        <time>2024-05-28T11:55:58.252Z</time>
      </trkpt>
      <trkpt lat="45.87776497006416" lon="8.726476924493909">
        <ele>724.53</ele>
        <time>2024-05-28T11:56:00.444Z</time>
      </trkpt>
      <trkpt lat="45.877746948972344" lon="8.72645697556436">
        <ele>724.84</ele>
        <time>2024-05-28T11:56:02.636Z</time>
      </trkpt>
      <trkpt lat="45.877729933708906" lon="8.726432919502258">
        <ele>725.14</ele>
        <time>2024-05-28T11:56:04.829Z</time>
      </trkpt>
      <trkpt lat="45.8777079731226" lon="8.726416993886232">
        <ele>725.44</ele>
        <time>2024-05-28T11:56:07.023Z</time>
      </trkpt>
      <trkpt lat="45.87769196368754" lon="8.726399978622794">
        <ele>725.74</ele>
        <time>2024-05-28T11:56:09.218Z</time>
      </trkpt>
      <trkpt lat="45.87767293676734" lon="8.726382963359356">
        <ele>726.04</ele>
        <time>2024-05-28T11:56:11.413Z</time>
      </trkpt>
      <trkpt lat="45.87765298783779" lon="8.726371983066201">
        <ele>726.34</ele>
        <time>2024-05-28T11:56:13.609Z</time>
      </trkpt>
      <trkpt lat="45.87763496674597" lon="8.726359996944666">
        <ele>726.63</ele>
        <time>2024-05-28T11:56:15.806Z</time>
      </trkpt>
      <trkpt lat="45.87761191651225" lon="8.726341975852847">
        <ele>726.92</ele>
        <time>2024-05-28T11:56:18.004Z</time>
      </trkpt>
      <trkpt lat="45.87759297341108" lon="8.72632797807455">
        <ele>727.2</ele>
        <time>2024-05-28T11:56:20.202Z</time>
      </trkpt>
      <trkpt lat="45.8775729406625" lon="8.726319931447506">
        <ele>727.48</ele>
        <time>2024-05-28T11:56:22.401Z</time>
      </trkpt>
      <trkpt lat="45.87754796259105" lon="8.72630693949759">
        <ele>727.75</ele>
        <time>2024-05-28T11:56:24.601Z</time>
      </trkpt>
      <trkpt lat="45.87752792984247" lon="8.726297970861197">
        <ele>728.01</ele>
        <time>2024-05-28T11:56:26.802Z</time>
      </trkpt>
      <trkpt lat="45.87750697508454" lon="8.726286990568042">
        <ele>728.26</ele>
        <time>2024-05-28T11:56:29.003Z</time>
      </trkpt>
      <trkpt lat="45.87748694233596" lon="8.726274920627475">
        <ele>728.5</ele>
        <time>2024-05-28T11:56:31.205Z</time>
      </trkpt>
      <trkpt lat="45.877464981749654" lon="8.72626293450594">
        <ele>728.74</ele>
        <time>2024-05-28T11:56:33.408Z</time>
      </trkpt>
      <trkpt lat="45.87743991985917" lon="8.726254971697927">
        <ele>728.97</ele>
        <time>2024-05-28T11:56:35.612Z</time>
      </trkpt>
      <trkpt lat="45.87741695344448" lon="8.726247930899262">
        <ele>729.19</ele>
        <time>2024-05-28T11:56:37.817Z</time>
      </trkpt>
      <trkpt lat="45.87739499285817" lon="8.72623996809125">
        <ele>729.39</ele>
        <time>2024-05-28T11:56:40.022Z</time>
      </trkpt>
      <trkpt lat="45.87737194262445" lon="8.726232927292585">
        <ele>729.59</ele>
        <time>2024-05-28T11:56:42.228Z</time>
      </trkpt>
      <trkpt lat="45.87734998203814" lon="8.726226976141334">
        <ele>729.78</ele>
        <time>2024-05-28T11:56:44.435Z</time>
      </trkpt>
      <trkpt lat="45.87732693180442" lon="8.726214990019798">
        <ele>729.95</ele>
        <time>2024-05-28T11:56:46.643Z</time>
      </trkpt>
      <trkpt lat="45.87728795595467" lon="8.726199986413121">
        <ele>730.11</ele>
        <time>2024-05-28T11:56:48.852Z</time>
      </trkpt>
      <trkpt lat="45.87726993486285" lon="8.726187916472554">
        <ele>730.26</ele>
        <time>2024-05-28T11:56:51.062Z</time>
      </trkpt>
      <trkpt lat="45.87724696844816" lon="8.726181965321302">
        <ele>730.39</ele>
        <time>2024-05-28T11:56:53.272Z</time>
      </trkpt>
      <trkpt lat="45.87721796706319" lon="8.726174924522638">
        <ele>730.52</ele>
        <time>2024-05-28T11:56:55.483Z</time>
      </trkpt>
      <trkpt lat="45.87719994597137" lon="8.726164950057864">
        <ele>730.63</ele>
        <time>2024-05-28T11:56:57.695Z</time>
      </trkpt>
      <trkpt lat="45.87717697955668" lon="8.726162938401103">
        <ele>730.73</ele>
        <time>2024-05-28T11:56:59.908Z</time>
      </trkpt>
      <trkpt lat="45.8771519176662" lon="8.726157993078232">
        <ele>730.82</ele>
        <time>2024-05-28T11:57:02.122Z</time>
      </trkpt>
      <trkpt lat="45.87711294181645" lon="8.726147934794426">
        <ele>730.89</ele>
        <time>2024-05-28T11:57:04.337Z</time>
      </trkpt>
      <trkpt lat="45.87708997540176" lon="8.726141983643174">
        <ele>730.96</ele>
        <time>2024-05-28T11:57:06.553Z</time>
      </trkpt>
      <trkpt lat="45.87707195430994" lon="8.726139971986413">
        <ele>731.01</ele>
        <time>2024-05-28T11:57:08.769Z</time>
      </trkpt>
      <trkpt lat="45.87704798206687" lon="8.726132931187749">
        <ele>731.05</ele>
        <time>2024-05-28T11:57:10.986Z</time>
      </trkpt>
      <trkpt lat="45.87702996097505" lon="8.726122956722975">
        <ele>731.08</ele>
        <time>2024-05-28T11:57:13.204Z</time>
      </trkpt>
      <trkpt lat="45.87700699456036" lon="8.726117927581072">
        <ele>731.09</ele>
        <time>2024-05-28T11:57:15.423Z</time>
      </trkpt>
      <trkpt lat="45.87698193266988" lon="8.726114993914962">
        <ele>731.1</ele>
        <time>2024-05-28T11:57:17.642Z</time>
      </trkpt>
      <trkpt lat="45.87696198374033" lon="8.726107953116298">
        <ele>731.09</ele>
        <time>2024-05-28T11:57:19.862Z</time>
      </trkpt>
      <trkpt lat="45.87692694738507" lon="8.726089932024479">
        <ele>731.08</ele>
        <time>2024-05-28T11:57:22.083Z</time>
      </trkpt>
      <trkpt lat="45.87690792046487" lon="8.726079957559705">
        <ele>731.05</ele>
        <time>2024-05-28T11:57:24.305Z</time>
      </trkpt>
      <trkpt lat="45.876887971535325" lon="8.72606797143817">
        <ele>731.02</ele>
        <time>2024-05-28T11:57:26.528Z</time>
      </trkpt>
      <trkpt lat="45.876862993463874" lon="8.72604995034635">
        <ele>730.97</ele>
        <time>2024-05-28T11:57:28.752Z</time>
      </trkpt>
      <trkpt lat="45.87683198042214" lon="8.726019943132997">
        <ele>730.92</ele>
        <time>2024-05-28T11:57:30.977Z</time>
      </trkpt>
      <trkpt lat="45.87681194767356" lon="8.726002927869558">
        <ele>730.86</ele>
        <time>2024-05-28T11:57:33.203Z</time>
      </trkpt>
      <trkpt lat="45.87679694406688" lon="8.725989935919642">
        <ele>730.8</ele>
        <time>2024-05-28T11:57:35.429Z</time>
      </trkpt>
      <trkpt lat="45.876776995137334" lon="8.725971998646855">
        <ele>730.73</ele>
        <time>2024-05-28T11:57:37.656Z</time>
      </trkpt>
      <trkpt lat="45.876757968217134" lon="8.725956995040178">
        <ele>730.65</ele>
        <time>2024-05-28T11:57:39.884Z</time>
      </trkpt>
      <trkpt lat="45.87674195878208" lon="8.725942997261882">
        <ele>730.57</ele>
        <time>2024-05-28T11:57:42.112Z</time>
      </trkpt>
      <trkpt lat="45.876716980710626" lon="8.725901925936341">
        <ele>730.48</ele>
        <time>2024-05-28T11:57:44.342Z</time>
      </trkpt>
      <trkpt lat="45.87669292464852" lon="8.725889939814806">
        <ele>730.38</ele>
        <time>2024-05-28T11:57:46.573Z</time>
      </trkpt>
      <trkpt lat="45.876674987375736" lon="8.725874936208129">
        <ele>730.28</ele>
        <time>2024-05-28T11:57:48.804Z</time>
      </trkpt>
      <trkpt lat="45.876654954627156" lon="8.725859932601452">
        <ele>730.18</ele>
        <time>2024-05-28T11:57:51.036Z</time>
      </trkpt>
      <trkpt lat="45.87663693353534" lon="8.725851969793439">
        <ele>730.08</ele>
        <time>2024-05-28T11:57:53.269Z</time>
      </trkpt>
      <trkpt lat="45.87661296129227" lon="8.725841995328665">
        <ele>729.97</ele>
        <time>2024-05-28T11:57:55.502Z</time>
      </trkpt>
      <trkpt lat="45.87659494020045" lon="8.725831937044859">
        <ele>729.86</ele>
        <time>2024-05-28T11:57:57.736Z</time>
      </trkpt>
      <trkpt lat="45.8765749912709" lon="8.725821962580085">
        <ele>729.75</ele>
        <time>2024-05-28T11:57:59.971Z</time>
      </trkpt>
      <trkpt lat="45.87655697017908" lon="8.72581198811531">
        <ele>729.64</ele>
        <time>2024-05-28T11:58:02.206Z</time>
      </trkpt>
      <trkpt lat="45.87653995491564" lon="8.725797990337014">
        <ele>729.52</ele>
        <time>2024-05-28T11:58:04.442Z</time>
      </trkpt>
      <trkpt lat="45.87651992216706" lon="8.725784998387098">
        <ele>729.41</ele>
        <time>2024-05-28T11:58:06.679Z</time>
      </trkpt>
      <trkpt lat="45.876504918560386" lon="8.72577192261815">
        <ele>729.29</ele>
        <time>2024-05-28T11:58:08.916Z</time>
      </trkpt>
      <trkpt lat="45.876481952145696" lon="8.725759936496615">
        <ele>729.17</ele>
        <time>2024-05-28T11:58:11.154Z</time>
      </trkpt>
      <trkpt lat="45.876459991559386" lon="8.72574795037508">
        <ele>729.06</ele>
        <time>2024-05-28T11:58:13.393Z</time>
      </trkpt>
      <trkpt lat="45.876437947154045" lon="8.725737975910306">
        <ele>728.94</ele>
        <time>2024-05-28T11:58:15.633Z</time>
      </trkpt>
      <trkpt lat="45.876414980739355" lon="8.725721966475248">
        <ele>728.83</ele>
        <time>2024-05-28T11:58:17.874Z</time>
      </trkpt>
      <trkpt lat="45.87639796547592" lon="8.725706962868571">
        <ele>728.71</ele>
        <time>2024-05-28T11:58:20.115Z</time>
      </trkpt>
      <trkpt lat="45.87638296186924" lon="8.725692965090275">
        <ele>728.59</ele>
        <time>2024-05-28T11:58:22.357Z</time>
      </trkpt>
      <trkpt lat="45.87635999545455" lon="8.72568198479712">
        <ele>728.48</ele>
        <time>2024-05-28T11:58:24.600Z</time>
      </trkpt>
      <trkpt lat="45.87632495909929" lon="8.725657928735018">
        <ele>728.36</ele>
        <time>2024-05-28T11:58:26.844Z</time>
      </trkpt>
      <trkpt lat="45.8762969635427" lon="8.725631944835186">
        <ele>728.24</ele>
        <time>2024-05-28T11:58:29.089Z</time>
      </trkpt>
      <trkpt lat="45.87627994827926" lon="8.725616941228509">
        <ele>728.12</ele>
        <time>2024-05-28T11:58:31.335Z</time>
      </trkpt>
      <trkpt lat="45.87626192718744" lon="8.725601937621832">
        <ele>728.0</ele>
        <time>2024-05-28T11:58:33.581Z</time>
      </trkpt>
      <trkpt lat="45.876241978257895" lon="8.725591963157058">
        <ele>727.88</ele>
        <time>2024-05-28T11:58:35.828Z</time>
      </trkpt>
      <trkpt lat="45.876222951337695" lon="8.725579977035522">
        <ele>727.76</ele>
        <time>2024-05-28T11:58:38.076Z</time>
      </trkpt>
      <trkpt lat="45.876202918589115" lon="8.725572936236858">
        <ele>727.63</ele>
        <time>2024-05-28T11:58:40.325Z</time>
      </trkpt>
      <trkpt lat="45.87618498131633" lon="8.725566985085607">
        <ele>727.51</ele>
        <time>2024-05-28T11:58:42.574Z</time>
      </trkpt>
      <trkpt lat="45.876161931082606" lon="8.725562961772084">
        <ele>727.38</ele>
        <time>2024-05-28T11:58:44.824Z</time>
      </trkpt>
      <trkpt lat="45.87614298798144" lon="8.725566985085607">
        <ele>727.26</ele>
        <time>2024-05-28T11:58:47.075Z</time>
      </trkpt>
      <trkpt lat="45.87611993774772" lon="8.725562961772084">
        <ele>727.13</ele>
        <time>2024-05-28T11:58:49.326Z</time>
      </trkpt>
      <trkpt lat="45.87609797716141" lon="8.725559944286942">
        <ele>727.01</ele>
        <time>2024-05-28T11:58:51.578Z</time>
      </trkpt>
      <trkpt lat="45.87606696411967" lon="8.725547958165407">
        <ele>726.87</ele>
        <time>2024-05-28T11:58:53.831Z</time>
      </trkpt>
      <trkpt lat="45.8760429918766" lon="8.725529937073588">
        <ele>726.74</ele>
        <time>2024-05-28T11:58:56.085Z</time>
      </trkpt>
      <trkpt lat="45.87601792998612" lon="8.725507976487279">
        <ele>726.59</ele>
        <time>2024-05-28T11:58:58.340Z</time>
      </trkpt>
      <trkpt lat="45.87599697522819" lon="8.725484926253557">
        <ele>726.44</ele>
        <time>2024-05-28T11:59:00.596Z</time>
      </trkpt>
      <trkpt lat="45.875966968014836" lon="8.72546799480915">
        <ele>726.3</ele>
        <time>2024-05-28T11:59:02.853Z</time>
      </trkpt>
      <trkpt lat="45.875944923609495" lon="8.72544796206057">
        <ele>726.14</ele>
        <time>2024-05-28T11:59:05.111Z</time>
      </trkpt>
      <trkpt lat="45.875921957194805" lon="8.72542499564588">
        <ele>725.98</ele>
        <time>2024-05-28T11:59:07.370Z</time>
      </trkpt>
      <trkpt lat="45.875902930274606" lon="8.72540295124054">
        <ele>725.81</ele>
        <time>2024-05-28T11:59:09.630Z</time>
      </trkpt>
      <trkpt lat="45.875879963859916" lon="8.72538291849196">
        <ele>725.64</ele>
        <time>2024-05-28T11:59:11.891Z</time>
      </trkpt>
      <trkpt lat="45.875857919454575" lon="8.725369926542044">
        <ele>725.47</ele>
        <time>2024-05-28T11:59:14.152Z</time>
      </trkpt>
      <trkpt lat="45.87582699023187" lon="8.725356934592128">
        <ele>725.29</ele>
        <time>2024-05-28T11:59:16.414Z</time>
      </trkpt>
      <trkpt lat="45.87579991668463" lon="8.725342936813831">
        <ele>725.11</ele>
        <time>2024-05-28T11:59:18.677Z</time>
      </trkpt>
      <trkpt lat="45.875767981633544" lon="8.725329944863915">
        <ele>724.94</ele>
        <time>2024-05-28T11:59:20.941Z</time>
      </trkpt>
      <trkpt lat="45.87573998607695" lon="8.725311923772097">
        <ele>724.75</ele>
        <time>2024-05-28T11:59:23.206Z</time>
      </trkpt>
      <trkpt lat="45.87571199052036" lon="8.72529692016542">
        <ele>724.57</ele>
        <time>2024-05-28T11:59:25.472Z</time>
      </trkpt>
      <trkpt lat="45.875684916973114" lon="8.725279988721013">
        <ele>724.39</ele>
        <time>2024-05-28T11:59:27.739Z</time>
      </trkpt>
      <trkpt lat="45.87565692141652" lon="8.72525199316442">
        <ele>724.2</ele>
        <time>2024-05-28T11:59:30.008Z</time>
      </trkpt>
      <trkpt lat="45.87562792003155" lon="8.725224919617176">
        <ele>724.01</ele>
        <time>2024-05-28T11:59:32.278Z</time>
      </trkpt>
      <trkpt lat="45.87560495361686" lon="8.725201953202486">
        <ele>723.82</ele>
        <time>2024-05-28T11:59:34.549Z</time>
      </trkpt>
      <trkpt lat="45.875579975545406" lon="8.725177980959415">
        <ele>723.64</ele>
        <time>2024-05-28T11:59:36.821Z</time>
      </trkpt>
      <trkpt lat="45.875557931140065" lon="8.72514696791768">
        <ele>723.45</ele>
        <time>2024-05-28T11:59:39.094Z</time>
      </trkpt>
      <trkpt lat="45.87553194724023" lon="8.725119978189468">
        <ele>723.27</ele>
        <time>2024-05-28T11:59:41.368Z</time>
      </trkpt>
      <trkpt lat="45.875512920320034" lon="8.725091982632875">
        <ele>723.09</ele>
        <time>2024-05-28T11:59:43.643Z</time>
      </trkpt>
      <trkpt lat="45.875492971390486" lon="8.72505996376276">
        <ele>722.92</ele>
        <time>2024-05-28T11:59:45.919Z</time>
      </trkpt>
      <trkpt lat="45.87547796778381" lon="8.725032974034548">
        <ele>722.74</ele>
        <time>2024-05-28T11:59:48.196Z</time>
      </trkpt>
      <trkpt lat="45.87546195834875" lon="8.725002966821194">
        <ele>722.58</ele>
        <time>2024-05-28T11:59:50.473Z</time>
      </trkpt>
      <trkpt lat="45.87544494308531" lon="8.724976982921362">
        <ele>722.42</ele>
        <time>2024-05-28T11:59:52.751Z</time>
      </trkpt>
      <trkpt lat="45.875429939478636" lon="8.724946975708008">
        <ele>722.26</ele>
        <time>2024-05-28T11:59:55.030Z</time>
      </trkpt>
      <trkpt lat="45.875406973063946" lon="8.724919985979795">
        <ele>722.12</ele>
        <time>2024-05-28T11:59:57.310Z</time>
      </trkpt>
      <trkpt lat="45.875387946143746" lon="8.724892996251583">
        <ele>721.98</ele>
        <time>2024-05-28T11:59:59.591Z</time>
      </trkpt>
      <trkpt lat="45.8753679972142" lon="8.724862989038229">
        <ele>721.86</ele>
        <time>2024-05-28T12:00:01.873Z</time>
      </trkpt>
      <trkpt lat="45.87534997612238" lon="8.724832981824875">
        <ele>721.75</ele>
        <time>2024-05-28T12:00:04.156Z</time>
      </trkpt>
      <trkpt lat="45.8753299433738" lon="8.724807919934392">
        <ele>721.65</ele>
        <time>2024-05-28T12:00:06.440Z</time>
      </trkpt>
      <trkpt lat="45.87531493976712" lon="8.724779924377799">
        <ele>721.56</ele>
        <time>2024-05-28T12:00:08.725Z</time>
      </trkpt>
      <trkpt lat="45.875301947817206" lon="8.724747989326715">
        <ele>721.48</ele>
        <time>2024-05-28T12:00:11.010Z</time>
      </trkpt>
      <trkpt lat="45.87528199888766" lon="8.724717982113361">
        <ele>721.42</ele>
        <time>2024-05-28T12:00:13.296Z</time>
      </trkpt>
      <trkpt lat="45.87526699528098" lon="8.724689986556768">
        <ele>721.37</ele>
        <time>2024-05-28T12:00:15.583Z</time>
      </trkpt>
      <trkpt lat="45.87524998001754" lon="8.724657967686653">
        <ele>721.33</ele>
        <time>2024-05-28T12:00:17.871Z</time>
      </trkpt>
      <trkpt lat="45.875231958925724" lon="8.724622931331396">
        <ele>721.31</ele>
        <time>2024-05-28T12:00:20.160Z</time>
      </trkpt>
      <trkpt lat="45.87520798668265" lon="8.724582949653268">
        <ele>721.3</ele>
        <time>2024-05-28T12:00:22.450Z</time>
      </trkpt>
      <trkpt lat="45.87518292479217" lon="8.724546991288662">
        <ele>721.3</ele>
        <time>2024-05-28T12:00:24.742Z</time>
      </trkpt>
      <trkpt lat="45.87516297586262" lon="8.724511954933405">
        <ele>721.32</ele>
        <time>2024-05-28T12:00:27.035Z</time>
      </trkpt>
      <trkpt lat="45.87514193728566" lon="8.72447993606329">
        <ele>721.35</ele>
        <time>2024-05-28T12:00:29.329Z</time>
      </trkpt>
      <trkpt lat="45.87512492202222" lon="8.7244569696486">
        <ele>721.4</ele>
        <time>2024-05-28T12:00:31.623Z</time>
      </trkpt>
      <trkpt lat="45.87509298697114" lon="8.724451940506697">
        <ele>721.47</ele>
        <time>2024-05-28T12:00:33.918Z</time>
      </trkpt>
      <trkpt lat="45.87506499141455" lon="8.72445797547698">
        <ele>721.57</ele>
        <time>2024-05-28T12:00:36.214Z</time>
      </trkpt>
      <trkpt lat="45.875041941180825" lon="8.724471973255277">
        <ele>721.68</ele>
        <time>2024-05-28T12:00:38.511Z</time>
      </trkpt>
      <trkpt lat="45.875016963109374" lon="8.724474990740418">
        <ele>721.8</ele>
        <time>2024-05-28T12:00:40.809Z</time>
      </trkpt>
      <trkpt lat="45.87499491870403" lon="8.724471973255277">
        <ele>721.93</ele>
        <time>2024-05-28T12:00:43.108Z</time>
      </trkpt>
      <trkpt lat="45.87497195228934" lon="8.724471973255277">
        <ele>722.07</ele>
        <time>2024-05-28T12:00:45.408Z</time>
      </trkpt>
      <trkpt lat="45.874932976439595" lon="8.724451940506697">
        <ele>722.23</ele>
        <time>2024-05-28T12:00:47.709Z</time>
      </trkpt>
      <trkpt lat="45.87491797283292" lon="8.72443693690002">
        <ele>722.39</ele>
        <time>2024-05-28T12:00:50.011Z</time>
      </trkpt>
      <trkpt lat="45.874891988933086" lon="8.724391926079988">
        <ele>722.57</ele>
        <time>2024-05-28T12:00:52.314Z</time>
      </trkpt>
      <trkpt lat="45.87487296201289" lon="8.724366948008537">
        <ele>722.75</ele>
        <time>2024-05-28T12:00:54.618Z</time>
      </trkpt>
      <trkpt lat="45.87486298754811" lon="8.724336940795183">
        <ele>722.94</ele>
        <time>2024-05-28T12:00:56.923Z</time>
      </trkpt>
      <trkpt lat="45.87485292926431" lon="8.724306933581829">
        <ele>723.14</ele>
        <time>2024-05-28T12:00:59.228Z</time>
      </trkpt>
      <trkpt lat="45.87484295479953" lon="8.724261922761798">
        <ele>723.34</ele>
        <time>2024-05-28T12:01:01.534Z</time>
      </trkpt>
      <trkpt lat="45.874824933707714" lon="8.724239962175488">
        <ele>723.56</ele>
        <time>2024-05-28T12:01:03.841Z</time>
      </trkpt>
      <trkpt lat="45.874801967293024" lon="8.724232921376824">
        <ele>723.79</ele>
        <time>2024-05-28T12:01:06.149Z</time>
      </trkpt>
      <trkpt lat="45.87477296590805" lon="8.724231999367476">
        <ele>724.04</ele>
        <time>2024-05-28T12:01:08.458Z</time>
      </trkpt>
      <trkpt lat="45.8747479878366" lon="8.724232921376824">
        <ele>724.28</ele>
        <time>2024-05-28T12:01:10.768Z</time>
      </trkpt>
      <trkpt lat="45.8747099339962" lon="8.724237950518727">
        <ele>724.55</ele>
        <time>2024-05-28T12:01:13.079Z</time>
      </trkpt>
      <trkpt lat="45.87468998506665" lon="8.724236944690347">
        <ele>724.8</ele>
        <time>2024-05-28T12:01:15.391Z</time>
      </trkpt>
      <trkpt lat="45.87466492317617" lon="8.724226970225573">
        <ele>725.07</ele>
        <time>2024-05-28T12:01:17.704Z</time>
      </trkpt>
      <trkpt lat="45.87464497424662" lon="8.724207943305373">
        <ele>725.34</ele>
        <time>2024-05-28T12:01:20.017Z</time>
      </trkpt>
      <trkpt lat="45.8746269531548" lon="8.724197968840599">
        <ele>725.61</ele>
        <time>2024-05-28T12:01:22.331Z</time>
      </trkpt>
      <trkpt lat="45.874591916799545" lon="8.724186988547444">
        <ele>725.9</ele>
        <time>2024-05-28T12:01:24.646Z</time>
      </trkpt>
      <trkpt lat="45.874567944556475" lon="8.724181959405541">
        <ele>726.19</ele>
        <time>2024-05-28T12:01:26.962Z</time>
      </trkpt>
      <trkpt lat="45.87453693151474" lon="8.724161926656961">
        <ele>726.48</ele>
        <time>2024-05-28T12:01:29.279Z</time>
      </trkpt>
      <trkpt lat="45.87451798841357" lon="8.724152958020568">
        <ele>726.78</ele>
        <time>2024-05-28T12:01:31.597Z</time>
      </trkpt>
      <trkpt lat="45.87449493817985" lon="8.724139966070652">
        <ele>727.08</ele>
        <time>2024-05-28T12:01:33.916Z</time>
      </trkpt>
      <trkpt lat="45.87447297759354" lon="8.72413795441389">
        <ele>727.39</ele>
        <time>2024-05-28T12:01:36.235Z</time>
      </trkpt>
      <trkpt lat="45.87445294484496" lon="8.724119933322072">
        <ele>727.7</ele>
        <time>2024-05-28T12:01:38.555Z</time>
      </trkpt>
      <trkpt lat="45.874439952895045" lon="8.724099984392524">
        <ele>728.01</ele>
        <time>2024-05-28T12:01:40.876Z</time>
      </trkpt>
      <trkpt lat="45.87442796677351" lon="8.724047932773829">
        <ele>728.32</ele>
        <time>2024-05-28T12:01:43.198Z</time>
      </trkpt>
      <trkpt lat="45.874417992308736" lon="8.724017925560474">
        <ele>728.64</ele>
        <time>2024-05-28T12:01:45.521Z</time>
      </trkpt>
      <trkpt lat="45.874396953731775" lon="8.72398498468101">
        <ele>728.98</ele>
        <time>2024-05-28T12:01:47.845Z</time>
      </trkpt>
      <trkpt lat="45.874376920983195" lon="8.723982973024249">
        <ele>729.33</ele>
        <time>2024-05-28T12:01:50.170Z</time>
      </trkpt>
      <trkpt lat="45.87434791959822" lon="8.72398498468101">
        <ele>729.69</ele>
        <time>2024-05-28T12:01:52.496Z</time>
      </trkpt>
      <trkpt lat="45.874331993982196" lon="8.724009962752461">
        <ele>730.06</ele>
        <time>2024-05-28T12:01:54.822Z</time>
      </trkpt>
      <trkpt lat="45.87429293431342" lon="8.724001999944448">
        <ele>730.44</ele>
        <time>2024-05-28T12:01:57.150Z</time>
      </trkpt>
      <trkpt lat="45.874267956241965" lon="8.723969981074333">
        <ele>730.82</ele>
        <time>2024-05-28T12:01:59.479Z</time>
      </trkpt>
      <trkpt lat="45.87425194680691" lon="8.723949948325753">
        <ele>731.21</ele>
        <time>2024-05-28T12:02:01.809Z</time>
      </trkpt>
      <trkpt lat="45.8742299862206" lon="8.723934944719076">
        <ele>731.62</ele>
        <time>2024-05-28T12:02:04.139Z</time>
      </trkpt>
      <trkpt lat="45.87420995347202" lon="8.723919941112399">
        <ele>732.04</ele>
        <time>2024-05-28T12:02:06.470Z</time>
      </trkpt>
      <trkpt lat="45.87418799288571" lon="8.723919941112399">
        <ele>732.47</ele>
        <time>2024-05-28T12:02:08.802Z</time>
      </trkpt>
      <trkpt lat="45.87416796013713" lon="8.723919941112399">
        <ele>732.92</ele>
        <time>2024-05-28T12:02:11.135Z</time>
      </trkpt>
      <trkpt lat="45.87414993904531" lon="8.723914995789528">
        <ele>733.37</ele>
        <time>2024-05-28T12:02:13.468Z</time>
      </trkpt>
      <trkpt lat="45.87412697263062" lon="8.723909966647625">
        <ele>733.84</ele>
        <time>2024-05-28T12:02:15.802Z</time>
      </trkpt>
      <trkpt lat="45.87410794571042" lon="8.723909966647625">
        <ele>734.32</ele>
        <time>2024-05-28T12:02:18.137Z</time>
      </trkpt>
      <trkpt lat="45.87408799678087" lon="8.723884988576174">
        <ele>734.81</ele>
        <time>2024-05-28T12:02:20.472Z</time>
      </trkpt>
      <trkpt lat="45.874076932668686" lon="8.723862944170833">
        <ele>735.3</ele>
        <time>2024-05-28T12:02:22.808Z</time>
      </trkpt>
      <trkpt lat="45.87406293489039" lon="8.723839977756143">
        <ele>735.81</ele>
        <time>2024-05-28T12:02:25.145Z</time>
      </trkpt>
      <trkpt lat="45.8740399684757" lon="8.72381198219955">
        <ele>736.34</ele>
        <time>2024-05-28T12:02:27.483Z</time>
      </trkpt>
      <trkpt lat="45.87401499040425" lon="8.723799996078014">
        <ele>736.9</ele>
        <time>2024-05-28T12:02:29.822Z</time>
      </trkpt>
      <trkpt lat="45.87399696931243" lon="8.723779963329434">
        <ele>737.46</ele>
        <time>2024-05-28T12:02:32.161Z</time>
      </trkpt>
      <trkpt lat="45.87397299706936" lon="8.723757918924093">
        <ele>738.04</ele>
        <time>2024-05-28T12:02:34.501Z</time>
      </trkpt>
      <trkpt lat="45.87395799346268" lon="8.723744926974177">
        <ele>738.63</ele>
        <time>2024-05-28T12:02:36.842Z</time>
      </trkpt>
      <trkpt lat="45.87393192574382" lon="8.723731935024261">
        <ele>739.25</ele>
        <time>2024-05-28T12:02:39.184Z</time>
      </trkpt>
      <trkpt lat="45.873899990692735" lon="8.723724978044629">
        <ele>739.9</ele>
        <time>2024-05-28T12:02:41.527Z</time>
      </trkpt>
      <trkpt lat="45.8738829754293" lon="8.723701927810907">
        <ele>740.54</ele>
        <time>2024-05-28T12:02:43.871Z</time>
      </trkpt>
      <trkpt lat="45.873861936852336" lon="8.72370494529605">
        <ele>741.21</ele>
        <time>2024-05-28T12:02:46.215Z</time>
      </trkpt>
      <trkpt lat="45.8738449215889" lon="8.723696982488036">
        <ele>741.89</ele>
        <time>2024-05-28T12:02:48.560Z</time>
      </trkpt>
      <trkpt lat="45.87382991798222" lon="8.7236849963665">
        <ele>742.59</ele>
        <time>2024-05-28T12:02:50.906Z</time>
      </trkpt>
      <trkpt lat="45.87380996905267" lon="8.723689941689372">
        <ele>743.31</ele>
        <time>2024-05-28T12:02:53.252Z</time>
      </trkpt>
      <trkpt lat="45.87377795018256" lon="8.723701927810907">
        <ele>744.07</ele>
        <time>2024-05-28T12:02:55.599Z</time>
      </trkpt>
      <trkpt lat="45.87375699542463" lon="8.72370494529605">
        <ele>744.83</ele>
        <time>2024-05-28T12:02:57.947Z</time>
      </trkpt>
      <trkpt lat="45.87373998016119" lon="8.723691953346133">
        <ele>745.59</ele>
        <time>2024-05-28T12:03:00.296Z</time>
      </trkpt>
      <trkpt lat="45.87371793575585" lon="8.723681978881359">
        <ele>746.38</ele>
        <time>2024-05-28T12:03:02.645Z</time>
      </trkpt>
      <trkpt lat="45.87369496934116" lon="8.723679967224598">
        <ele>747.2</ele>
        <time>2024-05-28T12:03:04.995Z</time>
      </trkpt>
      <trkpt lat="45.87367694824934" lon="8.723681978881359">
        <ele>748.03</ele>
        <time>2024-05-28T12:03:07.346Z</time>
      </trkpt>
      <trkpt lat="45.87365699931979" lon="8.723677955567837">
        <ele>748.88</ele>
        <time>2024-05-28T12:03:09.698Z</time>
      </trkpt>
      <trkpt lat="45.87363797239959" lon="8.723679967224598">
        <ele>749.75</ele>
        <time>2024-05-28T12:03:12.050Z</time>
      </trkpt>
      <trkpt lat="45.87362498044968" lon="8.72366496361792">
        <ele>750.61</ele>
        <time>2024-05-28T12:03:14.403Z</time>
      </trkpt>
      <trkpt lat="45.8736049477011" lon="8.723656916990876">
        <ele>751.5</ele>
        <time>2024-05-28T12:03:16.756Z</time>
      </trkpt>
      <trkpt lat="45.87358692660928" lon="8.723657922819257">
        <ele>752.4</ele>
        <time>2024-05-28T12:03:19.110Z</time>
      </trkpt>
      <trkpt lat="45.87356295436621" lon="8.723671920597553">
        <ele>753.34</ele>
        <time>2024-05-28T12:03:21.465Z</time>
      </trkpt>
      <trkpt lat="45.87354199960828" lon="8.723681978881359">
        <ele>754.28</ele>
        <time>2024-05-28T12:03:23.821Z</time>
      </trkpt>
      <trkpt lat="45.87351995520294" lon="8.72368692420423">
        <ele>755.24</ele>
        <time>2024-05-28T12:03:26.177Z</time>
      </trkpt>
      <trkpt lat="45.8735029399395" lon="8.723699999973178">
        <ele>756.2</ele>
        <time>2024-05-28T12:03:28.534Z</time>
      </trkpt>
      <trkpt lat="45.87347997352481" lon="8.72370494529605">
        <ele>757.18</ele>
        <time>2024-05-28T12:03:30.892Z</time>
      </trkpt>
      <trkpt lat="45.87346195243299" lon="8.723701927810907">
        <ele>758.15</ele>
        <time>2024-05-28T12:03:33.250Z</time>
      </trkpt>
      <trkpt lat="45.87344493716955" lon="8.723659934476018">
        <ele>759.12</ele>
        <time>2024-05-28T12:03:35.610Z</time>
      </trkpt>
      <trkpt lat="45.87345499545336" lon="8.723627999424934">
        <ele>760.05</ele>
        <time>2024-05-28T12:03:37.970Z</time>
      </trkpt>
      <trkpt lat="45.87343697436154" lon="8.72361995279789">
        <ele>761.05</ele>
        <time>2024-05-28T12:03:40.331Z</time>
      </trkpt>
      <trkpt lat="45.87339992634952" lon="8.723611989989877">
        <ele>762.1</ele>
        <time>2024-05-28T12:03:42.693Z</time>
      </trkpt>
      <trkpt lat="45.87337796576321" lon="8.723601931706071">
        <ele>763.12</ele>
        <time>2024-05-28T12:03:45.056Z</time>
      </trkpt>
      <trkpt lat="45.87335793301463" lon="8.723582988604903">
        <ele>764.15</ele>
        <time>2024-05-28T12:03:47.420Z</time>
      </trkpt>
      <trkpt lat="45.8733369782567" lon="8.723559938371181">
        <ele>765.17</ele>
        <time>2024-05-28T12:03:49.785Z</time>
      </trkpt>
      <trkpt lat="45.8733179513365" lon="8.723536971956491">
        <ele>766.2</ele>
        <time>2024-05-28T12:03:52.150Z</time>
      </trkpt>
      <trkpt lat="45.87329791858792" lon="8.723527919501066">
        <ele>767.24</ele>
        <time>2024-05-28T12:03:54.516Z</time>
      </trkpt>
      <trkpt lat="45.873276963829994" lon="8.72353294864297">
        <ele>768.29</ele>
        <time>2024-05-28T12:03:56.883Z</time>
      </trkpt>
      <trkpt lat="45.873252991586924" lon="8.723521968349814">
        <ele>769.34</ele>
        <time>2024-05-28T12:03:59.251Z</time>
      </trkpt>
      <trkpt lat="45.873234970495105" lon="8.723502941429615">
        <ele>770.36</ele>
        <time>2024-05-28T12:04:01.619Z</time>
      </trkpt>
      <trkpt lat="45.87321795523167" lon="8.723479975014925">
        <ele>771.38</ele>
        <time>2024-05-28T12:04:03.988Z</time>
      </trkpt>
      <trkpt lat="45.873189959675074" lon="8.723502941429615">
        <ele>772.46</ele>
        <time>2024-05-28T12:04:06.358Z</time>
      </trkpt>
      <trkpt lat="45.87317696772516" lon="8.723481986671686">
        <ele>773.46</ele>
        <time>2024-05-28T12:04:08.729Z</time>
      </trkpt>
      <trkpt lat="45.87315995246172" lon="8.72344795614481">
        <ele>774.45</ele>
        <time>2024-05-28T12:04:11.101Z</time>
      </trkpt>
      <trkpt lat="45.8731419313699" lon="8.723432952538133">
        <ele>775.46</ele>
        <time>2024-05-28T12:04:13.474Z</time>
      </trkpt>
      <trkpt lat="45.87312198244035" lon="8.723441921174526">
        <ele>776.48</ele>
        <time>2024-05-28T12:04:15.847Z</time>
      </trkpt>
      <trkpt lat="45.87310295552015" lon="8.723451979458332">
        <ele>777.48</ele>
        <time>2024-05-28T12:04:18.221Z</time>
      </trkpt>
      <trkpt lat="45.87308996357024" lon="8.72342792339623">
        <ele>778.44</ele>
        <time>2024-05-28T12:04:20.596Z</time>
      </trkpt>
      <trkpt lat="45.873067919164896" lon="8.72340495698154">
        <ele>779.4</ele>
        <time>2024-05-28T12:04:22.972Z</time>
      </trkpt>
      <trkpt lat="45.87303698994219" lon="8.723374949768186">
        <ele>780.37</ele>
        <time>2024-05-28T12:04:25.349Z</time>
      </trkpt>
      <trkpt lat="45.87300698272884" lon="8.723357934504747">
        <ele>781.33</ele>
        <time>2024-05-28T12:04:27.727Z</time>
      </trkpt>
      <trkpt lat="45.8729849383235" lon="8.72334192506969">
        <ele>782.25</ele>
        <time>2024-05-28T12:04:30.106Z</time>
      </trkpt>
      <trkpt lat="45.87296498939395" lon="8.723322981968522">
        <ele>783.16</ele>
        <time>2024-05-28T12:04:32.486Z</time>
      </trkpt>
      <trkpt lat="45.87294696830213" lon="8.723327927291393">
        <ele>784.05</ele>
        <time>2024-05-28T12:04:34.866Z</time>
      </trkpt>
      <trkpt lat="45.87292299605906" lon="8.723322981968522">
        <ele>784.93</ele>
        <time>2024-05-28T12:04:37.247Z</time>
      </trkpt>
      <trkpt lat="45.8729019574821" lon="8.723302949219942">
        <ele>785.77</ele>
        <time>2024-05-28T12:04:39.629Z</time>
      </trkpt>
      <trkpt lat="45.87287999689579" lon="8.723292974755168">
        <ele>786.6</ele>
        <time>2024-05-28T12:04:42.012Z</time>
      </trkpt>
      <trkpt lat="45.87286298163235" lon="8.723264979198575">
        <ele>787.38</ele>
        <time>2024-05-28T12:04:44.395Z</time>
      </trkpt>
      <trkpt lat="45.87285694666207" lon="8.723236983641982">
        <ele>788.12</ele>
        <time>2024-05-28T12:04:46.779Z</time>
      </trkpt>
      <trkpt lat="45.87284294888377" lon="8.723214939236641">
        <ele>788.85</ele>
        <time>2024-05-28T12:04:49.164Z</time>
      </trkpt>
      <trkpt lat="45.87282199412584" lon="8.723199935629964">
        <ele>789.57</ele>
        <time>2024-05-28T12:04:51.550Z</time>
      </trkpt>
      <trkpt lat="45.87280196137726" lon="8.723182920366526">
        <ele>790.27</ele>
        <time>2024-05-28T12:04:53.936Z</time>
      </trkpt>
      <trkpt lat="45.87277991697192" lon="8.723159953951836">
        <ele>790.93</ele>
        <time>2024-05-28T12:04:56.323Z</time>
      </trkpt>
      <trkpt lat="45.872762985527515" lon="8.723136987537146">
        <ele>791.57</ele>
        <time>2024-05-28T12:04:58.711Z</time>
      </trkpt>
      <trkpt lat="45.87274798192084" lon="8.723111925646663">
        <ele>792.18</ele>
        <time>2024-05-28T12:05:01.100Z</time>
      </trkpt>
      <trkpt lat="45.8727449644357" lon="8.72308493591845">
        <ele>792.74</ele>
        <time>2024-05-28T12:05:03.490Z</time>
      </trkpt>
      <trkpt lat="45.87272493168712" lon="8.723074961453676">
        <ele>793.32</ele>
        <time>2024-05-28T12:05:05.880Z</time>
      </trkpt>
      <trkpt lat="45.87271294556558" lon="8.72303699143231">
        <ele>793.85</ele>
        <time>2024-05-28T12:05:08.271Z</time>
      </trkpt>
      <trkpt lat="45.87270699441433" lon="8.723011929541826">
        <ele>794.34</ele>
        <time>2024-05-28T12:05:10.663Z</time>
      </trkpt>
      <trkpt lat="45.87268696166575" lon="8.722991980612278">
        <ele>794.84</ele>
        <time>2024-05-28T12:05:13.056Z</time>
      </trkpt>
      <trkpt lat="45.872677993029356" lon="8.722966918721795">
        <ele>795.29</ele>
        <time>2024-05-28T12:05:15.449Z</time>
      </trkpt>
      <trkpt lat="45.87266793474555" lon="8.722941940650344">
        <ele>795.72</ele>
        <time>2024-05-28T12:05:17.843Z</time>
      </trkpt>
      <trkpt lat="45.8726619835943" lon="8.72291293926537">
        <ele>796.11</ele>
        <time>2024-05-28T12:05:20.238Z</time>
      </trkpt>
      <trkpt lat="45.872632982209325" lon="8.722892990335822">
        <ele>796.52</ele>
        <time>2024-05-28T12:05:22.634Z</time>
      </trkpt>
      <trkpt lat="45.872612949460745" lon="8.722879998385906">
        <ele>796.9</ele>
        <time>2024-05-28T12:05:25.030Z</time>
      </trkpt>
      <trkpt lat="45.872594928368926" lon="8.722866922616959">
        <ele>797.25</ele>
        <time>2024-05-28T12:05:27.427Z</time>
      </trkpt>
      <trkpt lat="45.87258193641901" lon="8.722841944545507">
        <ele>797.56</ele>
        <time>2024-05-28T12:05:29.825Z</time>
      </trkpt>
      <trkpt lat="45.872571961954236" lon="8.722811937332153">
        <ele>797.84</ele>
        <time>2024-05-28T12:05:32.224Z</time>
      </trkpt>
      <trkpt lat="45.87257799692452" lon="8.722786959260702">
        <ele>798.09</ele>
        <time>2024-05-28T12:05:34.623Z</time>
      </trkpt>
      <trkpt lat="45.872567938640714" lon="8.722752928733826">
        <ele>798.33</ele>
        <time>2024-05-28T12:05:37.023Z</time>
      </trkpt>
      <trkpt lat="45.8725599758327" lon="8.722714958712459">
        <ele>798.54</ele>
        <time>2024-05-28T12:05:39.424Z</time>
      </trkpt>
      <trkpt lat="45.87254296056926" lon="8.722687968984246">
        <ele>798.76</ele>
        <time>2024-05-28T12:05:41.826Z</time>
      </trkpt>
      <trkpt lat="45.87254296056926" lon="8.722657961770892">
        <ele>798.94</ele>
        <time>2024-05-28T12:05:44.229Z</time>
      </trkpt>
      <trkpt lat="45.87252996861935" lon="8.7226299662143">
        <ele>799.12</ele>
        <time>2024-05-28T12:05:46.632Z</time>
      </trkpt>
      <trkpt lat="45.872504990547895" lon="8.722619991749525">
        <ele>799.32</ele>
        <time>2024-05-28T12:05:49.036Z</time>
      </trkpt>
      <trkpt lat="45.87248797528446" lon="8.722607921808958">
        <ele>799.49</ele>
        <time>2024-05-28T12:05:51.441Z</time>
      </trkpt>
      <trkpt lat="45.87248797528446" lon="8.722579926252365">
        <ele>799.62</ele>
        <time>2024-05-28T12:05:53.847Z</time>
      </trkpt>
      <trkpt lat="45.872481940314174" lon="8.722542962059379">
        <ele>799.75</ele>
        <time>2024-05-28T12:05:56.253Z</time>
      </trkpt>
      <trkpt lat="45.87246995419264" lon="8.722516978159547">
        <ele>799.88</ele>
        <time>2024-05-28T12:05:58.660Z</time>
      </trkpt>
      <trkpt lat="45.8724669367075" lon="8.722489988431334">
        <ele>799.99</ele>
        <time>2024-05-28T12:06:01.068Z</time>
      </trkpt>
      <trkpt lat="45.8724529389292" lon="8.72245998121798">
        <ele>800.11</ele>
        <time>2024-05-28T12:06:03.477Z</time>
      </trkpt>
      <trkpt lat="45.872442964464426" lon="8.7224399484694">
        <ele>800.23</ele>
        <time>2024-05-28T12:06:05.886Z</time>
      </trkpt>
      <trkpt lat="45.872439946979284" lon="8.722411952912807">
        <ele>800.33</ele>
        <time>2024-05-28T12:06:08.296Z</time>
      </trkpt>
      <trkpt lat="45.87242494337261" lon="8.722397955134511">
        <ele>800.45</ele>
        <time>2024-05-28T12:06:10.706Z</time>
      </trkpt>
      <trkpt lat="45.872421925887465" lon="8.722366942092776">
        <ele>800.55</ele>
        <time>2024-05-28T12:06:13.117Z</time>
      </trkpt>
      <trkpt lat="45.87241195142269" lon="8.722334923222661">
        <ele>800.66</ele>
        <time>2024-05-28T12:06:15.529Z</time>
      </trkpt>
      <trkpt lat="45.87240197695792" lon="8.72230994515121">
        <ele>800.78</ele>
        <time>2024-05-28T12:06:17.942Z</time>
      </trkpt>
      <trkpt lat="45.87238999083638" lon="8.722291924059391">
        <ele>800.9</ele>
        <time>2024-05-28T12:06:20.355Z</time>
      </trkpt>
      <trkpt lat="45.872372975572944" lon="8.722259989008307">
        <ele>801.02</ele>
        <time>2024-05-28T12:06:22.769Z</time>
      </trkpt>
      <trkpt lat="45.87235998362303" lon="8.722246997058392">
        <ele>801.15</ele>
        <time>2024-05-28T12:06:25.184Z</time>
      </trkpt>
      <trkpt lat="45.87234799750149" lon="8.722221935167909">
        <ele>801.28</ele>
        <time>2024-05-28T12:06:27.599Z</time>
      </trkpt>
      <trkpt lat="45.87232192978263" lon="8.722226964309812">
        <ele>801.45</ele>
        <time>2024-05-28T12:06:30.015Z</time>
      </trkpt>
      <trkpt lat="45.872309943661094" lon="8.722246997058392">
        <ele>801.61</ele>
        <time>2024-05-28T12:06:32.432Z</time>
      </trkpt>
      <trkpt lat="45.87228295393288" lon="8.722252948209643">
        <ele>801.76</ele>
        <time>2024-05-28T12:06:34.850Z</time>
      </trkpt>
      <trkpt lat="45.87226199917495" lon="8.722246997058392">
        <ele>801.92</ele>
        <time>2024-05-28T12:06:37.269Z</time>
      </trkpt>
      <trkpt lat="45.872247917577624" lon="8.72226694598794">
        <ele>802.1</ele>
        <time>2024-05-28T12:06:39.688Z</time>
      </trkpt>
      <trkpt lat="45.87223693728447" lon="8.722291924059391">
        <ele>802.29</ele>
        <time>2024-05-28T12:06:42.108Z</time>
      </trkpt>
      <trkpt lat="45.872226962819695" lon="8.722314974293113">
        <ele>802.49</ele>
        <time>2024-05-28T12:06:44.528Z</time>
      </trkpt>
      <trkpt lat="45.872206930071115" lon="8.722319919615984">
        <ele>802.69</ele>
        <time>2024-05-28T12:06:46.949Z</time>
      </trkpt>
      <trkpt lat="45.87218798696995" lon="8.722336934879422">
        <ele>802.91</ele>
        <time>2024-05-28T12:06:49.371Z</time>
      </trkpt>
      <trkpt lat="45.87217197753489" lon="8.722359985113144">
        <ele>803.14</ele>
        <time>2024-05-28T12:06:51.794Z</time>
      </trkpt>
      <trkpt lat="45.87214993312955" lon="8.722379934042692">
        <ele>803.38</ele>
        <time>2024-05-28T12:06:54.218Z</time>
      </trkpt>
      <trkpt lat="45.87214297614992" lon="8.722404995933175">
        <ele>803.64</ele>
        <time>2024-05-28T12:06:56.642Z</time>
      </trkpt>
      <trkpt lat="45.87212696671486" lon="8.72239694930613">
        <ele>803.89</ele>
        <time>2024-05-28T12:06:59.067Z</time>
      </trkpt>
      <trkpt lat="45.872117998078465" lon="8.722417987883091">
        <ele>804.17</ele>
        <time>2024-05-28T12:07:01.492Z</time>
      </trkpt>
      <trkpt lat="45.872117998078465" lon="8.722449922934175">
        <ele>804.47</ele>
        <time>2024-05-28T12:07:03.918Z</time>
      </trkpt>
      <trkpt lat="45.87212294340134" lon="8.722476996481419">
        <ele>804.77</ele>
        <time>2024-05-28T12:07:06.345Z</time>
      </trkpt>
      <trkpt lat="45.8721299842" lon="8.722504992038012">
        <ele>805.09</ele>
        <time>2024-05-28T12:07:08.772Z</time>
      </trkpt>
      <trkpt lat="45.872117998078465" lon="8.722539944574237">
        <ele>805.42</ele>
        <time>2024-05-28T12:07:11.200Z</time>
      </trkpt>
      <trkpt lat="45.87211196310818" lon="8.722572969272733">
        <ele>805.76</ele>
        <time>2024-05-28T12:07:13.629Z</time>
      </trkpt>
      <trkpt lat="45.87210492230952" lon="8.722599959000945">
        <ele>806.1</ele>
        <time>2024-05-28T12:07:16.059Z</time>
      </trkpt>
      <trkpt lat="45.872094947844744" lon="8.722624937072396">
        <ele>806.44</ele>
        <time>2024-05-28T12:07:18.489Z</time>
      </trkpt>
      <trkpt lat="45.87210198864341" lon="8.722661985084414">
        <ele>806.8</ele>
        <time>2024-05-28T12:07:20.920Z</time>
      </trkpt>
      <trkpt lat="45.87210793979466" lon="8.722694925963879">
        <ele>807.17</ele>
        <time>2024-05-28T12:07:23.352Z</time>
      </trkpt>
      <trkpt lat="45.87211196310818" lon="8.722721999511123">
        <ele>807.54</ele>
        <time>2024-05-28T12:07:25.785Z</time>
      </trkpt>
      <trkpt lat="45.872114980593324" lon="8.72275996953249">
        <ele>807.92</ele>
        <time>2024-05-28T12:07:28.219Z</time>
      </trkpt>
      <trkpt lat="45.87210793979466" lon="8.722786959260702">
        <ele>808.31</ele>
        <time>2024-05-28T12:07:30.653Z</time>
      </trkpt>
      <trkpt lat="45.87210492230952" lon="8.722816966474056">
        <ele>808.71</ele>
        <time>2024-05-28T12:07:33.088Z</time>
      </trkpt>
      <trkpt lat="45.87210793979466" lon="8.722852924838662">
        <ele>809.11</ele>
        <time>2024-05-28T12:07:35.524Z</time>
      </trkpt>
      <trkpt lat="45.87210793979466" lon="8.722891984507442">
        <ele>809.53</ele>
        <time>2024-05-28T12:07:37.961Z</time>
      </trkpt>
      <trkpt lat="45.87210198864341" lon="8.722919980064034">
        <ele>809.94</ele>
        <time>2024-05-28T12:07:40.398Z</time>
      </trkpt>
      <trkpt lat="45.8720919303596" lon="8.722952920943499">
        <ele>810.36</ele>
        <time>2024-05-28T12:07:42.836Z</time>
      </trkpt>
      <trkpt lat="45.872076926752925" lon="8.722979994490743">
        <ele>810.79</ele>
        <time>2024-05-28T12:07:45.275Z</time>
      </trkpt>
      <trkpt lat="45.87205697782338" lon="8.723004972562194">
        <ele>811.22</ele>
        <time>2024-05-28T12:07:47.715Z</time>
      </trkpt>
      <trkpt lat="45.872052954509854" lon="8.723031962290406">
        <ele>811.65</ele>
        <time>2024-05-28T12:07:50.156Z</time>
      </trkpt>
      <trkpt lat="45.872052954509854" lon="8.723066998645663">
        <ele>812.09</ele>
        <time>2024-05-28T12:07:52.597Z</time>
      </trkpt>
      <trkpt lat="45.87206292897463" lon="8.723109997808933">
        <ele>812.53</ele>
        <time>2024-05-28T12:07:55.040Z</time>
      </trkpt>
      <trkpt lat="45.872052954509854" lon="8.72314696200192">
        <ele>812.97</ele>
        <time>2024-05-28T12:07:57.483Z</time>
      </trkpt>
      <trkpt lat="45.87204993702471" lon="8.723176969215274">
        <ele>813.41</ele>
        <time>2024-05-28T12:07:59.927Z</time>
      </trkpt>
      <trkpt lat="45.872052954509854" lon="8.723214939236641">
        <ele>813.85</ele>
        <time>2024-05-28T12:08:02.372Z</time>
      </trkpt>
      <trkpt lat="45.87204993702471" lon="8.723239917308092">
        <ele>814.29</ele>
        <time>2024-05-28T12:08:04.818Z</time>
      </trkpt>
      <trkpt lat="45.87205697782338" lon="8.723287945613265">
        <ele>814.74</ele>
        <time>2024-05-28T12:08:07.265Z</time>
      </trkpt>
      <trkpt lat="45.87206292897463" lon="8.723314935341477">
        <ele>815.19</ele>
        <time>2024-05-28T12:08:09.712Z</time>
      </trkpt>
      <trkpt lat="45.87206695228815" lon="8.723352989181876">
        <ele>815.64</ele>
        <time>2024-05-28T12:08:12.160Z</time>
      </trkpt>
      <trkpt lat="45.87206695228815" lon="8.723379978910089">
        <ele>816.09</ele>
        <time>2024-05-28T12:08:14.609Z</time>
      </trkpt>
      <trkpt lat="45.87204691953957" lon="8.723421972244978">
        <ele>816.55</ele>
        <time>2024-05-28T12:08:17.059Z</time>
      </trkpt>
      <trkpt lat="45.87204298004508" lon="8.72344795614481">
        <ele>817.01</ele>
        <time>2024-05-28T12:08:19.510Z</time>
      </trkpt>
      <trkpt lat="45.87204298004508" lon="8.723487937822938">
        <ele>817.48</ele>
        <time>2024-05-28T12:08:21.962Z</time>
      </trkpt>
      <trkpt lat="45.87204691953957" lon="8.723519956693053">
        <ele>817.94</ele>
        <time>2024-05-28T12:08:24.414Z</time>
      </trkpt>
      <trkpt lat="45.87203795090318" lon="8.723539989441633">
        <ele>818.4</ele>
        <time>2024-05-28T12:08:26.867Z</time>
      </trkpt>
      <trkpt lat="45.872031999751925" lon="8.723566979169846">
        <ele>818.86</ele>
        <time>2024-05-28T12:08:29.321Z</time>
      </trkpt>
      <trkpt lat="45.872031999751925" lon="8.723592963069677">
        <ele>819.33</ele>
        <time>2024-05-28T12:08:31.775Z</time>
      </trkpt>
      <trkpt lat="45.87202495895326" lon="8.723626993596554">
        <ele>819.8</ele>
        <time>2024-05-28T12:08:34.230Z</time>
      </trkpt>
      <trkpt lat="45.87200794368982" lon="8.723647948354483">
        <ele>820.25</ele>
        <time>2024-05-28T12:08:36.686Z</time>
      </trkpt>
      <trkpt lat="45.87200794368982" lon="8.723679967224598">
        <ele>820.72</ele>
        <time>2024-05-28T12:08:39.143Z</time>
      </trkpt>
      <trkpt lat="45.8720179181546" lon="8.72370494529605">
        <ele>821.2</ele>
        <time>2024-05-28T12:08:41.600Z</time>
      </trkpt>
      <trkpt lat="45.8720279764384" lon="8.723734952509403">
        <ele>821.67</ele>
        <time>2024-05-28T12:08:44.058Z</time>
      </trkpt>
      <trkpt lat="45.87203795090318" lon="8.723761942237616">
        <ele>822.15</ele>
        <time>2024-05-28T12:08:46.517Z</time>
      </trkpt>
      <trkpt lat="45.87203795090318" lon="8.723796978592873">
        <ele>822.63</ele>
        <time>2024-05-28T12:08:48.977Z</time>
      </trkpt>
      <trkpt lat="45.87204691953957" lon="8.723826985806227">
        <ele>823.12</ele>
        <time>2024-05-28T12:08:51.437Z</time>
      </trkpt>
      <trkpt lat="45.872052954509854" lon="8.72385699301958">
        <ele>823.61</ele>
        <time>2024-05-28T12:08:53.898Z</time>
      </trkpt>
      <trkpt lat="45.87204993702471" lon="8.723889933899045">
        <ele>824.1</ele>
        <time>2024-05-28T12:08:56.360Z</time>
      </trkpt>
      <trkpt lat="45.87204993702471" lon="8.723916923627257">
        <ele>824.59</ele>
        <time>2024-05-28T12:08:58.822Z</time>
      </trkpt>
      <trkpt lat="45.87204691953957" lon="8.723949948325753">
        <ele>825.09</ele>
        <time>2024-05-28T12:09:01.285Z</time>
      </trkpt>
      <trkpt lat="45.87204691953957" lon="8.723974926397204">
        <ele>825.6</ele>
        <time>2024-05-28T12:09:03.749Z</time>
      </trkpt>
      <trkpt lat="45.87203795090318" lon="8.724001999944448">
        <ele>826.12</ele>
        <time>2024-05-28T12:09:06.214Z</time>
      </trkpt>
      <trkpt lat="45.872034933418036" lon="8.724037958309054">
        <ele>826.64</ele>
        <time>2024-05-28T12:09:08.679Z</time>
      </trkpt>
      <trkpt lat="45.872034933418036" lon="8.724059918895364">
        <ele>827.17</ele>
        <time>2024-05-28T12:09:11.145Z</time>
      </trkpt>
      <trkpt lat="45.87203795090318" lon="8.72409495525062">
        <ele>827.71</ele>
        <time>2024-05-28T12:09:13.612Z</time>
      </trkpt>
      <trkpt lat="45.87203795090318" lon="8.7241149879992">
        <ele>828.25</ele>
        <time>2024-05-28T12:09:16.079Z</time>
      </trkpt>
      <trkpt lat="45.87204691953957" lon="8.724142983555794">
        <ele>828.8</ele>
        <time>2024-05-28T12:09:18.547Z</time>
      </trkpt>
      <trkpt lat="45.87205697782338" lon="8.724172990769148">
        <ele>829.37</ele>
        <time>2024-05-28T12:09:21.016Z</time>
      </trkpt>
      <trkpt lat="45.87206996977329" lon="8.724187994375825">
        <ele>829.93</ele>
        <time>2024-05-28T12:09:23.485Z</time>
      </trkpt>
      <trkpt lat="45.87208195589483" lon="8.724217917770147">
        <ele>830.51</ele>
        <time>2024-05-28T12:09:25.955Z</time>
      </trkpt>
      <trkpt lat="45.8720919303596" lon="8.72424197383225">
        <ele>831.09</ele>
        <time>2024-05-28T12:09:28.426Z</time>
      </trkpt>
      <trkpt lat="45.87210492230952" lon="8.724267957732081">
        <ele>831.69</ele>
        <time>2024-05-28T12:09:30.897Z</time>
      </trkpt>
      <trkpt lat="45.872117998078465" lon="8.724291929975152">
        <ele>832.29</ele>
        <time>2024-05-28T12:09:33.369Z</time>
      </trkpt>
      <trkpt lat="45.8721299842" lon="8.724306933581829">
        <ele>832.88</ele>
        <time>2024-05-28T12:09:35.842Z</time>
      </trkpt>
      <trkpt lat="45.87214297614992" lon="8.72432797215879">
        <ele>833.49</ele>
        <time>2024-05-28T12:09:38.315Z</time>
      </trkpt>
      <trkpt lat="45.87215295061469" lon="8.724357979372144">
        <ele>834.11</ele>
        <time>2024-05-28T12:09:40.789Z</time>
      </trkpt>
      <trkpt lat="45.872164936736226" lon="8.724384969100356">
        <ele>834.73</ele>
        <time>2024-05-28T12:09:43.264Z</time>
      </trkpt>
      <trkpt lat="45.872181951999664" lon="8.724409947171807">
        <ele>835.35</ele>
        <time>2024-05-28T12:09:45.740Z</time>
      </trkpt>
      <trkpt lat="45.87218798696995" lon="8.72443693690002">
        <ele>835.97</ele>
        <time>2024-05-28T12:09:48.216Z</time>
      </trkpt>
      <trkpt lat="45.872202990576625" lon="8.724464932456613">
        <ele>836.61</ele>
        <time>2024-05-28T12:09:50.693Z</time>
      </trkpt>
      <trkpt lat="45.8722129650414" lon="8.724486976861954">
        <ele>837.24</ele>
        <time>2024-05-28T12:09:53.171Z</time>
      </trkpt>
      <trkpt lat="45.8722129650414" lon="8.724519917741418">
        <ele>837.87</ele>
        <time>2024-05-28T12:09:55.649Z</time>
      </trkpt>
      <trkpt lat="45.87222293950617" lon="8.724539950489998">
        <ele>838.5</ele>
        <time>2024-05-28T12:09:58.128Z</time>
      </trkpt>
      <trkpt lat="45.87223693728447" lon="8.724569957703352">
        <ele>839.15</ele>
        <time>2024-05-28T12:10:00.608Z</time>
      </trkpt>
      <trkpt lat="45.87225495837629" lon="8.724596947431564">
        <ele>839.8</ele>
        <time>2024-05-28T12:10:03.089Z</time>
      </trkpt>
      <trkpt lat="45.87226199917495" lon="8.724619997665286">
        <ele>840.44</ele>
        <time>2024-05-28T12:10:05.570Z</time>
      </trkpt>
      <trkpt lat="45.87227197363973" lon="8.724644975736737">
        <ele>841.08</ele>
        <time>2024-05-28T12:10:08.052Z</time>
      </trkpt>
      <trkpt lat="45.87228295393288" lon="8.724676994606853">
        <ele>841.73</ele>
        <time>2024-05-28T12:10:10.535Z</time>
      </trkpt>
      <trkpt lat="45.872292928397655" lon="8.724709935486317">
        <ele>842.38</ele>
        <time>2024-05-28T12:10:13.019Z</time>
      </trkpt>
      <trkpt lat="45.87229695171118" lon="8.72473793104291">
        <ele>843.02</ele>
        <time>2024-05-28T12:10:15.503Z</time>
      </trkpt>
      <trkpt lat="45.87230298668146" lon="8.724762992933393">
        <ele>843.66</ele>
        <time>2024-05-28T12:10:17.988Z</time>
      </trkpt>
      <trkpt lat="45.872312961146235" lon="8.724787971004844">
        <ele>844.3</ele>
        <time>2024-05-28T12:10:20.474Z</time>
      </trkpt>
      <trkpt lat="45.87232494726777" lon="8.724812949076295">
        <ele>844.94</ele>
        <time>2024-05-28T12:10:22.960Z</time>
      </trkpt>
      <trkpt lat="45.87234196253121" lon="8.724834993481636">
        <ele>845.56</ele>
        <time>2024-05-28T12:10:25.447Z</time>
      </trkpt>
      <trkpt lat="45.87235998362303" lon="8.724851924926043">
        <ele>846.18</ele>
        <time>2024-05-28T12:10:27.935Z</time>
      </trkpt>
      <trkpt lat="45.87238999083638" lon="8.724872963503003">
        <ele>846.78</ele>
        <time>2024-05-28T12:10:30.424Z</time>
      </trkpt>
      <trkpt lat="45.87240499444306" lon="8.724892996251583">
        <ele>847.4</ele>
        <time>2024-05-28T12:10:32.914Z</time>
      </trkpt>
      <trkpt lat="45.87240499444306" lon="8.724919985979795">
        <ele>848.03</ele>
        <time>2024-05-28T12:10:35.404Z</time>
      </trkpt>
      <trkpt lat="45.87240792810917" lon="8.72495292685926">
        <ele>848.66</ele>
        <time>2024-05-28T12:10:37.895Z</time>
      </trkpt>
      <trkpt lat="45.87241195142269" lon="8.724977988749743">
        <ele>849.29</ele>
        <time>2024-05-28T12:10:40.387Z</time>
      </trkpt>
      <trkpt lat="45.872421925887465" lon="8.72499793767929">
        <ele>849.91</ele>
        <time>2024-05-28T12:10:42.879Z</time>
      </trkpt>
      <trkpt lat="45.87240499444306" lon="8.725011935457587">
        <ele>850.54</ele>
        <time>2024-05-28T12:10:45.372Z</time>
      </trkpt>
      <trkpt lat="45.87238999083638" lon="8.725021993741393">
        <ele>851.17</ele>
        <time>2024-05-28T12:10:47.865Z</time>
      </trkpt>
      <trkpt lat="45.872379932552576" lon="8.725041942670941">
        <ele>851.8</ele>
        <time>2024-05-28T12:10:50.359Z</time>
      </trkpt>
      <trkpt lat="45.87235998362303" lon="8.725052922964096">
        <ele>852.44</ele>
        <time>2024-05-28T12:10:52.854Z</time>
      </trkpt>
      <trkpt lat="45.87234799750149" lon="8.725072955712676">
        <ele>853.07</ele>
        <time>2024-05-28T12:10:55.349Z</time>
      </trkpt>
      <trkpt lat="45.872331988066435" lon="8.725091982632875">
        <ele>853.71</ele>
        <time>2024-05-28T12:10:57.845Z</time>
      </trkpt>
      <trkpt lat="45.87230692617595" lon="8.725116960704327">
        <ele>854.32</ele>
        <time>2024-05-28T12:11:00.342Z</time>
      </trkpt>
      <trkpt lat="45.87228295393288" lon="8.725129952654243">
        <ele>854.93</ele>
        <time>2024-05-28T12:11:02.840Z</time>
      </trkpt>
      <trkpt lat="45.872292928397655" lon="8.725149985402822">
        <ele>855.56</ele>
        <time>2024-05-28T12:11:05.338Z</time>
      </trkpt>
      <trkpt lat="45.872309943661094" lon="8.7251649890095">
        <ele>856.2</ele>
        <time>2024-05-28T12:11:07.837Z</time>
      </trkpt>
      <trkpt lat="45.87232494726777" lon="8.725199941545725">
        <ele>856.85</ele>
        <time>2024-05-28T12:11:10.337Z</time>
      </trkpt>
      <trkpt lat="45.87232192978263" lon="8.725229948759079">
        <ele>857.48</ele>
        <time>2024-05-28T12:11:12.838Z</time>
      </trkpt>
      <trkpt lat="45.872309943661094" lon="8.72525492683053">
        <ele>858.11</ele>
        <time>2024-05-28T12:11:15.339Z</time>
      </trkpt>
      <trkpt lat="45.872292928397655" lon="8.725271942093968">
        <ele>858.72</ele>
        <time>2024-05-28T12:11:17.841Z</time>
      </trkpt>
      <trkpt lat="45.87228295393288" lon="8.72529499232769">
        <ele>859.35</ele>
        <time>2024-05-28T12:11:20.344Z</time>
      </trkpt>
      <trkpt lat="45.87230298668146" lon="8.725307984277606">
        <ele>860.0</ele>
        <time>2024-05-28T12:11:22.848Z</time>
      </trkpt>
      <trkpt lat="45.87231698445976" lon="8.725324999541044">
        <ele>860.65</ele>
        <time>2024-05-28T12:11:25.352Z</time>
      </trkpt>
      <trkpt lat="45.87230692617595" lon="8.725342936813831">
        <ele>861.28</ele>
        <time>2024-05-28T12:11:27.857Z</time>
      </trkpt>
      <trkpt lat="45.87231698445976" lon="8.725362969562411">
        <ele>861.94</ele>
        <time>2024-05-28T12:11:30.362Z</time>
      </trkpt>
      <trkpt lat="45.87232796475291" lon="8.72538291849196">
        <ele>862.59</ele>
        <time>2024-05-28T12:11:32.868Z</time>
      </trkpt>
      <trkpt lat="45.872334921732545" lon="8.725414937362075">
        <ele>863.25</ele>
        <time>2024-05-28T12:11:35.375Z</time>
      </trkpt>
      <trkpt lat="45.872334921732545" lon="8.725439999252558">
        <ele>863.91</ele>
        <time>2024-05-28T12:11:37.882Z</time>
      </trkpt>
      <trkpt lat="45.87234196253121" lon="8.725474951788783">
        <ele>864.57</ele>
        <time>2024-05-28T12:11:40.390Z</time>
      </trkpt>
      <trkpt lat="45.872354954481125" lon="8.725501941516995">
        <ele>865.23</ele>
        <time>2024-05-28T12:11:42.899Z</time>
      </trkpt>
      <trkpt lat="45.87235193699598" lon="8.725527925416827">
        <ele>865.89</ele>
        <time>2024-05-28T12:11:45.408Z</time>
      </trkpt>
      <trkpt lat="45.87234799750149" lon="8.725554998964071">
        <ele>866.56</ele>
        <time>2024-05-28T12:11:47.918Z</time>
      </trkpt>
      <trkpt lat="45.87234799750149" lon="8.725581988692284">
        <ele>867.22</ele>
        <time>2024-05-28T12:11:50.429Z</time>
      </trkpt>
      <trkpt lat="45.872334921732545" lon="8.72561995871365">
        <ele>867.9</ele>
        <time>2024-05-28T12:11:52.941Z</time>
      </trkpt>
      <trkpt lat="45.872331988066435" lon="8.725646948441863">
        <ele>868.56</ele>
        <time>2024-05-28T12:11:55.453Z</time>
      </trkpt>
      <trkpt lat="45.87234196253121" lon="8.725679973140359">
        <ele>869.23</ele>
        <time>2024-05-28T12:11:57.966Z</time>
      </trkpt>
      <trkpt lat="45.87235193699598" lon="8.725706962868571">
        <ele>869.89</ele>
        <time>2024-05-28T12:12:00.480Z</time>
      </trkpt>
      <trkpt lat="45.8723699580878" lon="8.725721966475248">
        <ele>870.53</ele>
        <time>2024-05-28T12:12:02.995Z</time>
      </trkpt>
      <trkpt lat="45.872379932552576" lon="8.725757924839854">
        <ele>871.2</ele>
        <time>2024-05-28T12:12:05.510Z</time>
      </trkpt>
      <trkpt lat="45.87238999083638" lon="8.725784998387098">
        <ele>871.86</ele>
        <time>2024-05-28T12:12:08.026Z</time>
      </trkpt>
      <trkpt lat="45.87239292450249" lon="8.72581492178142">
        <ele>872.51</ele>
        <time>2024-05-28T12:12:10.543Z</time>
      </trkpt>
      <trkpt lat="45.87238295003772" lon="8.725844928994775">
        <ele>873.17</ele>
        <time>2024-05-28T12:12:13.061Z</time>
      </trkpt>
      <trkpt lat="45.87238295003772" lon="8.725879965350032">
        <ele>873.83</ele>
        <time>2024-05-28T12:12:15.579Z</time>
      </trkpt>
      <trkpt lat="45.87238295003772" lon="8.725914917886257">
        <ele>874.48</ele>
        <time>2024-05-28T12:12:18.098Z</time>
      </trkpt>
      <trkpt lat="45.872372975572944" lon="8.725934950634837">
        <ele>875.12</ele>
        <time>2024-05-28T12:12:20.618Z</time>
      </trkpt>
      <trkpt lat="45.8723699580878" lon="8.725964957848191">
        <ele>875.77</ele>
        <time>2024-05-28T12:12:23.139Z</time>
      </trkpt>
      <trkpt lat="45.872379932552576" lon="8.726007957011461">
        <ele>876.41</ele>
        <time>2024-05-28T12:12:25.661Z</time>
      </trkpt>
      <trkpt lat="45.87238295003772" lon="8.726037964224815">
        <ele>877.05</ele>
        <time>2024-05-28T12:12:28.183Z</time>
      </trkpt>
      <trkpt lat="45.8723699580878" lon="8.726062942296267">
        <ele>877.68</ele>
        <time>2024-05-28T12:12:30.706Z</time>
      </trkpt>
      <trkpt lat="45.87236291728914" lon="8.726101918146014">
        <ele>878.32</ele>
        <time>2024-05-28T12:12:33.230Z</time>
      </trkpt>
      <trkpt lat="45.87235998362303" lon="8.726141983643174">
        <ele>878.96</ele>
        <time>2024-05-28T12:12:35.755Z</time>
      </trkpt>
      <trkpt lat="45.87234498001635" lon="8.726179953664541">
        <ele>879.59</ele>
        <time>2024-05-28T12:12:38.281Z</time>
      </trkpt>
      <trkpt lat="45.872334921732545" lon="8.726201998069882">
        <ele>880.2</ele>
        <time>2024-05-28T12:12:40.808Z</time>
      </trkpt>
      <trkpt lat="45.872334921732545" lon="8.72624197974801">
        <ele>880.82</ele>
        <time>2024-05-28T12:12:43.336Z</time>
      </trkpt>
      <trkpt lat="45.87234196253121" lon="8.726274920627475">
        <ele>881.43</ele>
        <time>2024-05-28T12:12:45.864Z</time>
      </trkpt>
      <trkpt lat="45.87232796475291" lon="8.726301994174719">
        <ele>882.03</ele>
        <time>2024-05-28T12:12:48.393Z</time>
      </trkpt>
      <trkpt lat="45.87232796475291" lon="8.726332923397422">
        <ele>882.64</ele>
        <time>2024-05-28T12:12:50.923Z</time>
      </trkpt>
      <trkpt lat="45.87232192978263" lon="8.726366953924298">
        <ele>883.23</ele>
        <time>2024-05-28T12:12:53.454Z</time>
      </trkpt>
      <trkpt lat="45.87232494726777" lon="8.726399978622794">
        <ele>883.84</ele>
        <time>2024-05-28T12:12:55.985Z</time>
      </trkpt>
      <trkpt lat="45.87232192978263" lon="8.726432919502258">
        <ele>884.43</ele>
        <time>2024-05-28T12:12:58.517Z</time>
      </trkpt>
      <trkpt lat="45.87231698445976" lon="8.726459993049502">
        <ele>885.02</ele>
        <time>2024-05-28T12:13:01.050Z</time>
      </trkpt>
      <trkpt lat="45.87232796475291" lon="8.72647994197905">
        <ele>885.63</ele>
        <time>2024-05-28T12:13:03.583Z</time>
      </trkpt>
      <trkpt lat="45.872331988066435" lon="8.726509949192405">
        <ele>886.23</ele>
        <time>2024-05-28T12:13:06.117Z</time>
      </trkpt>
      <trkpt lat="45.87234799750149" lon="8.726531993597746">
        <ele>886.82</ele>
        <time>2024-05-28T12:13:08.652Z</time>
      </trkpt>
      <trkpt lat="45.872354954481125" lon="8.72656493447721">
        <ele>887.42</ele>
        <time>2024-05-28T12:13:11.188Z</time>
      </trkpt>
      <trkpt lat="45.87236291728914" lon="8.726586978882551">
        <ele>888.01</ele>
        <time>2024-05-28T12:13:13.724Z</time>
      </trkpt>
      <trkpt lat="45.8723699580878" lon="8.726611956954002">
        <ele>888.61</ele>
        <time>2024-05-28T12:13:16.261Z</time>
      </trkpt>
      <trkpt lat="45.87238295003772" lon="8.726636935025454">
        <ele>889.2</ele>
        <time>2024-05-28T12:13:18.799Z</time>
      </trkpt>
      <trkpt lat="45.872396947816014" lon="8.726661996915936">
        <ele>889.8</ele>
        <time>2024-05-28T12:13:21.337Z</time>
      </trkpt>
      <trkpt lat="45.87240197695792" lon="8.726684963330626">
        <ele>890.39</ele>
        <time>2024-05-28T12:13:23.876Z</time>
      </trkpt>
      <trkpt lat="45.87240197695792" lon="8.72671497054398">
        <ele>890.99</ele>
        <time>2024-05-28T12:13:26.416Z</time>
      </trkpt>
      <trkpt lat="45.87239292450249" lon="8.72673693113029">
        <ele>891.59</ele>
        <time>2024-05-28T12:13:28.956Z</time>
      </trkpt>
      <trkpt lat="45.872396947816014" lon="8.726774984970689">
        <ele>892.2</ele>
        <time>2024-05-28T12:13:31.497Z</time>
      </trkpt>
      <trkpt lat="45.87238295003772" lon="8.726809937506914">
        <ele>892.81</ele>
        <time>2024-05-28T12:13:34.039Z</time>
      </trkpt>
      <trkpt lat="45.872379932552576" lon="8.72684296220541">
        <ele>893.41</ele>
        <time>2024-05-28T12:13:36.582Z</time>
      </trkpt>
      <trkpt lat="45.87240792810917" lon="8.726859977468848">
        <ele>894.02</ele>
        <time>2024-05-28T12:13:39.126Z</time>
      </trkpt>
      <trkpt lat="45.87242796085775" lon="8.726874981075525">
        <ele>894.62</ele>
        <time>2024-05-28T12:13:41.671Z</time>
      </trkpt>
      <trkpt lat="45.87243491783738" lon="8.726919991895556">
        <ele>895.24</ele>
        <time>2024-05-28T12:13:44.217Z</time>
      </trkpt>
      <trkpt lat="45.87244698777795" lon="8.726937929168344">
        <ele>895.85</ele>
        <time>2024-05-28T12:13:46.763Z</time>
      </trkpt>
      <trkpt lat="45.87244992144406" lon="8.726981934159994">
        <ele>896.47</ele>
        <time>2024-05-28T12:13:49.310Z</time>
      </trkpt>
      <trkpt lat="45.8724669367075" lon="8.727022921666503">
        <ele>897.1</ele>
        <time>2024-05-28T12:13:51.858Z</time>
      </trkpt>
      <trkpt lat="45.872442964464426" lon="8.72707698494196">
        <ele>897.75</ele>
        <time>2024-05-28T12:13:54.408Z</time>
      </trkpt>
      <trkpt lat="45.87242494337261" lon="8.727092994377017">
        <ele>898.36</ele>
        <time>2024-05-28T12:13:56.959Z</time>
      </trkpt>
      <trkpt lat="45.87241195142269" lon="8.72711998410523">
        <ele>898.99</ele>
        <time>2024-05-28T12:13:59.510Z</time>
      </trkpt>
      <trkpt lat="45.87241496890783" lon="8.727151919156313">
        <ele>899.63</ele>
        <time>2024-05-28T12:14:02.062Z</time>
      </trkpt>
      <trkpt lat="45.87240792810917" lon="8.727179998531938">
        <ele>900.26</ele>
        <time>2024-05-28T12:14:04.615Z</time>
      </trkpt>
      <trkpt lat="45.872396947816014" lon="8.727197935804725">
        <ele>900.89</ele>
        <time>2024-05-28T12:14:07.168Z</time>
      </trkpt>
      <trkpt lat="45.87240499444306" lon="8.727219980210066">
        <ele>901.53</ele>
        <time>2024-05-28T12:14:09.722Z</time>
      </trkpt>
      <trkpt lat="45.872421925887465" lon="8.727241940796375">
        <ele>902.18</ele>
        <time>2024-05-28T12:14:12.277Z</time>
      </trkpt>
      <trkpt lat="45.87242494337261" lon="8.727274965494871">
        <ele>902.84</ele>
        <time>2024-05-28T12:14:14.832Z</time>
      </trkpt>
      <trkpt lat="45.87242494337261" lon="8.727309918031096">
        <ele>903.5</ele>
        <time>2024-05-28T12:14:17.388Z</time>
      </trkpt>
      <trkpt lat="45.87242494337261" lon="8.72733992524445">
        <ele>904.16</ele>
        <time>2024-05-28T12:14:19.945Z</time>
      </trkpt>
      <trkpt lat="45.87242494337261" lon="8.727366998791695">
        <ele>904.82</ele>
        <time>2024-05-28T12:14:22.503Z</time>
      </trkpt>
      <trkpt lat="45.872421925887465" lon="8.727399939671159">
        <ele>905.49</ele>
        <time>2024-05-28T12:14:25.061Z</time>
      </trkpt>
      <trkpt lat="45.87242796085775" lon="8.72742298990488">
        <ele>906.17</ele>
        <time>2024-05-28T12:14:27.620Z</time>
      </trkpt>
      <trkpt lat="45.87244698777795" lon="8.727452997118235">
        <ele>906.85</ele>
        <time>2024-05-28T12:14:30.180Z</time>
      </trkpt>
      <trkpt lat="45.87244992144406" lon="8.727489961311221">
        <ele>907.54</ele>
        <time>2024-05-28T12:14:32.741Z</time>
      </trkpt>
      <trkpt lat="45.872442964464426" lon="8.727514939382672">
        <ele>908.21</ele>
        <time>2024-05-28T12:14:35.302Z</time>
      </trkpt>
      <trkpt lat="45.87242494337261" lon="8.727534972131252">
        <ele>908.89</ele>
        <time>2024-05-28T12:14:37.864Z</time>
      </trkpt>
      <trkpt lat="45.87240499444306" lon="8.727562967687845">
        <ele>909.57</ele>
        <time>2024-05-28T12:14:40.427Z</time>
      </trkpt>
      <trkpt lat="45.87239292450249" lon="8.7275929749012">
        <ele>910.27</ele>
        <time>2024-05-28T12:14:42.991Z</time>
      </trkpt>
      <trkpt lat="45.87240499444306" lon="8.727607978507876">
        <ele>910.96</ele>
        <time>2024-05-28T12:14:45.555Z</time>
      </trkpt>
      <trkpt lat="45.87240499444306" lon="8.727639997377992">
        <ele>911.66</ele>
        <time>2024-05-28T12:14:48.120Z</time>
      </trkpt>
      <trkpt lat="45.87238697335124" lon="8.727667992934585">
        <ele>912.37</ele>
        <time>2024-05-28T12:14:50.686Z</time>
      </trkpt>
      <trkpt lat="45.872379932552576" lon="8.727696994319558">
        <ele>913.08</ele>
        <time>2024-05-28T12:14:53.253Z</time>
      </trkpt>
      <trkpt lat="45.8723699580878" lon="8.727731946855783">
        <ele>913.8</ele>
        <time>2024-05-28T12:14:55.821Z</time>
      </trkpt>
      <trkpt lat="45.8723699580878" lon="8.727761954069138">
        <ele>914.51</ele>
        <time>2024-05-28T12:14:58.389Z</time>
      </trkpt>
      <trkpt lat="45.8723699580878" lon="8.727792967110872">
        <ele>915.24</ele>
        <time>2024-05-28T12:15:00.958Z</time>
      </trkpt>
      <trkpt lat="45.87238697335124" lon="8.727817945182323">
        <ele>915.96</ele>
        <time>2024-05-28T12:15:03.528Z</time>
      </trkpt>
      <trkpt lat="45.872396947816014" lon="8.727837977930903">
        <ele>916.67</ele>
        <time>2024-05-28T12:15:06.098Z</time>
      </trkpt>
      <trkpt lat="45.87241496890783" lon="8.72785298153758">
        <ele>917.39</ele>
        <time>2024-05-28T12:15:08.669Z</time>
      </trkpt>
      <trkpt lat="45.87242796085775" lon="8.727879971265793">
        <ele>918.12</ele>
        <time>2024-05-28T12:15:11.241Z</time>
      </trkpt>
      <trkpt lat="45.87243491783738" lon="8.727909978479147">
        <ele>918.84</ele>
        <time>2024-05-28T12:15:13.814Z</time>
      </trkpt>
      <trkpt lat="45.872439946979284" lon="8.727934956550598">
        <ele>919.56</ele>
        <time>2024-05-28T12:15:16.387Z</time>
      </trkpt>
      <trkpt lat="45.872459979727864" lon="8.727957922965288">
        <ele>920.28</ele>
        <time>2024-05-28T12:15:18.961Z</time>
      </trkpt>
      <trkpt lat="45.8724669367075" lon="8.72798197902739">
        <ele>921.0</ele>
        <time>2024-05-28T12:15:21.536Z</time>
      </trkpt>
      <trkpt lat="45.87247992865741" lon="8.728019949048758">
        <ele>921.73</ele>
        <time>2024-05-28T12:15:24.112Z</time>
      </trkpt>
      <trkpt lat="45.872484957799315" lon="8.728056997060776">
        <ele>922.45</ele>
        <time>2024-05-28T12:15:26.689Z</time>
      </trkpt>
      <trkpt lat="45.87248797528446" lon="8.728091949597001">
        <ele>923.17</ele>
        <time>2024-05-28T12:15:29.266Z</time>
      </trkpt>
      <trkpt lat="45.87248797528446" lon="8.728127991780639">
        <ele>923.88</ele>
        <time>2024-05-28T12:15:31.844Z</time>
      </trkpt>
      <trkpt lat="45.872481940314174" lon="8.728159926831722">
        <ele>924.58</ele>
        <time>2024-05-28T12:15:34.423Z</time>
      </trkpt>
      <trkpt lat="45.87249199859798" lon="8.728182977065444">
        <ele>925.27</ele>
        <time>2024-05-28T12:15:37.003Z</time>
      </trkpt>
      <trkpt lat="45.87248797528446" lon="8.728209966793656">
        <ele>925.96</ele>
        <time>2024-05-28T12:15:39.583Z</time>
      </trkpt>
      <trkpt lat="45.872484957799315" lon="8.728232933208346">
        <ele>926.64</ele>
        <time>2024-05-28T12:15:42.164Z</time>
      </trkpt>
      <trkpt lat="45.87249493226409" lon="8.7282629404217">
        <ele>927.31</ele>
        <time>2024-05-28T12:15:44.746Z</time>
      </trkpt>
      <trkpt lat="45.872504990547895" lon="8.728299988433719">
        <ele>927.99</ele>
        <time>2024-05-28T12:15:47.329Z</time>
      </trkpt>
      <trkpt lat="45.872504990547895" lon="8.728341981768608">
        <ele>928.66</ele>
        <time>2024-05-28T12:15:49.913Z</time>
      </trkpt>
      <trkpt lat="45.872504990547895" lon="8.72836796566844">
        <ele>929.31</ele>
        <time>2024-05-28T12:15:52.497Z</time>
      </trkpt>
      <trkpt lat="45.872504990547895" lon="8.728396967053413">
        <ele>929.96</ele>
        <time>2024-05-28T12:15:55.082Z</time>
      </trkpt>
      <trkpt lat="45.87251496501267" lon="8.728421945124865">
        <ele>930.59</ele>
        <time>2024-05-28T12:15:57.667Z</time>
      </trkpt>
      <trkpt lat="45.872526951134205" lon="8.728446923196316">
        <ele>931.21</ele>
        <time>2024-05-28T12:16:00.253Z</time>
      </trkpt>
      <trkpt lat="45.87252292782068" lon="8.72847299091518">
        <ele>931.82</ele>
        <time>2024-05-28T12:16:02.840Z</time>
      </trkpt>
      <trkpt lat="45.872526951134205" lon="8.728499980643392">
        <ele>932.41</ele>
        <time>2024-05-28T12:16:05.427Z</time>
      </trkpt>
      <trkpt lat="45.87253994308412" lon="8.728517917916179">
        <ele>933.0</ele>
        <time>2024-05-28T12:16:08.015Z</time>
      </trkpt>
      <trkpt lat="45.8725599758327" lon="8.728531999513507">
        <ele>933.57</ele>
        <time>2024-05-28T12:16:10.604Z</time>
      </trkpt>
      <trkpt lat="45.872571961954236" lon="8.728551948443055">
        <ele>934.13</ele>
        <time>2024-05-28T12:16:13.193Z</time>
      </trkpt>
      <trkpt lat="45.87258193641901" lon="8.72858195565641">
        <ele>934.68</ele>
        <time>2024-05-28T12:16:15.783Z</time>
      </trkpt>
      <trkpt lat="45.872591994702816" lon="8.728611962869763">
        <ele>935.23</ele>
        <time>2024-05-28T12:16:18.374Z</time>
      </trkpt>
      <trkpt lat="45.872594928368926" lon="8.728639958426356">
        <ele>935.76</ele>
        <time>2024-05-28T12:16:20.966Z</time>
      </trkpt>
      <trkpt lat="45.87260699830949" lon="8.728664936497808">
        <ele>936.27</ele>
        <time>2024-05-28T12:16:23.558Z</time>
      </trkpt>
      <trkpt lat="45.872612949460745" lon="8.728697961196303">
        <ele>936.77</ele>
        <time>2024-05-28T12:16:26.151Z</time>
      </trkpt>
      <trkpt lat="45.87262996472418" lon="8.728721933439374">
        <ele>937.25</ele>
        <time>2024-05-28T12:16:28.745Z</time>
      </trkpt>
      <trkpt lat="45.872647985816" lon="8.728746995329857">
        <ele>937.71</ele>
        <time>2024-05-28T12:16:31.340Z</time>
      </trkpt>
      <trkpt lat="45.872657960280776" lon="8.72877499088645">
        <ele>938.17</ele>
        <time>2024-05-28T12:16:33.935Z</time>
      </trkpt>
      <trkpt lat="45.87264496833086" lon="8.72879695147276">
        <ele>938.62</ele>
        <time>2024-05-28T12:16:36.531Z</time>
      </trkpt>
      <trkpt lat="45.87262996472418" lon="8.728814972564578">
        <ele>939.06</ele>
        <time>2024-05-28T12:16:39.128Z</time>
      </trkpt>
      <trkpt lat="45.87263993918896" lon="8.728842968121171">
        <ele>939.48</ele>
        <time>2024-05-28T12:16:41.726Z</time>
      </trkpt>
      <trkpt lat="45.872647985816" lon="8.728869957849383">
        <ele>939.89</ele>
        <time>2024-05-28T12:16:44.324Z</time>
      </trkpt>
      <trkpt lat="45.872677993029356" lon="8.728892924264073">
        <ele>940.27</ele>
        <time>2024-05-28T12:16:46.923Z</time>
      </trkpt>
      <trkpt lat="45.87268696166575" lon="8.728917986154556">
        <ele>940.66</ele>
        <time>2024-05-28T12:16:49.523Z</time>
      </trkpt>
      <trkpt lat="45.87266491726041" lon="8.72894992120564">
        <ele>941.04</ele>
        <time>2024-05-28T12:16:52.124Z</time>
      </trkpt>
      <trkpt lat="45.872647985816" lon="8.728967942297459">
        <ele>941.42</ele>
        <time>2024-05-28T12:16:54.726Z</time>
      </trkpt>
      <trkpt lat="45.87264195084572" lon="8.728994932025671">
        <ele>941.78</ele>
        <time>2024-05-28T12:16:57.328Z</time>
      </trkpt>
      <trkpt lat="45.87264496833086" lon="8.729022927582264">
        <ele>942.12</ele>
        <time>2024-05-28T12:16:59.931Z</time>
      </trkpt>
      <trkpt lat="45.87265192531049" lon="8.729047989472747">
        <ele>942.45</ele>
        <time>2024-05-28T12:17:02.535Z</time>
      </trkpt>
      <trkpt lat="45.8726619835943" lon="8.72907497920096">
        <ele>942.77</ele>
        <time>2024-05-28T12:17:05.139Z</time>
      </trkpt>
      <trkpt lat="45.87266491726041" lon="8.729101968929172">
        <ele>943.08</ele>
        <time>2024-05-28T12:17:07.744Z</time>
      </trkpt>
      <trkpt lat="45.8726619835943" lon="8.729132981970906">
        <ele>943.38</ele>
        <time>2024-05-28T12:17:10.350Z</time>
      </trkpt>
      <trkpt lat="45.87266793474555" lon="8.72916298918426">
        <ele>943.68</ele>
        <time>2024-05-28T12:17:12.957Z</time>
      </trkpt>
      <trkpt lat="45.87267195805907" lon="8.729192996397614">
        <ele>943.96</ele>
        <time>2024-05-28T12:17:15.564Z</time>
      </trkpt>
      <trkpt lat="45.87266793474555" lon="8.729219986125827">
        <ele>944.23</ele>
        <time>2024-05-28T12:17:18.172Z</time>
      </trkpt>
      <trkpt lat="45.87266793474555" lon="8.729266924783587">
        <ele>944.51</ele>
        <time>2024-05-28T12:17:20.781Z</time>
      </trkpt>
      <trkpt lat="45.87266793474555" lon="8.729297937825322">
        <ele>944.77</ele>
        <time>2024-05-28T12:17:23.391Z</time>
      </trkpt>
      <trkpt lat="45.87266793474555" lon="8.729326939210296">
        <ele>945.02</ele>
        <time>2024-05-28T12:17:26.001Z</time>
      </trkpt>
      <trkpt lat="45.87267195805907" lon="8.72937697917223">
        <ele>945.26</ele>
        <time>2024-05-28T12:17:28.613Z</time>
      </trkpt>
      <trkpt lat="45.872677993029356" lon="8.72939994558692">
        <ele>945.5</ele>
        <time>2024-05-28T12:17:31.225Z</time>
      </trkpt>
      <trkpt lat="45.87268696166575" lon="8.729426935315132">
        <ele>945.72</ele>
        <time>2024-05-28T12:17:33.838Z</time>
      </trkpt>
      <trkpt lat="45.872699953615665" lon="8.729444956406951">
        <ele>945.95</ele>
        <time>2024-05-28T12:17:36.451Z</time>
      </trkpt>
      <trkpt lat="45.87270297110081" lon="8.729477981105447">
        <ele>946.16</ele>
        <time>2024-05-28T12:17:39.065Z</time>
      </trkpt>
      <trkpt lat="45.87270992808044" lon="8.729499941691756">
        <ele>946.37</ele>
        <time>2024-05-28T12:17:41.680Z</time>
      </trkpt>
      <trkpt lat="45.87271294556558" lon="8.72952994890511">
        <ele>946.58</ele>
        <time>2024-05-28T12:17:44.295Z</time>
      </trkpt>
      <trkpt lat="45.87272794917226" lon="8.729544952511787">
        <ele>946.79</ele>
        <time>2024-05-28T12:17:46.911Z</time>
      </trkpt>
      <trkpt lat="45.87274798192084" lon="8.729569930583239">
        <ele>946.99</ele>
        <time>2024-05-28T12:17:49.528Z</time>
      </trkpt>
      <trkpt lat="45.87275795638561" lon="8.729594992473722">
        <ele>947.19</ele>
        <time>2024-05-28T12:17:52.146Z</time>
      </trkpt>
      <trkpt lat="45.87276994250715" lon="8.729619970545173">
        <ele>947.39</ele>
        <time>2024-05-28T12:17:54.764Z</time>
      </trkpt>
      <trkpt lat="45.872766925022006" lon="8.729649977758527">
        <ele>947.59</ele>
        <time>2024-05-28T12:17:57.383Z</time>
      </trkpt>
      <trkpt lat="45.87275795638561" lon="8.729674955829978">
        <ele>947.77</ele>
        <time>2024-05-28T12:18:00.003Z</time>
      </trkpt>
      <trkpt lat="45.87275192141533" lon="8.729707980528474">
        <ele>947.96</ele>
        <time>2024-05-28T12:18:02.623Z</time>
      </trkpt>
      <trkpt lat="45.87275192141533" lon="8.729747962206602">
        <ele>948.16</ele>
        <time>2024-05-28T12:18:05.244Z</time>
      </trkpt>
      <trkpt lat="45.87273792363703" lon="8.729766989126801">
        <ele>948.35</ele>
        <time>2024-05-28T12:18:07.866Z</time>
      </trkpt>
      <trkpt lat="45.87273197248578" lon="8.729781992733479">
        <ele>948.54</ele>
        <time>2024-05-28T12:18:10.488Z</time>
      </trkpt>
      <trkpt lat="45.87272199802101" lon="8.729819962754846">
        <ele>948.73</ele>
        <time>2024-05-28T12:18:13.111Z</time>
      </trkpt>
      <trkpt lat="45.87271294556558" lon="8.729842929169536">
        <ele>948.93</ele>
        <time>2024-05-28T12:18:15.735Z</time>
      </trkpt>
      <trkpt lat="45.87271294556558" lon="8.72987193055451">
        <ele>949.14</ele>
        <time>2024-05-28T12:18:18.360Z</time>
      </trkpt>
      <trkpt lat="45.87271294556558" lon="8.729896992444992">
        <ele>949.35</ele>
        <time>2024-05-28T12:18:20.985Z</time>
      </trkpt>
      <trkpt lat="45.87270699441433" lon="8.729922976344824">
        <ele>949.56</ele>
        <time>2024-05-28T12:18:23.611Z</time>
      </trkpt>
      <trkpt lat="45.87271294556558" lon="8.729946948587894">
        <ele>949.78</ele>
        <time>2024-05-28T12:18:26.237Z</time>
      </trkpt>
      <trkpt lat="45.87271294556558" lon="8.729984918609262">
        <ele>950.01</ele>
        <time>2024-05-28T12:18:28.864Z</time>
      </trkpt>
      <trkpt lat="45.87272199802101" lon="8.730011992156506">
        <ele>950.26</ele>
        <time>2024-05-28T12:18:31.492Z</time>
      </trkpt>
      <trkpt lat="45.87272493168712" lon="8.730059936642647">
        <ele>950.51</ele>
        <time>2024-05-28T12:18:34.121Z</time>
      </trkpt>
      <trkpt lat="45.87272493168712" lon="8.73008692637086">
        <ele>950.77</ele>
        <time>2024-05-28T12:18:36.751Z</time>
      </trkpt>
      <trkpt lat="45.87272493168712" lon="8.730117939412594">
        <ele>951.04</ele>
        <time>2024-05-28T12:18:39.382Z</time>
      </trkpt>
      <trkpt lat="45.87273792363703" lon="8.730141995474696">
        <ele>951.33</ele>
        <time>2024-05-28T12:18:42.013Z</time>
      </trkpt>
      <trkpt lat="45.8727449644357" lon="8.730171918869019">
        <ele>951.64</ele>
        <time>2024-05-28T12:18:44.645Z</time>
      </trkpt>
      <trkpt lat="45.87275795638561" lon="8.730199998244643">
        <ele>951.95</ele>
        <time>2024-05-28T12:18:47.278Z</time>
      </trkpt>
      <trkpt lat="45.872782934457064" lon="8.730229921638966">
        <ele>952.3</ele>
        <time>2024-05-28T12:18:49.912Z</time>
      </trkpt>
      <trkpt lat="45.872786957770586" lon="8.730267975479364">
        <ele>952.63</ele>
        <time>2024-05-28T12:18:52.547Z</time>
      </trkpt>
      <trkpt lat="45.872766925022006" lon="8.730307957157493">
        <ele>952.95</ele>
        <time>2024-05-28T12:18:55.183Z</time>
      </trkpt>
      <trkpt lat="45.872759968042374" lon="8.730341987684369">
        <ele>953.31</ele>
        <time>2024-05-28T12:18:57.820Z</time>
      </trkpt>
      <trkpt lat="45.872782934457064" lon="8.7303679715842">
        <ele>953.72</ele>
        <time>2024-05-28T12:19:00.458Z</time>
      </trkpt>
      <trkpt lat="45.87279299274087" lon="8.73038993217051">
        <ele>954.13</ele>
        <time>2024-05-28T12:19:03.096Z</time>
      </trkpt>
      <trkpt lat="45.8727999497205" lon="8.730419939383864">
        <ele>954.55</ele>
        <time>2024-05-28T12:19:05.735Z</time>
      </trkpt>
      <trkpt lat="45.872804978862405" lon="8.730447934940457">
        <ele>955.0</ele>
        <time>2024-05-28T12:19:08.375Z</time>
      </trkpt>
      <trkpt lat="45.872804978862405" lon="8.730477942153811">
        <ele>955.45</ele>
        <time>2024-05-28T12:19:11.015Z</time>
      </trkpt>
      <trkpt lat="45.87281193584204" lon="8.730506943538785">
        <ele>955.93</ele>
        <time>2024-05-28T12:19:13.656Z</time>
      </trkpt>
      <trkpt lat="45.87282492779195" lon="8.730522952973843">
        <ele>956.43</ele>
        <time>2024-05-28T12:19:16.298Z</time>
      </trkpt>
      <trkpt lat="45.87283993139863" lon="8.73053795658052">
        <ele>956.95</ele>
        <time>2024-05-28T12:19:18.940Z</time>
      </trkpt>
      <trkpt lat="45.87284294888377" lon="8.730572992935777">
        <ele>957.49</ele>
        <time>2024-05-28T12:19:21.583Z</time>
      </trkpt>
      <trkpt lat="45.87285996414721" lon="8.730599982663989">
        <ele>958.05</ele>
        <time>2024-05-28T12:19:24.227Z</time>
      </trkpt>
      <trkpt lat="45.872869938611984" lon="8.730626972392201">
        <ele>958.62</ele>
        <time>2024-05-28T12:19:26.872Z</time>
      </trkpt>
      <trkpt lat="45.87287697941065" lon="8.730659997090697">
        <ele>959.23</ele>
        <time>2024-05-28T12:19:29.518Z</time>
      </trkpt>
      <trkpt lat="45.87288192473352" lon="8.730684975162148">
        <ele>959.84</ele>
        <time>2024-05-28T12:19:32.164Z</time>
      </trkpt>
      <trkpt lat="45.87289793416858" lon="8.730697967112064">
        <ele>960.46</ele>
        <time>2024-05-28T12:19:34.811Z</time>
      </trkpt>
      <trkpt lat="45.872911931946874" lon="8.730737948790193">
        <ele>961.12</ele>
        <time>2024-05-28T12:19:37.459Z</time>
      </trkpt>
      <trkpt lat="45.87291796691716" lon="8.730771979317069">
        <ele>961.79</ele>
        <time>2024-05-28T12:19:40.108Z</time>
      </trkpt>
      <trkpt lat="45.87292299605906" lon="8.730804920196533">
        <ele>962.47</ele>
        <time>2024-05-28T12:19:42.757Z</time>
      </trkpt>
      <trkpt lat="45.87293699383736" lon="8.730826964601874">
        <ele>963.16</ele>
        <time>2024-05-28T12:19:45.407Z</time>
      </trkpt>
      <trkpt lat="45.87296792306006" lon="8.730854960158467">
        <ele>963.87</ele>
        <time>2024-05-28T12:19:48.058Z</time>
      </trkpt>
      <trkpt lat="45.872977981343865" lon="8.730879938229918">
        <ele>964.59</ele>
        <time>2024-05-28T12:19:50.710Z</time>
      </trkpt>
      <trkpt lat="45.8729849383235" lon="8.73090692795813">
        <ele>965.32</ele>
        <time>2024-05-28T12:19:53.363Z</time>
      </trkpt>
      <trkpt lat="45.87299197912216" lon="8.730929978191853">
        <ele>966.07</ele>
        <time>2024-05-28T12:19:56.016Z</time>
      </trkpt>
      <trkpt lat="45.872999941930175" lon="8.730959985405207">
        <ele>966.84</ele>
        <time>2024-05-28T12:19:58.670Z</time>
      </trkpt>
      <trkpt lat="45.872999941930175" lon="8.730984963476658">
        <ele>967.61</ele>
        <time>2024-05-28T12:20:01.325Z</time>
      </trkpt>
      <trkpt lat="45.87299197912216" lon="8.73101295903325">
        <ele>968.38</ele>
        <time>2024-05-28T12:20:03.980Z</time>
      </trkpt>
      <trkpt lat="45.872999941930175" lon="8.731037937104702">
        <ele>969.16</ele>
        <time>2024-05-28T12:20:06.636Z</time>
      </trkpt>
      <trkpt lat="45.872999941930175" lon="8.731064926832914">
        <ele>969.95</ele>
        <time>2024-05-28T12:20:09.293Z</time>
      </trkpt>
      <trkpt lat="45.87300295941532" lon="8.731092922389507">
        <ele>970.75</ele>
        <time>2024-05-28T12:20:11.950Z</time>
      </trkpt>
      <trkpt lat="45.87300991639495" lon="8.731122929602861">
        <ele>971.56</ele>
        <time>2024-05-28T12:20:14.608Z</time>
      </trkpt>
      <trkpt lat="45.87301695719361" lon="8.731157965958118">
        <ele>972.38</ele>
        <time>2024-05-28T12:20:17.267Z</time>
      </trkpt>
      <trkpt lat="45.87300991639495" lon="8.731187973171473">
        <ele>973.19</ele>
        <time>2024-05-28T12:20:19.926Z</time>
      </trkpt>
      <trkpt lat="45.87300698272884" lon="8.731212951242924">
        <ele>974.0</ele>
        <time>2024-05-28T12:20:22.586Z</time>
      </trkpt>
      <trkpt lat="45.87301695719361" lon="8.7312469817698">
        <ele>974.84</ele>
        <time>2024-05-28T12:20:25.247Z</time>
      </trkpt>
      <trkpt lat="45.87303698994219" lon="8.731242958456278">
        <ele>975.66</ele>
        <time>2024-05-28T12:20:27.909Z</time>
      </trkpt>
      <trkpt lat="45.873044952750206" lon="8.731261985376477">
        <ele>976.48</ele>
        <time>2024-05-28T12:20:30.571Z</time>
      </trkpt>
      <trkpt lat="45.87305794470012" lon="8.731286963447928">
        <ele>977.32</ele>
        <time>2024-05-28T12:20:33.234Z</time>
      </trkpt>
      <trkpt lat="45.87307194247842" lon="8.731306996196508">
        <ele>978.16</ele>
        <time>2024-05-28T12:20:35.898Z</time>
      </trkpt>
      <trkpt lat="45.873067919164896" lon="8.73133691959083">
        <ele>978.99</ele>
        <time>2024-05-28T12:20:38.562Z</time>
      </trkpt>
      <trkpt lat="45.8730779774487" lon="8.73135695233941">
        <ele>979.82</ele>
        <time>2024-05-28T12:20:41.227Z</time>
      </trkpt>
      <trkpt lat="45.87309692054987" lon="8.731364998966455">
        <ele>980.65</ele>
        <time>2024-05-28T12:20:43.892Z</time>
      </trkpt>
      <trkpt lat="45.873086946085095" lon="8.731404980644584">
        <ele>981.49</ele>
        <time>2024-05-28T12:20:46.558Z</time>
      </trkpt>
      <trkpt lat="45.87308996357024" lon="8.731437921524048">
        <ele>982.32</ele>
        <time>2024-05-28T12:20:49.225Z</time>
      </trkpt>
      <trkpt lat="45.87308292277157" lon="8.731459965929389">
        <ele>983.13</ele>
        <time>2024-05-28T12:20:51.893Z</time>
      </trkpt>
      <trkpt lat="45.87307998910546" lon="8.731486955657601">
        <ele>983.95</ele>
        <time>2024-05-28T12:20:54.561Z</time>
      </trkpt>
      <trkpt lat="45.873067919164896" lon="8.731521992012858">
        <ele>984.77</ele>
        <time>2024-05-28T12:20:57.230Z</time>
      </trkpt>
      <trkpt lat="45.873067919164896" lon="8.731551999226213">
        <ele>985.58</ele>
        <time>2024-05-28T12:20:59.900Z</time>
      </trkpt>
      <trkpt lat="45.87307194247842" lon="8.731579994782805">
        <ele>986.39</ele>
        <time>2024-05-28T12:21:02.571Z</time>
      </trkpt>
      <trkpt lat="45.87308292277157" lon="8.731599943712354">
        <ele>987.2</ele>
        <time>2024-05-28T12:21:05.242Z</time>
      </trkpt>
      <trkpt lat="45.87309692054987" lon="8.731624921783805">
        <ele>988.0</ele>
        <time>2024-05-28T12:21:07.914Z</time>
      </trkpt>
      <trkpt lat="45.87309692054987" lon="8.73165694065392">
        <ele>988.8</ele>
        <time>2024-05-28T12:21:10.587Z</time>
      </trkpt>
      <trkpt lat="45.87310295552015" lon="8.731687953695655">
        <ele>989.59</ele>
        <time>2024-05-28T12:21:13.261Z</time>
      </trkpt>
      <trkpt lat="45.87311695329845" lon="8.731707986444235">
        <ele>990.37</ele>
        <time>2024-05-28T12:21:15.935Z</time>
      </trkpt>
      <trkpt lat="45.87313497439027" lon="8.731736987829208">
        <ele>991.15</ele>
        <time>2024-05-28T12:21:18.610Z</time>
      </trkpt>
      <trkpt lat="45.8731419313699" lon="8.73176297172904">
        <ele>991.92</ele>
        <time>2024-05-28T12:21:21.286Z</time>
      </trkpt>
      <trkpt lat="45.87315492331982" lon="8.731792978942394">
        <ele>992.68</ele>
        <time>2024-05-28T12:21:23.963Z</time>
      </trkpt>
      <trkpt lat="45.87315995246172" lon="8.731819968670607">
        <ele>993.43</ele>
        <time>2024-05-28T12:21:26.640Z</time>
      </trkpt>
      <trkpt lat="45.87317696772516" lon="8.731834972277284">
        <ele>994.16</ele>
        <time>2024-05-28T12:21:29.318Z</time>
      </trkpt>
      <trkpt lat="45.873189959675074" lon="8.731874953955412">
        <ele>994.89</ele>
        <time>2024-05-28T12:21:31.997Z</time>
      </trkpt>
      <trkpt lat="45.873214937746525" lon="8.731899932026863">
        <ele>995.61</ele>
        <time>2024-05-28T12:21:34.677Z</time>
      </trkpt>
      <trkpt lat="45.87323798798025" lon="8.731936980038881">
        <ele>996.33</ele>
        <time>2024-05-28T12:21:37.358Z</time>
      </trkpt>
      <trkpt lat="45.873252991586924" lon="8.731947960332036">
        <ele>997.01</ele>
        <time>2024-05-28T12:21:40.040Z</time>
      </trkpt>
      <trkpt lat="45.873234970495105" lon="8.731979979202151">
        <ele>997.7</ele>
        <time>2024-05-28T12:21:42.723Z</time>
      </trkpt>
      <trkpt lat="45.87321795523167" lon="8.731991965323687">
        <ele>998.37</ele>
        <time>2024-05-28T12:21:45.406Z</time>
      </trkpt>
      <trkpt lat="45.87319993413985" lon="8.732011998072267">
        <ele>999.03</ele>
        <time>2024-05-28T12:21:48.090Z</time>
      </trkpt>
      <trkpt lat="45.87318291887641" lon="8.732026917859912">
        <ele>999.67</ele>
        <time>2024-05-28T12:21:50.775Z</time>
      </trkpt>
      <trkpt lat="45.873169926926494" lon="8.732046950608492">
        <ele>1000.31</ele>
        <time>2024-05-28T12:21:53.460Z</time>
      </trkpt>
      <trkpt lat="45.87316296994686" lon="8.732072934508324">
        <ele>1000.95</ele>
        <time>2024-05-28T12:21:56.146Z</time>
      </trkpt>
      <trkpt lat="45.87316296994686" lon="8.732117945328355">
        <ele>1001.59</ele>
        <time>2024-05-28T12:21:58.833Z</time>
      </trkpt>
      <trkpt lat="45.87316296994686" lon="8.732146946713328">
        <ele>1002.22</ele>
        <time>2024-05-28T12:22:01.521Z</time>
      </trkpt>
      <trkpt lat="45.87316296994686" lon="8.732179971411824">
        <ele>1002.84</ele>
        <time>2024-05-28T12:22:04.209Z</time>
      </trkpt>
      <trkpt lat="45.873169926926494" lon="8.732206961140037">
        <ele>1003.45</ele>
        <time>2024-05-28T12:22:06.898Z</time>
      </trkpt>
      <trkpt lat="45.873166993260384" lon="8.732231939211488">
        <ele>1004.04</ele>
        <time>2024-05-28T12:22:09.588Z</time>
      </trkpt>
      <trkpt lat="45.873169926926494" lon="8.73225993476808">
        <ele>1004.64</ele>
        <time>2024-05-28T12:22:12.278Z</time>
      </trkpt>
      <trkpt lat="45.87317696772516" lon="8.732284996658564">
        <ele>1005.23</ele>
        <time>2024-05-28T12:22:14.969Z</time>
      </trkpt>
      <trkpt lat="45.87318694218993" lon="8.732319949194789">
        <ele>1005.82</ele>
        <time>2024-05-28T12:22:17.661Z</time>
      </trkpt>
      <trkpt lat="45.873196916654706" lon="8.73234299942851">
        <ele>1006.4</ele>
        <time>2024-05-28T12:22:20.354Z</time>
      </trkpt>
      <trkpt lat="45.873196916654706" lon="8.732372922822833">
        <ele>1006.97</ele>
        <time>2024-05-28T12:22:23.047Z</time>
      </trkpt>
      <trkpt lat="45.87320194579661" lon="8.732402930036187">
        <ele>1007.54</ele>
        <time>2024-05-28T12:22:25.741Z</time>
      </trkpt>
      <trkpt lat="45.87320798076689" lon="8.7324299197644">
        <ele>1008.1</ele>
        <time>2024-05-28T12:22:28.436Z</time>
      </trkpt>
      <trkpt lat="45.87322499603033" lon="8.732444923371077">
        <ele>1008.66</ele>
        <time>2024-05-28T12:22:31.131Z</time>
      </trkpt>
      <trkpt lat="45.873234970495105" lon="8.732467973604798">
        <ele>1009.22</ele>
        <time>2024-05-28T12:22:33.827Z</time>
      </trkpt>
      <trkpt lat="45.873234970495105" lon="8.732497980818152">
        <ele>1009.78</ele>
        <time>2024-05-28T12:22:36.524Z</time>
      </trkpt>
      <trkpt lat="45.87322499603033" lon="8.732521953061223">
        <ele>1010.32</ele>
        <time>2024-05-28T12:22:39.221Z</time>
      </trkpt>
      <trkpt lat="45.87322197854519" lon="8.732542991638184">
        <ele>1010.87</ele>
        <time>2024-05-28T12:22:41.919Z</time>
      </trkpt>
      <trkpt lat="45.87322792969644" lon="8.732567969709635">
        <ele>1011.42</ele>
        <time>2024-05-28T12:22:44.617Z</time>
      </trkpt>
      <trkpt lat="45.87323798798025" lon="8.732592947781086">
        <ele>1011.98</ele>
        <time>2024-05-28T12:22:47.316Z</time>
      </trkpt>
      <trkpt lat="45.87324695661664" lon="8.73262194916606">
        <ele>1012.55</ele>
        <time>2024-05-28T12:22:50.016Z</time>
      </trkpt>
      <trkpt lat="45.87326698936522" lon="8.73264198191464">
        <ele>1013.11</ele>
        <time>2024-05-28T12:22:52.717Z</time>
      </trkpt>
      <trkpt lat="45.8732819929719" lon="8.732661930844188">
        <ele>1013.68</ele>
        <time>2024-05-28T12:22:55.418Z</time>
      </trkpt>
      <trkpt lat="45.87329498492181" lon="8.732699984684587">
        <ele>1014.26</ele>
        <time>2024-05-28T12:22:58.120Z</time>
      </trkpt>
      <trkpt lat="45.87328492663801" lon="8.732719933614135">
        <ele>1014.81</ele>
        <time>2024-05-28T12:23:00.823Z</time>
      </trkpt>
      <trkpt lat="45.873279981315136" lon="8.732746923342347">
        <ele>1015.37</ele>
        <time>2024-05-28T12:23:03.526Z</time>
      </trkpt>
      <trkpt lat="45.873279981315136" lon="8.732767961919308">
        <ele>1015.93</ele>
        <time>2024-05-28T12:23:06.230Z</time>
      </trkpt>
      <trkpt lat="45.8732819929719" lon="8.732792939990759">
        <ele>1016.51</ele>
        <time>2024-05-28T12:23:08.935Z</time>
      </trkpt>
      <trkpt lat="45.873276963829994" lon="8.73281791806221">
        <ele>1017.08</ele>
        <time>2024-05-28T12:23:11.640Z</time>
      </trkpt>
      <trkpt lat="45.873279981315136" lon="8.732844991609454">
        <ele>1017.67</ele>
        <time>2024-05-28T12:23:14.346Z</time>
      </trkpt>
      <trkpt lat="45.873276963829994" lon="8.73287994414568">
        <ele>1018.28</ele>
        <time>2024-05-28T12:23:17.053Z</time>
      </trkpt>
      <trkpt lat="45.873256931081414" lon="8.732906933873892">
        <ele>1018.88</ele>
        <time>2024-05-28T12:23:19.761Z</time>
      </trkpt>
      <trkpt lat="45.873252991586924" lon="8.732936941087246">
        <ele>1019.5</ele>
        <time>2024-05-28T12:23:22.469Z</time>
      </trkpt>
      <trkpt lat="45.87324695661664" lon="8.732964936643839">
        <ele>1020.11</ele>
        <time>2024-05-28T12:23:25.178Z</time>
      </trkpt>
      <trkpt lat="45.873252991586924" lon="8.732996955513954">
        <ele>1020.75</ele>
        <time>2024-05-28T12:23:27.888Z</time>
      </trkpt>
      <trkpt lat="45.873259948566556" lon="8.733016988262534">
        <ele>1021.39</ele>
        <time>2024-05-28T12:23:30.598Z</time>
      </trkpt>
      <trkpt lat="45.87326698936522" lon="8.733042972162366">
        <ele>1022.04</ele>
        <time>2024-05-28T12:23:33.309Z</time>
      </trkpt>
      <trkpt lat="45.87326992303133" lon="8.73307691887021">
        <ele>1022.7</ele>
        <time>2024-05-28T12:23:36.021Z</time>
      </trkpt>
      <trkpt lat="45.873256931081414" lon="8.733102986589074">
        <ele>1023.34</ele>
        <time>2024-05-28T12:23:38.733Z</time>
      </trkpt>
      <trkpt lat="45.87323798798025" lon="8.733127964660525">
        <ele>1023.99</ele>
        <time>2024-05-28T12:23:41.446Z</time>
      </trkpt>
      <trkpt lat="45.87323999963701" lon="8.733154954388738">
        <ele>1024.68</ele>
        <time>2024-05-28T12:23:44.160Z</time>
      </trkpt>
      <trkpt lat="45.87323798798025" lon="8.73318194411695">
        <ele>1025.38</ele>
        <time>2024-05-28T12:23:46.875Z</time>
      </trkpt>
      <trkpt lat="45.87323798798025" lon="8.733221925795078">
        <ele>1026.1</ele>
        <time>2024-05-28T12:23:49.590Z</time>
      </trkpt>
      <trkpt lat="45.87324293330312" lon="8.733247993513942">
        <ele>1026.83</ele>
        <time>2024-05-28T12:23:52.306Z</time>
      </trkpt>
      <trkpt lat="45.873259948566556" lon="8.733261991292238">
        <ele>1027.56</ele>
        <time>2024-05-28T12:23:55.023Z</time>
      </trkpt>
      <trkpt lat="45.8732629660517" lon="8.73328797519207">
        <ele>1028.3</ele>
        <time>2024-05-28T12:23:57.740Z</time>
      </trkpt>
      <trkpt lat="45.873259948566556" lon="8.733319994062185">
        <ele>1029.04</ele>
        <time>2024-05-28T12:24:00.458Z</time>
      </trkpt>
      <trkpt lat="45.873276963829994" lon="8.733339942991734">
        <ele>1029.81</ele>
        <time>2024-05-28T12:24:03.177Z</time>
      </trkpt>
      <trkpt lat="45.873301941901445" lon="8.733346983790398">
        <ele>1030.59</ele>
        <time>2024-05-28T12:24:05.897Z</time>
      </trkpt>
      <trkpt lat="45.87330797687173" lon="8.733379924669862">
        <ele>1031.37</ele>
        <time>2024-05-28T12:24:08.617Z</time>
      </trkpt>
      <trkpt lat="45.87331493385136" lon="8.733411943539977">
        <ele>1032.16</ele>
        <time>2024-05-28T12:24:11.338Z</time>
      </trkpt>
      <trkpt lat="45.87331493385136" lon="8.733437927439809">
        <ele>1032.94</ele>
        <time>2024-05-28T12:24:14.060Z</time>
      </trkpt>
      <trkpt lat="45.8733179513365" lon="8.733466928824782">
        <ele>1033.73</ele>
        <time>2024-05-28T12:24:16.783Z</time>
      </trkpt>
      <trkpt lat="45.8733269199729" lon="8.733486961573362">
        <ele>1034.54</ele>
        <time>2024-05-28T12:24:19.506Z</time>
      </trkpt>
      <trkpt lat="45.8733369782567" lon="8.733517974615097">
        <ele>1035.36</ele>
        <time>2024-05-28T12:24:22.230Z</time>
      </trkpt>
      <trkpt lat="45.8733369782567" lon="8.73354697600007">
        <ele>1036.16</ele>
        <time>2024-05-28T12:24:24.955Z</time>
      </trkpt>
      <trkpt lat="45.8733369782567" lon="8.733574971556664">
        <ele>1036.97</ele>
        <time>2024-05-28T12:24:27.680Z</time>
      </trkpt>
      <trkpt lat="45.8733369782567" lon="8.733604978770018">
        <ele>1037.79</ele>
        <time>2024-05-28T12:24:30.406Z</time>
      </trkpt>
      <trkpt lat="45.87333295494318" lon="8.733634985983372">
        <ele>1038.6</ele>
        <time>2024-05-28T12:24:33.133Z</time>
      </trkpt>
      <trkpt lat="45.873342929407954" lon="8.73365493491292">
        <ele>1039.43</ele>
        <time>2024-05-28T12:24:35.860Z</time>
      </trkpt>
      <trkpt lat="45.87335298769176" lon="8.7336749676615">
        <ele>1040.27</ele>
        <time>2024-05-28T12:24:38.588Z</time>
      </trkpt>
      <trkpt lat="45.87335298769176" lon="8.733706986531615">
        <ele>1041.09</ele>
        <time>2024-05-28T12:24:41.317Z</time>
      </trkpt>
      <trkpt lat="45.87335793301463" lon="8.73373992741108">
        <ele>1041.92</ele>
        <time>2024-05-28T12:24:44.046Z</time>
      </trkpt>
      <trkpt lat="45.873361956328154" lon="8.733764989301562">
        <ele>1042.75</ele>
        <time>2024-05-28T12:24:46.776Z</time>
      </trkpt>
      <trkpt lat="45.873364973813295" lon="8.733792984858155">
        <ele>1043.58</ele>
        <time>2024-05-28T12:24:49.507Z</time>
      </trkpt>
      <trkpt lat="45.87336799129844" lon="8.733817962929606">
        <ele>1044.42</ele>
        <time>2024-05-28T12:24:52.238Z</time>
      </trkpt>
      <trkpt lat="45.87337494827807" lon="8.73384797014296">
        <ele>1045.26</ele>
        <time>2024-05-28T12:24:54.970Z</time>
      </trkpt>
      <trkpt lat="45.87339498102665" lon="8.733877977356315">
        <ele>1046.13</ele>
        <time>2024-05-28T12:24:57.703Z</time>
      </trkpt>
      <trkpt lat="45.87339799851179" lon="8.733901949599385">
        <ele>1046.98</ele>
        <time>2024-05-28T12:25:00.436Z</time>
      </trkpt>
      <trkpt lat="45.873387940227985" lon="8.733922988176346">
        <ele>1047.81</ele>
        <time>2024-05-28T12:25:03.170Z</time>
      </trkpt>
      <trkpt lat="45.87339799851179" lon="8.733947966247797">
        <ele>1048.67</ele>
        <time>2024-05-28T12:25:05.905Z</time>
      </trkpt>
      <trkpt lat="45.87340294383466" lon="8.733972944319248">
        <ele>1049.52</ele>
        <time>2024-05-28T12:25:08.640Z</time>
      </trkpt>
      <trkpt lat="45.87341694161296" lon="8.73399498872459">
        <ele>1050.39</ele>
        <time>2024-05-28T12:25:11.376Z</time>
      </trkpt>
      <trkpt lat="45.87343295104802" lon="8.734026923775673">
        <ele>1051.27</ele>
        <time>2024-05-28T12:25:14.113Z</time>
      </trkpt>
      <trkpt lat="45.87344191968441" lon="8.734057936817408">
        <ele>1052.14</ele>
        <time>2024-05-28T12:25:16.851Z</time>
      </trkpt>
      <trkpt lat="45.87346496991813" lon="8.734079981222749">
        <ele>1053.02</ele>
        <time>2024-05-28T12:25:19.590Z</time>
      </trkpt>
      <trkpt lat="45.873467987403274" lon="8.734102947637439">
        <ele>1053.88</ele>
        <time>2024-05-28T12:25:22.329Z</time>
      </trkpt>
      <trkpt lat="45.87346195243299" lon="8.734132954850793">
        <ele>1054.74</ele>
        <time>2024-05-28T12:25:25.069Z</time>
      </trkpt>
      <trkpt lat="45.87345792911947" lon="8.734162962064147">
        <ele>1055.6</ele>
        <time>2024-05-28T12:25:27.810Z</time>
      </trkpt>
      <trkpt lat="45.87347796186805" lon="8.734192969277501">
        <ele>1056.49</ele>
        <time>2024-05-28T12:25:30.552Z</time>
      </trkpt>
      <trkpt lat="45.873492965474725" lon="8.734206967055798">
        <ele>1057.37</ele>
        <time>2024-05-28T12:25:33.294Z</time>
      </trkpt>
      <trkpt lat="45.87351995520294" lon="8.73421291820705">
        <ele>1058.26</ele>
        <time>2024-05-28T12:25:36.037Z</time>
      </trkpt>
      <trkpt lat="45.873534958809614" lon="8.734236974269152">
        <ele>1059.16</ele>
        <time>2024-05-28T12:25:38.781Z</time>
      </trkpt>
      <trkpt lat="45.87354199960828" lon="8.734261952340603">
        <ele>1060.05</ele>
        <time>2024-05-28T12:25:41.525Z</time>
      </trkpt>
      <trkpt lat="45.873557925224304" lon="8.734281985089183">
        <ele>1060.95</ele>
        <time>2024-05-28T12:25:44.270Z</time>
      </trkpt>
      <trkpt lat="45.873559936881065" lon="8.734311992302537">
        <ele>1061.85</ele>
        <time>2024-05-28T12:25:47.016Z</time>
      </trkpt>
      <trkpt lat="45.873557925224304" lon="8.73433998785913">
        <ele>1062.74</ele>
        <time>2024-05-28T12:25:49.763Z</time>
      </trkpt>
      <trkpt lat="45.873559936881065" lon="8.734376952052116">
        <ele>1063.64</ele>
        <time>2024-05-28T12:25:52.510Z</time>
      </trkpt>
      <trkpt lat="45.873554991558194" lon="8.73440494760871">
        <ele>1064.53</ele>
        <time>2024-05-28T12:25:55.258Z</time>
      </trkpt>
      <trkpt lat="45.87354199960828" lon="8.734431937336922">
        <ele>1065.4</ele>
        <time>2024-05-28T12:25:58.007Z</time>
      </trkpt>
      <trkpt lat="45.87355197407305" lon="8.734459932893515">
        <ele>1066.3</ele>
        <time>2024-05-28T12:26:00.757Z</time>
      </trkpt>
      <trkpt lat="45.873559936881065" lon="8.73449295759201">
        <ele>1067.2</ele>
        <time>2024-05-28T12:26:03.507Z</time>
      </trkpt>
      <trkpt lat="45.87356295436621" lon="8.734522964805365">
        <ele>1068.09</ele>
        <time>2024-05-28T12:26:06.258Z</time>
      </trkpt>
      <trkpt lat="45.873576952144504" lon="8.73455498367548">
        <ele>1068.99</ele>
        <time>2024-05-28T12:26:09.010Z</time>
      </trkpt>
      <trkpt lat="45.87358692660928" lon="8.734581973403692">
        <ele>1069.89</ele>
        <time>2024-05-28T12:26:11.763Z</time>
      </trkpt>
      <trkpt lat="45.873599918559194" lon="8.734602928161621">
        <ele>1070.77</ele>
        <time>2024-05-28T12:26:14.516Z</time>
      </trkpt>
      <trkpt lat="45.87361198849976" lon="8.73462195508182">
        <ele>1071.65</ele>
        <time>2024-05-28T12:26:17.270Z</time>
      </trkpt>
      <trkpt lat="45.87363193742931" lon="8.734642993658781">
        <ele>1072.53</ele>
        <time>2024-05-28T12:26:20.025Z</time>
      </trkpt>
      <trkpt lat="45.873642917722464" lon="8.734657997265458">
        <ele>1073.39</ele>
        <time>2024-05-28T12:26:22.780Z</time>
      </trkpt>
      <trkpt lat="45.8736599329859" lon="8.734672917053103">
        <ele>1074.24</ele>
        <time>2024-05-28T12:26:25.536Z</time>
      </trkpt>
      <trkpt lat="45.87367996573448" lon="8.734674928709865">
        <ele>1075.08</ele>
        <time>2024-05-28T12:26:28.293Z</time>
      </trkpt>
      <trkpt lat="45.8736979868263" lon="8.734677946195006">
        <ele>1075.91</ele>
        <time>2024-05-28T12:26:31.050Z</time>
      </trkpt>
      <trkpt lat="45.87371793575585" lon="8.73468297533691">
        <ele>1076.73</ele>
        <time>2024-05-28T12:26:33.808Z</time>
      </trkpt>
      <trkpt lat="45.87372296489775" lon="8.73470795340836">
        <ele>1077.53</ele>
        <time>2024-05-28T12:26:36.566Z</time>
      </trkpt>
      <trkpt lat="45.873732939362526" lon="8.73472798615694">
        <ele>1078.33</ele>
        <time>2024-05-28T12:26:39.325Z</time>
      </trkpt>
      <trkpt lat="45.87375992909074" lon="8.734742989763618">
        <ele>1079.12</ele>
        <time>2024-05-28T12:26:42.085Z</time>
      </trkpt>
      <trkpt lat="45.87378197349608" lon="8.734746929258108">
        <ele>1079.89</ele>
        <time>2024-05-28T12:26:44.846Z</time>
      </trkpt>
      <trkpt lat="45.8737999945879" lon="8.734752964228392">
        <ele>1080.64</ele>
        <time>2024-05-28T12:26:47.607Z</time>
      </trkpt>
      <trkpt lat="45.87382296100259" lon="8.734759921208024">
        <ele>1081.37</ele>
        <time>2024-05-28T12:26:50.369Z</time>
      </trkpt>
      <trkpt lat="45.87383997626603" lon="8.734781965613365">
        <ele>1082.1</ele>
        <time>2024-05-28T12:26:53.132Z</time>
      </trkpt>
      <trkpt lat="45.87383997626603" lon="8.734817923977971">
        <ele>1082.8</ele>
        <time>2024-05-28T12:26:55.896Z</time>
      </trkpt>
      <trkpt lat="45.873836958780885" lon="8.734847931191325">
        <ele>1083.48</ele>
        <time>2024-05-28T12:26:58.660Z</time>
      </trkpt>
      <trkpt lat="45.87383293546736" lon="8.734881961718202">
        <ele>1084.13</ele>
        <time>2024-05-28T12:27:01.425Z</time>
      </trkpt>
      <trkpt lat="45.87382296100259" lon="8.734931917861104">
        <ele>1084.77</ele>
        <time>2024-05-28T12:27:04.191Z</time>
      </trkpt>
      <trkpt lat="45.87382991798222" lon="8.734961925074458">
        <ele>1085.4</ele>
        <time>2024-05-28T12:27:06.958Z</time>
      </trkpt>
      <trkpt lat="45.87382991798222" lon="8.734991932287812">
        <ele>1086.0</ele>
        <time>2024-05-28T12:27:09.726Z</time>
      </trkpt>
      <trkpt lat="45.873836958780885" lon="8.735021939501166">
        <ele>1086.59</ele>
        <time>2024-05-28T12:27:12.495Z</time>
      </trkpt>
      <trkpt lat="45.87383997626603" lon="8.735056975856423">
        <ele>1087.15</ele>
        <time>2024-05-28T12:27:15.264Z</time>
      </trkpt>
      <trkpt lat="45.8738449215889" lon="8.735089916735888">
        <ele>1087.69</ele>
        <time>2024-05-28T12:27:18.034Z</time>
      </trkpt>
      <trkpt lat="45.8738449215889" lon="8.735119923949242">
        <ele>1088.2</ele>
        <time>2024-05-28T12:27:20.805Z</time>
      </trkpt>
      <trkpt lat="45.87385196238756" lon="8.735142974182963">
        <ele>1088.69</ele>
        <time>2024-05-28T12:27:23.577Z</time>
      </trkpt>
      <trkpt lat="45.873857997357845" lon="8.735169963911176">
        <ele>1089.17</ele>
        <time>2024-05-28T12:27:26.349Z</time>
      </trkpt>
      <trkpt lat="45.87387492880225" lon="8.735194941982627">
        <ele>1089.64</ele>
        <time>2024-05-28T12:27:29.122Z</time>
      </trkpt>
      <trkpt lat="45.873879957944155" lon="8.735219920054078">
        <ele>1090.08</ele>
        <time>2024-05-28T12:27:31.896Z</time>
      </trkpt>
      <trkpt lat="45.8738829754293" lon="8.735249927267432">
        <ele>1090.51</ele>
        <time>2024-05-28T12:27:34.670Z</time>
      </trkpt>
      <trkpt lat="45.8738829754293" lon="8.735279934480786">
        <ele>1090.93</ele>
        <time>2024-05-28T12:27:37.445Z</time>
      </trkpt>
      <trkpt lat="45.8738829754293" lon="8.735319999977946">
        <ele>1091.33</ele>
        <time>2024-05-28T12:27:40.221Z</time>
      </trkpt>
      <trkpt lat="45.8738829754293" lon="8.735349923372269">
        <ele>1091.71</ele>
        <time>2024-05-28T12:27:42.998Z</time>
      </trkpt>
      <trkpt lat="45.87388993240893" lon="8.735377918928862">
        <ele>1092.06</ele>
        <time>2024-05-28T12:27:45.775Z</time>
      </trkpt>
      <trkpt lat="45.87389294989407" lon="8.735412955284119">
        <ele>1092.39</ele>
        <time>2024-05-28T12:27:48.553Z</time>
      </trkpt>
      <trkpt lat="45.87389294989407" lon="8.735442962497473">
        <ele>1092.71</ele>
        <time>2024-05-28T12:27:51.332Z</time>
      </trkpt>
      <trkpt lat="45.87388993240893" lon="8.735472969710827">
        <ele>1093.02</ele>
        <time>2024-05-28T12:27:54.112Z</time>
      </trkpt>
      <trkpt lat="45.873879957944155" lon="8.7355019710958">
        <ele>1093.3</ele>
        <time>2024-05-28T12:27:56.892Z</time>
      </trkpt>
      <trkpt lat="45.8738829754293" lon="8.735532984137535">
        <ele>1093.59</ele>
        <time>2024-05-28T12:27:59.673Z</time>
      </trkpt>
      <trkpt lat="45.8738829754293" lon="8.735559973865747">
        <ele>1093.88</ele>
        <time>2024-05-28T12:28:02.455Z</time>
      </trkpt>
      <trkpt lat="45.87387199513614" lon="8.735584951937199">
        <ele>1094.14</ele>
        <time>2024-05-28T12:28:05.237Z</time>
      </trkpt>
      <trkpt lat="45.87385196238756" lon="8.735611941665411">
        <ele>1094.4</ele>
        <time>2024-05-28T12:28:08.020Z</time>
      </trkpt>
      <trkpt lat="45.87383997626603" lon="8.735637925565243">
        <ele>1094.65</ele>
        <time>2024-05-28T12:28:10.804Z</time>
      </trkpt>
      <trkpt lat="45.873812986537814" lon="8.735681930556893">
        <ele>1094.87</ele>
        <time>2024-05-28T12:28:13.589Z</time>
      </trkpt>
      <trkpt lat="45.87379798293114" lon="8.735697939991951">
        <ele>1095.1</ele>
        <time>2024-05-28T12:28:16.375Z</time>
      </trkpt>
      <trkpt lat="45.87378197349608" lon="8.73571696691215">
        <ele>1095.35</ele>
        <time>2024-05-28T12:28:19.162Z</time>
      </trkpt>
      <trkpt lat="45.8737619407475" lon="8.735724929720163">
        <ele>1095.59</ele>
        <time>2024-05-28T12:28:21.949Z</time>
      </trkpt>
      <trkpt lat="45.87374299764633" lon="8.73573993332684">
        <ele>1095.83</ele>
        <time>2024-05-28T12:28:24.737Z</time>
      </trkpt>
      <trkpt lat="45.87372296489775" lon="8.735769940540195">
        <ele>1096.08</ele>
        <time>2024-05-28T12:28:27.526Z</time>
      </trkpt>
      <trkpt lat="45.87370494380593" lon="8.735791984945536">
        <ele>1096.31</ele>
        <time>2024-05-28T12:28:30.316Z</time>
      </trkpt>
      <trkpt lat="45.87368197739124" lon="8.735804976895452">
        <ele>1096.53</ele>
        <time>2024-05-28T12:28:33.107Z</time>
      </trkpt>
      <trkpt lat="45.873662950471044" lon="8.735806988552213">
        <ele>1096.75</ele>
        <time>2024-05-28T12:28:35.898Z</time>
      </trkpt>
      <trkpt lat="45.873642917722464" lon="8.735826937481761">
        <ele>1096.98</ele>
        <time>2024-05-28T12:28:38.690Z</time>
      </trkpt>
      <trkpt lat="45.87363495491445" lon="8.735851999372244">
        <ele>1097.23</ele>
        <time>2024-05-28T12:28:41.483Z</time>
      </trkpt>
      <trkpt lat="45.87361492216587" lon="8.735869936645031">
        <ele>1097.48</ele>
        <time>2024-05-28T12:28:44.277Z</time>
      </trkpt>
      <trkpt lat="45.873601930215955" lon="8.735889969393611">
        <ele>1097.73</ele>
        <time>2024-05-28T12:28:47.071Z</time>
      </trkpt>
      <trkpt lat="45.87358692660928" lon="8.73590991832316">
        <ele>1097.98</ele>
        <time>2024-05-28T12:28:49.866Z</time>
      </trkpt>
      <trkpt lat="45.87357292883098" lon="8.73592995107174">
        <ele>1098.22</ele>
        <time>2024-05-28T12:28:52.662Z</time>
      </trkpt>
      <trkpt lat="45.873557925224304" lon="8.73595291748643">
        <ele>1098.47</ele>
        <time>2024-05-28T12:28:55.458Z</time>
      </trkpt>
      <trkpt lat="45.873537976294756" lon="8.735969932749867">
        <ele>1098.72</ele>
        <time>2024-05-28T12:28:58.255Z</time>
      </trkpt>
      <trkpt lat="45.87351995520294" lon="8.735999939963222">
        <ele>1098.99</ele>
        <time>2024-05-28T12:29:01.053Z</time>
      </trkpt>
      <trkpt lat="45.87349992245436" lon="8.736019972711802">
        <ele>1099.28</ele>
        <time>2024-05-28T12:29:03.852Z</time>
      </trkpt>
      <trkpt lat="45.87348299100995" lon="8.736032964661717">
        <ele>1099.56</ele>
        <time>2024-05-28T12:29:06.651Z</time>
      </trkpt>
      <trkpt lat="45.87346496991813" lon="8.736047968268394">
        <ele>1099.86</ele>
        <time>2024-05-28T12:29:09.451Z</time>
      </trkpt>
      <trkpt lat="45.873451977968216" lon="8.736069928854704">
        <ele>1100.16</ele>
        <time>2024-05-28T12:29:12.252Z</time>
      </trkpt>
      <trkpt lat="45.87343295104802" lon="8.736081998795271">
        <ele>1100.45</ele>
        <time>2024-05-28T12:29:15.053Z</time>
      </trkpt>
      <trkpt lat="45.87341291829944" lon="8.736092979088426">
        <ele>1100.74</ele>
        <time>2024-05-28T12:29:17.855Z</time>
      </trkpt>
      <trkpt lat="45.87339799851179" lon="8.736112928017974">
        <ele>1101.03</ele>
        <time>2024-05-28T12:29:20.658Z</time>
      </trkpt>
      <trkpt lat="45.87337494827807" lon="8.7361219804734">
        <ele>1101.32</ele>
        <time>2024-05-28T12:29:23.462Z</time>
      </trkpt>
      <trkpt lat="45.87335793301463" lon="8.736139917746186">
        <ele>1101.63</ele>
        <time>2024-05-28T12:29:26.266Z</time>
      </trkpt>
      <trkpt lat="45.873339995741844" lon="8.736152993515134">
        <ele>1101.94</ele>
        <time>2024-05-28T12:29:29.071Z</time>
      </trkpt>
      <trkpt lat="45.873319962993264" lon="8.736159950494766">
        <ele>1102.25</ele>
        <time>2024-05-28T12:29:31.877Z</time>
      </trkpt>
      <trkpt lat="45.87330495938659" lon="8.736181994900107">
        <ele>1102.57</ele>
        <time>2024-05-28T12:29:34.683Z</time>
      </trkpt>
      <trkpt lat="45.87328794412315" lon="8.736199932172894">
        <ele>1102.89</ele>
        <time>2024-05-28T12:29:37.490Z</time>
      </trkpt>
      <trkpt lat="45.873279981315136" lon="8.736227927729487">
        <ele>1103.22</ele>
        <time>2024-05-28T12:29:40.298Z</time>
      </trkpt>
      <trkpt lat="45.873259948566556" lon="8.73625198379159">
        <ele>1103.54</ele>
        <time>2024-05-28T12:29:43.107Z</time>
      </trkpt>
      <trkpt lat="45.87323798798025" lon="8.736261958256364">
        <ele>1103.86</ele>
        <time>2024-05-28T12:29:45.916Z</time>
      </trkpt>
      <trkpt lat="45.87321795523167" lon="8.736267993226647">
        <ele>1104.19</ele>
        <time>2024-05-28T12:29:48.726Z</time>
      </trkpt>
      <trkpt lat="45.87319993413985" lon="8.736292971298099">
        <ele>1104.53</ele>
        <time>2024-05-28T12:29:51.537Z</time>
      </trkpt>
      <trkpt lat="45.873169926926494" lon="8.736311998218298">
        <ele>1104.88</ele>
        <time>2024-05-28T12:29:54.349Z</time>
      </trkpt>
      <trkpt lat="45.87314494885504" lon="8.736326918005943">
        <ele>1105.21</ele>
        <time>2024-05-28T12:29:57.162Z</time>
      </trkpt>
      <trkpt lat="45.87312198244035" lon="8.736344939097762">
        <ele>1105.54</ele>
        <time>2024-05-28T12:29:59.976Z</time>
      </trkpt>
      <trkpt lat="45.87310295552015" lon="8.736366983503103">
        <ele>1105.87</ele>
        <time>2024-05-28T12:30:02.791Z</time>
      </trkpt>
      <trkpt lat="45.873086946085095" lon="8.73637997545302">
        <ele>1106.21</ele>
        <time>2024-05-28T12:30:05.606Z</time>
      </trkpt>
      <trkpt lat="45.87307998910546" lon="8.73640495352447">
        <ele>1106.56</ele>
        <time>2024-05-28T12:30:08.422Z</time>
      </trkpt>
      <trkpt lat="45.87305794470012" lon="8.736421968787909">
        <ele>1106.9</ele>
        <time>2024-05-28T12:30:11.239Z</time>
      </trkpt>
      <trkpt lat="45.8730399236083" lon="8.736439989879727">
        <ele>1107.24</ele>
        <time>2024-05-28T12:30:14.057Z</time>
      </trkpt>
      <trkpt lat="45.873019974678755" lon="8.736457927152514">
        <ele>1107.59</ele>
        <time>2024-05-28T12:30:16.875Z</time>
      </trkpt>
      <trkpt lat="45.87300295941532" lon="8.736476954072714">
        <ele>1107.92</ele>
        <time>2024-05-28T12:30:19.694Z</time>
      </trkpt>
      <trkpt lat="45.872977981343865" lon="8.736499920487404">
        <ele>1108.26</ele>
        <time>2024-05-28T12:30:22.514Z</time>
      </trkpt>
      <trkpt lat="45.87294998578727" lon="8.736529927700758">
        <ele>1108.6</ele>
        <time>2024-05-28T12:30:25.335Z</time>
      </trkpt>
      <trkpt lat="45.87292995303869" lon="8.7365519721061">
        <ele>1108.95</ele>
        <time>2024-05-28T12:30:28.157Z</time>
      </trkpt>
      <trkpt lat="45.87290799245238" lon="8.736572926864028">
        <ele>1109.28</ele>
        <time>2024-05-28T12:30:30.980Z</time>
      </trkpt>
      <trkpt lat="45.87288192473352" lon="8.736582985147834">
        <ele>1109.61</ele>
        <time>2024-05-28T12:30:33.804Z</time>
      </trkpt>
      <trkpt lat="45.87285694666207" lon="8.73659497126937">
        <ele>1109.93</ele>
        <time>2024-05-28T12:30:36.629Z</time>
      </trkpt>
      <trkpt lat="45.87283196859062" lon="8.736602934077382">
        <ele>1110.23</ele>
        <time>2024-05-28T12:30:39.455Z</time>
      </trkpt>
      <trkpt lat="45.872804978862405" lon="8.73661994934082">
        <ele>1110.55</ele>
        <time>2024-05-28T12:30:42.282Z</time>
      </trkpt>
      <trkpt lat="45.872786957770586" lon="8.7366399820894">
        <ele>1110.87</ele>
        <time>2024-05-28T12:30:45.109Z</time>
      </trkpt>
      <trkpt lat="45.872766925022006" lon="8.736652974039316">
        <ele>1111.18</ele>
        <time>2024-05-28T12:30:47.937Z</time>
      </trkpt>
      <trkpt lat="45.87275795638561" lon="8.736676946282387">
        <ele>1111.51</ele>
        <time>2024-05-28T12:30:50.766Z</time>
      </trkpt>
      <trkpt lat="45.8727449644357" lon="8.736707959324121">
        <ele>1111.84</ele>
        <time>2024-05-28T12:30:53.595Z</time>
      </trkpt>
      <trkpt lat="45.87276994250715" lon="8.736719945445657">
        <ele>1112.17</ele>
        <time>2024-05-28T12:30:56.425Z</time>
      </trkpt>
      <trkpt lat="45.872786957770586" lon="8.736714916303754">
        <ele>1112.48</ele>
        <time>2024-05-28T12:30:59.256Z</time>
      </trkpt>
      <trkpt lat="45.87281193584204" lon="8.736712988466024">
        <ele>1112.79</ele>
        <time>2024-05-28T12:31:02.088Z</time>
      </trkpt>
      <trkpt lat="45.87283196859062" lon="8.736702930182219">
        <ele>1113.09</ele>
        <time>2024-05-28T12:31:04.920Z</time>
      </trkpt>
      <trkpt lat="45.872849989682436" lon="8.736712988466024">
        <ele>1113.41</ele>
        <time>2024-05-28T12:31:07.753Z</time>
      </trkpt>
      <trkpt lat="45.87287697941065" lon="8.736714916303754">
        <ele>1113.71</ele>
        <time>2024-05-28T12:31:10.587Z</time>
      </trkpt>
      <trkpt lat="45.8729019574821" lon="8.736734949052334">
        <ele>1114.02</ele>
        <time>2024-05-28T12:31:13.422Z</time>
      </trkpt>
      <trkpt lat="45.87291997857392" lon="8.736734949052334">
        <ele>1114.31</ele>
        <time>2024-05-28T12:31:16.258Z</time>
      </trkpt>
      <trkpt lat="45.87294294498861" lon="8.736727992072701">
        <ele>1114.58</ele>
        <time>2024-05-28T12:31:19.094Z</time>
      </trkpt>
      <trkpt lat="45.87296197190881" lon="8.736734949052334">
        <ele>1114.86</ele>
        <time>2024-05-28T12:31:21.931Z</time>
      </trkpt>
      <trkpt lat="45.8729849383235" lon="8.736739978194237">
        <ele>1115.14</ele>
        <time>2024-05-28T12:31:24.769Z</time>
      </trkpt>
      <trkpt lat="45.87300295941532" lon="8.736742995679379">
        <ele>1115.4</ele>
        <time>2024-05-28T12:31:27.607Z</time>
      </trkpt>
      <trkpt lat="45.873019974678755" lon="8.736752970144153">
        <ele>1115.67</ele>
        <time>2024-05-28T12:31:30.446Z</time>
      </trkpt>
      <trkpt lat="45.873044952750206" lon="8.73674794100225">
        <ele>1115.93</ele>
        <time>2024-05-28T12:31:33.286Z</time>
      </trkpt>
      <trkpt lat="45.873067919164896" lon="8.736741989850998">
        <ele>1116.17</ele>
        <time>2024-05-28T12:31:36.127Z</time>
      </trkpt>
      <trkpt lat="45.87308996357024" lon="8.736729919910431">
        <ele>1116.41</ele>
        <time>2024-05-28T12:31:38.968Z</time>
      </trkpt>
      <trkpt lat="45.87310999631882" lon="8.736719945445657">
        <ele>1116.65</ele>
        <time>2024-05-28T12:31:41.810Z</time>
      </trkpt>
      <trkpt lat="45.87313497439027" lon="8.736717933788896">
        <ele>1116.88</ele>
        <time>2024-05-28T12:31:44.653Z</time>
      </trkpt>
      <trkpt lat="45.873147966340184" lon="8.736741989850998">
        <ele>1117.13</ele>
        <time>2024-05-28T12:31:47.497Z</time>
      </trkpt>
      <trkpt lat="45.87314494885504" lon="8.73676797375083">
        <ele>1117.37</ele>
        <time>2024-05-28T12:31:50.341Z</time>
      </trkpt>
      <trkpt lat="45.873127933591604" lon="8.736801920458674">
        <ele>1117.6</ele>
        <time>2024-05-28T12:31:53.186Z</time>
      </trkpt>
      <trkpt lat="45.873106978833675" lon="8.736821953207254">
        <ele>1117.82</ele>
        <time>2024-05-28T12:31:56.032Z</time>
      </trkpt>
      <trkpt lat="45.87308292277157" lon="8.736836956813931">
        <ele>1118.03</ele>
        <time>2024-05-28T12:31:58.879Z</time>
      </trkpt>
      <trkpt lat="45.873067919164896" lon="8.736851960420609">
        <ele>1118.24</ele>
        <time>2024-05-28T12:32:01.727Z</time>
      </trkpt>
      <trkpt lat="45.87305794470012" lon="8.736872998997569">
        <ele>1118.44</ele>
        <time>2024-05-28T12:32:04.575Z</time>
      </trkpt>
      <trkpt lat="45.873044952750206" lon="8.736899988725781">
        <ele>1118.64</ele>
        <time>2024-05-28T12:32:07.424Z</time>
      </trkpt>
      <trkpt lat="45.87303698994219" lon="8.736932929605246">
        <ele>1118.83</ele>
        <time>2024-05-28T12:32:10.274Z</time>
      </trkpt>
      <trkpt lat="45.873019974678755" lon="8.736966960132122">
        <ele>1119.01</ele>
        <time>2024-05-28T12:32:13.125Z</time>
      </trkpt>
      <trkpt lat="45.872999941930175" lon="8.736987998709083">
        <ele>1119.18</ele>
        <time>2024-05-28T12:32:15.977Z</time>
      </trkpt>
      <trkpt lat="45.872977981343865" lon="8.737011970952153">
        <ele>1119.34</ele>
        <time>2024-05-28T12:32:18.829Z</time>
      </trkpt>
      <trkpt lat="45.872956942766905" lon="8.737031919881701">
        <ele>1119.49</ele>
        <time>2024-05-28T12:32:21.682Z</time>
      </trkpt>
      <trkpt lat="45.87293992750347" lon="8.737051952630281">
        <ele>1119.63</ele>
        <time>2024-05-28T12:32:24.536Z</time>
      </trkpt>
      <trkpt lat="45.87293699383736" lon="8.737084977328777">
        <ele>1119.77</ele>
        <time>2024-05-28T12:32:27.391Z</time>
      </trkpt>
      <trkpt lat="45.87296197190881" lon="8.737089922651649">
        <ele>1119.9</ele>
        <time>2024-05-28T12:32:30.247Z</time>
      </trkpt>
      <trkpt lat="45.872981920838356" lon="8.737077936530113">
        <ele>1120.02</ele>
        <time>2024-05-28T12:32:33.103Z</time>
      </trkpt>
      <trkpt lat="45.872999941930175" lon="8.737064944580197">
        <ele>1120.12</ele>
        <time>2024-05-28T12:32:35.960Z</time>
      </trkpt>
      <trkpt lat="45.873019974678755" lon="8.737059999257326">
        <ele>1120.22</ele>
        <time>2024-05-28T12:32:38.818Z</time>
      </trkpt>
      <trkpt lat="45.87302693165839" lon="8.737089922651649">
        <ele>1120.33</ele>
        <time>2024-05-28T12:32:41.676Z</time>
      </trkpt>
      <trkpt lat="45.8730399236083" lon="8.73711196705699">
        <ele>1120.42</ele>
        <time>2024-05-28T12:32:44.535Z</time>
      </trkpt>
      <trkpt lat="45.87305794470012" lon="8.737121941521764">
        <ele>1120.5</ele>
        <time>2024-05-28T12:32:47.395Z</time>
      </trkpt>
      <trkpt lat="45.8730399236083" lon="8.73713694512844">
        <ele>1120.56</ele>
        <time>2024-05-28T12:32:50.255Z</time>
      </trkpt>
      <trkpt lat="45.87302693165839" lon="8.737164940685034">
        <ele>1120.63</ele>
        <time>2024-05-28T12:32:53.116Z</time>
      </trkpt>
      <trkpt lat="45.872997930273414" lon="8.737204922363162">
        <ele>1120.68</ele>
        <time>2024-05-28T12:32:55.979Z</time>
      </trkpt>
      <trkpt lat="45.87298795580864" lon="8.737231995910406">
        <ele>1120.73</ele>
        <time>2024-05-28T12:32:58.842Z</time>
      </trkpt>
      <trkpt lat="45.872981920838356" lon="8.737259991466999">
        <ele>1120.77</ele>
        <time>2024-05-28T12:33:01.706Z</time>
      </trkpt>
      <trkpt lat="45.87297194637358" lon="8.737282957881689">
        <ele>1120.8</ele>
        <time>2024-05-28T12:33:04.571Z</time>
      </trkpt>
      <trkpt lat="45.87296792306006" lon="8.737322939559817">
        <ele>1120.81</ele>
        <time>2024-05-28T12:33:07.437Z</time>
      </trkpt>
      <trkpt lat="45.87296197190881" lon="8.737362921237946">
        <ele>1120.81</ele>
        <time>2024-05-28T12:33:10.304Z</time>
      </trkpt>
      <trkpt lat="45.87293992750347" lon="8.737362921237946">
        <ele>1120.82</ele>
        <time>2024-05-28T12:33:13.171Z</time>
      </trkpt>
      <trkpt lat="45.87292299605906" lon="8.737329980358481">
        <ele>1120.82</ele>
        <time>2024-05-28T12:33:16.039Z</time>
      </trkpt>
      <trkpt lat="45.87291997857392" lon="8.737289998680353">
        <ele>1120.82</ele>
        <time>2024-05-28T12:33:18.908Z</time>
      </trkpt>
      <trkpt lat="45.87291796691716" lon="8.737251944839954">
        <ele>1120.79</ele>
        <time>2024-05-28T12:33:21.778Z</time>
      </trkpt>
      <trkpt lat="45.872911931946874" lon="8.737206934019923">
        <ele>1120.76</ele>
        <time>2024-05-28T12:33:24.649Z</time>
      </trkpt>
      <trkpt lat="45.872911931946874" lon="8.737164940685034">
        <ele>1120.73</ele>
        <time>2024-05-28T12:33:27.521Z</time>
      </trkpt>
      <trkpt lat="45.872911931946874" lon="8.737119929865003">
        <ele>1120.69</ele>
        <time>2024-05-28T12:33:30.394Z</time>
      </trkpt>
      <trkpt lat="45.87291796691716" lon="8.737079948186874">
        <ele>1120.65</ele>
        <time>2024-05-28T12:33:33.268Z</time>
      </trkpt>
      <trkpt lat="45.87292995303869" lon="8.737037954851985">
        <ele>1120.61</ele>
        <time>2024-05-28T12:33:36.143Z</time>
      </trkpt>
      <trkpt lat="45.87294696830213" lon="8.737021945416927">
        <ele>1120.58</ele>
        <time>2024-05-28T12:33:39.019Z</time>
      </trkpt>
      <trkpt lat="45.87297194637358" lon="8.736992944031954">
        <ele>1120.54</ele>
        <time>2024-05-28T12:33:41.896Z</time>
      </trkpt>
      <trkpt lat="45.87299197912216" lon="8.736957991495728">
        <ele>1120.5</ele>
        <time>2024-05-28T12:33:44.774Z</time>
      </trkpt>
      <trkpt lat="45.87299197912216" lon="8.736926978453994">
        <ele>1120.45</ele>
        <time>2024-05-28T12:33:47.653Z</time>
      </trkpt>
      <trkpt lat="45.87297194637358" lon="8.736926978453994">
        <ele>1120.41</ele>
        <time>2024-05-28T12:33:50.532Z</time>
      </trkpt>
      <trkpt lat="45.87294998578727" lon="8.73693997040391">
        <ele>1120.38</ele>
        <time>2024-05-28T12:33:53.412Z</time>
      </trkpt>
      <trkpt lat="45.87292299605906" lon="8.736966960132122">
        <ele>1120.36</ele>
        <time>2024-05-28T12:33:56.293Z</time>
      </trkpt>
      <trkpt lat="45.8729019574821" lon="8.736991938203573">
        <ele>1120.33</ele>
        <time>2024-05-28T12:33:59.175Z</time>
      </trkpt>
      <trkpt lat="45.87287999689579" lon="8.737017922103405">
        <ele>1120.31</ele>
        <time>2024-05-28T12:34:02.058Z</time>
      </trkpt>
      <trkpt lat="45.87286298163235" lon="8.737039966508746">
        <ele>1120.28</ele>
        <time>2024-05-28T12:34:04.942Z</time>
      </trkpt>
      <trkpt lat="45.872846972197294" lon="8.737071985378861">
        <ele>1120.26</ele>
        <time>2024-05-28T12:34:07.827Z</time>
      </trkpt>
      <trkpt lat="45.87283791974187" lon="8.737104926258326">
        <ele>1120.24</ele>
        <time>2024-05-28T12:34:10.713Z</time>
      </trkpt>
      <trkpt lat="45.872827945277095" lon="8.73713199980557">
        <ele>1120.22</ele>
        <time>2024-05-28T12:34:13.599Z</time>
      </trkpt>
      <trkpt lat="45.87282492779195" lon="8.737164940685034">
        <ele>1120.2</ele>
        <time>2024-05-28T12:34:16.486Z</time>
      </trkpt>
      <trkpt lat="45.87281797081232" lon="8.737204922363162">
        <ele>1120.18</ele>
        <time>2024-05-28T12:34:19.374Z</time>
      </trkpt>
      <trkpt lat="45.87281193584204" lon="8.737236941233277">
        <ele>1120.16</ele>
        <time>2024-05-28T12:34:22.263Z</time>
      </trkpt>
      <trkpt lat="45.872804978862405" lon="8.737267954275012">
        <ele>1120.13</ele>
        <time>2024-05-28T12:34:25.153Z</time>
      </trkpt>
      <trkpt lat="45.87279299274087" lon="8.737296955659986">
        <ele>1120.09</ele>
        <time>2024-05-28T12:34:28.043Z</time>
      </trkpt>
      <trkpt lat="45.872782934457064" lon="8.737339954823256">
        <ele>1120.06</ele>
        <time>2024-05-28T12:34:30.934Z</time>
      </trkpt>
      <trkpt lat="45.87277991697192" lon="8.73736996203661">
        <ele>1120.03</ele>
        <time>2024-05-28T12:34:33.826Z</time>
      </trkpt>
      <trkpt lat="45.87277991697192" lon="8.737407932057977">
        <ele>1120.0</ele>
        <time>2024-05-28T12:34:36.719Z</time>
      </trkpt>
      <trkpt lat="45.87277991697192" lon="8.737447997555137">
        <ele>1119.97</ele>
        <time>2024-05-28T12:34:39.613Z</time>
      </trkpt>
      <trkpt lat="45.872782934457064" lon="8.737494936212897">
        <ele>1119.95</ele>
        <time>2024-05-28T12:34:42.508Z</time>
      </trkpt>
      <trkpt lat="45.872782934457064" lon="8.737526955083013">
        <ele>1119.91</ele>
        <time>2024-05-28T12:34:45.404Z</time>
      </trkpt>
      <trkpt lat="45.87277698330581" lon="8.73756199143827">
        <ele>1119.88</ele>
        <time>2024-05-28T12:34:48.301Z</time>
      </trkpt>
      <trkpt lat="45.87276994250715" lon="8.737597949802876">
        <ele>1119.83</ele>
        <time>2024-05-28T12:34:51.198Z</time>
      </trkpt>
      <trkpt lat="45.87275795638561" lon="8.737641954794526">
        <ele>1119.77</ele>
        <time>2024-05-28T12:34:54.097Z</time>
      </trkpt>
      <trkpt lat="45.87274798192084" lon="8.737697945907712">
        <ele>1119.71</ele>
        <time>2024-05-28T12:34:56.997Z</time>
      </trkpt>
      <trkpt lat="45.8727449644357" lon="8.73773792758584">
        <ele>1119.66</ele>
        <time>2024-05-28T12:34:59.898Z</time>
      </trkpt>
      <trkpt lat="45.872741946950555" lon="8.737764917314053">
        <ele>1119.61</ele>
        <time>2024-05-28T12:35:02.800Z</time>
      </trkpt>
      <trkpt lat="45.87272794917226" lon="8.737814957275987">
        <ele>1119.54</ele>
        <time>2024-05-28T12:35:05.703Z</time>
      </trkpt>
      <trkpt lat="45.87270992808044" lon="8.737854938954115">
        <ele>1119.46</ele>
        <time>2024-05-28T12:35:08.607Z</time>
      </trkpt>
      <trkpt lat="45.872679920867085" lon="8.737869942560792">
        <ele>1119.38</ele>
        <time>2024-05-28T12:35:11.512Z</time>
      </trkpt>
      <trkpt lat="45.8726619835943" lon="8.737857956439257">
        <ele>1119.31</ele>
        <time>2024-05-28T12:35:14.418Z</time>
      </trkpt>
      <trkpt lat="45.87265192531049" lon="8.737817974761128">
        <ele>1119.24</ele>
        <time>2024-05-28T12:35:17.325Z</time>
      </trkpt>
      <trkpt lat="45.8726619835943" lon="8.737774975597858">
        <ele>1119.18</ele>
        <time>2024-05-28T12:35:20.233Z</time>
      </trkpt>
      <trkpt lat="45.87266491726041" lon="8.737732982262969">
        <ele>1119.1</ele>
        <time>2024-05-28T12:35:23.142Z</time>
      </trkpt>
      <trkpt lat="45.872677993029356" lon="8.737699957564473">
        <ele>1119.01</ele>
        <time>2024-05-28T12:35:26.052Z</time>
      </trkpt>
      <trkpt lat="45.872679920867085" lon="8.73767196200788">
        <ele>1118.92</ele>
        <time>2024-05-28T12:35:28.962Z</time>
      </trkpt>
      <trkpt lat="45.87268293835223" lon="8.737632986158133">
        <ele>1118.81</ele>
        <time>2024-05-28T12:35:31.873Z</time>
      </trkpt>
      <trkpt lat="45.87268293835223" lon="8.737599961459637">
        <ele>1118.7</ele>
        <time>2024-05-28T12:35:34.785Z</time>
      </trkpt>
      <trkpt lat="45.872679920867085" lon="8.737559979781508">
        <ele>1118.57</ele>
        <time>2024-05-28T12:35:37.698Z</time>
      </trkpt>
      <trkpt lat="45.87267195805907" lon="8.73751999810338">
        <ele>1118.41</ele>
        <time>2024-05-28T12:35:40.612Z</time>
      </trkpt>
      <trkpt lat="45.8726619835943" lon="8.737474987283349">
        <ele>1118.24</ele>
        <time>2024-05-28T12:35:43.527Z</time>
      </trkpt>
      <trkpt lat="45.87265192531049" lon="8.737452942878008">
        <ele>1118.06</ele>
        <time>2024-05-28T12:35:46.442Z</time>
      </trkpt>
      <trkpt lat="45.87263993918896" lon="8.737407932057977">
        <ele>1117.86</ele>
        <time>2024-05-28T12:35:49.359Z</time>
      </trkpt>
      <trkpt lat="45.87262996472418" lon="8.737372979521751">
        <ele>1117.65</ele>
        <time>2024-05-28T12:35:52.276Z</time>
      </trkpt>
      <trkpt lat="45.87262292392552" lon="8.737339954823256">
        <ele>1117.42</ele>
        <time>2024-05-28T12:35:55.194Z</time>
      </trkpt>
      <trkpt lat="45.8726099319756" lon="8.737312965095043">
        <ele>1117.17</ele>
        <time>2024-05-28T12:35:58.113Z</time>
      </trkpt>
      <trkpt lat="45.87260297499597" lon="8.737279940396547">
        <ele>1116.91</ele>
        <time>2024-05-28T12:36:01.033Z</time>
      </trkpt>
      <trkpt lat="45.872594928368926" lon="8.737234929576516">
        <ele>1116.62</ele>
        <time>2024-05-28T12:36:03.954Z</time>
      </trkpt>
      <trkpt lat="45.872587971389294" lon="8.737184973433614">
        <ele>1116.31</ele>
        <time>2024-05-28T12:36:06.876Z</time>
      </trkpt>
      <trkpt lat="45.87258495390415" lon="8.737139962613583">
        <ele>1115.99</ele>
        <time>2024-05-28T12:36:09.799Z</time>
      </trkpt>
      <trkpt lat="45.87257799692452" lon="8.73709193430841">
        <ele>1115.64</ele>
        <time>2024-05-28T12:36:12.723Z</time>
      </trkpt>
      <trkpt lat="45.87257799692452" lon="8.737064944580197">
        <ele>1115.28</ele>
        <time>2024-05-28T12:36:15.648Z</time>
      </trkpt>
      <trkpt lat="45.872571961954236" lon="8.737037954851985">
        <ele>1114.9</ele>
        <time>2024-05-28T12:36:18.574Z</time>
      </trkpt>
      <trkpt lat="45.872571961954236" lon="8.737011970952153">
        <ele>1114.49</ele>
        <time>2024-05-28T12:36:21.500Z</time>
      </trkpt>
      <trkpt lat="45.872571961954236" lon="8.736966960132122">
        <ele>1114.04</ele>
        <time>2024-05-28T12:36:24.427Z</time>
      </trkpt>
      <trkpt lat="45.87258193641901" lon="8.736931923776865">
        <ele>1113.58</ele>
        <time>2024-05-28T12:36:27.355Z</time>
      </trkpt>
      <trkpt lat="45.872591994702816" lon="8.73689797706902">
        <ele>1113.1</ele>
        <time>2024-05-28T12:36:30.284Z</time>
      </trkpt>
      <trkpt lat="45.87260297499597" lon="8.736871993169188">
        <ele>1112.6</ele>
        <time>2024-05-28T12:36:33.214Z</time>
      </trkpt>
      <trkpt lat="45.87262292392552" lon="8.736836956813931">
        <ele>1112.06</ele>
        <time>2024-05-28T12:36:36.145Z</time>
      </trkpt>
      <trkpt lat="45.87262996472418" lon="8.736794963479042">
        <ele>1111.5</ele>
        <time>2024-05-28T12:36:39.077Z</time>
      </trkpt>
      <trkpt lat="45.87262292392552" lon="8.73676696792245">
        <ele>1110.92</ele>
        <time>2024-05-28T12:36:42.009Z</time>
      </trkpt>
      <trkpt lat="45.87259995751083" lon="8.73676797375083">
        <ele>1110.32</ele>
        <time>2024-05-28T12:36:44.942Z</time>
      </trkpt>
      <trkpt lat="45.87258193641901" lon="8.736797980964184">
        <ele>1109.72</ele>
        <time>2024-05-28T12:36:47.876Z</time>
      </trkpt>
      <trkpt lat="45.87256492115557" lon="8.736819941550493">
        <ele>1109.09</ele>
        <time>2024-05-28T12:36:50.811Z</time>
      </trkpt>
      <trkpt lat="45.87254296056926" lon="8.73683293350041">
        <ele>1108.42</ele>
        <time>2024-05-28T12:36:53.747Z</time>
      </trkpt>
      <trkpt lat="45.87252292782068" lon="8.736826982349157">
        <ele>1107.73</ele>
        <time>2024-05-28T12:36:56.683Z</time>
      </trkpt>
      <trkpt lat="45.87251194752753" lon="8.7367919459939">
        <ele>1107.0</ele>
        <time>2024-05-28T12:36:59.620Z</time>
      </trkpt>
      <trkpt lat="45.872504990547895" lon="8.736754981800914">
        <ele>1106.26</ele>
        <time>2024-05-28T12:37:02.558Z</time>
      </trkpt>
      <trkpt lat="45.87249199859798" lon="8.736722962930799">
        <ele>1105.5</ele>
        <time>2024-05-28T12:37:05.497Z</time>
      </trkpt>
      <trkpt lat="45.8724669367075" lon="8.736699996516109">
        <ele>1104.72</ele>
        <time>2024-05-28T12:37:08.437Z</time>
      </trkpt>
      <trkpt lat="45.87243491783738" lon="8.73668197542429">
        <ele>1103.91</ele>
        <time>2024-05-28T12:37:11.378Z</time>
      </trkpt>
      <trkpt lat="45.87241496890783" lon="8.736672922968864">
        <ele>1103.11</ele>
        <time>2024-05-28T12:37:14.320Z</time>
      </trkpt>
      <trkpt lat="45.87238999083638" lon="8.736649956554174">
        <ele>1102.28</ele>
        <time>2024-05-28T12:37:17.263Z</time>
      </trkpt>
      <trkpt lat="45.872372975572944" lon="8.7366399820894">
        <ele>1101.45</ele>
        <time>2024-05-28T12:37:20.206Z</time>
      </trkpt>
      <trkpt lat="45.87235193699598" lon="8.736604945734143">
        <ele>1100.6</ele>
        <time>2024-05-28T12:37:23.151Z</time>
      </trkpt>
      <trkpt lat="45.872334921732545" lon="8.736559934914112">
        <ele>1099.73</ele>
        <time>2024-05-28T12:37:26.097Z</time>
      </trkpt>
      <trkpt lat="45.87232192978263" lon="8.73650997877121">
        <ele>1098.86</ele>
        <time>2024-05-28T12:37:29.044Z</time>
      </trkpt>
      <trkpt lat="45.872312961146235" lon="8.736486928537488">
        <ele>1098.0</ele>
        <time>2024-05-28T12:37:31.992Z</time>
      </trkpt>
      <trkpt lat="45.87230298668146" lon="8.736464967951179">
        <ele>1097.12</ele>
        <time>2024-05-28T12:37:34.940Z</time>
      </trkpt>
      <trkpt lat="45.872289994731545" lon="8.73644694685936">
        <ele>1096.25</ele>
        <time>2024-05-28T12:37:37.889Z</time>
      </trkpt>
      <trkpt lat="45.872267950326204" lon="8.736406965181231">
        <ele>1095.35</ele>
        <time>2024-05-28T12:37:40.839Z</time>
      </trkpt>
      <trkpt lat="45.87225495837629" lon="8.73638198710978">
        <ele>1094.46</ele>
        <time>2024-05-28T12:37:43.790Z</time>
      </trkpt>
      <trkpt lat="45.87222998030484" lon="8.736339993774891">
        <ele>1093.55</ele>
        <time>2024-05-28T12:37:46.742Z</time>
      </trkpt>
      <trkpt lat="45.87220994755626" lon="8.736306969076395">
        <ele>1092.65</ele>
        <time>2024-05-28T12:37:49.695Z</time>
      </trkpt>
      <trkpt lat="45.87219494394958" lon="8.736291965469718">
        <ele>1091.76</ele>
        <time>2024-05-28T12:37:52.649Z</time>
      </trkpt>
      <trkpt lat="45.87216795422137" lon="8.736256929114461">
        <ele>1090.85</ele>
        <time>2024-05-28T12:37:55.604Z</time>
      </trkpt>
      <trkpt lat="45.87215697392821" lon="8.736236980184913">
        <ele>1089.97</ele>
        <time>2024-05-28T12:37:58.559Z</time>
      </trkpt>
      <trkpt lat="45.87213694117963" lon="8.736199932172894">
        <ele>1089.07</ele>
        <time>2024-05-28T12:38:01.516Z</time>
      </trkpt>
      <trkpt lat="45.87211196310818" lon="8.736181994900107">
        <ele>1088.18</ele>
        <time>2024-05-28T12:38:04.473Z</time>
      </trkpt>
      <trkpt lat="45.87208195589483" lon="8.736172942444682">
        <ele>1087.3</ele>
        <time>2024-05-28T12:38:07.431Z</time>
      </trkpt>
      <trkpt lat="45.87205697782338" lon="8.736159950494766">
        <ele>1086.42</ele>
        <time>2024-05-28T12:38:10.390Z</time>
      </trkpt>
      <trkpt lat="45.872031999751925" lon="8.736139917746186">
        <ele>1085.55</ele>
        <time>2024-05-28T12:38:13.350Z</time>
      </trkpt>
      <trkpt lat="45.87200794368982" lon="8.73612692579627">
        <ele>1084.68</ele>
        <time>2024-05-28T12:38:16.311Z</time>
      </trkpt>
      <trkpt lat="45.87199696339667" lon="8.736107982695103">
        <ele>1083.83</ele>
        <time>2024-05-28T12:38:19.273Z</time>
      </trkpt>
      <trkpt lat="45.87197693064809" lon="8.736086944118142">
        <ele>1082.99</ele>
        <time>2024-05-28T12:38:22.236Z</time>
      </trkpt>
      <trkpt lat="45.871947929263115" lon="8.736086944118142">
        <ele>1082.15</ele>
        <time>2024-05-28T12:38:25.200Z</time>
      </trkpt>
      <trkpt lat="45.87191297672689" lon="8.736074957996607">
        <ele>1081.31</ele>
        <time>2024-05-28T12:38:28.165Z</time>
      </trkpt>
      <trkpt lat="45.871882969513535" lon="8.736062971875072">
        <ele>1080.49</ele>
        <time>2024-05-28T12:38:31.131Z</time>
      </trkpt>
      <trkpt lat="45.87186494842172" lon="8.736061966046691">
        <ele>1079.7</ele>
        <time>2024-05-28T12:38:34.097Z</time>
      </trkpt>
      <trkpt lat="45.87184499949217" lon="8.73605995438993">
        <ele>1078.91</ele>
        <time>2024-05-28T12:38:37.064Z</time>
      </trkpt>
      <trkpt lat="45.87181298062205" lon="8.736047968268394">
        <ele>1078.13</ele>
        <time>2024-05-28T12:38:40.032Z</time>
      </trkpt>
      <trkpt lat="45.87178791873157" lon="8.736042939126492">
        <ele>1077.36</ele>
        <time>2024-05-28T12:38:43.001Z</time>
      </trkpt>
      <trkpt lat="45.87175992317498" lon="8.736022990196943">
        <ele>1076.6</ele>
        <time>2024-05-28T12:38:45.971Z</time>
      </trkpt>
      <trkpt lat="45.87173695676029" lon="8.736012931913137">
        <ele>1075.86</ele>
        <time>2024-05-28T12:38:48.942Z</time>
      </trkpt>
      <trkpt lat="45.87171792984009" lon="8.736007986590266">
        <ele>1075.15</ele>
        <time>2024-05-28T12:38:51.913Z</time>
      </trkpt>
      <trkpt lat="45.871684988960624" lon="8.736007986590266">
        <ele>1074.43</ele>
        <time>2024-05-28T12:38:54.886Z</time>
      </trkpt>
      <trkpt lat="45.87166998535395" lon="8.73599792830646">
        <ele>1073.74</ele>
        <time>2024-05-28T12:38:57.859Z</time>
      </trkpt>
      <trkpt lat="45.87164995260537" lon="8.735962975770235">
        <ele>1073.05</ele>
        <time>2024-05-28T12:39:00.833Z</time>
      </trkpt>
      <trkpt lat="45.87163796648383" lon="8.735942943021655">
        <ele>1072.39</ele>
        <time>2024-05-28T12:39:03.808Z</time>
      </trkpt>
      <trkpt lat="45.87161793373525" lon="8.735922994092107">
        <ele>1071.73</ele>
        <time>2024-05-28T12:39:06.784Z</time>
      </trkpt>
      <trkpt lat="45.87159697897732" lon="8.735927939414978">
        <ele>1071.1</ele>
        <time>2024-05-28T12:39:09.760Z</time>
      </trkpt>
      <trkpt lat="45.871579963713884" lon="8.735957946628332">
        <ele>1070.5</ele>
        <time>2024-05-28T12:39:12.737Z</time>
      </trkpt>
      <trkpt lat="45.871559930965304" lon="8.735976973548532">
        <ele>1069.9</ele>
        <time>2024-05-28T12:39:15.715Z</time>
      </trkpt>
      <trkpt lat="45.871537970378995" lon="8.73599499464035">
        <ele>1069.31</ele>
        <time>2024-05-28T12:39:18.694Z</time>
      </trkpt>
      <trkpt lat="45.871519949287176" lon="8.735999939963222">
        <ele>1068.73</ele>
        <time>2024-05-28T12:39:21.673Z</time>
      </trkpt>
      <trkpt lat="45.871499916538596" lon="8.735989965498447">
        <ele>1068.16</ele>
        <time>2024-05-28T12:39:24.653Z</time>
      </trkpt>
      <trkpt lat="45.87147795595229" lon="8.735959958285093">
        <ele>1067.59</ele>
        <time>2024-05-28T12:39:27.634Z</time>
      </trkpt>
      <trkpt lat="45.87144794873893" lon="8.735936991870403">
        <ele>1067.03</ele>
        <time>2024-05-28T12:39:30.616Z</time>
      </trkpt>
      <trkpt lat="45.8714169356972" lon="8.735944954678416">
        <ele>1066.5</ele>
        <time>2024-05-28T12:39:33.599Z</time>
      </trkpt>
      <trkpt lat="45.87139195762575" lon="8.735964987426996">
        <ele>1065.98</ele>
        <time>2024-05-28T12:39:36.583Z</time>
      </trkpt>
      <trkpt lat="45.87137192487717" lon="8.735967921093106">
        <ele>1065.46</ele>
        <time>2024-05-28T12:39:39.568Z</time>
      </trkpt>
      <trkpt lat="45.87133998982608" lon="8.735964987426996">
        <ele>1064.93</ele>
        <time>2024-05-28T12:39:42.554Z</time>
      </trkpt>
      <trkpt lat="45.87131794542074" lon="8.735984936356544">
        <ele>1064.43</ele>
        <time>2024-05-28T12:39:45.541Z</time>
      </trkpt>
      <trkpt lat="45.87130797095597" lon="8.736024918034673">
        <ele>1063.93</ele>
        <time>2024-05-28T12:39:48.529Z</time>
      </trkpt>
      <trkpt lat="45.871297996491194" lon="8.736054925248027">
        <ele>1063.42</ele>
        <time>2024-05-28T12:39:51.518Z</time>
      </trkpt>
      <trkpt lat="45.87128793820739" lon="8.736091973260045">
        <ele>1062.91</ele>
        <time>2024-05-28T12:39:54.508Z</time>
      </trkpt>
      <trkpt lat="45.87126991711557" lon="8.736117957159877">
        <ele>1062.39</ele>
        <time>2024-05-28T12:39:57.498Z</time>
      </trkpt>
      <trkpt lat="45.87125298567116" lon="8.736141929402947">
        <ele>1061.87</ele>
        <time>2024-05-28T12:40:00.489Z</time>
      </trkpt>
      <trkpt lat="45.87123999372125" lon="8.736172942444682">
        <ele>1061.35</ele>
        <time>2024-05-28T12:40:03.481Z</time>
      </trkpt>
      <trkpt lat="45.871214931830764" lon="8.736172942444682">
        <ele>1060.81</ele>
        <time>2024-05-28T12:40:06.474Z</time>
      </trkpt>
      <trkpt lat="45.87120193988085" lon="8.736161962151527">
        <ele>1060.27</ele>
        <time>2024-05-28T12:40:09.467Z</time>
      </trkpt>
      <trkpt lat="45.87117997929454" lon="8.736137989908457">
        <ele>1059.71</ele>
        <time>2024-05-28T12:40:12.461Z</time>
      </trkpt>
      <trkpt lat="45.87115994654596" lon="8.736116951331496">
        <ele>1059.15</ele>
        <time>2024-05-28T12:40:15.456Z</time>
      </trkpt>
      <trkpt lat="45.87114192545414" lon="8.73610194772482">
        <ele>1058.58</ele>
        <time>2024-05-28T12:40:18.452Z</time>
      </trkpt>
      <trkpt lat="45.871112924069166" lon="8.736097924411297">
        <ele>1057.99</ele>
        <time>2024-05-28T12:40:21.449Z</time>
      </trkpt>
      <trkpt lat="45.87108291685581" lon="8.736081998795271">
        <ele>1057.39</ele>
        <time>2024-05-28T12:40:24.447Z</time>
      </trkpt>
      <trkpt lat="45.87105492129922" lon="8.736077975481749">
        <ele>1056.78</ele>
        <time>2024-05-28T12:40:27.446Z</time>
      </trkpt>
      <trkpt lat="45.87102994322777" lon="8.736069928854704">
        <ele>1056.16</ele>
        <time>2024-05-28T12:40:30.446Z</time>
      </trkpt>
      <trkpt lat="45.870999936014414" lon="8.73605995438993">
        <ele>1055.52</ele>
        <time>2024-05-28T12:40:33.447Z</time>
      </trkpt>
      <trkpt lat="45.87097194045782" lon="8.736042939126492">
        <ele>1054.88</ele>
        <time>2024-05-28T12:40:36.449Z</time>
      </trkpt>
      <trkpt lat="45.87094696238637" lon="8.736027935519814">
        <ele>1054.22</ele>
        <time>2024-05-28T12:40:39.452Z</time>
      </trkpt>
      <trkpt lat="45.870917961001396" lon="8.73601796105504">
        <ele>1053.55</ele>
        <time>2024-05-28T12:40:42.456Z</time>
      </trkpt>
      <trkpt lat="45.870894994586706" lon="8.735999939963222">
        <ele>1052.87</ele>
        <time>2024-05-28T12:40:45.461Z</time>
      </trkpt>
      <trkpt lat="45.87086699903011" lon="8.735987953841686">
        <ele>1052.17</ele>
        <time>2024-05-28T12:40:48.467Z</time>
      </trkpt>
      <trkpt lat="45.870849983766675" lon="8.73597496189177">
        <ele>1051.47</ele>
        <time>2024-05-28T12:40:51.473Z</time>
      </trkpt>
      <trkpt lat="45.87082492187619" lon="8.735967921093106">
        <ele>1050.75</ele>
        <time>2024-05-28T12:40:54.480Z</time>
      </trkpt>
      <trkpt lat="45.870811929926276" lon="8.73599792830646">
        <ele>1050.03</ele>
        <time>2024-05-28T12:40:57.488Z</time>
      </trkpt>
      <trkpt lat="45.87079298682511" lon="8.73601796105504">
        <ele>1049.3</ele>
        <time>2024-05-28T12:41:00.497Z</time>
      </trkpt>
      <trkpt lat="45.870762979611754" lon="8.736024918034673">
        <ele>1048.53</ele>
        <time>2024-05-28T12:41:03.507Z</time>
      </trkpt>
      <trkpt lat="45.87073498405516" lon="8.736054925248027">
        <ele>1047.73</ele>
        <time>2024-05-28T12:41:06.518Z</time>
      </trkpt>
      <trkpt lat="45.87071696296334" lon="8.736061966046691">
        <ele>1046.95</ele>
        <time>2024-05-28T12:41:09.529Z</time>
      </trkpt>
      <trkpt lat="45.870699947699904" lon="8.736052997410297">
        <ele>1046.15</ele>
        <time>2024-05-28T12:41:12.541Z</time>
      </trkpt>
      <trkpt lat="45.870682932436466" lon="8.73603799380362">
        <ele>1045.35</ele>
        <time>2024-05-28T12:41:15.554Z</time>
      </trkpt>
      <trkpt lat="45.87065493687987" lon="8.736014943569899">
        <ele>1044.52</ele>
        <time>2024-05-28T12:41:18.568Z</time>
      </trkpt>
      <trkpt lat="45.87062694132328" lon="8.735989965498447">
        <ele>1043.68</ele>
        <time>2024-05-28T12:41:21.583Z</time>
      </trkpt>
      <trkpt lat="45.87059995159507" lon="8.735964987426996">
        <ele>1042.83</ele>
        <time>2024-05-28T12:41:24.599Z</time>
      </trkpt>
      <trkpt lat="45.87058193050325" lon="8.735932968556881">
        <ele>1041.98</ele>
        <time>2024-05-28T12:41:27.616Z</time>
      </trkpt>
      <trkpt lat="45.87056499905884" lon="8.735912935808301">
        <ele>1041.12</ele>
        <time>2024-05-28T12:41:30.634Z</time>
      </trkpt>
      <trkpt lat="45.8705429546535" lon="8.735882928594947">
        <ele>1040.23</ele>
        <time>2024-05-28T12:41:33.653Z</time>
      </trkpt>
      <trkpt lat="45.87051998823881" lon="8.735851999372244">
        <ele>1039.32</ele>
        <time>2024-05-28T12:41:36.673Z</time>
      </trkpt>
      <trkpt lat="45.870504984632134" lon="8.735842946916819">
        <ele>1038.42</ele>
        <time>2024-05-28T12:41:39.693Z</time>
      </trkpt>
      <trkpt lat="45.870487969368696" lon="8.735829954966903">
        <ele>1037.5</ele>
        <time>2024-05-28T12:41:42.714Z</time>
      </trkpt>
      <trkpt lat="45.870466930791736" lon="8.735806988552213">
        <ele>1036.57</ele>
        <time>2024-05-28T12:41:45.736Z</time>
      </trkpt>
      <trkpt lat="45.87043792940676" lon="8.735791984945536">
        <ele>1035.62</ele>
        <time>2024-05-28T12:41:48.759Z</time>
      </trkpt>
      <trkpt lat="45.870417980477214" lon="8.735799947753549">
        <ele>1034.69</ele>
        <time>2024-05-28T12:41:51.782Z</time>
      </trkpt>
      <trkpt lat="45.87039694190025" lon="8.735819980502129">
        <ele>1033.75</ele>
        <time>2024-05-28T12:41:54.806Z</time>
      </trkpt>
      <trkpt lat="45.870376992970705" lon="8.735836995765567">
        <ele>1032.81</ele>
        <time>2024-05-28T12:41:57.831Z</time>
      </trkpt>
      <trkpt lat="45.87035997770727" lon="8.73584495857358">
        <ele>1031.86</ele>
        <time>2024-05-28T12:42:00.857Z</time>
      </trkpt>
      <trkpt lat="45.87034497410059" lon="8.735856944695115">
        <ele>1030.92</ele>
        <time>2024-05-28T12:42:03.883Z</time>
      </trkpt>
      <trkpt lat="45.87032192386687" lon="8.73586792498827">
        <ele>1029.94</ele>
        <time>2024-05-28T12:42:06.910Z</time>
      </trkpt>
      <trkpt lat="45.87028294801712" lon="8.735869936645031">
        <ele>1028.94</ele>
        <time>2024-05-28T12:42:09.938Z</time>
      </trkpt>
      <trkpt lat="45.87026199325919" lon="8.735856944695115">
        <ele>1027.95</ele>
        <time>2024-05-28T12:42:12.967Z</time>
      </trkpt>
      <trkpt lat="45.87024497799575" lon="8.735847976058722">
        <ele>1026.96</ele>
        <time>2024-05-28T12:42:15.997Z</time>
      </trkpt>
      <trkpt lat="45.87021698243916" lon="8.735836995765567">
        <ele>1025.95</ele>
        <time>2024-05-28T12:42:19.028Z</time>
      </trkpt>
      <trkpt lat="45.8701819460839" lon="8.735824925825">
        <ele>1024.92</ele>
        <time>2024-05-28T12:42:22.060Z</time>
      </trkpt>
      <trkpt lat="45.870164930820465" lon="8.735814951360226">
        <ele>1023.91</ele>
        <time>2024-05-28T12:42:25.093Z</time>
      </trkpt>
      <trkpt lat="45.870142970234156" lon="8.735799947753549">
        <ele>1022.89</ele>
        <time>2024-05-28T12:42:28.126Z</time>
      </trkpt>
      <trkpt lat="45.870122937485576" lon="8.735791984945536">
        <ele>1021.86</ele>
        <time>2024-05-28T12:42:31.160Z</time>
      </trkpt>
      <trkpt lat="45.87008798494935" lon="8.735769940540195">
        <ele>1020.82</ele>
        <time>2024-05-28T12:42:34.195Z</time>
      </trkpt>
      <trkpt lat="45.87006996385753" lon="8.735761977732182">
        <ele>1019.79</ele>
        <time>2024-05-28T12:42:37.231Z</time>
      </trkpt>
      <trkpt lat="45.87003995664418" lon="8.735749991610646">
        <ele>1018.75</ele>
        <time>2024-05-28T12:42:40.268Z</time>
      </trkpt>
      <trkpt lat="45.870011961087584" lon="8.735729958862066">
        <ele>1017.71</ele>
        <time>2024-05-28T12:42:43.306Z</time>
      </trkpt>
      <trkpt lat="45.86998991668224" lon="8.735699951648712">
        <ele>1016.67</ele>
        <time>2024-05-28T12:42:46.345Z</time>
      </trkpt>
      <trkpt lat="45.86998295970261" lon="8.735659969970584">
        <ele>1015.64</ele>
        <time>2024-05-28T12:42:49.385Z</time>
      </trkpt>
      <trkpt lat="45.869969967752695" lon="8.735637925565243">
        <ele>1014.6</ele>
        <time>2024-05-28T12:42:52.426Z</time>
      </trkpt>
      <trkpt lat="45.86995798163116" lon="8.73560993000865">
        <ele>1013.56</ele>
        <time>2024-05-28T12:42:55.467Z</time>
      </trkpt>
      <trkpt lat="45.86993199773133" lon="8.73558696359396">
        <ele>1012.5</ele>
        <time>2024-05-28T12:42:58.509Z</time>
      </trkpt>
      <trkpt lat="45.86990995332599" lon="8.735577994957566">
        <ele>1011.45</ele>
        <time>2024-05-28T12:43:01.552Z</time>
      </trkpt>
      <trkpt lat="45.8698869869113" lon="8.73558696359396">
        <ele>1010.42</ele>
        <time>2024-05-28T12:43:04.596Z</time>
      </trkpt>
      <trkpt lat="45.8698679599911" lon="8.735592998564243">
        <ele>1009.39</ele>
        <time>2024-05-28T12:43:07.641Z</time>
      </trkpt>
      <trkpt lat="45.86985798552632" lon="8.735571959987283">
        <ele>1008.35</ele>
        <time>2024-05-28T12:43:10.686Z</time>
      </trkpt>
      <trkpt lat="45.86982697248459" lon="8.73556793667376">
        <ele>1007.31</ele>
        <time>2024-05-28T12:43:13.732Z</time>
      </trkpt>
      <trkpt lat="45.86979193612933" lon="8.73556693084538">
        <ele>1006.25</ele>
        <time>2024-05-28T12:43:16.779Z</time>
      </trkpt>
      <trkpt lat="45.86976796388626" lon="8.735561985522509">
        <ele>1005.21</ele>
        <time>2024-05-28T12:43:19.827Z</time>
      </trkpt>
      <trkpt lat="45.869752960279584" lon="8.73552292585373">
        <ele>1004.17</ele>
        <time>2024-05-28T12:43:22.876Z</time>
      </trkpt>
      <trkpt lat="45.869729993864894" lon="8.735486967489123">
        <ele>1003.12</ele>
        <time>2024-05-28T12:43:25.926Z</time>
      </trkpt>
      <trkpt lat="45.869711972773075" lon="8.735466934740543">
        <ele>1002.11</ele>
        <time>2024-05-28T12:43:28.977Z</time>
      </trkpt>
      <trkpt lat="45.86968791671097" lon="8.73545696027577">
        <ele>1001.1</ele>
        <time>2024-05-28T12:43:32.029Z</time>
      </trkpt>
      <trkpt lat="45.869666961953044" lon="8.735441956669092">
        <ele>1000.11</ele>
        <time>2024-05-28T12:43:35.082Z</time>
      </trkpt>
      <trkpt lat="45.869649946689606" lon="8.735427958890796">
        <ele>999.14</ele>
        <time>2024-05-28T12:43:38.135Z</time>
      </trkpt>
      <trkpt lat="45.86963192559779" lon="8.735412955284119">
        <ele>998.19</ele>
        <time>2024-05-28T12:43:41.189Z</time>
      </trkpt>
      <trkpt lat="45.86961499415338" lon="8.7353949341923">
        <ele>997.25</ele>
        <time>2024-05-28T12:43:44.244Z</time>
      </trkpt>
      <trkpt lat="45.86959697306156" lon="8.735367944464087">
        <ele>996.32</ele>
        <time>2024-05-28T12:43:47.300Z</time>
      </trkpt>
      <trkpt lat="45.86958699859679" lon="8.735344978049397">
        <ele>995.42</ele>
        <time>2024-05-28T12:43:50.356Z</time>
      </trkpt>
      <trkpt lat="45.86957291699946" lon="8.735319999977946">
        <ele>994.54</ele>
        <time>2024-05-28T12:43:53.413Z</time>
      </trkpt>
      <trkpt lat="45.86955992504954" lon="8.735279934480786">
        <ele>993.66</ele>
        <time>2024-05-28T12:43:56.471Z</time>
      </trkpt>
      <trkpt lat="45.869544921442866" lon="8.735267948359251">
        <ele>992.82</ele>
        <time>2024-05-28T12:43:59.530Z</time>
      </trkpt>
      <trkpt lat="45.86952798999846" lon="8.735257973894477">
        <ele>992.02</ele>
        <time>2024-05-28T12:44:02.589Z</time>
      </trkpt>
      <trkpt lat="45.86951298639178" lon="8.73524196445942">
        <ele>991.23</ele>
        <time>2024-05-28T12:44:05.649Z</time>
      </trkpt>
      <trkpt lat="45.86949999444187" lon="8.735209945589304">
        <ele>990.45</ele>
        <time>2024-05-28T12:44:08.710Z</time>
      </trkpt>
      <trkpt lat="45.86948691867292" lon="8.735176920890808">
        <ele>989.7</ele>
        <time>2024-05-28T12:44:11.772Z</time>
      </trkpt>
      <trkpt lat="45.869474932551384" lon="8.735149931162596">
        <ele>988.97</ele>
        <time>2024-05-28T12:44:14.834Z</time>
      </trkpt>
      <trkpt lat="45.869451966136694" lon="8.735119923949242">
        <ele>988.25</ele>
        <time>2024-05-28T12:44:17.897Z</time>
      </trkpt>
      <trkpt lat="45.86946194060147" lon="8.735084971413016">
        <ele>987.59</ele>
        <time>2024-05-28T12:44:20.961Z</time>
      </trkpt>
      <trkpt lat="45.86948297917843" lon="8.735044989734888">
        <ele>986.96</ele>
        <time>2024-05-28T12:44:24.027Z</time>
      </trkpt>
      <trkpt lat="45.86950292810798" lon="8.735029986128211">
        <ele>986.36</ele>
        <time>2024-05-28T12:44:27.093Z</time>
      </trkpt>
      <trkpt lat="45.869521955028176" lon="8.735016994178295">
        <ele>985.78</ele>
        <time>2024-05-28T12:44:30.160Z</time>
      </trkpt>
      <trkpt lat="45.86954793892801" lon="8.735004924237728">
        <ele>985.22</ele>
        <time>2024-05-28T12:44:33.228Z</time>
      </trkpt>
      <trkpt lat="45.869582975283265" lon="8.73498497530818">
        <ele>984.7</ele>
        <time>2024-05-28T12:44:36.297Z</time>
      </trkpt>
      <trkpt lat="45.86960191838443" lon="8.734971983358264">
        <ele>984.17</ele>
        <time>2024-05-28T12:44:39.367Z</time>
      </trkpt>
      <trkpt lat="45.86962195113301" lon="8.734957985579967">
        <ele>983.66</ele>
        <time>2024-05-28T12:44:42.438Z</time>
      </trkpt>
      <trkpt lat="45.86963997222483" lon="8.734936947003007">
        <ele>983.15</ele>
        <time>2024-05-28T12:44:45.509Z</time>
      </trkpt>
      <trkpt lat="45.86966293863952" lon="8.734917920082808">
        <ele>982.66</ele>
        <time>2024-05-28T12:44:48.581Z</time>
      </trkpt>
      <trkpt lat="45.86968196555972" lon="8.73489797115326">
        <ele>982.16</ele>
        <time>2024-05-28T12:44:51.654Z</time>
      </trkpt>
      <trkpt lat="45.86970493197441" lon="8.73487995006144">
        <ele>981.67</ele>
        <time>2024-05-28T12:44:54.728Z</time>
      </trkpt>
      <trkpt lat="45.86972697637975" lon="8.734867963939905">
        <ele>981.19</ele>
        <time>2024-05-28T12:44:57.803Z</time>
      </trkpt>
      <trkpt lat="45.8697469253093" lon="8.73485991731286">
        <ele>980.72</ele>
        <time>2024-05-28T12:45:00.878Z</time>
      </trkpt>
      <trkpt lat="45.86976494640112" lon="8.734847931191325">
        <ele>980.24</ele>
        <time>2024-05-28T12:45:03.954Z</time>
      </trkpt>
      <trkpt lat="45.869777938351035" lon="8.734827982261777">
        <ele>979.75</ele>
        <time>2024-05-28T12:45:07.031Z</time>
      </trkpt>
      <trkpt lat="45.86978799663484" lon="8.734802920371294">
        <ele>979.25</ele>
        <time>2024-05-28T12:45:10.108Z</time>
      </trkpt>
      <trkpt lat="45.869802916422486" lon="8.734779953956604">
        <ele>978.76</ele>
        <time>2024-05-28T12:45:13.186Z</time>
      </trkpt>
      <trkpt lat="45.869822949171066" lon="8.734759921208024">
        <ele>978.27</ele>
        <time>2024-05-28T12:45:16.265Z</time>
      </trkpt>
      <trkpt lat="45.869839964434505" lon="8.734742989763618">
        <ele>977.78</ele>
        <time>2024-05-28T12:45:19.345Z</time>
      </trkpt>
      <trkpt lat="45.86984792724252" lon="8.734716922044754">
        <ele>977.27</ele>
        <time>2024-05-28T12:45:22.425Z</time>
      </trkpt>
      <trkpt lat="45.86984792724252" lon="8.734679957851768">
        <ele>976.73</ele>
        <time>2024-05-28T12:45:25.506Z</time>
      </trkpt>
      <trkpt lat="45.86984499357641" lon="8.734652968123555">
        <ele>976.2</ele>
        <time>2024-05-28T12:45:28.588Z</time>
      </trkpt>
      <trkpt lat="45.869822949171066" lon="8.734642993658781">
        <ele>975.67</ele>
        <time>2024-05-28T12:45:31.671Z</time>
      </trkpt>
      <trkpt lat="45.869799982756376" lon="8.734647938981652">
        <ele>975.16</ele>
        <time>2024-05-28T12:45:34.754Z</time>
      </trkpt>
      <trkpt lat="45.86977198719978" lon="8.73464492149651">
        <ele>974.64</ele>
        <time>2024-05-28T12:45:37.838Z</time>
      </trkpt>
      <trkpt lat="45.86974994279444" lon="8.734634947031736">
        <ele>974.11</ele>
        <time>2024-05-28T12:45:40.923Z</time>
      </trkpt>
      <trkpt lat="45.869729993864894" lon="8.734617931768298">
        <ele>973.57</ele>
        <time>2024-05-28T12:45:44.009Z</time>
      </trkpt>
      <trkpt lat="45.86971499025822" lon="8.734604939818382">
        <ele>973.02</ele>
        <time>2024-05-28T12:45:47.095Z</time>
      </trkpt>
      <trkpt lat="45.869691940024495" lon="8.734574932605028">
        <ele>972.45</ele>
        <time>2024-05-28T12:45:50.182Z</time>
      </trkpt>
      <trkpt lat="45.86966293863952" lon="8.734559928998351">
        <ele>971.89</ele>
        <time>2024-05-28T12:45:53.270Z</time>
      </trkpt>
      <trkpt lat="45.86964298970997" lon="8.73455498367548">
        <ele>971.34</ele>
        <time>2024-05-28T12:45:56.359Z</time>
      </trkpt>
      <trkpt lat="45.869624968618155" lon="8.734547942876816">
        <ele>970.79</ele>
        <time>2024-05-28T12:45:59.449Z</time>
      </trkpt>
      <trkpt lat="45.86960191838443" lon="8.734542997553945">
        <ele>970.23</ele>
        <time>2024-05-28T12:46:02.540Z</time>
      </trkpt>
      <trkpt lat="45.869582975283265" lon="8.734519947320223">
        <ele>969.65</ele>
        <time>2024-05-28T12:46:05.631Z</time>
      </trkpt>
      <trkpt lat="45.86957995779812" lon="8.73449295759201">
        <ele>969.07</ele>
        <time>2024-05-28T12:46:08.723Z</time>
      </trkpt>
      <trkpt lat="45.869582975283265" lon="8.734456999227405">
        <ele>968.48</ele>
        <time>2024-05-28T12:46:11.816Z</time>
      </trkpt>
      <trkpt lat="45.86959697306156" lon="8.734442917630076">
        <ele>967.92</ele>
        <time>2024-05-28T12:46:14.909Z</time>
      </trkpt>
      <trkpt lat="45.86959697306156" lon="8.734416933730245">
        <ele>967.34</ele>
        <time>2024-05-28T12:46:18.003Z</time>
      </trkpt>
      <trkpt lat="45.86959294974804" lon="8.734391955658793">
        <ele>966.76</ele>
        <time>2024-05-28T12:46:21.098Z</time>
      </trkpt>
      <trkpt lat="45.869582975283265" lon="8.734356919303536">
        <ele>966.16</ele>
        <time>2024-05-28T12:46:24.193Z</time>
      </trkpt>
      <trkpt lat="45.869582975283265" lon="8.73431995511055">
        <ele>965.57</ele>
        <time>2024-05-28T12:46:27.289Z</time>
      </trkpt>
      <trkpt lat="45.86961197666824" lon="8.734311992302537">
        <ele>965.02</ele>
        <time>2024-05-28T12:46:30.386Z</time>
      </trkpt>
      <trkpt lat="45.869627986103296" lon="8.73429992236197">
        <ele>964.47</ele>
        <time>2024-05-28T12:46:33.484Z</time>
      </trkpt>
      <trkpt lat="45.869646929204464" lon="8.734284918755293">
        <ele>963.93</ele>
        <time>2024-05-28T12:46:36.583Z</time>
      </trkpt>
      <trkpt lat="45.86967995390296" lon="8.734264969825745">
        <ele>963.39</ele>
        <time>2024-05-28T12:46:39.683Z</time>
      </trkpt>
      <trkpt lat="45.86970493197441" lon="8.734236974269152">
        <ele>962.84</ele>
        <time>2024-05-28T12:46:42.784Z</time>
      </trkpt>
      <trkpt lat="45.86972295306623" lon="8.734197998419404">
        <ele>962.29</ele>
        <time>2024-05-28T12:46:45.886Z</time>
      </trkpt>
      <trkpt lat="45.86972697637975" lon="8.734172936528921">
        <ele>961.74</ele>
        <time>2024-05-28T12:46:48.989Z</time>
      </trkpt>
      <trkpt lat="45.869729993864894" lon="8.73414695262909">
        <ele>961.19</ele>
        <time>2024-05-28T12:46:52.092Z</time>
      </trkpt>
      <trkpt lat="45.86973996832967" lon="8.734122980386019">
        <ele>960.66</ele>
        <time>2024-05-28T12:46:55.196Z</time>
      </trkpt>
      <trkpt lat="45.86974994279444" lon="8.734092973172665">
        <ele>960.14</ele>
        <time>2024-05-28T12:46:58.301Z</time>
      </trkpt>
      <trkpt lat="45.869752960279584" lon="8.734059948474169">
        <ele>959.61</ele>
        <time>2024-05-28T12:47:01.406Z</time>
      </trkpt>
      <trkpt lat="45.869759917259216" lon="8.734021978452802">
        <ele>959.08</ele>
        <time>2024-05-28T12:47:04.512Z</time>
      </trkpt>
      <trkpt lat="45.86976494640112" lon="8.733991971239448">
        <ele>958.56</ele>
        <time>2024-05-28T12:47:07.619Z</time>
      </trkpt>
      <trkpt lat="45.869777938351035" lon="8.73395492322743">
        <ele>958.05</ele>
        <time>2024-05-28T12:47:10.727Z</time>
      </trkpt>
      <trkpt lat="45.86976796388626" lon="8.733927933499217">
        <ele>957.52</ele>
        <time>2024-05-28T12:47:13.836Z</time>
      </trkpt>
      <trkpt lat="45.86976192891598" lon="8.733901949599385">
        <ele>956.99</ele>
        <time>2024-05-28T12:47:16.945Z</time>
      </trkpt>
      <trkpt lat="45.869759917259216" lon="8.73386993072927">
        <ele>956.48</ele>
        <time>2024-05-28T12:47:20.055Z</time>
      </trkpt>
      <trkpt lat="45.869752960279584" lon="8.733839923515916">
        <ele>955.98</ele>
        <time>2024-05-28T12:47:23.166Z</time>
      </trkpt>
      <trkpt lat="45.869759917259216" lon="8.73380497097969">
        <ele>955.5</ele>
        <time>2024-05-28T12:47:26.278Z</time>
      </trkpt>
      <trkpt lat="45.869752960279584" lon="8.733769934624434">
        <ele>955.0</ele>
        <time>2024-05-28T12:47:29.391Z</time>
      </trkpt>
      <trkpt lat="45.869759917259216" lon="8.733742944896221">
        <ele>954.52</ele>
        <time>2024-05-28T12:47:32.504Z</time>
      </trkpt>
      <trkpt lat="45.869759917259216" lon="8.733702963218093">
        <ele>954.04</ele>
        <time>2024-05-28T12:47:35.618Z</time>
      </trkpt>
      <trkpt lat="45.869759917259216" lon="8.733664993196726">
        <ele>953.55</ele>
        <time>2024-05-28T12:47:38.733Z</time>
      </trkpt>
      <trkpt lat="45.86976192891598" lon="8.73363196849823">
        <ele>953.07</ele>
        <time>2024-05-28T12:47:41.849Z</time>
      </trkpt>
      <trkpt lat="45.86976494640112" lon="8.733604978770018">
        <ele>952.59</ele>
        <time>2024-05-28T12:47:44.965Z</time>
      </trkpt>
      <trkpt lat="45.86976796388626" lon="8.733577989041805">
        <ele>952.12</ele>
        <time>2024-05-28T12:47:48.082Z</time>
      </trkpt>
      <trkpt lat="45.86976796388626" lon="8.73354697600007">
        <ele>951.64</ele>
        <time>2024-05-28T12:47:51.200Z</time>
      </trkpt>
      <trkpt lat="45.86976796388626" lon="8.733516968786716">
        <ele>951.17</ele>
        <time>2024-05-28T12:47:54.318Z</time>
      </trkpt>
      <trkpt lat="45.86976796388626" lon="8.733476987108588">
        <ele>950.69</ele>
        <time>2024-05-28T12:47:57.437Z</time>
      </trkpt>
      <trkpt lat="45.86977198719978" lon="8.733431976288557">
        <ele>950.22</ele>
        <time>2024-05-28T12:48:00.557Z</time>
      </trkpt>
      <trkpt lat="45.86977198719978" lon="8.73339794576168">
        <ele>949.75</ele>
        <time>2024-05-28T12:48:03.678Z</time>
      </trkpt>
      <trkpt lat="45.869777938351035" lon="8.733357964083552">
        <ele>949.27</ele>
        <time>2024-05-28T12:48:06.800Z</time>
      </trkpt>
      <trkpt lat="45.86976796388626" lon="8.73331194743514">
        <ele>948.77</ele>
        <time>2024-05-28T12:48:09.923Z</time>
      </trkpt>
      <trkpt lat="45.86976494640112" lon="8.733274983242154">
        <ele>948.29</ele>
        <time>2024-05-28T12:48:13.047Z</time>
      </trkpt>
      <trkpt lat="45.869752960279584" lon="8.733239946886897">
        <ele>947.79</ele>
        <time>2024-05-28T12:48:16.172Z</time>
      </trkpt>
      <trkpt lat="45.869752960279584" lon="8.733207928016782">
        <ele>947.31</ele>
        <time>2024-05-28T12:48:19.298Z</time>
      </trkpt>
      <trkpt lat="45.86974994279444" lon="8.733179932460189">
        <ele>946.83</ele>
        <time>2024-05-28T12:48:22.425Z</time>
      </trkpt>
      <trkpt lat="45.86974994279444" lon="8.733149925246835">
        <ele>946.36</ele>
        <time>2024-05-28T12:48:25.552Z</time>
      </trkpt>
      <trkpt lat="45.869752960279584" lon="8.733117990195751">
        <ele>945.88</ele>
        <time>2024-05-28T12:48:28.680Z</time>
      </trkpt>
      <trkpt lat="45.869752960279584" lon="8.733089994639158">
        <ele>945.41</ele>
        <time>2024-05-28T12:48:31.809Z</time>
      </trkpt>
      <trkpt lat="45.869759917259216" lon="8.733056969940662">
        <ele>944.95</ele>
        <time>2024-05-28T12:48:34.938Z</time>
      </trkpt>
      <trkpt lat="45.86976192891598" lon="8.733024951070547">
        <ele>944.46</ele>
        <time>2024-05-28T12:48:38.068Z</time>
      </trkpt>
      <trkpt lat="45.86976192891598" lon="8.732996955513954">
        <ele>943.98</ele>
        <time>2024-05-28T12:48:41.199Z</time>
      </trkpt>
      <trkpt lat="45.86976796388626" lon="8.732959991320968">
        <ele>943.49</ele>
        <time>2024-05-28T12:48:44.331Z</time>
      </trkpt>
      <trkpt lat="45.86976796388626" lon="8.73290492221713">
        <ele>942.98</ele>
        <time>2024-05-28T12:48:47.464Z</time>
      </trkpt>
      <trkpt lat="45.86976494640112" lon="8.732871981337667">
        <ele>942.48</ele>
        <time>2024-05-28T12:48:50.598Z</time>
      </trkpt>
      <trkpt lat="45.86976494640112" lon="8.73283694498241">
        <ele>941.98</ele>
        <time>2024-05-28T12:48:53.733Z</time>
      </trkpt>
      <trkpt lat="45.86976796388626" lon="8.732791934162378">
        <ele>941.5</ele>
        <time>2024-05-28T12:48:56.869Z</time>
      </trkpt>
      <trkpt lat="45.86978196166456" lon="8.73275195248425">
        <ele>941.04</ele>
        <time>2024-05-28T12:49:00.006Z</time>
      </trkpt>
      <trkpt lat="45.86978799663484" lon="8.7327079474926">
        <ele>940.56</ele>
        <time>2024-05-28T12:49:03.144Z</time>
      </trkpt>
      <trkpt lat="45.86979495361447" lon="8.732671989127994">
        <ele>940.09</ele>
        <time>2024-05-28T12:49:06.283Z</time>
      </trkpt>
      <trkpt lat="45.869799982756376" lon="8.732634941115975">
        <ele>939.61</ele>
        <time>2024-05-28T12:49:09.422Z</time>
      </trkpt>
      <trkpt lat="45.869802916422486" lon="8.732597976922989">
        <ele>939.13</ele>
        <time>2024-05-28T12:49:12.562Z</time>
      </trkpt>
      <trkpt lat="45.869802916422486" lon="8.732561934739351">
        <ele>938.64</ele>
        <time>2024-05-28T12:49:15.703Z</time>
      </trkpt>
      <trkpt lat="45.86980693973601" lon="8.732522958889604">
        <ele>938.15</ele>
        <time>2024-05-28T12:49:18.845Z</time>
      </trkpt>
      <trkpt lat="45.86980995722115" lon="8.73249496333301">
        <ele>937.65</ele>
        <time>2024-05-28T12:49:21.988Z</time>
      </trkpt>
      <trkpt lat="45.869819931685925" lon="8.73246998526156">
        <ele>937.17</ele>
        <time>2024-05-28T12:49:25.131Z</time>
      </trkpt>
      <trkpt lat="45.869822949171066" lon="8.732441989704967">
        <ele>936.67</ele>
        <time>2024-05-28T12:49:28.275Z</time>
      </trkpt>
      <trkpt lat="45.86982697248459" lon="8.732404941692948">
        <ele>936.16</ele>
        <time>2024-05-28T12:49:31.420Z</time>
      </trkpt>
      <trkpt lat="45.86982998996973" lon="8.732369989156723">
        <ele>935.65</ele>
        <time>2024-05-28T12:49:34.566Z</time>
      </trkpt>
      <trkpt lat="45.86983292363584" lon="8.732334952801466">
        <ele>935.14</ele>
        <time>2024-05-28T12:49:37.713Z</time>
      </trkpt>
      <trkpt lat="45.869839964434505" lon="8.732296982780099">
        <ele>934.63</ele>
        <time>2024-05-28T12:49:40.861Z</time>
      </trkpt>
      <trkpt lat="45.869839964434505" lon="8.732256917282939">
        <ele>934.1</ele>
        <time>2024-05-28T12:49:44.009Z</time>
      </trkpt>
      <trkpt lat="45.86983292363584" lon="8.732219953089952">
        <ele>933.56</ele>
        <time>2024-05-28T12:49:47.158Z</time>
      </trkpt>
      <trkpt lat="45.86983292363584" lon="8.732179971411824">
        <ele>933.03</ele>
        <time>2024-05-28T12:49:50.308Z</time>
      </trkpt>
      <trkpt lat="45.86983292363584" lon="8.732144935056567">
        <ele>932.5</ele>
        <time>2024-05-28T12:49:53.459Z</time>
      </trkpt>
      <trkpt lat="45.86983292363584" lon="8.732109982520342">
        <ele>931.97</ele>
        <time>2024-05-28T12:49:56.611Z</time>
      </trkpt>
      <trkpt lat="45.869839964434505" lon="8.732066983357072">
        <ele>931.44</ele>
        <time>2024-05-28T12:49:59.764Z</time>
      </trkpt>
      <trkpt lat="45.869841976091266" lon="8.732032952830195">
        <ele>930.91</ele>
        <time>2024-05-28T12:50:02.918Z</time>
      </trkpt>
      <trkpt lat="45.869839964434505" lon="8.732002945616841">
        <ele>930.38</ele>
        <time>2024-05-28T12:50:06.072Z</time>
      </trkpt>
      <trkpt lat="45.86984499357641" lon="8.731946954503655">
        <ele>929.84</ele>
        <time>2024-05-28T12:50:09.228Z</time>
      </trkpt>
      <trkpt lat="45.869841976091266" lon="8.731899932026863">
        <ele>929.3</ele>
        <time>2024-05-28T12:50:12.385Z</time>
      </trkpt>
      <trkpt lat="45.86984792724252" lon="8.731852993369102">
        <ele>928.78</ele>
        <time>2024-05-28T12:50:15.543Z</time>
      </trkpt>
      <trkpt lat="45.86985195055604" lon="8.731814939528704">
        <ele>928.26</ele>
        <time>2024-05-28T12:50:18.702Z</time>
      </trkpt>
      <trkpt lat="45.869861925020814" lon="8.731777975335717">
        <ele>927.76</ele>
        <time>2024-05-28T12:50:21.862Z</time>
      </trkpt>
      <trkpt lat="45.869861925020814" lon="8.731736987829208">
        <ele>927.24</ele>
        <time>2024-05-28T12:50:25.023Z</time>
      </trkpt>
      <trkpt lat="45.8698679599911" lon="8.731697928160429">
        <ele>926.75</ele>
        <time>2024-05-28T12:50:28.185Z</time>
      </trkpt>
      <trkpt lat="45.8698679599911" lon="8.731654928997159">
        <ele>926.26</ele>
        <time>2024-05-28T12:50:31.348Z</time>
      </trkpt>
      <trkpt lat="45.869861925020814" lon="8.731629950925708">
        <ele>925.78</ele>
        <time>2024-05-28T12:50:34.511Z</time>
      </trkpt>
      <trkpt lat="45.86985195055604" lon="8.731599943712354">
        <ele>925.3</ele>
        <time>2024-05-28T12:50:37.675Z</time>
      </trkpt>
      <trkpt lat="45.86984499357641" lon="8.731569936499">
        <ele>924.83</ele>
        <time>2024-05-28T12:50:40.840Z</time>
      </trkpt>
      <trkpt lat="45.86984792724252" lon="8.731541940942407">
        <ele>924.38</ele>
        <time>2024-05-28T12:50:44.005Z</time>
      </trkpt>
      <trkpt lat="45.86985798552632" lon="8.731516962870955">
        <ele>923.95</ele>
        <time>2024-05-28T12:50:47.171Z</time>
      </trkpt>
      <trkpt lat="45.869861925020814" lon="8.73148494400084">
        <ele>923.51</ele>
        <time>2024-05-28T12:50:50.338Z</time>
      </trkpt>
      <trkpt lat="45.869861925020814" lon="8.731457954272628">
        <ele>923.07</ele>
        <time>2024-05-28T12:50:53.506Z</time>
      </trkpt>
      <trkpt lat="45.8698679599911" lon="8.731431970372796">
        <ele>922.65</ele>
        <time>2024-05-28T12:50:56.674Z</time>
      </trkpt>
      <trkpt lat="45.86987994611263" lon="8.731401963159442">
        <ele>922.25</ele>
        <time>2024-05-28T12:50:59.843Z</time>
      </trkpt>
      <trkpt lat="45.86989997886121" lon="8.731384947896004">
        <ele>921.86</ele>
        <time>2024-05-28T12:51:03.013Z</time>
      </trkpt>
      <trkpt lat="45.86991297081113" lon="8.731367932632565">
        <ele>921.47</ele>
        <time>2024-05-28T12:51:06.183Z</time>
      </trkpt>
      <trkpt lat="45.869927974417806" lon="8.731352929025888">
        <ele>921.09</ele>
        <time>2024-05-28T12:51:09.354Z</time>
      </trkpt>
      <trkpt lat="45.869951946660876" lon="8.731341948732734">
        <ele>920.73</ele>
        <time>2024-05-28T12:51:12.526Z</time>
      </trkpt>
      <trkpt lat="45.869969967752695" lon="8.731326945126057">
        <ele>920.36</ele>
        <time>2024-05-28T12:51:15.698Z</time>
      </trkpt>
      <trkpt lat="45.87000198662281" lon="8.731326945126057">
        <ele>920.0</ele>
        <time>2024-05-28T12:51:18.872Z</time>
      </trkpt>
      <trkpt lat="45.87002797052264" lon="8.731306996196508">
        <ele>919.62</ele>
        <time>2024-05-28T12:51:22.047Z</time>
      </trkpt>
      <trkpt lat="45.870056971907616" lon="8.731286963447928">
        <ele>919.24</ele>
        <time>2024-05-28T12:51:25.223Z</time>
      </trkpt>
      <trkpt lat="45.87008496746421" lon="8.731266930699348">
        <ele>918.86</ele>
        <time>2024-05-28T12:51:28.400Z</time>
      </trkpt>
      <trkpt lat="45.87010491639376" lon="8.731252932921052">
        <ele>918.49</ele>
        <time>2024-05-28T12:51:31.577Z</time>
      </trkpt>
      <trkpt lat="45.870122937485576" lon="8.731239940971136">
        <ele>918.12</ele>
        <time>2024-05-28T12:51:34.755Z</time>
      </trkpt>
      <trkpt lat="45.87014992721379" lon="8.731232983991504">
        <ele>917.77</ele>
        <time>2024-05-28T12:51:37.934Z</time>
      </trkpt>
      <trkpt lat="45.87016794830561" lon="8.731232983991504">
        <ele>917.41</ele>
        <time>2024-05-28T12:51:41.114Z</time>
      </trkpt>
      <trkpt lat="45.87018798105419" lon="8.731212951242924">
        <ele>917.03</ele>
        <time>2024-05-28T12:51:44.294Z</time>
      </trkpt>
      <trkpt lat="45.870206924155354" lon="8.731174981221557">
        <ele>916.63</ele>
        <time>2024-05-28T12:51:47.475Z</time>
      </trkpt>
      <trkpt lat="45.8702199999243" lon="8.731152936816216">
        <ele>916.24</ele>
        <time>2024-05-28T12:51:50.657Z</time>
      </trkpt>
      <trkpt lat="45.87023693136871" lon="8.731134999543428">
        <ele>915.86</ele>
        <time>2024-05-28T12:51:53.840Z</time>
      </trkpt>
      <trkpt lat="45.87025495246053" lon="8.731114966794848">
        <ele>915.47</ele>
        <time>2024-05-28T12:51:57.024Z</time>
      </trkpt>
      <trkpt lat="45.870289988815784" lon="8.731099963188171">
        <ele>915.08</ele>
        <time>2024-05-28T12:52:00.209Z</time>
      </trkpt>
      <trkpt lat="45.87030993774533" lon="8.731094934046268">
        <ele>914.7</ele>
        <time>2024-05-28T12:52:03.394Z</time>
      </trkpt>
      <trkpt lat="45.87032795883715" lon="8.731082947924733">
        <ele>914.29</ele>
        <time>2024-05-28T12:52:06.580Z</time>
      </trkpt>
      <trkpt lat="45.87034799158573" lon="8.731072973459959">
        <ele>913.88</ele>
        <time>2024-05-28T12:52:09.767Z</time>
      </trkpt>
      <trkpt lat="45.8703669346869" lon="8.731067944318056">
        <ele>913.47</ele>
        <time>2024-05-28T12:52:12.955Z</time>
      </trkpt>
      <trkpt lat="45.87038696743548" lon="8.731067944318056">
        <ele>913.06</ele>
        <time>2024-05-28T12:52:16.143Z</time>
      </trkpt>
      <trkpt lat="45.870421919971704" lon="8.73107498511672">
        <ele>912.65</ele>
        <time>2024-05-28T12:52:19.332Z</time>
      </trkpt>
      <trkpt lat="45.87045293301344" lon="8.731067944318056">
        <ele>912.22</ele>
        <time>2024-05-28T12:52:22.522Z</time>
      </trkpt>
      <trkpt lat="45.870466930791736" lon="8.731042966246605">
        <ele>911.76</ele>
        <time>2024-05-28T12:52:25.713Z</time>
      </trkpt>
      <trkpt lat="45.87048193439841" lon="8.731027962639928">
        <ele>911.3</ele>
        <time>2024-05-28T12:52:28.905Z</time>
      </trkpt>
      <trkpt lat="45.87049492634833" lon="8.731002984568477">
        <ele>910.82</ele>
        <time>2024-05-28T12:52:32.097Z</time>
      </trkpt>
      <trkpt lat="45.870507918298244" lon="8.730982951819897">
        <ele>910.34</ele>
        <time>2024-05-28T12:52:35.290Z</time>
      </trkpt>
      <trkpt lat="45.87051998823881" lon="8.730956967920065">
        <ele>909.84</ele>
        <time>2024-05-28T12:52:38.484Z</time>
      </trkpt>
      <trkpt lat="45.87053993716836" lon="8.730922937393188">
        <ele>909.32</ele>
        <time>2024-05-28T12:52:41.679Z</time>
      </trkpt>
      <trkpt lat="45.870546977967024" lon="8.730896953493357">
        <ele>908.81</ele>
        <time>2024-05-28T12:52:44.875Z</time>
      </trkpt>
      <trkpt lat="45.87055795826018" lon="8.730869963765144">
        <ele>908.29</ele>
        <time>2024-05-28T12:52:48.071Z</time>
      </trkpt>
      <trkpt lat="45.87057799100876" lon="8.73085998930037">
        <ele>907.79</ele>
        <time>2024-05-28T12:52:51.268Z</time>
      </trkpt>
      <trkpt lat="45.87060296908021" lon="8.730851942673326">
        <ele>907.3</ele>
        <time>2024-05-28T12:52:54.466Z</time>
      </trkpt>
      <trkpt lat="45.87062694132328" lon="8.730849931016564">
        <ele>906.81</ele>
        <time>2024-05-28T12:52:57.665Z</time>
      </trkpt>
      <trkpt lat="45.87064194492996" lon="8.730826964601874">
        <ele>906.3</ele>
        <time>2024-05-28T12:53:00.864Z</time>
      </trkpt>
      <trkpt lat="45.87066197767854" lon="8.730794945731759">
        <ele>905.77</ele>
        <time>2024-05-28T12:53:04.064Z</time>
      </trkpt>
      <trkpt lat="45.87067496962845" lon="8.730771979317069">
        <ele>905.25</ele>
        <time>2024-05-28T12:53:07.265Z</time>
      </trkpt>
      <trkpt lat="45.87069299072027" lon="8.730751946568489">
        <ele>904.73</ele>
        <time>2024-05-28T12:53:10.467Z</time>
      </trkpt>
      <trkpt lat="45.87071696296334" lon="8.730741972103715">
        <ele>904.23</ele>
        <time>2024-05-28T12:53:13.670Z</time>
      </trkpt>
      <trkpt lat="45.87073791772127" lon="8.730724956840277">
        <ele>903.71</ele>
        <time>2024-05-28T12:53:16.873Z</time>
      </trkpt>
      <trkpt lat="45.87077295407653" lon="8.730706935748458">
        <ele>903.2</ele>
        <time>2024-05-28T12:53:20.078Z</time>
      </trkpt>
      <trkpt lat="45.87079994380474" lon="8.730706935748458">
        <ele>902.72</ele>
        <time>2024-05-28T12:53:23.284Z</time>
      </trkpt>
      <trkpt lat="45.87082492187619" lon="8.730692937970161">
        <ele>902.22</ele>
        <time>2024-05-28T12:53:26.490Z</time>
      </trkpt>
      <trkpt lat="45.870852917432785" lon="8.730672989040613">
        <ele>901.72</ele>
        <time>2024-05-28T12:53:29.698Z</time>
      </trkpt>
      <trkpt lat="45.87087999098003" lon="8.730664942413568">
        <ele>901.22</ele>
        <time>2024-05-28T12:53:32.906Z</time>
      </trkpt>
      <trkpt lat="45.870894994586706" lon="8.730652956292033">
        <ele>900.73</ele>
        <time>2024-05-28T12:53:36.115Z</time>
      </trkpt>
      <trkpt lat="45.87091997265816" lon="8.730632923543453">
        <ele>900.22</ele>
        <time>2024-05-28T12:53:39.325Z</time>
      </trkpt>
      <trkpt lat="45.870956936851144" lon="8.730636946856976">
        <ele>899.75</ele>
        <time>2024-05-28T12:53:42.536Z</time>
      </trkpt>
      <trkpt lat="45.87099792435765" lon="8.730626972392201">
        <ele>899.27</ele>
        <time>2024-05-28T12:53:45.749Z</time>
      </trkpt>
      <trkpt lat="45.871019968762994" lon="8.730619931593537">
        <ele>898.78</ele>
        <time>2024-05-28T12:53:48.962Z</time>
      </trkpt>
      <trkpt lat="45.87105492129922" lon="8.730599982663989">
        <ele>898.28</ele>
        <time>2024-05-28T12:53:52.177Z</time>
      </trkpt>
      <trkpt lat="45.8710749540478" lon="8.730591936036944">
        <ele>897.79</ele>
        <time>2024-05-28T12:53:55.392Z</time>
      </trkpt>
      <trkpt lat="45.87109297513962" lon="8.730586990714073">
        <ele>897.3</ele>
        <time>2024-05-28T12:53:58.608Z</time>
      </trkpt>
      <trkpt lat="45.871112924069166" lon="8.730591936036944">
        <ele>896.82</ele>
        <time>2024-05-28T12:54:01.825Z</time>
      </trkpt>
      <trkpt lat="45.871131950989366" lon="8.730586990714073">
        <ele>896.32</ele>
        <time>2024-05-28T12:54:05.042Z</time>
      </trkpt>
      <trkpt lat="45.8711629640311" lon="8.730576932430267">
        <ele>895.82</ele>
        <time>2024-05-28T12:54:08.260Z</time>
      </trkpt>
      <trkpt lat="45.87120193988085" lon="8.730577938258648">
        <ele>895.34</ele>
        <time>2024-05-28T12:54:11.480Z</time>
      </trkpt>
      <trkpt lat="45.87122792378068" lon="8.73058196157217">
        <ele>894.85</ele>
        <time>2024-05-28T12:54:14.700Z</time>
      </trkpt>
      <trkpt lat="45.87125692516565" lon="8.730586990714073">
        <ele>894.37</ele>
        <time>2024-05-28T12:54:17.921Z</time>
      </trkpt>
      <trkpt lat="45.87127695791423" lon="8.73058296740055">
        <ele>893.87</ele>
        <time>2024-05-28T12:54:21.143Z</time>
      </trkpt>
      <trkpt lat="45.87128793820739" lon="8.730542985722423">
        <ele>893.32</ele>
        <time>2024-05-28T12:54:24.366Z</time>
      </trkpt>
      <trkpt lat="45.87129497900605" lon="8.730501998215914">
        <ele>892.76</ele>
        <time>2024-05-28T12:54:27.590Z</time>
      </trkpt>
      <trkpt lat="45.87128793820739" lon="8.730477942153811">
        <ele>892.21</ele>
        <time>2024-05-28T12:54:30.815Z</time>
      </trkpt>
      <trkpt lat="45.87128793820739" lon="8.730446929112077">
        <ele>891.65</ele>
        <time>2024-05-28T12:54:34.040Z</time>
      </trkpt>
      <trkpt lat="45.871281987056136" lon="8.730394961312413">
        <ele>891.07</ele>
        <time>2024-05-28T12:54:37.267Z</time>
      </trkpt>
      <trkpt lat="45.87127695791423" lon="8.730369983240962">
        <ele>890.51</ele>
        <time>2024-05-28T12:54:40.494Z</time>
      </trkpt>
      <trkpt lat="45.87127293460071" lon="8.730327989906073">
        <ele>889.94</ele>
        <time>2024-05-28T12:54:43.722Z</time>
      </trkpt>
      <trkpt lat="45.87126296013594" lon="8.730287924408913">
        <ele>889.37</ele>
        <time>2024-05-28T12:54:46.951Z</time>
      </trkpt>
      <trkpt lat="45.871259942650795" lon="8.73025992885232">
        <ele>888.81</ele>
        <time>2024-05-28T12:54:50.181Z</time>
      </trkpt>
      <trkpt lat="45.87125298567116" lon="8.730211984366179">
        <ele>888.24</ele>
        <time>2024-05-28T12:54:53.412Z</time>
      </trkpt>
      <trkpt lat="45.87124996818602" lon="8.730177953839302">
        <ele>887.67</ele>
        <time>2024-05-28T12:54:56.644Z</time>
      </trkpt>
      <trkpt lat="45.87124996818602" lon="8.730124980211258">
        <ele>887.1</ele>
        <time>2024-05-28T12:54:59.877Z</time>
      </trkpt>
      <trkpt lat="45.87124996818602" lon="8.730091955512762">
        <ele>886.54</ele>
        <time>2024-05-28T12:55:03.111Z</time>
      </trkpt>
      <trkpt lat="45.87123999372125" lon="8.73006496578455">
        <ele>885.99</ele>
        <time>2024-05-28T12:55:06.346Z</time>
      </trkpt>
      <trkpt lat="45.871234964579344" lon="8.730017943307757">
        <ele>885.43</ele>
        <time>2024-05-28T12:55:09.582Z</time>
      </trkpt>
      <trkpt lat="45.8712319470942" lon="8.729971926659346">
        <ele>884.88</ele>
        <time>2024-05-28T12:55:12.819Z</time>
      </trkpt>
      <trkpt lat="45.87122792378068" lon="8.72993697412312">
        <ele>884.34</ele>
        <time>2024-05-28T12:55:16.057Z</time>
      </trkpt>
      <trkpt lat="45.871217949315906" lon="8.729907972738147">
        <ele>883.79</ele>
        <time>2024-05-28T12:55:19.295Z</time>
      </trkpt>
      <trkpt lat="45.871217949315906" lon="8.729877965524793">
        <ele>883.26</ele>
        <time>2024-05-28T12:55:22.534Z</time>
      </trkpt>
      <trkpt lat="45.87122197262943" lon="8.729819962754846">
        <ele>882.73</ele>
        <time>2024-05-28T12:55:25.774Z</time>
      </trkpt>
      <trkpt lat="45.871214931830764" lon="8.72978299856186">
        <ele>882.2</ele>
        <time>2024-05-28T12:55:29.015Z</time>
      </trkpt>
      <trkpt lat="45.87120193988085" lon="8.729759948328137">
        <ele>881.69</ele>
        <time>2024-05-28T12:55:32.257Z</time>
      </trkpt>
      <trkpt lat="45.87119699455798" lon="8.729729941114783">
        <ele>881.18</ele>
        <time>2024-05-28T12:55:35.500Z</time>
      </trkpt>
      <trkpt lat="45.87117997929454" lon="8.729681996628642">
        <ele>880.67</ele>
        <time>2024-05-28T12:55:38.744Z</time>
      </trkpt>
      <trkpt lat="45.87117997929454" lon="8.729654923081398">
        <ele>880.19</ele>
        <time>2024-05-28T12:55:41.989Z</time>
      </trkpt>
      <trkpt lat="45.87116992101073" lon="8.729617958888412">
        <ele>879.7</ele>
        <time>2024-05-28T12:55:45.234Z</time>
      </trkpt>
      <trkpt lat="45.87116992101073" lon="8.729577977210283">
        <ele>879.22</ele>
        <time>2024-05-28T12:55:48.480Z</time>
      </trkpt>
      <trkpt lat="45.8711579348892" lon="8.729542940855026">
        <ele>878.73</ele>
        <time>2024-05-28T12:55:51.727Z</time>
      </trkpt>
      <trkpt lat="45.87114494293928" lon="8.72950698249042">
        <ele>878.25</ele>
        <time>2024-05-28T12:55:54.975Z</time>
      </trkpt>
      <trkpt lat="45.87113798595965" lon="8.729482926428318">
        <ele>877.78</ele>
        <time>2024-05-28T12:55:58.224Z</time>
      </trkpt>
      <trkpt lat="45.871131950989366" lon="8.72944193892181">
        <ele>877.32</ele>
        <time>2024-05-28T12:56:01.474Z</time>
      </trkpt>
      <trkpt lat="45.87112792767584" lon="8.729409920051694">
        <ele>876.86</ele>
        <time>2024-05-28T12:56:04.725Z</time>
      </trkpt>
      <trkpt lat="45.871112924069166" lon="8.729379996657372">
        <ele>876.39</ele>
        <time>2024-05-28T12:56:07.976Z</time>
      </trkpt>
      <trkpt lat="45.871112924069166" lon="8.729336997494102">
        <ele>875.94</ele>
        <time>2024-05-28T12:56:11.228Z</time>
      </trkpt>
      <trkpt lat="45.871109990403056" lon="8.729304978623986">
        <ele>875.49</ele>
        <time>2024-05-28T12:56:14.481Z</time>
      </trkpt>
      <trkpt lat="45.87110294960439" lon="8.72927195392549">
        <ele>875.04</ele>
        <time>2024-05-28T12:56:17.735Z</time>
      </trkpt>
      <trkpt lat="45.87109297513962" lon="8.729242952540517">
        <ele>874.59</ele>
        <time>2024-05-28T12:56:20.990Z</time>
      </trkpt>
      <trkpt lat="45.871089957654476" lon="8.729216968640685">
        <ele>874.15</ele>
        <time>2024-05-28T12:56:24.245Z</time>
      </trkpt>
      <trkpt lat="45.87108291685581" lon="8.729179920628667">
        <ele>873.7</ele>
        <time>2024-05-28T12:56:27.501Z</time>
      </trkpt>
      <trkpt lat="45.87108291685581" lon="8.729139938950539">
        <ele>873.26</ele>
        <time>2024-05-28T12:56:30.758Z</time>
      </trkpt>
      <trkpt lat="45.8710749540478" lon="8.729111943393946">
        <ele>872.81</ele>
        <time>2024-05-28T12:56:34.016Z</time>
      </trkpt>
      <trkpt lat="45.87105793878436" lon="8.729077996686101">
        <ele>872.35</ele>
        <time>2024-05-28T12:56:37.275Z</time>
      </trkpt>
      <trkpt lat="45.871044946834445" lon="8.729047989472747">
        <ele>871.9</ele>
        <time>2024-05-28T12:56:40.535Z</time>
      </trkpt>
      <trkpt lat="45.87103698402643" lon="8.729019993916154">
        <ele>871.46</ele>
        <time>2024-05-28T12:56:43.795Z</time>
      </trkpt>
      <trkpt lat="45.87102994322777" lon="8.728984957560897">
        <ele>871.02</ele>
        <time>2024-05-28T12:56:47.056Z</time>
      </trkpt>
      <trkpt lat="45.871022986248136" lon="8.728954950347543">
        <ele>870.57</ele>
        <time>2024-05-28T12:56:50.318Z</time>
      </trkpt>
      <trkpt lat="45.871019968762994" lon="8.728922931477427">
        <ele>870.13</ele>
        <time>2024-05-28T12:56:53.581Z</time>
      </trkpt>
      <trkpt lat="45.871019968762994" lon="8.7288829497993">
        <ele>869.68</ele>
        <time>2024-05-28T12:56:56.845Z</time>
      </trkpt>
      <trkpt lat="45.87101292796433" lon="8.728854954242706">
        <ele>869.23</ele>
        <time>2024-05-28T12:57:00.109Z</time>
      </trkpt>
      <trkpt lat="45.871002953499556" lon="8.72881698422134">
        <ele>868.78</ele>
        <time>2024-05-28T12:57:03.374Z</time>
      </trkpt>
      <trkpt lat="45.8709919732064" lon="8.728786977007985">
        <ele>868.32</ele>
        <time>2024-05-28T12:57:06.640Z</time>
      </trkpt>
      <trkpt lat="45.87098199874163" lon="8.728761998936534">
        <ele>867.86</ele>
        <time>2024-05-28T12:57:09.907Z</time>
      </trkpt>
      <trkpt lat="45.87097495794296" lon="8.728724950924516">
        <ele>867.41</ele>
        <time>2024-05-28T12:57:13.175Z</time>
      </trkpt>
      <trkpt lat="45.87097194045782" lon="8.728694943711162">
        <ele>866.97</ele>
        <time>2024-05-28T12:57:16.443Z</time>
      </trkpt>
      <trkpt lat="45.87096498347819" lon="8.728664936497808">
        <ele>866.53</ele>
        <time>2024-05-28T12:57:19.712Z</time>
      </trkpt>
      <trkpt lat="45.870959954336286" lon="8.728631995618343">
        <ele>866.08</ele>
        <time>2024-05-28T12:57:22.982Z</time>
      </trkpt>
      <trkpt lat="45.87094696238637" lon="8.728597965091467">
        <ele>865.62</ele>
        <time>2024-05-28T12:57:26.253Z</time>
      </trkpt>
      <trkpt lat="45.87094293907285" lon="8.728566952049732">
        <ele>865.18</ele>
        <time>2024-05-28T12:57:29.525Z</time>
      </trkpt>
      <trkpt lat="45.87093296460807" lon="8.728532921522856">
        <ele>864.73</ele>
        <time>2024-05-28T12:57:32.797Z</time>
      </trkpt>
      <trkpt lat="45.87093296460807" lon="8.728499980643392">
        <ele>864.3</ele>
        <time>2024-05-28T12:57:36.070Z</time>
      </trkpt>
      <trkpt lat="45.87093296460807" lon="8.72847299091518">
        <ele>863.88</ele>
        <time>2024-05-28T12:57:39.344Z</time>
      </trkpt>
      <trkpt lat="45.87092994712293" lon="8.728442983701825">
        <ele>863.45</ele>
        <time>2024-05-28T12:57:42.618Z</time>
      </trkpt>
      <trkpt lat="45.8709229901433" lon="8.728412976488471">
        <ele>863.02</ele>
        <time>2024-05-28T12:57:45.893Z</time>
      </trkpt>
      <trkpt lat="45.870917961001396" lon="8.728374922648072">
        <ele>862.59</ele>
        <time>2024-05-28T12:57:49.169Z</time>
      </trkpt>
      <trkpt lat="45.87091192603111" lon="8.728342987596989">
        <ele>862.17</ele>
        <time>2024-05-28T12:57:52.446Z</time>
      </trkpt>
      <trkpt lat="45.87090496905148" lon="8.728314992040396">
        <ele>861.75</ele>
        <time>2024-05-28T12:57:55.724Z</time>
      </trkpt>
      <trkpt lat="45.870897928252816" lon="8.728274926543236">
        <ele>861.34</ele>
        <time>2024-05-28T12:57:59.003Z</time>
      </trkpt>
      <trkpt lat="45.870891977101564" lon="8.72823997400701">
        <ele>860.93</ele>
        <time>2024-05-28T12:58:02.282Z</time>
      </trkpt>
      <trkpt lat="45.8708849363029" lon="8.728202925994992">
        <ele>860.53</ele>
        <time>2024-05-28T12:58:05.562Z</time>
      </trkpt>
      <trkpt lat="45.87087999098003" lon="8.728172918781638">
        <ele>860.14</ele>
        <time>2024-05-28T12:58:08.843Z</time>
      </trkpt>
      <trkpt lat="45.87087999098003" lon="8.728139977902174">
        <ele>859.76</ele>
        <time>2024-05-28T12:58:12.125Z</time>
      </trkpt>
      <trkpt lat="45.870872950181365" lon="8.728104941546917">
        <ele>859.38</ele>
        <time>2024-05-28T12:58:15.408Z</time>
      </trkpt>
      <trkpt lat="45.87086297571659" lon="8.728071916848421">
        <ele>859.01</ele>
        <time>2024-05-28T12:58:18.691Z</time>
      </trkpt>
      <trkpt lat="45.87086297571659" lon="8.728039981797338">
        <ele>858.65</ele>
        <time>2024-05-28T12:58:21.975Z</time>
      </trkpt>
      <trkpt lat="45.87085995823145" lon="8.728006957098842">
        <ele>858.31</ele>
        <time>2024-05-28T12:58:25.260Z</time>
      </trkpt>
      <trkpt lat="45.87086297571659" lon="8.727957922965288">
        <ele>857.97</ele>
        <time>2024-05-28T12:58:28.546Z</time>
      </trkpt>
      <trkpt lat="45.87086297571659" lon="8.727931939065456">
        <ele>857.66</ele>
        <time>2024-05-28T12:58:31.833Z</time>
      </trkpt>
      <trkpt lat="45.87086297571659" lon="8.727896986529231">
        <ele>857.35</ele>
        <time>2024-05-28T12:58:35.121Z</time>
      </trkpt>
      <trkpt lat="45.87086699903011" lon="8.727866979315877">
        <ele>857.06</ele>
        <time>2024-05-28T12:58:38.409Z</time>
      </trkpt>
      <trkpt lat="45.87086699903011" lon="8.727837977930903">
        <ele>856.78</ele>
        <time>2024-05-28T12:58:41.698Z</time>
      </trkpt>
      <trkpt lat="45.87086699903011" lon="8.727791961282492">
        <ele>856.51</ele>
        <time>2024-05-28T12:58:44.988Z</time>
      </trkpt>
      <trkpt lat="45.87086297571659" lon="8.72774695046246">
        <ele>856.25</ele>
        <time>2024-05-28T12:58:48.279Z</time>
      </trkpt>
      <trkpt lat="45.870872950181365" lon="8.727706968784332">
        <ele>856.01</ele>
        <time>2024-05-28T12:58:51.571Z</time>
      </trkpt>
      <trkpt lat="45.87087697349489" lon="8.727649971842766">
        <ele>855.77</ele>
        <time>2024-05-28T12:58:54.864Z</time>
      </trkpt>
      <trkpt lat="45.87087999098003" lon="8.727602949365973">
        <ele>855.55</ele>
        <time>2024-05-28T12:58:58.158Z</time>
      </trkpt>
      <trkpt lat="45.87088191881776" lon="8.72757495380938">
        <ele>855.35</ele>
        <time>2024-05-28T12:59:01.453Z</time>
      </trkpt>
      <trkpt lat="45.87087999098003" lon="8.72754997573793">
        <ele>855.17</ele>
        <time>2024-05-28T12:59:04.749Z</time>
      </trkpt>
      <trkpt lat="45.870891977101564" lon="8.72752994298935">
        <ele>855.02</ele>
        <time>2024-05-28T12:59:08.045Z</time>
      </trkpt>
      <trkpt lat="45.87091192603111" lon="8.727477975189686">
        <ele>854.88</ele>
        <time>2024-05-28T12:59:11.343Z</time>
      </trkpt>
      <trkpt lat="45.87091997265816" lon="8.727442938834429">
        <ele>854.74</ele>
        <time>2024-05-28T12:59:14.642Z</time>
      </trkpt>
      <trkpt lat="45.87093296460807" lon="8.727411925792694">
        <ele>854.63</ele>
        <time>2024-05-28T12:59:17.941Z</time>
      </trkpt>
      <trkpt lat="45.870939921587706" lon="8.727361969649792">
        <ele>854.51</ele>
        <time>2024-05-28T12:59:21.242Z</time>
      </trkpt>
      <trkpt lat="45.870956936851144" lon="8.727309918031096">
        <ele>854.41</ele>
        <time>2024-05-28T12:59:24.544Z</time>
      </trkpt>
      <trkpt lat="45.87097194045782" lon="8.727279994636774">
        <ele>854.32</ele>
        <time>2024-05-28T12:59:27.847Z</time>
      </trkpt>
      <trkpt lat="45.870977975428104" lon="8.727254932746291">
        <ele>854.23</ele>
        <time>2024-05-28T12:59:31.150Z</time>
      </trkpt>
      <trkpt lat="45.8709919732064" lon="8.727231966331601">
        <ele>854.16</ele>
        <time>2024-05-28T12:59:34.454Z</time>
      </trkpt>
      <trkpt lat="45.871002953499556" lon="8.727204976603389">
        <ele>854.09</ele>
        <time>2024-05-28T12:59:37.759Z</time>
      </trkpt>
      <trkpt lat="45.871022986248136" lon="8.727192990481853">
        <ele>854.04</ele>
        <time>2024-05-28T12:59:41.065Z</time>
      </trkpt>
      <trkpt lat="45.8710419293493" lon="8.727156948298216">
        <ele>853.99</ele>
        <time>2024-05-28T12:59:44.372Z</time>
      </trkpt>
      <trkpt lat="45.87105198763311" lon="8.727131970226765">
        <ele>853.94</ele>
        <time>2024-05-28T12:59:47.679Z</time>
      </trkpt>
      <trkpt lat="45.871064979583025" lon="8.727112943306565">
        <ele>853.88</ele>
        <time>2024-05-28T12:59:50.987Z</time>
      </trkpt>
      <trkpt lat="45.87107797153294" lon="8.727087965235114">
        <ele>853.83</ele>
        <time>2024-05-28T12:59:54.296Z</time>
      </trkpt>
      <trkpt lat="45.871089957654476" lon="8.72705695219338">
        <ele>853.77</ele>
        <time>2024-05-28T12:59:57.605Z</time>
      </trkpt>
      <trkpt lat="45.87109993211925" lon="8.727027950808406">
        <ele>853.71</ele>
        <time>2024-05-28T13:00:00.915Z</time>
      </trkpt>
      <trkpt lat="45.87111694738269" lon="8.727006996050477">
        <ele>853.66</ele>
        <time>2024-05-28T13:00:04.226Z</time>
      </trkpt>
      <trkpt lat="45.871131950989366" lon="8.726981934159994">
        <ele>853.6</ele>
        <time>2024-05-28T13:00:07.538Z</time>
      </trkpt>
      <trkpt lat="45.87114192545414" lon="8.726957961916924">
        <ele>853.53</ele>
        <time>2024-05-28T13:00:10.850Z</time>
      </trkpt>
      <trkpt lat="45.871154917404056" lon="8.726926948875189">
        <ele>853.45</ele>
        <time>2024-05-28T13:00:14.163Z</time>
      </trkpt>
      <trkpt lat="45.871172938495874" lon="8.72686492279172">
        <ele>853.36</ele>
        <time>2024-05-28T13:00:17.478Z</time>
      </trkpt>
      <trkpt lat="45.871192971244454" lon="8.72681999579072">
        <ele>853.27</ele>
        <time>2024-05-28T13:00:20.794Z</time>
      </trkpt>
      <trkpt lat="45.871211998164654" lon="8.72677993029356">
        <ele>853.17</ele>
        <time>2024-05-28T13:00:24.111Z</time>
      </trkpt>
      <trkpt lat="45.8712319470942" lon="8.726749923080206">
        <ele>853.07</ele>
        <time>2024-05-28T13:00:27.429Z</time>
      </trkpt>
      <trkpt lat="45.87125692516565" lon="8.726724945008755">
        <ele>852.97</ele>
        <time>2024-05-28T13:00:30.748Z</time>
      </trkpt>
      <trkpt lat="45.871281987056136" lon="8.726696949452162">
        <ele>852.85</ele>
        <time>2024-05-28T13:00:34.068Z</time>
      </trkpt>
      <trkpt lat="45.871301935985684" lon="8.72666995972395">
        <ele>852.71</ele>
        <time>2024-05-28T13:00:37.389Z</time>
      </trkpt>
      <trkpt lat="45.87131794542074" lon="8.726639952510595">
        <ele>852.56</ele>
        <time>2024-05-28T13:00:40.711Z</time>
      </trkpt>
      <trkpt lat="45.87133294902742" lon="8.726609945297241">
        <ele>852.39</ele>
        <time>2024-05-28T13:00:44.034Z</time>
      </trkpt>
      <trkpt lat="45.87134996429086" lon="8.726571975275874">
        <ele>852.21</ele>
        <time>2024-05-28T13:00:47.358Z</time>
      </trkpt>
      <trkpt lat="45.871367985382676" lon="8.72652193531394">
        <ele>852.03</ele>
        <time>2024-05-28T13:00:50.683Z</time>
      </trkpt>
      <trkpt lat="45.87137795984745" lon="8.726492933928967">
        <ele>851.83</ele>
        <time>2024-05-28T13:00:54.009Z</time>
      </trkpt>
      <trkpt lat="45.87139799259603" lon="8.726467955857515">
        <ele>851.64</ele>
        <time>2024-05-28T13:00:57.336Z</time>
      </trkpt>
      <trkpt lat="45.8714169356972" lon="8.72643694281578">
        <ele>851.42</ele>
        <time>2024-05-28T13:01:00.664Z</time>
      </trkpt>
      <trkpt lat="45.871432945132256" lon="8.726399978622794">
        <ele>851.17</ele>
        <time>2024-05-28T13:01:03.993Z</time>
      </trkpt>
      <trkpt lat="45.87144794873893" lon="8.726372988894582">
        <ele>850.93</ele>
        <time>2024-05-28T13:01:07.323Z</time>
      </trkpt>
      <trkpt lat="45.87146194651723" lon="8.726347927004099">
        <ele>850.68</ele>
        <time>2024-05-28T13:01:10.653Z</time>
      </trkpt>
      <trkpt lat="45.871474938467145" lon="8.72632697224617">
        <ele>850.42</ele>
        <time>2024-05-28T13:01:13.984Z</time>
      </trkpt>
      <trkpt lat="45.87148994207382" lon="8.726299982517958">
        <ele>850.14</ele>
        <time>2024-05-28T13:01:17.316Z</time>
      </trkpt>
      <trkpt lat="45.871496982872486" lon="8.726272992789745">
        <ele>849.84</ele>
        <time>2024-05-28T13:01:20.649Z</time>
      </trkpt>
      <trkpt lat="45.871499916538596" lon="8.72623996809125">
        <ele>849.51</ele>
        <time>2024-05-28T13:01:23.982Z</time>
      </trkpt>
      <trkpt lat="45.8715099748224" lon="8.726204931735992">
        <ele>849.18</ele>
        <time>2024-05-28T13:01:27.316Z</time>
      </trkpt>
      <trkpt lat="45.871512992307544" lon="8.726167967543006">
        <ele>848.83</ele>
        <time>2024-05-28T13:01:30.651Z</time>
      </trkpt>
      <trkpt lat="45.871516931802034" lon="8.726139971986413">
        <ele>848.48</ele>
        <time>2024-05-28T13:01:33.987Z</time>
      </trkpt>
      <trkpt lat="45.87152497842908" lon="8.726114993914962">
        <ele>848.12</ele>
        <time>2024-05-28T13:01:37.323Z</time>
      </trkpt>
      <trkpt lat="45.871537970378995" lon="8.726074928417802">
        <ele>847.74</ele>
        <time>2024-05-28T13:01:40.660Z</time>
      </trkpt>
      <trkpt lat="45.87155196815729" lon="8.726019943132997">
        <ele>847.34</ele>
        <time>2024-05-28T13:01:43.999Z</time>
      </trkpt>
      <trkpt lat="45.871559930965304" lon="8.725991947576404">
        <ele>846.95</ele>
        <time>2024-05-28T13:01:47.338Z</time>
      </trkpt>
      <trkpt lat="45.87156697176397" lon="8.72596194036305">
        <ele>846.55</ele>
        <time>2024-05-28T13:01:50.678Z</time>
      </trkpt>
      <trkpt lat="45.871559930965304" lon="8.725924976170063">
        <ele>846.12</ele>
        <time>2024-05-28T13:01:54.019Z</time>
      </trkpt>
      <trkpt lat="45.871559930965304" lon="8.725886922329664">
        <ele>845.7</ele>
        <time>2024-05-28T13:01:57.361Z</time>
      </trkpt>
      <trkpt lat="45.87156697176397" lon="8.725851969793439">
        <ele>845.28</ele>
        <time>2024-05-28T13:02:00.704Z</time>
      </trkpt>
      <trkpt lat="45.87157694622874" lon="8.725826991721988">
        <ele>844.87</ele>
        <time>2024-05-28T13:02:04.047Z</time>
      </trkpt>
      <trkpt lat="45.871579963713884" lon="8.725796984508634">
        <ele>844.44</ele>
        <time>2024-05-28T13:02:07.391Z</time>
      </trkpt>
      <trkpt lat="45.87158692069352" lon="8.725757924839854">
        <ele>844.0</ele>
        <time>2024-05-28T13:02:10.736Z</time>
      </trkpt>
      <trkpt lat="45.8715929556638" lon="8.725726995617151">
        <ele>843.55</ele>
        <time>2024-05-28T13:02:14.082Z</time>
      </trkpt>
      <trkpt lat="45.871599996462464" lon="8.725686930119991">
        <ele>843.1</ele>
        <time>2024-05-28T13:02:17.429Z</time>
      </trkpt>
      <trkpt lat="45.871611982584" lon="8.725656922906637">
        <ele>842.64</ele>
        <time>2024-05-28T13:02:20.777Z</time>
      </trkpt>
      <trkpt lat="45.871621957048774" lon="8.72561995871365">
        <ele>842.18</ele>
        <time>2024-05-28T13:02:24.126Z</time>
      </trkpt>
      <trkpt lat="45.87163193151355" lon="8.725582994520664">
        <ele>841.71</ele>
        <time>2024-05-28T13:02:27.475Z</time>
      </trkpt>
      <trkpt lat="45.87163796648383" lon="8.725559944286942">
        <ele>841.24</ele>
        <time>2024-05-28T13:02:30.825Z</time>
      </trkpt>
      <trkpt lat="45.871646935120225" lon="8.725527925416827">
        <ele>840.76</ele>
        <time>2024-05-28T13:02:34.176Z</time>
      </trkpt>
      <trkpt lat="45.87165992707014" lon="8.725501941516995">
        <ele>840.29</ele>
        <time>2024-05-28T13:02:37.528Z</time>
      </trkpt>
      <trkpt lat="45.871684988960624" lon="8.725462965667248">
        <ele>839.8</ele>
        <time>2024-05-28T13:02:40.881Z</time>
      </trkpt>
      <trkpt lat="45.8716949634254" lon="8.725434970110655">
        <ele>839.29</ele>
        <time>2024-05-28T13:02:44.235Z</time>
      </trkpt>
      <trkpt lat="45.871707955375314" lon="8.7254049628973">
        <ele>838.78</ele>
        <time>2024-05-28T13:02:47.589Z</time>
      </trkpt>
      <trkpt lat="45.871711978688836" lon="8.725376967340708">
        <ele>838.25</ele>
        <time>2024-05-28T13:02:50.944Z</time>
      </trkpt>
      <trkpt lat="45.871711978688836" lon="8.725344948470592">
        <ele>837.7</ele>
        <time>2024-05-28T13:02:54.300Z</time>
      </trkpt>
      <trkpt lat="45.871711978688836" lon="8.725309995934367">
        <ele>837.16</ele>
        <time>2024-05-28T13:02:57.657Z</time>
      </trkpt>
      <trkpt lat="45.871711978688836" lon="8.725279988721013">
        <ele>836.61</ele>
        <time>2024-05-28T13:03:01.014Z</time>
      </trkpt>
      <trkpt lat="45.87171792984009" lon="8.72525199316442">
        <ele>836.06</ele>
        <time>2024-05-28T13:03:04.372Z</time>
      </trkpt>
      <trkpt lat="45.87173695676029" lon="8.72520999982953">
        <ele>835.52</ele>
        <time>2024-05-28T13:03:07.731Z</time>
      </trkpt>
      <trkpt lat="45.8717499487102" lon="8.725184937939048">
        <ele>834.97</ele>
        <time>2024-05-28T13:03:11.091Z</time>
      </trkpt>
      <trkpt lat="45.87175698950887" lon="8.725157948210835">
        <ele>834.41</ele>
        <time>2024-05-28T13:03:14.452Z</time>
      </trkpt>
      <trkpt lat="45.87175992317498" lon="8.72512492351234">
        <ele>833.84</ele>
        <time>2024-05-28T13:03:17.813Z</time>
      </trkpt>
      <trkpt lat="45.87176796980202" lon="8.725096927955747">
        <ele>833.27</ele>
        <time>2024-05-28T13:03:21.175Z</time>
      </trkpt>
      <trkpt lat="45.871777944266796" lon="8.725066920742393">
        <ele>832.71</ele>
        <time>2024-05-28T13:03:24.538Z</time>
      </trkpt>
      <trkpt lat="45.87178791873157" lon="8.72501797042787">
        <ele>832.12</ele>
        <time>2024-05-28T13:03:27.902Z</time>
      </trkpt>
      <trkpt lat="45.87179194204509" lon="8.724986957386136">
        <ele>831.54</ele>
        <time>2024-05-28T13:03:31.267Z</time>
      </trkpt>
      <trkpt lat="45.871794959530234" lon="8.724957956001163">
        <ele>830.96</ele>
        <time>2024-05-28T13:03:34.632Z</time>
      </trkpt>
      <trkpt lat="45.87179194204509" lon="8.724927948787808">
        <ele>830.37</ele>
        <time>2024-05-28T13:03:37.998Z</time>
      </trkpt>
      <trkpt lat="45.871777944266796" lon="8.724877992644906">
        <ele>829.76</ele>
        <time>2024-05-28T13:03:41.365Z</time>
      </trkpt>
      <trkpt lat="45.87176796980202" lon="8.724837927147746">
        <ele>829.16</ele>
        <time>2024-05-28T13:03:44.733Z</time>
      </trkpt>
      <trkpt lat="45.87176796980202" lon="8.724789982661605">
        <ele>828.56</ele>
        <time>2024-05-28T13:03:48.102Z</time>
      </trkpt>
      <trkpt lat="45.8717499487102" lon="8.724736925214529">
        <ele>827.97</ele>
        <time>2024-05-28T13:03:51.473Z</time>
      </trkpt>
      <trkpt lat="45.8717499487102" lon="8.724704990163445">
        <ele>827.41</ele>
        <time>2024-05-28T13:03:54.845Z</time>
      </trkpt>
      <trkpt lat="45.8717499487102" lon="8.724669953808188">
        <ele>826.85</ele>
        <time>2024-05-28T13:03:58.217Z</time>
      </trkpt>
      <trkpt lat="45.8717499487102" lon="8.724632989615202">
        <ele>826.3</ele>
        <time>2024-05-28T13:04:01.590Z</time>
      </trkpt>
      <trkpt lat="45.87174693122506" lon="8.724596947431564">
        <ele>825.76</ele>
        <time>2024-05-28T13:04:04.964Z</time>
      </trkpt>
      <trkpt lat="45.87174693122506" lon="8.724539950489998">
        <ele>825.22</ele>
        <time>2024-05-28T13:04:08.339Z</time>
      </trkpt>
      <trkpt lat="45.8717499487102" lon="8.724504997953773">
        <ele>824.7</ele>
        <time>2024-05-28T13:04:11.715Z</time>
      </trkpt>
      <trkpt lat="45.8717499487102" lon="8.724471973255277">
        <ele>824.2</ele>
        <time>2024-05-28T13:04:15.092Z</time>
      </trkpt>
      <trkpt lat="45.871752966195345" lon="8.724409947171807">
        <ele>823.7</ele>
        <time>2024-05-28T13:04:18.471Z</time>
      </trkpt>
      <trkpt lat="45.8717499487102" lon="8.724361918866634">
        <ele>823.21</ele>
        <time>2024-05-28T13:04:21.851Z</time>
      </trkpt>
      <trkpt lat="45.87175698950887" lon="8.724326966330409">
        <ele>822.75</ele>
        <time>2024-05-28T13:04:25.231Z</time>
      </trkpt>
      <trkpt lat="45.87176495231688" lon="8.724292935803533">
        <ele>822.3</ele>
        <time>2024-05-28T13:04:28.612Z</time>
      </trkpt>
      <trkpt lat="45.87176796980202" lon="8.724252954125404">
        <ele>821.85</ele>
        <time>2024-05-28T13:04:31.994Z</time>
      </trkpt>
      <trkpt lat="45.871771993115544" lon="8.724207943305373">
        <ele>821.42</ele>
        <time>2024-05-28T13:04:35.377Z</time>
      </trkpt>
      <trkpt lat="45.871771993115544" lon="8.724176930263638">
        <ele>821.0</ele>
        <time>2024-05-28T13:04:38.761Z</time>
      </trkpt>
      <trkpt lat="45.87176796980202" lon="8.724142983555794">
        <ele>820.59</ele>
        <time>2024-05-28T13:04:42.146Z</time>
      </trkpt>
      <trkpt lat="45.871771993115544" lon="8.7241149879992">
        <ele>820.2</ele>
        <time>2024-05-28T13:04:45.531Z</time>
      </trkpt>
      <trkpt lat="45.871774926781654" lon="8.724089926108718">
        <ele>819.82</ele>
        <time>2024-05-28T13:04:48.917Z</time>
      </trkpt>
      <trkpt lat="45.871777944266796" lon="8.724064948037267">
        <ele>819.45</ele>
        <time>2024-05-28T13:04:52.304Z</time>
      </trkpt>
      <trkpt lat="45.87178498506546" lon="8.724029995501041">
        <ele>819.09</ele>
        <time>2024-05-28T13:04:55.692Z</time>
      </trkpt>
      <trkpt lat="45.87179194204509" lon="8.723997976630926">
        <ele>818.74</ele>
        <time>2024-05-28T13:04:59.080Z</time>
      </trkpt>
      <trkpt lat="45.87179194204509" lon="8.723952965810895">
        <ele>818.38</ele>
        <time>2024-05-28T13:05:02.469Z</time>
      </trkpt>
      <trkpt lat="45.87178498506546" lon="8.723904937505722">
        <ele>818.03</ele>
        <time>2024-05-28T13:05:05.859Z</time>
      </trkpt>
      <trkpt lat="45.871777944266796" lon="8.723871996626258">
        <ele>817.69</ele>
        <time>2024-05-28T13:05:09.250Z</time>
      </trkpt>
      <trkpt lat="45.87178498506546" lon="8.723824974149466">
        <ele>817.36</ele>
        <time>2024-05-28T13:05:12.642Z</time>
      </trkpt>
      <trkpt lat="45.871777944266796" lon="8.72379194945097">
        <ele>817.03</ele>
        <time>2024-05-28T13:05:16.035Z</time>
      </trkpt>
      <trkpt lat="45.87179194204509" lon="8.723761942237616">
        <ele>816.73</ele>
        <time>2024-05-28T13:05:19.429Z</time>
      </trkpt>
      <trkpt lat="45.871797977015376" lon="8.723721960559487">
        <ele>816.42</ele>
        <time>2024-05-28T13:05:22.824Z</time>
      </trkpt>
      <trkpt lat="45.87180694565177" lon="8.72368692420423">
        <ele>816.12</ele>
        <time>2024-05-28T13:05:26.220Z</time>
      </trkpt>
      <trkpt lat="45.87180694565177" lon="8.723646942526102">
        <ele>815.81</ele>
        <time>2024-05-28T13:05:29.617Z</time>
      </trkpt>
      <trkpt lat="45.87180292233825" lon="8.72361995279789">
        <ele>815.51</ele>
        <time>2024-05-28T13:05:33.014Z</time>
      </trkpt>
      <trkpt lat="45.87179194204509" lon="8.723591957241297">
        <ele>815.2</ele>
        <time>2024-05-28T13:05:36.412Z</time>
      </trkpt>
      <trkpt lat="45.87178498506546" lon="8.723562955856323">
        <ele>814.9</ele>
        <time>2024-05-28T13:05:39.811Z</time>
      </trkpt>
      <trkpt lat="45.871771993115544" lon="8.723541917279363">
        <ele>814.61</ele>
        <time>2024-05-28T13:05:43.211Z</time>
      </trkpt>
      <trkpt lat="45.87175992317498" lon="8.723507970571518">
        <ele>814.31</ele>
        <time>2024-05-28T13:05:46.611Z</time>
      </trkpt>
      <trkpt lat="45.87175698950887" lon="8.723481986671686">
        <ele>814.02</ele>
        <time>2024-05-28T13:05:50.012Z</time>
      </trkpt>
      <trkpt lat="45.8717499487102" lon="8.723439993336797">
        <ele>813.72</ele>
        <time>2024-05-28T13:05:53.414Z</time>
      </trkpt>
      <trkpt lat="45.87174693122506" lon="8.723401939496398">
        <ele>813.43</ele>
        <time>2024-05-28T13:05:56.817Z</time>
      </trkpt>
      <trkpt lat="45.871732933446765" lon="8.72336195781827">
        <ele>813.13</ele>
        <time>2024-05-28T13:06:00.221Z</time>
      </trkpt>
      <trkpt lat="45.87172698229551" lon="8.723322981968522">
        <ele>812.83</ele>
        <time>2024-05-28T13:06:03.626Z</time>
      </trkpt>
      <trkpt lat="45.87171994149685" lon="8.723289957270026">
        <ele>812.54</ele>
        <time>2024-05-28T13:06:07.032Z</time>
      </trkpt>
      <trkpt lat="45.871729999780655" lon="8.723257938399911">
        <ele>812.26</ele>
        <time>2024-05-28T13:06:10.439Z</time>
      </trkpt>
      <trkpt lat="45.87173695676029" lon="8.723227931186557">
        <ele>811.98</ele>
        <time>2024-05-28T13:06:13.846Z</time>
      </trkpt>
      <trkpt lat="45.8717499487102" lon="8.723191972821951">
        <ele>811.7</ele>
        <time>2024-05-28T13:06:17.254Z</time>
      </trkpt>
      <trkpt lat="45.871752966195345" lon="8.723164983093739">
        <ele>811.42</ele>
        <time>2024-05-28T13:06:20.663Z</time>
      </trkpt>
      <trkpt lat="45.87175992317498" lon="8.723131958395243">
        <ele>811.13</ele>
        <time>2024-05-28T13:06:24.073Z</time>
      </trkpt>
      <trkpt lat="45.871774926781654" lon="8.723106980323792">
        <ele>810.85</ele>
        <time>2024-05-28T13:06:27.483Z</time>
      </trkpt>
      <trkpt lat="45.87180292233825" lon="8.723089965060353">
        <ele>810.58</ele>
        <time>2024-05-28T13:06:30.894Z</time>
      </trkpt>
      <trkpt lat="45.87182697840035" lon="8.72307999059558">
        <ele>810.3</ele>
        <time>2024-05-28T13:06:34.306Z</time>
      </trkpt>
      <trkpt lat="45.87184499949217" lon="8.723051995038986">
        <ele>810.0</ele>
        <time>2024-05-28T13:06:37.719Z</time>
      </trkpt>
      <trkpt lat="45.871857991442084" lon="8.723006984218955">
        <ele>809.69</ele>
        <time>2024-05-28T13:06:41.133Z</time>
      </trkpt>
      <trkpt lat="45.871882969513535" lon="8.722956944257021">
        <ele>809.38</ele>
        <time>2024-05-28T13:06:44.549Z</time>
      </trkpt>
      <trkpt lat="45.87189294397831" lon="8.722927942872047">
        <ele>809.06</ele>
        <time>2024-05-28T13:06:47.966Z</time>
      </trkpt>
      <trkpt lat="45.87190995924175" lon="8.72291293926537">
        <ele>808.74</ele>
        <time>2024-05-28T13:06:51.383Z</time>
      </trkpt>
      <trkpt lat="45.87191993370652" lon="8.722871951758862">
        <ele>808.4</ele>
        <time>2024-05-28T13:06:54.801Z</time>
      </trkpt>
      <trkpt lat="45.871924962848425" lon="8.72284697368741">
        <ele>808.06</ele>
        <time>2024-05-28T13:06:58.220Z</time>
      </trkpt>
      <trkpt lat="45.8719349373132" lon="8.722817972302437">
        <ele>807.71</ele>
        <time>2024-05-28T13:07:01.640Z</time>
      </trkpt>
      <trkpt lat="45.8719349373132" lon="8.722776984795928">
        <ele>807.34</ele>
        <time>2024-05-28T13:07:05.060Z</time>
      </trkpt>
      <trkpt lat="45.87193795479834" lon="8.722729962319136">
        <ele>806.95</ele>
        <time>2024-05-28T13:07:08.482Z</time>
      </trkpt>
      <trkpt lat="45.87195195257664" lon="8.722701966762543">
        <ele>806.58</ele>
        <time>2024-05-28T13:07:11.904Z</time>
      </trkpt>
      <trkpt lat="45.87195798754692" lon="8.722669947892427">
        <ele>806.19</ele>
        <time>2024-05-28T13:07:15.327Z</time>
      </trkpt>
      <trkpt lat="45.871966956183314" lon="8.722639940679073">
        <ele>805.8</ele>
        <time>2024-05-28T13:07:18.751Z</time>
      </trkpt>
      <trkpt lat="45.8719729911536" lon="8.722612950950861">
        <ele>805.4</ele>
        <time>2024-05-28T13:07:22.176Z</time>
      </trkpt>
      <trkpt lat="45.8719729911536" lon="8.722579926252365">
        <ele>804.98</ele>
        <time>2024-05-28T13:07:25.601Z</time>
      </trkpt>
      <trkpt lat="45.87197693064809" lon="8.722552936524153">
        <ele>804.56</ele>
        <time>2024-05-28T13:07:29.027Z</time>
      </trkpt>
      <trkpt lat="45.8719729911536" lon="8.722516978159547">
        <ele>804.11</ele>
        <time>2024-05-28T13:07:32.454Z</time>
      </trkpt>
      <trkpt lat="45.8719729911536" lon="8.722487976774573">
        <ele>803.66</ele>
        <time>2024-05-28T13:07:35.882Z</time>
      </trkpt>
      <trkpt lat="45.8719729911536" lon="8.7224399484694">
        <ele>803.19</ele>
        <time>2024-05-28T13:07:39.311Z</time>
      </trkpt>
      <trkpt lat="45.871969973668456" lon="8.722406923770905">
        <ele>802.72</ele>
        <time>2024-05-28T13:07:42.740Z</time>
      </trkpt>
      <trkpt lat="45.871969973668456" lon="8.722379934042692">
        <ele>802.25</ele>
        <time>2024-05-28T13:07:46.170Z</time>
      </trkpt>
      <trkpt lat="45.871966956183314" lon="8.7223519384861">
        <ele>801.76</ele>
        <time>2024-05-28T13:07:49.601Z</time>
      </trkpt>
      <trkpt lat="45.87196293286979" lon="8.722319919615984">
        <ele>801.27</ele>
        <time>2024-05-28T13:07:53.032Z</time>
      </trkpt>
      <trkpt lat="45.87196293286979" lon="8.722294941544533">
        <ele>800.77</ele>
        <time>2024-05-28T13:07:56.464Z</time>
      </trkpt>
      <trkpt lat="45.87195497006178" lon="8.722271975129843">
        <ele>800.27</ele>
        <time>2024-05-28T13:07:59.897Z</time>
      </trkpt>
      <trkpt lat="45.87193795479834" lon="8.722251942381263">
        <ele>799.76</ele>
        <time>2024-05-28T13:08:03.330Z</time>
      </trkpt>
      <trkpt lat="45.87190995924175" lon="8.722231993451715">
        <ele>799.24</ele>
        <time>2024-05-28T13:08:06.764Z</time>
      </trkpt>
      <trkpt lat="45.87188992649317" lon="8.722217995673418">
        <ele>798.72</ele>
        <time>2024-05-28T13:08:10.199Z</time>
      </trkpt>
      <trkpt lat="45.87187198922038" lon="8.722226964309812">
        <ele>798.2</ele>
        <time>2024-05-28T13:08:13.635Z</time>
      </trkpt>
      <trkpt lat="45.87185497395694" lon="8.722212966531515">
        <ele>797.67</ele>
        <time>2024-05-28T13:08:17.071Z</time>
      </trkpt>
      <trkpt lat="45.871839970350266" lon="8.722177930176258">
        <ele>797.13</ele>
        <time>2024-05-28T13:08:20.508Z</time>
      </trkpt>
      <trkpt lat="45.87182999588549" lon="8.72215697541833">
        <ele>796.59</ele>
        <time>2024-05-28T13:08:23.946Z</time>
      </trkpt>
      <trkpt lat="45.871819937601686" lon="8.722131997346878">
        <ele>796.05</ele>
        <time>2024-05-28T13:08:27.385Z</time>
      </trkpt>
      <trkpt lat="45.87180996313691" lon="8.722107941284776">
        <ele>795.5</ele>
        <time>2024-05-28T13:08:30.824Z</time>
      </trkpt>
      <trkpt lat="45.871797977015376" lon="8.722067959606647">
        <ele>794.94</ele>
        <time>2024-05-28T13:08:34.264Z</time>
      </trkpt>
      <trkpt lat="45.871777944266796" lon="8.72205195017159">
        <ele>794.38</ele>
        <time>2024-05-28T13:08:37.705Z</time>
      </trkpt>
      <trkpt lat="45.871752966195345" lon="8.722022948786616">
        <ele>793.81</ele>
        <time>2024-05-28T13:08:41.147Z</time>
      </trkpt>
      <trkpt lat="45.871732933446765" lon="8.72200794517994">
        <ele>793.25</ele>
        <time>2024-05-28T13:08:44.590Z</time>
      </trkpt>
      <trkpt lat="45.871711978688836" lon="8.72196494601667">
        <ele>792.67</ele>
        <time>2024-05-28T13:08:48.034Z</time>
      </trkpt>
      <trkpt lat="45.871707955375314" lon="8.721927981823683">
        <ele>792.1</ele>
        <time>2024-05-28T13:08:51.479Z</time>
      </trkpt>
      <trkpt lat="45.871707955375314" lon="8.721882971003652">
        <ele>791.53</ele>
        <time>2024-05-28T13:08:54.925Z</time>
      </trkpt>
      <trkpt lat="45.871711978688836" lon="8.721839971840382">
        <ele>790.96</ele>
        <time>2024-05-28T13:08:58.372Z</time>
      </trkpt>
      <trkpt lat="45.87171499617398" lon="8.721799990162253">
        <ele>790.39</ele>
        <time>2024-05-28T13:09:01.820Z</time>
      </trkpt>
      <trkpt lat="45.87170493789017" lon="8.721762942150235">
        <ele>789.81</ele>
        <time>2024-05-28T13:09:05.269Z</time>
      </trkpt>
      <trkpt lat="45.8716949634254" lon="8.72172991745174">
        <ele>789.24</ele>
        <time>2024-05-28T13:09:08.719Z</time>
      </trkpt>
      <trkpt lat="45.871691945940256" lon="8.721689935773611">
        <ele>788.66</ele>
        <time>2024-05-28T13:09:12.170Z</time>
      </trkpt>
      <trkpt lat="45.871687922626734" lon="8.721656994894147">
        <ele>788.09</ele>
        <time>2024-05-28T13:09:15.622Z</time>
      </trkpt>
      <trkpt lat="45.871687922626734" lon="8.721629921346903">
        <ele>787.51</ele>
        <time>2024-05-28T13:09:19.074Z</time>
      </trkpt>
      <trkpt lat="45.871684988960624" lon="8.721604943275452">
        <ele>786.94</ele>
        <time>2024-05-28T13:09:22.527Z</time>
      </trkpt>
      <trkpt lat="45.87165699340403" lon="8.721596980467439">
        <ele>786.35</ele>
        <time>2024-05-28T13:09:25.981Z</time>
      </trkpt>
      <trkpt lat="45.87163193151355" lon="8.721606954932213">
        <ele>785.76</ele>
        <time>2024-05-28T13:09:29.436Z</time>
      </trkpt>
      <trkpt lat="45.871611982584" lon="8.721614917740226">
        <ele>785.18</ele>
        <time>2024-05-28T13:09:32.891Z</time>
      </trkpt>
      <trkpt lat="45.87160795927048" lon="8.721591951325536">
        <ele>784.59</ele>
        <time>2024-05-28T13:09:36.347Z</time>
      </trkpt>
      <trkpt lat="45.871604941785336" lon="8.72155699878931">
        <ele>784.0</ele>
        <time>2024-05-28T13:09:39.804Z</time>
      </trkpt>
      <trkpt lat="45.871599996462464" lon="8.721531936898828">
        <ele>783.4</ele>
        <time>2024-05-28T13:09:43.261Z</time>
      </trkpt>
      <trkpt lat="45.87158692069352" lon="8.72151299379766">
        <ele>782.79</ele>
        <time>2024-05-28T13:09:46.719Z</time>
      </trkpt>
      <trkpt lat="45.87156697176397" lon="8.721496984362602">
        <ele>782.18</ele>
        <time>2024-05-28T13:09:50.178Z</time>
      </trkpt>
      <trkpt lat="45.87155196815729" lon="8.721497990190983">
        <ele>781.57</ele>
        <time>2024-05-28T13:09:53.637Z</time>
      </trkpt>
      <trkpt lat="45.87152799591422" lon="8.721506958827376">
        <ele>780.95</ele>
        <time>2024-05-28T13:09:57.097Z</time>
      </trkpt>
      <trkpt lat="45.871512992307544" lon="8.721526991575956">
        <ele>780.33</ele>
        <time>2024-05-28T13:10:00.558Z</time>
      </trkpt>
      <trkpt lat="45.871499916538596" lon="8.72155792079866">
        <ele>779.72</ele>
        <time>2024-05-28T13:10:04.019Z</time>
      </trkpt>
      <trkpt lat="45.871492959558964" lon="8.72159798629582">
        <ele>779.1</ele>
        <time>2024-05-28T13:10:07.481Z</time>
      </trkpt>
      <trkpt lat="45.871474938467145" lon="8.721624976024032">
        <ele>778.46</ele>
        <time>2024-05-28T13:10:10.944Z</time>
      </trkpt>
      <trkpt lat="45.87144794873893" lon="8.72164199128747">
        <ele>777.8</ele>
        <time>2024-05-28T13:10:14.408Z</time>
      </trkpt>
      <trkpt lat="45.8714169356972" lon="8.721651965752244">
        <ele>777.12</ele>
        <time>2024-05-28T13:10:17.873Z</time>
      </trkpt>
      <trkpt lat="45.871387934312224" lon="8.721646936610341">
        <ele>776.44</ele>
        <time>2024-05-28T13:10:21.339Z</time>
      </trkpt>
      <trkpt lat="45.871367985382676" lon="8.721619946882129">
        <ele>775.74</ele>
        <time>2024-05-28T13:10:24.806Z</time>
      </trkpt>
      <trkpt lat="45.871352981776" lon="8.721609972417355">
        <ele>775.05</ele>
        <time>2024-05-28T13:10:28.274Z</time>
      </trkpt>
      <trkpt lat="45.87132699787617" lon="8.721609972417355">
        <ele>774.36</ele>
        <time>2024-05-28T13:10:31.743Z</time>
      </trkpt>
      <trkpt lat="45.871301935985684" lon="8.721604943275452">
        <ele>773.65</ele>
        <time>2024-05-28T13:10:35.212Z</time>
      </trkpt>
      <trkpt lat="45.87127695791423" lon="8.721591951325536">
        <ele>772.93</ele>
        <time>2024-05-28T13:10:38.682Z</time>
      </trkpt>
      <trkpt lat="45.87123999372125" lon="8.721579965204">
        <ele>772.19</ele>
        <time>2024-05-28T13:10:42.154Z</time>
      </trkpt>
      <trkpt lat="45.871214931830764" lon="8.721539983525872">
        <ele>771.44</ele>
        <time>2024-05-28T13:10:45.627Z</time>
      </trkpt>
      <trkpt lat="45.87120797485113" lon="8.72151693329215">
        <ele>770.71</ele>
        <time>2024-05-28T13:10:49.100Z</time>
      </trkpt>
      <trkpt lat="45.87119992822409" lon="8.721482986584306">
        <ele>769.96</ele>
        <time>2024-05-28T13:10:52.574Z</time>
      </trkpt>
      <trkpt lat="45.8711769618094" lon="8.721457924693823">
        <ele>769.2</ele>
        <time>2024-05-28T13:10:56.049Z</time>
      </trkpt>
      <trkpt lat="45.8711579348892" lon="8.721417943015695">
        <ele>768.43</ele>
        <time>2024-05-28T13:10:59.525Z</time>
      </trkpt>
      <trkpt lat="45.87114494293928" lon="8.721391959115863">
        <ele>767.67</ele>
        <time>2024-05-28T13:11:03.002Z</time>
      </trkpt>
      <trkpt lat="45.87112792767584" lon="8.721357928588986">
        <ele>766.9</ele>
        <time>2024-05-28T13:11:06.480Z</time>
      </trkpt>
      <trkpt lat="45.87111694738269" lon="8.721327921375632">
        <ele>766.13</ele>
        <time>2024-05-28T13:11:09.959Z</time>
      </trkpt>
      <trkpt lat="45.87110294960439" lon="8.721307972446084">
        <ele>765.36</ele>
        <time>2024-05-28T13:11:13.439Z</time>
      </trkpt>
      <trkpt lat="45.871089957654476" lon="8.721284922212362">
        <ele>764.59</ele>
        <time>2024-05-28T13:11:16.919Z</time>
      </trkpt>
      <trkpt lat="45.871089957654476" lon="8.72125499881804">
        <ele>763.84</ele>
        <time>2024-05-28T13:11:20.400Z</time>
      </trkpt>
      <trkpt lat="45.871089957654476" lon="8.72121493332088">
        <ele>763.07</ele>
        <time>2024-05-28T13:11:23.882Z</time>
      </trkpt>
      <trkpt lat="45.87109699845314" lon="8.721182998269796">
        <ele>762.32</ele>
        <time>2024-05-28T13:11:27.365Z</time>
      </trkpt>
      <trkpt lat="45.87109993211925" lon="8.721152991056442">
        <ele>761.56</ele>
        <time>2024-05-28T13:11:30.848Z</time>
      </trkpt>
      <trkpt lat="45.87109993211925" lon="8.721099933609366">
        <ele>760.78</ele>
        <time>2024-05-28T13:11:34.333Z</time>
      </trkpt>
      <trkpt lat="45.87109297513962" lon="8.721051989123225">
        <ele>760.0</ele>
        <time>2024-05-28T13:11:37.819Z</time>
      </trkpt>
      <trkpt lat="45.871089957654476" lon="8.721024999395013">
        <ele>759.23</ele>
        <time>2024-05-28T13:11:41.305Z</time>
      </trkpt>
      <trkpt lat="45.87108291685581" lon="8.72099993750453">
        <ele>758.46</ele>
        <time>2024-05-28T13:11:44.792Z</time>
      </trkpt>
      <trkpt lat="45.871089957654476" lon="8.720971941947937">
        <ele>757.7</ele>
        <time>2024-05-28T13:11:48.280Z</time>
      </trkpt>
      <trkpt lat="45.87108291685581" lon="8.720944952219725">
        <ele>756.93</ele>
        <time>2024-05-28T13:11:51.768Z</time>
      </trkpt>
      <trkpt lat="45.87107193656266" lon="8.720911927521229">
        <ele>756.16</ele>
        <time>2024-05-28T13:11:55.257Z</time>
      </trkpt>
      <trkpt lat="45.87105492129922" lon="8.720894996076822">
        <ele>755.38</ele>
        <time>2024-05-28T13:11:58.747Z</time>
      </trkpt>
      <trkpt lat="45.87103991769254" lon="8.720877980813384">
        <ele>754.61</ele>
        <time>2024-05-28T13:12:02.238Z</time>
      </trkpt>
      <trkpt lat="45.871022986248136" lon="8.720857948064804">
        <ele>753.85</ele>
        <time>2024-05-28T13:12:05.729Z</time>
      </trkpt>
      <trkpt lat="45.870999936014414" lon="8.72084797360003">
        <ele>753.08</ele>
        <time>2024-05-28T13:12:09.221Z</time>
      </trkpt>
      <trkpt lat="45.8709919732064" lon="8.720821989700198">
        <ele>752.33</ele>
        <time>2024-05-28T13:12:12.714Z</time>
      </trkpt>
      <trkpt lat="45.87098199874163" lon="8.720796927809715">
        <ele>751.58</ele>
        <time>2024-05-28T13:12:16.207Z</time>
      </trkpt>
      <trkpt lat="45.87097194045782" lon="8.720766920596361">
        <ele>750.84</ele>
        <time>2024-05-28T13:12:19.701Z</time>
      </trkpt>
      <trkpt lat="45.870959954336286" lon="8.72074294835329">
        <ele>750.1</ele>
        <time>2024-05-28T13:12:23.196Z</time>
      </trkpt>
      <trkpt lat="45.87094696238637" lon="8.720726938918233">
        <ele>749.37</ele>
        <time>2024-05-28T13:12:26.691Z</time>
      </trkpt>
      <trkpt lat="45.870914943516254" lon="8.7207199819386">
        <ele>748.63</ele>
        <time>2024-05-28T13:12:30.188Z</time>
      </trkpt>
      <trkpt lat="45.87088191881776" lon="8.720707995817065">
        <ele>747.91</ele>
        <time>2024-05-28T13:12:33.686Z</time>
      </trkpt>
      <trkpt lat="45.87086699903011" lon="8.720696931704879">
        <ele>747.21</ele>
        <time>2024-05-28T13:12:37.184Z</time>
      </trkpt>
      <trkpt lat="45.87083799764514" lon="8.72067991644144">
        <ele>746.51</ele>
        <time>2024-05-28T13:12:40.683Z</time>
      </trkpt>
      <trkpt lat="45.87081796489656" lon="8.720672959461808">
        <ele>745.82</ele>
        <time>2024-05-28T13:12:44.183Z</time>
      </trkpt>
      <trkpt lat="45.87079994380474" lon="8.720667930319905">
        <ele>745.15</ele>
        <time>2024-05-28T13:12:47.684Z</time>
      </trkpt>
      <trkpt lat="45.87077697739005" lon="8.720666924491525">
        <ele>744.48</ele>
        <time>2024-05-28T13:12:51.185Z</time>
      </trkpt>
      <trkpt lat="45.87075795046985" lon="8.72065493836999">
        <ele>743.83</ele>
        <time>2024-05-28T13:12:54.687Z</time>
      </trkpt>
      <trkpt lat="45.87073791772127" lon="8.720637923106551">
        <ele>743.18</ele>
        <time>2024-05-28T13:12:58.190Z</time>
      </trkpt>
      <trkpt lat="45.87071696296334" lon="8.720614956691861">
        <ele>742.54</ele>
        <time>2024-05-28T13:13:01.694Z</time>
      </trkpt>
      <trkpt lat="45.87069693021476" lon="8.720606993883848">
        <ele>741.92</ele>
        <time>2024-05-28T13:13:05.198Z</time>
      </trkpt>
      <trkpt lat="45.87066197767854" lon="8.720599953085184">
        <ele>741.3</ele>
        <time>2024-05-28T13:13:08.704Z</time>
      </trkpt>
      <trkpt lat="45.870639933273196" lon="8.72058997862041">
        <ele>740.71</ele>
        <time>2024-05-28T13:13:12.210Z</time>
      </trkpt>
      <trkpt lat="45.87061998434365" lon="8.720582937821746">
        <ele>740.13</ele>
        <time>2024-05-28T13:13:15.717Z</time>
      </trkpt>
      <trkpt lat="45.87059995159507" lon="8.720577992498875">
        <ele>739.56</ele>
        <time>2024-05-28T13:13:19.225Z</time>
      </trkpt>
      <trkpt lat="45.8705619815737" lon="8.720581931993365">
        <ele>738.99</ele>
        <time>2024-05-28T13:13:22.734Z</time>
      </trkpt>
      <trkpt lat="45.87053993716836" lon="8.720594923943281">
        <ele>738.45</ele>
        <time>2024-05-28T13:13:26.244Z</time>
      </trkpt>
      <trkpt lat="45.87051998823881" lon="8.720606993883848">
        <ele>737.93</ele>
        <time>2024-05-28T13:13:29.754Z</time>
      </trkpt>
      <trkpt lat="45.87050196714699" lon="8.720619985833764">
        <ele>737.42</ele>
        <time>2024-05-28T13:13:33.265Z</time>
      </trkpt>
      <trkpt lat="45.87046994827688" lon="8.720622919499874">
        <ele>736.91</ele>
        <time>2024-05-28T13:13:36.777Z</time>
      </trkpt>
      <trkpt lat="45.870424937456846" lon="8.7206129450351">
        <ele>736.4</ele>
        <time>2024-05-28T13:13:40.291Z</time>
      </trkpt>
      <trkpt lat="45.8704049885273" lon="8.720607999712229">
        <ele>735.92</ele>
        <time>2024-05-28T13:13:43.805Z</time>
      </trkpt>
      <trkpt lat="45.87038294412196" lon="8.720614956691861">
        <ele>735.46</ele>
        <time>2024-05-28T13:13:47.320Z</time>
      </trkpt>
      <trkpt lat="45.870357966050506" lon="8.720621997490525">
        <ele>735.01</ele>
        <time>2024-05-28T13:13:50.836Z</time>
      </trkpt>
      <trkpt lat="45.87032795883715" lon="8.720627948641777">
        <ele>734.57</ele>
        <time>2024-05-28T13:13:54.353Z</time>
      </trkpt>
      <trkpt lat="45.8703029807657" lon="8.720621997490525">
        <ele>734.14</ele>
        <time>2024-05-28T13:13:57.871Z</time>
      </trkpt>
      <trkpt lat="45.87027791887522" lon="8.720627948641777">
        <ele>733.73</ele>
        <time>2024-05-28T13:14:01.390Z</time>
      </trkpt>
      <trkpt lat="45.87025495246053" lon="8.72063297778368">
        <ele>733.33</ele>
        <time>2024-05-28T13:14:04.909Z</time>
      </trkpt>
      <trkpt lat="45.870226956903934" lon="8.720642952248454">
        <ele>732.93</ele>
        <time>2024-05-28T13:14:08.429Z</time>
      </trkpt>
      <trkpt lat="45.870202984660864" lon="8.720652926713228">
        <ele>732.56</ele>
        <time>2024-05-28T13:14:11.950Z</time>
      </trkpt>
      <trkpt lat="45.87017792277038" lon="8.720681928098202">
        <ele>732.19</ele>
        <time>2024-05-28T13:14:15.472Z</time>
      </trkpt>
      <trkpt lat="45.870164930820465" lon="8.720701960846782">
        <ele>731.85</ele>
        <time>2024-05-28T13:14:18.995Z</time>
      </trkpt>
      <trkpt lat="45.870159985497594" lon="8.720726938918233">
        <ele>731.52</ele>
        <time>2024-05-28T13:14:22.519Z</time>
      </trkpt>
      <trkpt lat="45.87014992721379" lon="8.72076197527349">
        <ele>731.19</ele>
        <time>2024-05-28T13:14:26.043Z</time>
      </trkpt>
      <trkpt lat="45.87014992721379" lon="8.720787959173322">
        <ele>730.88</ele>
        <time>2024-05-28T13:14:29.568Z</time>
      </trkpt>
      <trkpt lat="45.87014992721379" lon="8.720816960558295">
        <ele>730.58</ele>
        <time>2024-05-28T13:14:33.094Z</time>
      </trkpt>
      <trkpt lat="45.87014992721379" lon="8.720851996913552">
        <ele>730.29</ele>
        <time>2024-05-28T13:14:36.621Z</time>
      </trkpt>
      <trkpt lat="45.870139952749014" lon="8.72089197859168">
        <ele>730.0</ele>
        <time>2024-05-28T13:14:40.149Z</time>
      </trkpt>
      <trkpt lat="45.870122937485576" lon="8.720916956663132">
        <ele>729.71</ele>
        <time>2024-05-28T13:14:43.677Z</time>
      </trkpt>
      <trkpt lat="45.87011195719242" lon="8.720937995240092">
        <ele>729.43</ele>
        <time>2024-05-28T13:14:47.206Z</time>
      </trkpt>
      <trkpt lat="45.870079938322306" lon="8.720959955826402">
        <ele>729.14</ele>
        <time>2024-05-28T13:14:50.736Z</time>
      </trkpt>
      <trkpt lat="45.87003995664418" lon="8.720984933897853">
        <ele>728.86</ele>
        <time>2024-05-28T13:14:54.268Z</time>
      </trkpt>
      <trkpt lat="45.870011961087584" lon="8.721006978303194">
        <ele>728.58</ele>
        <time>2024-05-28T13:14:57.801Z</time>
      </trkpt>
      <trkpt lat="45.869992934167385" lon="8.721039919182658">
        <ele>728.31</ele>
        <time>2024-05-28T13:15:01.335Z</time>
      </trkpt>
      <trkpt lat="45.869969967752695" lon="8.72106296941638">
        <ele>728.04</ele>
        <time>2024-05-28T13:15:04.870Z</time>
      </trkpt>
      <trkpt lat="45.86995999328792" lon="8.721099933609366">
        <ele>727.78</ele>
        <time>2024-05-28T13:15:08.406Z</time>
      </trkpt>
      <trkpt lat="45.86995798163116" lon="8.721152991056442">
        <ele>727.53</ele>
        <time>2024-05-28T13:15:11.943Z</time>
      </trkpt>
      <trkpt lat="45.869951946660876" lon="8.721199929714203">
        <ele>727.29</ele>
        <time>2024-05-28T13:15:15.481Z</time>
      </trkpt>
      <trkpt lat="45.869947923347354" lon="8.721224991604686">
        <ele>727.04</ele>
        <time>2024-05-28T13:15:19.019Z</time>
      </trkpt>
      <trkpt lat="45.869924956932664" lon="8.72125793248415">
        <ele>726.78</ele>
        <time>2024-05-28T13:15:22.559Z</time>
      </trkpt>
      <trkpt lat="45.86989293806255" lon="8.72129992581904">
        <ele>726.5</ele>
        <time>2024-05-28T13:15:26.100Z</time>
      </trkpt>
      <trkpt lat="45.869864942505956" lon="8.7213399913162">
        <ele>726.23</ele>
        <time>2024-05-28T13:15:29.642Z</time>
      </trkpt>
      <trkpt lat="45.869839964434505" lon="8.721346948295832">
        <ele>725.95</ele>
        <time>2024-05-28T13:15:33.185Z</time>
      </trkpt>
      <trkpt lat="45.86980693973601" lon="8.721351977437735">
        <ele>725.67</ele>
        <time>2024-05-28T13:15:36.729Z</time>
      </trkpt>
      <trkpt lat="45.86976796388626" lon="8.721354994922876">
        <ele>725.38</ele>
        <time>2024-05-28T13:15:40.275Z</time>
      </trkpt>
      <trkpt lat="45.8697469253093" lon="8.721332950517535">
        <ele>725.09</ele>
        <time>2024-05-28T13:15:43.821Z</time>
      </trkpt>
      <trkpt lat="45.86971499025822" lon="8.7213019374758">
        <ele>724.8</ele>
        <time>2024-05-28T13:15:47.369Z</time>
      </trkpt>
      <trkpt lat="45.86968498304486" lon="8.721289951354265">
        <ele>724.51</ele>
        <time>2024-05-28T13:15:50.918Z</time>
      </trkpt>
      <trkpt lat="45.869649946689606" lon="8.721287939697504">
        <ele>724.22</ele>
        <time>2024-05-28T13:15:54.468Z</time>
      </trkpt>
      <trkpt lat="45.869604935869575" lon="8.721282994374633">
        <ele>723.92</ele>
        <time>2024-05-28T13:15:58.019Z</time>
      </trkpt>
      <trkpt lat="45.86957995779812" lon="8.721289951354265">
        <ele>723.64</ele>
        <time>2024-05-28T13:16:01.571Z</time>
      </trkpt>
      <trkpt lat="45.869544921442866" lon="8.7213019374758">
        <ele>723.36</ele>
        <time>2024-05-28T13:16:05.125Z</time>
      </trkpt>
      <trkpt lat="45.86953192949295" lon="8.721281988546252">
        <ele>723.09</ele>
        <time>2024-05-28T13:16:08.679Z</time>
      </trkpt>
      <trkpt lat="45.8695069514215" lon="8.721289951354265">
        <ele>722.82</ele>
        <time>2024-05-28T13:16:12.234Z</time>
      </trkpt>
      <trkpt lat="45.86947996169329" lon="8.721307972446084">
        <ele>722.55</ele>
        <time>2024-05-28T13:16:15.790Z</time>
      </trkpt>
      <trkpt lat="45.86944794282317" lon="8.721329933032393">
        <ele>722.29</ele>
        <time>2024-05-28T13:16:19.347Z</time>
      </trkpt>
      <trkpt lat="45.86940695531666" lon="8.721347954124212">
        <ele>722.02</ele>
        <time>2024-05-28T13:16:22.906Z</time>
      </trkpt>
      <trkpt lat="45.869371918961406" lon="8.721372932195663">
        <ele>721.75</ele>
        <time>2024-05-28T13:16:26.466Z</time>
      </trkpt>
      <trkpt lat="45.869346940889955" lon="8.721379972994328">
        <ele>721.49</ele>
        <time>2024-05-28T13:16:30.027Z</time>
      </trkpt>
      <trkpt lat="45.869329925626516" lon="8.72134292498231">
        <ele>721.22</ele>
        <time>2024-05-28T13:16:33.589Z</time>
      </trkpt>
      <trkpt lat="45.86930796504021" lon="8.721302943304181">
        <ele>720.94</ele>
        <time>2024-05-28T13:16:37.152Z</time>
      </trkpt>
      <trkpt lat="45.86929195560515" lon="8.721284922212362">
        <ele>720.68</ele>
        <time>2024-05-28T13:16:40.716Z</time>
      </trkpt>
      <trkpt lat="45.869262954220176" lon="8.721306966617703">
        <ele>720.42</ele>
        <time>2024-05-28T13:16:44.281Z</time>
      </trkpt>
      <trkpt lat="45.869237976148725" lon="8.721282994374633">
        <ele>720.16</ele>
        <time>2024-05-28T13:16:47.847Z</time>
      </trkpt>
      <trkpt lat="45.869217943400145" lon="8.721281988546252">
        <ele>719.91</ele>
        <time>2024-05-28T13:16:51.413Z</time>
      </trkpt>
      <trkpt lat="45.86917293258011" lon="8.721287939697504">
        <ele>719.65</ele>
        <time>2024-05-28T13:16:54.981Z</time>
      </trkpt>
      <trkpt lat="45.869154995307326" lon="8.721306966617703">
        <ele>719.41</ele>
        <time>2024-05-28T13:16:58.550Z</time>
      </trkpt>
      <trkpt lat="45.869134962558746" lon="8.721317946910858">
        <ele>719.16</ele>
        <time>2024-05-28T13:17:02.119Z</time>
      </trkpt>
      <trkpt lat="45.869112918153405" lon="8.721337979659438">
        <ele>718.92</ele>
        <time>2024-05-28T13:17:05.689Z</time>
      </trkpt>
      <trkpt lat="45.869089951738715" lon="8.72136295773089">
        <ele>718.67</ele>
        <time>2024-05-28T13:17:09.260Z</time>
      </trkpt>
      <trkpt lat="45.869064973667264" lon="8.721371926367283">
        <ele>718.42</ele>
        <time>2024-05-28T13:17:12.832Z</time>
      </trkpt>
      <trkpt lat="45.86903798393905" lon="8.72138793580234">
        <ele>718.17</ele>
        <time>2024-05-28T13:17:16.405Z</time>
      </trkpt>
      <trkpt lat="45.86901694536209" lon="8.721419954672456">
        <ele>717.92</ele>
        <time>2024-05-28T13:17:19.979Z</time>
      </trkpt>
      <trkpt lat="45.86899791844189" lon="8.721436969935894">
        <ele>717.67</ele>
        <time>2024-05-28T13:17:23.554Z</time>
      </trkpt>
      <trkpt lat="45.86896497756243" lon="8.72147192247212">
        <ele>717.41</ele>
        <time>2024-05-28T13:17:27.130Z</time>
      </trkpt>
      <trkpt lat="45.868936982005835" lon="8.72149296104908">
        <ele>717.15</ele>
        <time>2024-05-28T13:17:30.707Z</time>
      </trkpt>
      <trkpt lat="45.86890496313572" lon="8.721527997404337">
        <ele>716.89</ele>
        <time>2024-05-28T13:17:34.286Z</time>
      </trkpt>
      <trkpt lat="45.868852995336056" lon="8.721579965204">
        <ele>716.63</ele>
        <time>2024-05-28T13:17:37.867Z</time>
      </trkpt>
      <trkpt lat="45.86882499977946" lon="8.721616929396987">
        <ele>716.34</ele>
        <time>2024-05-28T13:17:41.449Z</time>
      </trkpt>
      <trkpt lat="45.86879298090935" lon="8.72164492495358">
        <ele>716.04</ele>
        <time>2024-05-28T13:17:45.032Z</time>
      </trkpt>
      <trkpt lat="45.86875995621085" lon="8.721674932166934">
        <ele>715.74</ele>
        <time>2024-05-28T13:17:48.617Z</time>
      </trkpt>
      <trkpt lat="45.86873196065426" lon="8.721699994057417">
        <ele>715.43</ele>
        <time>2024-05-28T13:17:52.203Z</time>
      </trkpt>
      <trkpt lat="45.86870698258281" lon="8.721716925501823">
        <ele>715.12</ele>
        <time>2024-05-28T13:17:55.790Z</time>
      </trkpt>
      <trkpt lat="45.86867194622755" lon="8.72172991745174">
        <ele>714.8</ele>
        <time>2024-05-28T13:17:59.378Z</time>
      </trkpt>
      <trkpt lat="45.86864797398448" lon="8.721734946593642">
        <ele>714.48</ele>
        <time>2024-05-28T13:18:02.967Z</time>
      </trkpt>
      <trkpt lat="45.868616960942745" lon="8.721736958250403">
        <ele>714.16</ele>
        <time>2024-05-28T13:18:06.557Z</time>
      </trkpt>
      <trkpt lat="45.868591982871294" lon="8.721741987392306">
        <ele>713.83</ele>
        <time>2024-05-28T13:18:10.147Z</time>
      </trkpt>
      <trkpt lat="45.868571950122714" lon="8.72172698378563">
        <ele>713.49</ele>
        <time>2024-05-28T13:18:13.738Z</time>
      </trkpt>
      <trkpt lat="45.86855996400118" lon="8.721681972965598">
        <ele>713.15</ele>
        <time>2024-05-28T13:18:17.330Z</time>
      </trkpt>
      <trkpt lat="45.86854294873774" lon="8.721636962145567">
        <ele>712.81</ele>
        <time>2024-05-28T13:18:20.924Z</time>
      </trkpt>
      <trkpt lat="45.86852693930268" lon="8.721611984074116">
        <ele>712.46</ele>
        <time>2024-05-28T13:18:24.518Z</time>
      </trkpt>
      <trkpt lat="45.868507996201515" lon="8.721591951325536">
        <ele>712.1</ele>
        <time>2024-05-28T13:18:28.113Z</time>
      </trkpt>
      <trkpt lat="45.868469942361116" lon="8.721584994345903">
        <ele>711.74</ele>
        <time>2024-05-28T13:18:31.709Z</time>
      </trkpt>
      <trkpt lat="45.86843498982489" lon="8.72159798629582">
        <ele>711.37</ele>
        <time>2024-05-28T13:18:35.307Z</time>
      </trkpt>
      <trkpt lat="45.86840791627765" lon="8.721604943275452">
        <ele>711.0</ele>
        <time>2024-05-28T13:18:38.906Z</time>
      </trkpt>
      <trkpt lat="45.86838997900486" lon="8.721611984074116">
        <ele>710.64</ele>
        <time>2024-05-28T13:18:42.505Z</time>
      </trkpt>
      <trkpt lat="45.868357960134745" lon="8.721624976024032">
        <ele>710.26</ele>
        <time>2024-05-28T13:18:46.105Z</time>
      </trkpt>
      <trkpt lat="45.868334993720055" lon="8.721629921346903">
        <ele>709.89</ele>
        <time>2024-05-28T13:18:49.706Z</time>
      </trkpt>
      <trkpt lat="45.868316972628236" lon="8.721631933003664">
        <ele>709.51</ele>
        <time>2024-05-28T13:18:53.308Z</time>
      </trkpt>
      <trkpt lat="45.86827992461622" lon="8.721619946882129">
        <ele>709.13</ele>
        <time>2024-05-28T13:18:56.911Z</time>
      </trkpt>
      <trkpt lat="45.86825796402991" lon="8.721606954932213">
        <ele>708.74</ele>
        <time>2024-05-28T13:19:00.515Z</time>
      </trkpt>
      <trkpt lat="45.86823298595846" lon="8.72159798629582">
        <ele>708.36</ele>
        <time>2024-05-28T13:19:04.120Z</time>
      </trkpt>
      <trkpt lat="45.868209935724735" lon="8.72159798629582">
        <ele>707.97</ele>
        <time>2024-05-28T13:19:07.725Z</time>
      </trkpt>
      <trkpt lat="45.868161991238594" lon="8.721571918576956">
        <ele>707.57</ele>
        <time>2024-05-28T13:19:11.332Z</time>
      </trkpt>
      <trkpt lat="45.868142964318395" lon="8.721571918576956">
        <ele>707.18</ele>
        <time>2024-05-28T13:19:14.940Z</time>
      </trkpt>
      <trkpt lat="45.868122931569815" lon="8.721571918576956">
        <ele>706.79</ele>
        <time>2024-05-28T13:19:18.548Z</time>
      </trkpt>
      <trkpt lat="45.86810499429703" lon="8.721566973254085">
        <ele>706.4</ele>
        <time>2024-05-28T13:19:22.157Z</time>
      </trkpt>
      <trkpt lat="45.868081944063306" lon="8.72155792079866">
        <ele>706.0</ele>
        <time>2024-05-28T13:19:25.767Z</time>
      </trkpt>
      <trkpt lat="45.86806291714311" lon="8.721546940505505">
        <ele>705.61</ele>
        <time>2024-05-28T13:19:29.377Z</time>
      </trkpt>
      <trkpt lat="45.868037939071655" lon="8.721527997404337">
        <ele>705.22</ele>
        <time>2024-05-28T13:19:32.988Z</time>
      </trkpt>
      <trkpt lat="45.868014972656965" lon="8.721517939120531">
        <ele>704.83</ele>
        <time>2024-05-28T13:19:36.600Z</time>
      </trkpt>
      <trkpt lat="45.867996951565146" lon="8.721501929685473">
        <ele>704.45</ele>
        <time>2024-05-28T13:19:40.213Z</time>
      </trkpt>
      <trkpt lat="45.867972979322076" lon="8.72149296104908">
        <ele>704.07</ele>
        <time>2024-05-28T13:19:43.827Z</time>
      </trkpt>
      <trkpt lat="45.86795495823026" lon="8.721481980755925">
        <ele>703.7</ele>
        <time>2024-05-28T13:19:47.441Z</time>
      </trkpt>
      <trkpt lat="45.86793794296682" lon="8.721466977149248">
        <ele>703.33</ele>
        <time>2024-05-28T13:19:51.056Z</time>
      </trkpt>
      <trkpt lat="45.8679249510169" lon="8.721439987421036">
        <ele>702.97</ele>
        <time>2024-05-28T13:19:54.672Z</time>
      </trkpt>
      <trkpt lat="45.867906929925084" lon="8.721419954672456">
        <ele>702.62</ele>
        <time>2024-05-28T13:19:58.289Z</time>
      </trkpt>
      <trkpt lat="45.86788295768201" lon="8.72140696272254">
        <ele>702.27</ele>
        <time>2024-05-28T13:20:01.906Z</time>
      </trkpt>
      <trkpt lat="45.86786191910505" lon="8.72138793580234">
        <ele>701.93</ele>
        <time>2024-05-28T13:20:05.524Z</time>
      </trkpt>
      <trkpt lat="45.86783995851874" lon="8.721359940245748">
        <ele>701.59</ele>
        <time>2024-05-28T13:20:09.143Z</time>
      </trkpt>
      <trkpt lat="45.867822943255305" lon="8.721327921375632">
        <ele>701.27</ele>
        <time>2024-05-28T13:20:12.763Z</time>
      </trkpt>
      <trkpt lat="45.86781296879053" lon="8.721289951354265">
        <ele>700.96</ele>
        <time>2024-05-28T13:20:16.384Z</time>
      </trkpt>
      <trkpt lat="45.867799976840615" lon="8.721252987161279">
        <ele>700.65</ele>
        <time>2024-05-28T13:20:20.006Z</time>
      </trkpt>
      <trkpt lat="45.86778799071908" lon="8.721217950806022">
        <ele>700.35</ele>
        <time>2024-05-28T13:20:23.629Z</time>
      </trkpt>
      <trkpt lat="45.8677679579705" lon="8.72117293998599">
        <ele>700.06</ele>
        <time>2024-05-28T13:20:27.253Z</time>
      </trkpt>
      <trkpt lat="45.86775295436382" lon="8.72112994082272">
        <ele>699.8</ele>
        <time>2024-05-28T13:20:30.878Z</time>
      </trkpt>
      <trkpt lat="45.867736944928765" lon="8.721091970801353">
        <ele>699.54</ele>
        <time>2024-05-28T13:20:34.504Z</time>
      </trkpt>
      <trkpt lat="45.86771992966533" lon="8.721059951931238">
        <ele>699.28</ele>
        <time>2024-05-28T13:20:38.131Z</time>
      </trkpt>
      <trkpt lat="45.86770492605865" lon="8.721024999395013">
        <ele>699.04</ele>
        <time>2024-05-28T13:20:41.759Z</time>
      </trkpt>
      <trkpt lat="45.86768799461424" lon="8.720994992181659">
        <ele>698.81</ele>
        <time>2024-05-28T13:20:45.388Z</time>
      </trkpt>
      <trkpt lat="45.86766695603728" lon="8.720971941947937">
        <ele>698.58</ele>
        <time>2024-05-28T13:20:49.018Z</time>
      </trkpt>
      <trkpt lat="45.86764298379421" lon="8.720954926684499">
        <ele>698.36</ele>
        <time>2024-05-28T13:20:52.649Z</time>
      </trkpt>
      <trkpt lat="45.86761792190373" lon="8.720939923077822">
        <ele>698.14</ele>
        <time>2024-05-28T13:20:56.281Z</time>
      </trkpt>
      <trkpt lat="45.86758992634714" lon="8.720939923077822">
        <ele>697.93</ele>
        <time>2024-05-28T13:20:59.914Z</time>
      </trkpt>
      <trkpt lat="45.867562936618924" lon="8.720926931127906">
        <ele>697.74</ele>
        <time>2024-05-28T13:21:03.548Z</time>
      </trkpt>
      <trkpt lat="45.86754793301225" lon="8.720904970541596">
        <ele>697.55</ele>
        <time>2024-05-28T13:21:07.182Z</time>
      </trkpt>
      <trkpt lat="45.8675279840827" lon="8.720884937793016">
        <ele>697.38</ele>
        <time>2024-05-28T13:21:10.817Z</time>
      </trkpt>
      <trkpt lat="45.867502922192216" lon="8.7208719458431">
        <ele>697.21</ele>
        <time>2024-05-28T13:21:14.453Z</time>
      </trkpt>
      <trkpt lat="45.86746796965599" lon="8.720866916701198">
        <ele>697.04</ele>
        <time>2024-05-28T13:21:18.090Z</time>
      </trkpt>
      <trkpt lat="45.86744491942227" lon="8.720857948064804">
        <ele>696.88</ele>
        <time>2024-05-28T13:21:21.728Z</time>
      </trkpt>
      <trkpt lat="45.86741994135082" lon="8.72084797360003">
        <ele>696.73</ele>
        <time>2024-05-28T13:21:25.367Z</time>
      </trkpt>
      <trkpt lat="45.867391945794225" lon="8.720841938629746">
        <ele>696.58</ele>
        <time>2024-05-28T13:21:29.007Z</time>
      </trkpt>
      <trkpt lat="45.867367973551154" lon="8.720836993306875">
        <ele>696.45</ele>
        <time>2024-05-28T13:21:32.648Z</time>
      </trkpt>
      <trkpt lat="45.867346934974194" lon="8.720832969993353">
        <ele>696.32</ele>
        <time>2024-05-28T13:21:36.289Z</time>
      </trkpt>
      <trkpt lat="45.86732296273112" lon="8.720817966386676">
        <ele>696.19</ele>
        <time>2024-05-28T13:21:39.931Z</time>
      </trkpt>
      <trkpt lat="45.86729798465967" lon="8.720806986093521">
        <ele>696.08</ele>
        <time>2024-05-28T13:21:43.574Z</time>
      </trkpt>
      <trkpt lat="45.86726998910308" lon="8.720801956951618">
        <ele>695.97</ele>
        <time>2024-05-28T13:21:47.218Z</time>
      </trkpt>
      <trkpt lat="45.867239981889725" lon="8.720796927809715">
        <ele>695.87</ele>
        <time>2024-05-28T13:21:50.863Z</time>
      </trkpt>
      <trkpt lat="45.86720494553447" lon="8.720792988315225">
        <ele>695.76</ele>
        <time>2024-05-28T13:21:54.509Z</time>
      </trkpt>
      <trkpt lat="45.867176949977875" lon="8.720782930031419">
        <ele>695.66</ele>
        <time>2024-05-28T13:21:58.156Z</time>
      </trkpt>
      <trkpt lat="45.86714199744165" lon="8.720779996365309">
        <ele>695.56</ele>
        <time>2024-05-28T13:22:01.804Z</time>
      </trkpt>
      <trkpt lat="45.86710293777287" lon="8.720782930031419">
        <ele>695.46</ele>
        <time>2024-05-28T13:22:05.454Z</time>
      </trkpt>
      <trkpt lat="45.86707997135818" lon="8.720779996365309">
        <ele>695.37</ele>
        <time>2024-05-28T13:22:09.104Z</time>
      </trkpt>
      <trkpt lat="45.86706195026636" lon="8.72076197527349">
        <ele>695.3</ele>
        <time>2024-05-28T13:22:12.755Z</time>
      </trkpt>
      <trkpt lat="45.867026997730136" lon="8.720739930868149">
        <ele>695.22</ele>
        <time>2024-05-28T13:22:16.407Z</time>
      </trkpt>
      <trkpt lat="45.867006964981556" lon="8.7207199819386">
        <ele>695.14</ele>
        <time>2024-05-28T13:22:20.060Z</time>
      </trkpt>
      <trkpt lat="45.86698793806136" lon="8.720702966675162">
        <ele>695.07</ele>
        <time>2024-05-28T13:22:23.714Z</time>
      </trkpt>
      <trkpt lat="45.866961954161525" lon="8.720686957240105">
        <ele>694.99</ele>
        <time>2024-05-28T13:22:27.369Z</time>
      </trkpt>
      <trkpt lat="45.86692993529141" lon="8.720681928098202">
        <ele>694.91</ele>
        <time>2024-05-28T13:22:31.025Z</time>
      </trkpt>
      <trkpt lat="45.8669079747051" lon="8.720667930319905">
        <ele>694.84</ele>
        <time>2024-05-28T13:22:34.682Z</time>
      </trkpt>
      <trkpt lat="45.86688794195652" lon="8.720647981390357">
        <ele>694.76</ele>
        <time>2024-05-28T13:22:38.340Z</time>
      </trkpt>
      <trkpt lat="45.86687293834984" lon="8.720626942813396">
        <ele>694.69</ele>
        <time>2024-05-28T13:22:41.998Z</time>
      </trkpt>
      <trkpt lat="45.866852989420295" lon="8.720592996105552">
        <ele>694.62</ele>
        <time>2024-05-28T13:22:45.657Z</time>
      </trkpt>
      <trkpt lat="45.866831950843334" lon="8.720562988892198">
        <ele>694.54</ele>
        <time>2024-05-28T13:22:49.317Z</time>
      </trkpt>
      <trkpt lat="45.866807978600264" lon="8.720544967800379">
        <ele>694.46</ele>
        <time>2024-05-28T13:22:52.978Z</time>
      </trkpt>
      <trkpt lat="45.866789957508445" lon="8.72052795253694">
        <ele>694.38</ele>
        <time>2024-05-28T13:22:56.640Z</time>
      </trkpt>
      <trkpt lat="45.866769924759865" lon="8.72050498612225">
        <ele>694.29</ele>
        <time>2024-05-28T13:23:00.303Z</time>
      </trkpt>
      <trkpt lat="45.866744946688414" lon="8.720489982515574">
        <ele>694.2</ele>
        <time>2024-05-28T13:23:03.967Z</time>
      </trkpt>
      <trkpt lat="45.86671695113182" lon="8.720474978908896">
        <ele>694.1</ele>
        <time>2024-05-28T13:23:07.632Z</time>
      </trkpt>
      <trkpt lat="45.86668996140361" lon="8.720456957817078">
        <ele>694.0</ele>
        <time>2024-05-28T13:23:11.298Z</time>
      </trkpt>
      <trkpt lat="45.86666498333216" lon="8.720442960038781">
        <ele>693.89</ele>
        <time>2024-05-28T13:23:14.965Z</time>
      </trkpt>
      <trkpt lat="45.86664495058358" lon="8.720434997230768">
        <ele>693.78</ele>
        <time>2024-05-28T13:23:18.632Z</time>
      </trkpt>
      <trkpt lat="45.86662298999727" lon="8.720427956432104">
        <ele>693.66</ele>
        <time>2024-05-28T13:23:22.300Z</time>
      </trkpt>
      <trkpt lat="45.866599939763546" lon="8.720424938946962">
        <ele>693.54</ele>
        <time>2024-05-28T13:23:25.969Z</time>
      </trkpt>
      <trkpt lat="45.866574961692095" lon="8.720419993624091">
        <ele>693.41</ele>
        <time>2024-05-28T13:23:29.639Z</time>
      </trkpt>
      <trkpt lat="45.8665469661355" lon="8.720422927290201">
        <ele>693.27</ele>
        <time>2024-05-28T13:23:33.310Z</time>
      </trkpt>
      <trkpt lat="45.866507990285754" lon="8.72043994255364">
        <ele>693.12</ele>
        <time>2024-05-28T13:23:36.982Z</time>
      </trkpt>
      <trkpt lat="45.86647697724402" lon="8.720452934503555">
        <ele>692.97</ele>
        <time>2024-05-28T13:23:40.655Z</time>
      </trkpt>
      <trkpt lat="45.86645292118192" lon="8.720457963645458">
        <ele>692.82</ele>
        <time>2024-05-28T13:23:44.329Z</time>
      </trkpt>
      <trkpt lat="45.866427943110466" lon="8.720496939495206">
        <ele>692.65</ele>
        <time>2024-05-28T13:23:48.004Z</time>
      </trkpt>
      <trkpt lat="45.86640799418092" lon="8.720517978072166">
        <ele>692.49</ele>
        <time>2024-05-28T13:23:51.680Z</time>
      </trkpt>
      <trkpt lat="45.86638695560396" lon="8.720539938658476">
        <ele>692.32</ele>
        <time>2024-05-28T13:23:55.357Z</time>
      </trkpt>
      <trkpt lat="45.86636298336089" lon="8.720554942265153">
        <ele>692.14</ele>
        <time>2024-05-28T13:23:59.035Z</time>
      </trkpt>
      <trkpt lat="45.86634797975421" lon="8.72056994587183">
        <ele>691.96</ele>
        <time>2024-05-28T13:24:02.713Z</time>
      </trkpt>
      <trkpt lat="45.86633197031915" lon="8.720606993883848">
        <ele>691.77</ele>
        <time>2024-05-28T13:24:06.392Z</time>
      </trkpt>
      <trkpt lat="45.86632794700563" lon="8.720642952248454">
        <ele>691.58</ele>
        <time>2024-05-28T13:24:10.072Z</time>
      </trkpt>
      <trkpt lat="45.86632794700563" lon="8.720671953633428">
        <ele>691.4</ele>
        <time>2024-05-28T13:24:13.753Z</time>
      </trkpt>
      <trkpt lat="45.866334987804294" lon="8.72069994919002">
        <ele>691.21</ele>
        <time>2024-05-28T13:24:17.435Z</time>
      </trkpt>
      <trkpt lat="45.86634797975421" lon="8.720727944746614">
        <ele>691.02</ele>
        <time>2024-05-28T13:24:21.117Z</time>
      </trkpt>
      <trkpt lat="45.8663519192487" lon="8.720759963616729">
        <ele>690.83</ele>
        <time>2024-05-28T13:24:24.800Z</time>
      </trkpt>
      <trkpt lat="45.866357954218984" lon="8.720791982486844">
        <ele>690.63</ele>
        <time>2024-05-28T13:24:28.484Z</time>
      </trkpt>
      <trkpt lat="45.86636298336089" lon="8.720831964164972">
        <ele>690.43</ele>
        <time>2024-05-28T13:24:32.169Z</time>
      </trkpt>
      <trkpt lat="45.86636298336089" lon="8.720866916701198">
        <ele>690.23</ele>
        <time>2024-05-28T13:24:35.855Z</time>
      </trkpt>
      <trkpt lat="45.86636692285538" lon="8.720897929742932">
        <ele>690.03</ele>
        <time>2024-05-28T13:24:39.541Z</time>
      </trkpt>
      <trkpt lat="45.86636994034052" lon="8.720931960269809">
        <ele>689.83</ele>
        <time>2024-05-28T13:24:43.228Z</time>
      </trkpt>
      <trkpt lat="45.86637295782566" lon="8.72095794416964">
        <ele>689.64</ele>
        <time>2024-05-28T13:24:46.916Z</time>
      </trkpt>
      <trkpt lat="45.86636298336089" lon="8.721021981909871">
        <ele>689.44</ele>
        <time>2024-05-28T13:24:50.605Z</time>
      </trkpt>
      <trkpt lat="45.86635493673384" lon="8.721059951931238">
        <ele>689.23</ele>
        <time>2024-05-28T13:24:54.295Z</time>
      </trkpt>
      <trkpt lat="45.86634496226907" lon="8.721099933609366">
        <ele>689.02</ele>
        <time>2024-05-28T13:24:57.986Z</time>
      </trkpt>
      <trkpt lat="45.86633197031915" lon="8.721139999106526">
        <ele>688.81</ele>
        <time>2024-05-28T13:25:01.678Z</time>
      </trkpt>
      <trkpt lat="45.866316966712475" lon="8.721162965521216">
        <ele>688.61</ele>
        <time>2024-05-28T13:25:05.371Z</time>
      </trkpt>
      <trkpt lat="45.86630992591381" lon="8.721209987998009">
        <ele>688.41</ele>
        <time>2024-05-28T13:25:09.065Z</time>
      </trkpt>
      <trkpt lat="45.866296933963895" lon="8.72123496606946">
        <ele>688.22</ele>
        <time>2024-05-28T13:25:12.760Z</time>
      </trkpt>
      <trkpt lat="45.866271955892444" lon="8.721284922212362">
        <ele>688.02</ele>
        <time>2024-05-28T13:25:16.456Z</time>
      </trkpt>
      <trkpt lat="45.866254940629005" lon="8.721312917768955">
        <ele>687.84</ele>
        <time>2024-05-28T13:25:20.153Z</time>
      </trkpt>
      <trkpt lat="45.86624798364937" lon="8.721337979659438">
        <ele>687.65</ele>
        <time>2024-05-28T13:25:23.851Z</time>
      </trkpt>
      <trkpt lat="45.86623691953719" lon="8.721361951902509">
        <ele>687.47</ele>
        <time>2024-05-28T13:25:27.549Z</time>
      </trkpt>
      <trkpt lat="45.86622694507241" lon="8.721391959115863">
        <ele>687.29</ele>
        <time>2024-05-28T13:25:31.248Z</time>
      </trkpt>
      <trkpt lat="45.86621697060764" lon="8.721412997692823">
        <ele>687.11</ele>
        <time>2024-05-28T13:25:34.948Z</time>
      </trkpt>
      <trkpt lat="45.86620297282934" lon="8.721446944400668">
        <ele>686.94</ele>
        <time>2024-05-28T13:25:38.649Z</time>
      </trkpt>
      <trkpt lat="45.86619199253619" lon="8.7214729283005">
        <ele>686.77</ele>
        <time>2024-05-28T13:25:42.350Z</time>
      </trkpt>
      <trkpt lat="45.86617497727275" lon="8.721499918028712">
        <ele>686.59</ele>
        <time>2024-05-28T13:25:46.052Z</time>
      </trkpt>
      <trkpt lat="45.86616491898894" lon="8.721519950777292">
        <ele>686.42</ele>
        <time>2024-05-28T13:25:49.755Z</time>
      </trkpt>
      <trkpt lat="45.866146981716156" lon="8.721547946333885">
        <ele>686.25</ele>
        <time>2024-05-28T13:25:53.459Z</time>
      </trkpt>
      <trkpt lat="45.86612996645272" lon="8.721572924405336">
        <ele>686.08</ele>
        <time>2024-05-28T13:25:57.164Z</time>
      </trkpt>
      <trkpt lat="45.86610792204738" lon="8.721604943275452">
        <ele>685.92</ele>
        <time>2024-05-28T13:26:00.870Z</time>
      </trkpt>
      <trkpt lat="45.86609199643135" lon="8.721624976024032">
        <ele>685.75</ele>
        <time>2024-05-28T13:26:04.576Z</time>
      </trkpt>
      <trkpt lat="45.86606995202601" lon="8.721646936610341">
        <ele>685.59</ele>
        <time>2024-05-28T13:26:08.283Z</time>
      </trkpt>
      <trkpt lat="45.86601194925606" lon="8.721704939380288">
        <ele>685.42</ele>
        <time>2024-05-28T13:26:11.993Z</time>
      </trkpt>
      <trkpt lat="45.86597699671984" lon="8.72172991745174">
        <ele>685.25</ele>
        <time>2024-05-28T13:26:15.704Z</time>
      </trkpt>
      <trkpt lat="45.865954952314496" lon="8.721734946593642">
        <ele>685.09</ele>
        <time>2024-05-28T13:26:19.416Z</time>
      </trkpt>
      <trkpt lat="45.86592494510114" lon="8.721764953806996">
        <ele>684.92</ele>
        <time>2024-05-28T13:26:23.129Z</time>
      </trkpt>
      <trkpt lat="45.86587498895824" lon="8.721796972677112">
        <ele>684.76</ele>
        <time>2024-05-28T13:26:26.844Z</time>
      </trkpt>
      <trkpt lat="45.86583299562335" lon="8.721827985718846">
        <ele>684.6</ele>
        <time>2024-05-28T13:26:30.560Z</time>
      </trkpt>
      <trkpt lat="45.86579192429781" lon="8.721882971003652">
        <ele>684.43</ele>
        <time>2024-05-28T13:26:34.278Z</time>
      </trkpt>
      <trkpt lat="45.86575294844806" lon="8.721909960731864">
        <ele>684.26</ele>
        <time>2024-05-28T13:26:37.998Z</time>
      </trkpt>
      <trkpt lat="45.865719923749566" lon="8.721927981823683">
        <ele>684.09</ele>
        <time>2024-05-28T13:26:41.719Z</time>
      </trkpt>
      <trkpt lat="45.86572696454823" lon="8.721962934359908">
        <ele>683.91</ele>
        <time>2024-05-28T13:26:45.441Z</time>
      </trkpt>
      <trkpt lat="45.865739956498146" lon="8.72198992408812">
        <ele>683.73</ele>
        <time>2024-05-28T13:26:49.163Z</time>
      </trkpt>
      <trkpt lat="45.865732999518514" lon="8.722034934908152">
        <ele>683.55</ele>
        <time>2024-05-28T13:26:52.886Z</time>
      </trkpt>
      <trkpt lat="45.86571799591184" lon="8.722081957384944">
        <ele>683.37</ele>
        <time>2024-05-28T13:26:56.611Z</time>
      </trkpt>
      <trkpt lat="45.86571196094155" lon="8.722106935456395">
        <ele>683.19</ele>
        <time>2024-05-28T13:27:00.336Z</time>
      </trkpt>
      <trkpt lat="45.86569796316326" lon="8.722141971811652">
        <ele>683.01</ele>
        <time>2024-05-28T13:27:04.062Z</time>
      </trkpt>
      <trkpt lat="45.86567994207144" lon="8.722191927954555">
        <ele>682.81</ele>
        <time>2024-05-28T13:27:07.789Z</time>
      </trkpt>
      <trkpt lat="45.86565999314189" lon="8.722219923511147">
        <ele>682.62</ele>
        <time>2024-05-28T13:27:11.517Z</time>
      </trkpt>
      <trkpt lat="45.86563794873655" lon="8.722239956259727">
        <ele>682.44</ele>
        <time>2024-05-28T13:27:15.246Z</time>
      </trkpt>
      <trkpt lat="45.865617999807" lon="8.722257977351546">
        <ele>682.24</ele>
        <time>2024-05-28T13:27:18.976Z</time>
      </trkpt>
      <trkpt lat="45.86560199037194" lon="8.722284967079759">
        <ele>682.03</ele>
        <time>2024-05-28T13:27:22.707Z</time>
      </trkpt>
      <trkpt lat="45.86558296345174" lon="8.722314974293113">
        <ele>681.83</ele>
        <time>2024-05-28T13:27:26.439Z</time>
      </trkpt>
      <trkpt lat="45.86556997150183" lon="8.722341964021325">
        <ele>681.63</ele>
        <time>2024-05-28T13:27:30.172Z</time>
      </trkpt>
      <trkpt lat="45.86555798538029" lon="8.72237197123468">
        <ele>681.42</ele>
        <time>2024-05-28T13:27:33.905Z</time>
      </trkpt>
      <trkpt lat="45.865544993430376" lon="8.722391920164227">
        <ele>681.21</ele>
        <time>2024-05-28T13:27:37.639Z</time>
      </trkpt>
      <trkpt lat="45.86553191766143" lon="8.722417987883091">
        <ele>681.0</ele>
        <time>2024-05-28T13:27:41.374Z</time>
      </trkpt>
      <trkpt lat="45.8654969651252" lon="8.722456963732839">
        <ele>680.78</ele>
        <time>2024-05-28T13:27:45.110Z</time>
      </trkpt>
      <trkpt lat="45.86547198705375" lon="8.722487976774573">
        <ele>680.55</ele>
        <time>2024-05-28T13:27:48.847Z</time>
      </trkpt>
      <trkpt lat="45.8654229529202" lon="8.722569951787591">
        <ele>680.31</ele>
        <time>2024-05-28T13:27:52.587Z</time>
      </trkpt>
      <trkpt lat="45.865374924615026" lon="8.722642958164215">
        <ele>680.08</ele>
        <time>2024-05-28T13:27:56.329Z</time>
      </trkpt>
      <trkpt lat="45.865349946543574" lon="8.722702972590923">
        <ele>679.85</ele>
        <time>2024-05-28T13:28:00.073Z</time>
      </trkpt>
      <trkpt lat="45.865332931280136" lon="8.722747983410954">
        <ele>679.63</ele>
        <time>2024-05-28T13:28:03.818Z</time>
      </trkpt>
      <trkpt lat="45.86531792767346" lon="8.722762987017632">
        <ele>679.41</ele>
        <time>2024-05-28T13:28:07.564Z</time>
      </trkpt>
      <trkpt lat="45.86529496125877" lon="8.722796933725476">
        <ele>679.18</ele>
        <time>2024-05-28T13:28:11.311Z</time>
      </trkpt>
      <trkpt lat="45.86527694016695" lon="8.722827946767211">
        <ele>678.96</ele>
        <time>2024-05-28T13:28:15.059Z</time>
      </trkpt>
      <trkpt lat="45.8652569912374" lon="8.72286792844534">
        <ele>678.73</ele>
        <time>2024-05-28T13:28:18.808Z</time>
      </trkpt>
      <trkpt lat="45.86523192934692" lon="8.722892990335822">
        <ele>678.51</ele>
        <time>2024-05-28T13:28:22.558Z</time>
      </trkpt>
      <trkpt lat="45.865196976810694" lon="8.722922997549176">
        <ele>678.29</ele>
        <time>2024-05-28T13:28:26.309Z</time>
      </trkpt>
      <trkpt lat="45.86516294628382" lon="8.722947975620627">
        <ele>678.06</ele>
        <time>2024-05-28T13:28:30.061Z</time>
      </trkpt>
      <trkpt lat="45.865134950727224" lon="8.722971947863698">
        <ele>677.83</ele>
        <time>2024-05-28T13:28:33.815Z</time>
      </trkpt>
      <trkpt lat="45.865116929635406" lon="8.722989968955517">
        <ele>677.61</ele>
        <time>2024-05-28T13:28:37.569Z</time>
      </trkpt>
      <trkpt lat="45.865092957392335" lon="8.722991980612278">
        <ele>677.4</ele>
        <time>2024-05-28T13:28:41.324Z</time>
      </trkpt>
      <trkpt lat="45.865067979320884" lon="8.722991980612278">
        <ele>677.19</ele>
        <time>2024-05-28T13:28:45.080Z</time>
      </trkpt>
      <trkpt lat="45.8650619443506" lon="8.723014947026968">
        <ele>676.98</ele>
        <time>2024-05-28T13:28:48.836Z</time>
      </trkpt>
      <trkpt lat="45.86504492908716" lon="8.72303699143231">
        <ele>676.78</ele>
        <time>2024-05-28T13:28:52.593Z</time>
      </trkpt>
      <trkpt lat="45.865026991814375" lon="8.723051995038986">
        <ele>676.57</ele>
        <time>2024-05-28T13:28:56.351Z</time>
      </trkpt>
      <trkpt lat="45.865006959065795" lon="8.723077978938818">
        <ele>676.35</ele>
        <time>2024-05-28T13:29:00.110Z</time>
      </trkpt>
      <trkpt lat="45.865006959065795" lon="8.723114943131804">
        <ele>676.13</ele>
        <time>2024-05-28T13:29:03.870Z</time>
      </trkpt>
      <trkpt lat="45.865006959065795" lon="8.723149979487062">
        <ele>675.93</ele>
        <time>2024-05-28T13:29:07.631Z</time>
      </trkpt>
      <trkpt lat="45.86499991826713" lon="8.723174957558513">
        <ele>675.73</ele>
        <time>2024-05-28T13:29:11.392Z</time>
      </trkpt>
      <trkpt lat="45.864987932145596" lon="8.723204964771867">
        <ele>675.53</ele>
        <time>2024-05-28T13:29:15.154Z</time>
      </trkpt>
      <trkpt lat="45.86497795768082" lon="8.723229942843318">
        <ele>675.33</ele>
        <time>2024-05-28T13:29:18.917Z</time>
      </trkpt>
      <trkpt lat="45.86495691910386" lon="8.723249975591898">
        <ele>675.13</ele>
        <time>2024-05-28T13:29:22.680Z</time>
      </trkpt>
      <trkpt lat="45.86493697017431" lon="8.723269924521446">
        <ele>674.93</ele>
        <time>2024-05-28T13:29:26.444Z</time>
      </trkpt>
      <trkpt lat="45.86491794325411" lon="8.723287945613265">
        <ele>674.73</ele>
        <time>2024-05-28T13:29:30.209Z</time>
      </trkpt>
      <trkpt lat="45.86489497683942" lon="8.723307978361845">
        <ele>674.53</ele>
        <time>2024-05-28T13:29:33.975Z</time>
      </trkpt>
      <trkpt lat="45.864876955747604" lon="8.723322981968522">
        <ele>674.34</ele>
        <time>2024-05-28T13:29:37.742Z</time>
      </trkpt>
      <trkpt lat="45.864856922999024" lon="8.7233379855752">
        <ele>674.14</ele>
        <time>2024-05-28T13:29:41.509Z</time>
      </trkpt>
      <trkpt lat="45.864834962412715" lon="8.723347960039973">
        <ele>673.95</ele>
        <time>2024-05-28T13:29:45.277Z</time>
      </trkpt>
      <trkpt lat="45.86481794714928" lon="8.72336195781827">
        <ele>673.76</ele>
        <time>2024-05-28T13:29:49.046Z</time>
      </trkpt>
      <trkpt lat="45.86479992605746" lon="8.723374949768186">
        <ele>673.58</ele>
        <time>2024-05-28T13:29:52.815Z</time>
      </trkpt>
      <trkpt lat="45.86478299461305" lon="8.723387941718102">
        <ele>673.39</ele>
        <time>2024-05-28T13:29:56.585Z</time>
      </trkpt>
      <trkpt lat="45.864766985177994" lon="8.723401939496398">
        <ele>673.2</ele>
        <time>2024-05-28T13:30:00.356Z</time>
      </trkpt>
      <trkpt lat="45.864747958257794" lon="8.723412919789553">
        <ele>673.01</ele>
        <time>2024-05-28T13:30:04.127Z</time>
      </trkpt>
      <trkpt lat="45.864724991843104" lon="8.72342691756785">
        <ele>672.83</ele>
        <time>2024-05-28T13:30:07.899Z</time>
      </trkpt>
      <trkpt lat="45.86470294743776" lon="8.723439993336797">
        <ele>672.64</ele>
        <time>2024-05-28T13:30:11.672Z</time>
      </trkpt>
      <trkpt lat="45.86467796936631" lon="8.723454996943474">
        <ele>672.46</ele>
        <time>2024-05-28T13:30:15.446Z</time>
      </trkpt>
      <trkpt lat="45.86464796215296" lon="8.72347192838788">
        <ele>672.28</ele>
        <time>2024-05-28T13:30:19.221Z</time>
      </trkpt>
      <trkpt lat="45.864626923576" lon="8.723492966964841">
        <ele>672.1</ele>
        <time>2024-05-28T13:30:22.997Z</time>
      </trkpt>
      <trkpt lat="45.86460697464645" lon="8.723519956693053">
        <ele>671.92</ele>
        <time>2024-05-28T13:30:26.774Z</time>
      </trkpt>
      <trkpt lat="45.86459197103977" lon="8.723546946421266">
        <ele>671.75</ele>
        <time>2024-05-28T13:30:30.552Z</time>
      </trkpt>
      <trkpt lat="45.8645679987967" lon="8.723577959463">
        <ele>671.58</ele>
        <time>2024-05-28T13:30:34.331Z</time>
      </trkpt>
      <trkpt lat="45.86454696021974" lon="8.723602937534451">
        <ele>671.41</ele>
        <time>2024-05-28T13:30:38.111Z</time>
      </trkpt>
      <trkpt lat="45.86452298797667" lon="8.723627999424934">
        <ele>671.25</ele>
        <time>2024-05-28T13:30:41.892Z</time>
      </trkpt>
      <trkpt lat="45.86450496688485" lon="8.72366194613278">
        <ele>671.07</ele>
        <time>2024-05-28T13:30:45.674Z</time>
      </trkpt>
      <trkpt lat="45.86448493413627" lon="8.723697988316417">
        <ele>670.9</ele>
        <time>2024-05-28T13:30:49.457Z</time>
      </trkpt>
      <trkpt lat="45.86446297354996" lon="8.723736964166164">
        <ele>670.73</ele>
        <time>2024-05-28T13:30:53.241Z</time>
      </trkpt>
      <trkpt lat="45.864427937194705" lon="8.723784992471337">
        <ele>670.56</ele>
        <time>2024-05-28T13:30:57.026Z</time>
      </trkpt>
      <trkpt lat="45.86438996717334" lon="8.723841989412904">
        <ele>670.39</ele>
        <time>2024-05-28T13:31:00.813Z</time>
      </trkpt>
      <trkpt lat="45.86435199715197" lon="8.72389999218285">
        <ele>670.23</ele>
        <time>2024-05-28T13:31:04.602Z</time>
      </trkpt>
      <trkpt lat="45.86432794108987" lon="8.723936956375837">
        <ele>670.07</ele>
        <time>2024-05-28T13:31:08.392Z</time>
      </trkpt>
      <trkpt lat="45.86431293748319" lon="8.723974926397204">
        <ele>669.92</ele>
        <time>2024-05-28T13:31:12.183Z</time>
      </trkpt>
      <trkpt lat="45.86426792666316" lon="8.724002921953797">
        <ele>669.76</ele>
        <time>2024-05-28T13:31:15.976Z</time>
      </trkpt>
      <trkpt lat="45.86424194276333" lon="8.724022954702377">
        <ele>669.63</ele>
        <time>2024-05-28T13:31:19.770Z</time>
      </trkpt>
      <trkpt lat="45.864212941378355" lon="8.724047932773829">
        <ele>669.49</ele>
        <time>2024-05-28T13:31:23.565Z</time>
      </trkpt>
      <trkpt lat="45.86418494582176" lon="8.724072994664311">
        <ele>669.36</ele>
        <time>2024-05-28T13:31:27.361Z</time>
      </trkpt>
      <trkpt lat="45.86415996775031" lon="8.724099984392524">
        <ele>669.22</ele>
        <time>2024-05-28T13:31:31.158Z</time>
      </trkpt>
      <trkpt lat="45.8641329780221" lon="8.724099984392524">
        <ele>669.1</ele>
        <time>2024-05-28T13:31:34.956Z</time>
      </trkpt>
      <trkpt lat="45.864104982465506" lon="8.724121944978833">
        <ele>668.96</ele>
        <time>2024-05-28T13:31:38.755Z</time>
      </trkpt>
      <trkpt lat="45.86408796720207" lon="8.72413795441389">
        <ele>668.83</ele>
        <time>2024-05-28T13:31:42.555Z</time>
      </trkpt>
      <trkpt lat="45.864062989130616" lon="8.724181959405541">
        <ele>668.69</ele>
        <time>2024-05-28T13:31:46.356Z</time>
      </trkpt>
      <trkpt lat="45.864039938896894" lon="8.724201992154121">
        <ele>668.57</ele>
        <time>2024-05-28T13:31:50.158Z</time>
      </trkpt>
      <trkpt lat="45.86401496082544" lon="8.724201992154121">
        <ele>668.45</ele>
        <time>2024-05-28T13:31:53.961Z</time>
      </trkpt>
      <trkpt lat="45.8639929164201" lon="8.724212972447276">
        <ele>668.34</ele>
        <time>2024-05-28T13:31:57.765Z</time>
      </trkpt>
      <trkpt lat="45.86395997554064" lon="8.72422194108367">
        <ele>668.23</ele>
        <time>2024-05-28T13:32:01.570Z</time>
      </trkpt>
      <trkpt lat="45.86393499746919" lon="8.724226970225573">
        <ele>668.13</ele>
        <time>2024-05-28T13:32:05.376Z</time>
      </trkpt>
      <trkpt lat="45.86391697637737" lon="8.724232921376824">
        <ele>668.03</ele>
        <time>2024-05-28T13:32:09.182Z</time>
      </trkpt>
      <trkpt lat="45.86389996111393" lon="8.724252954125404">
        <ele>667.93</ele>
        <time>2024-05-28T13:32:12.989Z</time>
      </trkpt>
      <trkpt lat="45.86386492475867" lon="8.724291929975152">
        <ele>667.84</ele>
        <time>2024-05-28T13:32:16.797Z</time>
      </trkpt>
      <trkpt lat="45.86379996500909" lon="8.724312968552113">
        <ele>667.76</ele>
        <time>2024-05-28T13:32:20.608Z</time>
      </trkpt>
      <trkpt lat="45.863761994987726" lon="8.724319925531745">
        <ele>667.66</ele>
        <time>2024-05-28T13:32:24.420Z</time>
      </trkpt>
      <trkpt lat="45.86373693309724" lon="8.724319925531745">
        <ele>667.58</ele>
        <time>2024-05-28T13:32:28.233Z</time>
      </trkpt>
      <trkpt lat="45.8637529425323" lon="8.72432797215879">
        <ele>667.51</ele>
        <time>2024-05-28T13:32:32.046Z</time>
      </trkpt>
      <trkpt lat="45.86373693309724" lon="8.72435295023024">
        <ele>667.42</ele>
        <time>2024-05-28T13:32:35.860Z</time>
      </trkpt>
      <trkpt lat="45.86371195502579" lon="8.724389998242259">
        <ele>667.34</ele>
        <time>2024-05-28T13:32:39.675Z</time>
      </trkpt>
      <trkpt lat="45.863694939762354" lon="8.724406929686666">
        <ele>667.27</ele>
        <time>2024-05-28T13:32:43.491Z</time>
      </trkpt>
      <trkpt lat="45.86369192227721" lon="8.72443693690002">
        <ele>667.21</ele>
        <time>2024-05-28T13:32:47.308Z</time>
      </trkpt>
      <trkpt lat="45.8636699616909" lon="8.724459987133741">
        <ele>667.16</ele>
        <time>2024-05-28T13:32:51.126Z</time>
      </trkpt>
      <trkpt lat="45.86366694420576" lon="8.724494939669967">
        <ele>667.1</ele>
        <time>2024-05-28T13:32:54.944Z</time>
      </trkpt>
      <trkpt lat="45.86366292089224" lon="8.724531987681985">
        <ele>667.07</ele>
        <time>2024-05-28T13:32:58.763Z</time>
      </trkpt>
      <trkpt lat="45.86365696974099" lon="8.724574986845255">
        <ele>667.05</ele>
        <time>2024-05-28T13:33:02.583Z</time>
      </trkpt>
      <trkpt lat="45.863652946427464" lon="8.724602982401848">
        <ele>667.03</ele>
        <time>2024-05-28T13:33:06.404Z</time>
      </trkpt>
      <trkpt lat="45.863634925335646" lon="8.724636929109693">
        <ele>667.02</ele>
        <time>2024-05-28T13:33:10.226Z</time>
      </trkpt>
      <trkpt lat="45.863611958920956" lon="8.724647993221879">
        <ele>667.02</ele>
        <time>2024-05-28T13:33:14.049Z</time>
      </trkpt>
      <trkpt lat="45.86358295753598" lon="8.724659979343414">
        <ele>667.03</ele>
        <time>2024-05-28T13:33:17.873Z</time>
      </trkpt>
      <trkpt lat="45.863566948100924" lon="8.724682945758104">
        <ele>667.02</ele>
        <time>2024-05-28T13:33:21.698Z</time>
      </trkpt>
      <trkpt lat="45.86355194449425" lon="8.724712952971458">
        <ele>667.02</ele>
        <time>2024-05-28T13:33:25.523Z</time>
      </trkpt>
      <trkpt lat="45.86353794671595" lon="8.72473994269967">
        <ele>667.03</ele>
        <time>2024-05-28T13:33:29.349Z</time>
      </trkpt>
      <trkpt lat="45.8635319955647" lon="8.724779924377799">
        <ele>667.04</ele>
        <time>2024-05-28T13:33:33.176Z</time>
      </trkpt>
      <trkpt lat="45.86353492923081" lon="8.724814960733056">
        <ele>667.06</ele>
        <time>2024-05-28T13:33:37.004Z</time>
      </trkpt>
      <trkpt lat="45.86353794671595" lon="8.724842956289649">
        <ele>667.1</ele>
        <time>2024-05-28T13:33:40.833Z</time>
      </trkpt>
      <trkpt lat="45.863544987514615" lon="8.724872963503003">
        <ele>667.13</ele>
        <time>2024-05-28T13:33:44.662Z</time>
      </trkpt>
      <trkpt lat="45.86355496197939" lon="8.724912945181131">
        <ele>667.18</ele>
        <time>2024-05-28T13:33:48.492Z</time>
      </trkpt>
      <trkpt lat="45.8635629247874" lon="8.724947981536388">
        <ele>667.22</ele>
        <time>2024-05-28T13:33:52.323Z</time>
      </trkpt>
      <trkpt lat="45.86357298307121" lon="8.724991986528039">
        <ele>667.27</ele>
        <time>2024-05-28T13:33:56.155Z</time>
      </trkpt>
      <trkpt lat="45.86358295753598" lon="8.725031968206167">
        <ele>667.32</ele>
        <time>2024-05-28T13:33:59.988Z</time>
      </trkpt>
      <trkpt lat="45.8635769225657" lon="8.725071949884295">
        <ele>667.39</ele>
        <time>2024-05-28T13:34:03.822Z</time>
      </trkpt>
      <trkpt lat="45.86357298307121" lon="8.725097933784127">
        <ele>667.46</ele>
        <time>2024-05-28T13:34:07.657Z</time>
      </trkpt>
      <trkpt lat="45.86357298307121" lon="8.725139927119017">
        <ele>667.54</ele>
        <time>2024-05-28T13:34:11.493Z</time>
      </trkpt>
      <trkpt lat="45.86355797946453" lon="8.725166916847229">
        <ele>667.62</ele>
        <time>2024-05-28T13:34:15.330Z</time>
      </trkpt>
      <trkpt lat="45.863547921180725" lon="8.725194996222854">
        <ele>667.69</ele>
        <time>2024-05-28T13:34:19.167Z</time>
      </trkpt>
      <trkpt lat="45.86353794671595" lon="8.725217962637544">
        <ele>667.76</ele>
        <time>2024-05-28T13:34:23.005Z</time>
      </trkpt>
      <trkpt lat="45.863544987514615" lon="8.725259955972433">
        <ele>667.84</ele>
        <time>2024-05-28T13:34:26.844Z</time>
      </trkpt>
      <trkpt lat="45.86355194449425" lon="8.725289963185787">
        <ele>667.93</ele>
        <time>2024-05-28T13:34:30.684Z</time>
      </trkpt>
      <trkpt lat="45.863547921180725" lon="8.725319970399141">
        <ele>668.0</ele>
        <time>2024-05-28T13:34:34.525Z</time>
      </trkpt>
      <trkpt lat="45.86353794671595" lon="8.725344948470592">
        <ele>668.08</ele>
        <time>2024-05-28T13:34:38.366Z</time>
      </trkpt>
      <trkpt lat="45.863547921180725" lon="8.725399933755398">
        <ele>668.2</ele>
        <time>2024-05-28T13:34:42.209Z</time>
      </trkpt>
      <trkpt lat="45.86352797225118" lon="8.725439999252558">
        <ele>668.29</ele>
        <time>2024-05-28T13:34:46.053Z</time>
      </trkpt>
      <trkpt lat="45.86350995115936" lon="8.725484926253557">
        <ele>668.37</ele>
        <time>2024-05-28T13:34:49.898Z</time>
      </trkpt>
      <trkpt lat="45.863506933674216" lon="8.725517950952053">
        <ele>668.47</ele>
        <time>2024-05-28T13:34:53.744Z</time>
      </trkpt>
      <trkpt lat="45.86349695920944" lon="8.725541923195124">
        <ele>668.55</ele>
        <time>2024-05-28T13:34:57.590Z</time>
      </trkpt>
      <trkpt lat="45.86348698474467" lon="8.725577965378761">
        <ele>668.64</ele>
        <time>2024-05-28T13:35:01.437Z</time>
      </trkpt>
      <trkpt lat="45.86346795782447" lon="8.72561995871365">
        <ele>668.73</ele>
        <time>2024-05-28T13:35:05.285Z</time>
      </trkpt>
      <trkpt lat="45.86345194838941" lon="8.72566295787692">
        <ele>668.82</ele>
        <time>2024-05-28T13:35:09.134Z</time>
      </trkpt>
      <trkpt lat="45.863436944782734" lon="8.725692965090275">
        <ele>668.9</ele>
        <time>2024-05-28T13:35:12.984Z</time>
      </trkpt>
      <trkpt lat="45.863416995853186" lon="8.725721966475248">
        <ele>668.99</ele>
        <time>2024-05-28T13:35:16.835Z</time>
      </trkpt>
      <trkpt lat="45.86340299807489" lon="8.725752979516983">
        <ele>669.08</ele>
        <time>2024-05-28T13:35:20.687Z</time>
      </trkpt>
      <trkpt lat="45.863397968932986" lon="8.725777957588434">
        <ele>669.17</ele>
        <time>2024-05-28T13:35:24.540Z</time>
      </trkpt>
      <trkpt lat="45.8633919339627" lon="8.725816933438182">
        <ele>669.27</ele>
        <time>2024-05-28T13:35:28.394Z</time>
      </trkpt>
      <trkpt lat="45.863374918699265" lon="8.72585498727858">
        <ele>669.37</ele>
        <time>2024-05-28T13:35:32.249Z</time>
      </trkpt>
      <trkpt lat="45.863394951447845" lon="8.725874936208129">
        <ele>669.48</ele>
        <time>2024-05-28T13:35:36.105Z</time>
      </trkpt>
      <trkpt lat="45.863394951447845" lon="8.725904943421483">
        <ele>669.59</ele>
        <time>2024-05-28T13:35:39.961Z</time>
      </trkpt>
      <trkpt lat="45.863377936184406" lon="8.725941991433501">
        <ele>669.7</ele>
        <time>2024-05-28T13:35:43.818Z</time>
      </trkpt>
      <trkpt lat="45.86336494423449" lon="8.725966969504952">
        <ele>669.8</ele>
        <time>2024-05-28T13:35:47.676Z</time>
      </trkpt>
      <trkpt lat="45.86334994062781" lon="8.7259869184345">
        <ele>669.91</ele>
        <time>2024-05-28T13:35:51.535Z</time>
      </trkpt>
      <trkpt lat="45.86334692314267" lon="8.7260249722749">
        <ele>670.02</ele>
        <time>2024-05-28T13:35:55.395Z</time>
      </trkpt>
      <trkpt lat="45.8633369486779" lon="8.726054979488254">
        <ele>670.14</ele>
        <time>2024-05-28T13:35:59.255Z</time>
      </trkpt>
      <trkpt lat="45.863311970606446" lon="8.726079957559705">
        <ele>670.24</ele>
        <time>2024-05-28T13:36:03.116Z</time>
      </trkpt>
      <trkpt lat="45.863291937857866" lon="8.7261129822582">
        <ele>670.34</ele>
        <time>2024-05-28T13:36:06.978Z</time>
      </trkpt>
      <trkpt lat="45.86326997727156" lon="8.726141983643174">
        <ele>670.45</ele>
        <time>2024-05-28T13:36:10.841Z</time>
      </trkpt>
      <trkpt lat="45.86325296200812" lon="8.726167967543006">
        <ele>670.55</ele>
        <time>2024-05-28T13:36:14.705Z</time>
      </trkpt>
      <trkpt lat="45.8632349409163" lon="8.726184982806444">
        <ele>670.66</ele>
        <time>2024-05-28T13:36:18.570Z</time>
      </trkpt>
      <trkpt lat="45.86321499198675" lon="8.72622194699943">
        <ele>670.77</ele>
        <time>2024-05-28T13:36:22.436Z</time>
      </trkpt>
      <trkpt lat="45.863199988380075" lon="8.726251954212785">
        <ele>670.89</ele>
        <time>2024-05-28T13:36:26.303Z</time>
      </trkpt>
      <trkpt lat="45.86318699643016" lon="8.726274920627475">
        <ele>671.0</ele>
        <time>2024-05-28T13:36:30.171Z</time>
      </trkpt>
      <trkpt lat="45.863157995045185" lon="8.726297970861197">
        <ele>671.11</ele>
        <time>2024-05-28T13:36:34.040Z</time>
      </trkpt>
      <trkpt lat="45.86313192732632" lon="8.726311968639493">
        <ele>671.21</ele>
        <time>2024-05-28T13:36:37.910Z</time>
      </trkpt>
      <trkpt lat="45.863112984225154" lon="8.726319931447506">
        <ele>671.32</ele>
        <time>2024-05-28T13:36:41.780Z</time>
      </trkpt>
      <trkpt lat="45.86308691650629" lon="8.726336946710944">
        <ele>671.42</ele>
        <time>2024-05-28T13:36:45.651Z</time>
      </trkpt>
      <trkpt lat="45.86306797340512" lon="8.726356979459524">
        <ele>671.53</ele>
        <time>2024-05-28T13:36:49.523Z</time>
      </trkpt>
      <trkpt lat="45.863051963970065" lon="8.726372988894582">
        <ele>671.63</ele>
        <time>2024-05-28T13:36:53.396Z</time>
      </trkpt>
      <trkpt lat="45.863029919564724" lon="8.726406935602427">
        <ele>671.72</ele>
        <time>2024-05-28T13:36:57.270Z</time>
      </trkpt>
      <trkpt lat="45.86301298812032" lon="8.72643694281578">
        <ele>671.81</ele>
        <time>2024-05-28T13:37:01.145Z</time>
      </trkpt>
      <trkpt lat="45.8629999961704" lon="8.726457981392741">
        <ele>671.9</ele>
        <time>2024-05-28T13:37:05.020Z</time>
      </trkpt>
      <trkpt lat="45.86298197507858" lon="8.726481953635812">
        <ele>671.98</ele>
        <time>2024-05-28T13:37:08.896Z</time>
      </trkpt>
      <trkpt lat="45.86295993067324" lon="8.726506931707263">
        <ele>672.05</ele>
        <time>2024-05-28T13:37:12.773Z</time>
      </trkpt>
      <trkpt lat="45.86293696425855" lon="8.726534927263856">
        <ele>672.12</ele>
        <time>2024-05-28T13:37:16.651Z</time>
      </trkpt>
      <trkpt lat="45.86291491985321" lon="8.726549930870533">
        <ele>672.17</ele>
        <time>2024-05-28T13:37:20.530Z</time>
      </trkpt>
      <trkpt lat="45.86287694983184" lon="8.726566946133971">
        <ele>672.22</ele>
        <time>2024-05-28T13:37:24.410Z</time>
      </trkpt>
      <trkpt lat="45.862859934568405" lon="8.726594941690564">
        <ele>672.27</ele>
        <time>2024-05-28T13:37:28.291Z</time>
      </trkpt>
      <trkpt lat="45.862834956496954" lon="8.726611956954002">
        <ele>672.31</ele>
        <time>2024-05-28T13:37:32.173Z</time>
      </trkpt>
      <trkpt lat="45.86280796676874" lon="8.726621931418777">
        <ele>672.33</ele>
        <time>2024-05-28T13:37:36.056Z</time>
      </trkpt>
      <trkpt lat="45.86278994567692" lon="8.726631989702582">
        <ele>672.34</ele>
        <time>2024-05-28T13:37:39.940Z</time>
      </trkpt>
      <trkpt lat="45.86275993846357" lon="8.72664699330926">
        <ele>672.33</ele>
        <time>2024-05-28T13:37:43.825Z</time>
      </trkpt>
      <trkpt lat="45.86273797787726" lon="8.726659985259175">
        <ele>672.32</ele>
        <time>2024-05-28T13:37:47.710Z</time>
      </trkpt>
      <trkpt lat="45.8627219684422" lon="8.726674988865852">
        <ele>672.3</ele>
        <time>2024-05-28T13:37:51.596Z</time>
      </trkpt>
      <trkpt lat="45.862709982320666" lon="8.726709941402078">
        <ele>672.27</ele>
        <time>2024-05-28T13:37:55.483Z</time>
      </trkpt>
      <trkpt lat="45.8627219684422" lon="8.726742966100574">
        <ele>672.24</ele>
        <time>2024-05-28T13:37:59.371Z</time>
      </trkpt>
      <trkpt lat="45.862731942906976" lon="8.726769955828786">
        <ele>672.19</ele>
        <time>2024-05-28T13:38:03.260Z</time>
      </trkpt>
      <trkpt lat="45.86273797787726" lon="8.726794933900237">
        <ele>672.12</ele>
        <time>2024-05-28T13:38:07.149Z</time>
      </trkpt>
      <trkpt lat="45.8627549931407" lon="8.72684195637703">
        <ele>672.05</ele>
        <time>2024-05-28T13:38:11.039Z</time>
      </trkpt>
      <trkpt lat="45.86275792680681" lon="8.726874981075525">
        <ele>671.95</ele>
        <time>2024-05-28T13:38:14.930Z</time>
      </trkpt>
      <trkpt lat="45.86275792680681" lon="8.726914962753654">
        <ele>671.83</ele>
        <time>2024-05-28T13:38:18.822Z</time>
      </trkpt>
      <trkpt lat="45.8627549931407" lon="8.726942958310246">
        <ele>671.7</ele>
        <time>2024-05-28T13:38:22.715Z</time>
      </trkpt>
      <trkpt lat="45.86273797787726" lon="8.72697195969522">
        <ele>671.54</ele>
        <time>2024-05-28T13:38:26.609Z</time>
      </trkpt>
      <trkpt lat="45.86271995678544" lon="8.726999955251813">
        <ele>671.36</ele>
        <time>2024-05-28T13:38:30.504Z</time>
      </trkpt>
      <trkpt lat="45.862689949572086" lon="8.727027950808406">
        <ele>671.15</ele>
        <time>2024-05-28T13:38:34.400Z</time>
      </trkpt>
      <trkpt lat="45.86266195401549" lon="8.727047983556986">
        <ele>670.93</ele>
        <time>2024-05-28T13:38:38.297Z</time>
      </trkpt>
      <trkpt lat="45.86263697594404" lon="8.727059969678521">
        <ele>670.68</ele>
        <time>2024-05-28T13:38:42.195Z</time>
      </trkpt>
      <trkpt lat="45.86260998621583" lon="8.727062987163663">
        <ele>670.41</ele>
        <time>2024-05-28T13:38:46.094Z</time>
      </trkpt>
      <trkpt lat="45.86258199065924" lon="8.727059969678521">
        <ele>670.12</ele>
        <time>2024-05-28T13:38:49.993Z</time>
      </trkpt>
      <trkpt lat="45.862556928768754" lon="8.727067932486534">
        <ele>669.8</ele>
        <time>2024-05-28T13:38:53.893Z</time>
      </trkpt>
      <trkpt lat="45.86253295652568" lon="8.727072961628437">
        <ele>669.47</ele>
        <time>2024-05-28T13:38:57.794Z</time>
      </trkpt>
      <trkpt lat="45.86250496096909" lon="8.72707991860807">
        <ele>669.12</ele>
        <time>2024-05-28T13:39:01.696Z</time>
      </trkpt>
      <trkpt lat="45.8624769654125" lon="8.727086959406734">
        <ele>668.75</ele>
        <time>2024-05-28T13:39:05.599Z</time>
      </trkpt>
      <trkpt lat="45.86243991740048" lon="8.727086959406734">
        <ele>668.36</ele>
        <time>2024-05-28T13:39:09.503Z</time>
      </trkpt>
      <trkpt lat="45.86241795681417" lon="8.727082936093211">
        <ele>667.96</ele>
        <time>2024-05-28T13:39:13.408Z</time>
      </trkpt>
      <trkpt lat="45.86239297874272" lon="8.727082936093211">
        <ele>667.54</ele>
        <time>2024-05-28T13:39:17.314Z</time>
      </trkpt>
      <trkpt lat="45.86235199123621" lon="8.727092994377017">
        <ele>667.1</ele>
        <time>2024-05-28T13:39:21.221Z</time>
      </trkpt>
      <trkpt lat="45.862302957102656" lon="8.72707991860807">
        <ele>666.64</ele>
        <time>2024-05-28T13:39:25.130Z</time>
      </trkpt>
      <trkpt lat="45.862277979031205" lon="8.727052928879857">
        <ele>666.16</ele>
        <time>2024-05-28T13:39:29.040Z</time>
      </trkpt>
      <trkpt lat="45.86225492879748" lon="8.727022921666503">
        <ele>665.68</ele>
        <time>2024-05-28T13:39:32.951Z</time>
      </trkpt>
      <trkpt lat="45.862236991524696" lon="8.726999955251813">
        <ele>665.19</ele>
        <time>2024-05-28T13:39:36.863Z</time>
      </trkpt>
      <trkpt lat="45.862216958776116" lon="8.726986963301897">
        <ele>664.69</ele>
        <time>2024-05-28T13:39:40.776Z</time>
      </trkpt>
      <trkpt lat="45.86219994351268" lon="8.726954944431782">
        <ele>664.17</ele>
        <time>2024-05-28T13:39:44.689Z</time>
      </trkpt>
      <trkpt lat="45.86215996183455" lon="8.72694798745215">
        <ele>663.64</ele>
        <time>2024-05-28T13:39:48.604Z</time>
      </trkpt>
      <trkpt lat="45.86213699541986" lon="8.72694798745215">
        <ele>663.12</ele>
        <time>2024-05-28T13:39:52.520Z</time>
      </trkpt>
      <trkpt lat="45.862107994034886" lon="8.72694798745215">
        <ele>662.59</ele>
        <time>2024-05-28T13:39:56.437Z</time>
      </trkpt>
      <trkpt lat="45.862084943801165" lon="8.726932983845472">
        <ele>662.05</ele>
        <time>2024-05-28T13:40:00.354Z</time>
      </trkpt>
      <trkpt lat="45.862066922709346" lon="8.726942958310246">
        <ele>661.52</ele>
        <time>2024-05-28T13:40:04.272Z</time>
      </trkpt>
      <trkpt lat="45.8620469737798" lon="8.72694999910891">
        <ele>660.99</ele>
        <time>2024-05-28T13:40:08.191Z</time>
      </trkpt>
      <trkpt lat="45.8620279468596" lon="8.726942958310246">
        <ele>660.44</ele>
        <time>2024-05-28T13:40:12.110Z</time>
      </trkpt>
      <trkpt lat="45.86200799793005" lon="8.726934995502234">
        <ele>659.9</ele>
        <time>2024-05-28T13:40:16.030Z</time>
      </trkpt>
      <trkpt lat="45.86198997683823" lon="8.726919991895556">
        <ele>659.35</ele>
        <time>2024-05-28T13:40:19.951Z</time>
      </trkpt>
      <trkpt lat="45.86197296157479" lon="8.726901970803738">
        <ele>658.81</ele>
        <time>2024-05-28T13:40:23.872Z</time>
      </trkpt>
      <trkpt lat="45.86194798350334" lon="8.726887973025441">
        <ele>658.26</ele>
        <time>2024-05-28T13:40:27.794Z</time>
      </trkpt>
      <trkpt lat="45.86192493326962" lon="8.726877998560667">
        <ele>657.72</ele>
        <time>2024-05-28T13:40:31.717Z</time>
      </trkpt>
      <trkpt lat="45.86190699599683" lon="8.726867940276861">
        <ele>657.19</ele>
        <time>2024-05-28T13:40:35.641Z</time>
      </trkpt>
      <trkpt lat="45.86188293993473" lon="8.726859977468848">
        <ele>656.66</ele>
        <time>2024-05-28T13:40:39.566Z</time>
      </trkpt>
      <trkpt lat="45.861847987398505" lon="8.726857965812087">
        <ele>656.13</ele>
        <time>2024-05-28T13:40:43.492Z</time>
      </trkpt>
      <trkpt lat="45.86181999184191" lon="8.726874981075525">
        <ele>655.62</ele>
        <time>2024-05-28T13:40:47.419Z</time>
      </trkpt>
      <trkpt lat="45.86179995909333" lon="8.7268849555403">
        <ele>655.12</ele>
        <time>2024-05-28T13:40:51.347Z</time>
      </trkpt>
      <trkpt lat="45.861764922738075" lon="8.726882943883538">
        <ele>654.62</ele>
        <time>2024-05-28T13:40:55.276Z</time>
      </trkpt>
      <trkpt lat="45.861739944666624" lon="8.726887973025441">
        <ele>654.14</ele>
        <time>2024-05-28T13:40:59.206Z</time>
      </trkpt>
      <trkpt lat="45.861719995737076" lon="8.726894930005074">
        <ele>653.68</ele>
        <time>2024-05-28T13:41:03.136Z</time>
      </trkpt>
      <trkpt lat="45.861697951331735" lon="8.726899959146976">
        <ele>653.22</ele>
        <time>2024-05-28T13:41:07.067Z</time>
      </trkpt>
      <trkpt lat="45.861679930239916" lon="8.726902976632118">
        <ele>652.78</ele>
        <time>2024-05-28T13:41:10.999Z</time>
      </trkpt>
      <trkpt lat="45.86165998131037" lon="8.726914962753654">
        <ele>652.35</ele>
        <time>2024-05-28T13:41:14.931Z</time>
      </trkpt>
      <trkpt lat="45.86164296604693" lon="8.72692795470357">
        <ele>651.92</ele>
        <time>2024-05-28T13:41:18.864Z</time>
      </trkpt>
      <trkpt lat="45.86162494495511" lon="8.726939940825105">
        <ele>651.51</ele>
        <time>2024-05-28T13:41:22.798Z</time>
      </trkpt>
      <trkpt lat="45.86160499602556" lon="8.726941952481866">
        <ele>651.1</ele>
        <time>2024-05-28T13:41:26.732Z</time>
      </trkpt>
      <trkpt lat="45.86158295162022" lon="8.72694999910891">
        <ele>650.71</ele>
        <time>2024-05-28T13:41:30.667Z</time>
      </trkpt>
      <trkpt lat="45.86155998520553" lon="8.726961985230446">
        <ele>650.33</ele>
        <time>2024-05-28T13:41:34.603Z</time>
      </trkpt>
      <trkpt lat="45.86154196411371" lon="8.726974977180362">
        <ele>649.97</ele>
        <time>2024-05-28T13:41:38.539Z</time>
      </trkpt>
      <trkpt lat="45.8615099452436" lon="8.727007918059826">
        <ele>649.62</ele>
        <time>2024-05-28T13:41:42.477Z</time>
      </trkpt>
      <trkpt lat="45.86147993803024" lon="8.727032979950309">
        <ele>649.28</ele>
        <time>2024-05-28T13:41:46.416Z</time>
      </trkpt>
      <trkpt lat="45.86145797744393" lon="8.72705695219338">
        <ele>648.97</ele>
        <time>2024-05-28T13:41:50.356Z</time>
      </trkpt>
      <trkpt lat="45.8614269644022" lon="8.72707698494196">
        <ele>648.66</ele>
        <time>2024-05-28T13:41:54.297Z</time>
      </trkpt>
      <trkpt lat="45.861399974673986" lon="8.727092994377017">
        <ele>648.36</ele>
        <time>2024-05-28T13:41:58.239Z</time>
      </trkpt>
      <trkpt lat="45.861377930268645" lon="8.727112943306565">
        <ele>648.08</ele>
        <time>2024-05-28T13:42:02.182Z</time>
      </trkpt>
      <trkpt lat="45.861352952197194" lon="8.727136999368668">
        <ele>647.81</ele>
        <time>2024-05-28T13:42:06.126Z</time>
      </trkpt>
      <trkpt lat="45.861329985782504" lon="8.727156948298216">
        <ele>647.55</ele>
        <time>2024-05-28T13:42:10.071Z</time>
      </trkpt>
      <trkpt lat="45.86130794137716" lon="8.727179998531938">
        <ele>647.3</ele>
        <time>2024-05-28T13:42:14.017Z</time>
      </trkpt>
      <trkpt lat="45.86127994582057" lon="8.727204976603389">
        <ele>647.07</ele>
        <time>2024-05-28T13:42:17.964Z</time>
      </trkpt>
      <trkpt lat="45.86124298162758" lon="8.727226937189698">
        <ele>646.83</ele>
        <time>2024-05-28T13:42:21.912Z</time>
      </trkpt>
      <trkpt lat="45.861224960535765" lon="8.727239929139614">
        <ele>646.62</ele>
        <time>2024-05-28T13:42:25.861Z</time>
      </trkpt>
      <trkpt lat="45.86119998246431" lon="8.727257950231433">
        <ele>646.42</ele>
        <time>2024-05-28T13:42:29.811Z</time>
      </trkpt>
      <trkpt lat="45.86116997525096" lon="8.727276977151632">
        <ele>646.23</ele>
        <time>2024-05-28T13:42:33.762Z</time>
      </trkpt>
      <trkpt lat="45.86111691780388" lon="8.727319976314902">
        <ele>646.06</ele>
        <time>2024-05-28T13:42:37.715Z</time>
      </trkpt>
      <trkpt lat="45.8610799536109" lon="8.727356940507889">
        <ele>645.9</ele>
        <time>2024-05-28T13:42:41.669Z</time>
      </trkpt>
      <trkpt lat="45.86104793474078" lon="8.727369932457805">
        <ele>645.74</ele>
        <time>2024-05-28T13:42:45.624Z</time>
      </trkpt>
      <trkpt lat="45.86101298220456" lon="8.727376973256469">
        <ele>645.59</ele>
        <time>2024-05-28T13:42:49.581Z</time>
      </trkpt>
      <trkpt lat="45.86097492836416" lon="8.727399939671159">
        <ele>645.45</ele>
        <time>2024-05-28T13:42:53.539Z</time>
      </trkpt>
      <trkpt lat="45.86094995029271" lon="8.72742298990488">
        <ele>645.33</ele>
        <time>2024-05-28T13:42:57.498Z</time>
      </trkpt>
      <trkpt lat="45.86091793142259" lon="8.727439921349287">
        <ele>645.22</ele>
        <time>2024-05-28T13:43:01.458Z</time>
      </trkpt>
      <trkpt lat="45.86088792420924" lon="8.727452997118235">
        <ele>645.12</ele>
        <time>2024-05-28T13:43:05.419Z</time>
      </trkpt>
      <trkpt lat="45.860856994986534" lon="8.72746791690588">
        <ele>645.03</ele>
        <time>2024-05-28T13:43:09.381Z</time>
      </trkpt>
      <trkpt lat="45.86082799360156" lon="8.727479986846447">
        <ele>644.95</ele>
        <time>2024-05-28T13:43:13.344Z</time>
      </trkpt>
      <trkpt lat="45.860772924497724" lon="8.72752994298935">
        <ele>644.89</ele>
        <time>2024-05-28T13:43:17.309Z</time>
      </trkpt>
      <trkpt lat="45.86074794642627" lon="8.72754997573793">
        <ele>644.83</ele>
        <time>2024-05-28T13:43:21.275Z</time>
      </trkpt>
      <trkpt lat="45.86071995086968" lon="8.727577971294522">
        <ele>644.79</ele>
        <time>2024-05-28T13:43:25.243Z</time>
      </trkpt>
      <trkpt lat="45.86069296114147" lon="8.727601943537593">
        <ele>644.75</ele>
        <time>2024-05-28T13:43:29.212Z</time>
      </trkpt>
      <trkpt lat="45.860664965584874" lon="8.727626921609044">
        <ele>644.72</ele>
        <time>2024-05-28T13:43:33.182Z</time>
      </trkpt>
      <trkpt lat="45.86063294671476" lon="8.727652989327908">
        <ele>644.69</ele>
        <time>2024-05-28T13:43:37.153Z</time>
      </trkpt>
      <trkpt lat="45.860602939501405" lon="8.727667992934585">
        <ele>644.67</ele>
        <time>2024-05-28T13:43:41.125Z</time>
      </trkpt>
      <trkpt lat="45.860577961429954" lon="8.727687941864133">
        <ele>644.67</ele>
        <time>2024-05-28T13:43:45.098Z</time>
      </trkpt>
      <trkpt lat="45.8605529833585" lon="8.727707974612713">
        <ele>644.67</ele>
        <time>2024-05-28T13:43:49.072Z</time>
      </trkpt>
      <trkpt lat="45.86052993312478" lon="8.727731946855783">
        <ele>644.68</ele>
        <time>2024-05-28T13:43:53.047Z</time>
      </trkpt>
      <trkpt lat="45.860511995851994" lon="8.72774695046246">
        <ele>644.69</ele>
        <time>2024-05-28T13:43:57.023Z</time>
      </trkpt>
      <trkpt lat="45.860491963103414" lon="8.727762959897518">
        <ele>644.71</ele>
        <time>2024-05-28T13:44:00.999Z</time>
      </trkpt>
      <trkpt lat="45.86046991869807" lon="8.727786932140589">
        <ele>644.74</ele>
        <time>2024-05-28T13:44:04.976Z</time>
      </trkpt>
      <trkpt lat="45.86043999530375" lon="8.72780797071755">
        <ele>644.77</ele>
        <time>2024-05-28T13:44:08.954Z</time>
      </trkpt>
      <trkpt lat="45.86042792536318" lon="8.727826997637749">
        <ele>644.81</ele>
        <time>2024-05-28T13:44:12.933Z</time>
      </trkpt>
      <trkpt lat="45.860407976433635" lon="8.727842923253775">
        <ele>644.85</ele>
        <time>2024-05-28T13:44:16.913Z</time>
      </trkpt>
      <trkpt lat="45.86039297282696" lon="8.727861950173974">
        <ele>644.89</ele>
        <time>2024-05-28T13:44:20.893Z</time>
      </trkpt>
      <trkpt lat="45.8603769633919" lon="8.727877959609032">
        <ele>644.94</ele>
        <time>2024-05-28T13:44:24.874Z</time>
      </trkpt>
      <trkpt lat="45.86035198532045" lon="8.727911990135908">
        <ele>644.99</ele>
        <time>2024-05-28T13:44:28.856Z</time>
      </trkpt>
      <trkpt lat="45.86033798754215" lon="8.727939985692501">
        <ele>645.04</ele>
        <time>2024-05-28T13:44:32.839Z</time>
      </trkpt>
      <trkpt lat="45.86032499559224" lon="8.727969992905855">
        <ele>645.1</ele>
        <time>2024-05-28T13:44:36.823Z</time>
      </trkpt>
      <trkpt lat="45.86030999198556" lon="8.72802497819066">
        <ele>645.16</ele>
        <time>2024-05-28T13:44:40.808Z</time>
      </trkpt>
      <trkpt lat="45.860299933701754" lon="8.728059930726886">
        <ele>645.22</ele>
        <time>2024-05-28T13:44:44.794Z</time>
      </trkpt>
      <trkpt lat="45.860279984772205" lon="8.728116927668452">
        <ele>645.28</ele>
        <time>2024-05-28T13:44:48.782Z</time>
      </trkpt>
      <trkpt lat="45.86025492288172" lon="8.728156993165612">
        <ele>645.32</ele>
        <time>2024-05-28T13:44:52.771Z</time>
      </trkpt>
      <trkpt lat="45.860236985608935" lon="8.728212984278798">
        <ele>645.37</ele>
        <time>2024-05-28T13:44:56.761Z</time>
      </trkpt>
      <trkpt lat="45.8602199703455" lon="8.728274926543236">
        <ele>645.42</ele>
        <time>2024-05-28T13:45:00.753Z</time>
      </trkpt>
      <trkpt lat="45.86021292954683" lon="8.728327983990312">
        <ele>645.47</ele>
        <time>2024-05-28T13:45:04.746Z</time>
      </trkpt>
      <trkpt lat="45.86018795147538" lon="8.728374922648072">
        <ele>645.51</ele>
        <time>2024-05-28T13:45:08.740Z</time>
      </trkpt>
      <trkpt lat="45.8601369895041" lon="8.72841197066009">
        <ele>645.53</ele>
        <time>2024-05-28T13:45:12.736Z</time>
      </trkpt>
      <trkpt lat="45.86012693122029" lon="8.728446923196316">
        <ele>645.56</ele>
        <time>2024-05-28T13:45:16.733Z</time>
      </trkpt>
      <trkpt lat="45.86011494509876" lon="8.728487994521856">
        <ele>645.58</ele>
        <time>2024-05-28T13:45:20.731Z</time>
      </trkpt>
      <trkpt lat="45.860087955370545" lon="8.728522947058082">
        <ele>645.58</ele>
        <time>2024-05-28T13:45:24.730Z</time>
      </trkpt>
      <trkpt lat="45.86007697507739" lon="8.728557983413339">
        <ele>645.58</ele>
        <time>2024-05-28T13:45:28.730Z</time>
      </trkpt>
      <trkpt lat="45.86005694232881" lon="8.728597965091467">
        <ele>645.57</ele>
        <time>2024-05-28T13:45:32.731Z</time>
      </trkpt>
      <trkpt lat="45.86003799922764" lon="8.72864498756826">
        <ele>645.56</ele>
        <time>2024-05-28T13:45:36.734Z</time>
      </trkpt>
      <trkpt lat="45.86001494899392" lon="8.728684969246387">
        <ele>645.54</ele>
        <time>2024-05-28T13:45:40.738Z</time>
      </trkpt>
      <trkpt lat="45.859982930123806" lon="8.728706929832697">
        <ele>645.5</ele>
        <time>2024-05-28T13:45:44.743Z</time>
      </trkpt>
      <trkpt lat="45.85995493456721" lon="8.728729980066419">
        <ele>645.45</ele>
        <time>2024-05-28T13:45:48.749Z</time>
      </trkpt>
      <trkpt lat="45.859916964545846" lon="8.728741966187954">
        <ele>645.39</ele>
        <time>2024-05-28T13:45:52.757Z</time>
      </trkpt>
      <trkpt lat="45.859896931797266" lon="8.728756969794631">
        <ele>645.32</ele>
        <time>2024-05-28T13:45:56.765Z</time>
      </trkpt>
      <trkpt lat="45.85987497121096" lon="8.728769961744547">
        <ele>645.25</ele>
        <time>2024-05-28T13:46:00.774Z</time>
      </trkpt>
      <trkpt lat="45.85985493846238" lon="8.728782953694463">
        <ele>645.16</ele>
        <time>2024-05-28T13:46:04.784Z</time>
      </trkpt>
      <trkpt lat="45.8598399348557" lon="8.72879695147276">
        <ele>645.07</ele>
        <time>2024-05-28T13:46:08.794Z</time>
      </trkpt>
      <trkpt lat="45.85982291959226" lon="8.728809943422675">
        <ele>644.96</ele>
        <time>2024-05-28T13:46:12.805Z</time>
      </trkpt>
      <trkpt lat="45.85979492403567" lon="8.728836933150887">
        <ele>644.85</ele>
        <time>2024-05-28T13:46:16.817Z</time>
      </trkpt>
      <trkpt lat="45.85977497510612" lon="8.72885998338461">
        <ele>644.72</ele>
        <time>2024-05-28T13:46:20.830Z</time>
      </trkpt>
      <trkpt lat="45.8597569540143" lon="8.728879932314157">
        <ele>644.59</ele>
        <time>2024-05-28T13:46:24.844Z</time>
      </trkpt>
      <trkpt lat="45.85972996428609" lon="8.728899965062737">
        <ele>644.44</ele>
        <time>2024-05-28T13:46:28.859Z</time>
      </trkpt>
      <trkpt lat="45.85969492793083" lon="8.728922931477427">
        <ele>644.29</ele>
        <time>2024-05-28T13:46:32.875Z</time>
      </trkpt>
      <trkpt lat="45.85966693237424" lon="8.728954950347543">
        <ele>644.13</ele>
        <time>2024-05-28T13:46:36.892Z</time>
      </trkpt>
      <trkpt lat="45.859634997323155" lon="8.728987975046039">
        <ele>643.97</ele>
        <time>2024-05-28T13:46:40.911Z</time>
      </trkpt>
      <trkpt lat="45.85958696901798" lon="8.729022927582264">
        <ele>643.8</ele>
        <time>2024-05-28T13:46:44.931Z</time>
      </trkpt>
      <trkpt lat="45.859551932662725" lon="8.72905494645238">
        <ele>643.61</ele>
        <time>2024-05-28T13:46:48.953Z</time>
      </trkpt>
      <trkpt lat="45.85952494293451" lon="8.729067938402295">
        <ele>643.43</ele>
        <time>2024-05-28T13:46:52.976Z</time>
      </trkpt>
      <trkpt lat="45.859502982348204" lon="8.729062993079424">
        <ele>643.24</ele>
        <time>2024-05-28T13:46:56.999Z</time>
      </trkpt>
      <trkpt lat="45.85947792045772" lon="8.729071961715817">
        <ele>643.05</ele>
        <time>2024-05-28T13:47:01.023Z</time>
      </trkpt>
      <trkpt lat="45.85945193655789" lon="8.729081936180592">
        <ele>642.85</ele>
        <time>2024-05-28T13:47:05.048Z</time>
      </trkpt>
      <trkpt lat="45.85941296070814" lon="8.729112949222326">
        <ele>642.65</ele>
        <time>2024-05-28T13:47:09.075Z</time>
      </trkpt>
      <trkpt lat="45.85936493240297" lon="8.7291419506073">
        <ele>642.44</ele>
        <time>2024-05-28T13:47:13.103Z</time>
      </trkpt>
      <trkpt lat="45.85932293906808" lon="8.729172963649035">
        <ele>642.24</ele>
        <time>2024-05-28T13:47:17.133Z</time>
      </trkpt>
      <trkpt lat="45.859287986531854" lon="8.729202970862389">
        <ele>642.03</ele>
        <time>2024-05-28T13:47:21.164Z</time>
      </trkpt>
      <trkpt lat="45.85925999097526" lon="8.729222919791937">
        <ele>641.83</ele>
        <time>2024-05-28T13:47:25.196Z</time>
      </trkpt>
      <trkpt lat="45.859224954620004" lon="8.729239935055375">
        <ele>641.63</ele>
        <time>2024-05-28T13:47:29.230Z</time>
      </trkpt>
      <trkpt lat="45.85919997654855" lon="8.729239935055375">
        <ele>641.44</ele>
        <time>2024-05-28T13:47:33.264Z</time>
      </trkpt>
      <trkpt lat="45.85917692631483" lon="8.729236917570233">
        <ele>641.24</ele>
        <time>2024-05-28T13:47:37.299Z</time>
      </trkpt>
      <trkpt lat="45.85914792492986" lon="8.729241946712136">
        <ele>641.05</ele>
        <time>2024-05-28T13:47:41.335Z</time>
      </trkpt>
      <trkpt lat="45.859116995707154" lon="8.729252927005291">
        <ele>640.87</ele>
        <time>2024-05-28T13:47:45.372Z</time>
      </trkpt>
      <trkpt lat="45.85910995490849" lon="8.72928997501731">
        <ele>640.69</ele>
        <time>2024-05-28T13:47:49.410Z</time>
      </trkpt>
      <trkpt lat="45.859121941030025" lon="8.72931495308876">
        <ele>640.53</ele>
        <time>2024-05-28T13:47:53.449Z</time>
      </trkpt>
      <trkpt lat="45.85913493297994" lon="8.729341942816973">
        <ele>640.37</ele>
        <time>2024-05-28T13:47:57.489Z</time>
      </trkpt>
      <trkpt lat="45.85913795046508" lon="8.72939994558692">
        <ele>640.21</ele>
        <time>2024-05-28T13:48:01.530Z</time>
      </trkpt>
      <trkpt lat="45.85912797600031" lon="8.729431964457035">
        <ele>640.06</ele>
        <time>2024-05-28T13:48:05.572Z</time>
      </trkpt>
      <trkpt lat="45.859121941030025" lon="8.72946197167039">
        <ele>639.91</ele>
        <time>2024-05-28T13:48:09.615Z</time>
      </trkpt>
      <trkpt lat="45.85910995490849" lon="8.729499941691756">
        <ele>639.77</ele>
        <time>2024-05-28T13:48:13.659Z</time>
      </trkpt>
      <trkpt lat="45.85910995490849" lon="8.72952994890511">
        <ele>639.64</ele>
        <time>2024-05-28T13:48:17.703Z</time>
      </trkpt>
      <trkpt lat="45.859121941030025" lon="8.729584934189916">
        <ele>639.52</ele>
        <time>2024-05-28T13:48:21.749Z</time>
      </trkpt>
      <trkpt lat="45.85912495851517" lon="8.72961494140327">
        <ele>639.41</ele>
        <time>2024-05-28T13:48:25.795Z</time>
      </trkpt>
      <trkpt lat="45.859121941030025" lon="8.729667998850346">
        <ele>639.3</ele>
        <time>2024-05-28T13:48:29.843Z</time>
      </trkpt>
      <trkpt lat="45.859121941030025" lon="8.72969993390143">
        <ele>639.2</ele>
        <time>2024-05-28T13:48:33.891Z</time>
      </trkpt>
      <trkpt lat="45.859121941030025" lon="8.729734970256686">
        <ele>639.1</ele>
        <time>2024-05-28T13:48:37.940Z</time>
      </trkpt>
      <trkpt lat="45.859121941030025" lon="8.729774951934814">
        <ele>639.02</ele>
        <time>2024-05-28T13:48:41.990Z</time>
      </trkpt>
      <trkpt lat="45.8591179177165" lon="8.729812921956182">
        <ele>638.94</ele>
        <time>2024-05-28T13:48:46.041Z</time>
      </trkpt>
      <trkpt lat="45.859121941030025" lon="8.729842929169536">
        <ele>638.87</ele>
        <time>2024-05-28T13:48:50.093Z</time>
      </trkpt>
      <trkpt lat="45.85912495851517" lon="8.72987193055451">
        <ele>638.81</ele>
        <time>2024-05-28T13:48:54.145Z</time>
      </trkpt>
      <trkpt lat="45.85913493297994" lon="8.729902943596244">
        <ele>638.75</ele>
        <time>2024-05-28T13:48:58.198Z</time>
      </trkpt>
      <trkpt lat="45.85913795046508" lon="8.72993697412312">
        <ele>638.71</ele>
        <time>2024-05-28T13:49:02.252Z</time>
      </trkpt>
      <trkpt lat="45.859141973778605" lon="8.729964969679713">
        <ele>638.67</ele>
        <time>2024-05-28T13:49:06.307Z</time>
      </trkpt>
      <trkpt lat="45.85914792492986" lon="8.729991959407926">
        <ele>638.64</ele>
        <time>2024-05-28T13:49:10.362Z</time>
      </trkpt>
      <trkpt lat="45.85914792492986" lon="8.730026995763183">
        <ele>638.61</ele>
        <time>2024-05-28T13:49:14.418Z</time>
      </trkpt>
      <trkpt lat="45.85914792492986" lon="8.730057924985886">
        <ele>638.59</ele>
        <time>2024-05-28T13:49:18.475Z</time>
      </trkpt>
      <trkpt lat="45.85914499126375" lon="8.73008692637086">
        <ele>638.58</ele>
        <time>2024-05-28T13:49:22.532Z</time>
      </trkpt>
      <trkpt lat="45.85913795046508" lon="8.730114921927452">
        <ele>638.57</ele>
        <time>2024-05-28T13:49:26.590Z</time>
      </trkpt>
      <trkpt lat="45.85913493297994" lon="8.730139983817935">
        <ele>638.57</ele>
        <time>2024-05-28T13:49:30.649Z</time>
      </trkpt>
      <trkpt lat="45.85912495851517" lon="8.730184994637966">
        <ele>638.58</ele>
        <time>2024-05-28T13:49:34.709Z</time>
      </trkpt>
      <trkpt lat="45.8591179177165" lon="8.730222964659333">
        <ele>638.59</ele>
        <time>2024-05-28T13:49:38.770Z</time>
      </trkpt>
      <trkpt lat="45.85910299792886" lon="8.73025992885232">
        <ele>638.61</ele>
        <time>2024-05-28T13:49:42.832Z</time>
      </trkpt>
      <trkpt lat="45.85908992215991" lon="8.73029999434948">
        <ele>638.64</ele>
        <time>2024-05-28T13:49:46.895Z</time>
      </trkpt>
      <trkpt lat="45.859079947695136" lon="8.730339976027608">
        <ele>638.68</ele>
        <time>2024-05-28T13:49:50.959Z</time>
      </trkpt>
      <trkpt lat="45.85907491855323" lon="8.730379957705736">
        <ele>638.72</ele>
        <time>2024-05-28T13:49:55.024Z</time>
      </trkpt>
      <trkpt lat="45.85906494408846" lon="8.730414994060993">
        <ele>638.76</ele>
        <time>2024-05-28T13:49:59.090Z</time>
      </trkpt>
      <trkpt lat="45.85904499515891" lon="8.730442989617586">
        <ele>638.81</ele>
        <time>2024-05-28T13:50:03.157Z</time>
      </trkpt>
      <trkpt lat="45.85903996601701" lon="8.730481965467334">
        <ele>638.86</ele>
        <time>2024-05-28T13:50:07.224Z</time>
      </trkpt>
      <trkpt lat="45.85903996601701" lon="8.730507949367166">
        <ele>638.93</ele>
        <time>2024-05-28T13:50:11.292Z</time>
      </trkpt>
      <trkpt lat="45.85903996601701" lon="8.730556983500719">
        <ele>638.99</ele>
        <time>2024-05-28T13:50:15.361Z</time>
      </trkpt>
      <trkpt lat="45.85904197767377" lon="8.730599982663989">
        <ele>639.07</ele>
        <time>2024-05-28T13:50:19.431Z</time>
      </trkpt>
      <trkpt lat="45.85904499515891" lon="8.730652956292033">
        <ele>639.15</ele>
        <time>2024-05-28T13:50:23.502Z</time>
      </trkpt>
      <trkpt lat="45.85904197767377" lon="8.73071196489036">
        <ele>639.23</ele>
        <time>2024-05-28T13:50:27.575Z</time>
      </trkpt>
      <trkpt lat="45.85903996601701" lon="8.730766950175166">
        <ele>639.31</ele>
        <time>2024-05-28T13:50:31.649Z</time>
      </trkpt>
      <trkpt lat="45.85904197767377" lon="8.730799974873662">
        <ele>639.4</ele>
        <time>2024-05-28T13:50:35.724Z</time>
      </trkpt>
      <trkpt lat="45.85904499515891" lon="8.730826964601874">
        <ele>639.5</ele>
        <time>2024-05-28T13:50:39.799Z</time>
      </trkpt>
      <trkpt lat="45.859054969623685" lon="8.730851942673326">
        <ele>639.6</ele>
        <time>2024-05-28T13:50:43.875Z</time>
      </trkpt>
      <trkpt lat="45.85906494408846" lon="8.730896953493357">
        <ele>639.7</ele>
        <time>2024-05-28T13:50:47.952Z</time>
      </trkpt>
      <trkpt lat="45.859079947695136" lon="8.730947999283671">
        <ele>639.81</ele>
        <time>2024-05-28T13:50:52.031Z</time>
      </trkpt>
      <trkpt lat="45.85908296518028" lon="8.730976916849613">
        <ele>639.92</ele>
        <time>2024-05-28T13:50:56.110Z</time>
      </trkpt>
      <trkpt lat="45.8590869884938" lon="8.731009941548109">
        <ele>640.03</ele>
        <time>2024-05-28T13:51:00.190Z</time>
      </trkpt>
      <trkpt lat="45.859096962958574" lon="8.731039948761463">
        <ele>640.14</ele>
        <time>2024-05-28T13:51:04.271Z</time>
      </trkpt>
      <trkpt lat="45.859099980443716" lon="8.731072973459959">
        <ele>640.25</ele>
        <time>2024-05-28T13:51:08.353Z</time>
      </trkpt>
      <trkpt lat="45.85910299792886" lon="8.731107925996184">
        <ele>640.36</ele>
        <time>2024-05-28T13:51:12.435Z</time>
      </trkpt>
      <trkpt lat="45.859116995707154" lon="8.731134999543428">
        <ele>640.48</ele>
        <time>2024-05-28T13:51:16.518Z</time>
      </trkpt>
      <trkpt lat="45.85912495851517" lon="8.73116198927164">
        <ele>640.59</ele>
        <time>2024-05-28T13:51:20.602Z</time>
      </trkpt>
      <trkpt lat="45.859141973778605" lon="8.731186967343092">
        <ele>640.71</ele>
        <time>2024-05-28T13:51:24.687Z</time>
      </trkpt>
      <trkpt lat="45.85915496572852" lon="8.731212951242924">
        <ele>640.83</ele>
        <time>2024-05-28T13:51:28.772Z</time>
      </trkpt>
      <trkpt lat="45.859162928536534" lon="8.731242958456278">
        <ele>640.94</ele>
        <time>2024-05-28T13:51:32.858Z</time>
      </trkpt>
      <trkpt lat="45.85917298682034" lon="8.731272965669632">
        <ele>641.06</ele>
        <time>2024-05-28T13:51:36.945Z</time>
      </trkpt>
      <trkpt lat="45.859182961285114" lon="8.73131294734776">
        <ele>641.17</ele>
        <time>2024-05-28T13:51:41.033Z</time>
      </trkpt>
      <trkpt lat="45.85919695906341" lon="8.731359969824553">
        <ele>641.28</ele>
        <time>2024-05-28T13:51:45.122Z</time>
      </trkpt>
      <trkpt lat="45.85919997654855" lon="8.731392994523048">
        <ele>641.39</ele>
        <time>2024-05-28T13:51:49.212Z</time>
      </trkpt>
      <trkpt lat="45.85921799764037" lon="8.731437921524048">
        <ele>641.5</ele>
        <time>2024-05-28T13:51:53.303Z</time>
      </trkpt>
      <trkpt lat="45.859227972105145" lon="8.731471952050924">
        <ele>641.61</ele>
        <time>2024-05-28T13:51:57.395Z</time>
      </trkpt>
      <trkpt lat="45.85924297571182" lon="8.731497935950756">
        <ele>641.72</ele>
        <time>2024-05-28T13:52:01.488Z</time>
      </trkpt>
      <trkpt lat="45.85926694795489" lon="8.731539929285645">
        <ele>641.82</ele>
        <time>2024-05-28T13:52:05.582Z</time>
      </trkpt>
      <trkpt lat="45.85928195156157" lon="8.731569936499">
        <ele>641.92</ele>
        <time>2024-05-28T13:52:09.677Z</time>
      </trkpt>
      <trkpt lat="45.85930198431015" lon="8.731599943712354">
        <ele>642.02</ele>
        <time>2024-05-28T13:52:13.773Z</time>
      </trkpt>
      <trkpt lat="45.85931992158294" lon="8.731629950925708">
        <ele>642.12</ele>
        <time>2024-05-28T13:52:17.870Z</time>
      </trkpt>
      <trkpt lat="45.859336936846375" lon="8.731659958139062">
        <ele>642.21</ele>
        <time>2024-05-28T13:52:21.968Z</time>
      </trkpt>
      <trkpt lat="45.85934699513018" lon="8.731696922332048">
        <ele>642.3</ele>
        <time>2024-05-28T13:52:26.067Z</time>
      </trkpt>
      <trkpt lat="45.8593599870801" lon="8.731739921495318">
        <ele>642.39</ele>
        <time>2024-05-28T13:52:30.167Z</time>
      </trkpt>
      <trkpt lat="45.859374990686774" lon="8.731772946193814">
        <ele>642.47</ele>
        <time>2024-05-28T13:52:34.268Z</time>
      </trkpt>
      <trkpt lat="45.85938798263669" lon="8.731807982549071">
        <ele>642.54</ele>
        <time>2024-05-28T13:52:38.370Z</time>
      </trkpt>
      <trkpt lat="45.859399968758225" lon="8.731839917600155">
        <ele>642.61</ele>
        <time>2024-05-28T13:52:42.472Z</time>
      </trkpt>
      <trkpt lat="45.85941296070814" lon="8.731874953955412">
        <ele>642.68</ele>
        <time>2024-05-28T13:52:46.575Z</time>
      </trkpt>
      <trkpt lat="45.85942695848644" lon="8.731917953118682">
        <ele>642.75</ele>
        <time>2024-05-28T13:52:50.679Z</time>
      </trkpt>
      <trkpt lat="45.85943299345672" lon="8.731946954503655">
        <ele>642.82</ele>
        <time>2024-05-28T13:52:54.784Z</time>
      </trkpt>
      <trkpt lat="45.85943693295121" lon="8.731972938403487">
        <ele>642.89</ele>
        <time>2024-05-28T13:52:58.890Z</time>
      </trkpt>
      <trkpt lat="45.859439950436354" lon="8.73201996088028">
        <ele>642.95</ele>
        <time>2024-05-28T13:53:02.997Z</time>
      </trkpt>
      <trkpt lat="45.859441962093115" lon="8.732051979750395">
        <ele>643.02</ele>
        <time>2024-05-28T13:53:07.105Z</time>
      </trkpt>
      <trkpt lat="45.85945495404303" lon="8.732084920629859">
        <ele>643.1</ele>
        <time>2024-05-28T13:53:11.213Z</time>
      </trkpt>
      <trkpt lat="45.859464928507805" lon="8.732121968641877">
        <ele>643.17</ele>
        <time>2024-05-28T13:53:15.322Z</time>
      </trkpt>
      <trkpt lat="45.85947792045772" lon="8.732164967805147">
        <ele>643.25</ele>
        <time>2024-05-28T13:53:19.432Z</time>
      </trkpt>
      <trkpt lat="45.85949694737792" lon="8.732201931998134">
        <ele>643.32</ele>
        <time>2024-05-28T13:53:23.544Z</time>
      </trkpt>
      <trkpt lat="45.859506921842694" lon="8.73225498944521">
        <ele>643.4</ele>
        <time>2024-05-28T13:53:27.657Z</time>
      </trkpt>
      <trkpt lat="45.859502982348204" lon="8.732304945588112">
        <ele>643.47</ele>
        <time>2024-05-28T13:53:31.771Z</time>
      </trkpt>
      <trkpt lat="45.859502982348204" lon="8.732359930872917">
        <ele>643.55</ele>
        <time>2024-05-28T13:53:35.886Z</time>
      </trkpt>
      <trkpt lat="45.859506921842694" lon="8.732409970834851">
        <ele>643.63</ele>
        <time>2024-05-28T13:53:40.002Z</time>
      </trkpt>
      <trkpt lat="45.85952192544937" lon="8.732459926977754">
        <ele>643.72</ele>
        <time>2024-05-28T13:53:44.120Z</time>
      </trkpt>
      <trkpt lat="45.85953491739929" lon="8.732501920312643">
        <ele>643.81</ele>
        <time>2024-05-28T13:53:48.239Z</time>
      </trkpt>
      <trkpt lat="45.85953491739929" lon="8.732541985809803">
        <ele>643.91</ele>
        <time>2024-05-28T13:53:52.359Z</time>
      </trkpt>
      <trkpt lat="45.859551932662725" lon="8.732572998851538">
        <ele>644.02</ele>
        <time>2024-05-28T13:53:56.480Z</time>
      </trkpt>
      <trkpt lat="45.85955997928977" lon="8.732611974701285">
        <ele>644.13</ele>
        <time>2024-05-28T13:54:00.602Z</time>
      </trkpt>
      <trkpt lat="45.859572971239686" lon="8.73264198191464">
        <ele>644.25</ele>
        <time>2024-05-28T13:54:04.724Z</time>
      </trkpt>
      <trkpt lat="45.85958294570446" lon="8.732682969421148">
        <ele>644.38</ele>
        <time>2024-05-28T13:54:08.847Z</time>
      </trkpt>
      <trkpt lat="45.85959694348276" lon="8.73273292556405">
        <ele>644.51</ele>
        <time>2024-05-28T13:54:12.972Z</time>
      </trkpt>
      <trkpt lat="45.859611947089434" lon="8.732776930555701">
        <ele>644.66</ele>
        <time>2024-05-28T13:54:17.098Z</time>
      </trkpt>
      <trkpt lat="45.85962192155421" lon="8.732824958860874">
        <ele>644.81</ele>
        <time>2024-05-28T13:54:21.225Z</time>
      </trkpt>
      <trkpt lat="45.85965293459594" lon="8.732851948589087">
        <ele>644.98</ele>
        <time>2024-05-28T13:54:25.353Z</time>
      </trkpt>
      <trkpt lat="45.85966299287975" lon="8.732876926660538">
        <ele>645.14</ele>
        <time>2024-05-28T13:54:29.482Z</time>
      </trkpt>
      <trkpt lat="45.859676990658045" lon="8.732911963015795">
        <ele>645.32</ele>
        <time>2024-05-28T13:54:33.612Z</time>
      </trkpt>
      <trkpt lat="45.859681935980916" lon="8.732941970229149">
        <ele>645.49</ele>
        <time>2024-05-28T13:54:37.743Z</time>
      </trkpt>
      <trkpt lat="45.859697945415974" lon="8.732959991320968">
        <ele>645.69</ele>
        <time>2024-05-28T13:54:41.874Z</time>
      </trkpt>
      <trkpt lat="45.85971496067941" lon="8.732977928593755">
        <ele>645.9</ele>
        <time>2024-05-28T13:54:46.006Z</time>
      </trkpt>
      <trkpt lat="45.859722923487425" lon="8.733002990484238">
        <ele>646.11</ele>
        <time>2024-05-28T13:54:50.139Z</time>
      </trkpt>
      <trkpt lat="45.85973993875086" lon="8.73302998021245">
        <ele>646.33</ele>
        <time>2024-05-28T13:54:54.272Z</time>
      </trkpt>
      <trkpt lat="45.8597569540143" lon="8.733049929141998">
        <ele>646.56</ele>
        <time>2024-05-28T13:54:58.406Z</time>
      </trkpt>
      <trkpt lat="45.85977195762098" lon="8.733059987425804">
        <ele>646.81</ele>
        <time>2024-05-28T13:55:02.541Z</time>
      </trkpt>
      <trkpt lat="45.85979492403567" lon="8.73309493996203">
        <ele>647.06</ele>
        <time>2024-05-28T13:55:06.677Z</time>
      </trkpt>
      <trkpt lat="45.859809927642345" lon="8.733109943568707">
        <ele>647.32</ele>
        <time>2024-05-28T13:55:10.813Z</time>
      </trkpt>
      <trkpt lat="45.85981696844101" lon="8.733134921640158">
        <ele>647.58</ele>
        <time>2024-05-28T13:55:14.950Z</time>
      </trkpt>
      <trkpt lat="45.85981998592615" lon="8.733164928853512">
        <ele>647.85</ele>
        <time>2024-05-28T13:55:19.088Z</time>
      </trkpt>
      <trkpt lat="45.8598399348557" lon="8.733179932460189">
        <ele>648.13</ele>
        <time>2024-05-28T13:55:23.226Z</time>
      </trkpt>
      <trkpt lat="45.85986197926104" lon="8.733207928016782">
        <ele>648.42</ele>
        <time>2024-05-28T13:55:27.365Z</time>
      </trkpt>
      <trkpt lat="45.85987991653383" lon="8.733221925795078">
        <ele>648.72</ele>
        <time>2024-05-28T13:55:31.505Z</time>
      </trkpt>
      <trkpt lat="45.859916964545846" lon="8.733234917744994">
        <ele>649.03</ele>
        <time>2024-05-28T13:55:35.646Z</time>
      </trkpt>
      <trkpt lat="45.85995493456721" lon="8.733237935230136">
        <ele>649.36</ele>
        <time>2024-05-28T13:55:39.789Z</time>
      </trkpt>
      <trkpt lat="45.859979996457696" lon="8.733241958543658">
        <ele>649.68</ele>
        <time>2024-05-28T13:55:43.933Z</time>
      </trkpt>
      <trkpt lat="45.86000799201429" lon="8.733242964372039">
        <ele>650.01</ele>
        <time>2024-05-28T13:55:48.077Z</time>
      </trkpt>
      <trkpt lat="45.8600349817425" lon="8.733237935230136">
        <ele>650.35</ele>
        <time>2024-05-28T13:55:52.222Z</time>
      </trkpt>
      <trkpt lat="45.860062977299094" lon="8.733227960765362">
        <ele>650.7</ele>
        <time>2024-05-28T13:55:56.368Z</time>
      </trkpt>
      <trkpt lat="45.86009499616921" lon="8.733214968815446">
        <ele>651.05</ele>
        <time>2024-05-28T13:56:00.515Z</time>
      </trkpt>
      <trkpt lat="45.86011997424066" lon="8.733207928016782">
        <ele>651.4</ele>
        <time>2024-05-28T13:56:04.663Z</time>
      </trkpt>
      <trkpt lat="45.86013992317021" lon="8.733212957158685">
        <ele>651.74</ele>
        <time>2024-05-28T13:56:08.812Z</time>
      </trkpt>
      <trkpt lat="45.86015995591879" lon="8.733221925795078">
        <ele>652.07</ele>
        <time>2024-05-28T13:56:12.962Z</time>
      </trkpt>
      <trkpt lat="45.860191974788904" lon="8.733241958543658">
        <ele>652.42</ele>
        <time>2024-05-28T13:56:17.113Z</time>
      </trkpt>
      <trkpt lat="45.86021292954683" lon="8.733247993513942">
        <ele>652.76</ele>
        <time>2024-05-28T13:56:21.265Z</time>
      </trkpt>
      <trkpt lat="45.86023296229541" lon="8.733257967978716">
        <ele>653.09</ele>
        <time>2024-05-28T13:56:25.417Z</time>
      </trkpt>
      <trkpt lat="45.86025198921561" lon="8.73326794244349">
        <ele>653.43</ele>
        <time>2024-05-28T13:56:29.570Z</time>
      </trkpt>
      <trkpt lat="45.860279984772205" lon="8.73328797519207">
        <ele>653.76</ele>
        <time>2024-05-28T13:56:33.724Z</time>
      </trkpt>
      <trkpt lat="45.86030999198556" lon="8.733299961313605">
        <ele>654.09</ele>
        <time>2024-05-28T13:56:37.879Z</time>
      </trkpt>
      <trkpt lat="45.86032499559224" lon="8.73331194743514">
        <ele>654.41</ele>
        <time>2024-05-28T13:56:42.035Z</time>
      </trkpt>
      <trkpt lat="45.8603579364717" lon="8.733332986012101">
        <ele>654.73</ele>
        <time>2024-05-28T13:56:46.192Z</time>
      </trkpt>
      <trkpt lat="45.86037998087704" lon="8.733337931334972">
        <ele>655.05</ele>
        <time>2024-05-28T13:56:50.350Z</time>
      </trkpt>
      <trkpt lat="45.86040495894849" lon="8.733342960476875">
        <ele>655.35</ele>
        <time>2024-05-28T13:56:54.508Z</time>
      </trkpt>
      <trkpt lat="45.860431948676705" lon="8.733346983790398">
        <ele>655.64</ele>
        <time>2024-05-28T13:56:58.667Z</time>
      </trkpt>
      <trkpt lat="45.8604599442333" lon="8.733341954648495">
        <ele>655.93</ele>
        <time>2024-05-28T13:57:02.827Z</time>
      </trkpt>
      <trkpt lat="45.86047997698188" lon="8.733346983790398">
        <ele>656.21</ele>
        <time>2024-05-28T13:57:06.988Z</time>
      </trkpt>
      <trkpt lat="45.860511995851994" lon="8.73335293494165">
        <ele>656.47</ele>
        <time>2024-05-28T13:57:11.150Z</time>
      </trkpt>
      <trkpt lat="45.86053295060992" lon="8.733351929113269">
        <ele>656.73</ele>
        <time>2024-05-28T13:57:15.313Z</time>
      </trkpt>
      <trkpt lat="45.8605529833585" lon="8.73335293494165">
        <ele>656.97</ele>
        <time>2024-05-28T13:57:19.476Z</time>
      </trkpt>
      <trkpt lat="45.86058793589473" lon="8.733362993225455">
        <ele>657.2</ele>
        <time>2024-05-28T13:57:23.641Z</time>
      </trkpt>
      <trkpt lat="45.86060998030007" lon="8.733359975740314">
        <ele>657.42</ele>
        <time>2024-05-28T13:57:27.806Z</time>
      </trkpt>
      <trkpt lat="45.86063294671476" lon="8.733356958255172">
        <ele>657.63</ele>
        <time>2024-05-28T13:57:31.972Z</time>
      </trkpt>
      <trkpt lat="45.86065197363496" lon="8.733346983790398">
        <ele>657.83</ele>
        <time>2024-05-28T13:57:36.139Z</time>
      </trkpt>
      <trkpt lat="45.860686926171184" lon="8.733342960476875">
        <ele>658.01</ele>
        <time>2024-05-28T13:57:40.307Z</time>
      </trkpt>
      <trkpt lat="45.86071693338454" lon="8.733339942991734">
        <ele>658.18</ele>
        <time>2024-05-28T13:57:44.476Z</time>
      </trkpt>
      <trkpt lat="45.86074794642627" lon="8.733337931334972">
        <ele>658.34</ele>
        <time>2024-05-28T13:57:48.646Z</time>
      </trkpt>
      <trkpt lat="45.86076295003295" lon="8.73335293494165">
        <ele>658.46</ele>
        <time>2024-05-28T13:57:52.817Z</time>
      </trkpt>
      <trkpt lat="45.860792957246304" lon="8.733367938548326">
        <ele>658.56</ele>
        <time>2024-05-28T13:57:56.989Z</time>
      </trkpt>
      <trkpt lat="45.86081491783261" lon="8.733356958255172">
        <ele>658.67</ele>
        <time>2024-05-28T13:58:01.161Z</time>
      </trkpt>
      <trkpt lat="45.86084299720824" lon="8.73335293494165">
        <ele>658.75</ele>
        <time>2024-05-28T13:58:05.334Z</time>
      </trkpt>
      <trkpt lat="45.860862946137786" lon="8.733361987397075">
        <ele>658.81</ele>
        <time>2024-05-28T13:58:09.508Z</time>
      </trkpt>
      <trkpt lat="45.860881973057985" lon="8.73337296769023">
        <ele>658.84</ele>
        <time>2024-05-28T13:58:13.683Z</time>
      </trkpt>
      <trkpt lat="45.860904939472675" lon="8.733381936326623">
        <ele>658.86</ele>
        <time>2024-05-28T13:58:17.858Z</time>
      </trkpt>
      <trkpt lat="45.860922960564494" lon="8.733386965468526">
        <ele>658.86</ele>
        <time>2024-05-28T13:58:22.034Z</time>
      </trkpt>
      <trkpt lat="45.860942993313074" lon="8.733376991003752">
        <ele>658.84</ele>
        <time>2024-05-28T13:58:26.211Z</time>
      </trkpt>
      <trkpt lat="45.86096495389938" lon="8.733379924669862">
        <ele>658.8</ele>
        <time>2024-05-28T13:58:30.389Z</time>
      </trkpt>
      <trkpt lat="45.86098498664796" lon="8.733379924669862">
        <ele>658.74</ele>
        <time>2024-05-28T13:58:34.567Z</time>
      </trkpt>
      <trkpt lat="45.861009964719415" lon="8.733366932719946">
        <ele>658.67</ele>
        <time>2024-05-28T13:58:38.746Z</time>
      </trkpt>
      <trkpt lat="45.861029997467995" lon="8.733359975740314">
        <ele>658.58</ele>
        <time>2024-05-28T13:58:42.926Z</time>
      </trkpt>
      <trkpt lat="45.86104491725564" lon="8.733381936326623">
        <ele>658.45</ele>
        <time>2024-05-28T13:58:47.106Z</time>
      </trkpt>
      <trkpt lat="45.861074924468994" lon="8.733419990167022">
        <ele>658.31</ele>
        <time>2024-05-28T13:58:51.288Z</time>
      </trkpt>
      <trkpt lat="45.86110694333911" lon="8.733457960188389">
        <ele>658.16</ele>
        <time>2024-05-28T13:58:55.471Z</time>
      </trkpt>
      <trkpt lat="45.86112798191607" lon="8.733487967401743">
        <ele>657.98</ele>
        <time>2024-05-28T13:58:59.655Z</time>
      </trkpt>
      <trkpt lat="45.86114793084562" lon="8.733529960736632">
        <ele>657.79</ele>
        <time>2024-05-28T13:59:03.840Z</time>
      </trkpt>
      <trkpt lat="45.86115991696715" lon="8.733571954071522">
        <ele>657.58</ele>
        <time>2024-05-28T13:59:08.026Z</time>
      </trkpt>
      <trkpt lat="45.86115991696715" lon="8.733597937971354">
        <ele>657.35</ele>
        <time>2024-05-28T13:59:12.213Z</time>
      </trkpt>
      <trkpt lat="45.86114793084562" lon="8.733651917427778">
        <ele>657.09</ele>
        <time>2024-05-28T13:59:16.401Z</time>
      </trkpt>
      <trkpt lat="45.86114499717951" lon="8.733694916591048">
        <ele>656.82</ele>
        <time>2024-05-28T13:59:20.590Z</time>
      </trkpt>
      <trkpt lat="45.86115195415914" lon="8.733724923804402">
        <ele>656.56</ele>
        <time>2024-05-28T13:59:24.780Z</time>
      </trkpt>
      <trkpt lat="45.86112194694579" lon="8.73373699374497">
        <ele>656.27</ele>
        <time>2024-05-28T13:59:28.971Z</time>
      </trkpt>
      <trkpt lat="45.86109294556081" lon="8.733749985694885">
        <ele>655.96</ele>
        <time>2024-05-28T13:59:33.163Z</time>
      </trkpt>
      <trkpt lat="45.86106495000422" lon="8.733764989301562">
        <ele>655.65</ele>
        <time>2024-05-28T13:59:37.356Z</time>
      </trkpt>
      <trkpt lat="45.86103695444763" lon="8.733767922967672">
        <ele>655.33</ele>
        <time>2024-05-28T13:59:41.550Z</time>
      </trkpt>
      <trkpt lat="45.861009964719415" lon="8.73375996015966">
        <ele>655.0</ele>
        <time>2024-05-28T13:59:45.745Z</time>
      </trkpt>
      <trkpt lat="45.86098196916282" lon="8.733762977644801">
        <ele>654.66</ele>
        <time>2024-05-28T13:59:49.941Z</time>
      </trkpt>
      <trkpt lat="45.860942993313074" lon="8.73377999290824">
        <ele>654.31</ele>
        <time>2024-05-28T13:59:54.138Z</time>
      </trkpt>
      <trkpt lat="45.86091499775648" lon="8.733809916302562">
        <ele>653.97</ele>
        <time>2024-05-28T13:59:58.336Z</time>
      </trkpt>
      <trkpt lat="45.8608949650079" lon="8.73382793739438">
        <ele>653.63</ele>
        <time>2024-05-28T14:00:02.535Z</time>
      </trkpt>
      <trkpt lat="45.86087694391608" lon="8.733854927122593">
        <ele>653.3</ele>
        <time>2024-05-28T14:00:06.735Z</time>
      </trkpt>
      <trkpt lat="45.86085297167301" lon="8.733874959871173">
        <ele>652.97</ele>
        <time>2024-05-28T14:00:10.936Z</time>
      </trkpt>
      <trkpt lat="45.86083495058119" lon="8.733917959034443">
        <ele>652.62</ele>
        <time>2024-05-28T14:00:15.138Z</time>
      </trkpt>
      <trkpt lat="45.8608119841665" lon="8.73395492322743">
        <ele>652.29</ele>
        <time>2024-05-28T14:00:19.341Z</time>
      </trkpt>
      <trkpt lat="45.860796980559826" lon="8.733972944319248">
        <ele>651.97</ele>
        <time>2024-05-28T14:00:23.545Z</time>
      </trkpt>
      <trkpt lat="45.86076295003295" lon="8.733987947925925">
        <ele>651.65</ele>
        <time>2024-05-28T14:00:27.750Z</time>
      </trkpt>
      <trkpt lat="45.86073495447636" lon="8.734012925997376">
        <ele>651.35</ele>
        <time>2024-05-28T14:00:31.956Z</time>
      </trkpt>
      <trkpt lat="45.860709976404905" lon="8.73403798788786">
        <ele>651.05</ele>
        <time>2024-05-28T14:00:36.163Z</time>
      </trkpt>
      <trkpt lat="45.860686926171184" lon="8.734066989272833">
        <ele>650.77</ele>
        <time>2024-05-28T14:00:40.371Z</time>
      </trkpt>
      <trkpt lat="45.860667983070016" lon="8.734092973172665">
        <ele>650.5</ele>
        <time>2024-05-28T14:00:44.580Z</time>
      </trkpt>
      <trkpt lat="45.860647950321436" lon="8.734132954850793">
        <ele>650.25</ele>
        <time>2024-05-28T14:00:48.790Z</time>
      </trkpt>
      <trkpt lat="45.86063797585666" lon="8.734156927093863">
        <ele>650.03</ele>
        <time>2024-05-28T14:00:53.001Z</time>
      </trkpt>
      <trkpt lat="45.86062699556351" lon="8.7342119961977">
        <ele>649.82</ele>
        <time>2024-05-28T14:00:57.213Z</time>
      </trkpt>
      <trkpt lat="45.86062992922962" lon="8.734237980097532">
        <ele>649.64</ele>
        <time>2024-05-28T14:01:01.426Z</time>
      </trkpt>
      <trkpt lat="45.86063797585666" lon="8.734261952340603">
        <ele>649.48</ele>
        <time>2024-05-28T14:01:05.640Z</time>
      </trkpt>
      <trkpt lat="45.860647950321436" lon="8.73429799452424">
        <ele>649.35</ele>
        <time>2024-05-28T14:01:09.854Z</time>
      </trkpt>
      <trkpt lat="45.860667983070016" lon="8.734324984252453">
        <ele>649.26</ele>
        <time>2024-05-28T14:01:14.069Z</time>
      </trkpt>
      <trkpt lat="45.860689943656325" lon="8.734354991465807">
        <ele>649.19</ele>
        <time>2024-05-28T14:01:18.285Z</time>
      </trkpt>
      <trkpt lat="45.860706958919764" lon="8.734377957880497">
        <ele>649.14</ele>
        <time>2024-05-28T14:01:22.502Z</time>
      </trkpt>
      <trkpt lat="45.8607379719615" lon="8.734419951215386">
        <ele>649.12</ele>
        <time>2024-05-28T14:01:26.721Z</time>
      </trkpt>
      <trkpt lat="45.86076697334647" lon="8.734462950378656">
        <ele>649.13</ele>
        <time>2024-05-28T14:01:30.941Z</time>
      </trkpt>
      <trkpt lat="45.860776947811246" lon="8.734489940106869">
        <ele>649.15</ele>
        <time>2024-05-28T14:01:35.162Z</time>
      </trkpt>
      <trkpt lat="45.86078692227602" lon="8.734522964805365">
        <ele>649.19</ele>
        <time>2024-05-28T14:01:39.384Z</time>
      </trkpt>
      <trkpt lat="45.860792957246304" lon="8.734559928998351">
        <ele>649.25</ele>
        <time>2024-05-28T14:01:43.606Z</time>
      </trkpt>
      <trkpt lat="45.86076999083161" lon="8.734584990888834">
        <ele>649.32</ele>
        <time>2024-05-28T14:01:47.829Z</time>
      </trkpt>
      <trkpt lat="45.86075792089105" lon="8.734627990052104">
        <ele>649.42</ele>
        <time>2024-05-28T14:01:52.053Z</time>
      </trkpt>
      <trkpt lat="45.86076999083161" lon="8.734649950638413">
        <ele>649.57</ele>
        <time>2024-05-28T14:01:56.278Z</time>
      </trkpt>
      <trkpt lat="45.860776947811246" lon="8.734679957851768">
        <ele>649.73</ele>
        <time>2024-05-28T14:02:00.504Z</time>
      </trkpt>
      <trkpt lat="45.86078692227602" lon="8.73470795340836">
        <ele>649.93</ele>
        <time>2024-05-28T14:02:04.731Z</time>
      </trkpt>
      <trkpt lat="45.860796980559826" lon="8.734732931479812">
        <ele>650.15</ele>
        <time>2024-05-28T14:02:08.958Z</time>
      </trkpt>
      <trkpt lat="45.8608019258827" lon="8.734759921208024">
        <ele>650.39</ele>
        <time>2024-05-28T14:02:13.186Z</time>
      </trkpt>
      <trkpt lat="45.8608119841665" lon="8.734796969220042">
        <ele>650.66</ele>
        <time>2024-05-28T14:02:17.415Z</time>
      </trkpt>
      <trkpt lat="45.86082497611642" lon="8.734819935634732">
        <ele>650.96</ele>
        <time>2024-05-28T14:02:21.645Z</time>
      </trkpt>
      <trkpt lat="45.86081491783261" lon="8.734842985868454">
        <ele>651.26</ele>
        <time>2024-05-28T14:02:25.875Z</time>
      </trkpt>
      <trkpt lat="45.8608119841665" lon="8.734871987253428">
        <ele>651.6</ele>
        <time>2024-05-28T14:02:30.106Z</time>
      </trkpt>
      <trkpt lat="45.86081491783261" lon="8.734901994466782">
        <ele>651.96</ele>
        <time>2024-05-28T14:02:34.338Z</time>
      </trkpt>
      <trkpt lat="45.86082799360156" lon="8.734926972538233">
        <ele>652.35</ele>
        <time>2024-05-28T14:02:38.570Z</time>
      </trkpt>
      <trkpt lat="45.86084693670273" lon="8.734937952831388">
        <ele>652.77</ele>
        <time>2024-05-28T14:02:42.803Z</time>
      </trkpt>
      <trkpt lat="45.86086696945131" lon="8.734937952831388">
        <ele>653.22</ele>
        <time>2024-05-28T14:02:47.037Z</time>
      </trkpt>
      <trkpt lat="45.8608949650079" lon="8.734944993630052">
        <ele>653.69</ele>
        <time>2024-05-28T14:02:51.272Z</time>
      </trkpt>
      <trkpt lat="45.860922960564494" lon="8.734949938952923">
        <ele>654.18</ele>
        <time>2024-05-28T14:02:55.508Z</time>
      </trkpt>
      <trkpt lat="45.860946932807565" lon="8.734969971701503">
        <ele>654.68</ele>
        <time>2024-05-28T14:02:59.744Z</time>
      </trkpt>
      <trkpt lat="45.86096193641424" lon="8.73498497530818">
        <ele>655.18</ele>
        <time>2024-05-28T14:03:03.981Z</time>
      </trkpt>
      <trkpt lat="45.86097199469805" lon="8.735011965036392">
        <ele>655.7</ele>
        <time>2024-05-28T14:03:08.219Z</time>
      </trkpt>
      <trkpt lat="45.86099999025464" lon="8.735024956986308">
        <ele>656.25</ele>
        <time>2024-05-28T14:03:12.458Z</time>
      </trkpt>
      <trkpt lat="45.86101298220456" lon="8.73505194671452">
        <ele>656.79</ele>
        <time>2024-05-28T14:03:16.698Z</time>
      </trkpt>
      <trkpt lat="45.861029997467995" lon="8.735091928392649">
        <ele>657.36</ele>
        <time>2024-05-28T14:03:20.939Z</time>
      </trkpt>
      <trkpt lat="45.86104793474078" lon="8.735127970576286">
        <ele>657.93</ele>
        <time>2024-05-28T14:03:25.181Z</time>
      </trkpt>
      <trkpt lat="45.86106495000422" lon="8.735189996659756">
        <ele>658.52</ele>
        <time>2024-05-28T14:03:29.424Z</time>
      </trkpt>
      <trkpt lat="45.86108297109604" lon="8.735219920054078">
        <ele>659.11</ele>
        <time>2024-05-28T14:03:33.668Z</time>
      </trkpt>
      <trkpt lat="45.86110694333911" lon="8.735224949195981">
        <ele>659.71</ele>
        <time>2024-05-28T14:03:37.913Z</time>
      </trkpt>
      <trkpt lat="45.86113192141056" lon="8.735207933932543">
        <ele>660.32</ele>
        <time>2024-05-28T14:03:42.159Z</time>
      </trkpt>
      <trkpt lat="45.8611729927361" lon="8.735184967517853">
        <ele>660.94</ele>
        <time>2024-05-28T14:03:46.406Z</time>
      </trkpt>
      <trkpt lat="45.861204927787185" lon="8.735164934769273">
        <ele>661.56</ele>
        <time>2024-05-28T14:03:50.654Z</time>
      </trkpt>
      <trkpt lat="45.861224960535765" lon="8.735122941434383">
        <ele>662.16</ele>
        <time>2024-05-28T14:03:54.904Z</time>
      </trkpt>
      <trkpt lat="45.861246921122074" lon="8.735099975019693">
        <ele>662.78</ele>
        <time>2024-05-28T14:03:59.155Z</time>
      </trkpt>
      <trkpt lat="45.86123493500054" lon="8.735139956697822">
        <ele>663.36</ele>
        <time>2024-05-28T14:04:03.407Z</time>
      </trkpt>
      <trkpt lat="45.86123493500054" lon="8.735167952254415">
        <ele>663.96</ele>
        <time>2024-05-28T14:04:07.659Z</time>
      </trkpt>
      <trkpt lat="45.86124298162758" lon="8.735189996659756">
        <ele>664.55</ele>
        <time>2024-05-28T14:04:11.912Z</time>
      </trkpt>
      <trkpt lat="45.861249938607216" lon="8.735219920054078">
        <ele>665.15</ele>
        <time>2024-05-28T14:04:16.166Z</time>
      </trkpt>
      <trkpt lat="45.86126293055713" lon="8.735237941145897">
        <ele>665.74</ele>
        <time>2024-05-28T14:04:20.420Z</time>
      </trkpt>
      <trkpt lat="45.86127298884094" lon="8.735259985551238">
        <ele>666.32</ele>
        <time>2024-05-28T14:04:24.675Z</time>
      </trkpt>
      <trkpt lat="45.86128195747733" lon="8.735292926430702">
        <ele>666.9</ele>
        <time>2024-05-28T14:04:28.931Z</time>
      </trkpt>
      <trkpt lat="45.861287992447615" lon="8.735321927815676">
        <ele>667.46</ele>
        <time>2024-05-28T14:04:33.187Z</time>
      </trkpt>
      <trkpt lat="45.86129796691239" lon="8.735367944464087">
        <ele>668.02</ele>
        <time>2024-05-28T14:04:37.444Z</time>
      </trkpt>
      <trkpt lat="45.861291931942105" lon="8.7353949341923">
        <ele>668.55</ele>
        <time>2024-05-28T14:04:41.702Z</time>
      </trkpt>
      <trkpt lat="45.861291931942105" lon="8.735426953062415">
        <ele>669.08</ele>
        <time>2024-05-28T14:04:45.961Z</time>
      </trkpt>
      <trkpt lat="45.86129796691239" lon="8.735486967489123">
        <ele>669.63</ele>
        <time>2024-05-28T14:04:50.221Z</time>
      </trkpt>
      <trkpt lat="45.86130199022591" lon="8.735531978309155">
        <ele>670.15</ele>
        <time>2024-05-28T14:04:54.482Z</time>
      </trkpt>
      <trkpt lat="45.861311964690685" lon="8.735552933067083">
        <ele>670.65</ele>
        <time>2024-05-28T14:04:58.744Z</time>
      </trkpt>
      <trkpt lat="45.86130199022591" lon="8.735584951937199">
        <ele>671.12</ele>
        <time>2024-05-28T14:05:03.007Z</time>
      </trkpt>
      <trkpt lat="45.861291931942105" lon="8.735611941665411">
        <ele>671.58</ele>
        <time>2024-05-28T14:05:07.270Z</time>
      </trkpt>
      <trkpt lat="45.86132294498384" lon="8.735646978020668">
        <ele>672.05</ele>
        <time>2024-05-28T14:05:11.535Z</time>
      </trkpt>
      <trkpt lat="45.86134297773242" lon="8.735659969970584">
        <ele>672.48</ele>
        <time>2024-05-28T14:05:15.800Z</time>
      </trkpt>
      <trkpt lat="45.86134993471205" lon="8.735689977183938">
        <ele>672.89</ele>
        <time>2024-05-28T14:05:20.066Z</time>
      </trkpt>
      <trkpt lat="45.8613199274987" lon="8.735724929720163">
        <ele>673.26</ele>
        <time>2024-05-28T14:05:24.334Z</time>
      </trkpt>
      <trkpt lat="45.861287992447615" lon="8.735719984397292">
        <ele>673.59</ele>
        <time>2024-05-28T14:05:28.603Z</time>
      </trkpt>
      <trkpt lat="45.86125999689102" lon="8.735711937770247">
        <ele>673.91</ele>
        <time>2024-05-28T14:05:32.873Z</time>
      </trkpt>
      <trkpt lat="45.86123493500054" lon="8.735704980790615">
        <ele>674.2</ele>
        <time>2024-05-28T14:05:37.143Z</time>
      </trkpt>
      <trkpt lat="45.86121498607099" lon="8.73569693416357">
        <ele>674.48</ele>
        <time>2024-05-28T14:05:41.414Z</time>
      </trkpt>
      <trkpt lat="45.8611869905144" lon="8.735689977183938">
        <ele>674.73</ele>
        <time>2024-05-28T14:05:45.686Z</time>
      </trkpt>
      <trkpt lat="45.86116695776582" lon="8.73567195609212">
        <ele>674.96</ele>
        <time>2024-05-28T14:05:49.959Z</time>
      </trkpt>
      <trkpt lat="45.86114499717951" lon="8.735656952485442">
        <ele>675.17</ele>
        <time>2024-05-28T14:05:54.233Z</time>
      </trkpt>
      <trkpt lat="45.86112496443093" lon="8.735659969970584">
        <ele>675.36</ele>
        <time>2024-05-28T14:05:58.507Z</time>
      </trkpt>
      <trkpt lat="45.86110292002559" lon="8.73569693416357">
        <ele>675.56</ele>
        <time>2024-05-28T14:06:02.782Z</time>
      </trkpt>
      <trkpt lat="45.86110292002559" lon="8.735721996054053">
        <ele>675.74</ele>
        <time>2024-05-28T14:06:07.058Z</time>
      </trkpt>
      <trkpt lat="45.86110292002559" lon="8.735751919448376">
        <ele>675.9</ele>
        <time>2024-05-28T14:06:11.335Z</time>
      </trkpt>
      <trkpt lat="45.86109998635948" lon="8.735779998824">
        <ele>676.03</ele>
        <time>2024-05-28T14:06:15.612Z</time>
      </trkpt>
      <trkpt lat="45.86109294556081" lon="8.735809922218323">
        <ele>676.15</ele>
        <time>2024-05-28T14:06:19.890Z</time>
      </trkpt>
      <trkpt lat="45.86108992807567" lon="8.735834984108806">
        <ele>676.24</ele>
        <time>2024-05-28T14:06:24.169Z</time>
      </trkpt>
      <trkpt lat="45.86108992807567" lon="8.735859962180257">
        <ele>676.3</ele>
        <time>2024-05-28T14:06:28.448Z</time>
      </trkpt>
      <trkpt lat="45.8610799536109" lon="8.735882928594947">
        <ele>676.34</ele>
        <time>2024-05-28T14:06:32.728Z</time>
      </trkpt>
      <trkpt lat="45.861051958054304" lon="8.735884940251708">
        <ele>676.32</ele>
        <time>2024-05-28T14:06:37.009Z</time>
      </trkpt>
      <trkpt lat="45.861032931134105" lon="8.735894998535514">
        <ele>676.29</ele>
        <time>2024-05-28T14:06:41.291Z</time>
      </trkpt>
      <trkpt lat="45.86101692169905" lon="8.73590991832316">
        <ele>676.24</ele>
        <time>2024-05-28T14:06:45.573Z</time>
      </trkpt>
      <trkpt lat="45.86098498664796" lon="8.735914947465062">
        <ele>676.15</ele>
        <time>2024-05-28T14:06:49.856Z</time>
      </trkpt>
      <trkpt lat="45.86095699109137" lon="8.735917964950204">
        <ele>676.03</ele>
        <time>2024-05-28T14:06:54.140Z</time>
      </trkpt>
      <trkpt lat="45.86093695834279" lon="8.735927939414978">
        <ele>675.89</ele>
        <time>2024-05-28T14:06:58.425Z</time>
      </trkpt>
      <trkpt lat="45.86090795695782" lon="8.735932968556881">
        <ele>675.73</ele>
        <time>2024-05-28T14:07:02.711Z</time>
      </trkpt>
      <trkpt lat="45.860881973057985" lon="8.735919976606965">
        <ele>675.51</ele>
        <time>2024-05-28T14:07:06.998Z</time>
      </trkpt>
      <trkpt lat="45.86084995418787" lon="8.73590799048543">
        <ele>675.27</ele>
        <time>2024-05-28T14:07:11.286Z</time>
      </trkpt>
      <trkpt lat="45.86082497611642" lon="8.735902961343527">
        <ele>675.01</ele>
        <time>2024-05-28T14:07:15.575Z</time>
      </trkpt>
      <trkpt lat="45.8608019258827" lon="8.735897932201624">
        <ele>674.73</ele>
        <time>2024-05-28T14:07:19.864Z</time>
      </trkpt>
      <trkpt lat="45.86078692227602" lon="8.735882928594947">
        <ele>674.41</ele>
        <time>2024-05-28T14:07:24.154Z</time>
      </trkpt>
      <trkpt lat="45.86076295003295" lon="8.735879994928837">
        <ele>674.07</ele>
        <time>2024-05-28T14:07:28.445Z</time>
      </trkpt>
      <trkpt lat="45.8607379719615" lon="8.735876977443695">
        <ele>673.71</ele>
        <time>2024-05-28T14:07:32.737Z</time>
      </trkpt>
      <trkpt lat="45.86070293560624" lon="8.735869936645031">
        <ele>673.32</ele>
        <time>2024-05-28T14:07:37.030Z</time>
      </trkpt>
      <trkpt lat="45.86067795753479" lon="8.735869936645031">
        <ele>672.91</ele>
        <time>2024-05-28T14:07:41.324Z</time>
      </trkpt>
      <trkpt lat="45.860644932836294" lon="8.735869936645031">
        <ele>672.47</ele>
        <time>2024-05-28T14:07:45.619Z</time>
      </trkpt>
      <trkpt lat="45.8606169372797" lon="8.735862979665399">
        <ele>672.0</ele>
        <time>2024-05-28T14:07:49.915Z</time>
      </trkpt>
      <trkpt lat="45.86059497669339" lon="8.735862979665399">
        <ele>671.52</ele>
        <time>2024-05-28T14:07:54.212Z</time>
      </trkpt>
      <trkpt lat="45.86057494394481" lon="8.735856944695115">
        <ele>671.01</ele>
        <time>2024-05-28T14:07:58.509Z</time>
      </trkpt>
      <trkpt lat="45.86054996587336" lon="8.735854933038354">
        <ele>670.49</ele>
        <time>2024-05-28T14:08:02.807Z</time>
      </trkpt>
      <trkpt lat="45.860514929518104" lon="8.735874965786934">
        <ele>669.97</ele>
        <time>2024-05-28T14:08:07.106Z</time>
      </trkpt>
      <trkpt lat="45.86048793978989" lon="8.735859962180257">
        <ele>669.38</ele>
        <time>2024-05-28T14:08:11.406Z</time>
      </trkpt>
      <trkpt lat="45.86046698503196" lon="8.735851999372244">
        <ele>668.79</ele>
        <time>2024-05-28T14:08:15.707Z</time>
      </trkpt>
      <trkpt lat="45.86043999530375" lon="8.73584495857358">
        <ele>668.19</ele>
        <time>2024-05-28T14:08:20.009Z</time>
      </trkpt>
      <trkpt lat="45.86041795089841" lon="8.735829954966903">
        <ele>667.56</ele>
        <time>2024-05-28T14:08:24.312Z</time>
      </trkpt>
      <trkpt lat="45.86039791814983" lon="8.735824925825">
        <ele>666.92</ele>
        <time>2024-05-28T14:08:28.615Z</time>
      </trkpt>
      <trkpt lat="45.86037294007838" lon="8.735816963016987">
        <ele>666.27</ele>
        <time>2024-05-28T14:08:32.919Z</time>
      </trkpt>
      <trkpt lat="45.86034192703664" lon="8.735809922218323">
        <ele>665.6</ele>
        <time>2024-05-28T14:08:37.224Z</time>
      </trkpt>
      <trkpt lat="45.860319966450334" lon="8.73580296523869">
        <ele>664.92</ele>
        <time>2024-05-28T14:08:41.530Z</time>
      </trkpt>
      <trkpt lat="45.86029691621661" lon="8.735796930268407">
        <ele>664.23</ele>
        <time>2024-05-28T14:08:45.837Z</time>
      </trkpt>
      <trkpt lat="45.8602749556303" lon="8.735784944146872">
        <ele>663.53</ele>
        <time>2024-05-28T14:08:50.145Z</time>
      </trkpt>
      <trkpt lat="45.86025492288172" lon="8.73577798716724">
        <ele>662.83</ele>
        <time>2024-05-28T14:08:54.453Z</time>
      </trkpt>
      <trkpt lat="45.86022994481027" lon="8.735766923055053">
        <ele>662.12</ele>
        <time>2024-05-28T14:08:58.762Z</time>
      </trkpt>
      <trkpt lat="45.86020999588072" lon="8.73577798716724">
        <ele>661.43</ele>
        <time>2024-05-28T14:09:03.072Z</time>
      </trkpt>
      <trkpt lat="45.860174959525466" lon="8.73577798716724">
        <ele>660.72</ele>
        <time>2024-05-28T14:09:07.383Z</time>
      </trkpt>
      <trkpt lat="45.860149981454015" lon="8.735769940540195">
        <ele>660.0</ele>
        <time>2024-05-28T14:09:11.695Z</time>
      </trkpt>
      <trkpt lat="45.8601179625839" lon="8.735756948590279">
        <ele>659.27</ele>
        <time>2024-05-28T14:09:16.008Z</time>
      </trkpt>
      <trkpt lat="45.86009197868407" lon="8.73575996607542">
        <ele>658.57</ele>
        <time>2024-05-28T14:09:20.322Z</time>
      </trkpt>
      <trkpt lat="45.860062977299094" lon="8.73575996607542">
        <ele>657.88</ele>
        <time>2024-05-28T14:09:24.637Z</time>
      </trkpt>
      <trkpt lat="45.86003799922764" lon="8.735766923055053">
        <ele>657.2</ele>
        <time>2024-05-28T14:09:28.953Z</time>
      </trkpt>
      <trkpt lat="45.86001494899392" lon="8.73575996607542">
        <ele>656.51</ele>
        <time>2024-05-28T14:09:33.269Z</time>
      </trkpt>
      <trkpt lat="45.85998997092247" lon="8.735749991610646">
        <ele>655.82</ele>
        <time>2024-05-28T14:09:37.586Z</time>
      </trkpt>
      <trkpt lat="45.85996298119426" lon="8.735746974125504">
        <ele>655.15</ele>
        <time>2024-05-28T14:09:41.904Z</time>
      </trkpt>
      <trkpt lat="45.8599419426173" lon="8.735731970518827">
        <ele>654.47</ele>
        <time>2024-05-28T14:09:46.223Z</time>
      </trkpt>
      <trkpt lat="45.859896931797266" lon="8.735706992447376">
        <ele>653.78</ele>
        <time>2024-05-28T14:09:50.544Z</time>
      </trkpt>
      <trkpt lat="45.8598779886961" lon="8.735677991062403">
        <ele>653.11</ele>
        <time>2024-05-28T14:09:54.866Z</time>
      </trkpt>
      <trkpt lat="45.859847981482744" lon="8.735664999112487">
        <ele>652.46</ele>
        <time>2024-05-28T14:09:59.189Z</time>
      </trkpt>
      <trkpt lat="45.85981294512749" lon="8.735664999112487">
        <ele>651.83</ele>
        <time>2024-05-28T14:10:03.513Z</time>
      </trkpt>
      <trkpt lat="45.85978193208575" lon="8.735664999112487">
        <ele>651.22</ele>
        <time>2024-05-28T14:10:07.838Z</time>
      </trkpt>
      <trkpt lat="45.859742956236005" lon="8.73565192334354">
        <ele>650.6</ele>
        <time>2024-05-28T14:10:12.164Z</time>
      </trkpt>
      <trkpt lat="45.859717978164554" lon="8.735624933615327">
        <ele>650.0</ele>
        <time>2024-05-28T14:10:16.491Z</time>
      </trkpt>
      <trkpt lat="45.859679924324155" lon="8.735597943887115">
        <ele>649.4</ele>
        <time>2024-05-28T14:10:20.820Z</time>
      </trkpt>
      <trkpt lat="45.859637930989265" lon="8.735592998564243">
        <ele>648.84</ele>
        <time>2024-05-28T14:10:25.150Z</time>
      </trkpt>
      <trkpt lat="45.8596049901098" lon="8.735591992735863">
        <ele>648.31</ele>
        <time>2024-05-28T14:10:29.481Z</time>
      </trkpt>
      <trkpt lat="45.85958696901798" lon="8.735616970807314">
        <ele>647.83</ele>
        <time>2024-05-28T14:10:33.813Z</time>
      </trkpt>
      <trkpt lat="45.85955796763301" lon="8.735631974413991">
        <ele>647.35</ele>
        <time>2024-05-28T14:10:38.146Z</time>
      </trkpt>
      <trkpt lat="45.85953198373318" lon="8.735659969970584">
        <ele>646.92</ele>
        <time>2024-05-28T14:10:42.480Z</time>
      </trkpt>
      <trkpt lat="45.85949694737792" lon="8.735646978020668">
        <ele>646.46</ele>
        <time>2024-05-28T14:10:46.815Z</time>
      </trkpt>
      <trkpt lat="45.85947498679161" lon="8.735621999949217">
        <ele>646.01</ele>
        <time>2024-05-28T14:10:51.151Z</time>
      </trkpt>
      <trkpt lat="45.85943299345672" lon="8.735604984685779">
        <ele>645.59</ele>
        <time>2024-05-28T14:10:55.489Z</time>
      </trkpt>
      <trkpt lat="45.859374990686774" lon="8.735592998564243">
        <ele>645.2</ele>
        <time>2024-05-28T14:10:59.829Z</time>
      </trkpt>
      <trkpt lat="45.85933995433152" lon="8.73558796942234">
        <ele>644.82</ele>
        <time>2024-05-28T14:11:04.170Z</time>
      </trkpt>
      <trkpt lat="45.85932293906808" lon="8.735604984685779">
        <ele>644.48</ele>
        <time>2024-05-28T14:11:08.511Z</time>
      </trkpt>
      <trkpt lat="45.859314976260066" lon="8.735637925565243">
        <ele>644.18</ele>
        <time>2024-05-28T14:11:12.853Z</time>
      </trkpt>
      <trkpt lat="45.859287986531854" lon="8.735674973577261">
        <ele>643.9</ele>
        <time>2024-05-28T14:11:17.197Z</time>
      </trkpt>
      <trkpt lat="45.85925999097526" lon="8.73571495525539">
        <ele>643.63</ele>
        <time>2024-05-28T14:11:21.542Z</time>
      </trkpt>
      <trkpt lat="45.85923794656992" lon="8.735731970518827">
        <ele>643.36</ele>
        <time>2024-05-28T14:11:25.888Z</time>
      </trkpt>
      <trkpt lat="45.85921498015523" lon="8.735754936933517">
        <ele>643.11</ele>
        <time>2024-05-28T14:11:30.235Z</time>
      </trkpt>
      <trkpt lat="45.85919695906341" lon="8.735766923055053">
        <ele>642.85</ele>
        <time>2024-05-28T14:11:34.582Z</time>
      </trkpt>
      <trkpt lat="45.859182961285114" lon="8.735816963016987">
        <ele>642.64</ele>
        <time>2024-05-28T14:11:38.931Z</time>
      </trkpt>
      <trkpt lat="45.859182961285114" lon="8.735849987715483">
        <ele>642.43</ele>
        <time>2024-05-28T14:11:43.280Z</time>
      </trkpt>
      <trkpt lat="45.85917692631483" lon="8.735824925825">
        <ele>642.15</ele>
        <time>2024-05-28T14:11:47.630Z</time>
      </trkpt>
      <trkpt lat="45.859162928536534" lon="8.735799947753549">
        <ele>641.89</ele>
        <time>2024-05-28T14:11:51.981Z</time>
      </trkpt>
      <trkpt lat="45.85915496572852" lon="8.735769940540195">
        <ele>641.63</ele>
        <time>2024-05-28T14:11:56.332Z</time>
      </trkpt>
      <trkpt lat="45.859141973778605" lon="8.735731970518827">
        <ele>641.36</ele>
        <time>2024-05-28T14:12:00.684Z</time>
      </trkpt>
      <trkpt lat="45.85912797600031" lon="8.7356919888407">
        <ele>641.11</ele>
        <time>2024-05-28T14:12:05.037Z</time>
      </trkpt>
      <trkpt lat="45.859121941030025" lon="8.735656952485442">
        <ele>640.86</ele>
        <time>2024-05-28T14:12:09.391Z</time>
      </trkpt>
      <trkpt lat="45.85910995490849" lon="8.735626945272088">
        <ele>640.62</ele>
        <time>2024-05-28T14:12:13.746Z</time>
      </trkpt>
      <trkpt lat="45.859096962958574" lon="8.73560699634254">
        <ele>640.4</ele>
        <time>2024-05-28T14:12:18.102Z</time>
      </trkpt>
      <trkpt lat="45.85908296518028" lon="8.735581934452057">
        <ele>640.19</ele>
        <time>2024-05-28T14:12:22.458Z</time>
      </trkpt>
      <trkpt lat="45.8590679615736" lon="8.73556299135089">
        <ele>639.99</ele>
        <time>2024-05-28T14:12:26.815Z</time>
      </trkpt>
      <trkpt lat="45.85904197767377" lon="8.735536923632026">
        <ele>639.79</ele>
        <time>2024-05-28T14:12:31.173Z</time>
      </trkpt>
      <trkpt lat="45.859029991552234" lon="8.735517980530858">
        <ele>639.6</ele>
        <time>2024-05-28T14:12:35.532Z</time>
      </trkpt>
      <trkpt lat="45.859009958803654" lon="8.735496941953897">
        <ele>639.41</ele>
        <time>2024-05-28T14:12:39.892Z</time>
      </trkpt>
      <trkpt lat="45.85899797268212" lon="8.735471963882446">
        <ele>639.23</ele>
        <time>2024-05-28T14:12:44.252Z</time>
      </trkpt>
      <trkpt lat="45.85898196324706" lon="8.735421923920512">
        <ele>639.04</ele>
        <time>2024-05-28T14:12:48.614Z</time>
      </trkpt>
      <trkpt lat="45.85896494798362" lon="8.735401974990964">
        <ele>638.89</ele>
        <time>2024-05-28T14:12:52.976Z</time>
      </trkpt>
      <trkpt lat="45.858949944376945" lon="8.735386971384287">
        <ele>638.74</ele>
        <time>2024-05-28T14:12:57.339Z</time>
      </trkpt>
      <trkpt lat="45.85893695242703" lon="8.735362999141216">
        <ele>638.59</ele>
        <time>2024-05-28T14:13:01.703Z</time>
      </trkpt>
      <trkpt lat="45.85891197435558" lon="8.735342966392636">
        <ele>638.46</ele>
        <time>2024-05-28T14:13:06.068Z</time>
      </trkpt>
      <trkpt lat="45.858887918293476" lon="8.735319999977946">
        <ele>638.34</ele>
        <time>2024-05-28T14:13:10.434Z</time>
      </trkpt>
      <trkpt lat="45.85886998102069" lon="8.735289992764592">
        <ele>638.22</ele>
        <time>2024-05-28T14:13:14.801Z</time>
      </trkpt>
      <trkpt lat="45.85884994827211" lon="8.735267948359251">
        <ele>638.11</ele>
        <time>2024-05-28T14:13:19.168Z</time>
      </trkpt>
      <trkpt lat="45.85882497020066" lon="8.735252944752574">
        <ele>638.02</ele>
        <time>2024-05-28T14:13:23.536Z</time>
      </trkpt>
      <trkpt lat="45.85880795493722" lon="8.735227966681123">
        <ele>637.93</ele>
        <time>2024-05-28T14:13:27.905Z</time>
      </trkpt>
      <trkpt lat="45.85879999212921" lon="8.735204916447401">
        <ele>637.85</ele>
        <time>2024-05-28T14:13:32.275Z</time>
      </trkpt>
      <trkpt lat="45.858776941895485" lon="8.735184967517853">
        <ele>637.78</ele>
        <time>2024-05-28T14:13:36.646Z</time>
      </trkpt>
      <trkpt lat="45.85874794051051" lon="8.735167952254415">
        <ele>637.73</ele>
        <time>2024-05-28T14:13:41.018Z</time>
      </trkpt>
      <trkpt lat="45.85872195661068" lon="8.73515697196126">
        <ele>637.68</ele>
        <time>2024-05-28T14:13:45.391Z</time>
      </trkpt>
      <trkpt lat="45.858689937740564" lon="8.735139956697822">
        <ele>637.65</ele>
        <time>2024-05-28T14:13:49.765Z</time>
      </trkpt>
      <trkpt lat="45.85866194218397" lon="8.735142974182963">
        <ele>637.63</ele>
        <time>2024-05-28T14:13:54.140Z</time>
      </trkpt>
      <trkpt lat="45.858629923313856" lon="8.735139956697822">
        <ele>637.62</ele>
        <time>2024-05-28T14:13:58.516Z</time>
      </trkpt>
      <trkpt lat="45.858606956899166" lon="8.735142974182963">
        <ele>637.61</ele>
        <time>2024-05-28T14:14:02.892Z</time>
      </trkpt>
      <trkpt lat="45.85857192054391" lon="8.73513693921268">
        <ele>637.62</ele>
        <time>2024-05-28T14:14:07.270Z</time>
      </trkpt>
      <trkpt lat="45.85855297744274" lon="8.73513693921268">
        <ele>637.62</ele>
        <time>2024-05-28T14:14:11.648Z</time>
      </trkpt>
      <trkpt lat="45.85852992720902" lon="8.73513693921268">
        <ele>637.63</ele>
        <time>2024-05-28T14:14:16.027Z</time>
      </trkpt>
      <trkpt lat="45.85850494913757" lon="8.73513693921268">
        <ele>637.65</ele>
        <time>2024-05-28T14:14:20.407Z</time>
      </trkpt>
      <trkpt lat="45.85848491638899" lon="8.735142974182963">
        <ele>637.68</ele>
        <time>2024-05-28T14:14:24.788Z</time>
      </trkpt>
      <trkpt lat="45.8584669791162" lon="8.73515697196126">
        <ele>637.72</ele>
        <time>2024-05-28T14:14:29.169Z</time>
      </trkpt>
      <trkpt lat="45.85844996385276" lon="8.735169963911176">
        <ele>637.75</ele>
        <time>2024-05-28T14:14:33.551Z</time>
      </trkpt>
      <trkpt lat="45.85842196829617" lon="8.735176920890808">
        <ele>637.79</ele>
        <time>2024-05-28T14:14:37.934Z</time>
      </trkpt>
      <trkpt lat="45.8583929669112" lon="8.735169963911176">
        <ele>637.82</ele>
        <time>2024-05-28T14:14:42.318Z</time>
      </trkpt>
      <trkpt lat="45.858369916677475" lon="8.735169963911176">
        <ele>637.86</ele>
        <time>2024-05-28T14:14:46.703Z</time>
      </trkpt>
      <trkpt lat="45.85833496414125" lon="8.735169963911176">
        <ele>637.9</ele>
        <time>2024-05-28T14:14:51.089Z</time>
      </trkpt>
      <trkpt lat="45.85831291973591" lon="8.735169963911176">
        <ele>637.93</ele>
        <time>2024-05-28T14:14:55.475Z</time>
      </trkpt>
      <trkpt lat="45.85828995332122" lon="8.735164934769273">
        <ele>637.97</ele>
        <time>2024-05-28T14:14:59.862Z</time>
      </trkpt>
      <trkpt lat="45.85826497524977" lon="8.735167952254415">
        <ele>638.02</ele>
        <time>2024-05-28T14:15:04.250Z</time>
      </trkpt>
      <trkpt lat="45.858236979693174" lon="8.735149931162596">
        <ele>638.05</ele>
        <time>2024-05-28T14:15:08.639Z</time>
      </trkpt>
      <trkpt lat="45.85821292363107" lon="8.735129982233047">
        <ele>638.08</ele>
        <time>2024-05-28T14:15:13.029Z</time>
      </trkpt>
      <trkpt lat="45.85819196887314" lon="8.73511497862637">
        <ele>638.12</ele>
        <time>2024-05-28T14:15:17.420Z</time>
      </trkpt>
      <trkpt lat="45.85816799663007" lon="8.735099975019693">
        <ele>638.15</ele>
        <time>2024-05-28T14:15:21.812Z</time>
      </trkpt>
      <trkpt lat="45.858149975538254" lon="8.735079942271113">
        <ele>638.19</ele>
        <time>2024-05-28T14:15:26.204Z</time>
      </trkpt>
      <trkpt lat="45.858129942789674" lon="8.735061921179295">
        <ele>638.22</ele>
        <time>2024-05-28T14:15:30.597Z</time>
      </trkpt>
      <trkpt lat="45.858111921697855" lon="8.735039960592985">
        <ele>638.26</ele>
        <time>2024-05-28T14:15:34.991Z</time>
      </trkpt>
      <trkpt lat="45.85808493196964" lon="8.735024956986308">
        <ele>638.31</ele>
        <time>2024-05-28T14:15:39.386Z</time>
      </trkpt>
      <trkpt lat="45.85805693641305" lon="8.735016994178295">
        <ele>638.36</ele>
        <time>2024-05-28T14:15:43.782Z</time>
      </trkpt>
      <trkpt lat="45.8580319583416" lon="8.735001990571618">
        <ele>638.4</ele>
        <time>2024-05-28T14:15:48.179Z</time>
      </trkpt>
      <trkpt lat="45.85800798609853" lon="8.734994949772954">
        <ele>638.46</ele>
        <time>2024-05-28T14:15:52.577Z</time>
      </trkpt>
      <trkpt lat="45.857982924208045" lon="8.73498497530818">
        <ele>638.51</ele>
        <time>2024-05-28T14:15:56.976Z</time>
      </trkpt>
      <trkpt lat="45.8579629752785" lon="8.73498497530818">
        <ele>638.57</ele>
        <time>2024-05-28T14:16:01.375Z</time>
      </trkpt>
      <trkpt lat="45.85792793892324" lon="8.734994949772954">
        <ele>638.64</ele>
        <time>2024-05-28T14:16:05.775Z</time>
      </trkpt>
      <trkpt lat="45.85790698416531" lon="8.735004924237728">
        <ele>638.7</ele>
        <time>2024-05-28T14:16:10.176Z</time>
      </trkpt>
      <trkpt lat="45.85788695141673" lon="8.735016994178295">
        <ele>638.77</ele>
        <time>2024-05-28T14:16:14.578Z</time>
      </trkpt>
      <trkpt lat="45.85786792449653" lon="8.735019927844405">
        <ele>638.84</ele>
        <time>2024-05-28T14:16:18.980Z</time>
      </trkpt>
      <trkpt lat="45.85783699527383" lon="8.735016994178295">
        <ele>638.91</ele>
        <time>2024-05-28T14:16:23.383Z</time>
      </trkpt>
      <trkpt lat="45.857809921726584" lon="8.734999978914857">
        <ele>638.98</ele>
        <time>2024-05-28T14:16:27.787Z</time>
      </trkpt>
      <trkpt lat="45.857787961140275" lon="8.73500693589449">
        <ele>639.05</ele>
        <time>2024-05-28T14:16:32.192Z</time>
      </trkpt>
      <trkpt lat="45.857767928391695" lon="8.734999978914857">
        <ele>639.12</ele>
        <time>2024-05-28T14:16:36.598Z</time>
      </trkpt>
      <trkpt lat="45.85773699916899" lon="8.734996961429715">
        <ele>639.2</ele>
        <time>2024-05-28T14:16:41.005Z</time>
      </trkpt>
      <trkpt lat="45.85771193727851" lon="8.734989920631051">
        <ele>639.27</ele>
        <time>2024-05-28T14:16:45.413Z</time>
      </trkpt>
      <trkpt lat="45.8576849475503" lon="8.735004924237728">
        <ele>639.35</ele>
        <time>2024-05-28T14:16:49.822Z</time>
      </trkpt>
      <trkpt lat="45.857656951993704" lon="8.735019927844405">
        <ele>639.43</ele>
        <time>2024-05-28T14:16:54.232Z</time>
      </trkpt>
      <trkpt lat="45.857637925073504" lon="8.735031997784972">
        <ele>639.51</ele>
        <time>2024-05-28T14:16:58.642Z</time>
      </trkpt>
      <trkpt lat="45.85760791786015" lon="8.73505194671452">
        <ele>639.59</ele>
        <time>2024-05-28T14:17:03.054Z</time>
      </trkpt>
      <trkpt lat="45.857596937566996" lon="8.7350719794631">
        <ele>639.67</ele>
        <time>2024-05-28T14:17:07.466Z</time>
      </trkpt>
      <trkpt lat="45.85757992230356" lon="8.735099975019693">
        <ele>639.75</ele>
        <time>2024-05-28T14:17:11.879Z</time>
      </trkpt>
      <trkpt lat="45.85755796171725" lon="8.735129982233047">
        <ele>639.82</ele>
        <time>2024-05-28T14:17:16.293Z</time>
      </trkpt>
      <trkpt lat="45.85753792896867" lon="8.735172981396317">
        <ele>639.89</ele>
        <time>2024-05-28T14:17:20.708Z</time>
      </trkpt>
      <trkpt lat="45.85751999169588" lon="8.735207933932543">
        <ele>639.96</ele>
        <time>2024-05-28T14:17:25.124Z</time>
      </trkpt>
      <trkpt lat="45.857506999745965" lon="8.735239952802658">
        <ele>640.03</ele>
        <time>2024-05-28T14:17:29.541Z</time>
      </trkpt>
      <trkpt lat="45.8574999589473" lon="8.735282951965928">
        <ele>640.11</ele>
        <time>2024-05-28T14:17:33.959Z</time>
      </trkpt>
      <trkpt lat="45.85747196339071" lon="8.73534799553454">
        <ele>640.19</ele>
        <time>2024-05-28T14:17:38.379Z</time>
      </trkpt>
      <trkpt lat="45.85745193064213" lon="8.735387977212667">
        <ele>640.26</ele>
        <time>2024-05-28T14:17:42.800Z</time>
      </trkpt>
      <trkpt lat="45.85742695257068" lon="8.735422929748893">
        <ele>640.33</ele>
        <time>2024-05-28T14:17:47.222Z</time>
      </trkpt>
      <trkpt lat="45.85742695257068" lon="8.735451931133866">
        <ele>640.39</ele>
        <time>2024-05-28T14:17:51.645Z</time>
      </trkpt>
      <trkpt lat="45.8574169781059" lon="8.735496941953897">
        <ele>640.44</ele>
        <time>2024-05-28T14:17:56.069Z</time>
      </trkpt>
      <trkpt lat="45.857399962842464" lon="8.735536923632026">
        <ele>640.49</ele>
        <time>2024-05-28T14:18:00.494Z</time>
      </trkpt>
      <trkpt lat="45.85739191621542" lon="8.73556793667376">
        <ele>640.53</ele>
        <time>2024-05-28T14:18:04.920Z</time>
      </trkpt>
      <trkpt lat="45.85737196728587" lon="8.735604984685779">
        <ele>640.57</ele>
        <time>2024-05-28T14:18:09.347Z</time>
      </trkpt>
      <trkpt lat="45.85734992288053" lon="8.735624933615327">
        <ele>640.59</ele>
        <time>2024-05-28T14:18:13.775Z</time>
      </trkpt>
      <trkpt lat="45.857332991436124" lon="8.735644966363907">
        <ele>640.62</ele>
        <time>2024-05-28T14:18:18.204Z</time>
      </trkpt>
      <trkpt lat="45.857314970344305" lon="8.7356919888407">
        <ele>640.64</ele>
        <time>2024-05-28T14:18:22.634Z</time>
      </trkpt>
      <trkpt lat="45.857294937595725" lon="8.735717972740531">
        <ele>640.66</ele>
        <time>2024-05-28T14:18:27.065Z</time>
      </trkpt>
      <trkpt lat="45.857269959524274" lon="8.735741944983602">
        <ele>640.67</ele>
        <time>2024-05-28T14:18:31.497Z</time>
      </trkpt>
      <trkpt lat="45.85723492316902" lon="8.735769940540195">
        <ele>640.67</ele>
        <time>2024-05-28T14:18:35.930Z</time>
      </trkpt>
      <trkpt lat="45.8572219312191" lon="8.73580296523869">
        <ele>640.66</ele>
        <time>2024-05-28T14:18:40.364Z</time>
      </trkpt>
      <trkpt lat="45.85723198950291" lon="8.735826937481761">
        <ele>640.66</ele>
        <time>2024-05-28T14:18:44.799Z</time>
      </trkpt>
      <trkpt lat="45.85724296979606" lon="8.735862979665399">
        <ele>640.65</ele>
        <time>2024-05-28T14:18:49.234Z</time>
      </trkpt>
      <trkpt lat="45.85721497423947" lon="8.735899943858385">
        <ele>640.62</ele>
        <time>2024-05-28T14:18:53.671Z</time>
      </trkpt>
      <trkpt lat="45.85719292983413" lon="8.735912935808301">
        <ele>640.58</ele>
        <time>2024-05-28T14:18:58.109Z</time>
      </trkpt>
      <trkpt lat="45.85716996341944" lon="8.735922994092107">
        <ele>640.54</ele>
        <time>2024-05-28T14:19:02.547Z</time>
      </trkpt>
      <trkpt lat="45.857141967862844" lon="8.735941937193274">
        <ele>640.49</ele>
        <time>2024-05-28T14:19:06.986Z</time>
      </trkpt>
      <trkpt lat="45.857121935114264" lon="8.735957946628332">
        <ele>640.44</ele>
        <time>2024-05-28T14:19:11.426Z</time>
      </trkpt>
      <trkpt lat="45.857099974527955" lon="8.735979991033673">
        <ele>640.37</ele>
        <time>2024-05-28T14:19:15.867Z</time>
      </trkpt>
      <trkpt lat="45.85708295926452" lon="8.736001951619983">
        <ele>640.31</ele>
        <time>2024-05-28T14:19:20.309Z</time>
      </trkpt>
      <trkpt lat="45.8570649381727" lon="8.736019972711802">
        <ele>640.24</ele>
        <time>2024-05-28T14:19:24.752Z</time>
      </trkpt>
      <trkpt lat="45.85704792290926" lon="8.736034976318479">
        <ele>640.16</ele>
        <time>2024-05-28T14:19:29.195Z</time>
      </trkpt>
      <trkpt lat="45.85703291930258" lon="8.736047968268394">
        <ele>640.07</ele>
        <time>2024-05-28T14:19:33.639Z</time>
      </trkpt>
      <trkpt lat="45.85700995288789" lon="8.736117957159877">
        <ele>639.99</ele>
        <time>2024-05-28T14:19:38.085Z</time>
      </trkpt>
      <trkpt lat="45.85698497481644" lon="8.736157938838005">
        <ele>639.89</ele>
        <time>2024-05-28T14:19:42.532Z</time>
      </trkpt>
      <trkpt lat="45.856952955946326" lon="8.736192975193262">
        <ele>639.78</ele>
        <time>2024-05-28T14:19:46.980Z</time>
      </trkpt>
      <trkpt lat="45.85691791959107" lon="8.736239997670054">
        <ele>639.66</ele>
        <time>2024-05-28T14:19:51.430Z</time>
      </trkpt>
      <trkpt lat="45.856884978711605" lon="8.736287942156196">
        <ele>639.54</ele>
        <time>2024-05-28T14:19:55.881Z</time>
      </trkpt>
      <trkpt lat="45.856839967891574" lon="8.73633798211813">
        <ele>639.42</ele>
        <time>2024-05-28T14:20:00.334Z</time>
      </trkpt>
      <trkpt lat="45.85680199787021" lon="8.736377963796258">
        <ele>639.3</ele>
        <time>2024-05-28T14:20:04.789Z</time>
      </trkpt>
      <trkpt lat="45.856779953464866" lon="8.736391961574554">
        <ele>639.17</ele>
        <time>2024-05-28T14:20:09.245Z</time>
      </trkpt>
      <trkpt lat="45.85675195790827" lon="8.73642498627305">
        <ele>639.04</ele>
        <time>2024-05-28T14:20:13.702Z</time>
      </trkpt>
      <trkpt lat="45.856712982058525" lon="8.736464967951179">
        <ele>638.91</ele>
        <time>2024-05-28T14:20:18.160Z</time>
      </trkpt>
      <trkpt lat="45.85667794570327" lon="8.736516935750842">
        <ele>638.77</ele>
        <time>2024-05-28T14:20:22.620Z</time>
      </trkpt>
      <trkpt lat="45.85665497928858" lon="8.736559934914112">
        <ele>638.63</ele>
        <time>2024-05-28T14:20:27.081Z</time>
      </trkpt>
      <trkpt lat="45.85663293488324" lon="8.736614920198917">
        <ele>638.5</ele>
        <time>2024-05-28T14:20:31.544Z</time>
      </trkpt>
      <trkpt lat="45.85659999400377" lon="8.736657919362187">
        <ele>638.35</ele>
        <time>2024-05-28T14:20:36.008Z</time>
      </trkpt>
      <trkpt lat="45.85657493211329" lon="8.736692955717444">
        <ele>638.21</ele>
        <time>2024-05-28T14:20:40.474Z</time>
      </trkpt>
      <trkpt lat="45.856564957648516" lon="8.736722962930799">
        <ele>638.07</ele>
        <time>2024-05-28T14:20:44.940Z</time>
      </trkpt>
      <trkpt lat="45.856564957648516" lon="8.736754981800914">
        <ele>637.93</ele>
        <time>2024-05-28T14:20:49.407Z</time>
      </trkpt>
      <trkpt lat="45.856561940163374" lon="8.736782977357507">
        <ele>637.79</ele>
        <time>2024-05-28T14:20:53.875Z</time>
      </trkpt>
      <trkpt lat="45.8565569948405" lon="8.736817929893732">
        <ele>637.65</ele>
        <time>2024-05-28T14:20:58.344Z</time>
      </trkpt>
      <trkpt lat="45.856542997062206" lon="8.736859923228621">
        <ele>637.5</ele>
        <time>2024-05-28T14:21:02.814Z</time>
      </trkpt>
      <trkpt lat="45.856539979577065" lon="8.736902922391891">
        <ele>637.35</ele>
        <time>2024-05-28T14:21:07.285Z</time>
      </trkpt>
      <trkpt lat="45.856522964313626" lon="8.736946927383542">
        <ele>637.2</ele>
        <time>2024-05-28T14:21:11.757Z</time>
      </trkpt>
      <trkpt lat="45.85650796070695" lon="8.736979952082038">
        <ele>637.05</ele>
        <time>2024-05-28T14:21:16.230Z</time>
      </trkpt>
      <trkpt lat="45.85649496875703" lon="8.73700694181025">
        <ele>636.9</ele>
        <time>2024-05-28T14:21:20.703Z</time>
      </trkpt>
      <trkpt lat="45.85646697320044" lon="8.737037954851985">
        <ele>636.74</ele>
        <time>2024-05-28T14:21:25.178Z</time>
      </trkpt>
      <trkpt lat="45.85643998347223" lon="8.737061927095056">
        <ele>636.58</ele>
        <time>2024-05-28T14:21:29.654Z</time>
      </trkpt>
      <trkpt lat="45.85642196238041" lon="8.737084977328777">
        <ele>636.44</ele>
        <time>2024-05-28T14:21:34.131Z</time>
      </trkpt>
      <trkpt lat="45.85640796460211" lon="8.737109955400229">
        <ele>636.3</ele>
        <time>2024-05-28T14:21:38.608Z</time>
      </trkpt>
      <trkpt lat="45.85639991797507" lon="8.73713694512844">
        <ele>636.16</ele>
        <time>2024-05-28T14:21:43.086Z</time>
      </trkpt>
      <trkpt lat="45.85639698430896" lon="8.737189918756485">
        <ele>636.03</ele>
        <time>2024-05-28T14:21:47.565Z</time>
      </trkpt>
      <trkpt lat="45.85640192963183" lon="8.73722294345498">
        <ele>635.92</ele>
        <time>2024-05-28T14:21:52.045Z</time>
      </trkpt>
      <trkpt lat="45.85640494711697" lon="8.737256973981857">
        <ele>635.8</ele>
        <time>2024-05-28T14:21:56.526Z</time>
      </trkpt>
      <trkpt lat="45.85640796460211" lon="8.737289998680353">
        <ele>635.7</ele>
        <time>2024-05-28T14:22:01.008Z</time>
      </trkpt>
      <trkpt lat="45.85640796460211" lon="8.737322939559817">
        <ele>635.59</ele>
        <time>2024-05-28T14:22:05.490Z</time>
      </trkpt>
      <trkpt lat="45.856414921581745" lon="8.737354958429933">
        <ele>635.49</ele>
        <time>2024-05-28T14:22:09.973Z</time>
      </trkpt>
      <trkpt lat="45.856414921581745" lon="8.737379936501384">
        <ele>635.39</ele>
        <time>2024-05-28T14:22:14.457Z</time>
      </trkpt>
      <trkpt lat="45.85641793906689" lon="8.737424947321415">
        <ele>635.3</ele>
        <time>2024-05-28T14:22:18.942Z</time>
      </trkpt>
      <trkpt lat="45.856434954330325" lon="8.737449925392866">
        <ele>635.22</ele>
        <time>2024-05-28T14:22:23.428Z</time>
      </trkpt>
      <trkpt lat="45.85642196238041" lon="8.737469958141446">
        <ele>635.12</ele>
        <time>2024-05-28T14:22:27.914Z</time>
      </trkpt>
      <trkpt lat="45.85639991797507" lon="8.737472975626588">
        <ele>635.03</ele>
        <time>2024-05-28T14:22:32.401Z</time>
      </trkpt>
      <trkpt lat="45.856389943510294" lon="8.737442968413234">
        <ele>634.96</ele>
        <time>2024-05-28T14:22:36.889Z</time>
      </trkpt>
      <trkpt lat="45.85639698430896" lon="8.737419918179512">
        <ele>634.89</ele>
        <time>2024-05-28T14:22:41.377Z</time>
      </trkpt>
      <trkpt lat="45.856414921581745" lon="8.737407932057977">
        <ele>634.84</ele>
        <time>2024-05-28T14:22:45.866Z</time>
      </trkpt>
      <trkpt lat="45.85639698430896" lon="8.73741296119988">
        <ele>634.76</ele>
        <time>2024-05-28T14:22:50.356Z</time>
      </trkpt>
      <trkpt lat="45.85642196238041" lon="8.737409943714738">
        <ele>634.71</ele>
        <time>2024-05-28T14:22:54.846Z</time>
      </trkpt>
      <trkpt lat="45.85643998347223" lon="8.737404998391867">
        <ele>634.67</ele>
        <time>2024-05-28T14:22:59.337Z</time>
      </trkpt>
      <trkpt lat="45.856456998735666" lon="8.737439950928092">
        <ele>634.62</ele>
        <time>2024-05-28T14:23:03.829Z</time>
      </trkpt>
      <trkpt lat="45.85648197680712" lon="8.737467946484685">
        <ele>634.57</ele>
        <time>2024-05-28T14:23:08.322Z</time>
      </trkpt>
      <trkpt lat="45.85649496875703" lon="8.737507928162813">
        <ele>634.52</ele>
        <time>2024-05-28T14:23:12.816Z</time>
      </trkpt>
      <trkpt lat="45.85650494322181" lon="8.737531984224916">
        <ele>634.47</ele>
        <time>2024-05-28T14:23:17.311Z</time>
      </trkpt>
      <trkpt lat="45.85651491768658" lon="8.737582946196198">
        <ele>634.42</ele>
        <time>2024-05-28T14:23:21.807Z</time>
      </trkpt>
      <trkpt lat="45.85651793517172" lon="8.737611947581172">
        <ele>634.37</ele>
        <time>2024-05-28T14:23:26.304Z</time>
      </trkpt>
      <trkpt lat="45.85651491768658" lon="8.737637931481004">
        <ele>634.31</ele>
        <time>2024-05-28T14:23:30.801Z</time>
      </trkpt>
      <trkpt lat="45.85650796070695" lon="8.737666932865977">
        <ele>634.26</ele>
        <time>2024-05-28T14:23:35.299Z</time>
      </trkpt>
      <trkpt lat="45.85650796070695" lon="8.737696940079331">
        <ele>634.2</ele>
        <time>2024-05-28T14:23:39.798Z</time>
      </trkpt>
      <trkpt lat="45.85650494322181" lon="8.737729964777827">
        <ele>634.15</ele>
        <time>2024-05-28T14:23:44.297Z</time>
      </trkpt>
      <trkpt lat="45.856497986242175" lon="8.737766928970814">
        <ele>634.09</ele>
        <time>2024-05-28T14:23:48.797Z</time>
      </trkpt>
      <trkpt lat="45.856497986242175" lon="8.737804982811213">
        <ele>634.03</ele>
        <time>2024-05-28T14:23:53.298Z</time>
      </trkpt>
      <trkpt lat="45.856497986242175" lon="8.737839935347438">
        <ele>633.97</ele>
        <time>2024-05-28T14:23:57.800Z</time>
      </trkpt>
      <trkpt lat="45.85648499429226" lon="8.737879917025566">
        <ele>633.91</ele>
        <time>2024-05-28T14:24:02.303Z</time>
      </trkpt>
      <trkpt lat="45.856476947665215" lon="8.73790992423892">
        <ele>633.84</ele>
        <time>2024-05-28T14:24:06.807Z</time>
      </trkpt>
      <trkpt lat="45.85646697320044" lon="8.737939931452274">
        <ele>633.77</ele>
        <time>2024-05-28T14:24:11.312Z</time>
      </trkpt>
      <trkpt lat="45.85646294988692" lon="8.737964993342757">
        <ele>633.71</ele>
        <time>2024-05-28T14:24:15.817Z</time>
      </trkpt>
      <trkpt lat="45.856456998735666" lon="8.737989971414208">
        <ele>633.64</ele>
        <time>2024-05-28T14:24:20.323Z</time>
      </trkpt>
      <trkpt lat="45.85644291713834" lon="8.738012937828898">
        <ele>633.56</ele>
        <time>2024-05-28T14:24:24.830Z</time>
      </trkpt>
      <trkpt lat="45.85642497986555" lon="8.738049985840917">
        <ele>633.48</ele>
        <time>2024-05-28T14:24:29.338Z</time>
      </trkpt>
      <trkpt lat="45.85640796460211" lon="8.738087955862284">
        <ele>633.41</ele>
        <time>2024-05-28T14:24:33.847Z</time>
      </trkpt>
      <trkpt lat="45.85639991797507" lon="8.73812492005527">
        <ele>633.33</ele>
        <time>2024-05-28T14:24:38.357Z</time>
      </trkpt>
      <trkpt lat="45.856389943510294" lon="8.738161968067288">
        <ele>633.24</ele>
        <time>2024-05-28T14:24:42.867Z</time>
      </trkpt>
      <trkpt lat="45.85638692602515" lon="8.738197926431894">
        <ele>633.15</ele>
        <time>2024-05-28T14:24:47.378Z</time>
      </trkpt>
      <trkpt lat="45.85637695156038" lon="8.738232962787151">
        <ele>633.06</ele>
        <time>2024-05-28T14:24:51.890Z</time>
      </trkpt>
      <trkpt lat="45.85635792464018" lon="8.738262970000505">
        <ele>632.96</ele>
        <time>2024-05-28T14:24:56.403Z</time>
      </trkpt>
      <trkpt lat="45.85634199902415" lon="8.73829792253673">
        <ele>632.88</ele>
        <time>2024-05-28T14:25:00.917Z</time>
      </trkpt>
      <trkpt lat="45.85632196627557" lon="8.738332958891988">
        <ele>632.79</ele>
        <time>2024-05-28T14:25:05.432Z</time>
      </trkpt>
      <trkpt lat="45.85630998015404" lon="8.738366989418864">
        <ele>632.71</ele>
        <time>2024-05-28T14:25:09.948Z</time>
      </trkpt>
      <trkpt lat="45.85629992187023" lon="8.738387944176793">
        <ele>632.62</ele>
        <time>2024-05-28T14:25:14.465Z</time>
      </trkpt>
      <trkpt lat="45.856286929920316" lon="8.738419963046908">
        <ele>632.53</ele>
        <time>2024-05-28T14:25:18.982Z</time>
      </trkpt>
      <trkpt lat="45.85627997294068" lon="8.738449970260262">
        <ele>632.44</ele>
        <time>2024-05-28T14:25:23.500Z</time>
      </trkpt>
      <trkpt lat="45.856264969334006" lon="8.73848995193839">
        <ele>632.35</ele>
        <time>2024-05-28T14:25:28.019Z</time>
      </trkpt>
      <trkpt lat="45.856264969334006" lon="8.73853194527328">
        <ele>632.26</ele>
        <time>2024-05-28T14:25:32.539Z</time>
      </trkpt>
      <trkpt lat="45.85626798681915" lon="8.738566981628537">
        <ele>632.17</ele>
        <time>2024-05-28T14:25:37.060Z</time>
      </trkpt>
      <trkpt lat="45.856286929920316" lon="8.738586930558085">
        <ele>632.08</ele>
        <time>2024-05-28T14:25:41.582Z</time>
      </trkpt>
      <trkpt lat="45.856306962668896" lon="8.738604951649904">
        <ele>631.99</ele>
        <time>2024-05-28T14:25:46.105Z</time>
      </trkpt>
      <trkpt lat="45.85634199902415" lon="8.738626996055245">
        <ele>631.91</ele>
        <time>2024-05-28T14:25:50.629Z</time>
      </trkpt>
      <trkpt lat="45.856372928246856" lon="8.738656919449568">
        <ele>631.82</ele>
        <time>2024-05-28T14:25:55.154Z</time>
      </trkpt>
      <trkpt lat="45.85639698430896" lon="8.738669995218515">
        <ele>631.74</ele>
        <time>2024-05-28T14:25:59.680Z</time>
      </trkpt>
      <trkpt lat="45.85641793906689" lon="8.738684998825192">
        <ele>631.65</ele>
        <time>2024-05-28T14:26:04.207Z</time>
      </trkpt>
      <trkpt lat="45.85643998347223" lon="8.738707965239882">
        <ele>631.56</ele>
        <time>2024-05-28T14:26:08.735Z</time>
      </trkpt>
      <trkpt lat="45.85646697320044" lon="8.73872498050332">
        <ele>631.48</ele>
        <time>2024-05-28T14:26:13.264Z</time>
      </trkpt>
      <trkpt lat="45.85649496875703" lon="8.738744929432869">
        <ele>631.39</ele>
        <time>2024-05-28T14:26:17.794Z</time>
      </trkpt>
      <trkpt lat="45.856522964313626" lon="8.738762950524688">
        <ele>631.31</ele>
        <time>2024-05-28T14:26:22.325Z</time>
      </trkpt>
      <trkpt lat="45.8565469365567" lon="8.738779965788126">
        <ele>631.22</ele>
        <time>2024-05-28T14:26:26.857Z</time>
      </trkpt>
      <trkpt lat="45.85657794959843" lon="8.738799998536706">
        <ele>631.14</ele>
        <time>2024-05-28T14:26:31.390Z</time>
      </trkpt>
      <trkpt lat="45.85661994293332" lon="8.738822964951396">
        <ele>631.06</ele>
        <time>2024-05-28T14:26:35.924Z</time>
      </trkpt>
      <trkpt lat="45.85665497928858" lon="8.738837968558073">
        <ele>630.98</ele>
        <time>2024-05-28T14:26:40.460Z</time>
      </trkpt>
      <trkpt lat="45.85667794570327" lon="8.738854983821511">
        <ele>630.89</ele>
        <time>2024-05-28T14:26:44.996Z</time>
      </trkpt>
      <trkpt lat="45.85670292377472" lon="8.738877950236201">
        <ele>630.81</ele>
        <time>2024-05-28T14:26:49.533Z</time>
      </trkpt>
      <trkpt lat="45.85671993903816" lon="8.738906951621175">
        <ele>630.73</ele>
        <time>2024-05-28T14:26:54.071Z</time>
      </trkpt>
      <trkpt lat="45.856737960129976" lon="8.738932935521007">
        <ele>630.64</ele>
        <time>2024-05-28T14:26:58.610Z</time>
      </trkpt>
      <trkpt lat="45.856757992878556" lon="8.738952968269587">
        <ele>630.56</ele>
        <time>2024-05-28T14:27:03.150Z</time>
      </trkpt>
      <trkpt lat="45.85678297095001" lon="8.738972917199135">
        <ele>630.49</ele>
        <time>2024-05-28T14:27:07.691Z</time>
      </trkpt>
      <trkpt lat="45.85680199787021" lon="8.738999990746379">
        <ele>630.41</ele>
        <time>2024-05-28T14:27:12.233Z</time>
      </trkpt>
      <trkpt lat="45.8568249642849" lon="8.739027986302972">
        <ele>630.33</ele>
        <time>2024-05-28T14:27:16.776Z</time>
      </trkpt>
      <trkpt lat="45.856842985376716" lon="8.739062938839197">
        <ele>630.25</ele>
        <time>2024-05-28T14:27:21.320Z</time>
      </trkpt>
      <trkpt lat="45.856866957619786" lon="8.739097975194454">
        <ele>630.17</ele>
        <time>2024-05-28T14:27:25.865Z</time>
      </trkpt>
      <trkpt lat="45.85689495317638" lon="8.739137956872582">
        <ele>630.09</ele>
        <time>2024-05-28T14:27:30.411Z</time>
      </trkpt>
      <trkpt lat="45.85691993124783" lon="8.739174921065569">
        <ele>630.02</ele>
        <time>2024-05-28T14:27:34.958Z</time>
      </trkpt>
      <trkpt lat="45.85694298148155" lon="8.739209957420826">
        <ele>629.95</ele>
        <time>2024-05-28T14:27:39.507Z</time>
      </trkpt>
      <trkpt lat="45.856971982866526" lon="8.73923996463418">
        <ele>629.88</ele>
        <time>2024-05-28T14:27:44.057Z</time>
      </trkpt>
      <trkpt lat="45.85699796676636" lon="8.739274917170405">
        <ele>629.81</ele>
        <time>2024-05-28T14:27:48.608Z</time>
      </trkpt>
      <trkpt lat="45.85701699368656" lon="8.73930492438376">
        <ele>629.74</ele>
        <time>2024-05-28T14:27:53.160Z</time>
      </trkpt>
      <trkpt lat="45.85704792290926" lon="8.739322945475578">
        <ele>629.68</ele>
        <time>2024-05-28T14:27:57.713Z</time>
      </trkpt>
      <trkpt lat="45.857079941779375" lon="8.739342978224158">
        <ele>629.61</ele>
        <time>2024-05-28T14:28:02.267Z</time>
      </trkpt>
      <trkpt lat="45.85713492706418" lon="8.739356976002455">
        <ele>629.55</ele>
        <time>2024-05-28T14:28:06.823Z</time>
      </trkpt>
      <trkpt lat="45.85715998895466" lon="8.739379942417145">
        <ele>629.49</ele>
        <time>2024-05-28T14:28:11.380Z</time>
      </trkpt>
      <trkpt lat="45.85718999616802" lon="8.739399975165725">
        <ele>629.43</ele>
        <time>2024-05-28T14:28:15.938Z</time>
      </trkpt>
      <trkpt lat="45.85721195675433" lon="8.739429982379079">
        <ele>629.37</ele>
        <time>2024-05-28T14:28:20.497Z</time>
      </trkpt>
      <trkpt lat="45.85723492316902" lon="8.73945496045053">
        <ele>629.31</ele>
        <time>2024-05-28T14:28:25.057Z</time>
      </trkpt>
      <trkpt lat="45.8572599850595" lon="8.73947792686522">
        <ele>629.26</ele>
        <time>2024-05-28T14:28:29.618Z</time>
      </trkpt>
      <trkpt lat="45.85728798061609" lon="8.739492930471897">
        <ele>629.21</ele>
        <time>2024-05-28T14:28:34.180Z</time>
      </trkpt>
      <trkpt lat="45.857314970344305" lon="8.739501982927322">
        <ele>629.16</ele>
        <time>2024-05-28T14:28:38.743Z</time>
      </trkpt>
      <trkpt lat="45.857339948415756" lon="8.739514974877238">
        <ele>629.12</ele>
        <time>2024-05-28T14:28:43.307Z</time>
      </trkpt>
      <trkpt lat="45.85736794397235" lon="8.73951992020011">
        <ele>629.08</ele>
        <time>2024-05-28T14:28:47.872Z</time>
      </trkpt>
      <trkpt lat="45.8573979511857" lon="8.73951992020011">
        <ele>629.05</ele>
        <time>2024-05-28T14:28:52.438Z</time>
      </trkpt>
      <trkpt lat="45.85742997005582" lon="8.73951992020011">
        <ele>629.01</ele>
        <time>2024-05-28T14:28:57.005Z</time>
      </trkpt>
      <trkpt lat="45.85745796561241" lon="8.739512963220477">
        <ele>628.97</ele>
        <time>2024-05-28T14:29:01.573Z</time>
      </trkpt>
      <trkpt lat="45.85748998448253" lon="8.73951992020011">
        <ele>628.93</ele>
        <time>2024-05-28T14:29:06.142Z</time>
      </trkpt>
      <trkpt lat="45.85752493701875" lon="8.73951992020011">
        <ele>628.89</ele>
        <time>2024-05-28T14:29:10.712Z</time>
      </trkpt>
      <trkpt lat="45.85756693035364" lon="8.73952193185687">
        <ele>628.84</ele>
        <time>2024-05-28T14:29:15.284Z</time>
      </trkpt>
      <trkpt lat="45.85760791786015" lon="8.739534923806787">
        <ele>628.79</ele>
        <time>2024-05-28T14:29:19.857Z</time>
      </trkpt>
      <trkpt lat="45.85765292868018" lon="8.739544982090592">
        <ele>628.73</ele>
        <time>2024-05-28T14:29:24.431Z</time>
      </trkpt>
      <trkpt lat="45.85769198834896" lon="8.73956199735403">
        <ele>628.66</ele>
        <time>2024-05-28T14:29:29.007Z</time>
      </trkpt>
      <trkpt lat="45.85770799778402" lon="8.739574989303946">
        <ele>628.59</ele>
        <time>2024-05-28T14:29:33.583Z</time>
      </trkpt>
      <trkpt lat="45.857722917571664" lon="8.739601979032159">
        <ele>628.5</ele>
        <time>2024-05-28T14:29:38.160Z</time>
      </trkpt>
      <trkpt lat="45.85771495476365" lon="8.739637937396765">
        <ele>628.4</ele>
        <time>2024-05-28T14:29:42.738Z</time>
      </trkpt>
      <trkpt lat="45.85770498029888" lon="8.739662999287248">
        <ele>628.29</ele>
        <time>2024-05-28T14:29:47.317Z</time>
      </trkpt>
      <trkpt lat="45.85768796503544" lon="8.739706920459867">
        <ele>628.18</ele>
        <time>2024-05-28T14:29:51.897Z</time>
      </trkpt>
      <trkpt lat="45.857676984742284" lon="8.739726953208447">
        <ele>628.05</ele>
        <time>2024-05-28T14:29:56.478Z</time>
      </trkpt>
      <trkpt lat="45.857656951993704" lon="8.739746985957026">
        <ele>627.91</ele>
        <time>2024-05-28T14:30:01.059Z</time>
      </trkpt>
      <trkpt lat="45.85762795060873" lon="8.739771964028478">
        <ele>627.76</ele>
        <time>2024-05-28T14:30:05.641Z</time>
      </trkpt>
      <trkpt lat="45.857596937566996" lon="8.739791996777058">
        <ele>627.6</ele>
        <time>2024-05-28T14:30:10.225Z</time>
      </trkpt>
      <trkpt lat="45.85756693035364" lon="8.739811945706606">
        <ele>627.43</ele>
        <time>2024-05-28T14:30:14.810Z</time>
      </trkpt>
      <trkpt lat="45.857551926746964" lon="8.739824937656522">
        <ele>627.25</ele>
        <time>2024-05-28T14:30:19.395Z</time>
      </trkpt>
      <trkpt lat="45.85752493701875" lon="8.739844970405102">
        <ele>627.05</ele>
        <time>2024-05-28T14:30:23.981Z</time>
      </trkpt>
      <trkpt lat="45.8574999589473" lon="8.739879922941327">
        <ele>626.85</ele>
        <time>2024-05-28T14:30:28.568Z</time>
      </trkpt>
      <trkpt lat="45.85747498087585" lon="8.739897944033146">
        <ele>626.63</ele>
        <time>2024-05-28T14:30:33.156Z</time>
      </trkpt>
      <trkpt lat="45.85744799114764" lon="8.739916970953345">
        <ele>626.39</ele>
        <time>2024-05-28T14:30:37.745Z</time>
      </trkpt>
      <trkpt lat="45.85742997005582" lon="8.739917976781726">
        <ele>626.14</ele>
        <time>2024-05-28T14:30:42.335Z</time>
      </trkpt>
      <trkpt lat="45.857399962842464" lon="8.739919988438487">
        <ele>625.87</ele>
        <time>2024-05-28T14:30:46.926Z</time>
      </trkpt>
      <trkpt lat="45.85736794397235" lon="8.739936919882894">
        <ele>625.58</ele>
        <time>2024-05-28T14:30:51.518Z</time>
      </trkpt>
      <trkpt lat="45.857339948415756" lon="8.739957958459854">
        <ele>625.28</ele>
        <time>2024-05-28T14:30:56.111Z</time>
      </trkpt>
      <trkpt lat="45.857314970344305" lon="8.739977991208434">
        <ele>624.97</ele>
        <time>2024-05-28T14:31:00.705Z</time>
      </trkpt>
      <trkpt lat="45.857294937595725" lon="8.740001963451505">
        <ele>624.65</ele>
        <time>2024-05-28T14:31:05.300Z</time>
      </trkpt>
      <trkpt lat="45.857269959524274" lon="8.740031970664859">
        <ele>624.32</ele>
        <time>2024-05-28T14:31:09.896Z</time>
      </trkpt>
      <trkpt lat="45.857249926775694" lon="8.740044962614775">
        <ele>623.96</ele>
        <time>2024-05-28T14:31:14.493Z</time>
      </trkpt>
      <trkpt lat="45.85723492316902" lon="8.740069940686226">
        <ele>623.59</ele>
        <time>2024-05-28T14:31:19.091Z</time>
      </trkpt>
      <trkpt lat="45.85719292983413" lon="8.740102965384722">
        <ele>623.22</ele>
        <time>2024-05-28T14:31:23.690Z</time>
      </trkpt>
      <trkpt lat="45.85715495981276" lon="8.74011998064816">
        <ele>622.82</ele>
        <time>2024-05-28T14:31:28.291Z</time>
      </trkpt>
      <trkpt lat="45.85713492706418" lon="8.740127943456173">
        <ele>622.42</ele>
        <time>2024-05-28T14:31:32.892Z</time>
      </trkpt>
      <trkpt lat="45.85711296647787" lon="8.740114951506257">
        <ele>622.0</ele>
        <time>2024-05-28T14:31:37.494Z</time>
      </trkpt>
      <trkpt lat="45.85708295926452" lon="8.74009994789958">
        <ele>621.57</ele>
        <time>2024-05-28T14:31:42.097Z</time>
      </trkpt>
      <trkpt lat="45.85704197175801" lon="8.740089973434806">
        <ele>621.12</ele>
        <time>2024-05-28T14:31:46.701Z</time>
      </trkpt>
      <trkpt lat="45.857012970373034" lon="8.740084944292903">
        <ele>620.67</ele>
        <time>2024-05-28T14:31:51.306Z</time>
      </trkpt>
      <trkpt lat="45.85696494206786" lon="8.740096930414438">
        <ele>620.21</ele>
        <time>2024-05-28T14:31:55.913Z</time>
      </trkpt>
      <trkpt lat="45.85691791959107" lon="8.740122998133302">
        <ele>619.75</ele>
        <time>2024-05-28T14:32:00.522Z</time>
      </trkpt>
      <trkpt lat="45.856866957619786" lon="8.740149987861514">
        <ele>619.27</ele>
        <time>2024-05-28T14:32:05.133Z</time>
      </trkpt>
      <trkpt lat="45.856821946799755" lon="8.740182928740978">
        <ele>618.78</ele>
        <time>2024-05-28T14:32:09.745Z</time>
      </trkpt>
      <trkpt lat="45.85676293820143" lon="8.740241937339306">
        <ele>618.28</ele>
        <time>2024-05-28T14:32:14.360Z</time>
      </trkpt>
      <trkpt lat="45.85671993903816" lon="8.740286948159337">
        <ele>617.78</ele>
        <time>2024-05-28T14:32:18.976Z</time>
      </trkpt>
      <trkpt lat="45.856667971238494" lon="8.740332964807749">
        <ele>617.26</ele>
        <time>2024-05-28T14:32:23.594Z</time>
      </trkpt>
      <trkpt lat="45.85662296041846" lon="8.740359954535961">
        <ele>616.76</ele>
        <time>2024-05-28T14:32:28.214Z</time>
      </trkpt>
      <trkpt lat="45.856564957648516" lon="8.740407982841134">
        <ele>616.26</ele>
        <time>2024-05-28T14:32:32.836Z</time>
      </trkpt>
      <trkpt lat="45.85650494322181" lon="8.740459950640798">
        <ele>615.76</ele>
        <time>2024-05-28T14:32:37.461Z</time>
      </trkpt>
      <trkpt lat="45.856452975422144" lon="8.740492975339293">
        <ele>615.26</ele>
        <time>2024-05-28T14:32:42.088Z</time>
      </trkpt>
      <trkpt lat="45.85642497986555" lon="8.74050797894597">
        <ele>614.76</ele>
        <time>2024-05-28T14:32:46.716Z</time>
      </trkpt>
      <trkpt lat="45.85640494711697" lon="8.740504961460829">
        <ele>614.26</ele>
        <time>2024-05-28T14:32:51.344Z</time>
      </trkpt>
      <trkpt lat="45.85637996904552" lon="8.740497920662165">
        <ele>613.76</ele>
        <time>2024-05-28T14:32:55.973Z</time>
      </trkpt>
      <trkpt lat="45.85635792464018" lon="8.740491969510913">
        <ele>613.27</ele>
        <time>2024-05-28T14:33:00.603Z</time>
      </trkpt>
      <trkpt lat="45.85632196627557" lon="8.74048794619739">
        <ele>612.76</ele>
        <time>2024-05-28T14:33:05.234Z</time>
      </trkpt>
      <trkpt lat="45.85629698820412" lon="8.740466991439462">
        <ele>612.27</ele>
        <time>2024-05-28T14:33:09.866Z</time>
      </trkpt>
      <trkpt lat="45.856261951848865" lon="8.74044293537736">
        <ele>611.77</ele>
        <time>2024-05-28T14:33:14.499Z</time>
      </trkpt>
      <trkpt lat="45.85622993297875" lon="8.740436984226108">
        <ele>611.29</ele>
        <time>2024-05-28T14:33:19.133Z</time>
      </trkpt>
      <trkpt lat="45.8562099840492" lon="8.740426925942302">
        <ele>610.81</ele>
        <time>2024-05-28T14:33:23.768Z</time>
      </trkpt>
      <trkpt lat="45.85619196295738" lon="8.740431955084205">
        <ele>610.36</ele>
        <time>2024-05-28T14:33:28.404Z</time>
      </trkpt>
      <trkpt lat="45.85616799071431" lon="8.74044293537736">
        <ele>609.91</ele>
        <time>2024-05-28T14:33:33.041Z</time>
      </trkpt>
      <trkpt lat="45.85614695213735" lon="8.740452993661165">
        <ele>609.47</ele>
        <time>2024-05-28T14:33:37.678Z</time>
      </trkpt>
      <trkpt lat="45.8561079762876" lon="8.740466991439462">
        <ele>609.03</ele>
        <time>2024-05-28T14:33:42.317Z</time>
      </trkpt>
      <trkpt lat="45.85607998073101" lon="8.740476965904236">
        <ele>608.61</ele>
        <time>2024-05-28T14:33:46.957Z</time>
      </trkpt>
      <trkpt lat="45.85604293271899" lon="8.740472942590714">
        <ele>608.18</ele>
        <time>2024-05-28T14:33:51.598Z</time>
      </trkpt>
      <trkpt lat="45.85601795464754" lon="8.740457938984036">
        <ele>607.77</ele>
        <time>2024-05-28T14:33:56.240Z</time>
      </trkpt>
      <trkpt lat="45.85599297657609" lon="8.740432960912585">
        <ele>607.36</ele>
        <time>2024-05-28T14:34:00.883Z</time>
      </trkpt>
      <trkpt lat="45.85596992634237" lon="8.740411922335625">
        <ele>606.97</ele>
        <time>2024-05-28T14:34:05.527Z</time>
      </trkpt>
      <trkpt lat="45.85594494827092" lon="8.740392979234457">
        <ele>606.59</ele>
        <time>2024-05-28T14:34:10.172Z</time>
      </trkpt>
      <trkpt lat="45.855919970199466" lon="8.74037797562778">
        <ele>606.23</ele>
        <time>2024-05-28T14:34:14.817Z</time>
      </trkpt>
      <trkpt lat="45.85588292218745" lon="8.740361966192722">
        <ele>605.88</ele>
        <time>2024-05-28T14:34:19.464Z</time>
      </trkpt>
      <trkpt lat="45.85584495216608" lon="8.740332964807749">
        <ele>605.54</ele>
        <time>2024-05-28T14:34:24.112Z</time>
      </trkpt>
      <trkpt lat="45.85580295883119" lon="8.74031494371593">
        <ele>605.22</ele>
        <time>2024-05-28T14:34:28.762Z</time>
      </trkpt>
      <trkpt lat="45.855767922475934" lon="8.74031494371593">
        <ele>604.9</ele>
        <time>2024-05-28T14:34:33.413Z</time>
      </trkpt>
      <trkpt lat="45.85574998520315" lon="8.740307986736298">
        <ele>604.6</ele>
        <time>2024-05-28T14:34:38.064Z</time>
      </trkpt>
      <trkpt lat="45.855726934969425" lon="8.740326929837465">
        <ele>604.31</ele>
        <time>2024-05-28T14:34:42.716Z</time>
      </trkpt>
      <trkpt lat="45.85571494884789" lon="8.740347968414426">
        <ele>604.03</ele>
        <time>2024-05-28T14:34:47.369Z</time>
      </trkpt>
      <trkpt lat="45.85569793358445" lon="8.740372946485877">
        <ele>603.76</ele>
        <time>2024-05-28T14:34:52.023Z</time>
      </trkpt>
      <trkpt lat="45.85566692054272" lon="8.740402953699231">
        <ele>603.5</ele>
        <time>2024-05-28T14:34:56.678Z</time>
      </trkpt>
      <trkpt lat="45.85564697161317" lon="8.740426925942302">
        <ele>603.24</ele>
        <time>2024-05-28T14:35:01.334Z</time>
      </trkpt>
      <trkpt lat="45.85562199354172" lon="8.740459950640798">
        <ele>603.0</ele>
        <time>2024-05-28T14:35:05.991Z</time>
      </trkpt>
      <trkpt lat="45.855599949136376" lon="8.740492975339293">
        <ele>602.77</ele>
        <time>2024-05-28T14:35:10.649Z</time>
      </trkpt>
      <trkpt lat="45.855572959408164" lon="8.740524994209409">
        <ele>602.54</ele>
        <time>2024-05-28T14:35:15.308Z</time>
      </trkpt>
      <trkpt lat="45.85555996745825" lon="8.740564975887537">
        <ele>602.33</ele>
        <time>2024-05-28T14:35:19.968Z</time>
      </trkpt>
      <trkpt lat="45.85554798133671" lon="8.740609986707568">
        <ele>602.13</ele>
        <time>2024-05-28T14:35:24.629Z</time>
      </trkpt>
      <trkpt lat="45.85554496385157" lon="8.740651980042458">
        <ele>601.94</ele>
        <time>2024-05-28T14:35:29.291Z</time>
      </trkpt>
      <trkpt lat="45.8555349893868" lon="8.740684920921922">
        <ele>601.75</ele>
        <time>2024-05-28T14:35:33.954Z</time>
      </trkpt>
      <trkpt lat="45.85552493110299" lon="8.740729931741953">
        <ele>601.57</ele>
        <time>2024-05-28T14:35:38.618Z</time>
      </trkpt>
      <trkpt lat="45.855506993830204" lon="8.740769997239113">
        <ele>601.39</ele>
        <time>2024-05-28T14:35:43.283Z</time>
      </trkpt>
      <trkpt lat="45.855489978566766" lon="8.740804949775338">
        <ele>601.2</ele>
        <time>2024-05-28T14:35:47.949Z</time>
      </trkpt>
      <trkpt lat="45.85547992028296" lon="8.740839986130595">
        <ele>601.01</ele>
        <time>2024-05-28T14:35:52.616Z</time>
      </trkpt>
      <trkpt lat="45.855467934161425" lon="8.740862952545285">
        <ele>600.82</ele>
        <time>2024-05-28T14:35:57.284Z</time>
      </trkpt>
      <trkpt lat="45.85545494221151" lon="8.740882985293865">
        <ele>600.62</ele>
        <time>2024-05-28T14:36:01.953Z</time>
      </trkpt>
      <trkpt lat="45.85543692111969" lon="8.740884996950626">
        <ele>600.42</ele>
        <time>2024-05-28T14:36:06.622Z</time>
      </trkpt>
      <trkpt lat="45.85541294887662" lon="8.740907963365316">
        <ele>600.22</ele>
        <time>2024-05-28T14:36:11.292Z</time>
      </trkpt>
      <trkpt lat="45.855384953320026" lon="8.740929923951626">
        <ele>600.01</ele>
        <time>2024-05-28T14:36:15.963Z</time>
      </trkpt>
      <trkpt lat="45.85535293444991" lon="8.740944927558303">
        <ele>599.81</ele>
        <time>2024-05-28T14:36:20.635Z</time>
      </trkpt>
      <trkpt lat="45.85532292723656" lon="8.740941993892193">
        <ele>599.59</ele>
        <time>2024-05-28T14:36:25.308Z</time>
      </trkpt>
      <trkpt lat="45.855291998013854" lon="8.740941993892193">
        <ele>599.37</ele>
        <time>2024-05-28T14:36:29.982Z</time>
      </trkpt>
      <trkpt lat="45.855252938345075" lon="8.740949956700206">
        <ele>599.14</ele>
        <time>2024-05-28T14:36:34.658Z</time>
      </trkpt>
      <trkpt lat="45.855211950838566" lon="8.740952974185348">
        <ele>598.91</ele>
        <time>2024-05-28T14:36:39.335Z</time>
      </trkpt>
      <trkpt lat="45.85517699830234" lon="8.740947945043445">
        <ele>598.66</ele>
        <time>2024-05-28T14:36:44.013Z</time>
      </trkpt>
      <trkpt lat="45.85513793863356" lon="8.740947945043445">
        <ele>598.4</ele>
        <time>2024-05-28T14:36:48.693Z</time>
      </trkpt>
      <trkpt lat="45.85509695112705" lon="8.740941993892193">
        <ele>598.13</ele>
        <time>2024-05-28T14:36:53.374Z</time>
      </trkpt>
      <trkpt lat="45.8550479169935" lon="8.740927996113896">
        <ele>597.82</ele>
        <time>2024-05-28T14:36:58.057Z</time>
      </trkpt>
      <trkpt lat="45.8550029899925" lon="8.740909975022078">
        <ele>597.51</ele>
        <time>2024-05-28T14:37:02.741Z</time>
      </trkpt>
      <trkpt lat="45.85496795363724" lon="8.740881979465485">
        <ele>597.18</ele>
        <time>2024-05-28T14:37:07.427Z</time>
      </trkpt>
      <trkpt lat="45.85493694059551" lon="8.740847948938608">
        <ele>596.85</ele>
        <time>2024-05-28T14:37:12.114Z</time>
      </trkpt>
      <trkpt lat="45.85489494726062" lon="8.740822970867157">
        <ele>596.5</ele>
        <time>2024-05-28T14:37:16.802Z</time>
      </trkpt>
      <trkpt lat="45.85486996918917" lon="8.740802938118577">
        <ele>596.16</ele>
        <time>2024-05-28T14:37:21.491Z</time>
      </trkpt>
      <trkpt lat="45.85485697723925" lon="8.740779971703887">
        <ele>595.81</ele>
        <time>2024-05-28T14:37:26.181Z</time>
      </trkpt>
      <trkpt lat="45.85483795031905" lon="8.740739990025759">
        <ele>595.44</ele>
        <time>2024-05-28T14:37:30.872Z</time>
      </trkpt>
      <trkpt lat="45.854804925620556" lon="8.740717945620418">
        <ele>595.06</ele>
        <time>2024-05-28T14:37:35.564Z</time>
      </trkpt>
      <trkpt lat="45.85476695559919" lon="8.74070193618536">
        <ele>594.66</ele>
        <time>2024-05-28T14:37:40.258Z</time>
      </trkpt>
      <trkpt lat="45.8547199331224" lon="8.740699924528599">
        <ele>594.26</ele>
        <time>2024-05-28T14:37:44.953Z</time>
      </trkpt>
      <trkpt lat="45.85468699224293" lon="8.740694979205728">
        <ele>593.87</ele>
        <time>2024-05-28T14:37:49.649Z</time>
      </trkpt>
      <trkpt lat="45.85466796532273" lon="8.740709982812405">
        <ele>593.49</ele>
        <time>2024-05-28T14:37:54.346Z</time>
      </trkpt>
      <trkpt lat="45.854629995301366" lon="8.740726998075843">
        <ele>593.09</ele>
        <time>2024-05-28T14:37:59.044Z</time>
      </trkpt>
      <trkpt lat="45.85459797643125" lon="8.740729931741953">
        <ele>592.69</ele>
        <time>2024-05-28T14:38:03.743Z</time>
      </trkpt>
      <trkpt lat="45.85456193424761" lon="8.740751976147294">
        <ele>592.3</ele>
        <time>2024-05-28T14:38:08.444Z</time>
      </trkpt>
      <trkpt lat="45.85452999919653" lon="8.74076496809721">
        <ele>591.9</ele>
        <time>2024-05-28T14:38:13.146Z</time>
      </trkpt>
      <trkpt lat="45.854497980326414" lon="8.740809978917241">
        <ele>591.52</ele>
        <time>2024-05-28T14:38:17.849Z</time>
      </trkpt>
      <trkpt lat="45.85446998476982" lon="8.740834956988692">
        <ele>591.13</ele>
        <time>2024-05-28T14:38:22.553Z</time>
      </trkpt>
      <trkpt lat="45.854434948414564" lon="8.740862952545285">
        <ele>590.74</ele>
        <time>2024-05-28T14:38:27.259Z</time>
      </trkpt>
      <trkpt lat="45.854411981999874" lon="8.74089295975864">
        <ele>590.36</ele>
        <time>2024-05-28T14:38:31.966Z</time>
      </trkpt>
      <trkpt lat="45.8543969783932" lon="8.740909975022078">
        <ele>589.99</ele>
        <time>2024-05-28T14:38:36.673Z</time>
      </trkpt>
      <trkpt lat="45.854372922331095" lon="8.74093797057867">
        <ele>589.61</ele>
        <time>2024-05-28T14:38:41.381Z</time>
      </trkpt>
      <trkpt lat="45.854369988664985" lon="8.74100192449987">
        <ele>589.27</ele>
        <time>2024-05-28T14:38:46.091Z</time>
      </trkpt>
      <trkpt lat="45.85435791872442" lon="8.741037966683507">
        <ele>588.92</ele>
        <time>2024-05-28T14:38:50.802Z</time>
      </trkpt>
      <trkpt lat="45.85434199310839" lon="8.741062944754958">
        <ele>588.57</ele>
        <time>2024-05-28T14:38:55.514Z</time>
      </trkpt>
      <trkpt lat="45.85432196035981" lon="8.741061938926578">
        <ele>588.2</ele>
        <time>2024-05-28T14:39:00.226Z</time>
      </trkpt>
      <trkpt lat="45.8542899414897" lon="8.741067973896861">
        <ele>587.83</ele>
        <time>2024-05-28T14:39:04.939Z</time>
      </trkpt>
      <trkpt lat="45.854261945933104" lon="8.741082977503538">
        <ele>587.47</ele>
        <time>2024-05-28T14:39:09.653Z</time>
      </trkpt>
      <trkpt lat="45.854239985346794" lon="8.741111978888512">
        <ele>587.13</ele>
        <time>2024-05-28T14:39:14.368Z</time>
      </trkpt>
      <trkpt lat="45.85421299561858" lon="8.74115296639502">
        <ele>586.8</ele>
        <time>2024-05-28T14:39:19.085Z</time>
      </trkpt>
      <trkpt lat="45.854199919849634" lon="8.741177944466472">
        <ele>586.47</ele>
        <time>2024-05-28T14:39:23.802Z</time>
      </trkpt>
      <trkpt lat="45.85418198257685" lon="8.741204934194684">
        <ele>586.14</ele>
        <time>2024-05-28T14:39:28.520Z</time>
      </trkpt>
      <trkpt lat="45.85416194982827" lon="8.741232929751277">
        <ele>585.81</ele>
        <time>2024-05-28T14:39:33.239Z</time>
      </trkpt>
      <trkpt lat="45.854132948443294" lon="8.741274923086166">
        <ele>585.49</ele>
        <time>2024-05-28T14:39:37.960Z</time>
      </trkpt>
      <trkpt lat="45.85409799590707" lon="8.7413249630481">
        <ele>585.19</ele>
        <time>2024-05-28T14:39:42.682Z</time>
      </trkpt>
      <trkpt lat="45.85405692458153" lon="8.741364944726229">
        <ele>584.88</ele>
        <time>2024-05-28T14:39:47.406Z</time>
      </trkpt>
      <trkpt lat="45.8540219720453" lon="8.741371985524893">
        <ele>584.57</ele>
        <time>2024-05-28T14:39:52.131Z</time>
      </trkpt>
      <trkpt lat="45.85400193929672" lon="8.741364944726229">
        <ele>584.27</ele>
        <time>2024-05-28T14:39:56.857Z</time>
      </trkpt>
      <trkpt lat="45.853982996195555" lon="8.741336949169636">
        <ele>583.97</ele>
        <time>2024-05-28T14:40:01.584Z</time>
      </trkpt>
      <trkpt lat="45.85395994596183" lon="8.74129998497665">
        <ele>583.67</ele>
        <time>2024-05-28T14:40:06.312Z</time>
      </trkpt>
      <trkpt lat="45.85395994596183" lon="8.741251956671476">
        <ele>583.39</ele>
        <time>2024-05-28T14:40:11.041Z</time>
      </trkpt>
      <trkpt lat="45.853944942355156" lon="8.74121692031622">
        <ele>583.12</ele>
        <time>2024-05-28T14:40:15.771Z</time>
      </trkpt>
      <trkpt lat="45.853944942355156" lon="8.741179956123233">
        <ele>582.87</ele>
        <time>2024-05-28T14:40:20.502Z</time>
      </trkpt>
      <trkpt lat="45.853944942355156" lon="8.741141986101866">
        <ele>582.63</ele>
        <time>2024-05-28T14:40:25.234Z</time>
      </trkpt>
      <trkpt lat="45.8539669867605" lon="8.741106949746609">
        <ele>582.42</ele>
        <time>2024-05-28T14:40:29.967Z</time>
      </trkpt>
      <trkpt lat="45.85397997871041" lon="8.741079960018396">
        <ele>582.22</ele>
        <time>2024-05-28T14:40:34.701Z</time>
      </trkpt>
      <trkpt lat="45.85399992763996" lon="8.741051964461803">
        <ele>582.03</ele>
        <time>2024-05-28T14:40:39.436Z</time>
      </trkpt>
      <trkpt lat="45.85401199758053" lon="8.74102195724845">
        <ele>581.85</ele>
        <time>2024-05-28T14:40:44.171Z</time>
      </trkpt>
      <trkpt lat="45.854024989530444" lon="8.740987926721573">
        <ele>581.69</ele>
        <time>2024-05-28T14:40:48.907Z</time>
      </trkpt>
      <trkpt lat="45.85403999313712" lon="8.740954985842109">
        <ele>581.54</ele>
        <time>2024-05-28T14:40:53.644Z</time>
      </trkpt>
      <trkpt lat="45.85405994206667" lon="8.740947945043445">
        <ele>581.41</ele>
        <time>2024-05-28T14:40:58.382Z</time>
      </trkpt>
      <trkpt lat="45.85408492013812" lon="8.740929923951626">
        <ele>581.29</ele>
        <time>2024-05-28T14:41:03.121Z</time>
      </trkpt>
      <trkpt lat="45.854111993685365" lon="8.74091793783009">
        <ele>581.2</ele>
        <time>2024-05-28T14:41:07.861Z</time>
      </trkpt>
      <trkpt lat="45.85412993095815" lon="8.740907963365316">
        <ele>581.11</ele>
        <time>2024-05-28T14:41:12.601Z</time>
      </trkpt>
      <trkpt lat="45.854156920686364" lon="8.740879967808723">
        <ele>581.03</ele>
        <time>2024-05-28T14:41:17.342Z</time>
      </trkpt>
      <trkpt lat="45.85417192429304" lon="8.740859935060143">
        <ele>580.96</ele>
        <time>2024-05-28T14:41:22.084Z</time>
      </trkpt>
      <trkpt lat="45.85418198257685" lon="8.740822970867157">
        <ele>580.9</ele>
        <time>2024-05-28T14:41:26.827Z</time>
      </trkpt>
      <trkpt lat="45.85420997813344" lon="8.740796986967325">
        <ele>580.86</ele>
        <time>2024-05-28T14:41:31.571Z</time>
      </trkpt>
      <trkpt lat="45.85423696786165" lon="8.740759938955307">
        <ele>580.83</ele>
        <time>2024-05-28T14:41:36.316Z</time>
      </trkpt>
      <trkpt lat="45.85425197146833" lon="8.740729931741953">
        <ele>580.81</ele>
        <time>2024-05-28T14:41:41.062Z</time>
      </trkpt>
      <trkpt lat="45.85425197146833" lon="8.740699924528599">
        <ele>580.8</ele>
        <time>2024-05-28T14:41:45.809Z</time>
      </trkpt>
      <trkpt lat="45.85425792261958" lon="8.740666983649135">
        <ele>580.8</ele>
        <time>2024-05-28T14:41:50.557Z</time>
      </trkpt>
      <trkpt lat="45.85425792261958" lon="8.740624990314245">
        <ele>580.8</ele>
        <time>2024-05-28T14:41:55.306Z</time>
      </trkpt>
      <trkpt lat="45.854261945933104" lon="8.740584924817085">
        <ele>580.83</ele>
        <time>2024-05-28T14:42:00.056Z</time>
      </trkpt>
      <trkpt lat="45.85427192039788" lon="8.740551983937621">
        <ele>580.88</ele>
        <time>2024-05-28T14:42:04.807Z</time>
      </trkpt>
      <trkpt lat="45.85427795536816" lon="8.740511918440461">
        <ele>580.93</ele>
        <time>2024-05-28T14:42:09.558Z</time>
      </trkpt>
      <trkpt lat="45.854282984510064" lon="8.740481995046139">
        <ele>581.0</ele>
        <time>2024-05-28T14:42:14.310Z</time>
      </trkpt>
      <trkpt lat="45.85429295897484" lon="8.740451987832785">
        <ele>581.08</ele>
        <time>2024-05-28T14:42:19.063Z</time>
      </trkpt>
      <trkpt lat="45.85430293343961" lon="8.740412928164005">
        <ele>581.17</ele>
        <time>2024-05-28T14:42:23.817Z</time>
      </trkpt>
      <trkpt lat="45.85432196035981" lon="8.740386944264174">
        <ele>581.28</ele>
        <time>2024-05-28T14:42:28.572Z</time>
      </trkpt>
      <trkpt lat="45.85434199310839" lon="8.740351991727948">
        <ele>581.39</ele>
        <time>2024-05-28T14:42:33.328Z</time>
      </trkpt>
      <trkpt lat="45.85435993038118" lon="8.740312932059169">
        <ele>581.51</ele>
        <time>2024-05-28T14:42:38.085Z</time>
      </trkpt>
      <trkpt lat="45.85437996312976" lon="8.740279991179705">
        <ele>581.64</ele>
        <time>2024-05-28T14:42:42.843Z</time>
      </trkpt>
      <trkpt lat="45.85440795868635" lon="8.740244954824448">
        <ele>581.79</ele>
        <time>2024-05-28T14:42:47.602Z</time>
      </trkpt>
      <trkpt lat="45.854434948414564" lon="8.740214947611094">
        <ele>581.94</ele>
        <time>2024-05-28T14:42:52.362Z</time>
      </trkpt>
      <trkpt lat="45.85447694174945" lon="8.740199944004416">
        <ele>582.09</ele>
        <time>2024-05-28T14:42:57.124Z</time>
      </trkpt>
      <trkpt lat="45.854501919820905" lon="8.740197932347655">
        <ele>582.25</ele>
        <time>2024-05-28T14:43:01.887Z</time>
      </trkpt>
      <trkpt lat="45.85452698171139" lon="8.740207990631461">
        <ele>582.42</ele>
        <time>2024-05-28T14:43:06.651Z</time>
      </trkpt>
      <trkpt lat="45.8545399736613" lon="8.740234980359674">
        <ele>582.59</ele>
        <time>2024-05-28T14:43:11.415Z</time>
      </trkpt>
      <trkpt lat="45.85455698892474" lon="8.74024797230959">
        <ele>582.76</ele>
        <time>2024-05-28T14:43:16.180Z</time>
      </trkpt>
      <trkpt lat="45.85457492619753" lon="8.740254929289222">
        <ele>582.94</ele>
        <time>2024-05-28T14:43:20.946Z</time>
      </trkpt>
      <trkpt lat="45.85459998808801" lon="8.740224922075868">
        <ele>583.1</ele>
        <time>2024-05-28T14:43:25.713Z</time>
      </trkpt>
      <trkpt lat="45.85461691953242" lon="8.74020497314632">
        <ele>583.27</ele>
        <time>2024-05-28T14:43:30.480Z</time>
      </trkpt>
      <trkpt lat="45.854626977816224" lon="8.740181922912598">
        <ele>583.42</ele>
        <time>2024-05-28T14:43:35.248Z</time>
      </trkpt>
      <trkpt lat="45.854632928967476" lon="8.740136995911598">
        <ele>583.57</ele>
        <time>2024-05-28T14:43:40.017Z</time>
      </trkpt>
      <trkpt lat="45.854636952281" lon="8.74009994789958">
        <ele>583.71</ele>
        <time>2024-05-28T14:43:44.787Z</time>
      </trkpt>
      <trkpt lat="45.85463996976614" lon="8.740059966221452">
        <ele>583.85</ele>
        <time>2024-05-28T14:43:49.558Z</time>
      </trkpt>
      <trkpt lat="45.8546419814229" lon="8.740022918209434">
        <ele>584.0</ele>
        <time>2024-05-28T14:43:54.330Z</time>
      </trkpt>
      <trkpt lat="45.854651955887675" lon="8.739984948188066">
        <ele>584.14</ele>
        <time>2024-05-28T14:43:59.103Z</time>
      </trkpt>
      <trkpt lat="45.85465497337282" lon="8.73995192348957">
        <ele>584.28</ele>
        <time>2024-05-28T14:44:03.876Z</time>
      </trkpt>
      <trkpt lat="45.85465497337282" lon="8.739924933761358">
        <ele>584.4</ele>
        <time>2024-05-28T14:44:08.650Z</time>
      </trkpt>
      <trkpt lat="45.85465497337282" lon="8.739891992881894">
        <ele>584.51</ele>
        <time>2024-05-28T14:44:13.425Z</time>
      </trkpt>
      <trkpt lat="45.85465497337282" lon="8.73986198566854">
        <ele>584.61</ele>
        <time>2024-05-28T14:44:18.201Z</time>
      </trkpt>
      <trkpt lat="45.85465799085796" lon="8.739826949313283">
        <ele>584.71</ele>
        <time>2024-05-28T14:44:22.977Z</time>
      </trkpt>
      <trkpt lat="45.85465799085796" lon="8.739792918786407">
        <ele>584.79</ele>
        <time>2024-05-28T14:44:27.754Z</time>
      </trkpt>
      <trkpt lat="45.85465799085796" lon="8.739747991785407">
        <ele>584.87</ele>
        <time>2024-05-28T14:44:32.532Z</time>
      </trkpt>
      <trkpt lat="45.85465799085796" lon="8.739717984572053">
        <ele>584.94</ele>
        <time>2024-05-28T14:44:37.311Z</time>
      </trkpt>
      <trkpt lat="45.85465497337282" lon="8.739682948216796">
        <ele>585.0</ele>
        <time>2024-05-28T14:44:42.091Z</time>
      </trkpt>
      <trkpt lat="45.85465799085796" lon="8.739652941003442">
        <ele>585.05</ele>
        <time>2024-05-28T14:44:46.871Z</time>
      </trkpt>
      <trkpt lat="45.85466796532273" lon="8.73960793018341">
        <ele>585.09</ele>
        <time>2024-05-28T14:44:51.653Z</time>
      </trkpt>
      <trkpt lat="45.85466796532273" lon="8.739567948505282">
        <ele>585.12</ele>
        <time>2024-05-28T14:44:56.435Z</time>
      </trkpt>
      <trkpt lat="45.854671988636255" lon="8.73954196460545">
        <ele>585.14</ele>
        <time>2024-05-28T14:45:01.218Z</time>
      </trkpt>
      <trkpt lat="45.85466193035245" lon="8.739501982927322">
        <ele>585.13</ele>
        <time>2024-05-28T14:45:06.002Z</time>
      </trkpt>
      <trkpt lat="45.85464793257415" lon="8.739469964057207">
        <ele>585.1</ele>
        <time>2024-05-28T14:45:10.787Z</time>
      </trkpt>
      <trkpt lat="45.854632928967476" lon="8.739449931308627">
        <ele>585.05</ele>
        <time>2024-05-28T14:45:15.573Z</time>
      </trkpt>
      <trkpt lat="45.85461993701756" lon="8.739427970722318">
        <ele>584.99</ele>
        <time>2024-05-28T14:45:20.359Z</time>
      </trkpt>
      <trkpt lat="45.85459495894611" lon="8.73939293436706">
        <ele>584.91</ele>
        <time>2024-05-28T14:45:25.146Z</time>
      </trkpt>
      <trkpt lat="45.8545679692179" lon="8.739359993487597">
        <ele>584.82</ele>
        <time>2024-05-28T14:45:29.935Z</time>
      </trkpt>
      <trkpt lat="45.85454994812608" lon="8.739339960739017">
        <ele>584.73</ele>
        <time>2024-05-28T14:45:34.724Z</time>
      </trkpt>
      <trkpt lat="45.85452698171139" lon="8.739322945475578">
        <ele>584.62</ele>
        <time>2024-05-28T14:45:39.514Z</time>
      </trkpt>
      <trkpt lat="45.85449194535613" lon="8.739299979060888">
        <ele>584.5</ele>
        <time>2024-05-28T14:45:44.306Z</time>
      </trkpt>
      <trkpt lat="45.85446294397116" lon="8.739296961575747">
        <ele>584.37</ele>
        <time>2024-05-28T14:45:49.099Z</time>
      </trkpt>
      <trkpt lat="45.854437965899706" lon="8.739296961575747">
        <ele>584.24</ele>
        <time>2024-05-28T14:45:53.892Z</time>
      </trkpt>
      <trkpt lat="45.854414999485016" lon="8.739279946312308">
        <ele>584.1</ele>
        <time>2024-05-28T14:45:58.686Z</time>
      </trkpt>
      <trkpt lat="45.85439999587834" lon="8.739266954362392">
        <ele>583.96</ele>
        <time>2024-05-28T14:46:03.481Z</time>
      </trkpt>
      <trkpt lat="45.85437996312976" lon="8.739241976290941">
        <ele>583.81</ele>
        <time>2024-05-28T14:46:08.277Z</time>
      </trkpt>
      <trkpt lat="45.854369988664985" lon="8.739217920228839">
        <ele>583.66</ele>
        <time>2024-05-28T14:46:13.073Z</time>
      </trkpt>
      <trkpt lat="45.85435498505831" lon="8.739189924672246">
        <ele>583.5</ele>
        <time>2024-05-28T14:46:17.870Z</time>
      </trkpt>
      <trkpt lat="45.85433796979487" lon="8.739157989621162">
        <ele>583.34</ele>
        <time>2024-05-28T14:46:22.668Z</time>
      </trkpt>
      <trkpt lat="45.854327995330095" lon="8.739126976579428">
        <ele>583.18</ele>
        <time>2024-05-28T14:46:27.467Z</time>
      </trkpt>
      <trkpt lat="45.85431693121791" lon="8.739082971587777">
        <ele>583.01</ele>
        <time>2024-05-28T14:46:32.267Z</time>
      </trkpt>
      <trkpt lat="45.85430293343961" lon="8.739039972424507">
        <ele>582.84</ele>
        <time>2024-05-28T14:46:37.068Z</time>
      </trkpt>
      <trkpt lat="45.85429698228836" lon="8.738999990746379">
        <ele>582.67</ele>
        <time>2024-05-28T14:46:41.870Z</time>
      </trkpt>
      <trkpt lat="45.8542899414897" lon="8.73896294273436">
        <ele>582.49</ele>
        <time>2024-05-28T14:46:46.673Z</time>
      </trkpt>
      <trkpt lat="45.85427996702492" lon="8.738936958834529">
        <ele>582.32</ele>
        <time>2024-05-28T14:46:51.477Z</time>
      </trkpt>
      <trkpt lat="45.85425197146833" lon="8.738907957449555">
        <ele>582.14</ele>
        <time>2024-05-28T14:46:56.282Z</time>
      </trkpt>
      <trkpt lat="45.85422992706299" lon="8.738892953842878">
        <ele>581.96</ele>
        <time>2024-05-28T14:47:01.088Z</time>
      </trkpt>
      <trkpt lat="45.854202937334776" lon="8.738882979378104">
        <ele>581.77</ele>
        <time>2024-05-28T14:47:05.895Z</time>
      </trkpt>
      <trkpt lat="45.85418491624296" lon="8.738886918872595">
        <ele>581.59</ele>
        <time>2024-05-28T14:47:10.702Z</time>
      </trkpt>
      <trkpt lat="45.85418198257685" lon="8.738912986591458">
        <ele>581.41</ele>
        <time>2024-05-28T14:47:15.510Z</time>
      </trkpt>
      <trkpt lat="45.854156920686364" lon="8.73889496549964">
        <ele>581.23</ele>
        <time>2024-05-28T14:47:20.319Z</time>
      </trkpt>
      <trkpt lat="45.85412993095815" lon="8.73887493275106">
        <ele>581.05</ele>
        <time>2024-05-28T14:47:25.129Z</time>
      </trkpt>
      <trkpt lat="45.85410193540156" lon="8.738866969943047">
        <ele>580.87</ele>
        <time>2024-05-28T14:47:29.940Z</time>
      </trkpt>
      <trkpt lat="45.85409799590707" lon="8.738839980214834">
        <ele>580.71</ele>
        <time>2024-05-28T14:47:34.751Z</time>
      </trkpt>
      <trkpt lat="45.854091960936785" lon="8.738814918324351">
        <ele>580.54</ele>
        <time>2024-05-28T14:47:39.563Z</time>
      </trkpt>
      <trkpt lat="45.854066982865334" lon="8.738804943859577">
        <ele>580.37</ele>
        <time>2024-05-28T14:47:44.376Z</time>
      </trkpt>
      <trkpt lat="45.85403496399522" lon="8.738769991323352">
        <ele>580.2</ele>
        <time>2024-05-28T14:47:49.190Z</time>
      </trkpt>
      <trkpt lat="45.85401199758053" lon="8.738739984109998">
        <ele>580.04</ele>
        <time>2024-05-28T14:47:54.005Z</time>
      </trkpt>
      <trkpt lat="45.85399699397385" lon="8.738716933876276">
        <ele>579.89</ele>
        <time>2024-05-28T14:47:58.821Z</time>
      </trkpt>
      <trkpt lat="45.853982996195555" lon="8.738676952198148">
        <ele>579.73</ele>
        <time>2024-05-28T14:48:03.638Z</time>
      </trkpt>
      <trkpt lat="45.85397293791175" lon="8.738649962469935">
        <ele>579.58</ele>
        <time>2024-05-28T14:48:08.456Z</time>
      </trkpt>
      <trkpt lat="45.85395793430507" lon="8.73861693777144">
        <ele>579.42</ele>
        <time>2024-05-28T14:48:13.275Z</time>
      </trkpt>
      <trkpt lat="45.85395198315382" lon="8.738584918901324">
        <ele>579.28</ele>
        <time>2024-05-28T14:48:18.094Z</time>
      </trkpt>
      <trkpt lat="45.853937985375524" lon="8.738544937223196">
        <ele>579.13</ele>
        <time>2024-05-28T14:48:22.914Z</time>
      </trkpt>
      <trkpt lat="45.85393496789038" lon="8.738496992737055">
        <ele>579.0</ele>
        <time>2024-05-28T14:48:27.736Z</time>
      </trkpt>
      <trkpt lat="45.85392499342561" lon="8.738457933068275">
        <ele>578.86</ele>
        <time>2024-05-28T14:48:32.558Z</time>
      </trkpt>
      <trkpt lat="45.853921975940466" lon="8.738416945561767">
        <ele>578.74</ele>
        <time>2024-05-28T14:48:37.381Z</time>
      </trkpt>
      <trkpt lat="45.853921975940466" lon="8.738372940570116">
        <ele>578.62</ele>
        <time>2024-05-28T14:48:42.205Z</time>
      </trkpt>
      <trkpt lat="45.853919964283705" lon="8.738346956670284">
        <ele>578.5</ele>
        <time>2024-05-28T14:48:47.030Z</time>
      </trkpt>
      <trkpt lat="45.853919964283705" lon="8.738312926143408">
        <ele>578.4</ele>
        <time>2024-05-28T14:48:51.856Z</time>
      </trkpt>
      <trkpt lat="45.85391694679856" lon="8.73825198970735">
        <ele>578.29</ele>
        <time>2024-05-28T14:48:56.683Z</time>
      </trkpt>
      <trkpt lat="45.85391292348504" lon="8.738216953352094">
        <ele>578.19</ele>
        <time>2024-05-28T14:49:01.511Z</time>
      </trkpt>
      <trkpt lat="45.85390697233379" lon="8.738182922825217">
        <ele>578.09</ele>
        <time>2024-05-28T14:49:06.340Z</time>
      </trkpt>
      <trkpt lat="45.853896997869015" lon="8.738152999430895">
        <ele>578.0</ele>
        <time>2024-05-28T14:49:11.170Z</time>
      </trkpt>
      <trkpt lat="45.85389297455549" lon="8.738114945590496">
        <ele>577.91</ele>
        <time>2024-05-28T14:49:16.001Z</time>
      </trkpt>
      <trkpt lat="45.85389297455549" lon="8.73807999305427">
        <ele>577.83</ele>
        <time>2024-05-28T14:49:20.832Z</time>
      </trkpt>
      <trkpt lat="45.85389297455549" lon="8.738037999719381">
        <ele>577.75</ele>
        <time>2024-05-28T14:49:25.664Z</time>
      </trkpt>
      <trkpt lat="45.85390697233379" lon="8.73799491673708">
        <ele>577.69</ele>
        <time>2024-05-28T14:49:30.498Z</time>
      </trkpt>
      <trkpt lat="45.853919964283705" lon="8.73794998973608">
        <ele>577.63</ele>
        <time>2024-05-28T14:49:35.333Z</time>
      </trkpt>
      <trkpt lat="45.853944942355156" lon="8.73790699057281">
        <ele>577.58</ele>
        <time>2024-05-28T14:49:40.169Z</time>
      </trkpt>
      <trkpt lat="45.85397293791175" lon="8.737851921468973">
        <ele>577.53</ele>
        <time>2024-05-28T14:49:45.007Z</time>
      </trkpt>
      <trkpt lat="45.85399699397385" lon="8.737834990024567">
        <ele>577.49</ele>
        <time>2024-05-28T14:49:49.845Z</time>
      </trkpt>
      <trkpt lat="45.854024989530444" lon="8.737826943397522">
        <ele>577.46</ele>
        <time>2024-05-28T14:49:54.684Z</time>
      </trkpt>
      <trkpt lat="45.85404292680323" lon="8.737811939790845">
        <ele>577.42</ele>
        <time>2024-05-28T14:49:59.524Z</time>
      </trkpt>
      <trkpt lat="45.85405692458153" lon="8.737784950062633">
        <ele>577.38</ele>
        <time>2024-05-28T14:50:04.365Z</time>
      </trkpt>
      <trkpt lat="45.854072934016585" lon="8.737759971991181">
        <ele>577.34</ele>
        <time>2024-05-28T14:50:09.207Z</time>
      </trkpt>
      <trkpt lat="45.854091960936785" lon="8.73773792758584">
        <ele>577.31</ele>
        <time>2024-05-28T14:50:14.049Z</time>
      </trkpt>
      <trkpt lat="45.8541049528867" lon="8.737711943686008">
        <ele>577.28</ele>
        <time>2024-05-28T14:50:18.892Z</time>
      </trkpt>
      <trkpt lat="45.85411794483662" lon="8.737676991149783">
        <ele>577.25</ele>
        <time>2024-05-28T14:50:23.736Z</time>
      </trkpt>
      <trkpt lat="45.854136971756816" lon="8.737642960622907">
        <ele>577.22</ele>
        <time>2024-05-28T14:50:28.581Z</time>
      </trkpt>
      <trkpt lat="45.85415298119187" lon="8.737612953409553">
        <ele>577.19</ele>
        <time>2024-05-28T14:50:33.427Z</time>
      </trkpt>
      <trkpt lat="45.85416194982827" lon="8.737572971731424">
        <ele>577.17</ele>
        <time>2024-05-28T14:50:38.274Z</time>
      </trkpt>
      <trkpt lat="45.85417192429304" lon="8.73754296451807">
        <ele>577.15</ele>
        <time>2024-05-28T14:50:43.122Z</time>
      </trkpt>
      <trkpt lat="45.85418198257685" lon="8.737517986446619">
        <ele>577.14</ele>
        <time>2024-05-28T14:50:47.970Z</time>
      </trkpt>
      <trkpt lat="45.854199919849634" lon="8.737482950091362">
        <ele>577.13</ele>
        <time>2024-05-28T14:50:52.819Z</time>
      </trkpt>
      <trkpt lat="45.85423696786165" lon="8.737459983676672">
        <ele>577.13</ele>
        <time>2024-05-28T14:50:57.670Z</time>
      </trkpt>
      <trkpt lat="45.85425498895347" lon="8.73743793927133">
        <ele>577.13</ele>
        <time>2024-05-28T14:51:02.522Z</time>
      </trkpt>
      <trkpt lat="45.85427795536816" lon="8.73738999478519">
        <ele>577.13</ele>
        <time>2024-05-28T14:51:07.375Z</time>
      </trkpt>
      <trkpt lat="45.85427795536816" lon="8.737359987571836">
        <ele>577.13</ele>
        <time>2024-05-28T14:51:12.229Z</time>
      </trkpt>
      <trkpt lat="45.85427795536816" lon="8.737322939559817">
        <ele>577.13</ele>
        <time>2024-05-28T14:51:17.084Z</time>
      </trkpt>
      <trkpt lat="45.85427795536816" lon="8.737292932346463">
        <ele>577.15</ele>
        <time>2024-05-28T14:51:21.939Z</time>
      </trkpt>
      <trkpt lat="45.85427192039788" lon="8.737259991466999">
        <ele>577.18</ele>
        <time>2024-05-28T14:51:26.795Z</time>
      </trkpt>
      <trkpt lat="45.854261945933104" lon="8.737229984253645">
        <ele>577.21</ele>
        <time>2024-05-28T14:51:31.652Z</time>
      </trkpt>
      <trkpt lat="45.85425197146833" lon="8.73719997704029">
        <ele>577.25</ele>
        <time>2024-05-28T14:51:36.510Z</time>
      </trkpt>
      <trkpt lat="45.854241997003555" lon="8.737159995362163">
        <ele>577.3</ele>
        <time>2024-05-28T14:51:41.369Z</time>
      </trkpt>
      <trkpt lat="45.85422992706299" lon="8.737121941521764">
        <ele>577.35</ele>
        <time>2024-05-28T14:51:46.229Z</time>
      </trkpt>
      <trkpt lat="45.854222970083356" lon="8.737084977328777">
        <ele>577.42</ele>
        <time>2024-05-28T14:51:51.089Z</time>
      </trkpt>
      <trkpt lat="45.85422992706299" lon="8.737044995650649">
        <ele>577.49</ele>
        <time>2024-05-28T14:51:55.950Z</time>
      </trkpt>
      <trkpt lat="45.85423294454813" lon="8.736992944031954">
        <ele>577.57</ele>
        <time>2024-05-28T14:52:00.813Z</time>
      </trkpt>
      <trkpt lat="45.85423294454813" lon="8.736952962353826">
        <ele>577.65</ele>
        <time>2024-05-28T14:52:05.677Z</time>
      </trkpt>
      <trkpt lat="45.85423294454813" lon="8.736922955140471">
        <ele>577.73</ele>
        <time>2024-05-28T14:52:10.541Z</time>
      </trkpt>
      <trkpt lat="45.85423294454813" lon="8.736881967633963">
        <ele>577.82</ele>
        <time>2024-05-28T14:52:15.406Z</time>
      </trkpt>
      <trkpt lat="45.85423294454813" lon="8.736847937107086">
        <ele>577.92</ele>
        <time>2024-05-28T14:52:20.272Z</time>
      </trkpt>
      <trkpt lat="45.85425197146833" lon="8.736807955428958">
        <ele>578.03</ele>
        <time>2024-05-28T14:52:25.139Z</time>
      </trkpt>
      <trkpt lat="45.85427795536816" lon="8.73676797375083">
        <ele>578.14</ele>
        <time>2024-05-28T14:52:30.007Z</time>
      </trkpt>
      <trkpt lat="45.85430997423828" lon="8.736729919910431">
        <ele>578.27</ele>
        <time>2024-05-28T14:52:34.877Z</time>
      </trkpt>
      <trkpt lat="45.854331934824586" lon="8.73668298125267">
        <ele>578.41</ele>
        <time>2024-05-28T14:52:39.748Z</time>
      </trkpt>
      <trkpt lat="45.854351967573166" lon="8.73666294850409">
        <ele>578.54</ele>
        <time>2024-05-28T14:52:44.620Z</time>
      </trkpt>
      <trkpt lat="45.854369988664985" lon="8.736634952947497">
        <ele>578.69</ele>
        <time>2024-05-28T14:52:49.493Z</time>
      </trkpt>
      <trkpt lat="45.85438993759453" lon="8.736604945734143">
        <ele>578.84</ele>
        <time>2024-05-28T14:52:54.367Z</time>
      </trkpt>
      <trkpt lat="45.854417933151126" lon="8.736564964056015">
        <ele>578.99</ele>
        <time>2024-05-28T14:52:59.242Z</time>
      </trkpt>
      <trkpt lat="45.85443997755647" lon="8.7365519721061">
        <ele>579.14</ele>
        <time>2024-05-28T14:53:04.118Z</time>
      </trkpt>
      <trkpt lat="45.85446294397116" lon="8.736542919650674">
        <ele>579.29</ele>
        <time>2024-05-28T14:53:08.995Z</time>
      </trkpt>
      <trkpt lat="45.85448197089136" lon="8.736522970721126">
        <ele>579.45</ele>
        <time>2024-05-28T14:53:13.872Z</time>
      </trkpt>
      <trkpt lat="45.854497980326414" lon="8.736496986821294">
        <ele>579.61</ele>
        <time>2024-05-28T14:53:18.750Z</time>
      </trkpt>
      <trkpt lat="45.85451197810471" lon="8.736464967951179">
        <ele>579.77</ele>
        <time>2024-05-28T14:53:23.629Z</time>
      </trkpt>
      <trkpt lat="45.85451994091272" lon="8.736436972394586">
        <ele>579.94</ele>
        <time>2024-05-28T14:53:28.509Z</time>
      </trkpt>
      <trkpt lat="45.85452698171139" lon="8.73640495352447">
        <ele>580.12</ele>
        <time>2024-05-28T14:53:33.390Z</time>
      </trkpt>
      <trkpt lat="45.85451792925596" lon="8.736376957967877">
        <ele>580.29</ele>
        <time>2024-05-28T14:53:38.271Z</time>
      </trkpt>
      <trkpt lat="45.85451499558985" lon="8.736339993774891">
        <ele>580.47</ele>
        <time>2024-05-28T14:53:43.153Z</time>
      </trkpt>
      <trkpt lat="45.854497980326414" lon="8.736311998218298">
        <ele>580.65</ele>
        <time>2024-05-28T14:53:48.036Z</time>
      </trkpt>
      <trkpt lat="45.854479959234595" lon="8.736281991004944">
        <ele>580.84</ele>
        <time>2024-05-28T14:53:52.920Z</time>
      </trkpt>
      <trkpt lat="45.85446998476982" lon="8.736259946599603">
        <ele>581.03</ele>
        <time>2024-05-28T14:53:57.805Z</time>
      </trkpt>
      <trkpt lat="45.85447291843593" lon="8.736227927729487">
        <ele>581.22</ele>
        <time>2024-05-28T14:54:02.690Z</time>
      </trkpt>
      <trkpt lat="45.85447694174945" lon="8.736196998506784">
        <ele>581.42</ele>
        <time>2024-05-28T14:54:07.576Z</time>
      </trkpt>
      <trkpt lat="45.85449194535613" lon="8.736152993515134">
        <ele>581.62</ele>
        <time>2024-05-28T14:54:12.463Z</time>
      </trkpt>
      <trkpt lat="45.854497980326414" lon="8.7361219804734">
        <ele>581.82</ele>
        <time>2024-05-28T14:54:17.351Z</time>
      </trkpt>
      <trkpt lat="45.85450795479119" lon="8.736097924411297">
        <ele>582.03</ele>
        <time>2024-05-28T14:54:22.240Z</time>
      </trkpt>
      <trkpt lat="45.85450795479119" lon="8.736061966046691">
        <ele>582.24</ele>
        <time>2024-05-28T14:54:27.129Z</time>
      </trkpt>
      <trkpt lat="45.85451499558985" lon="8.73603799380362">
        <ele>582.45</ele>
        <time>2024-05-28T14:54:32.019Z</time>
      </trkpt>
      <trkpt lat="45.85453293286264" lon="8.735999939963222">
        <ele>582.67</ele>
        <time>2024-05-28T14:54:36.910Z</time>
      </trkpt>
      <trkpt lat="45.85454994812608" lon="8.735981918871403">
        <ele>582.89</ele>
        <time>2024-05-28T14:54:41.802Z</time>
      </trkpt>
      <trkpt lat="45.85457199253142" lon="8.735977979376912">
        <ele>583.11</ele>
        <time>2024-05-28T14:54:46.695Z</time>
      </trkpt>
      <trkpt lat="45.85459495894611" lon="8.735969932749867">
        <ele>583.33</ele>
        <time>2024-05-28T14:54:51.588Z</time>
      </trkpt>
      <trkpt lat="45.854609962552786" lon="8.735939925536513">
        <ele>583.55</ele>
        <time>2024-05-28T14:54:56.482Z</time>
      </trkpt>
      <trkpt lat="45.8546419814229" lon="8.735939925536513">
        <ele>583.77</ele>
        <time>2024-05-28T14:55:01.377Z</time>
      </trkpt>
      <trkpt lat="45.854671988636255" lon="8.735927939414978">
        <ele>583.99</ele>
        <time>2024-05-28T14:55:06.273Z</time>
      </trkpt>
      <trkpt lat="45.854692943394184" lon="8.735927939414978">
        <ele>584.21</ele>
        <time>2024-05-28T14:55:11.170Z</time>
      </trkpt>
      <trkpt lat="45.854712976142764" lon="8.735912935808301">
        <ele>584.43</ele>
        <time>2024-05-28T14:55:16.068Z</time>
      </trkpt>
      <trkpt lat="45.85472797974944" lon="8.735884940251708">
        <ele>584.65</ele>
        <time>2024-05-28T14:55:20.967Z</time>
      </trkpt>
      <trkpt lat="45.85473493672907" lon="8.735854933038354">
        <ele>584.87</ele>
        <time>2024-05-28T14:55:25.866Z</time>
      </trkpt>
      <trkpt lat="45.854759998619556" lon="8.735859962180257">
        <ele>585.09</ele>
        <time>2024-05-28T14:55:30.766Z</time>
      </trkpt>
      <trkpt lat="45.85478992201388" lon="8.735862979665399">
        <ele>585.31</ele>
        <time>2024-05-28T14:55:35.667Z</time>
      </trkpt>
      <trkpt lat="45.85481498390436" lon="8.735851999372244">
        <ele>585.54</ele>
        <time>2024-05-28T14:55:40.569Z</time>
      </trkpt>
      <trkpt lat="45.854846918955445" lon="8.735836995765567">
        <ele>585.77</ele>
        <time>2024-05-28T14:55:45.472Z</time>
      </trkpt>
      <trkpt lat="45.854866951704025" lon="8.735829954966903">
        <ele>586.0</ele>
        <time>2024-05-28T14:55:50.376Z</time>
      </trkpt>
      <trkpt lat="45.854884972795844" lon="8.73582299798727">
        <ele>586.23</ele>
        <time>2024-05-28T14:55:55.280Z</time>
      </trkpt>
      <trkpt lat="45.854907939210534" lon="8.735811933875084">
        <ele>586.46</ele>
        <time>2024-05-28T14:56:00.185Z</time>
      </trkpt>
      <trkpt lat="45.854929983615875" lon="8.73580296523869">
        <ele>586.69</ele>
        <time>2024-05-28T14:56:05.091Z</time>
      </trkpt>
      <trkpt lat="45.85494993254542" lon="8.735799947753549">
        <ele>586.92</ele>
        <time>2024-05-28T14:56:09.998Z</time>
      </trkpt>
      <trkpt lat="45.85496795363724" lon="8.735784944146872">
        <ele>587.14</ele>
        <time>2024-05-28T14:56:14.905Z</time>
      </trkpt>
      <trkpt lat="45.854997960850596" lon="8.735771952196956">
        <ele>587.37</ele>
        <time>2024-05-28T14:56:19.813Z</time>
      </trkpt>
      <trkpt lat="45.85502293892205" lon="8.735774969682097">
        <ele>587.59</ele>
        <time>2024-05-28T14:56:24.722Z</time>
      </trkpt>
      <trkpt lat="45.85505194030702" lon="8.735766923055053">
        <ele>587.82</ele>
        <time>2024-05-28T14:56:29.632Z</time>
      </trkpt>
      <trkpt lat="45.85507499054074" lon="8.735724929720163">
        <ele>588.03</ele>
        <time>2024-05-28T14:56:34.544Z</time>
      </trkpt>
      <trkpt lat="45.85508999414742" lon="8.7356919888407">
        <ele>588.25</ele>
        <time>2024-05-28T14:56:39.456Z</time>
      </trkpt>
      <trkpt lat="45.85509292781353" lon="8.735657958313823">
        <ele>588.46</ele>
        <time>2024-05-28T14:56:44.369Z</time>
      </trkpt>
      <trkpt lat="45.855102986097336" lon="8.735631974413991">
        <ele>588.67</ele>
        <time>2024-05-28T14:56:49.283Z</time>
      </trkpt>
      <trkpt lat="45.85511296056211" lon="8.73560699634254">
        <ele>588.88</ele>
        <time>2024-05-28T14:56:54.198Z</time>
      </trkpt>
      <trkpt lat="45.8551219291985" lon="8.735579922795296">
        <ele>589.09</ele>
        <time>2024-05-28T14:56:59.113Z</time>
      </trkpt>
      <trkpt lat="45.85513492114842" lon="8.735526949167252">
        <ele>589.3</ele>
        <time>2024-05-28T14:57:04.030Z</time>
      </trkpt>
      <trkpt lat="45.85514799691737" lon="8.735507922247052">
        <ele>589.51</ele>
        <time>2024-05-28T14:57:08.947Z</time>
      </trkpt>
      <trkpt lat="45.85516291670501" lon="8.735487973317504">
        <ele>589.71</ele>
        <time>2024-05-28T14:57:13.865Z</time>
      </trkpt>
      <trkpt lat="45.855189990252256" lon="8.735451931133866">
        <ele>589.93</ele>
        <time>2024-05-28T14:57:18.784Z</time>
      </trkpt>
      <trkpt lat="45.85520197637379" lon="8.735406920313835">
        <ele>590.12</ele>
        <time>2024-05-28T14:57:23.704Z</time>
      </trkpt>
      <trkpt lat="45.85520197637379" lon="8.735377918928862">
        <ele>590.31</ele>
        <time>2024-05-28T14:57:28.625Z</time>
      </trkpt>
      <trkpt lat="45.85520792752504" lon="8.735341960564256">
        <ele>590.5</ele>
        <time>2024-05-28T14:57:33.547Z</time>
      </trkpt>
      <trkpt lat="45.85521496832371" lon="8.73530994169414">
        <ele>590.7</ele>
        <time>2024-05-28T14:57:38.470Z</time>
      </trkpt>
      <trkpt lat="45.855231983587146" lon="8.735287981107831">
        <ele>590.9</ele>
        <time>2024-05-28T14:57:43.393Z</time>
      </trkpt>
      <trkpt lat="45.8552429638803" lon="8.735267948359251">
        <ele>591.1</ele>
        <time>2024-05-28T14:57:48.317Z</time>
      </trkpt>
      <trkpt lat="45.85526299662888" lon="8.735254956409335">
        <ele>591.29</ele>
        <time>2024-05-28T14:57:53.242Z</time>
      </trkpt>
      <trkpt lat="45.85528797470033" lon="8.735229978337884">
        <ele>591.48</ele>
        <time>2024-05-28T14:57:58.168Z</time>
      </trkpt>
      <trkpt lat="45.8553119469434" lon="8.735194941982627">
        <ele>591.67</ele>
        <time>2024-05-28T14:58:03.095Z</time>
      </trkpt>
      <trkpt lat="45.85532695055008" lon="8.735176920890808">
        <ele>591.86</ele>
        <time>2024-05-28T14:58:08.022Z</time>
      </trkpt>
      <trkpt lat="45.85534295998514" lon="8.735162923112512">
        <ele>592.05</ele>
        <time>2024-05-28T14:58:12.950Z</time>
      </trkpt>
      <trkpt lat="45.85535695776343" lon="8.735142974182963">
        <ele>592.24</ele>
        <time>2024-05-28T14:58:17.879Z</time>
      </trkpt>
      <trkpt lat="45.85537497885525" lon="8.73509494587779">
        <ele>592.42</ele>
        <time>2024-05-28T14:58:22.809Z</time>
      </trkpt>
      <trkpt lat="45.8553999569267" lon="8.735054964199662">
        <ele>592.62</ele>
        <time>2024-05-28T14:58:27.740Z</time>
      </trkpt>
      <trkpt lat="45.85540993139148" lon="8.73502696864307">
        <ele>592.81</ele>
        <time>2024-05-28T14:58:32.672Z</time>
      </trkpt>
      <trkpt lat="45.855426946654916" lon="8.734999978914857">
        <ele>593.01</ele>
        <time>2024-05-28T14:58:37.605Z</time>
      </trkpt>
      <trkpt lat="45.85544195026159" lon="8.734974917024374">
        <ele>593.2</ele>
        <time>2024-05-28T14:58:42.539Z</time>
      </trkpt>
      <trkpt lat="45.855444967746735" lon="8.734934935346246">
        <ele>593.4</ele>
        <time>2024-05-28T14:58:47.474Z</time>
      </trkpt>
      <trkpt lat="45.85544195026159" lon="8.734906939789653">
        <ele>593.6</ele>
        <time>2024-05-28T14:58:52.409Z</time>
      </trkpt>
      <trkpt lat="45.85545192472637" lon="8.73487793840468">
        <ele>593.8</ele>
        <time>2024-05-28T14:58:57.345Z</time>
      </trkpt>
      <trkpt lat="45.85547497496009" lon="8.734861928969622">
        <ele>594.0</ele>
        <time>2024-05-28T14:59:02.282Z</time>
      </trkpt>
      <trkpt lat="45.855506993830204" lon="8.734846925362945">
        <ele>594.21</ele>
        <time>2024-05-28T14:59:07.220Z</time>
      </trkpt>
      <trkpt lat="45.85554496385157" lon="8.734819935634732">
        <ele>594.43</ele>
        <time>2024-05-28T14:59:12.159Z</time>
      </trkpt>
      <trkpt lat="45.85556692443788" lon="8.734806943684816">
        <ele>594.64</ele>
        <time>2024-05-28T14:59:17.099Z</time>
      </trkpt>
      <trkpt lat="45.8555899746716" lon="8.734799986705184">
        <ele>594.85</ele>
        <time>2024-05-28T14:59:22.040Z</time>
      </trkpt>
      <trkpt lat="45.85560799576342" lon="8.734787916764617">
        <ele>595.07</ele>
        <time>2024-05-28T14:59:26.982Z</time>
      </trkpt>
      <trkpt lat="45.85563196800649" lon="8.734771991148591">
        <ele>595.28</ele>
        <time>2024-05-28T14:59:31.925Z</time>
      </trkpt>
      <trkpt lat="45.85564998909831" lon="8.734756987541914">
        <ele>595.5</ele>
        <time>2024-05-28T14:59:36.868Z</time>
      </trkpt>
      <trkpt lat="45.855681924149394" lon="8.734737960621715">
        <ele>595.73</ele>
        <time>2024-05-28T14:59:41.812Z</time>
      </trkpt>
      <trkpt lat="45.85571494884789" lon="8.734712982550263">
        <ele>595.96</ele>
        <time>2024-05-28T14:59:46.758Z</time>
      </trkpt>
      <trkpt lat="45.85574294440448" lon="8.73468792065978">
        <ele>596.19</ele>
        <time>2024-05-28T14:59:51.705Z</time>
      </trkpt>
      <trkpt lat="45.85576197132468" lon="8.734661936759949">
        <ele>596.41</ele>
        <time>2024-05-28T14:59:56.653Z</time>
      </trkpt>
      <trkpt lat="45.85578192025423" lon="8.734642993658781">
        <ele>596.64</ele>
        <time>2024-05-28T15:00:01.601Z</time>
      </trkpt>
      <trkpt lat="45.85580295883119" lon="8.734614998102188">
        <ele>596.86</ele>
        <time>2024-05-28T15:00:06.550Z</time>
      </trkpt>
      <trkpt lat="45.85582299157977" lon="8.734567975625396">
        <ele>597.08</ele>
        <time>2024-05-28T15:00:11.501Z</time>
      </trkpt>
      <trkpt lat="45.85583992302418" lon="8.734504943713546">
        <ele>597.29</ele>
        <time>2024-05-28T15:00:16.453Z</time>
      </trkpt>
      <trkpt lat="45.85584796965122" lon="8.734479965642095">
        <ele>597.51</ele>
        <time>2024-05-28T15:00:21.406Z</time>
      </trkpt>
      <trkpt lat="45.85586196742952" lon="8.734462950378656">
        <ele>597.73</ele>
        <time>2024-05-28T15:00:26.359Z</time>
      </trkpt>
      <trkpt lat="45.85588292218745" lon="8.734436966478825">
        <ele>597.96</ele>
        <time>2024-05-28T15:00:31.313Z</time>
      </trkpt>
      <trkpt lat="45.85590295493603" lon="8.734419951215386">
        <ele>598.18</ele>
        <time>2024-05-28T15:00:36.268Z</time>
      </trkpt>
      <trkpt lat="45.85592198185623" lon="8.73438692651689">
        <ele>598.4</ele>
        <time>2024-05-28T15:00:41.224Z</time>
      </trkpt>
      <trkpt lat="45.855937991291285" lon="8.734359936788678">
        <ele>598.62</ele>
        <time>2024-05-28T15:00:46.181Z</time>
      </trkpt>
      <trkpt lat="45.855941930785775" lon="8.734331941232085">
        <ele>598.82</ele>
        <time>2024-05-28T15:00:51.139Z</time>
      </trkpt>
      <trkpt lat="45.855941930785775" lon="8.73429698869586">
        <ele>599.02</ele>
        <time>2024-05-28T15:00:56.097Z</time>
      </trkpt>
      <trkpt lat="45.85594494827092" lon="8.734266981482506">
        <ele>599.22</ele>
        <time>2024-05-28T15:01:01.056Z</time>
      </trkpt>
      <trkpt lat="45.85594494827092" lon="8.73423496261239">
        <ele>599.41</ele>
        <time>2024-05-28T15:01:06.016Z</time>
      </trkpt>
      <trkpt lat="45.855941930785775" lon="8.734201937913895">
        <ele>599.58</ele>
        <time>2024-05-28T15:01:10.977Z</time>
      </trkpt>
      <trkpt lat="45.85595794022083" lon="8.734159944579005">
        <ele>599.77</ele>
        <time>2024-05-28T15:01:15.939Z</time>
      </trkpt>
      <trkpt lat="45.855979984626174" lon="8.734122980386019">
        <ele>599.94</ele>
        <time>2024-05-28T15:01:20.902Z</time>
      </trkpt>
      <trkpt lat="45.85599993355572" lon="8.734086938202381">
        <ele>600.11</ele>
        <time>2024-05-28T15:01:25.866Z</time>
      </trkpt>
      <trkpt lat="45.856024995446205" lon="8.734059948474169">
        <ele>600.27</ele>
        <time>2024-05-28T15:01:30.831Z</time>
      </trkpt>
      <trkpt lat="45.856049973517656" lon="8.73403798788786">
        <ele>600.43</ele>
        <time>2024-05-28T15:01:35.797Z</time>
      </trkpt>
      <trkpt lat="45.85607998073101" lon="8.734026923775673">
        <ele>600.58</ele>
        <time>2024-05-28T15:01:40.764Z</time>
      </trkpt>
      <trkpt lat="45.85610194131732" lon="8.734021978452802">
        <ele>600.71</ele>
        <time>2024-05-28T15:01:45.732Z</time>
      </trkpt>
      <trkpt lat="45.85612993687391" lon="8.734012925997376">
        <ele>600.84</ele>
        <time>2024-05-28T15:01:50.701Z</time>
      </trkpt>
      <trkpt lat="45.85615994408727" lon="8.734007980674505">
        <ele>600.96</ele>
        <time>2024-05-28T15:01:55.671Z</time>
      </trkpt>
      <trkpt lat="45.85618198849261" lon="8.734007980674505">
        <ele>601.06</ele>
        <time>2024-05-28T15:02:00.641Z</time>
      </trkpt>
      <trkpt lat="45.85620294325054" lon="8.73399993404746">
        <ele>601.15</ele>
        <time>2024-05-28T15:02:05.612Z</time>
      </trkpt>
      <trkpt lat="45.85622993297875" lon="8.733979985117912">
        <ele>601.24</ele>
        <time>2024-05-28T15:02:10.584Z</time>
      </trkpt>
      <trkpt lat="45.856244936585426" lon="8.733962969854474">
        <ele>601.3</ele>
        <time>2024-05-28T15:02:15.557Z</time>
      </trkpt>
      <trkpt lat="45.856261951848865" lon="8.733946960419416">
        <ele>601.36</ele>
        <time>2024-05-28T15:02:20.531Z</time>
      </trkpt>
      <trkpt lat="45.85627796128392" lon="8.733917959034443">
        <ele>601.4</ele>
        <time>2024-05-28T15:02:25.505Z</time>
      </trkpt>
      <trkpt lat="45.856286929920316" lon="8.733894992619753">
        <ele>601.42</ele>
        <time>2024-05-28T15:02:30.480Z</time>
      </trkpt>
      <trkpt lat="45.85630998015404" lon="8.733849981799722">
        <ele>601.44</ele>
        <time>2024-05-28T15:02:35.456Z</time>
      </trkpt>
      <trkpt lat="45.85632196627557" lon="8.733819974586368">
        <ele>601.45</ele>
        <time>2024-05-28T15:02:40.433Z</time>
      </trkpt>
      <trkpt lat="45.85633495822549" lon="8.733799941837788">
        <ele>601.44</ele>
        <time>2024-05-28T15:02:45.411Z</time>
      </trkpt>
      <trkpt lat="45.85635993629694" lon="8.733754931017756">
        <ele>601.42</ele>
        <time>2024-05-28T15:02:50.390Z</time>
      </trkpt>
      <trkpt lat="45.85635993629694" lon="8.733702963218093">
        <ele>601.38</ele>
        <time>2024-05-28T15:02:55.370Z</time>
      </trkpt>
      <trkpt lat="45.85635993629694" lon="8.7336749676615">
        <ele>601.33</ele>
        <time>2024-05-28T15:03:00.351Z</time>
      </trkpt>
      <trkpt lat="45.85635792464018" lon="8.733646972104907">
        <ele>601.28</ele>
        <time>2024-05-28T15:03:05.333Z</time>
      </trkpt>
      <trkpt lat="45.856347950175405" lon="8.733604978770018">
        <ele>601.22</ele>
        <time>2024-05-28T15:03:10.316Z</time>
      </trkpt>
      <trkpt lat="45.85634199902415" lon="8.733571954071522">
        <ele>601.15</ele>
        <time>2024-05-28T15:03:15.299Z</time>
      </trkpt>
      <trkpt lat="45.856306962668896" lon="8.73352493159473">
        <ele>601.06</ele>
        <time>2024-05-28T15:03:20.284Z</time>
      </trkpt>
      <trkpt lat="45.856282990425825" lon="8.733491990715265">
        <ele>600.97</ele>
        <time>2024-05-28T15:03:25.270Z</time>
      </trkpt>
      <trkpt lat="45.85627494379878" lon="8.73345997184515">
        <ele>600.88</ele>
        <time>2024-05-28T15:03:30.257Z</time>
      </trkpt>
      <trkpt lat="45.85625792853534" lon="8.73343993909657">
        <ele>600.79</ele>
        <time>2024-05-28T15:03:35.245Z</time>
      </trkpt>
      <trkpt lat="45.85623697377741" lon="8.733412949368358">
        <ele>600.68</ele>
        <time>2024-05-28T15:03:40.234Z</time>
      </trkpt>
      <trkpt lat="45.85620696656406" lon="8.733382942155004">
        <ele>600.57</ele>
        <time>2024-05-28T15:03:45.224Z</time>
      </trkpt>
      <trkpt lat="45.856199925765395" lon="8.73335293494165">
        <ele>600.46</ele>
        <time>2024-05-28T15:03:50.215Z</time>
      </trkpt>
      <trkpt lat="45.85621694102883" lon="8.733312953263521">
        <ele>600.36</ele>
        <time>2024-05-28T15:03:55.207Z</time>
      </trkpt>
      <trkpt lat="45.856241919100285" lon="8.73326693661511">
        <ele>600.26</ele>
        <time>2024-05-28T15:04:00.200Z</time>
      </trkpt>
      <trkpt lat="45.856261951848865" lon="8.733234917744994">
        <ele>600.15</ele>
        <time>2024-05-28T15:04:05.194Z</time>
      </trkpt>
      <trkpt lat="45.856282990425825" lon="8.733207928016782">
        <ele>600.04</ele>
        <time>2024-05-28T15:04:10.189Z</time>
      </trkpt>
      <trkpt lat="45.85631693713367" lon="8.733172975480556">
        <ele>599.94</ele>
        <time>2024-05-28T15:04:15.185Z</time>
      </trkpt>
      <trkpt lat="45.85634199902415" lon="8.733149925246835">
        <ele>599.83</ele>
        <time>2024-05-28T15:04:20.182Z</time>
      </trkpt>
      <trkpt lat="45.85635993629694" lon="8.733117990195751">
        <ele>599.72</ele>
        <time>2024-05-28T15:04:25.180Z</time>
      </trkpt>
      <trkpt lat="45.85637695156038" lon="8.733099969103932">
        <ele>599.62</ele>
        <time>2024-05-28T15:04:30.179Z</time>
      </trkpt>
      <trkpt lat="45.85638692602515" lon="8.733069961890578">
        <ele>599.51</ele>
        <time>2024-05-28T15:04:35.179Z</time>
      </trkpt>
      <trkpt lat="45.85639991797507" lon="8.733039954677224">
        <ele>599.41</ele>
        <time>2024-05-28T15:04:40.180Z</time>
      </trkpt>
      <trkpt lat="45.85640494711697" lon="8.732999972999096">
        <ele>599.32</ele>
        <time>2024-05-28T15:04:45.182Z</time>
      </trkpt>
      <trkpt lat="45.85640796460211" lon="8.7329669483006">
        <ele>599.23</ele>
        <time>2024-05-28T15:04:50.184Z</time>
      </trkpt>
      <trkpt lat="45.85641793906689" lon="8.732941970229149">
        <ele>599.16</ele>
        <time>2024-05-28T15:04:55.187Z</time>
      </trkpt>
      <trkpt lat="45.856434954330325" lon="8.732929984107614">
        <ele>599.09</ele>
        <time>2024-05-28T15:05:00.191Z</time>
      </trkpt>
      <trkpt lat="45.856456998735666" lon="8.732911963015795">
        <ele>599.04</ele>
        <time>2024-05-28T15:05:05.195Z</time>
      </trkpt>
      <trkpt lat="45.856476947665215" lon="8.732911963015795">
        <ele>598.99</ele>
        <time>2024-05-28T15:05:10.200Z</time>
      </trkpt>
      <trkpt lat="45.856479965150356" lon="8.732874998822808">
        <ele>598.94</ele>
        <time>2024-05-28T15:05:15.206Z</time>
      </trkpt>
      <trkpt lat="45.85647292435169" lon="8.73283795081079">
        <ele>598.9</ele>
        <time>2024-05-28T15:05:20.213Z</time>
      </trkpt>
      <trkpt lat="45.85646697320044" lon="8.732806937769055">
        <ele>598.86</ele>
        <time>2024-05-28T15:05:25.221Z</time>
      </trkpt>
      <trkpt lat="45.856456998735666" lon="8.73277299106121">
        <ele>598.84</ele>
        <time>2024-05-28T15:05:30.230Z</time>
      </trkpt>
      <trkpt lat="45.85644291713834" lon="8.73275295831263">
        <ele>598.82</ele>
        <time>2024-05-28T15:05:35.239Z</time>
      </trkpt>
      <trkpt lat="45.85642799735069" lon="8.73273292556405">
        <ele>598.81</ele>
        <time>2024-05-28T15:05:40.249Z</time>
      </trkpt>
      <trkpt lat="45.85640796460211" lon="8.732716999948025">
        <ele>598.81</ele>
        <time>2024-05-28T15:05:45.260Z</time>
      </trkpt>
      <trkpt lat="45.85644694045186" lon="8.73266695998609">
        <ele>598.84</ele>
        <time>2024-05-28T15:05:50.272Z</time>
      </trkpt>
      <trkpt lat="45.85647292435169" lon="8.732661930844188">
        <ele>598.88</ele>
        <time>2024-05-28T15:05:55.285Z</time>
      </trkpt>
      <trkpt lat="45.856497986242175" lon="8.732651956379414">
        <ele>598.93</ele>
        <time>2024-05-28T15:06:00.299Z</time>
      </trkpt>
      <trkpt lat="45.85651793517172" lon="8.73262295499444">
        <ele>598.98</ele>
        <time>2024-05-28T15:06:05.314Z</time>
      </trkpt>
      <trkpt lat="45.85652698762715" lon="8.732594959437847">
        <ele>599.05</ele>
        <time>2024-05-28T15:06:10.330Z</time>
      </trkpt>
      <trkpt lat="45.856542997062206" lon="8.732566963881254">
        <ele>599.13</ele>
        <time>2024-05-28T15:06:15.347Z</time>
      </trkpt>
      <trkpt lat="45.8565569948405" lon="8.732524970546365">
        <ele>599.22</ele>
        <time>2024-05-28T15:06:20.365Z</time>
      </trkpt>
      <trkpt lat="45.85655992850661" lon="8.732499992474914">
        <ele>599.32</ele>
        <time>2024-05-28T15:06:25.383Z</time>
      </trkpt>
      <trkpt lat="45.85656797513366" lon="8.732452969998121">
        <ele>599.42</ele>
        <time>2024-05-28T15:06:30.402Z</time>
      </trkpt>
      <trkpt lat="45.85657493211329" lon="8.732417933642864">
        <ele>599.53</ele>
        <time>2024-05-28T15:06:35.422Z</time>
      </trkpt>
      <trkpt lat="45.856584990397096" lon="8.732382981106639">
        <ele>599.66</ele>
        <time>2024-05-28T15:06:40.443Z</time>
      </trkpt>
      <trkpt lat="45.85659496486187" lon="8.732356997206807">
        <ele>599.79</ele>
        <time>2024-05-28T15:06:45.465Z</time>
      </trkpt>
      <trkpt lat="45.85659999400377" lon="8.732311986386776">
        <ele>599.92</ele>
        <time>2024-05-28T15:06:50.488Z</time>
      </trkpt>
      <trkpt lat="45.856606950983405" lon="8.732282985001802">
        <ele>600.06</ele>
        <time>2024-05-28T15:06:55.512Z</time>
      </trkpt>
      <trkpt lat="45.85661298595369" lon="8.732251971960068">
        <ele>600.21</ele>
        <time>2024-05-28T15:07:00.536Z</time>
      </trkpt>
      <trkpt lat="45.85661298595369" lon="8.732221964746714">
        <ele>600.37</ele>
        <time>2024-05-28T15:07:05.561Z</time>
      </trkpt>
      <trkpt lat="45.8566399756819" lon="8.732186928391457">
        <ele>600.54</ele>
        <time>2024-05-28T15:07:10.587Z</time>
      </trkpt>
      <trkpt lat="45.85665497928858" lon="8.732164967805147">
        <ele>600.72</ele>
        <time>2024-05-28T15:07:15.614Z</time>
      </trkpt>
      <trkpt lat="45.85666495375335" lon="8.732131943106651">
        <ele>600.89</ele>
        <time>2024-05-28T15:07:20.642Z</time>
      </trkpt>
      <trkpt lat="45.856667971238494" lon="8.732097996398807">
        <ele>601.07</ele>
        <time>2024-05-28T15:07:25.671Z</time>
      </trkpt>
      <trkpt lat="45.85668297484517" lon="8.732071928679943">
        <ele>601.25</ele>
        <time>2024-05-28T15:07:30.700Z</time>
      </trkpt>
      <trkpt lat="45.85669999010861" lon="8.73204292729497">
        <ele>601.44</ele>
        <time>2024-05-28T15:07:35.730Z</time>
      </trkpt>
      <trkpt lat="45.856716921553016" lon="8.732016943395138">
        <ele>601.64</ele>
        <time>2024-05-28T15:07:40.761Z</time>
      </trkpt>
      <trkpt lat="45.856737960129976" lon="8.731987942010164">
        <ele>601.84</ele>
        <time>2024-05-28T15:07:45.793Z</time>
      </trkpt>
      <trkpt lat="45.85676293820143" lon="8.73195793479681">
        <ele>602.04</ele>
        <time>2024-05-28T15:07:50.826Z</time>
      </trkpt>
      <trkpt lat="45.85678297095001" lon="8.731937985867262">
        <ele>602.25</ele>
        <time>2024-05-28T15:07:55.860Z</time>
      </trkpt>
      <trkpt lat="45.856796968728304" lon="8.731919964775443">
        <ele>602.45</ele>
        <time>2024-05-28T15:08:00.895Z</time>
      </trkpt>
      <trkpt lat="45.85681197233498" lon="8.731894986703992">
        <ele>602.66</ele>
        <time>2024-05-28T15:08:05.930Z</time>
      </trkpt>
      <trkpt lat="45.8568249642849" lon="8.73186799697578">
        <ele>602.86</ele>
        <time>2024-05-28T15:08:10.966Z</time>
      </trkpt>
      <trkpt lat="45.85683192126453" lon="8.731834972277284">
        <ele>603.06</ele>
        <time>2024-05-28T15:08:16.003Z</time>
      </trkpt>
      <trkpt lat="45.85683795623481" lon="8.731799935922027">
        <ele>603.26</ele>
        <time>2024-05-28T15:08:21.041Z</time>
      </trkpt>
      <trkpt lat="45.85685991682112" lon="8.731757942587137">
        <ele>603.45</ele>
        <time>2024-05-28T15:08:26.080Z</time>
      </trkpt>
      <trkpt lat="45.856866957619786" lon="8.731724917888641">
        <ele>603.64</ele>
        <time>2024-05-28T15:08:31.120Z</time>
      </trkpt>
      <trkpt lat="45.8568799495697" lon="8.731697928160429">
        <ele>603.83</ele>
        <time>2024-05-28T15:08:36.161Z</time>
      </trkpt>
      <trkpt lat="45.85689797066152" lon="8.7316769734025">
        <ele>604.02</ele>
        <time>2024-05-28T15:08:41.202Z</time>
      </trkpt>
      <trkpt lat="45.85690492764115" lon="8.731649983674288">
        <ele>604.19</ele>
        <time>2024-05-28T15:08:46.244Z</time>
      </trkpt>
      <trkpt lat="45.85691791959107" lon="8.731631962582469">
        <ele>604.37</ele>
        <time>2024-05-28T15:08:51.287Z</time>
      </trkpt>
      <trkpt lat="45.856932923197746" lon="8.731594998389482">
        <ele>604.53</ele>
        <time>2024-05-28T15:08:56.331Z</time>
      </trkpt>
      <trkpt lat="45.856952955946326" lon="8.731559962034225">
        <ele>604.7</ele>
        <time>2024-05-28T15:09:01.376Z</time>
      </trkpt>
      <trkpt lat="45.856952955946326" lon="8.731529954820871">
        <ele>604.84</ele>
        <time>2024-05-28T15:09:06.421Z</time>
      </trkpt>
      <trkpt lat="45.85696494206786" lon="8.731491984799504">
        <ele>604.98</ele>
        <time>2024-05-28T15:09:11.467Z</time>
      </trkpt>
      <trkpt lat="45.85697793401778" lon="8.731464995071292">
        <ele>605.12</ele>
        <time>2024-05-28T15:09:16.514Z</time>
      </trkpt>
      <trkpt lat="45.85698497481644" lon="8.7314179725945">
        <ele>605.26</ele>
        <time>2024-05-28T15:09:21.562Z</time>
      </trkpt>
      <trkpt lat="45.85699796676636" lon="8.73137698508799">
        <ele>605.38</ele>
        <time>2024-05-28T15:09:26.611Z</time>
      </trkpt>
      <trkpt lat="45.85699997842312" lon="8.731347983703017">
        <ele>605.49</ele>
        <time>2024-05-28T15:09:31.661Z</time>
      </trkpt>
      <trkpt lat="45.85699997842312" lon="8.731317976489663">
        <ele>605.59</ele>
        <time>2024-05-28T15:09:36.712Z</time>
      </trkpt>
      <trkpt lat="45.856994949281216" lon="8.731267936527729">
        <ele>605.68</ele>
        <time>2024-05-28T15:09:41.764Z</time>
      </trkpt>
      <trkpt lat="45.856991931796074" lon="8.731232983991504">
        <ele>605.77</ele>
        <time>2024-05-28T15:09:46.817Z</time>
      </trkpt>
      <trkpt lat="45.856991931796074" lon="8.731197947636247">
        <ele>605.85</ele>
        <time>2024-05-28T15:09:51.871Z</time>
      </trkpt>
      <trkpt lat="45.856994949281216" lon="8.731147991493344">
        <ele>605.92</ele>
        <time>2024-05-28T15:09:56.926Z</time>
      </trkpt>
      <trkpt lat="45.85700995288789" lon="8.73112192377448">
        <ele>606.0</ele>
        <time>2024-05-28T15:10:01.981Z</time>
      </trkpt>
      <trkpt lat="45.857012970373034" lon="8.731094934046268">
        <ele>606.06</ele>
        <time>2024-05-28T15:10:07.037Z</time>
      </trkpt>
      <trkpt lat="45.857036942616105" lon="8.731039948761463">
        <ele>606.13</ele>
        <time>2024-05-28T15:10:12.095Z</time>
      </trkpt>
      <trkpt lat="45.85704197175801" lon="8.731014970690012">
        <ele>606.18</ele>
        <time>2024-05-28T15:10:17.153Z</time>
      </trkpt>
      <trkpt lat="45.85705194622278" lon="8.73096995986998">
        <ele>606.22</ele>
        <time>2024-05-28T15:10:22.212Z</time>
      </trkpt>
      <trkpt lat="45.8570649381727" lon="8.730934923514724">
        <ele>606.27</ele>
        <time>2024-05-28T15:10:27.272Z</time>
      </trkpt>
      <trkpt lat="45.85707197897136" lon="8.730909945443273">
        <ele>606.3</ele>
        <time>2024-05-28T15:10:32.333Z</time>
      </trkpt>
      <trkpt lat="45.857077930122614" lon="8.730879938229918">
        <ele>606.32</ele>
        <time>2024-05-28T15:10:37.395Z</time>
      </trkpt>
      <trkpt lat="45.85708991624415" lon="8.73083995655179">
        <ele>606.34</ele>
        <time>2024-05-28T15:10:42.458Z</time>
      </trkpt>
      <trkpt lat="45.85708991624415" lon="8.730811960995197">
        <ele>606.35</ele>
        <time>2024-05-28T15:10:47.521Z</time>
      </trkpt>
      <trkpt lat="45.85709695704281" lon="8.730784971266985">
        <ele>606.36</ele>
        <time>2024-05-28T15:10:52.585Z</time>
      </trkpt>
      <trkpt lat="45.85709695704281" lon="8.730756975710392">
        <ele>606.36</ele>
        <time>2024-05-28T15:10:57.650Z</time>
      </trkpt>
      <trkpt lat="45.85709695704281" lon="8.730724956840277">
        <ele>606.36</ele>
        <time>2024-05-28T15:11:02.715Z</time>
      </trkpt>
      <trkpt lat="45.857099974527955" lon="8.73068992048502">
        <ele>606.35</ele>
        <time>2024-05-28T15:11:07.781Z</time>
      </trkpt>
      <trkpt lat="45.8571029920131" lon="8.730659997090697">
        <ele>606.34</ele>
        <time>2024-05-28T15:11:12.848Z</time>
      </trkpt>
      <trkpt lat="45.85710994899273" lon="8.730621943250299">
        <ele>606.34</ele>
        <time>2024-05-28T15:11:17.916Z</time>
      </trkpt>
      <trkpt lat="45.85711296647787" lon="8.730577938258648">
        <ele>606.32</ele>
        <time>2024-05-28T15:11:22.985Z</time>
      </trkpt>
      <trkpt lat="45.85710994899273" lon="8.73053795658052">
        <ele>606.31</ele>
        <time>2024-05-28T15:11:28.055Z</time>
      </trkpt>
      <trkpt lat="45.85710994899273" lon="8.730502920225263">
        <ele>606.29</ele>
        <time>2024-05-28T15:11:33.126Z</time>
      </trkpt>
      <trkpt lat="45.85711698979139" lon="8.73047299683094">
        <ele>606.28</ele>
        <time>2024-05-28T15:11:38.197Z</time>
      </trkpt>
      <trkpt lat="45.85711698979139" lon="8.730437960475683">
        <ele>606.26</ele>
        <time>2024-05-28T15:11:43.269Z</time>
      </trkpt>
      <trkpt lat="45.85711698979139" lon="8.730401918292046">
        <ele>606.23</ele>
        <time>2024-05-28T15:11:48.342Z</time>
      </trkpt>
      <trkpt lat="45.85711296647787" lon="8.730372916907072">
        <ele>606.21</ele>
        <time>2024-05-28T15:11:53.416Z</time>
      </trkpt>
      <trkpt lat="45.85711698979139" lon="8.730341987684369">
        <ele>606.19</ele>
        <time>2024-05-28T15:11:58.490Z</time>
      </trkpt>
      <trkpt lat="45.85712797008455" lon="8.730314997956157">
        <ele>606.17</ele>
        <time>2024-05-28T15:12:03.565Z</time>
      </trkpt>
      <trkpt lat="45.85713199339807" lon="8.730274932458997">
        <ele>606.15</ele>
        <time>2024-05-28T15:12:08.641Z</time>
      </trkpt>
      <trkpt lat="45.857147919014096" lon="8.730242997407913">
        <ele>606.14</ele>
        <time>2024-05-28T15:12:13.718Z</time>
      </trkpt>
      <trkpt lat="45.85715495981276" lon="8.73021692968905">
        <ele>606.13</ele>
        <time>2024-05-28T15:12:18.796Z</time>
      </trkpt>
      <trkpt lat="45.85715998895466" lon="8.730189939960837">
        <ele>606.11</ele>
        <time>2024-05-28T15:12:23.874Z</time>
      </trkpt>
      <trkpt lat="45.85717298090458" lon="8.730164961889386">
        <ele>606.11</ele>
        <time>2024-05-28T15:12:28.953Z</time>
      </trkpt>
      <trkpt lat="45.857207933440804" lon="8.730137972161174">
        <ele>606.12</ele>
        <time>2024-05-28T15:12:34.033Z</time>
      </trkpt>
      <trkpt lat="45.85721497423947" lon="8.730111988261342">
        <ele>606.11</ele>
        <time>2024-05-28T15:12:39.114Z</time>
      </trkpt>
      <trkpt lat="45.857227966189384" lon="8.730079969391227">
        <ele>606.12</ele>
        <time>2024-05-28T15:12:44.196Z</time>
      </trkpt>
      <trkpt lat="45.8572219312191" lon="8.730046944692731">
        <ele>606.12</ele>
        <time>2024-05-28T15:12:49.279Z</time>
      </trkpt>
      <trkpt lat="45.85723198950291" lon="8.730024984106421">
        <ele>606.14</ele>
        <time>2024-05-28T15:12:54.362Z</time>
      </trkpt>
      <trkpt lat="45.85723492316902" lon="8.729984918609262">
        <ele>606.16</ele>
        <time>2024-05-28T15:12:59.446Z</time>
      </trkpt>
      <trkpt lat="45.85723794065416" lon="8.729946948587894">
        <ele>606.17</ele>
        <time>2024-05-28T15:13:04.531Z</time>
      </trkpt>
      <trkpt lat="45.85724296979606" lon="8.729912918061018">
        <ele>606.19</ele>
        <time>2024-05-28T15:13:09.617Z</time>
      </trkpt>
      <trkpt lat="45.85726291872561" lon="8.729886934161186">
        <ele>606.22</ele>
        <time>2024-05-28T15:13:14.704Z</time>
      </trkpt>
      <trkpt lat="45.857276916503906" lon="8.729866985231638">
        <ele>606.26</ele>
        <time>2024-05-28T15:13:19.791Z</time>
      </trkpt>
      <trkpt lat="45.85728798061609" lon="8.729819962754846">
        <ele>606.3</ele>
        <time>2024-05-28T15:13:24.880Z</time>
      </trkpt>
      <trkpt lat="45.85729795508087" lon="8.72978299856186">
        <ele>606.35</ele>
        <time>2024-05-28T15:13:29.970Z</time>
      </trkpt>
      <trkpt lat="45.85731999948621" lon="8.729772940278053">
        <ele>606.41</ele>
        <time>2024-05-28T15:13:35.060Z</time>
      </trkpt>
      <trkpt lat="45.85732997395098" lon="8.729749973863363">
        <ele>606.49</ele>
        <time>2024-05-28T15:13:40.151Z</time>
      </trkpt>
      <trkpt lat="45.8573429659009" lon="8.72971996665001">
        <ele>606.57</ele>
        <time>2024-05-28T15:13:45.243Z</time>
      </trkpt>
      <trkpt lat="45.857356963679194" lon="8.729672944173217">
        <ele>606.66</ele>
        <time>2024-05-28T15:13:50.336Z</time>
      </trkpt>
      <trkpt lat="45.85736794397235" lon="8.729649977758527">
        <ele>606.76</ele>
        <time>2024-05-28T15:13:55.430Z</time>
      </trkpt>
      <trkpt lat="45.85738797672093" lon="8.729627933353186">
        <ele>606.87</ele>
        <time>2024-05-28T15:14:00.524Z</time>
      </trkpt>
      <trkpt lat="45.8574169781059" lon="8.729589963331819">
        <ele>607.0</ele>
        <time>2024-05-28T15:14:05.620Z</time>
      </trkpt>
      <trkpt lat="45.85742997005582" lon="8.729519974440336">
        <ele>607.11</ele>
        <time>2024-05-28T15:14:10.717Z</time>
      </trkpt>
      <trkpt lat="45.85743298754096" lon="8.72948493808508">
        <ele>607.23</ele>
        <time>2024-05-28T15:14:15.815Z</time>
      </trkpt>
      <trkpt lat="45.857441956177354" lon="8.72946197167039">
        <ele>607.36</ele>
        <time>2024-05-28T15:14:20.914Z</time>
      </trkpt>
      <trkpt lat="45.857461988925934" lon="8.729451997205615">
        <ele>607.51</ele>
        <time>2024-05-28T15:14:26.014Z</time>
      </trkpt>
      <trkpt lat="45.85747992619872" lon="8.729431964457035">
        <ele>607.66</ele>
        <time>2024-05-28T15:14:31.114Z</time>
      </trkpt>
      <trkpt lat="45.857486966997385" lon="8.72939994558692">
        <ele>607.81</ele>
        <time>2024-05-28T15:14:36.215Z</time>
      </trkpt>
      <trkpt lat="45.85749291814864" lon="8.729344960302114">
        <ele>607.96</ele>
        <time>2024-05-28T15:14:41.317Z</time>
      </trkpt>
      <trkpt lat="45.85751295089722" lon="8.729301961138844">
        <ele>608.13</ele>
        <time>2024-05-28T15:14:46.421Z</time>
      </trkpt>
      <trkpt lat="45.857527954503894" lon="8.729267930611968">
        <ele>608.3</ele>
        <time>2024-05-28T15:14:51.526Z</time>
      </trkpt>
      <trkpt lat="45.857551926746964" lon="8.729239935055375">
        <ele>608.49</ele>
        <time>2024-05-28T15:14:56.632Z</time>
      </trkpt>
      <trkpt lat="45.85756994783878" lon="8.729197941720486">
        <ele>608.68</ele>
        <time>2024-05-28T15:15:01.739Z</time>
      </trkpt>
      <trkpt lat="45.85757992230356" lon="8.729152930900455">
        <ele>608.87</ele>
        <time>2024-05-28T15:15:06.847Z</time>
      </trkpt>
      <trkpt lat="45.85758998058736" lon="8.729126947000623">
        <ele>609.06</ele>
        <time>2024-05-28T15:15:11.956Z</time>
      </trkpt>
      <trkpt lat="45.857592998072505" lon="8.72909995727241">
        <ele>609.26</ele>
        <time>2024-05-28T15:15:17.065Z</time>
      </trkpt>
      <trkpt lat="45.85760498419404" lon="8.72905494645238">
        <ele>609.47</ele>
        <time>2024-05-28T15:15:22.175Z</time>
      </trkpt>
      <trkpt lat="45.857634991407394" lon="8.729021921753883">
        <ele>609.7</ele>
        <time>2024-05-28T15:15:27.287Z</time>
      </trkpt>
      <trkpt lat="45.85764697752893" lon="8.728994932025671">
        <ele>609.92</ele>
        <time>2024-05-28T15:15:32.399Z</time>
      </trkpt>
      <trkpt lat="45.85764999501407" lon="8.728937935084105">
        <ele>610.15</ele>
        <time>2024-05-28T15:15:37.513Z</time>
      </trkpt>
      <trkpt lat="45.85764999501407" lon="8.728897953405976">
        <ele>610.38</ele>
        <time>2024-05-28T15:15:42.628Z</time>
      </trkpt>
      <trkpt lat="45.857659969478846" lon="8.728876998648047">
        <ele>610.62</ele>
        <time>2024-05-28T15:15:47.743Z</time>
      </trkpt>
      <trkpt lat="45.8576849475503" lon="8.728856965899467">
        <ele>610.88</ele>
        <time>2024-05-28T15:15:52.859Z</time>
      </trkpt>
      <trkpt lat="45.85770799778402" lon="8.728836933150887">
        <ele>611.14</ele>
        <time>2024-05-28T15:15:57.976Z</time>
      </trkpt>
      <trkpt lat="45.85772995837033" lon="8.728809943422675">
        <ele>611.41</ele>
        <time>2024-05-28T15:16:03.094Z</time>
      </trkpt>
      <trkpt lat="45.85774999111891" lon="8.728782953694463">
        <ele>611.66</ele>
        <time>2024-05-28T15:16:08.213Z</time>
      </trkpt>
      <trkpt lat="45.85775694809854" lon="8.728751940652728">
        <ele>611.91</ele>
        <time>2024-05-28T15:16:13.333Z</time>
      </trkpt>
      <trkpt lat="45.85777496919036" lon="8.728737942874432">
        <ele>612.17</ele>
        <time>2024-05-28T15:16:18.453Z</time>
      </trkpt>
      <trkpt lat="45.85779491811991" lon="8.728736937046051">
        <ele>612.43</ele>
        <time>2024-05-28T15:16:23.574Z</time>
      </trkpt>
      <trkpt lat="45.85782299749553" lon="8.728736937046051">
        <ele>612.7</ele>
        <time>2024-05-28T15:16:28.696Z</time>
      </trkpt>
      <trkpt lat="45.85784495808184" lon="8.728737942874432">
        <ele>612.97</ele>
        <time>2024-05-28T15:16:33.819Z</time>
      </trkpt>
      <trkpt lat="45.857874965295196" lon="8.728742972016335">
        <ele>613.24</ele>
        <time>2024-05-28T15:16:38.943Z</time>
      </trkpt>
      <trkpt lat="45.85790296085179" lon="8.728739954531193">
        <ele>613.52</ele>
        <time>2024-05-28T15:16:44.068Z</time>
      </trkpt>
      <trkpt lat="45.85792198777199" lon="8.728756969794631">
        <ele>613.81</ele>
        <time>2024-05-28T15:16:49.193Z</time>
      </trkpt>
      <trkpt lat="45.85794797167182" lon="8.728721933439374">
        <ele>614.08</ele>
        <time>2024-05-28T15:16:54.320Z</time>
      </trkpt>
      <trkpt lat="45.85796993225813" lon="8.728714976459742">
        <ele>614.36</ele>
        <time>2024-05-28T15:16:59.447Z</time>
      </trkpt>
      <trkpt lat="45.858001951128244" lon="8.72873199172318">
        <ele>614.64</ele>
        <time>2024-05-28T15:17:04.575Z</time>
      </trkpt>
      <trkpt lat="45.85801494307816" lon="8.728749928995967">
        <ele>614.92</ele>
        <time>2024-05-28T15:17:09.704Z</time>
      </trkpt>
      <trkpt lat="45.85803497582674" lon="8.728759987279773">
        <ele>615.19</ele>
        <time>2024-05-28T15:17:14.834Z</time>
      </trkpt>
      <trkpt lat="45.85805299691856" lon="8.728751940652728">
        <ele>615.46</ele>
        <time>2024-05-28T15:17:19.964Z</time>
      </trkpt>
      <trkpt lat="45.85807696916163" lon="8.728751940652728">
        <ele>615.73</ele>
        <time>2024-05-28T15:17:25.095Z</time>
      </trkpt>
      <trkpt lat="45.85810194723308" lon="8.728737942874432">
        <ele>615.99</ele>
        <time>2024-05-28T15:17:30.227Z</time>
      </trkpt>
      <trkpt lat="45.858107982203364" lon="8.728709947317839">
        <ele>616.23</ele>
        <time>2024-05-28T15:17:35.360Z</time>
      </trkpt>
      <trkpt lat="45.85812298581004" lon="8.72868999838829">
        <ele>616.48</ele>
        <time>2024-05-28T15:17:40.493Z</time>
      </trkpt>
      <trkpt lat="45.858129942789674" lon="8.728659991174936">
        <ele>616.71</ele>
        <time>2024-05-28T15:17:45.627Z</time>
      </trkpt>
      <trkpt lat="45.85814293473959" lon="8.728641970083117">
        <ele>616.95</ele>
        <time>2024-05-28T15:17:50.762Z</time>
      </trkpt>
      <trkpt lat="45.85816196165979" lon="8.728617997840047">
        <ele>617.18</ele>
        <time>2024-05-28T15:17:55.898Z</time>
      </trkpt>
      <trkpt lat="45.858174953609705" lon="8.728592935949564">
        <ele>617.41</ele>
        <time>2024-05-28T15:18:01.034Z</time>
      </trkpt>
      <trkpt lat="45.85819196887314" lon="8.7285599950701">
        <ele>617.63</ele>
        <time>2024-05-28T15:18:06.171Z</time>
      </trkpt>
      <trkpt lat="45.85820697247982" lon="8.728527976199985">
        <ele>617.84</ele>
        <time>2024-05-28T15:18:11.309Z</time>
      </trkpt>
      <trkpt lat="45.85822692140937" lon="8.728482965379953">
        <ele>618.05</ele>
        <time>2024-05-28T15:18:16.448Z</time>
      </trkpt>
      <trkpt lat="45.85825198329985" lon="8.728451952338219">
        <ele>618.25</ele>
        <time>2024-05-28T15:18:21.589Z</time>
      </trkpt>
      <trkpt lat="45.8582719322294" lon="8.72843292541802">
        <ele>618.44</ele>
        <time>2024-05-28T15:18:26.730Z</time>
      </trkpt>
      <trkpt lat="45.85828693583608" lon="8.728407947346568">
        <ele>618.62</ele>
        <time>2024-05-28T15:18:31.872Z</time>
      </trkpt>
      <trkpt lat="45.85829992778599" lon="8.728379951789975">
        <ele>618.79</ele>
        <time>2024-05-28T15:18:37.015Z</time>
      </trkpt>
      <trkpt lat="45.85831694304943" lon="8.728349944576621">
        <ele>618.95</ele>
        <time>2024-05-28T15:18:42.159Z</time>
      </trkpt>
      <trkpt lat="45.858324989676476" lon="8.728312980383635">
        <ele>619.11</ele>
        <time>2024-05-28T15:18:47.304Z</time>
      </trkpt>
      <trkpt lat="45.85833194665611" lon="8.728274926543236">
        <ele>619.25</ele>
        <time>2024-05-28T15:18:52.450Z</time>
      </trkpt>
      <trkpt lat="45.85835499688983" lon="8.7282629404217">
        <ele>619.4</ele>
        <time>2024-05-28T15:18:57.596Z</time>
      </trkpt>
      <trkpt lat="45.858347956091166" lon="8.72821994125843">
        <ele>619.52</ele>
        <time>2024-05-28T15:19:02.743Z</time>
      </trkpt>
      <trkpt lat="45.85835499688983" lon="8.728179959580302">
        <ele>619.64</ele>
        <time>2024-05-28T15:19:07.891Z</time>
      </trkpt>
      <trkpt lat="45.8583599422127" lon="8.728149952366948">
        <ele>619.75</ele>
        <time>2024-05-28T15:19:13.040Z</time>
      </trkpt>
      <trkpt lat="45.85835197940469" lon="8.728116927668452">
        <ele>619.85</ele>
        <time>2024-05-28T15:19:18.190Z</time>
      </trkpt>
      <trkpt lat="45.85835197940469" lon="8.72808993794024">
        <ele>619.95</ele>
        <time>2024-05-28T15:19:23.341Z</time>
      </trkpt>
      <trkpt lat="45.858369916677475" lon="8.72808993794024">
        <ele>620.04</ele>
        <time>2024-05-28T15:19:28.492Z</time>
      </trkpt>
      <trkpt lat="45.85840193554759" lon="8.72806697152555">
        <ele>620.13</ele>
        <time>2024-05-28T15:19:33.644Z</time>
      </trkpt>
      <trkpt lat="45.85842196829617" lon="8.728056997060776">
        <ele>620.2</ele>
        <time>2024-05-28T15:19:38.797Z</time>
      </trkpt>
      <trkpt lat="45.85845993831754" lon="8.728036964312196">
        <ele>620.28</ele>
        <time>2024-05-28T15:19:43.951Z</time>
      </trkpt>
      <trkpt lat="45.85847293026745" lon="8.728011986240745">
        <ele>620.33</ele>
        <time>2024-05-28T15:19:49.106Z</time>
      </trkpt>
      <trkpt lat="45.85848793387413" lon="8.727994970977306">
        <ele>620.38</ele>
        <time>2024-05-28T15:19:54.262Z</time>
      </trkpt>
      <trkpt lat="45.85850193165243" lon="8.72795993462205">
        <ele>620.41</ele>
        <time>2024-05-28T15:19:59.419Z</time>
      </trkpt>
      <trkpt lat="45.85851198993623" lon="8.72791693545878">
        <ele>620.43</ele>
        <time>2024-05-28T15:20:04.577Z</time>
      </trkpt>
      <trkpt lat="45.85852992720902" lon="8.727879971265793">
        <ele>620.44</ele>
        <time>2024-05-28T15:20:09.736Z</time>
      </trkpt>
      <trkpt lat="45.8585499599576" lon="8.727866979315877">
        <ele>620.45</ele>
        <time>2024-05-28T15:20:14.896Z</time>
      </trkpt>
      <trkpt lat="45.85857192054391" lon="8.727846946567297">
        <ele>620.45</ele>
        <time>2024-05-28T15:20:20.056Z</time>
      </trkpt>
      <trkpt lat="45.85858499631286" lon="8.727817945182323">
        <ele>620.43</ele>
        <time>2024-05-28T15:20:25.217Z</time>
      </trkpt>
      <trkpt lat="45.858599999919534" lon="8.72778793796897">
        <ele>620.41</ele>
        <time>2024-05-28T15:20:30.379Z</time>
      </trkpt>
      <trkpt lat="45.858606956899166" lon="8.727762959897518">
        <ele>620.37</ele>
        <time>2024-05-28T15:20:35.542Z</time>
      </trkpt>
      <trkpt lat="45.858626989647746" lon="8.72774695046246">
        <ele>620.34</ele>
        <time>2024-05-28T15:20:40.705Z</time>
      </trkpt>
      <trkpt lat="45.858647944405675" lon="8.727719960734248">
        <ele>620.28</ele>
        <time>2024-05-28T15:20:45.869Z</time>
      </trkpt>
      <trkpt lat="45.85866495966911" lon="8.727687941864133">
        <ele>620.22</ele>
        <time>2024-05-28T15:20:51.034Z</time>
      </trkpt>
      <trkpt lat="45.85868692025542" lon="8.72767997905612">
        <ele>620.15</ele>
        <time>2024-05-28T15:20:56.200Z</time>
      </trkpt>
      <trkpt lat="45.858709970489144" lon="8.727652989327908">
        <ele>620.07</ele>
        <time>2024-05-28T15:21:01.367Z</time>
      </trkpt>
      <trkpt lat="45.85872195661068" lon="8.727627927437425">
        <ele>619.98</ele>
        <time>2024-05-28T15:21:06.535Z</time>
      </trkpt>
      <trkpt lat="45.85871994495392" lon="8.72759792022407">
        <ele>619.88</ele>
        <time>2024-05-28T15:21:11.704Z</time>
      </trkpt>
      <trkpt lat="45.85872799158096" lon="8.727567996829748">
        <ele>619.77</ele>
        <time>2024-05-28T15:21:16.873Z</time>
      </trkpt>
      <trkpt lat="45.85874198935926" lon="8.727539917454123">
        <ele>619.65</ele>
        <time>2024-05-28T15:21:22.043Z</time>
      </trkpt>
      <trkpt lat="45.858751963824034" lon="8.727494990453124">
        <ele>619.52</ele>
        <time>2024-05-28T15:21:27.214Z</time>
      </trkpt>
      <trkpt lat="45.85876696743071" lon="8.727474957704544">
        <ele>619.39</ele>
        <time>2024-05-28T15:21:32.386Z</time>
      </trkpt>
      <trkpt lat="45.85878297686577" lon="8.727452997118235">
        <ele>619.25</ele>
        <time>2024-05-28T15:21:37.559Z</time>
      </trkpt>
      <trkpt lat="45.85880493745208" lon="8.727432964369655">
        <ele>619.11</ele>
        <time>2024-05-28T15:21:42.732Z</time>
      </trkpt>
      <trkpt lat="45.85883192718029" lon="8.727427935227752">
        <ele>618.97</ele>
        <time>2024-05-28T15:21:47.906Z</time>
      </trkpt>
      <trkpt lat="45.85885992273688" lon="8.727434976026416">
        <ele>618.82</ele>
        <time>2024-05-28T15:21:53.081Z</time>
      </trkpt>
      <trkpt lat="45.858887918293476" lon="8.727427935227752">
        <ele>618.67</ele>
        <time>2024-05-28T15:21:58.257Z</time>
      </trkpt>
      <trkpt lat="45.858926977962255" lon="8.727409997954965">
        <ele>618.51</ele>
        <time>2024-05-28T15:22:03.435Z</time>
      </trkpt>
      <trkpt lat="45.858946926891804" lon="8.7274029571563">
        <ele>618.34</ele>
        <time>2024-05-28T15:22:08.613Z</time>
      </trkpt>
      <trkpt lat="45.85895991884172" lon="8.727364987134933">
        <ele>618.15</ele>
        <time>2024-05-28T15:22:13.792Z</time>
      </trkpt>
      <trkpt lat="45.858946926891804" lon="8.727326933294535">
        <ele>617.93</ele>
        <time>2024-05-28T15:22:18.972Z</time>
      </trkpt>
      <trkpt lat="45.858949944376945" lon="8.727299943566322">
        <ele>617.72</ele>
        <time>2024-05-28T15:22:24.153Z</time>
      </trkpt>
      <trkpt lat="45.85894298739731" lon="8.727261973544955">
        <ele>617.5</ele>
        <time>2024-05-28T15:22:29.335Z</time>
      </trkpt>
      <trkpt lat="45.85891197435558" lon="8.727257950231433">
        <ele>617.26</ele>
        <time>2024-05-28T15:22:34.518Z</time>
      </trkpt>
      <trkpt lat="45.858881967142224" lon="8.72727194800973">
        <ele>617.02</ele>
        <time>2024-05-28T15:22:39.702Z</time>
      </trkpt>
      <trkpt lat="45.85885992273688" lon="8.72729692608118">
        <ele>616.79</ele>
        <time>2024-05-28T15:22:44.887Z</time>
      </trkpt>
      <trkpt lat="45.858837962150574" lon="8.727304972708225">
        <ele>616.55</ele>
        <time>2024-05-28T15:22:50.073Z</time>
      </trkpt>
      <trkpt lat="45.85880493745208" lon="8.727294998243451">
        <ele>616.3</ele>
        <time>2024-05-28T15:22:55.260Z</time>
      </trkpt>
      <trkpt lat="45.85877995938063" lon="8.727259961888194">
        <ele>616.06</ele>
        <time>2024-05-28T15:23:00.448Z</time>
      </trkpt>
      <trkpt lat="45.85875992663205" lon="8.727244958281517">
        <ele>615.82</ele>
        <time>2024-05-28T15:23:05.637Z</time>
      </trkpt>
      <trkpt lat="45.85874198935926" lon="8.727224925532937">
        <ele>615.58</ele>
        <time>2024-05-28T15:23:10.826Z</time>
      </trkpt>
      <trkpt lat="45.85872497409582" lon="8.727201959118247">
        <ele>615.35</ele>
        <time>2024-05-28T15:23:16.016Z</time>
      </trkpt>
      <trkpt lat="45.858709970489144" lon="8.727177986875176">
        <ele>615.12</ele>
        <time>2024-05-28T15:23:21.207Z</time>
      </trkpt>
      <trkpt lat="45.858689937740564" lon="8.727157954126596">
        <ele>614.9</ele>
        <time>2024-05-28T15:23:26.399Z</time>
      </trkpt>
      <trkpt lat="45.858667977154255" lon="8.727139933034778">
        <ele>614.69</ele>
        <time>2024-05-28T15:23:31.592Z</time>
      </trkpt>
      <trkpt lat="45.8586519677192" lon="8.727112943306565">
        <ele>614.48</ele>
        <time>2024-05-28T15:23:36.785Z</time>
      </trkpt>
      <trkpt lat="45.858632940799" lon="8.727091988548636">
        <ele>614.28</ele>
        <time>2024-05-28T15:23:41.979Z</time>
      </trkpt>
      <trkpt lat="45.858622966334224" lon="8.727061981335282">
        <ele>614.09</ele>
        <time>2024-05-28T15:23:47.174Z</time>
      </trkpt>
      <trkpt lat="45.85860997438431" lon="8.727032979950309">
        <ele>613.91</ele>
        <time>2024-05-28T15:23:52.370Z</time>
      </trkpt>
      <trkpt lat="45.85859798826277" lon="8.727007918059826">
        <ele>613.73</ele>
        <time>2024-05-28T15:23:57.567Z</time>
      </trkpt>
      <trkpt lat="45.85857192054391" lon="8.72699492610991">
        <ele>613.57</ele>
        <time>2024-05-28T15:24:02.764Z</time>
      </trkpt>
      <trkpt lat="45.858559934422374" lon="8.7269729655236">
        <ele>613.42</ele>
        <time>2024-05-28T15:24:07.962Z</time>
      </trkpt>
      <trkpt lat="45.858542919158936" lon="8.726954944431782">
        <ele>613.28</ele>
        <time>2024-05-28T15:24:13.161Z</time>
      </trkpt>
      <trkpt lat="45.85852699354291" lon="8.726942958310246">
        <ele>613.15</ele>
        <time>2024-05-28T15:24:18.360Z</time>
      </trkpt>
      <trkpt lat="45.85850193165243" lon="8.726961985230446">
        <ele>613.03</ele>
        <time>2024-05-28T15:24:23.560Z</time>
      </trkpt>
      <trkpt lat="45.85847997106612" lon="8.726967936381698">
        <ele>612.93</ele>
        <time>2024-05-28T15:24:28.761Z</time>
      </trkpt>
      <trkpt lat="45.85844996385276" lon="8.726977994665504">
        <ele>612.83</ele>
        <time>2024-05-28T15:24:33.963Z</time>
      </trkpt>
      <trkpt lat="45.85842791944742" lon="8.726981934159994">
        <ele>612.75</ele>
        <time>2024-05-28T15:24:39.166Z</time>
      </trkpt>
      <trkpt lat="45.858407970517874" lon="8.726999955251813">
        <ele>612.69</ele>
        <time>2024-05-28T15:24:44.370Z</time>
      </trkpt>
      <trkpt lat="45.8583929669112" lon="8.727012947201729">
        <ele>612.65</ele>
        <time>2024-05-28T15:24:49.574Z</time>
      </trkpt>
      <trkpt lat="45.85836295969784" lon="8.727021999657154">
        <ele>612.62</ele>
        <time>2024-05-28T15:24:54.779Z</time>
      </trkpt>
      <trkpt lat="45.85834192112088" lon="8.727031974121928">
        <ele>612.61</ele>
        <time>2024-05-28T15:24:59.985Z</time>
      </trkpt>
      <trkpt lat="45.85831694304943" lon="8.727032979950309">
        <ele>612.62</ele>
        <time>2024-05-28T15:25:05.192Z</time>
      </trkpt>
      <trkpt lat="45.85828693583608" lon="8.727007918059826">
        <ele>612.63</ele>
        <time>2024-05-28T15:25:10.400Z</time>
      </trkpt>
      <trkpt lat="45.858282996341586" lon="8.726981934159994">
        <ele>612.67</ele>
        <time>2024-05-28T15:25:15.609Z</time>
      </trkpt>
      <trkpt lat="45.85828995332122" lon="8.72694798745215">
        <ele>612.72</ele>
        <time>2024-05-28T15:25:20.818Z</time>
      </trkpt>
      <trkpt lat="45.85827494971454" lon="8.726892918348312">
        <ele>612.79</ele>
        <time>2024-05-28T15:25:26.029Z</time>
      </trkpt>
      <trkpt lat="45.85827494971454" lon="8.726857965812087">
        <ele>612.87</ele>
        <time>2024-05-28T15:25:31.241Z</time>
      </trkpt>
      <trkpt lat="45.858279978856444" lon="8.726827958598733">
        <ele>612.97</ele>
        <time>2024-05-28T15:25:36.453Z</time>
      </trkpt>
      <trkpt lat="45.85829992778599" lon="8.726809937506914">
        <ele>613.09</ele>
        <time>2024-05-28T15:25:41.666Z</time>
      </trkpt>
      <trkpt lat="45.85831694304943" lon="8.726787976920605">
        <ele>613.22</ele>
        <time>2024-05-28T15:25:46.880Z</time>
      </trkpt>
      <trkpt lat="45.858347956091166" lon="8.726747995242476">
        <ele>613.38</ele>
        <time>2024-05-28T15:25:52.095Z</time>
      </trkpt>
      <trkpt lat="45.8583599422127" lon="8.726719999685884">
        <ele>613.54</ele>
        <time>2024-05-28T15:25:57.311Z</time>
      </trkpt>
      <trkpt lat="45.858389949426055" lon="8.726702984422445">
        <ele>613.71</ele>
        <time>2024-05-28T15:26:02.528Z</time>
      </trkpt>
      <trkpt lat="45.858407970517874" lon="8.726679934188724">
        <ele>613.91</ele>
        <time>2024-05-28T15:26:07.746Z</time>
      </trkpt>
      <trkpt lat="45.858434960246086" lon="8.72668999247253">
        <ele>614.11</ele>
        <time>2024-05-28T15:26:12.965Z</time>
      </trkpt>
      <trkpt lat="45.85846295580268" lon="8.72664992697537">
        <ele>614.35</ele>
        <time>2024-05-28T15:26:18.185Z</time>
      </trkpt>
      <trkpt lat="45.85846999660134" lon="8.726624948903918">
        <ele>614.58</ele>
        <time>2024-05-28T15:26:23.406Z</time>
      </trkpt>
      <trkpt lat="45.85848491638899" lon="8.7266069278121">
        <ele>614.82</ele>
        <time>2024-05-28T15:26:28.627Z</time>
      </trkpt>
      <trkpt lat="45.85850796662271" lon="8.726581949740648">
        <ele>615.08</ele>
        <time>2024-05-28T15:26:33.849Z</time>
      </trkpt>
      <trkpt lat="45.85851492360234" lon="8.726551942527294">
        <ele>615.34</ele>
        <time>2024-05-28T15:26:39.072Z</time>
      </trkpt>
      <trkpt lat="45.85852992720902" lon="8.726537944748998">
        <ele>615.61</ele>
        <time>2024-05-28T15:26:44.296Z</time>
      </trkpt>
      <trkpt lat="45.85855297744274" lon="8.726519923657179">
        <ele>615.9</ele>
        <time>2024-05-28T15:26:49.521Z</time>
      </trkpt>
      <trkpt lat="45.85856496356428" lon="8.726501986384392">
        <ele>616.18</ele>
        <time>2024-05-28T15:26:54.746Z</time>
      </trkpt>
      <trkpt lat="45.85857795551419" lon="8.726461920887232">
        <ele>616.48</ele>
        <time>2024-05-28T15:26:59.972Z</time>
      </trkpt>
      <trkpt lat="45.858581978827715" lon="8.726419927552342">
        <ele>616.77</ele>
        <time>2024-05-28T15:27:05.199Z</time>
      </trkpt>
      <trkpt lat="45.85858499631286" lon="8.726367959752679">
        <ele>617.07</ele>
        <time>2024-05-28T15:27:10.427Z</time>
      </trkpt>
      <trkpt lat="45.85859798826277" lon="8.726331917569041">
        <ele>617.37</ele>
        <time>2024-05-28T15:27:15.656Z</time>
      </trkpt>
      <trkpt lat="45.85861994884908" lon="8.726297970861197">
        <ele>617.69</ele>
        <time>2024-05-28T15:27:20.886Z</time>
      </trkpt>
      <trkpt lat="45.85864492692053" lon="8.726267963647842">
        <ele>618.02</ele>
        <time>2024-05-28T15:27:26.118Z</time>
      </trkpt>
      <trkpt lat="45.85866194218397" lon="8.726237956434488">
        <ele>618.34</ele>
        <time>2024-05-28T15:27:31.350Z</time>
      </trkpt>
      <trkpt lat="45.858671916648746" lon="8.726204931735992">
        <ele>618.66</ele>
        <time>2024-05-28T15:27:36.583Z</time>
      </trkpt>
      <trkpt lat="45.85867996327579" lon="8.726174924522638">
        <ele>618.98</ele>
        <time>2024-05-28T15:27:41.817Z</time>
      </trkpt>
      <trkpt lat="45.85869999602437" lon="8.726136954501271">
        <ele>619.29</ele>
        <time>2024-05-28T15:27:47.052Z</time>
      </trkpt>
      <trkpt lat="45.858706953004" lon="8.726109964773059">
        <ele>619.6</ele>
        <time>2024-05-28T15:27:52.288Z</time>
      </trkpt>
      <trkpt lat="45.85872195661068" lon="8.726094961166382">
        <ele>619.9</ele>
        <time>2024-05-28T15:27:57.524Z</time>
      </trkpt>
      <trkpt lat="45.85874492302537" lon="8.726057996973395">
        <ele>620.21</ele>
        <time>2024-05-28T15:28:02.762Z</time>
      </trkpt>
      <trkpt lat="45.85876696743071" lon="8.726014997810125">
        <ele>620.51</ele>
        <time>2024-05-28T15:28:08.001Z</time>
      </trkpt>
      <trkpt lat="45.85877995938063" lon="8.725964957848191">
        <ele>620.8</ele>
        <time>2024-05-28T15:28:13.241Z</time>
      </trkpt>
      <trkpt lat="45.8587899338454" lon="8.725934950634837">
        <ele>621.09</ele>
        <time>2024-05-28T15:28:18.482Z</time>
      </trkpt>
      <trkpt lat="45.85880493745208" lon="8.725899998098612">
        <ele>621.38</ele>
        <time>2024-05-28T15:28:23.724Z</time>
      </trkpt>
      <trkpt lat="45.858821952715516" lon="8.725886922329664">
        <ele>621.66</ele>
        <time>2024-05-28T15:28:28.966Z</time>
      </trkpt>
      <trkpt lat="45.858839973807335" lon="8.725864961743355">
        <ele>621.93</ele>
        <time>2024-05-28T15:28:34.209Z</time>
      </trkpt>
      <trkpt lat="45.85885698907077" lon="8.725851969793439">
        <ele>622.2</ele>
        <time>2024-05-28T15:28:39.453Z</time>
      </trkpt>
      <trkpt lat="45.85886696353555" lon="8.725824980065227">
        <ele>622.46</ele>
        <time>2024-05-28T15:28:44.698Z</time>
      </trkpt>
      <trkpt lat="45.85886998102069" lon="8.725796984508634">
        <ele>622.71</ele>
        <time>2024-05-28T15:28:49.943Z</time>
      </trkpt>
      <trkpt lat="45.85887693800032" lon="8.725757924839854">
        <ele>622.95</ele>
        <time>2024-05-28T15:28:55.189Z</time>
      </trkpt>
      <trkpt lat="45.85891197435558" lon="8.725712997838855">
        <ele>623.19</ele>
        <time>2024-05-28T15:29:00.437Z</time>
      </trkpt>
      <trkpt lat="45.85893695242703" lon="8.725679973140359">
        <ele>623.42</ele>
        <time>2024-05-28T15:29:05.686Z</time>
      </trkpt>
      <trkpt lat="45.858946926891804" lon="8.725647954270244">
        <ele>623.64</ele>
        <time>2024-05-28T15:29:10.936Z</time>
      </trkpt>
      <trkpt lat="45.85896193049848" lon="8.725612917914987">
        <ele>623.84</ele>
        <time>2024-05-28T15:29:16.187Z</time>
      </trkpt>
      <trkpt lat="45.85898196324706" lon="8.725586934015155">
        <ele>624.05</ele>
        <time>2024-05-28T15:29:21.439Z</time>
      </trkpt>
      <trkpt lat="45.85899998433888" lon="8.725567990913987">
        <ele>624.24</ele>
        <time>2024-05-28T15:29:26.691Z</time>
      </trkpt>
      <trkpt lat="45.85901993326843" lon="8.725547958165407">
        <ele>624.43</ele>
        <time>2024-05-28T15:29:31.944Z</time>
      </trkpt>
      <trkpt lat="45.859036948531866" lon="8.725517950952053">
        <ele>624.6</ele>
        <time>2024-05-28T15:29:37.198Z</time>
      </trkpt>
      <trkpt lat="45.85903996601701" lon="8.725481992587447">
        <ele>624.77</ele>
        <time>2024-05-28T15:29:42.453Z</time>
      </trkpt>
      <trkpt lat="45.8590679615736" lon="8.725449973717332">
        <ele>624.93</ele>
        <time>2024-05-28T15:29:47.709Z</time>
      </trkpt>
      <trkpt lat="45.859079947695136" lon="8.72542792931199">
        <ele>625.08</ele>
        <time>2024-05-28T15:29:52.966Z</time>
      </trkpt>
      <trkpt lat="45.85910995490849" lon="8.725414937362075">
        <ele>625.23</ele>
        <time>2024-05-28T15:29:58.224Z</time>
      </trkpt>
      <trkpt lat="45.859121941030025" lon="8.725396916270256">
        <ele>625.37</ele>
        <time>2024-05-28T15:30:03.482Z</time>
      </trkpt>
      <trkpt lat="45.859141973778605" lon="8.72537998482585">
        <ele>625.5</ele>
        <time>2024-05-28T15:30:08.741Z</time>
      </trkpt>
      <trkpt lat="45.85915798321366" lon="8.725354922935367">
        <ele>625.62</ele>
        <time>2024-05-28T15:30:14.001Z</time>
      </trkpt>
      <trkpt lat="45.85918991826475" lon="8.725322987884283">
        <ele>625.74</ele>
        <time>2024-05-28T15:30:19.262Z</time>
      </trkpt>
      <trkpt lat="45.859204921871424" lon="8.725299937650561">
        <ele>625.85</ele>
        <time>2024-05-28T15:30:24.524Z</time>
      </trkpt>
      <trkpt lat="45.859201988205314" lon="8.725271942093968">
        <ele>625.96</ele>
        <time>2024-05-28T15:30:29.787Z</time>
      </trkpt>
      <trkpt lat="45.85921498015523" lon="8.72525199316442">
        <ele>626.07</ele>
        <time>2024-05-28T15:30:35.050Z</time>
      </trkpt>
      <trkpt lat="45.85923492908478" lon="8.725219974294305">
        <ele>626.18</ele>
        <time>2024-05-28T15:30:40.314Z</time>
      </trkpt>
      <trkpt lat="45.85925697349012" lon="8.725179992616177">
        <ele>626.28</ele>
        <time>2024-05-28T15:30:45.579Z</time>
      </trkpt>
      <trkpt lat="45.85927692241967" lon="8.7251649890095">
        <ele>626.38</ele>
        <time>2024-05-28T15:30:50.845Z</time>
      </trkpt>
      <trkpt lat="45.859287986531854" lon="8.72514495626092">
        <ele>626.49</ele>
        <time>2024-05-28T15:30:56.112Z</time>
      </trkpt>
      <trkpt lat="45.8593079354614" lon="8.7251269351691">
        <ele>626.59</ele>
        <time>2024-05-28T15:31:01.380Z</time>
      </trkpt>
      <trkpt lat="45.859332997351885" lon="8.725084941834211">
        <ele>626.69</ele>
        <time>2024-05-28T15:31:06.649Z</time>
      </trkpt>
      <trkpt lat="45.85934297181666" lon="8.725061975419521">
        <ele>626.79</ele>
        <time>2024-05-28T15:31:11.918Z</time>
      </trkpt>
      <trkpt lat="45.859374990686774" lon="8.72503699734807">
        <ele>626.9</ele>
        <time>2024-05-28T15:31:17.189Z</time>
      </trkpt>
      <trkpt lat="45.859397957101464" lon="8.725012941285968">
        <ele>627.0</ele>
        <time>2024-05-28T15:31:22.461Z</time>
      </trkpt>
      <trkpt lat="45.85938798263669" lon="8.724987963214517">
        <ele>627.1</ele>
        <time>2024-05-28T15:31:27.733Z</time>
      </trkpt>
      <trkpt lat="45.859397957101464" lon="8.724957956001163">
        <ele>627.2</ele>
        <time>2024-05-28T15:31:33.006Z</time>
      </trkpt>
      <trkpt lat="45.859422935172915" lon="8.724922919645905">
        <ele>627.31</ele>
        <time>2024-05-28T15:31:38.280Z</time>
      </trkpt>
      <trkpt lat="45.859439950436354" lon="8.72490799985826">
        <ele>627.42</ele>
        <time>2024-05-28T15:31:43.555Z</time>
      </trkpt>
      <trkpt lat="45.85945193655789" lon="8.7248869612813">
        <ele>627.54</ele>
        <time>2024-05-28T15:31:48.831Z</time>
      </trkpt>
      <trkpt lat="45.859464928507805" lon="8.7248679343611">
        <ele>627.66</ele>
        <time>2024-05-28T15:31:54.107Z</time>
      </trkpt>
      <trkpt lat="45.85947792045772" lon="8.724846979603171">
        <ele>627.78</ele>
        <time>2024-05-28T15:31:59.384Z</time>
      </trkpt>
      <trkpt lat="45.859486972913146" lon="8.724822923541069">
        <ele>627.9</ele>
        <time>2024-05-28T15:32:04.661Z</time>
      </trkpt>
      <trkpt lat="45.859506921842694" lon="8.724807919934392">
        <ele>628.03</ele>
        <time>2024-05-28T15:32:09.939Z</time>
      </trkpt>
      <trkpt lat="45.85952192544937" lon="8.724794927984476">
        <ele>628.16</ele>
        <time>2024-05-28T15:32:15.218Z</time>
      </trkpt>
      <trkpt lat="45.85953793488443" lon="8.724779924377799">
        <ele>628.29</ele>
        <time>2024-05-28T15:32:20.497Z</time>
      </trkpt>
      <trkpt lat="45.85955796763301" lon="8.724774979054928">
        <ele>628.43</ele>
        <time>2024-05-28T15:32:25.777Z</time>
      </trkpt>
      <trkpt lat="45.85957699455321" lon="8.724774979054928">
        <ele>628.57</ele>
        <time>2024-05-28T15:32:31.058Z</time>
      </trkpt>
      <trkpt lat="45.859611947089434" lon="8.72475997544825">
        <ele>628.72</ele>
        <time>2024-05-28T15:32:36.340Z</time>
      </trkpt>
      <trkpt lat="45.85964296013117" lon="8.724727956578135">
        <ele>628.87</ele>
        <time>2024-05-28T15:32:41.623Z</time>
      </trkpt>
      <trkpt lat="45.85966299287975" lon="8.72471496462822">
        <ele>629.02</ele>
        <time>2024-05-28T15:32:46.907Z</time>
      </trkpt>
      <trkpt lat="45.859676990658045" lon="8.724687974900007">
        <ele>629.17</ele>
        <time>2024-05-28T15:32:52.192Z</time>
      </trkpt>
      <trkpt lat="45.859697945415974" lon="8.724656961858273">
        <ele>629.33</ele>
        <time>2024-05-28T15:32:57.478Z</time>
      </trkpt>
      <trkpt lat="45.859722923487425" lon="8.724639946594834">
        <ele>629.5</ele>
        <time>2024-05-28T15:33:02.765Z</time>
      </trkpt>
      <trkpt lat="45.859742956236005" lon="8.724632989615202">
        <ele>629.67</ele>
        <time>2024-05-28T15:33:08.052Z</time>
      </trkpt>
      <trkpt lat="45.85977195762098" lon="8.72462997213006">
        <ele>629.84</ele>
        <time>2024-05-28T15:33:13.340Z</time>
      </trkpt>
      <trkpt lat="45.85977799259126" lon="8.724604994058609">
        <ele>630.01</ele>
        <time>2024-05-28T15:33:18.629Z</time>
      </trkpt>
      <trkpt lat="45.85979199036956" lon="8.724584961310029">
        <ele>630.19</ele>
        <time>2024-05-28T15:33:23.919Z</time>
      </trkpt>
      <trkpt lat="45.85979995317757" lon="8.724554954096675">
        <ele>630.37</ele>
        <time>2024-05-28T15:33:29.209Z</time>
      </trkpt>
      <trkpt lat="45.85981696844101" lon="8.724536933004856">
        <ele>630.55</ele>
        <time>2024-05-28T15:33:34.500Z</time>
      </trkpt>
      <trkpt lat="45.8598399348557" lon="8.724484965205193">
        <ele>630.74</ele>
        <time>2024-05-28T15:33:39.792Z</time>
      </trkpt>
      <trkpt lat="45.859851920977235" lon="8.724444983527064">
        <ele>630.93</ele>
        <time>2024-05-28T15:33:45.085Z</time>
      </trkpt>
      <trkpt lat="45.859871953725815" lon="8.72441497631371">
        <ele>631.12</ele>
        <time>2024-05-28T15:33:50.379Z</time>
      </trkpt>
      <trkpt lat="45.859889974817634" lon="8.724391926079988">
        <ele>631.32</ele>
        <time>2024-05-28T15:33:55.674Z</time>
      </trkpt>
      <trkpt lat="45.85990296676755" lon="8.72437197715044">
        <ele>631.51</ele>
        <time>2024-05-28T15:34:00.970Z</time>
      </trkpt>
      <trkpt lat="45.85991998203099" lon="8.724357979372144">
        <ele>631.71</ele>
        <time>2024-05-28T15:34:06.267Z</time>
      </trkpt>
      <trkpt lat="45.8599419426173" lon="8.724331995472312">
        <ele>631.92</ele>
        <time>2024-05-28T15:34:11.565Z</time>
      </trkpt>
      <trkpt lat="45.85996298119426" lon="8.724312968552113">
        <ele>632.12</ele>
        <time>2024-05-28T15:34:16.863Z</time>
      </trkpt>
      <trkpt lat="45.859982930123806" lon="8.724292935803533">
        <ele>632.33</ele>
        <time>2024-05-28T15:34:22.162Z</time>
      </trkpt>
      <trkpt lat="45.860001957044005" lon="8.724272986873984">
        <ele>632.54</ele>
        <time>2024-05-28T15:34:27.462Z</time>
      </trkpt>
      <trkpt lat="45.8600349817425" lon="8.724271981045604">
        <ele>632.76</ele>
        <time>2024-05-28T15:34:32.763Z</time>
      </trkpt>
      <trkpt lat="45.86005291901529" lon="8.724247924983501">
        <ele>632.98</ele>
        <time>2024-05-28T15:34:38.065Z</time>
      </trkpt>
      <trkpt lat="45.86007295176387" lon="8.724227976053953">
        <ele>633.19</ele>
        <time>2024-05-28T15:34:43.368Z</time>
      </trkpt>
      <trkpt lat="45.86008192040026" lon="8.724206937476993">
        <ele>633.4</ele>
        <time>2024-05-28T15:34:48.671Z</time>
      </trkpt>
      <trkpt lat="45.86010195314884" lon="8.724187994375825">
        <ele>633.62</ele>
        <time>2024-05-28T15:34:53.975Z</time>
      </trkpt>
      <trkpt lat="45.86011997424066" lon="8.724171984940767">
        <ele>633.83</ele>
        <time>2024-05-28T15:34:59.280Z</time>
      </trkpt>
      <trkpt lat="45.86013992317021" lon="8.72415798716247">
        <ele>634.05</ele>
        <time>2024-05-28T15:35:04.585Z</time>
      </trkpt>
      <trkpt lat="45.86016196757555" lon="8.724126974120736">
        <ele>634.27</ele>
        <time>2024-05-28T15:35:09.892Z</time>
      </trkpt>
      <trkpt lat="45.86017797701061" lon="8.724107947200537">
        <ele>634.49</ele>
        <time>2024-05-28T15:35:15.199Z</time>
      </trkpt>
      <trkpt lat="45.86020697839558" lon="8.724067965522408">
        <ele>634.71</ele>
        <time>2024-05-28T15:35:20.508Z</time>
      </trkpt>
      <trkpt lat="45.86022692732513" lon="8.724039969965816">
        <ele>634.93</ele>
        <time>2024-05-28T15:35:25.817Z</time>
      </trkpt>
      <trkpt lat="45.86024193093181" lon="8.723994959145784">
        <ele>635.15</ele>
        <time>2024-05-28T15:35:31.128Z</time>
      </trkpt>
      <trkpt lat="45.86026196368039" lon="8.723962940275669">
        <ele>635.38</ele>
        <time>2024-05-28T15:35:36.440Z</time>
      </trkpt>
      <trkpt lat="45.8602749556303" lon="8.72394299134612">
        <ele>635.6</ele>
        <time>2024-05-28T15:35:41.752Z</time>
      </trkpt>
      <trkpt lat="45.86029297672212" lon="8.723929999396205">
        <ele>635.82</ele>
        <time>2024-05-28T15:35:47.065Z</time>
      </trkpt>
      <trkpt lat="45.860319966450334" lon="8.723909966647625">
        <ele>636.05</ele>
        <time>2024-05-28T15:35:52.379Z</time>
      </trkpt>
      <trkpt lat="45.86033497005701" lon="8.723894963040948">
        <ele>636.27</ele>
        <time>2024-05-28T15:35:57.694Z</time>
      </trkpt>
      <trkpt lat="45.86035198532045" lon="8.723871996626258">
        <ele>636.49</ele>
        <time>2024-05-28T15:36:03.009Z</time>
      </trkpt>
      <trkpt lat="45.860369922593236" lon="8.723846934735775">
        <ele>636.71</ele>
        <time>2024-05-28T15:36:08.325Z</time>
      </trkpt>
      <trkpt lat="45.86037998087704" lon="8.723821956664324">
        <ele>636.92</ele>
        <time>2024-05-28T15:36:13.642Z</time>
      </trkpt>
      <trkpt lat="45.86039791814983" lon="8.723797984421253">
        <ele>637.14</ele>
        <time>2024-05-28T15:36:18.960Z</time>
      </trkpt>
      <trkpt lat="45.86041199974716" lon="8.723776945844293">
        <ele>637.35</ele>
        <time>2024-05-28T15:36:24.278Z</time>
      </trkpt>
      <trkpt lat="45.860449969768524" lon="8.723741993308067">
        <ele>637.57</ele>
        <time>2024-05-28T15:36:29.598Z</time>
      </trkpt>
      <trkpt lat="45.86046991869807" lon="8.723701927810907">
        <ele>637.78</ele>
        <time>2024-05-28T15:36:34.919Z</time>
      </trkpt>
      <trkpt lat="45.86048793978989" lon="8.723676949739456">
        <ele>637.99</ele>
        <time>2024-05-28T15:36:40.241Z</time>
      </trkpt>
      <trkpt lat="45.860511995851994" lon="8.72364199720323">
        <ele>638.2</ele>
        <time>2024-05-28T15:36:45.564Z</time>
      </trkpt>
      <trkpt lat="45.86053295060992" lon="8.723616935312748">
        <ele>638.4</ele>
        <time>2024-05-28T15:36:50.888Z</time>
      </trkpt>
      <trkpt lat="45.86054996587336" lon="8.7235969863832">
        <ele>638.6</ele>
        <time>2024-05-28T15:36:56.213Z</time>
      </trkpt>
      <trkpt lat="45.86056496948004" lon="8.723572930321097">
        <ele>638.79</ele>
        <time>2024-05-28T15:37:01.538Z</time>
      </trkpt>
      <trkpt lat="45.86057494394481" lon="8.723546946421266">
        <ele>638.98</ele>
        <time>2024-05-28T15:37:06.864Z</time>
      </trkpt>
      <trkpt lat="45.860597994178534" lon="8.723507970571518">
        <ele>639.17</ele>
        <time>2024-05-28T15:37:12.191Z</time>
      </trkpt>
      <trkpt lat="45.86060998030007" lon="8.72347192838788">
        <ele>639.34</ele>
        <time>2024-05-28T15:37:17.519Z</time>
      </trkpt>
      <trkpt lat="45.860622972249985" lon="8.72344795614481">
        <ele>639.52</ele>
        <time>2024-05-28T15:37:22.848Z</time>
      </trkpt>
      <trkpt lat="45.86063797585666" lon="8.723401939496398">
        <ele>639.69</ele>
        <time>2024-05-28T15:37:28.178Z</time>
      </trkpt>
      <trkpt lat="45.8606549911201" lon="8.723379978910089">
        <ele>639.86</ele>
        <time>2024-05-28T15:37:33.509Z</time>
      </trkpt>
      <trkpt lat="45.860667983070016" lon="8.723354917019606">
        <ele>640.03</ele>
        <time>2024-05-28T15:37:38.841Z</time>
      </trkpt>
      <trkpt lat="45.86068298667669" lon="8.723332956433296">
        <ele>640.19</ele>
        <time>2024-05-28T15:37:44.173Z</time>
      </trkpt>
      <trkpt lat="45.86069296114147" lon="8.723302949219942">
        <ele>640.34</ele>
        <time>2024-05-28T15:37:49.506Z</time>
      </trkpt>
      <trkpt lat="45.860706958919764" lon="8.723277971148491">
        <ele>640.5</ele>
        <time>2024-05-28T15:37:54.840Z</time>
      </trkpt>
      <trkpt lat="45.86071693338454" lon="8.723244946449995">
        <ele>640.65</ele>
        <time>2024-05-28T15:38:00.175Z</time>
      </trkpt>
      <trkpt lat="45.860731936991215" lon="8.723216950893402">
        <ele>640.8</ele>
        <time>2024-05-28T15:38:05.510Z</time>
      </trkpt>
      <trkpt lat="45.86074794642627" lon="8.723187949508429">
        <ele>640.94</ele>
        <time>2024-05-28T15:38:10.846Z</time>
      </trkpt>
      <trkpt lat="45.86076295003295" lon="8.723159953951836">
        <ele>641.08</ele>
        <time>2024-05-28T15:38:16.183Z</time>
      </trkpt>
      <trkpt lat="45.860772924497724" lon="8.723134975880384">
        <ele>641.21</ele>
        <time>2024-05-28T15:38:21.521Z</time>
      </trkpt>
      <trkpt lat="45.860796980559826" lon="8.723121983930469">
        <ele>641.34</ele>
        <time>2024-05-28T15:38:26.860Z</time>
      </trkpt>
      <trkpt lat="45.8608119841665" lon="8.723099939525127">
        <ele>641.47</ele>
        <time>2024-05-28T15:38:32.199Z</time>
      </trkpt>
      <trkpt lat="45.86083193309605" lon="8.723059957847">
        <ele>641.6</ele>
        <time>2024-05-28T15:38:37.540Z</time>
      </trkpt>
      <trkpt lat="45.86084693670273" lon="8.723031962290406">
        <ele>641.72</ele>
        <time>2024-05-28T15:38:42.881Z</time>
      </trkpt>
      <trkpt lat="45.86087292060256" lon="8.723009917885065">
        <ele>641.84</ele>
        <time>2024-05-28T15:38:48.223Z</time>
      </trkpt>
      <trkpt lat="45.86088792420924" lon="8.722977982833982">
        <ele>641.96</ele>
        <time>2024-05-28T15:38:53.566Z</time>
      </trkpt>
      <trkpt lat="45.86091198027134" lon="8.722956944257021">
        <ele>642.08</ele>
        <time>2024-05-28T15:38:58.910Z</time>
      </trkpt>
      <trkpt lat="45.86092698387802" lon="8.722939928993583">
        <ele>642.2</ele>
        <time>2024-05-28T15:39:04.255Z</time>
      </trkpt>
      <trkpt lat="45.860946932807565" lon="8.72288796119392">
        <ele>642.31</ele>
        <time>2024-05-28T15:39:09.601Z</time>
      </trkpt>
      <trkpt lat="45.86097492836416" lon="8.722856948152184">
        <ele>642.43</ele>
        <time>2024-05-28T15:39:14.948Z</time>
      </trkpt>
      <trkpt lat="45.86099496111274" lon="8.722837921231985">
        <ele>642.55</ele>
        <time>2024-05-28T15:39:20.296Z</time>
      </trkpt>
      <trkpt lat="45.86101298220456" lon="8.722819983959198">
        <ele>642.66</ele>
        <time>2024-05-28T15:39:25.645Z</time>
      </trkpt>
      <trkpt lat="45.86102697998285" lon="8.722796933725476">
        <ele>642.78</ele>
        <time>2024-05-28T15:39:30.995Z</time>
      </trkpt>
      <trkpt lat="45.86103695444763" lon="8.722772961482406">
        <ele>642.89</ele>
        <time>2024-05-28T15:39:36.345Z</time>
      </trkpt>
      <trkpt lat="45.86104491725564" lon="8.722747983410954">
        <ele>643.0</ele>
        <time>2024-05-28T15:39:41.696Z</time>
      </trkpt>
      <trkpt lat="45.86106193251908" lon="8.722729962319136">
        <ele>643.11</ele>
        <time>2024-05-28T15:39:47.048Z</time>
      </trkpt>
      <trkpt lat="45.861071990802884" lon="8.722679922357202">
        <ele>643.21</ele>
        <time>2024-05-28T15:39:52.401Z</time>
      </trkpt>
      <trkpt lat="45.8610799536109" lon="8.722634995356202">
        <ele>643.32</ele>
        <time>2024-05-28T15:39:57.755Z</time>
      </trkpt>
      <trkpt lat="45.86108992807567" lon="8.722589984536171">
        <ele>643.42</ele>
        <time>2024-05-28T15:40:03.110Z</time>
      </trkpt>
      <trkpt lat="45.86109998635948" lon="8.722562994807959">
        <ele>643.52</ele>
        <time>2024-05-28T15:40:08.466Z</time>
      </trkpt>
      <trkpt lat="45.86110996082425" lon="8.722534999251366">
        <ele>643.63</ele>
        <time>2024-05-28T15:40:13.822Z</time>
      </trkpt>
      <trkpt lat="45.86112798191607" lon="8.722487976774573">
        <ele>643.73</ele>
        <time>2024-05-28T15:40:19.180Z</time>
      </trkpt>
      <trkpt lat="45.8611349388957" lon="8.722449922934175">
        <ele>643.83</ele>
        <time>2024-05-28T15:40:24.539Z</time>
      </trkpt>
      <trkpt lat="45.86114197969437" lon="8.722417987883091">
        <ele>643.93</ele>
        <time>2024-05-28T15:40:29.898Z</time>
      </trkpt>
      <trkpt lat="45.86115497164428" lon="8.722397955134511">
        <ele>644.03</ele>
        <time>2024-05-28T15:40:35.258Z</time>
      </trkpt>
      <trkpt lat="45.86116997525096" lon="8.722379934042692">
        <ele>644.14</ele>
        <time>2024-05-28T15:40:40.619Z</time>
      </trkpt>
      <trkpt lat="45.86119998246431" lon="8.7223519384861">
        <ele>644.24</ele>
        <time>2024-05-28T15:40:45.981Z</time>
      </trkpt>
      <trkpt lat="45.86121498607099" lon="8.722304999828339">
        <ele>644.35</ele>
        <time>2024-05-28T15:40:51.344Z</time>
      </trkpt>
      <trkpt lat="45.86122194305062" lon="8.722276920452714">
        <ele>644.44</ele>
        <time>2024-05-28T15:40:56.708Z</time>
      </trkpt>
      <trkpt lat="45.861224960535765" lon="8.722246997058392">
        <ele>644.54</ele>
        <time>2024-05-28T15:41:02.073Z</time>
      </trkpt>
      <trkpt lat="45.86123493500054" lon="8.722221935167909">
        <ele>644.64</ele>
        <time>2024-05-28T15:41:07.438Z</time>
      </trkpt>
      <trkpt lat="45.861246921122074" lon="8.7221999745816">
        <ele>644.74</ele>
        <time>2024-05-28T15:41:12.804Z</time>
      </trkpt>
      <trkpt lat="45.861249938607216" lon="8.722159992903471">
        <ele>644.84</ele>
        <time>2024-05-28T15:41:18.171Z</time>
      </trkpt>
      <trkpt lat="45.861266953870654" lon="8.722131997346878">
        <ele>644.94</ele>
        <time>2024-05-28T15:41:23.539Z</time>
      </trkpt>
      <trkpt lat="45.86127994582057" lon="8.722106935456395">
        <ele>645.05</ele>
        <time>2024-05-28T15:41:28.907Z</time>
      </trkpt>
      <trkpt lat="45.86129796691239" lon="8.722086986526847">
        <ele>645.15</ele>
        <time>2024-05-28T15:41:34.276Z</time>
      </trkpt>
      <trkpt lat="45.86131498217583" lon="8.722062930464745">
        <ele>645.25</ele>
        <time>2024-05-28T15:41:39.646Z</time>
      </trkpt>
      <trkpt lat="45.86133996024728" lon="8.722041975706816">
        <ele>645.36</ele>
        <time>2024-05-28T15:41:45.017Z</time>
      </trkpt>
      <trkpt lat="45.86136795580387" lon="8.722026972100139">
        <ele>645.47</ele>
        <time>2024-05-28T15:41:50.389Z</time>
      </trkpt>
      <trkpt lat="45.86138195358217" lon="8.721987996250391">
        <ele>645.58</ele>
        <time>2024-05-28T15:41:55.762Z</time>
      </trkpt>
      <trkpt lat="45.86139192804694" lon="8.721959916874766">
        <ele>645.68</ele>
        <time>2024-05-28T15:42:01.136Z</time>
      </trkpt>
      <trkpt lat="45.86140994913876" lon="8.721934938803315">
        <ele>645.79</ele>
        <time>2024-05-28T15:42:06.510Z</time>
      </trkpt>
      <trkpt lat="45.86142998188734" lon="8.721909960731864">
        <ele>645.91</ele>
        <time>2024-05-28T15:42:11.885Z</time>
      </trkpt>
      <trkpt lat="45.861441968008876" lon="8.721887916326523">
        <ele>646.03</ele>
        <time>2024-05-28T15:42:17.261Z</time>
      </trkpt>
      <trkpt lat="45.86144791916013" lon="8.721839971840382">
        <ele>646.14</ele>
        <time>2024-05-28T15:42:22.638Z</time>
      </trkpt>
      <trkpt lat="45.861461916938424" lon="8.72181499376893">
        <ele>646.27</ele>
        <time>2024-05-28T15:42:28.016Z</time>
      </trkpt>
      <trkpt lat="45.861464934423566" lon="8.721784986555576">
        <ele>646.39</ele>
        <time>2024-05-28T15:42:33.395Z</time>
      </trkpt>
      <trkpt lat="45.861464934423566" lon="8.72175196185708">
        <ele>646.52</ele>
        <time>2024-05-28T15:42:38.774Z</time>
      </trkpt>
      <trkpt lat="45.86147792637348" lon="8.721724972128868">
        <ele>646.66</ele>
        <time>2024-05-28T15:42:44.154Z</time>
      </trkpt>
      <trkpt lat="45.86148697882891" lon="8.721697982400656">
        <ele>646.8</ele>
        <time>2024-05-28T15:42:49.535Z</time>
      </trkpt>
      <trkpt lat="45.86149292998016" lon="8.721666969358921">
        <ele>646.95</ele>
        <time>2024-05-28T15:42:54.917Z</time>
      </trkpt>
      <trkpt lat="45.86149292998016" lon="8.721639979630709">
        <ele>647.1</ele>
        <time>2024-05-28T15:43:00.299Z</time>
      </trkpt>
      <trkpt lat="45.86148999631405" lon="8.721609972417355">
        <ele>647.25</ele>
        <time>2024-05-28T15:43:05.682Z</time>
      </trkpt>
      <trkpt lat="45.86148697882891" lon="8.721571918576956">
        <ele>647.42</ele>
        <time>2024-05-28T15:43:11.066Z</time>
      </trkpt>
      <trkpt lat="45.86149292998016" lon="8.721546940505505">
        <ele>647.59</ele>
        <time>2024-05-28T15:43:16.450Z</time>
      </trkpt>
      <trkpt lat="45.86151296272874" lon="8.721507964655757">
        <ele>647.78</ele>
        <time>2024-05-28T15:43:21.836Z</time>
      </trkpt>
      <trkpt lat="45.86153198964894" lon="8.7214729283005">
        <ele>647.99</ele>
        <time>2024-05-28T15:43:27.223Z</time>
      </trkpt>
      <trkpt lat="45.86155797354877" lon="8.721427917480469">
        <ele>648.2</ele>
        <time>2024-05-28T15:43:32.611Z</time>
      </trkpt>
      <trkpt lat="45.86157993413508" lon="8.72138793580234">
        <ele>648.43</ele>
        <time>2024-05-28T15:43:38.000Z</time>
      </trkpt>
      <trkpt lat="45.861589992418885" lon="8.721366981044412">
        <ele>648.65</ele>
        <time>2024-05-28T15:43:43.390Z</time>
      </trkpt>
      <trkpt lat="45.86160197854042" lon="8.72134292498231">
        <ele>648.89</ele>
        <time>2024-05-28T15:43:48.780Z</time>
      </trkpt>
      <trkpt lat="45.86161798797548" lon="8.721326999366283">
        <ele>649.14</ele>
        <time>2024-05-28T15:43:54.171Z</time>
      </trkpt>
      <trkpt lat="45.861637936905026" lon="8.721287939697504">
        <ele>649.41</ele>
        <time>2024-05-28T15:43:59.563Z</time>
      </trkpt>
      <trkpt lat="45.86166299879551" lon="8.72125499881804">
        <ele>649.68</ele>
        <time>2024-05-28T15:44:04.956Z</time>
      </trkpt>
      <trkpt lat="45.861679930239916" lon="8.721224991604686">
        <ele>649.97</ele>
        <time>2024-05-28T15:44:10.350Z</time>
      </trkpt>
      <trkpt lat="45.86168495938182" lon="8.721194984391332">
        <ele>650.25</ele>
        <time>2024-05-28T15:44:15.745Z</time>
      </trkpt>
      <trkpt lat="45.86170197464526" lon="8.721162965521216">
        <ele>650.55</ele>
        <time>2024-05-28T15:44:21.141Z</time>
      </trkpt>
      <trkpt lat="45.861719995737076" lon="8.721132958307862">
        <ele>650.85</ele>
        <time>2024-05-28T15:44:26.538Z</time>
      </trkpt>
      <trkpt lat="45.8617499191314" lon="8.721107980236411">
        <ele>651.18</ele>
        <time>2024-05-28T15:44:31.936Z</time>
      </trkpt>
      <trkpt lat="45.86177799850702" lon="8.721089959144592">
        <ele>651.51</ele>
        <time>2024-05-28T15:44:37.335Z</time>
      </trkpt>
      <trkpt lat="45.861784955486655" lon="8.721064981073141">
        <ele>651.84</ele>
        <time>2024-05-28T15:44:42.735Z</time>
      </trkpt>
      <trkpt lat="45.86179995909333" lon="8.721049977466464">
        <ele>652.17</ele>
        <time>2024-05-28T15:44:48.135Z</time>
      </trkpt>
      <trkpt lat="45.861826948821545" lon="8.721036985516548">
        <ele>652.52</ele>
        <time>2024-05-28T15:44:53.536Z</time>
      </trkpt>
      <trkpt lat="45.86185796186328" lon="8.720991974696517">
        <ele>652.88</ele>
        <time>2024-05-28T15:44:58.939Z</time>
      </trkpt>
      <trkpt lat="45.86187799461186" lon="8.720961967483163">
        <ele>653.23</ele>
        <time>2024-05-28T15:45:04.343Z</time>
      </trkpt>
      <trkpt lat="45.86190992966294" lon="8.720936989411712">
        <ele>653.6</ele>
        <time>2024-05-28T15:45:09.748Z</time>
      </trkpt>
      <trkpt lat="45.86192795075476" lon="8.720917962491512">
        <ele>653.96</ele>
        <time>2024-05-28T15:45:15.154Z</time>
      </trkpt>
      <trkpt lat="45.861954940482974" lon="8.7208719458431">
        <ele>654.32</ele>
        <time>2024-05-28T15:45:20.561Z</time>
      </trkpt>
      <trkpt lat="45.86196692660451" lon="8.72084696777165">
        <ele>654.67</ele>
        <time>2024-05-28T15:45:25.969Z</time>
      </trkpt>
      <trkpt lat="45.861979918554425" lon="8.72082693502307">
        <ele>655.03</ele>
        <time>2024-05-28T15:45:31.377Z</time>
      </trkpt>
      <trkpt lat="45.86198997683823" lon="8.720799945294857">
        <ele>655.38</ele>
        <time>2024-05-28T15:45:36.786Z</time>
      </trkpt>
      <trkpt lat="45.862017972394824" lon="8.720786953344941">
        <ele>655.75</ele>
        <time>2024-05-28T15:45:42.196Z</time>
      </trkpt>
      <trkpt lat="45.862042950466275" lon="8.720766920596361">
        <ele>656.11</ele>
        <time>2024-05-28T15:45:47.607Z</time>
      </trkpt>
      <trkpt lat="45.86207698099315" lon="8.720746971666813">
        <ele>656.49</ele>
        <time>2024-05-28T15:45:53.019Z</time>
      </trkpt>
      <trkpt lat="45.862104976549745" lon="8.72071797028184">
        <ele>656.85</ele>
        <time>2024-05-28T15:45:58.432Z</time>
      </trkpt>
      <trkpt lat="45.86211495101452" lon="8.720682933926582">
        <ele>657.2</ele>
        <time>2024-05-28T15:46:03.846Z</time>
      </trkpt>
      <trkpt lat="45.86213699541986" lon="8.720652926713228">
        <ele>657.55</ele>
        <time>2024-05-28T15:46:09.261Z</time>
      </trkpt>
      <trkpt lat="45.86217496544123" lon="8.720641946420074">
        <ele>657.93</ele>
        <time>2024-05-28T15:46:14.678Z</time>
      </trkpt>
      <trkpt lat="45.86219499818981" lon="8.720607999712229">
        <ele>658.27</ele>
        <time>2024-05-28T15:46:20.096Z</time>
      </trkpt>
      <trkpt lat="45.862212935462594" lon="8.720581931993365">
        <ele>658.6</ele>
        <time>2024-05-28T15:46:25.514Z</time>
      </trkpt>
      <trkpt lat="45.862216958776116" lon="8.720519989728928">
        <ele>658.9</ele>
        <time>2024-05-28T15:46:30.934Z</time>
      </trkpt>
      <trkpt lat="45.86221997626126" lon="8.720492916181684">
        <ele>659.2</ele>
        <time>2024-05-28T15:46:36.355Z</time>
      </trkpt>
      <trkpt lat="45.862232968211174" lon="8.720457963645458">
        <ele>659.5</ele>
        <time>2024-05-28T15:46:41.776Z</time>
      </trkpt>
      <trkpt lat="45.86225492879748" lon="8.720414964482188">
        <ele>659.79</ele>
        <time>2024-05-28T15:46:47.199Z</time>
      </trkpt>
      <trkpt lat="45.86227496154606" lon="8.720402978360653">
        <ele>660.09</ele>
        <time>2024-05-28T15:46:52.622Z</time>
      </trkpt>
      <trkpt lat="45.862279990687966" lon="8.720362996682525">
        <ele>660.35</ele>
        <time>2024-05-28T15:46:58.046Z</time>
      </trkpt>
      <trkpt lat="45.862279990687966" lon="8.720336928963661">
        <ele>660.61</ele>
        <time>2024-05-28T15:47:03.471Z</time>
      </trkpt>
      <trkpt lat="45.86229298263788" lon="8.720306921750307">
        <ele>660.87</ele>
        <time>2024-05-28T15:47:08.897Z</time>
      </trkpt>
      <trkpt lat="45.86230698041618" lon="8.720279932022095">
        <ele>661.12</ele>
        <time>2024-05-28T15:47:14.324Z</time>
      </trkpt>
      <trkpt lat="45.862324917688966" lon="8.720271969214082">
        <ele>661.38</ele>
        <time>2024-05-28T15:47:19.751Z</time>
      </trkpt>
      <trkpt lat="45.862344950437546" lon="8.720264928415418">
        <ele>661.63</ele>
        <time>2024-05-28T15:47:25.179Z</time>
      </trkpt>
      <trkpt lat="45.86235995404422" lon="8.72024992480874">
        <ele>661.87</ele>
        <time>2024-05-28T15:47:30.607Z</time>
      </trkpt>
      <trkpt lat="45.86238292045891" lon="8.72022695839405">
        <ele>662.11</ele>
        <time>2024-05-28T15:47:36.036Z</time>
      </trkpt>
      <trkpt lat="45.86239993572235" lon="8.720197957009077">
        <ele>662.33</ele>
        <time>2024-05-28T15:47:41.466Z</time>
      </trkpt>
      <trkpt lat="45.86240194737911" lon="8.720171973109245">
        <ele>662.52</ele>
        <time>2024-05-28T15:47:46.897Z</time>
      </trkpt>
      <trkpt lat="45.86239993572235" lon="8.720136936753988">
        <ele>662.71</ele>
        <time>2024-05-28T15:47:52.329Z</time>
      </trkpt>
      <trkpt lat="45.86240194737911" lon="8.72009796090424">
        <ele>662.89</ele>
        <time>2024-05-28T15:47:57.762Z</time>
      </trkpt>
      <trkpt lat="45.862404964864254" lon="8.720066947862506">
        <ele>663.06</ele>
        <time>2024-05-28T15:48:03.195Z</time>
      </trkpt>
      <trkpt lat="45.862424997612834" lon="8.720057979226112">
        <ele>663.27</ele>
        <time>2024-05-28T15:48:08.629Z</time>
      </trkpt>
      <trkpt lat="45.862449975684285" lon="8.720022942870855">
        <ele>663.46</ele>
        <time>2024-05-28T15:48:14.064Z</time>
      </trkpt>
      <trkpt lat="45.8624769654125" lon="8.71998799033463">
        <ele>663.65</ele>
        <time>2024-05-28T15:48:19.500Z</time>
      </trkpt>
      <trkpt lat="45.862494986504316" lon="8.71994792483747">
        <ele>663.83</ele>
        <time>2024-05-28T15:48:24.938Z</time>
      </trkpt>
      <trkpt lat="45.862514935433865" lon="8.719912972301245">
        <ele>664.0</ele>
        <time>2024-05-28T15:48:30.377Z</time>
      </trkpt>
      <trkpt lat="45.86253295652568" lon="8.719867961481214">
        <ele>664.16</ele>
        <time>2024-05-28T15:48:35.817Z</time>
      </trkpt>
      <trkpt lat="45.86255298927426" lon="8.719824962317944">
        <ele>664.33</ele>
        <time>2024-05-28T15:48:41.258Z</time>
      </trkpt>
      <trkpt lat="45.862577967345715" lon="8.719787998124957">
        <ele>664.5</ele>
        <time>2024-05-28T15:48:46.700Z</time>
      </trkpt>
      <trkpt lat="45.86259791627526" lon="8.719749944284558">
        <ele>664.67</ele>
        <time>2024-05-28T15:48:52.143Z</time>
      </trkpt>
      <trkpt lat="45.86260998621583" lon="8.719727983698249">
        <ele>664.85</ele>
        <time>2024-05-28T15:48:57.587Z</time>
      </trkpt>
      <trkpt lat="45.862619960680604" lon="8.719682972878218">
        <ele>665.02</ele>
        <time>2024-05-28T15:49:03.032Z</time>
      </trkpt>
      <trkpt lat="45.86263295263052" lon="8.719659922644496">
        <ele>665.21</ele>
        <time>2024-05-28T15:49:08.478Z</time>
      </trkpt>
      <trkpt lat="45.8626479562372" lon="8.719641985371709">
        <ele>665.4</ele>
        <time>2024-05-28T15:49:13.924Z</time>
      </trkpt>
      <trkpt lat="45.86267796345055" lon="8.719619940966368">
        <ele>665.61</ele>
        <time>2024-05-28T15:49:19.372Z</time>
      </trkpt>
      <trkpt lat="45.86269296705723" lon="8.71960493735969">
        <ele>665.82</ele>
        <time>2024-05-28T15:49:24.820Z</time>
      </trkpt>
      <trkpt lat="45.8627169393003" lon="8.719569984823465">
        <ele>666.02</ele>
        <time>2024-05-28T15:49:30.269Z</time>
      </trkpt>
      <trkpt lat="45.862751975655556" lon="8.719544922932982">
        <ele>666.25</ele>
        <time>2024-05-28T15:49:35.720Z</time>
      </trkpt>
      <trkpt lat="45.86278994567692" lon="8.71951692737639">
        <ele>666.48</ele>
        <time>2024-05-28T15:49:41.172Z</time>
      </trkpt>
      <trkpt lat="45.86280796676874" lon="8.719496978446841">
        <ele>666.7</ele>
        <time>2024-05-28T15:49:46.625Z</time>
      </trkpt>
      <trkpt lat="45.862837973982096" lon="8.719457918778062">
        <ele>666.94</ele>
        <time>2024-05-28T15:49:52.079Z</time>
      </trkpt>
      <trkpt lat="45.86284291930497" lon="8.71943294070661">
        <ele>667.15</ele>
        <time>2024-05-28T15:49:57.534Z</time>
      </trkpt>
      <trkpt lat="45.862859934568405" lon="8.719419948756695">
        <ele>667.39</ele>
        <time>2024-05-28T15:50:02.989Z</time>
      </trkpt>
      <trkpt lat="45.86287694983184" lon="8.719386924058199">
        <ele>667.63</ele>
        <time>2024-05-28T15:50:08.445Z</time>
      </trkpt>
      <trkpt lat="45.86289497092366" lon="8.719359934329987">
        <ele>667.87</ele>
        <time>2024-05-28T15:50:13.902Z</time>
      </trkpt>
      <trkpt lat="45.86291793733835" lon="8.71934694238007">
        <ele>668.13</ele>
        <time>2024-05-28T15:50:19.360Z</time>
      </trkpt>
      <trkpt lat="45.86293696425855" lon="8.719332944601774">
        <ele>668.4</ele>
        <time>2024-05-28T15:50:24.819Z</time>
      </trkpt>
      <trkpt lat="45.86295699700713" lon="8.719327999278903">
        <ele>668.67</ele>
        <time>2024-05-28T15:50:30.278Z</time>
      </trkpt>
      <trkpt lat="45.86297493427992" lon="8.719311989843845">
        <ele>668.95</ele>
        <time>2024-05-28T15:50:35.738Z</time>
      </trkpt>
      <trkpt lat="45.8629949670285" lon="8.719299919903278">
        <ele>669.23</ele>
        <time>2024-05-28T15:50:41.199Z</time>
      </trkpt>
      <trkpt lat="45.86301298812032" lon="8.719286927953362">
        <ele>669.52</ele>
        <time>2024-05-28T15:50:46.661Z</time>
      </trkpt>
      <trkpt lat="45.863029919564724" lon="8.719267984852195">
        <ele>669.81</ele>
        <time>2024-05-28T15:50:52.123Z</time>
      </trkpt>
      <trkpt lat="45.86304794065654" lon="8.719254992902279">
        <ele>670.12</ele>
        <time>2024-05-28T15:50:57.586Z</time>
      </trkpt>
      <trkpt lat="45.8630779478699" lon="8.719226997345686">
        <ele>670.43</ele>
        <time>2024-05-28T15:51:03.050Z</time>
      </trkpt>
      <trkpt lat="45.86310996674001" lon="8.71921299956739">
        <ele>670.76</ele>
        <time>2024-05-28T15:51:08.515Z</time>
      </trkpt>
      <trkpt lat="45.86314198561013" lon="8.719202941283584">
        <ele>671.11</ele>
        <time>2024-05-28T15:51:13.981Z</time>
      </trkpt>
      <trkpt lat="45.86317299865186" lon="8.719182992354035">
        <ele>671.45</ele>
        <time>2024-05-28T15:51:19.448Z</time>
      </trkpt>
      <trkpt lat="45.86320795118809" lon="8.719159942120314">
        <ele>671.79</ele>
        <time>2024-05-28T15:51:24.917Z</time>
      </trkpt>
      <trkpt lat="45.8632349409163" lon="8.719132952392101">
        <ele>672.14</ele>
        <time>2024-05-28T15:51:30.387Z</time>
      </trkpt>
      <trkpt lat="45.86324994452298" lon="8.719109985977411">
        <ele>672.49</ele>
        <time>2024-05-28T15:51:35.858Z</time>
      </trkpt>
      <trkpt lat="45.86326997727156" lon="8.719092970713973">
        <ele>672.86</ele>
        <time>2024-05-28T15:51:41.329Z</time>
      </trkpt>
      <trkpt lat="45.863291937857866" lon="8.719059946015477">
        <ele>673.22</ele>
        <time>2024-05-28T15:51:46.801Z</time>
      </trkpt>
      <trkpt lat="45.863311970606446" lon="8.719042930752039">
        <ele>673.6</ele>
        <time>2024-05-28T15:51:52.274Z</time>
      </trkpt>
      <trkpt lat="45.863332925364375" lon="8.719019964337349">
        <ele>673.98</ele>
        <time>2024-05-28T15:51:57.748Z</time>
      </trkpt>
      <trkpt lat="45.863371985033154" lon="8.718996997922659">
        <ele>674.38</ele>
        <time>2024-05-28T15:52:03.223Z</time>
      </trkpt>
      <trkpt lat="45.863397968932986" lon="8.718984927982092">
        <ele>674.79</ele>
        <time>2024-05-28T15:52:08.699Z</time>
      </trkpt>
      <trkpt lat="45.863416995853186" lon="8.718969924375415">
        <ele>675.2</ele>
        <time>2024-05-28T15:52:14.176Z</time>
      </trkpt>
      <trkpt lat="45.863436944782734" lon="8.718964979052544">
        <ele>675.63</ele>
        <time>2024-05-28T15:52:19.654Z</time>
      </trkpt>
      <trkpt lat="45.86346795782447" lon="8.718951987102628">
        <ele>676.08</ele>
        <time>2024-05-28T15:52:25.133Z</time>
      </trkpt>
      <trkpt lat="45.86349695920944" lon="8.718951987102628">
        <ele>676.54</ele>
        <time>2024-05-28T15:52:30.613Z</time>
      </trkpt>
      <trkpt lat="45.86351992562413" lon="8.718956932425499">
        <ele>677.01</ele>
        <time>2024-05-28T15:52:36.094Z</time>
      </trkpt>
      <trkpt lat="45.863544987514615" lon="8.718942934647202">
        <ele>677.47</ele>
        <time>2024-05-28T15:52:41.575Z</time>
      </trkpt>
      <trkpt lat="45.86357298307121" lon="8.718954920768738">
        <ele>677.95</ele>
        <time>2024-05-28T15:52:47.057Z</time>
      </trkpt>
      <trkpt lat="45.86359695531428" lon="8.718969924375415">
        <ele>678.44</ele>
        <time>2024-05-28T15:52:52.540Z</time>
      </trkpt>
      <trkpt lat="45.86361799389124" lon="8.71898291632533">
        <ele>678.92</ele>
        <time>2024-05-28T15:52:58.024Z</time>
      </trkpt>
      <trkpt lat="45.86364699527621" lon="8.718999931588769">
        <ele>679.42</ele>
        <time>2024-05-28T15:53:03.509Z</time>
      </trkpt>
      <trkpt lat="45.8636699616909" lon="8.719029938802123">
        <ele>679.92</ele>
        <time>2024-05-28T15:53:08.995Z</time>
      </trkpt>
      <trkpt lat="45.863694939762354" lon="8.719032956287265">
        <ele>680.4</ele>
        <time>2024-05-28T15:53:14.482Z</time>
      </trkpt>
      <trkpt lat="45.86372997611761" lon="8.719032956287265">
        <ele>680.88</ele>
        <time>2024-05-28T15:53:19.970Z</time>
      </trkpt>
      <trkpt lat="45.86374699138105" lon="8.719009989872575">
        <ele>681.32</ele>
        <time>2024-05-28T15:53:25.459Z</time>
      </trkpt>
      <trkpt lat="45.863761994987726" lon="8.718994986265898">
        <ele>681.76</ele>
        <time>2024-05-28T15:53:30.949Z</time>
      </trkpt>
      <trkpt lat="45.86379191838205" lon="8.71897998265922">
        <ele>682.22</ele>
        <time>2024-05-28T15:53:36.440Z</time>
      </trkpt>
      <trkpt lat="45.86381295695901" lon="8.71895994991064">
        <ele>682.66</ele>
        <time>2024-05-28T15:53:41.931Z</time>
      </trkpt>
      <trkpt lat="45.86382997222245" lon="8.718942934647202">
        <ele>683.09</ele>
        <time>2024-05-28T15:53:47.423Z</time>
      </trkpt>
      <trkpt lat="45.86386199109256" lon="8.71893991716206">
        <ele>683.53</ele>
        <time>2024-05-28T15:53:52.916Z</time>
      </trkpt>
      <trkpt lat="45.863889986649156" lon="8.718921979889274">
        <ele>683.96</ele>
        <time>2024-05-28T15:53:58.410Z</time>
      </trkpt>
      <trkpt lat="45.86391697637737" lon="8.718919968232512">
        <ele>684.39</ele>
        <time>2024-05-28T15:54:03.905Z</time>
      </trkpt>
      <trkpt lat="45.86393499746919" lon="8.718919968232512">
        <ele>684.8</ele>
        <time>2024-05-28T15:54:09.401Z</time>
      </trkpt>
      <trkpt lat="45.86396299302578" lon="8.71893497183919">
        <ele>685.23</ele>
        <time>2024-05-28T15:54:14.898Z</time>
      </trkpt>
      <trkpt lat="45.8639479894191" lon="8.718921979889274">
        <ele>685.59</ele>
        <time>2024-05-28T15:54:20.395Z</time>
      </trkpt>
      <trkpt lat="45.86396299302578" lon="8.718894990161061">
        <ele>685.97</ele>
        <time>2024-05-28T15:54:25.893Z</time>
      </trkpt>
      <trkpt lat="45.86398696526885" lon="8.718879986554384">
        <ele>686.35</ele>
        <time>2024-05-28T15:54:31.392Z</time>
      </trkpt>
      <trkpt lat="45.86400498636067" lon="8.71887193992734">
        <ele>686.72</ele>
        <time>2024-05-28T15:54:36.892Z</time>
      </trkpt>
      <trkpt lat="45.86403197608888" lon="8.718861965462565">
        <ele>687.08</ele>
        <time>2024-05-28T15:54:42.393Z</time>
      </trkpt>
      <trkpt lat="45.864062989130616" lon="8.718846961855888">
        <ele>687.43</ele>
        <time>2024-05-28T15:54:47.895Z</time>
      </trkpt>
      <trkpt lat="45.86408796720207" lon="8.71882994659245">
        <ele>687.76</ele>
        <time>2024-05-28T15:54:53.398Z</time>
      </trkpt>
      <trkpt lat="45.86411495693028" lon="8.718814942985773">
        <ele>688.09</ele>
        <time>2024-05-28T15:54:58.902Z</time>
      </trkpt>
      <trkpt lat="45.86412996053696" lon="8.718799939379096">
        <ele>688.4</ele>
        <time>2024-05-28T15:55:04.406Z</time>
      </trkpt>
      <trkpt lat="45.86415292695165" lon="8.718777978792787">
        <ele>688.7</ele>
        <time>2024-05-28T15:55:09.911Z</time>
      </trkpt>
      <trkpt lat="45.864171953871846" lon="8.718766998499632">
        <ele>688.99</ele>
        <time>2024-05-28T15:55:15.417Z</time>
      </trkpt>
      <trkpt lat="45.864194920286536" lon="8.718751994892955">
        <ele>689.28</ele>
        <time>2024-05-28T15:55:20.924Z</time>
      </trkpt>
      <trkpt lat="45.86420992389321" lon="8.718732967972755">
        <ele>689.54</ele>
        <time>2024-05-28T15:55:26.431Z</time>
      </trkpt>
      <trkpt lat="45.86422995664179" lon="8.71872492134571">
        <ele>689.81</ele>
        <time>2024-05-28T15:55:31.939Z</time>
      </trkpt>
      <trkpt lat="45.86424797773361" lon="8.718716958537698">
        <ele>690.05</ele>
        <time>2024-05-28T15:55:37.448Z</time>
      </trkpt>
      <trkpt lat="45.86427194997668" lon="8.71869994327426">
        <ele>690.29</ele>
        <time>2024-05-28T15:55:42.958Z</time>
      </trkpt>
      <trkpt lat="45.86430296301842" lon="8.718696925789118">
        <ele>690.52</ele>
        <time>2024-05-28T15:55:48.469Z</time>
      </trkpt>
      <trkpt lat="45.86432492360473" lon="8.718679994344711">
        <ele>690.72</ele>
        <time>2024-05-28T15:55:53.980Z</time>
      </trkpt>
      <trkpt lat="45.86434797383845" lon="8.718666918575764">
        <ele>690.92</ele>
        <time>2024-05-28T15:55:59.492Z</time>
      </trkpt>
      <trkpt lat="45.86436993442476" lon="8.71863791719079">
        <ele>691.1</ele>
        <time>2024-05-28T15:56:05.005Z</time>
      </trkpt>
      <trkpt lat="45.86440195329487" lon="8.718619979918003">
        <ele>691.28</ele>
        <time>2024-05-28T15:56:10.519Z</time>
      </trkpt>
      <trkpt lat="45.86442198604345" lon="8.718617968261242">
        <ele>691.45</ele>
        <time>2024-05-28T15:56:16.034Z</time>
      </trkpt>
      <trkpt lat="45.864449981600046" lon="8.718612939119339">
        <ele>691.61</ele>
        <time>2024-05-28T15:56:21.550Z</time>
      </trkpt>
      <trkpt lat="45.864469930529594" lon="8.718599947169423">
        <ele>691.75</ele>
        <time>2024-05-28T15:56:27.067Z</time>
      </trkpt>
      <trkpt lat="45.86450798436999" lon="8.718582931905985">
        <ele>691.89</ele>
        <time>2024-05-28T15:56:32.585Z</time>
      </trkpt>
      <trkpt lat="45.86453991942108" lon="8.71857195161283">
        <ele>692.03</ele>
        <time>2024-05-28T15:56:38.104Z</time>
      </trkpt>
      <trkpt lat="45.8645679987967" lon="8.718559965491295">
        <ele>692.15</ele>
        <time>2024-05-28T15:56:43.624Z</time>
      </trkpt>
      <trkpt lat="45.86459197103977" lon="8.718542950227857">
        <ele>692.25</ele>
        <time>2024-05-28T15:56:49.145Z</time>
      </trkpt>
      <trkpt lat="45.8646369818598" lon="8.718531969934702">
        <ele>692.36</ele>
        <time>2024-05-28T15:56:54.668Z</time>
      </trkpt>
      <trkpt lat="45.86465491913259" lon="8.71852794662118">
        <ele>692.44</ele>
        <time>2024-05-28T15:57:00.191Z</time>
      </trkpt>
      <trkpt lat="45.864682998508215" lon="8.71852794662118">
        <ele>692.52</ele>
        <time>2024-05-28T15:57:05.715Z</time>
      </trkpt>
      <trkpt lat="45.86472197435796" lon="8.718514954671264">
        <ele>692.59</ele>
        <time>2024-05-28T15:57:11.240Z</time>
      </trkpt>
      <trkpt lat="45.864747958257794" lon="8.718507997691631">
        <ele>692.65</ele>
        <time>2024-05-28T15:57:16.766Z</time>
      </trkpt>
      <trkpt lat="45.864766985177994" lon="8.718501962721348">
        <ele>692.71</ele>
        <time>2024-05-28T15:57:22.293Z</time>
      </trkpt>
      <trkpt lat="45.864789951592684" lon="8.718499951064587">
        <ele>692.75</ele>
        <time>2024-05-28T15:57:27.821Z</time>
      </trkpt>
      <trkpt lat="45.8648219704628" lon="8.718494921922684">
        <ele>692.79</ele>
        <time>2024-05-28T15:57:33.350Z</time>
      </trkpt>
      <trkpt lat="45.86483797989786" lon="8.718474972993135">
        <ele>692.81</ele>
        <time>2024-05-28T15:57:38.879Z</time>
      </trkpt>
      <trkpt lat="45.864856922999024" lon="8.718477990478277">
        <ele>692.84</ele>
        <time>2024-05-28T15:57:44.409Z</time>
      </trkpt>
      <trkpt lat="45.864879973232746" lon="8.718472961336374">
        <ele>692.85</ele>
        <time>2024-05-28T15:57:49.940Z</time>
      </trkpt>
      <trkpt lat="45.86490796878934" lon="8.718477990478277">
        <ele>692.86</ele>
        <time>2024-05-28T15:57:55.472Z</time>
      </trkpt>
      <trkpt lat="45.86493294686079" lon="8.718469943851233">
        <ele>692.87</ele>
        <time>2024-05-28T15:58:01.005Z</time>
      </trkpt>
      <trkpt lat="45.864959936589" lon="8.718459969386458">
        <ele>692.87</ele>
        <time>2024-05-28T15:58:06.539Z</time>
      </trkpt>
      <trkpt lat="45.864981980994344" lon="8.71846198104322">
        <ele>692.87</ele>
        <time>2024-05-28T15:58:12.073Z</time>
      </trkpt>
      <trkpt lat="45.86501693353057" lon="8.718434991315007">
        <ele>692.86</ele>
        <time>2024-05-28T15:58:17.609Z</time>
      </trkpt>
      <trkpt lat="45.86504199542105" lon="8.718434991315007">
        <ele>692.86</ele>
        <time>2024-05-28T15:58:23.145Z</time>
      </trkpt>
      <trkpt lat="45.865067979320884" lon="8.71841998770833">
        <ele>692.85</ele>
        <time>2024-05-28T15:58:28.682Z</time>
      </trkpt>
      <trkpt lat="45.86510293185711" lon="8.718384951353073">
        <ele>692.84</ele>
        <time>2024-05-28T15:58:34.221Z</time>
      </trkpt>
      <trkpt lat="45.86511994712055" lon="8.718364918604493">
        <ele>692.82</ele>
        <time>2024-05-28T15:58:39.761Z</time>
      </trkpt>
      <trkpt lat="45.865137968212366" lon="8.7183369230479">
        <ele>692.81</ele>
        <time>2024-05-28T15:58:45.301Z</time>
      </trkpt>
      <trkpt lat="45.86515196599066" lon="8.718316974118352">
        <ele>692.8</ele>
        <time>2024-05-28T15:58:50.842Z</time>
      </trkpt>
      <trkpt lat="45.86517292074859" lon="8.718284955248237">
        <ele>692.78</ele>
        <time>2024-05-28T15:58:56.384Z</time>
      </trkpt>
      <trkpt lat="45.865201922133565" lon="8.718254948034883">
        <ele>692.77</ele>
        <time>2024-05-28T15:59:01.927Z</time>
      </trkpt>
      <trkpt lat="45.86521793156862" lon="8.718237932771444">
        <ele>692.76</ele>
        <time>2024-05-28T15:59:07.471Z</time>
      </trkpt>
      <trkpt lat="45.8652379643172" lon="8.718197951093316">
        <ele>692.75</ele>
        <time>2024-05-28T15:59:13.016Z</time>
      </trkpt>
      <trkpt lat="45.86525296792388" lon="8.718171967193484">
        <ele>692.74</ele>
        <time>2024-05-28T15:59:18.562Z</time>
      </trkpt>
      <trkpt lat="45.86527291685343" lon="8.718129973858595">
        <ele>692.74</ele>
        <time>2024-05-28T15:59:24.109Z</time>
      </trkpt>
      <trkpt lat="45.86529797874391" lon="8.718091920018196">
        <ele>692.74</ele>
        <time>2024-05-28T15:59:29.657Z</time>
      </trkpt>
      <trkpt lat="45.86531792767346" lon="8.718057973310351">
        <ele>692.74</ele>
        <time>2024-05-28T15:59:35.206Z</time>
      </trkpt>
      <trkpt lat="45.86532295681536" lon="8.718026960268617">
        <ele>692.74</ele>
        <time>2024-05-28T15:59:40.756Z</time>
      </trkpt>
      <trkpt lat="45.8653399720788" lon="8.718002988025546">
        <ele>692.74</ele>
        <time>2024-05-28T15:59:46.307Z</time>
      </trkpt>
      <trkpt lat="45.86536495015025" lon="8.717999970540404">
        <ele>692.74</ele>
        <time>2024-05-28T15:59:51.859Z</time>
      </trkpt>
      <trkpt lat="45.865374924615026" lon="8.717979937791824">
        <ele>692.75</ele>
        <time>2024-05-28T15:59:57.411Z</time>
      </trkpt>
      <trkpt lat="45.86538498289883" lon="8.717939956113696">
        <ele>692.76</ele>
        <time>2024-05-28T16:00:02.964Z</time>
      </trkpt>
      <trkpt lat="45.86538196541369" lon="8.717912966385484">
        <ele>692.77</ele>
        <time>2024-05-28T16:00:08.518Z</time>
      </trkpt>
      <trkpt lat="45.86539797484875" lon="8.717876924201846">
        <ele>692.8</ele>
        <time>2024-05-28T16:00:14.073Z</time>
      </trkpt>
      <trkpt lat="45.86540292017162" lon="8.717847922816873">
        <ele>692.82</ele>
        <time>2024-05-28T16:00:19.629Z</time>
      </trkpt>
      <trkpt lat="45.86538498289883" lon="8.717809952795506">
        <ele>692.84</ele>
        <time>2024-05-28T16:00:25.186Z</time>
      </trkpt>
      <trkpt lat="45.865391939878464" lon="8.717781957238913">
        <ele>692.88</ele>
        <time>2024-05-28T16:00:30.743Z</time>
      </trkpt>
      <trkpt lat="45.86539797484875" lon="8.717747926712036">
        <ele>692.92</ele>
        <time>2024-05-28T16:00:36.301Z</time>
      </trkpt>
      <trkpt lat="45.86539998650551" lon="8.717709956690669">
        <ele>692.96</ele>
        <time>2024-05-28T16:00:41.860Z</time>
      </trkpt>
      <trkpt lat="45.865416917949915" lon="8.717682966962457">
        <ele>693.01</ele>
        <time>2024-05-28T16:00:47.420Z</time>
      </trkpt>
      <trkpt lat="45.86541993543506" lon="8.71764499694109">
        <ele>693.07</ele>
        <time>2024-05-28T16:00:52.981Z</time>
      </trkpt>
      <trkpt lat="45.86541993543506" lon="8.71760493144393">
        <ele>693.13</ele>
        <time>2024-05-28T16:00:58.543Z</time>
      </trkpt>
      <trkpt lat="45.86542999371886" lon="8.717566961422563">
        <ele>693.19</ele>
        <time>2024-05-28T16:01:04.106Z</time>
      </trkpt>
      <trkpt lat="45.86543996818364" lon="8.717529997229576">
        <ele>693.26</ele>
        <time>2024-05-28T16:01:09.670Z</time>
      </trkpt>
      <trkpt lat="45.86543996818364" lon="8.717494960874319">
        <ele>693.34</ele>
        <time>2024-05-28T16:01:15.234Z</time>
      </trkpt>
      <trkpt lat="45.865454971790314" lon="8.717459924519062">
        <ele>693.43</ele>
        <time>2024-05-28T16:01:20.799Z</time>
      </trkpt>
      <trkpt lat="45.865454971790314" lon="8.717431928962469">
        <ele>693.52</ele>
        <time>2024-05-28T16:01:26.365Z</time>
      </trkpt>
      <trkpt lat="45.86545195430517" lon="8.717404939234257">
        <ele>693.61</ele>
        <time>2024-05-28T16:01:31.932Z</time>
      </trkpt>
      <trkpt lat="45.86544499732554" lon="8.717379961162806">
        <ele>693.71</ele>
        <time>2024-05-28T16:01:37.499Z</time>
      </trkpt>
      <trkpt lat="45.86544499732554" lon="8.717339979484677">
        <ele>693.82</ele>
        <time>2024-05-28T16:01:43.067Z</time>
      </trkpt>
      <trkpt lat="45.86545195430517" lon="8.717302931472659">
        <ele>693.94</ele>
        <time>2024-05-28T16:01:48.636Z</time>
      </trkpt>
      <trkpt lat="45.865457989275455" lon="8.71725993230939">
        <ele>694.06</ele>
        <time>2024-05-28T16:01:54.206Z</time>
      </trkpt>
      <trkpt lat="45.86545195430517" lon="8.7172179389745">
        <ele>694.19</ele>
        <time>2024-05-28T16:01:59.777Z</time>
      </trkpt>
      <trkpt lat="45.865457989275455" lon="8.717181980609894">
        <ele>694.32</ele>
        <time>2024-05-28T16:02:05.349Z</time>
      </trkpt>
      <trkpt lat="45.865461928769946" lon="8.717146944254637">
        <ele>694.46</ele>
        <time>2024-05-28T16:02:10.922Z</time>
      </trkpt>
      <trkpt lat="45.86546494625509" lon="8.717112997546792">
        <ele>694.6</ele>
        <time>2024-05-28T16:02:16.496Z</time>
      </trkpt>
      <trkpt lat="45.86547198705375" lon="8.717077961191535">
        <ele>694.75</ele>
        <time>2024-05-28T16:02:22.071Z</time>
      </trkpt>
      <trkpt lat="45.86547492071986" lon="8.717034962028265">
        <ele>694.91</ele>
        <time>2024-05-28T16:02:27.647Z</time>
      </trkpt>
      <trkpt lat="45.865477938205004" lon="8.716992968693376">
        <ele>695.07</ele>
        <time>2024-05-28T16:02:33.224Z</time>
      </trkpt>
      <trkpt lat="45.865499982610345" lon="8.716962961480021">
        <ele>695.24</ele>
        <time>2024-05-28T16:02:38.802Z</time>
      </trkpt>
      <trkpt lat="45.86551699787378" lon="8.716922979801893">
        <ele>695.42</ele>
        <time>2024-05-28T16:02:44.381Z</time>
      </trkpt>
      <trkpt lat="45.86553493514657" lon="8.716882998123765">
        <ele>695.6</ele>
        <time>2024-05-28T16:02:49.961Z</time>
      </trkpt>
      <trkpt lat="45.86555195041001" lon="8.71685491874814">
        <ele>695.78</ele>
        <time>2024-05-28T16:02:55.542Z</time>
      </trkpt>
      <trkpt lat="45.86556293070316" lon="8.716824995353818">
        <ele>695.96</ele>
        <time>2024-05-28T16:03:01.123Z</time>
      </trkpt>
      <trkpt lat="45.86558296345174" lon="8.716796999797225">
        <ele>696.14</ele>
        <time>2024-05-28T16:03:06.705Z</time>
      </trkpt>
      <trkpt lat="45.86559997871518" lon="8.71676498092711">
        <ele>696.33</ele>
        <time>2024-05-28T16:03:12.288Z</time>
      </trkpt>
      <trkpt lat="45.86561196483672" lon="8.716724999248981">
        <ele>696.52</ele>
        <time>2024-05-28T16:03:17.872Z</time>
      </trkpt>
      <trkpt lat="45.865627974271774" lon="8.71668191626668">
        <ele>696.7</ele>
        <time>2024-05-28T16:03:23.457Z</time>
      </trkpt>
      <trkpt lat="45.86563794873655" lon="8.71665794402361">
        <ele>696.89</ele>
        <time>2024-05-28T16:03:29.043Z</time>
      </trkpt>
      <trkpt lat="45.865649934858084" lon="8.716637995094061">
        <ele>697.07</ele>
        <time>2024-05-28T16:03:34.630Z</time>
      </trkpt>
      <trkpt lat="45.865672985091805" lon="8.716619974002242">
        <ele>697.26</ele>
        <time>2024-05-28T16:03:40.218Z</time>
      </trkpt>
      <trkpt lat="45.86570198647678" lon="8.716582925990224">
        <ele>697.45</ele>
        <time>2024-05-28T16:03:45.807Z</time>
      </trkpt>
      <trkpt lat="45.86570793762803" lon="8.71655291877687">
        <ele>697.63</ele>
        <time>2024-05-28T16:03:51.397Z</time>
      </trkpt>
      <trkpt lat="45.86571799591184" lon="8.716527940705419">
        <ele>697.81</ele>
        <time>2024-05-28T16:03:56.987Z</time>
      </trkpt>
      <trkpt lat="45.86572998203337" lon="8.71650698594749">
        <ele>697.98</ele>
        <time>2024-05-28T16:04:02.578Z</time>
      </trkpt>
      <trkpt lat="45.865739956498146" lon="8.716482929885387">
        <ele>698.15</ele>
        <time>2024-05-28T16:04:08.170Z</time>
      </trkpt>
      <trkpt lat="45.86576795205474" lon="8.716471949592233">
        <ele>698.32</ele>
        <time>2024-05-28T16:04:13.762Z</time>
      </trkpt>
      <trkpt lat="45.86577792651951" lon="8.716446971520782">
        <ele>698.47</ele>
        <time>2024-05-28T16:04:19.355Z</time>
      </trkpt>
      <trkpt lat="45.86578798480332" lon="8.716422999277711">
        <ele>698.62</ele>
        <time>2024-05-28T16:04:24.949Z</time>
      </trkpt>
      <trkpt lat="45.86580692790449" lon="8.716394919902086">
        <ele>698.77</ele>
        <time>2024-05-28T16:04:30.544Z</time>
      </trkpt>
      <trkpt lat="45.86583995260298" lon="8.716344963759184">
        <ele>698.91</ele>
        <time>2024-05-28T16:04:36.140Z</time>
      </trkpt>
      <trkpt lat="45.86584799923003" lon="8.716319985687733">
        <ele>699.05</ele>
        <time>2024-05-28T16:04:41.737Z</time>
      </trkpt>
      <trkpt lat="45.865861997008324" lon="8.71629492379725">
        <ele>699.18</ele>
        <time>2024-05-28T16:04:47.335Z</time>
      </trkpt>
      <trkpt lat="45.865886975079775" lon="8.716282937675714">
        <ele>699.32</ele>
        <time>2024-05-28T16:04:52.934Z</time>
      </trkpt>
      <trkpt lat="45.865909941494465" lon="8.716264916583896">
        <ele>699.44</ele>
        <time>2024-05-28T16:04:58.533Z</time>
      </trkpt>
      <trkpt lat="45.86589996702969" lon="8.71620993129909">
        <ele>699.55</ele>
        <time>2024-05-28T16:05:04.134Z</time>
      </trkpt>
      <trkpt lat="45.86591295897961" lon="8.716176990419626">
        <ele>699.66</ele>
        <time>2024-05-28T16:05:09.736Z</time>
      </trkpt>
      <trkpt lat="45.86591698229313" lon="8.71614295989275">
        <ele>699.75</ele>
        <time>2024-05-28T16:05:15.338Z</time>
      </trkpt>
      <trkpt lat="45.86592494510114" lon="8.716102978214622">
        <ele>699.85</ele>
        <time>2024-05-28T16:05:20.941Z</time>
      </trkpt>
      <trkpt lat="45.865934919565916" lon="8.716064924374223">
        <ele>699.93</ele>
        <time>2024-05-28T16:05:26.545Z</time>
      </trkpt>
      <trkpt lat="45.865947995334864" lon="8.716031983494759">
        <ele>700.01</ele>
        <time>2024-05-28T16:05:32.150Z</time>
      </trkpt>
      <trkpt lat="45.865954952314496" lon="8.715997952967882">
        <ele>700.08</ele>
        <time>2024-05-28T16:05:37.756Z</time>
      </trkpt>
      <trkpt lat="45.86597699671984" lon="8.715977920219302">
        <ele>700.15</ele>
        <time>2024-05-28T16:05:43.363Z</time>
      </trkpt>
      <trkpt lat="45.86599292233586" lon="8.71594992466271">
        <ele>700.21</ele>
        <time>2024-05-28T16:05:48.971Z</time>
      </trkpt>
      <trkpt lat="45.86600499227643" lon="8.715916983783245">
        <ele>700.26</ele>
        <time>2024-05-28T16:05:54.580Z</time>
      </trkpt>
      <trkpt lat="45.86601194925606" lon="8.715876918286085">
        <ele>700.3</ele>
        <time>2024-05-28T16:06:00.190Z</time>
      </trkpt>
      <trkpt lat="45.86602494120598" lon="8.71584196574986">
        <ele>700.34</ele>
        <time>2024-05-28T16:06:05.801Z</time>
      </trkpt>
      <trkpt lat="45.86602795869112" lon="8.715806929394603">
        <ele>700.36</ele>
        <time>2024-05-28T16:06:11.412Z</time>
      </trkpt>
      <trkpt lat="45.866039944812655" lon="8.71577993966639">
        <ele>700.38</ele>
        <time>2024-05-28T16:06:17.024Z</time>
      </trkpt>
      <trkpt lat="45.866056960076094" lon="8.715746998786926">
        <ele>700.39</ele>
        <time>2024-05-28T16:06:22.637Z</time>
      </trkpt>
      <trkpt lat="45.866056960076094" lon="8.715707939118147">
        <ele>700.39</ele>
        <time>2024-05-28T16:06:28.251Z</time>
      </trkpt>
      <trkpt lat="45.86606995202601" lon="8.715664939954877">
        <ele>700.39</ele>
        <time>2024-05-28T16:06:33.866Z</time>
      </trkpt>
      <trkpt lat="45.866079926490784" lon="8.715617917478085">
        <ele>700.37</ele>
        <time>2024-05-28T16:06:39.482Z</time>
      </trkpt>
      <trkpt lat="45.86608495563269" lon="8.715587994083762">
        <ele>700.35</ele>
        <time>2024-05-28T16:06:45.099Z</time>
      </trkpt>
      <trkpt lat="45.86609493009746" lon="8.71555999852717">
        <ele>700.33</ele>
        <time>2024-05-28T16:06:50.717Z</time>
      </trkpt>
      <trkpt lat="45.86610498838127" lon="8.715534936636686">
        <ele>700.3</ele>
        <time>2024-05-28T16:06:56.335Z</time>
      </trkpt>
      <trkpt lat="45.86610498838127" lon="8.715487997978926">
        <ele>700.25</ele>
        <time>2024-05-28T16:07:01.954Z</time>
      </trkpt>
      <trkpt lat="45.8660979475826" lon="8.71543494053185">
        <ele>700.2</ele>
        <time>2024-05-28T16:07:07.575Z</time>
      </trkpt>
      <trkpt lat="45.866119991987944" lon="8.715399987995625">
        <ele>700.18</ele>
        <time>2024-05-28T16:07:13.197Z</time>
      </trkpt>
      <trkpt lat="45.8661499992013" lon="8.715366963297129">
        <ele>700.15</ele>
        <time>2024-05-28T16:07:18.820Z</time>
      </trkpt>
      <trkpt lat="45.86617497727275" lon="8.715334944427013">
        <ele>700.12</ele>
        <time>2024-05-28T16:07:24.444Z</time>
      </trkpt>
      <trkpt lat="45.8661949262023" lon="8.715284988284111">
        <ele>700.05</ele>
        <time>2024-05-28T16:07:30.069Z</time>
      </trkpt>
      <trkpt lat="45.866206996142864" lon="8.71523997746408">
        <ele>699.98</ele>
        <time>2024-05-28T16:07:35.696Z</time>
      </trkpt>
      <trkpt lat="45.86621697060764" lon="8.715181974694133">
        <ele>699.9</ele>
        <time>2024-05-28T16:07:41.324Z</time>
      </trkpt>
      <trkpt lat="45.86623691953719" lon="8.71513294056058">
        <ele>699.82</ele>
        <time>2024-05-28T16:07:46.953Z</time>
      </trkpt>
      <trkpt lat="45.86626793257892" lon="8.715086923912168">
        <ele>699.75</ele>
        <time>2024-05-28T16:07:52.584Z</time>
      </trkpt>
      <trkpt lat="45.86627799086273" lon="8.715039985254407">
        <ele>699.66</ele>
        <time>2024-05-28T16:07:58.216Z</time>
      </trkpt>
      <trkpt lat="45.86630296893418" lon="8.715001931414008">
        <ele>699.59</ele>
        <time>2024-05-28T16:08:03.849Z</time>
      </trkpt>
      <trkpt lat="45.86632794700563" lon="8.714969996362925">
        <ele>699.51</ele>
        <time>2024-05-28T16:08:09.483Z</time>
      </trkpt>
      <trkpt lat="45.86634797975421" lon="8.714934960007668">
        <ele>699.42</ele>
        <time>2024-05-28T16:08:15.118Z</time>
      </trkpt>
      <trkpt lat="45.86636298336089" lon="8.714907970279455">
        <ele>699.33</ele>
        <time>2024-05-28T16:08:20.754Z</time>
      </trkpt>
      <trkpt lat="45.86637698113918" lon="8.714887937530875">
        <ele>699.25</ele>
        <time>2024-05-28T16:08:26.391Z</time>
      </trkpt>
      <trkpt lat="45.866404976695776" lon="8.714862959459424">
        <ele>699.16</ele>
        <time>2024-05-28T16:08:32.029Z</time>
      </trkpt>
      <trkpt lat="45.86643196642399" lon="8.71483295224607">
        <ele>699.06</ele>
        <time>2024-05-28T16:08:37.668Z</time>
      </trkpt>
      <trkpt lat="45.86645292118192" lon="8.714799927547574">
        <ele>698.96</ele>
        <time>2024-05-28T16:08:43.308Z</time>
      </trkpt>
      <trkpt lat="45.86648192256689" lon="8.714771931990981">
        <ele>698.86</ele>
        <time>2024-05-28T16:08:48.949Z</time>
      </trkpt>
      <trkpt lat="45.86650497280061" lon="8.714739996939898">
        <ele>698.75</ele>
        <time>2024-05-28T16:08:54.591Z</time>
      </trkpt>
      <trkpt lat="45.866532968357205" lon="8.714716946706176">
        <ele>698.64</ele>
        <time>2024-05-28T16:09:00.234Z</time>
      </trkpt>
      <trkpt lat="45.86657194420695" lon="8.714699931442738">
        <ele>698.54</ele>
        <time>2024-05-28T16:09:05.879Z</time>
      </trkpt>
      <trkpt lat="45.86660295724869" lon="8.714671935886145">
        <ele>698.41</ele>
        <time>2024-05-28T16:09:11.525Z</time>
      </trkpt>
      <trkpt lat="45.86662692949176" lon="8.714644946157932">
        <ele>698.28</ele>
        <time>2024-05-28T16:09:17.172Z</time>
      </trkpt>
      <trkpt lat="45.86665492504835" lon="8.714624997228384">
        <ele>698.14</ele>
        <time>2024-05-28T16:09:22.820Z</time>
      </trkpt>
      <trkpt lat="45.86668694391847" lon="8.71459792368114">
        <ele>697.99</ele>
        <time>2024-05-28T16:09:28.469Z</time>
      </trkpt>
      <trkpt lat="45.86671695113182" lon="8.714571939781308">
        <ele>697.83</ele>
        <time>2024-05-28T16:09:34.119Z</time>
      </trkpt>
      <trkpt lat="45.86674192920327" lon="8.71455199085176">
        <ele>697.66</ele>
        <time>2024-05-28T16:09:39.770Z</time>
      </trkpt>
      <trkpt lat="45.866769924759865" lon="8.71453195810318">
        <ele>697.48</ele>
        <time>2024-05-28T16:09:45.422Z</time>
      </trkpt>
      <trkpt lat="45.86679993197322" lon="8.71450798586011">
        <ele>697.28</ele>
        <time>2024-05-28T16:09:51.076Z</time>
      </trkpt>
      <trkpt lat="45.866807978600264" lon="8.714479990303516">
        <ele>697.06</ele>
        <time>2024-05-28T16:09:56.730Z</time>
      </trkpt>
      <trkpt lat="45.86682197637856" lon="8.714441936463118">
        <ele>696.82</ele>
        <time>2024-05-28T16:10:02.385Z</time>
      </trkpt>
      <trkpt lat="45.8668249938637" lon="8.714399943128228">
        <ele>696.56</ele>
        <time>2024-05-28T16:10:08.041Z</time>
      </trkpt>
      <trkpt lat="45.866831950843334" lon="8.714361973106861">
        <ele>696.3</ele>
        <time>2024-05-28T16:10:13.698Z</time>
      </trkpt>
      <trkpt lat="45.86684695445001" lon="8.714322997257113">
        <ele>696.02</ele>
        <time>2024-05-28T16:10:19.356Z</time>
      </trkpt>
      <trkpt lat="45.86685994639993" lon="8.714282931759953">
        <ele>695.74</ele>
        <time>2024-05-28T16:10:25.015Z</time>
      </trkpt>
      <trkpt lat="45.8668699208647" lon="8.714247979223728">
        <ele>695.45</ele>
        <time>2024-05-28T16:10:30.675Z</time>
      </trkpt>
      <trkpt lat="45.86688492447138" lon="8.714212942868471">
        <ele>695.15</ele>
        <time>2024-05-28T16:10:36.336Z</time>
      </trkpt>
      <trkpt lat="45.86690193973482" lon="8.714169943705201">
        <ele>694.82</ele>
        <time>2024-05-28T16:10:41.998Z</time>
      </trkpt>
      <trkpt lat="45.86691199801862" lon="8.714122921228409">
        <ele>694.48</ele>
        <time>2024-05-28T16:10:47.661Z</time>
      </trkpt>
      <trkpt lat="45.8669079747051" lon="8.714067935943604">
        <ele>694.11</ele>
        <time>2024-05-28T16:10:53.326Z</time>
      </trkpt>
      <trkpt lat="45.86690495721996" lon="8.714019991457462">
        <ele>693.74</ele>
        <time>2024-05-28T16:10:58.992Z</time>
      </trkpt>
      <trkpt lat="45.866894982755184" lon="8.71397196315229">
        <ele>693.36</ele>
        <time>2024-05-28T16:11:04.659Z</time>
      </trkpt>
      <trkpt lat="45.86688794195652" lon="8.713921923190355">
        <ele>692.97</ele>
        <time>2024-05-28T16:11:10.327Z</time>
      </trkpt>
      <trkpt lat="45.86687997914851" lon="8.713869955390692">
        <ele>692.57</ele>
        <time>2024-05-28T16:11:15.996Z</time>
      </trkpt>
      <trkpt lat="45.8668699208647" lon="8.71381999924779">
        <ele>692.16</ele>
        <time>2024-05-28T16:11:21.667Z</time>
      </trkpt>
      <trkpt lat="45.8668699208647" lon="8.713772976770997">
        <ele>691.76</ele>
        <time>2024-05-28T16:11:27.339Z</time>
      </trkpt>
      <trkpt lat="45.86687997914851" lon="8.713717991486192">
        <ele>691.37</ele>
        <time>2024-05-28T16:11:33.012Z</time>
      </trkpt>
      <trkpt lat="45.86689196527004" lon="8.713662922382355">
        <ele>690.98</ele>
        <time>2024-05-28T16:11:38.686Z</time>
      </trkpt>
      <trkpt lat="45.86691493168473" lon="8.713614977896214">
        <ele>690.6</ele>
        <time>2024-05-28T16:11:44.362Z</time>
      </trkpt>
      <trkpt lat="45.86693295277655" lon="8.713567955419421">
        <ele>690.21</ele>
        <time>2024-05-28T16:11:50.039Z</time>
      </trkpt>
      <trkpt lat="45.8669719286263" lon="8.713537948206067">
        <ele>689.88</ele>
        <time>2024-05-28T16:11:55.717Z</time>
      </trkpt>
      <trkpt lat="45.86699196137488" lon="8.713492937386036">
        <ele>689.52</ele>
        <time>2024-05-28T16:12:01.397Z</time>
      </trkpt>
      <trkpt lat="45.86701299995184" lon="8.713452955707908">
        <ele>689.16</ele>
        <time>2024-05-28T16:12:07.078Z</time>
      </trkpt>
      <trkpt lat="45.86703294888139" lon="8.713399982079864">
        <ele>688.79</ele>
        <time>2024-05-28T16:12:12.760Z</time>
      </trkpt>
      <trkpt lat="45.86706195026636" lon="8.71334994211793">
        <ele>688.42</ele>
        <time>2024-05-28T16:12:18.444Z</time>
      </trkpt>
      <trkpt lat="45.86708692833781" lon="8.713301997631788">
        <ele>688.04</ele>
        <time>2024-05-28T16:12:24.129Z</time>
      </trkpt>
      <trkpt lat="45.86710696108639" lon="8.713251957669854">
        <ele>687.66</ele>
        <time>2024-05-28T16:12:29.816Z</time>
      </trkpt>
      <trkpt lat="45.86712498217821" lon="8.713206946849823">
        <ele>687.28</ele>
        <time>2024-05-28T16:12:35.504Z</time>
      </trkpt>
      <trkpt lat="45.86714493110776" lon="8.713166965171695">
        <ele>686.9</ele>
        <time>2024-05-28T16:12:41.193Z</time>
      </trkpt>
      <trkpt lat="45.8671669755131" lon="8.713131928816438">
        <ele>686.53</ele>
        <time>2024-05-28T16:12:46.883Z</time>
      </trkpt>
      <trkpt lat="45.86718994192779" lon="8.713096976280212">
        <ele>686.16</ele>
        <time>2024-05-28T16:12:52.574Z</time>
      </trkpt>
      <trkpt lat="45.86721198633313" lon="8.713059928268194">
        <ele>685.8</ele>
        <time>2024-05-28T16:12:58.266Z</time>
      </trkpt>
      <trkpt lat="45.86723193526268" lon="8.713022964075208">
        <ele>685.43</ele>
        <time>2024-05-28T16:13:03.959Z</time>
      </trkpt>
      <trkpt lat="45.86724693886936" lon="8.71298692189157">
        <ele>685.06</ele>
        <time>2024-05-28T16:13:09.653Z</time>
      </trkpt>
      <trkpt lat="45.8672499563545" lon="8.712937971577048">
        <ele>684.67</ele>
        <time>2024-05-28T16:13:15.348Z</time>
      </trkpt>
      <trkpt lat="45.867262948304415" lon="8.712894972413778">
        <ele>684.29</ele>
        <time>2024-05-28T16:13:21.045Z</time>
      </trkpt>
      <trkpt lat="45.86727996356785" lon="8.712861947715282">
        <ele>683.92</ele>
        <time>2024-05-28T16:13:26.742Z</time>
      </trkpt>
      <trkpt lat="45.86729798465967" lon="8.712819954380393">
        <ele>683.55</ele>
        <time>2024-05-28T16:13:32.441Z</time>
      </trkpt>
      <trkpt lat="45.867307959124446" lon="8.7127729319036">
        <ele>683.17</ele>
        <time>2024-05-28T16:13:38.141Z</time>
      </trkpt>
      <trkpt lat="45.86731994524598" lon="8.71272498741746">
        <ele>682.79</ele>
        <time>2024-05-28T16:13:43.842Z</time>
      </trkpt>
      <trkpt lat="45.867326986044645" lon="8.712674947455525">
        <ele>682.41</ele>
        <time>2024-05-28T16:13:49.544Z</time>
      </trkpt>
      <trkpt lat="45.867356993258" lon="8.7126399949193">
        <ele>682.06</ele>
        <time>2024-05-28T16:13:55.247Z</time>
      </trkpt>
      <trkpt lat="45.867391945794225" lon="8.712602946907282">
        <ele>681.72</ele>
        <time>2024-05-28T16:14:00.952Z</time>
      </trkpt>
      <trkpt lat="45.867436956614256" lon="8.712569922208786">
        <ele>681.38</ele>
        <time>2024-05-28T16:14:06.659Z</time>
      </trkpt>
      <trkpt lat="45.86748297326267" lon="8.712544944137335">
        <ele>681.06</ele>
        <time>2024-05-28T16:14:12.367Z</time>
      </trkpt>
      <trkpt lat="45.86750996299088" lon="8.712499933317304">
        <ele>680.7</ele>
        <time>2024-05-28T16:14:18.077Z</time>
      </trkpt>
      <trkpt lat="45.86753795854747" lon="8.71247193776071">
        <ele>680.35</ele>
        <time>2024-05-28T16:14:23.788Z</time>
      </trkpt>
      <trkpt lat="45.86754793301225" lon="8.71244695968926">
        <ele>680.0</ele>
        <time>2024-05-28T16:14:29.499Z</time>
      </trkpt>
      <trkpt lat="45.86757995188236" lon="8.71242692694068">
        <ele>679.66</ele>
        <time>2024-05-28T16:14:35.212Z</time>
      </trkpt>
      <trkpt lat="45.867607947438955" lon="8.712406978011131">
        <ele>679.31</ele>
        <time>2024-05-28T16:14:40.926Z</time>
      </trkpt>
      <trkpt lat="45.867627980187535" lon="8.712382921949029">
        <ele>678.95</ele>
        <time>2024-05-28T16:14:46.640Z</time>
      </trkpt>
      <trkpt lat="45.86765698157251" lon="8.7123619671911">
        <ele>678.6</ele>
        <time>2024-05-28T16:14:52.356Z</time>
      </trkpt>
      <trkpt lat="45.8676849771291" lon="8.71234193444252">
        <ele>678.24</ele>
        <time>2024-05-28T16:14:58.073Z</time>
      </trkpt>
      <trkpt lat="45.86770199239254" lon="8.712312933057547">
        <ele>677.88</ele>
        <time>2024-05-28T16:15:03.791Z</time>
      </trkpt>
      <trkpt lat="45.867717918008566" lon="8.712266916409135">
        <ele>677.49</ele>
        <time>2024-05-28T16:15:09.510Z</time>
      </trkpt>
      <trkpt lat="45.86773996241391" lon="8.712214948609471">
        <ele>677.12</ele>
        <time>2024-05-28T16:15:15.230Z</time>
      </trkpt>
      <trkpt lat="45.86775295436382" lon="8.712164992466569">
        <ele>676.74</ele>
        <time>2024-05-28T16:15:20.951Z</time>
      </trkpt>
      <trkpt lat="45.8677679579705" lon="8.712119981646538">
        <ele>676.38</ele>
        <time>2024-05-28T16:15:26.674Z</time>
      </trkpt>
      <trkpt lat="45.8677819557488" lon="8.71207999996841">
        <ele>676.02</ele>
        <time>2024-05-28T16:15:32.398Z</time>
      </trkpt>
      <trkpt lat="45.867799976840615" lon="8.71203993447125">
        <ele>675.66</ele>
        <time>2024-05-28T16:15:38.123Z</time>
      </trkpt>
      <trkpt lat="45.86781296879053" lon="8.712002970278263">
        <ele>675.31</ele>
        <time>2024-05-28T16:15:43.849Z</time>
      </trkpt>
      <trkpt lat="45.867841970175505" lon="8.71197497472167">
        <ele>674.96</ele>
        <time>2024-05-28T16:15:49.576Z</time>
      </trkpt>
      <trkpt lat="45.867864936590195" lon="8.711936920881271">
        <ele>674.61</ele>
        <time>2024-05-28T16:15:55.304Z</time>
      </trkpt>
      <trkpt lat="45.867886980995536" lon="8.711894927546382">
        <ele>674.25</ele>
        <time>2024-05-28T16:16:01.033Z</time>
      </trkpt>
      <trkpt lat="45.867906929925084" lon="8.711854945868254">
        <ele>673.9</ele>
        <time>2024-05-28T16:16:06.763Z</time>
      </trkpt>
      <trkpt lat="45.867951940745115" lon="8.711817981675267">
        <ele>673.55</ele>
        <time>2024-05-28T16:16:12.495Z</time>
      </trkpt>
      <trkpt lat="45.86798295378685" lon="8.711797948926687">
        <ele>673.21</ele>
        <time>2024-05-28T16:16:18.228Z</time>
      </trkpt>
      <trkpt lat="45.868014972656965" lon="8.711779927834868">
        <ele>672.88</ele>
        <time>2024-05-28T16:16:23.962Z</time>
      </trkpt>
      <trkpt lat="45.868039950728416" lon="8.711744975298643">
        <ele>672.53</ele>
        <time>2024-05-28T16:16:29.698Z</time>
      </trkpt>
      <trkpt lat="45.86807297542691" lon="8.711711950600147">
        <ele>672.19</ele>
        <time>2024-05-28T16:16:35.435Z</time>
      </trkpt>
      <trkpt lat="45.86809191852808" lon="8.711691917851567">
        <ele>671.85</ele>
        <time>2024-05-28T16:16:41.173Z</time>
      </trkpt>
      <trkpt lat="45.86811798624694" lon="8.7116729747504">
        <ele>671.51</ele>
        <time>2024-05-28T16:16:46.912Z</time>
      </trkpt>
      <trkpt lat="45.868142964318395" lon="8.711642967537045">
        <ele>671.17</ele>
        <time>2024-05-28T16:16:52.652Z</time>
      </trkpt>
      <trkpt lat="45.86817498318851" lon="8.711619917303324">
        <ele>670.84</ele>
        <time>2024-05-28T16:16:58.393Z</time>
      </trkpt>
      <trkpt lat="45.8681979496032" lon="8.711577923968434">
        <ele>670.5</ele>
        <time>2024-05-28T16:17:04.135Z</time>
      </trkpt>
      <trkpt lat="45.8682169765234" lon="8.711532996967435">
        <ele>670.16</ele>
        <time>2024-05-28T16:17:09.878Z</time>
      </trkpt>
      <trkpt lat="45.86824195459485" lon="8.711492931470275">
        <ele>669.83</ele>
        <time>2024-05-28T16:17:15.623Z</time>
      </trkpt>
      <trkpt lat="45.86827799677849" lon="8.711427971720695">
        <ele>669.49</ele>
        <time>2024-05-28T16:17:21.370Z</time>
      </trkpt>
      <trkpt lat="45.868316972628236" lon="8.711389917880297">
        <ele>669.18</ele>
        <time>2024-05-28T16:17:27.118Z</time>
      </trkpt>
      <trkpt lat="45.86834496818483" lon="8.711359994485974">
        <ele>668.86</ele>
        <time>2024-05-28T16:17:32.867Z</time>
      </trkpt>
      <trkpt lat="45.86836298927665" lon="8.711304925382137">
        <ele>668.53</ele>
        <time>2024-05-28T16:17:38.618Z</time>
      </trkpt>
      <trkpt lat="45.868399953469634" lon="8.711262932047248">
        <ele>668.22</ele>
        <time>2024-05-28T16:17:44.370Z</time>
      </trkpt>
      <trkpt lat="45.868421997874975" lon="8.711211970075965">
        <ele>667.9</ele>
        <time>2024-05-28T16:17:50.124Z</time>
      </trkpt>
      <trkpt lat="45.86844999343157" lon="8.711169976741076">
        <ele>667.58</ele>
        <time>2024-05-28T16:17:55.879Z</time>
      </trkpt>
      <trkpt lat="45.868469942361116" lon="8.711129995062947">
        <ele>667.27</ele>
        <time>2024-05-28T16:18:01.635Z</time>
      </trkpt>
      <trkpt lat="45.86849198676646" lon="8.711096970364451">
        <ele>666.97</ele>
        <time>2024-05-28T16:18:07.392Z</time>
      </trkpt>
      <trkpt lat="45.86851797066629" lon="8.711064951494336">
        <ele>666.68</ele>
        <time>2024-05-28T16:18:13.150Z</time>
      </trkpt>
      <trkpt lat="45.86853699758649" lon="8.711026981472969">
        <ele>666.38</ele>
        <time>2024-05-28T16:18:18.909Z</time>
      </trkpt>
      <trkpt lat="45.86854294873774" lon="8.710976941511035">
        <ele>666.06</ele>
        <time>2024-05-28T16:18:24.670Z</time>
      </trkpt>
      <trkpt lat="45.86855694651604" lon="8.71092195622623">
        <ele>665.75</ele>
        <time>2024-05-28T16:18:30.432Z</time>
      </trkpt>
      <trkpt lat="45.868574967607856" lon="8.71087996289134">
        <ele>665.46</ele>
        <time>2024-05-28T16:18:36.195Z</time>
      </trkpt>
      <trkpt lat="45.868594916537404" lon="8.710841992869973">
        <ele>665.17</ele>
        <time>2024-05-28T16:18:41.959Z</time>
      </trkpt>
      <trkpt lat="45.86862693540752" lon="8.710806956514716">
        <ele>664.9</ele>
        <time>2024-05-28T16:18:47.725Z</time>
      </trkpt>
      <trkpt lat="45.868661971762776" lon="8.710781978443265">
        <ele>664.64</ele>
        <time>2024-05-28T16:18:53.492Z</time>
      </trkpt>
      <trkpt lat="45.86869994178414" lon="8.710757922381163">
        <ele>664.38</ele>
        <time>2024-05-28T16:18:59.260Z</time>
      </trkpt>
      <trkpt lat="45.86871997453272" lon="8.71072992682457">
        <ele>664.12</ele>
        <time>2024-05-28T16:19:05.029Z</time>
      </trkpt>
      <trkpt lat="45.86875492706895" lon="8.710712995380163">
        <ele>663.88</ele>
        <time>2024-05-28T16:19:10.799Z</time>
      </trkpt>
      <trkpt lat="45.86877294816077" lon="8.71068499982357">
        <ele>663.63</ele>
        <time>2024-05-28T16:19:16.570Z</time>
      </trkpt>
      <trkpt lat="45.86879298090935" lon="8.710649963468313">
        <ele>663.39</ele>
        <time>2024-05-28T16:19:22.342Z</time>
      </trkpt>
      <trkpt lat="45.8688179589808" lon="8.710619956254959">
        <ele>663.16</ele>
        <time>2024-05-28T16:19:28.115Z</time>
      </trkpt>
      <trkpt lat="45.868852995336056" lon="8.710604952648282">
        <ele>662.96</ele>
        <time>2024-05-28T16:19:33.890Z</time>
      </trkpt>
      <trkpt lat="45.8688919711858" lon="8.710596989840269">
        <ele>662.77</ele>
        <time>2024-05-28T16:19:39.666Z</time>
      </trkpt>
      <trkpt lat="45.86893295869231" lon="8.710592966526747">
        <ele>662.6</ele>
        <time>2024-05-28T16:19:45.443Z</time>
      </trkpt>
      <trkpt lat="45.86896799504757" lon="8.71059799566865">
        <ele>662.43</ele>
        <time>2024-05-28T16:19:51.222Z</time>
      </trkpt>
      <trkpt lat="45.86900998838246" lon="8.710607970133424">
        <ele>662.27</ele>
        <time>2024-05-28T16:19:57.002Z</time>
      </trkpt>
      <trkpt lat="45.86905499920249" lon="8.710607970133424">
        <ele>662.11</ele>
        <time>2024-05-28T16:20:02.783Z</time>
      </trkpt>
      <trkpt lat="45.86908693425357" lon="8.710594978183508">
        <ele>661.94</ele>
        <time>2024-05-28T16:20:08.566Z</time>
      </trkpt>
      <trkpt lat="45.869131945073605" lon="8.710589949041605">
        <ele>661.79</ele>
        <time>2024-05-28T16:20:14.350Z</time>
      </trkpt>
      <trkpt lat="45.869151977822185" lon="8.71057997457683">
        <ele>661.65</ele>
        <time>2024-05-28T16:20:20.135Z</time>
      </trkpt>
      <trkpt lat="45.86918299086392" lon="8.71055692434311">
        <ele>661.51</ele>
        <time>2024-05-28T16:20:25.921Z</time>
      </trkpt>
      <trkpt lat="45.86920495145023" lon="8.710549967363477">
        <ele>661.39</ele>
        <time>2024-05-28T16:20:31.708Z</time>
      </trkpt>
      <trkpt lat="45.86923194117844" lon="8.710519960150123">
        <ele>661.28</ele>
        <time>2024-05-28T16:20:37.496Z</time>
      </trkpt>
      <trkpt lat="45.869262954220176" lon="8.710489952936769">
        <ele>661.17</ele>
        <time>2024-05-28T16:20:43.285Z</time>
      </trkpt>
      <trkpt lat="45.86930193006992" lon="8.710464974865317">
        <ele>661.08</ele>
        <time>2024-05-28T16:20:49.076Z</time>
      </trkpt>
      <trkpt lat="45.86933294311166" lon="8.710439996793866">
        <ele>661.0</ele>
        <time>2024-05-28T16:20:54.868Z</time>
      </trkpt>
      <trkpt lat="45.86936194449663" lon="8.710394985973835">
        <ele>660.93</ele>
        <time>2024-05-28T16:21:00.661Z</time>
      </trkpt>
      <trkpt lat="45.86938792839646" lon="8.710351986810565">
        <ele>660.87</ele>
        <time>2024-05-28T16:21:06.455Z</time>
      </trkpt>
      <trkpt lat="45.869412990286946" lon="8.71031996794045">
        <ele>660.83</ele>
        <time>2024-05-28T16:21:12.251Z</time>
      </trkpt>
      <trkpt lat="45.869451966136694" lon="8.710292978212237">
        <ele>660.8</ele>
        <time>2024-05-28T16:21:18.048Z</time>
      </trkpt>
      <trkpt lat="45.869474932551384" lon="8.710262970998883">
        <ele>660.79</ele>
        <time>2024-05-28T16:21:23.846Z</time>
      </trkpt>
      <trkpt lat="45.86949999444187" lon="8.710237992927432">
        <ele>660.79</ele>
        <time>2024-05-28T16:21:29.645Z</time>
      </trkpt>
      <trkpt lat="45.869521955028176" lon="8.710207985714078">
        <ele>660.8</ele>
        <time>2024-05-28T16:21:35.445Z</time>
      </trkpt>
      <trkpt lat="45.86953192949295" lon="8.710179990157485">
        <ele>660.83</ele>
        <time>2024-05-28T16:21:41.246Z</time>
      </trkpt>
      <trkpt lat="45.869544921442866" lon="8.710142942145467">
        <ele>660.86</ele>
        <time>2024-05-28T16:21:47.048Z</time>
      </trkpt>
      <trkpt lat="45.86955992504954" lon="8.71012793853879">
        <ele>660.9</ele>
        <time>2024-05-28T16:21:52.850Z</time>
      </trkpt>
      <trkpt lat="45.86956998333335" lon="8.710086951032281">
        <ele>660.96</ele>
        <time>2024-05-28T16:21:58.653Z</time>
      </trkpt>
      <trkpt lat="45.86955196224153" lon="8.710081921890378">
        <ele>661.01</ele>
        <time>2024-05-28T16:22:04.457Z</time>
      </trkpt>
      <trkpt lat="45.86955497972667" lon="8.710107989609241">
        <ele>661.08</ele>
        <time>2024-05-28T16:22:10.262Z</time>
      </trkpt>
      <trkpt lat="45.86953192949295" lon="8.71012693271041">
        <ele>661.15</ele>
        <time>2024-05-28T16:22:16.068Z</time>
      </trkpt>
      <trkpt lat="45.86955196224153" lon="8.71012793853879">
        <ele>661.24</ele>
        <time>2024-05-28T16:22:21.874Z</time>
      </trkpt>
      <trkpt lat="45.86956998333335" lon="8.710132967680693">
        <ele>661.35</ele>
        <time>2024-05-28T16:22:27.681Z</time>
      </trkpt>
      <trkpt lat="45.869582975283265" lon="8.710157945752144">
        <ele>661.46</ele>
        <time>2024-05-28T16:22:33.489Z</time>
      </trkpt>
      <trkpt lat="45.86960191838443" lon="8.71016699820757">
        <ele>661.58</ele>
        <time>2024-05-28T16:22:39.297Z</time>
      </trkpt>
      <trkpt lat="45.86962195113301" lon="8.71019197627902">
        <ele>661.71</ele>
        <time>2024-05-28T16:22:45.106Z</time>
      </trkpt>
      <trkpt lat="45.869649946689606" lon="8.710206979885697">
        <ele>661.85</ele>
        <time>2024-05-28T16:22:50.916Z</time>
      </trkpt>
      <trkpt lat="45.869669979438186" lon="8.710216954350471">
        <ele>662.0</ele>
        <time>2024-05-28T16:22:56.727Z</time>
      </trkpt>
      <trkpt lat="45.86968791671097" lon="8.71023296378553">
        <ele>662.16</ele>
        <time>2024-05-28T16:23:02.539Z</time>
      </trkpt>
      <trkpt lat="45.86970794945955" lon="8.710246961563826">
        <ele>662.33</ele>
        <time>2024-05-28T16:23:08.351Z</time>
      </trkpt>
      <trkpt lat="45.86972697637975" lon="8.71025794185698">
        <ele>662.51</ele>
        <time>2024-05-28T16:23:14.164Z</time>
      </trkpt>
      <trkpt lat="45.86974994279444" lon="8.710272945463657">
        <ele>662.7</ele>
        <time>2024-05-28T16:23:19.978Z</time>
      </trkpt>
      <trkpt lat="45.86977198719978" lon="8.710292978212237">
        <ele>662.89</ele>
        <time>2024-05-28T16:23:25.793Z</time>
      </trkpt>
      <trkpt lat="45.86978799663484" lon="8.710312927141786">
        <ele>663.09</ele>
        <time>2024-05-28T16:23:31.608Z</time>
      </trkpt>
      <trkpt lat="45.869799982756376" lon="8.710331954061985">
        <ele>663.3</ele>
        <time>2024-05-28T16:23:37.424Z</time>
      </trkpt>
      <trkpt lat="45.869822949171066" lon="8.710337989032269">
        <ele>663.52</ele>
        <time>2024-05-28T16:23:43.241Z</time>
      </trkpt>
      <trkpt lat="45.86984499357641" lon="8.710349975153804">
        <ele>663.75</ele>
        <time>2024-05-28T16:23:49.059Z</time>
      </trkpt>
      <trkpt lat="45.869861925020814" lon="8.710369924083352">
        <ele>663.98</ele>
        <time>2024-05-28T16:23:54.877Z</time>
      </trkpt>
      <trkpt lat="45.86987994611263" lon="8.710379982367158">
        <ele>664.22</ele>
        <time>2024-05-28T16:24:00.696Z</time>
      </trkpt>
      <trkpt lat="45.869906935840845" lon="8.71038492769003">
        <ele>664.48</ele>
        <time>2024-05-28T16:24:06.516Z</time>
      </trkpt>
      <trkpt lat="45.869924956932664" lon="8.71038492769003">
        <ele>664.73</ele>
        <time>2024-05-28T16:24:12.336Z</time>
      </trkpt>
      <trkpt lat="45.869947923347354" lon="8.71038693934679">
        <ele>664.99</ele>
        <time>2024-05-28T16:24:18.157Z</time>
      </trkpt>
      <trkpt lat="45.86996695026755" lon="8.710396997630596">
        <ele>665.25</ele>
        <time>2024-05-28T16:24:23.979Z</time>
      </trkpt>
      <trkpt lat="45.86998698301613" lon="8.710416946560144">
        <ele>665.52</ele>
        <time>2024-05-28T16:24:29.802Z</time>
      </trkpt>
      <trkpt lat="45.87000492028892" lon="8.710431950166821">
        <ele>665.79</ele>
        <time>2024-05-28T16:24:35.625Z</time>
      </trkpt>
      <trkpt lat="45.870031993836164" lon="8.710434967651963">
        <ele>666.07</ele>
        <time>2024-05-28T16:24:41.449Z</time>
      </trkpt>
      <trkpt lat="45.87004993110895" lon="8.710439996793866">
        <ele>666.35</ele>
        <time>2024-05-28T16:24:47.274Z</time>
      </trkpt>
      <trkpt lat="45.87008496746421" lon="8.710451982915401">
        <ele>666.64</ele>
        <time>2024-05-28T16:24:53.100Z</time>
      </trkpt>
      <trkpt lat="45.870122937485576" lon="8.710451982915401">
        <ele>666.93</ele>
        <time>2024-05-28T16:24:58.927Z</time>
      </trkpt>
      <trkpt lat="45.870142970234156" lon="8.710454916581511">
        <ele>667.22</ele>
        <time>2024-05-28T16:25:04.755Z</time>
      </trkpt>
      <trkpt lat="45.870161997154355" lon="8.710457934066653">
        <ele>667.51</ele>
        <time>2024-05-28T16:25:10.584Z</time>
      </trkpt>
      <trkpt lat="45.870184963569045" lon="8.71047193184495">
        <ele>667.8</ele>
        <time>2024-05-28T16:25:16.413Z</time>
      </trkpt>
      <trkpt lat="45.870202984660864" lon="8.710481990128756">
        <ele>668.08</ele>
        <time>2024-05-28T16:25:22.243Z</time>
      </trkpt>
      <trkpt lat="45.87023994885385" lon="8.710497999563813">
        <ele>668.38</ele>
        <time>2024-05-28T16:25:28.074Z</time>
      </trkpt>
      <trkpt lat="45.87026199325919" lon="8.710506968200207">
        <ele>668.67</ele>
        <time>2024-05-28T16:25:33.906Z</time>
      </trkpt>
      <trkpt lat="45.87028294801712" lon="8.710519960150123">
        <ele>668.96</ele>
        <time>2024-05-28T16:25:39.739Z</time>
      </trkpt>
      <trkpt lat="45.8703029807657" lon="8.71053697541356">
        <ele>669.24</ele>
        <time>2024-05-28T16:25:45.573Z</time>
      </trkpt>
      <trkpt lat="45.87031999602914" lon="8.710567988455296">
        <ele>669.53</ele>
        <time>2024-05-28T16:25:51.408Z</time>
      </trkpt>
      <trkpt lat="45.87034497410059" lon="8.710587937384844">
        <ele>669.81</ele>
        <time>2024-05-28T16:25:57.244Z</time>
      </trkpt>
      <trkpt lat="45.87036299519241" lon="8.710596989840269">
        <ele>670.09</ele>
        <time>2024-05-28T16:26:03.080Z</time>
      </trkpt>
      <trkpt lat="45.87038998492062" lon="8.710614927113056">
        <ele>670.37</ele>
        <time>2024-05-28T16:26:08.917Z</time>
      </trkpt>
      <trkpt lat="45.87040792219341" lon="8.710629930719733">
        <ele>670.64</ele>
        <time>2024-05-28T16:26:14.755Z</time>
      </trkpt>
      <trkpt lat="45.87043499574065" lon="8.710649963468313">
        <ele>670.91</ele>
        <time>2024-05-28T16:26:20.594Z</time>
      </trkpt>
      <trkpt lat="45.87045293301344" lon="8.710674941539764">
        <ele>671.17</ele>
        <time>2024-05-28T16:26:26.434Z</time>
      </trkpt>
      <trkpt lat="45.87046994827688" lon="8.710689945146441">
        <ele>671.44</ele>
        <time>2024-05-28T16:26:32.274Z</time>
      </trkpt>
      <trkpt lat="45.87050196714699" lon="8.710709977895021">
        <ele>671.7</ele>
        <time>2024-05-28T16:26:38.116Z</time>
      </trkpt>
      <trkpt lat="45.870504984632134" lon="8.710744930431247">
        <ele>671.95</ele>
        <time>2024-05-28T16:26:43.958Z</time>
      </trkpt>
      <trkpt lat="45.87053298018873" lon="8.710761945694685">
        <ele>672.21</ele>
        <time>2024-05-28T16:26:49.801Z</time>
      </trkpt>
      <trkpt lat="45.8705569524318" lon="8.710787929594517">
        <ele>672.47</ele>
        <time>2024-05-28T16:26:55.645Z</time>
      </trkpt>
      <trkpt lat="45.87056499905884" lon="8.710812991485">
        <ele>672.72</ele>
        <time>2024-05-28T16:27:01.490Z</time>
      </trkpt>
      <trkpt lat="45.87058193050325" lon="8.710841992869973">
        <ele>672.97</ele>
        <time>2024-05-28T16:27:07.336Z</time>
      </trkpt>
      <trkpt lat="45.87059995159507" lon="8.71085993014276">
        <ele>673.22</ele>
        <time>2024-05-28T16:27:13.183Z</time>
      </trkpt>
      <trkpt lat="45.87061998434365" lon="8.710886919870973">
        <ele>673.47</ele>
        <time>2024-05-28T16:27:19.031Z</time>
      </trkpt>
      <trkpt lat="45.870639933273196" lon="8.71090292930603">
        <ele>673.72</ele>
        <time>2024-05-28T16:27:24.879Z</time>
      </trkpt>
      <trkpt lat="45.87067496962845" lon="8.710926985368133">
        <ele>673.98</ele>
        <time>2024-05-28T16:27:30.729Z</time>
      </trkpt>
      <trkpt lat="45.87069299072027" lon="8.710952969267964">
        <ele>674.24</ele>
        <time>2024-05-28T16:27:36.580Z</time>
      </trkpt>
      <trkpt lat="45.87069693021476" lon="8.710977947339416">
        <ele>674.49</ele>
        <time>2024-05-28T16:27:42.431Z</time>
      </trkpt>
      <trkpt lat="45.87070698849857" lon="8.71100795455277">
        <ele>674.74</ele>
        <time>2024-05-28T16:27:48.283Z</time>
      </trkpt>
      <trkpt lat="45.870721992105246" lon="8.71102999895811">
        <ele>675.0</ele>
        <time>2024-05-28T16:27:54.136Z</time>
      </trkpt>
      <trkpt lat="45.87073196657002" lon="8.71105195954442">
        <ele>675.25</ele>
        <time>2024-05-28T16:27:59.989Z</time>
      </trkpt>
      <trkpt lat="45.870741941034794" lon="8.711079955101013">
        <ele>675.5</ele>
        <time>2024-05-28T16:28:05.843Z</time>
      </trkpt>
      <trkpt lat="45.87075795046985" lon="8.711104933172464">
        <ele>675.75</ele>
        <time>2024-05-28T16:28:11.698Z</time>
      </trkpt>
      <trkpt lat="45.870786951854825" lon="8.711134940385818">
        <ele>676.01</ele>
        <time>2024-05-28T16:28:17.554Z</time>
      </trkpt>
      <trkpt lat="45.870804972946644" lon="8.711146926507354">
        <ele>676.26</ele>
        <time>2024-05-28T16:28:23.411Z</time>
      </trkpt>
      <trkpt lat="45.87082198821008" lon="8.711166959255934">
        <ele>676.51</ele>
        <time>2024-05-28T16:28:29.268Z</time>
      </trkpt>
      <trkpt lat="45.870849983766675" lon="8.71120199561119">
        <ele>676.76</ele>
        <time>2024-05-28T16:28:35.127Z</time>
      </trkpt>
      <trkpt lat="45.87087697349489" lon="8.711226973682642">
        <ele>677.01</ele>
        <time>2024-05-28T16:28:40.987Z</time>
      </trkpt>
      <trkpt lat="45.870891977101564" lon="8.711256980895996">
        <ele>677.26</ele>
        <time>2024-05-28T16:28:46.847Z</time>
      </trkpt>
      <trkpt lat="45.870917961001396" lon="8.711271984502673">
        <ele>677.51</ele>
        <time>2024-05-28T16:28:52.708Z</time>
      </trkpt>
      <trkpt lat="45.87093296460807" lon="8.71128799393773">
        <ele>677.76</ele>
        <time>2024-05-28T16:28:58.570Z</time>
      </trkpt>
      <trkpt lat="45.870956936851144" lon="8.711312972009182">
        <ele>678.01</ele>
        <time>2024-05-28T16:29:04.433Z</time>
      </trkpt>
      <trkpt lat="45.87096498347819" lon="8.711337950080633">
        <ele>678.26</ele>
        <time>2024-05-28T16:29:10.297Z</time>
      </trkpt>
      <trkpt lat="45.87097194045782" lon="8.711361922323704">
        <ele>678.51</ele>
        <time>2024-05-28T16:29:16.161Z</time>
      </trkpt>
      <trkpt lat="45.87098199874163" lon="8.711387990042567">
        <ele>678.75</ele>
        <time>2024-05-28T16:29:22.026Z</time>
      </trkpt>
      <trkpt lat="45.87099792435765" lon="8.711397964507341">
        <ele>679.0</ele>
        <time>2024-05-28T16:29:27.892Z</time>
      </trkpt>
      <trkpt lat="45.870999936014414" lon="8.71143995784223">
        <ele>679.25</ele>
        <time>2024-05-28T16:29:33.759Z</time>
      </trkpt>
      <trkpt lat="45.870999936014414" lon="8.711469965055585">
        <ele>679.49</ele>
        <time>2024-05-28T16:29:39.626Z</time>
      </trkpt>
      <trkpt lat="45.871022986248136" lon="8.711486980319023">
        <ele>679.74</ele>
        <time>2024-05-28T16:29:45.494Z</time>
      </trkpt>
      <trkpt lat="45.87103991769254" lon="8.711512964218855">
        <ele>679.98</ele>
        <time>2024-05-28T16:29:51.363Z</time>
      </trkpt>
      <trkpt lat="45.87105793878436" lon="8.711541965603828">
        <ele>680.23</ele>
        <time>2024-05-28T16:29:57.233Z</time>
      </trkpt>
      <trkpt lat="45.87106196209788" lon="8.711576918140054">
        <ele>680.47</ele>
        <time>2024-05-28T16:30:03.104Z</time>
      </trkpt>
      <trkpt lat="45.87107797153294" lon="8.711592927575111">
        <ele>680.72</ele>
        <time>2024-05-28T16:30:08.975Z</time>
      </trkpt>
      <trkpt lat="45.871089957654476" lon="8.711621928960085">
        <ele>680.97</ele>
        <time>2024-05-28T16:30:14.847Z</time>
      </trkpt>
      <trkpt lat="45.87110294960439" lon="8.711642967537045">
        <ele>681.21</ele>
        <time>2024-05-28T16:30:20.720Z</time>
      </trkpt>
      <trkpt lat="45.87111694738269" lon="8.711667945608497">
        <ele>681.46</ele>
        <time>2024-05-28T16:30:26.593Z</time>
      </trkpt>
      <trkpt lat="45.87113496847451" lon="8.711711950600147">
        <ele>681.71</ele>
        <time>2024-05-28T16:30:32.468Z</time>
      </trkpt>
      <trkpt lat="45.871154917404056" lon="8.711744975298643">
        <ele>681.95</ele>
        <time>2024-05-28T16:30:38.344Z</time>
      </trkpt>
      <trkpt lat="45.87116992101073" lon="8.711771965026855">
        <ele>682.19</ele>
        <time>2024-05-28T16:30:44.221Z</time>
      </trkpt>
      <trkpt lat="45.871192971244454" lon="8.71180197224021">
        <ele>682.43</ele>
        <time>2024-05-28T16:30:50.099Z</time>
      </trkpt>
      <trkpt lat="45.87120797485113" lon="8.711821921169758">
        <ele>682.67</ele>
        <time>2024-05-28T16:30:55.977Z</time>
      </trkpt>
      <trkpt lat="45.87122197262943" lon="8.71184698306024">
        <ele>682.91</ele>
        <time>2024-05-28T16:31:01.856Z</time>
      </trkpt>
      <trkpt lat="45.87125298567116" lon="8.711874978616834">
        <ele>683.16</ele>
        <time>2024-05-28T16:31:07.736Z</time>
      </trkpt>
      <trkpt lat="45.87125692516565" lon="8.711899956688285">
        <ele>683.39</ele>
        <time>2024-05-28T16:31:13.617Z</time>
      </trkpt>
      <trkpt lat="45.87126991711557" lon="8.711926946416497">
        <ele>683.62</ele>
        <time>2024-05-28T16:31:19.499Z</time>
      </trkpt>
      <trkpt lat="45.87127695791423" lon="8.711967933923006">
        <ele>683.86</ele>
        <time>2024-05-28T16:31:25.382Z</time>
      </trkpt>
      <trkpt lat="45.87129497900605" lon="8.712009927257895">
        <ele>684.09</ele>
        <time>2024-05-28T16:31:31.266Z</time>
      </trkpt>
      <trkpt lat="45.87131199426949" lon="8.712034989148378">
        <ele>684.32</ele>
        <time>2024-05-28T16:31:37.151Z</time>
      </trkpt>
      <trkpt lat="45.8713149279356" lon="8.71207999996841">
        <ele>684.54</ele>
        <time>2024-05-28T16:31:43.037Z</time>
      </trkpt>
      <trkpt lat="45.8713199570775" lon="8.712117969989777">
        <ele>684.75</ele>
        <time>2024-05-28T16:31:48.923Z</time>
      </trkpt>
      <trkpt lat="45.87133294902742" lon="8.712139930576086">
        <ele>684.97</ele>
        <time>2024-05-28T16:31:54.810Z</time>
      </trkpt>
      <trkpt lat="45.87135692127049" lon="8.712177984416485">
        <ele>685.2</ele>
        <time>2024-05-28T16:32:00.698Z</time>
      </trkpt>
      <trkpt lat="45.87137494236231" lon="8.71221293695271">
        <ele>685.42</ele>
        <time>2024-05-28T16:32:06.587Z</time>
      </trkpt>
      <trkpt lat="45.87138198316097" lon="8.712246967479587">
        <ele>685.63</ele>
        <time>2024-05-28T16:32:12.477Z</time>
      </trkpt>
      <trkpt lat="45.871387934312224" lon="8.71227697469294">
        <ele>685.84</ele>
        <time>2024-05-28T16:32:18.368Z</time>
      </trkpt>
      <trkpt lat="45.871387934312224" lon="8.71231796219945">
        <ele>686.05</ele>
        <time>2024-05-28T16:32:24.260Z</time>
      </trkpt>
      <trkpt lat="45.87139799259603" lon="8.7123619671911">
        <ele>686.26</ele>
        <time>2024-05-28T16:32:30.153Z</time>
      </trkpt>
      <trkpt lat="45.871406961232424" lon="8.712387951090932">
        <ele>686.46</ele>
        <time>2024-05-28T16:32:36.047Z</time>
      </trkpt>
      <trkpt lat="45.871429927647114" lon="8.712419969961047">
        <ele>686.68</ele>
        <time>2024-05-28T16:32:41.942Z</time>
      </trkpt>
      <trkpt lat="45.87143998593092" lon="8.712451988831162">
        <ele>686.88</ele>
        <time>2024-05-28T16:32:47.837Z</time>
      </trkpt>
      <trkpt lat="45.87144794873893" lon="8.712479984387755">
        <ele>687.09</ele>
        <time>2024-05-28T16:32:53.733Z</time>
      </trkpt>
      <trkpt lat="45.87146194651723" lon="8.712504962459207">
        <ele>687.3</ele>
        <time>2024-05-28T16:32:59.630Z</time>
      </trkpt>
      <trkpt lat="45.871471920982" lon="8.712537987157702">
        <ele>687.51</ele>
        <time>2024-05-28T16:33:05.528Z</time>
      </trkpt>
      <trkpt lat="45.871471920982" lon="8.712564976885915">
        <ele>687.73</ele>
        <time>2024-05-28T16:33:11.426Z</time>
      </trkpt>
      <trkpt lat="45.87147795595229" lon="8.712591966614127">
        <ele>687.94</ele>
        <time>2024-05-28T16:33:17.325Z</time>
      </trkpt>
      <trkpt lat="45.87147996760905" lon="8.712624991312623">
        <ele>688.15</ele>
        <time>2024-05-28T16:33:23.225Z</time>
      </trkpt>
      <trkpt lat="45.87146798148751" lon="8.712649969384074">
        <ele>688.37</ele>
        <time>2024-05-28T16:33:29.126Z</time>
      </trkpt>
      <trkpt lat="45.87145792320371" lon="8.712696991860867">
        <ele>688.59</ele>
        <time>2024-05-28T16:33:35.028Z</time>
      </trkpt>
      <trkpt lat="45.871451972052455" lon="8.712722975760698">
        <ele>688.81</ele>
        <time>2024-05-28T16:33:40.930Z</time>
      </trkpt>
      <trkpt lat="45.87144794873893" lon="8.712764969095588">
        <ele>689.04</ele>
        <time>2024-05-28T16:33:46.833Z</time>
      </trkpt>
      <trkpt lat="45.87145792320371" lon="8.712787935510278">
        <ele>689.26</ele>
        <time>2024-05-28T16:33:52.737Z</time>
      </trkpt>
      <trkpt lat="45.871474938467145" lon="8.71281492523849">
        <ele>689.49</ele>
        <time>2024-05-28T16:33:58.642Z</time>
      </trkpt>
      <trkpt lat="45.87148692458868" lon="8.71285499073565">
        <ele>689.73</ele>
        <time>2024-05-28T16:34:04.548Z</time>
      </trkpt>
      <trkpt lat="45.87148994207382" lon="8.712881980463862">
        <ele>689.98</ele>
        <time>2024-05-28T16:34:10.454Z</time>
      </trkpt>
      <trkpt lat="45.871496982872486" lon="8.712911987677217">
        <ele>690.23</ele>
        <time>2024-05-28T16:34:16.361Z</time>
      </trkpt>
      <trkpt lat="45.871499916538596" lon="8.712952975183725">
        <ele>690.49</ele>
        <time>2024-05-28T16:34:22.269Z</time>
      </trkpt>
      <trkpt lat="45.871512992307544" lon="8.712997986003757">
        <ele>690.75</ele>
        <time>2024-05-28T16:34:28.178Z</time>
      </trkpt>
      <trkpt lat="45.87153495289385" lon="8.713037967681885">
        <ele>691.02</ele>
        <time>2024-05-28T16:34:34.088Z</time>
      </trkpt>
      <trkpt lat="45.87154794484377" lon="8.713057916611433">
        <ele>691.29</ele>
        <time>2024-05-28T16:34:39.999Z</time>
      </trkpt>
      <trkpt lat="45.87155196815729" lon="8.713096976280212">
        <ele>691.56</ele>
        <time>2024-05-28T16:34:45.911Z</time>
      </trkpt>
      <trkpt lat="45.87153495289385" lon="8.713141987100244">
        <ele>691.84</ele>
        <time>2024-05-28T16:34:51.824Z</time>
      </trkpt>
      <trkpt lat="45.871537970378995" lon="8.71317794546485">
        <ele>692.12</ele>
        <time>2024-05-28T16:34:57.738Z</time>
      </trkpt>
      <trkpt lat="45.87152799591422" lon="8.713219938799739">
        <ele>692.41</ele>
        <time>2024-05-28T16:35:03.653Z</time>
      </trkpt>
      <trkpt lat="45.87152497842908" lon="8.713251957669854">
        <ele>692.7</ele>
        <time>2024-05-28T16:35:09.569Z</time>
      </trkpt>
      <trkpt lat="45.871512992307544" lon="8.713274924084544">
        <ele>692.98</ele>
        <time>2024-05-28T16:35:15.485Z</time>
      </trkpt>
      <trkpt lat="45.871512992307544" lon="8.71330694295466">
        <ele>693.28</ele>
        <time>2024-05-28T16:35:21.402Z</time>
      </trkpt>
      <trkpt lat="45.871499916538596" lon="8.713336950168014">
        <ele>693.58</ele>
        <time>2024-05-28T16:35:27.320Z</time>
      </trkpt>
      <trkpt lat="45.871512992307544" lon="8.713359916582704">
        <ele>693.89</ele>
        <time>2024-05-28T16:35:33.239Z</time>
      </trkpt>
      <trkpt lat="45.871512992307544" lon="8.713387995958328">
        <ele>694.2</ele>
        <time>2024-05-28T16:35:39.158Z</time>
      </trkpt>
      <trkpt lat="45.87152497842908" lon="8.71341498568654">
        <ele>694.51</ele>
        <time>2024-05-28T16:35:45.078Z</time>
      </trkpt>
      <trkpt lat="45.87153495289385" lon="8.713439963757992">
        <ele>694.83</ele>
        <time>2024-05-28T16:35:50.999Z</time>
      </trkpt>
      <trkpt lat="45.87154794484377" lon="8.713482962921262">
        <ele>695.17</ele>
        <time>2024-05-28T16:35:56.921Z</time>
      </trkpt>
      <trkpt lat="45.871559930965304" lon="8.71352294459939">
        <ele>695.51</ele>
        <time>2024-05-28T16:36:02.844Z</time>
      </trkpt>
      <trkpt lat="45.87156998924911" lon="8.713547922670841">
        <ele>695.84</ele>
        <time>2024-05-28T16:36:08.768Z</time>
      </trkpt>
      <trkpt lat="45.87157694622874" lon="8.713579941540956">
        <ele>696.19</ele>
        <time>2024-05-28T16:36:14.692Z</time>
      </trkpt>
      <trkpt lat="45.87158993817866" lon="8.713597962632775">
        <ele>696.53</ele>
        <time>2024-05-28T16:36:20.617Z</time>
      </trkpt>
      <trkpt lat="45.871604941785336" lon="8.713632998988032">
        <ele>696.88</ele>
        <time>2024-05-28T16:36:26.543Z</time>
      </trkpt>
      <trkpt lat="45.871604941785336" lon="8.713667951524258">
        <ele>697.24</ele>
        <time>2024-05-28T16:36:32.470Z</time>
      </trkpt>
      <trkpt lat="45.87161793373525" lon="8.713701982051134">
        <ele>697.6</ele>
        <time>2024-05-28T16:36:38.398Z</time>
      </trkpt>
      <trkpt lat="45.87163193151355" lon="8.713741963729262">
        <ele>697.96</ele>
        <time>2024-05-28T16:36:44.327Z</time>
      </trkpt>
      <trkpt lat="45.87163193151355" lon="8.713786974549294">
        <ele>698.33</ele>
        <time>2024-05-28T16:36:50.257Z</time>
      </trkpt>
      <trkpt lat="45.87163796648383" lon="8.713826956227422">
        <ele>698.71</ele>
        <time>2024-05-28T16:36:56.188Z</time>
      </trkpt>
      <trkpt lat="45.87163997814059" lon="8.713852940127254">
        <ele>699.08</ele>
        <time>2024-05-28T16:37:02.119Z</time>
      </trkpt>
      <trkpt lat="45.87165297009051" lon="8.713879929855466">
        <ele>699.46</ele>
        <time>2024-05-28T16:37:08.051Z</time>
      </trkpt>
      <trkpt lat="45.87165992707014" lon="8.713919995352626">
        <ele>699.85</ele>
        <time>2024-05-28T16:37:13.984Z</time>
      </trkpt>
      <trkpt lat="45.87167291902006" lon="8.713959977030754">
        <ele>700.25</ele>
        <time>2024-05-28T16:37:19.918Z</time>
      </trkpt>
      <trkpt lat="45.87167995981872" lon="8.713984955102205">
        <ele>700.65</ele>
        <time>2024-05-28T16:37:25.853Z</time>
      </trkpt>
      <trkpt lat="45.87170493789017" lon="8.714011944830418">
        <ele>701.05</ele>
        <time>2024-05-28T16:37:31.789Z</time>
      </trkpt>
      <trkpt lat="45.87171994149685" lon="8.714024936780334">
        <ele>701.46</ele>
        <time>2024-05-28T16:37:37.725Z</time>
      </trkpt>
      <trkpt lat="45.87173997424543" lon="8.71403994038701">
        <ele>701.88</ele>
        <time>2024-05-28T16:37:43.662Z</time>
      </trkpt>
      <trkpt lat="45.87173997424543" lon="8.714074976742268">
        <ele>702.3</ele>
        <time>2024-05-28T16:37:49.600Z</time>
      </trkpt>
      <trkpt lat="45.87174693122506" lon="8.714116970077157">
        <ele>702.73</ele>
        <time>2024-05-28T16:37:55.539Z</time>
      </trkpt>
      <trkpt lat="45.87176495231688" lon="8.714147983118892">
        <ele>703.17</ele>
        <time>2024-05-28T16:38:01.479Z</time>
      </trkpt>
      <trkpt lat="45.87175992317498" lon="8.714182935655117">
        <ele>703.62</ele>
        <time>2024-05-28T16:38:07.420Z</time>
      </trkpt>
      <trkpt lat="45.871771993115544" lon="8.714214954525232">
        <ele>704.07</ele>
        <time>2024-05-28T16:38:13.362Z</time>
      </trkpt>
      <trkpt lat="45.871777944266796" lon="8.714247979223728">
        <ele>704.53</ele>
        <time>2024-05-28T16:38:19.304Z</time>
      </trkpt>
      <trkpt lat="45.87180694565177" lon="8.714279998093843">
        <ele>705.01</ele>
        <time>2024-05-28T16:38:25.248Z</time>
      </trkpt>
      <trkpt lat="45.871819937601686" lon="8.714301958680153">
        <ele>705.49</ele>
        <time>2024-05-28T16:38:31.192Z</time>
      </trkpt>
      <trkpt lat="45.8718329295516" lon="8.714326936751604">
        <ele>705.97</ele>
        <time>2024-05-28T16:38:37.137Z</time>
      </trkpt>
      <trkpt lat="45.8718519564718" lon="8.714334983378649">
        <ele>706.45</ele>
        <time>2024-05-28T16:38:43.083Z</time>
      </trkpt>
      <trkpt lat="45.87188699282706" lon="8.714354932308197">
        <ele>706.94</ele>
        <time>2024-05-28T16:38:49.030Z</time>
      </trkpt>
      <trkpt lat="45.87190995924175" lon="8.714371947571635">
        <ele>707.44</ele>
        <time>2024-05-28T16:38:54.978Z</time>
      </trkpt>
      <trkpt lat="45.87189294397831" lon="8.714386951178312">
        <ele>707.93</ele>
        <time>2024-05-28T16:39:00.926Z</time>
      </trkpt>
      <trkpt lat="45.87191993370652" lon="8.714406983926892">
        <ele>708.43</ele>
        <time>2024-05-28T16:39:06.875Z</time>
      </trkpt>
      <trkpt lat="45.8719349373132" lon="8.714419975876808">
        <ele>708.93</ele>
        <time>2024-05-28T16:39:12.825Z</time>
      </trkpt>
      <trkpt lat="45.87193191982806" lon="8.714447971433401">
        <ele>709.44</ele>
        <time>2024-05-28T16:39:18.776Z</time>
      </trkpt>
      <trkpt lat="45.871947929263115" lon="8.71446792036295">
        <ele>709.95</ele>
        <time>2024-05-28T16:39:24.727Z</time>
      </trkpt>
      <trkpt lat="45.87196293286979" lon="8.714486947283149">
        <ele>710.47</ele>
        <time>2024-05-28T16:39:30.679Z</time>
      </trkpt>
      <trkpt lat="45.871969973668456" lon="8.714517960324883">
        <ele>710.98</ele>
        <time>2024-05-28T16:39:36.632Z</time>
      </trkpt>
      <trkpt lat="45.871986988931894" lon="8.714536987245083">
        <ele>711.49</ele>
        <time>2024-05-28T16:39:42.585Z</time>
      </trkpt>
      <trkpt lat="45.8720179181546" lon="8.714557942003012">
        <ele>712.01</ele>
        <time>2024-05-28T16:39:48.540Z</time>
      </trkpt>
      <trkpt lat="45.87204993702471" lon="8.714576968923211">
        <ele>712.52</ele>
        <time>2024-05-28T16:39:54.496Z</time>
      </trkpt>
      <trkpt lat="45.872072987258434" lon="8.714599935337901">
        <ele>713.03</ele>
        <time>2024-05-28T16:40:00.453Z</time>
      </trkpt>
      <trkpt lat="45.87208497337997" lon="8.714619968086481">
        <ele>713.53</ele>
        <time>2024-05-28T16:40:06.410Z</time>
      </trkpt>
      <trkpt lat="45.87210793979466" lon="8.714644946157932">
        <ele>714.04</ele>
        <time>2024-05-28T16:40:12.368Z</time>
      </trkpt>
      <trkpt lat="45.87212696671486" lon="8.71468492783606">
        <ele>714.55</ele>
        <time>2024-05-28T16:40:18.327Z</time>
      </trkpt>
      <trkpt lat="45.87214699946344" lon="8.714716946706176">
        <ele>715.05</ele>
        <time>2024-05-28T16:40:24.287Z</time>
      </trkpt>
      <trkpt lat="45.872161919251084" lon="8.714744942262769">
        <ele>715.54</ele>
        <time>2024-05-28T16:40:30.248Z</time>
      </trkpt>
      <trkpt lat="45.87217499502003" lon="8.7147899530828">
        <ele>716.03</ele>
        <time>2024-05-28T16:40:36.210Z</time>
      </trkpt>
      <trkpt lat="45.872184969484806" lon="8.714817948639393">
        <ele>716.5</ele>
        <time>2024-05-28T16:40:42.173Z</time>
      </trkpt>
      <trkpt lat="45.87219997309148" lon="8.714849967509508">
        <ele>716.97</ele>
        <time>2024-05-28T16:40:48.137Z</time>
      </trkpt>
      <trkpt lat="45.8722129650414" lon="8.714889949187636">
        <ele>717.43</ele>
        <time>2024-05-28T16:40:54.102Z</time>
      </trkpt>
      <trkpt lat="45.87222998030484" lon="8.714909981936216">
        <ele>717.88</ele>
        <time>2024-05-28T16:41:00.068Z</time>
      </trkpt>
      <trkpt lat="45.87225194089115" lon="8.714927919209003">
        <ele>718.31</ele>
        <time>2024-05-28T16:41:06.035Z</time>
      </trkpt>
      <trkpt lat="45.872267950326204" lon="8.7149419169873">
        <ele>718.73</ele>
        <time>2024-05-28T16:41:12.002Z</time>
      </trkpt>
      <trkpt lat="45.872292928397655" lon="8.714964967221022">
        <ele>719.15</ele>
        <time>2024-05-28T16:41:17.970Z</time>
      </trkpt>
      <trkpt lat="45.87232796475291" lon="8.714987933635712">
        <ele>719.55</ele>
        <time>2024-05-28T16:41:23.940Z</time>
      </trkpt>
      <trkpt lat="45.87235998362303" lon="8.715014923363924">
        <ele>719.94</ele>
        <time>2024-05-28T16:41:29.911Z</time>
      </trkpt>
      <trkpt lat="45.872379932552576" lon="8.71504694223404">
        <ele>720.31</ele>
        <time>2024-05-28T16:41:35.883Z</time>
      </trkpt>
      <trkpt lat="45.872396947816014" lon="8.715072926133871">
        <ele>720.67</ele>
        <time>2024-05-28T16:41:41.856Z</time>
      </trkpt>
      <trkpt lat="45.87241195142269" lon="8.715099999681115">
        <ele>721.01</ele>
        <time>2024-05-28T16:41:47.829Z</time>
      </trkpt>
      <trkpt lat="45.872421925887465" lon="8.715139981359243">
        <ele>721.34</ele>
        <time>2024-05-28T16:41:53.803Z</time>
      </trkpt>
      <trkpt lat="45.872421925887465" lon="8.715166971087456">
        <ele>721.65</ele>
        <time>2024-05-28T16:41:59.778Z</time>
      </trkpt>
      <trkpt lat="45.87242796085775" lon="8.715199995785952">
        <ele>721.95</ele>
        <time>2024-05-28T16:42:05.754Z</time>
      </trkpt>
      <trkpt lat="45.87243491783738" lon="8.715227991342545">
        <ele>722.23</ele>
        <time>2024-05-28T16:42:11.730Z</time>
      </trkpt>
      <trkpt lat="45.872439946979284" lon="8.715256992727518">
        <ele>722.49</ele>
        <time>2024-05-28T16:42:17.707Z</time>
      </trkpt>
      <trkpt lat="45.872442964464426" lon="8.71528197079897">
        <ele>722.74</ele>
        <time>2024-05-28T16:42:23.685Z</time>
      </trkpt>
      <trkpt lat="45.87243491783738" lon="8.715314995497465">
        <ele>722.97</ele>
        <time>2024-05-28T16:42:29.664Z</time>
      </trkpt>
      <trkpt lat="45.872439946979284" lon="8.715359922498465">
        <ele>723.18</ele>
        <time>2024-05-28T16:42:35.644Z</time>
      </trkpt>
      <trkpt lat="45.872442964464426" lon="8.715389929711819">
        <ele>723.36</ele>
        <time>2024-05-28T16:42:41.624Z</time>
      </trkpt>
      <trkpt lat="45.87243198417127" lon="8.715424966067076">
        <ele>723.53</ele>
        <time>2024-05-28T16:42:47.605Z</time>
      </trkpt>
      <trkpt lat="45.87242494337261" lon="8.71545497328043">
        <ele>723.68</ele>
        <time>2024-05-28T16:42:53.587Z</time>
      </trkpt>
      <trkpt lat="45.87240792810917" lon="8.715471988543868">
        <ele>723.82</ele>
        <time>2024-05-28T16:42:59.570Z</time>
      </trkpt>
      <trkpt lat="45.87242796085775" lon="8.715502917766571">
        <ele>723.93</ele>
        <time>2024-05-28T16:43:05.554Z</time>
      </trkpt>
      <trkpt lat="45.87243491783738" lon="8.715527979657054">
        <ele>724.03</ele>
        <time>2024-05-28T16:43:11.538Z</time>
      </trkpt>
      <trkpt lat="45.87244698777795" lon="8.71556293219328">
        <ele>724.1</ele>
        <time>2024-05-28T16:43:17.523Z</time>
      </trkpt>
      <trkpt lat="45.87244992144406" lon="8.715594951063395">
        <ele>724.16</ele>
        <time>2024-05-28T16:43:23.509Z</time>
      </trkpt>
      <trkpt lat="45.8724669367075" lon="8.715589921921492">
        <ele>724.19</ele>
        <time>2024-05-28T16:43:29.496Z</time>
      </trkpt>
      <trkpt lat="45.87248797528446" lon="8.71556293219328">
        <ele>724.18</ele>
        <time>2024-05-28T16:43:35.483Z</time>
      </trkpt>
      <trkpt lat="45.872504990547895" lon="8.715522950515151">
        <ele>724.16</ele>
        <time>2024-05-28T16:43:41.472Z</time>
      </trkpt>
      <trkpt lat="45.872507924214005" lon="8.715494954958558">
        <ele>724.13</ele>
        <time>2024-05-28T16:43:47.461Z</time>
      </trkpt>
      <trkpt lat="45.87252996861935" lon="8.715459918603301">
        <ele>724.08</ele>
        <time>2024-05-28T16:43:53.451Z</time>
      </trkpt>
      <trkpt lat="45.87255293503404" lon="8.715436952188611">
        <ele>724.02</ele>
        <time>2024-05-28T16:43:59.442Z</time>
      </trkpt>
      <trkpt lat="45.8725599758327" lon="8.71541197411716">
        <ele>723.94</ele>
        <time>2024-05-28T16:44:05.434Z</time>
      </trkpt>
      <trkpt lat="45.87258193641901" lon="8.715379955247045">
        <ele>723.84</ele>
        <time>2024-05-28T16:44:11.427Z</time>
      </trkpt>
      <trkpt lat="45.872591994702816" lon="8.715357994660735">
        <ele>723.73</ele>
        <time>2024-05-28T16:44:17.421Z</time>
      </trkpt>
      <trkpt lat="45.87259995751083" lon="8.715334944427013">
        <ele>723.61</ele>
        <time>2024-05-28T16:44:23.415Z</time>
      </trkpt>
      <trkpt lat="45.8726099319756" lon="8.715311978012323">
        <ele>723.46</ele>
        <time>2024-05-28T16:44:29.410Z</time>
      </trkpt>
      <trkpt lat="45.87262694723904" lon="8.715289933606982">
        <ele>723.31</ele>
        <time>2024-05-28T16:44:35.406Z</time>
      </trkpt>
      <trkpt lat="45.87265192531049" lon="8.715269984677434">
        <ele>723.13</ele>
        <time>2024-05-28T16:44:41.402Z</time>
      </trkpt>
      <trkpt lat="45.87268293835223" lon="8.71523997746408">
        <ele>722.94</ele>
        <time>2024-05-28T16:44:47.400Z</time>
      </trkpt>
      <trkpt lat="45.872699953615665" lon="8.715217933058739">
        <ele>722.75</ele>
        <time>2024-05-28T16:44:53.399Z</time>
      </trkpt>
      <trkpt lat="45.87272493168712" lon="8.715217933058739">
        <ele>722.54</ele>
        <time>2024-05-28T16:44:59.398Z</time>
      </trkpt>
      <trkpt lat="45.8727449644357" lon="8.715217933058739">
        <ele>722.32</ele>
        <time>2024-05-28T16:45:05.398Z</time>
      </trkpt>
      <trkpt lat="45.87276994250715" lon="8.715212987735868">
        <ele>722.09</ele>
        <time>2024-05-28T16:45:11.399Z</time>
      </trkpt>
      <trkpt lat="45.87278997525573" lon="8.715201923623681">
        <ele>721.85</ele>
        <time>2024-05-28T16:45:17.401Z</time>
      </trkpt>
      <trkpt lat="45.87281193584204" lon="8.715199995785952">
        <ele>721.6</ele>
        <time>2024-05-28T16:45:23.403Z</time>
      </trkpt>
      <trkpt lat="45.87283196859062" lon="8.715201923623681">
        <ele>721.34</ele>
        <time>2024-05-28T16:45:29.406Z</time>
      </trkpt>
      <trkpt lat="45.87285694666207" lon="8.715202929452062">
        <ele>721.07</ele>
        <time>2024-05-28T16:45:35.410Z</time>
      </trkpt>
      <trkpt lat="45.87287697941065" lon="8.715206952765584">
        <ele>720.79</ele>
        <time>2024-05-28T16:45:41.414Z</time>
      </trkpt>
      <trkpt lat="45.8729019574821" lon="8.715212987735868">
        <ele>720.5</ele>
        <time>2024-05-28T16:45:47.419Z</time>
      </trkpt>
      <trkpt lat="45.87291997857392" lon="8.715217933058739">
        <ele>720.2</ele>
        <time>2024-05-28T16:45:53.425Z</time>
      </trkpt>
      <trkpt lat="45.87294998578727" lon="8.715216927230358">
        <ele>719.88</ele>
        <time>2024-05-28T16:45:59.432Z</time>
      </trkpt>
      <trkpt lat="45.87297194637358" lon="8.715217933058739">
        <ele>719.57</ele>
        <time>2024-05-28T16:46:05.440Z</time>
      </trkpt>
      <trkpt lat="45.87298795580864" lon="8.715216927230358">
        <ele>719.24</ele>
        <time>2024-05-28T16:46:11.448Z</time>
      </trkpt>
      <trkpt lat="45.87300295941532" lon="8.715232936665416">
        <ele>718.91</ele>
        <time>2024-05-28T16:46:17.457Z</time>
      </trkpt>
      <trkpt lat="45.873019974678755" lon="8.715244922786951">
        <ele>718.58</ele>
        <time>2024-05-28T16:46:23.466Z</time>
      </trkpt>
      <trkpt lat="45.8730399236083" lon="8.715236959978938">
        <ele>718.23</ele>
        <time>2024-05-28T16:46:29.476Z</time>
      </trkpt>
      <trkpt lat="45.873061968013644" lon="8.715217933058739">
        <ele>717.88</ele>
        <time>2024-05-28T16:46:35.487Z</time>
      </trkpt>
      <trkpt lat="45.87307194247842" lon="8.715199995785952">
        <ele>717.53</ele>
        <time>2024-05-28T16:46:41.499Z</time>
      </trkpt>
      <trkpt lat="45.87310295552015" lon="8.715186920017004">
        <ele>717.17</ele>
        <time>2024-05-28T16:46:47.512Z</time>
      </trkpt>
      <trkpt lat="45.87311997078359" lon="8.715172922238708">
        <ele>716.81</ele>
        <time>2024-05-28T16:46:53.525Z</time>
      </trkpt>
      <trkpt lat="45.87314494885504" lon="8.715172922238708">
        <ele>716.45</ele>
        <time>2024-05-28T16:46:59.539Z</time>
      </trkpt>
      <trkpt lat="45.873169926926494" lon="8.715166971087456">
        <ele>716.08</ele>
        <time>2024-05-28T16:47:05.554Z</time>
      </trkpt>
      <trkpt lat="45.87319993413985" lon="8.71515297330916">
        <ele>715.69</ele>
        <time>2024-05-28T16:47:11.570Z</time>
      </trkpt>
      <trkpt lat="45.87322499603033" lon="8.715137969702482">
        <ele>715.31</ele>
        <time>2024-05-28T16:47:17.587Z</time>
      </trkpt>
      <trkpt lat="45.87323999963701" lon="8.715121960267425">
        <ele>714.94</ele>
        <time>2024-05-28T16:47:23.605Z</time>
      </trkpt>
      <trkpt lat="45.87324695661664" lon="8.715092958882451">
        <ele>714.58</ele>
        <time>2024-05-28T16:47:29.623Z</time>
      </trkpt>
      <trkpt lat="45.873256931081414" lon="8.715059934183955">
        <ele>714.22</ele>
        <time>2024-05-28T16:47:35.642Z</time>
      </trkpt>
      <trkpt lat="45.87324293330312" lon="8.715014923363924">
        <ele>713.87</ele>
        <time>2024-05-28T16:47:41.662Z</time>
      </trkpt>
      <trkpt lat="45.873256931081414" lon="8.714972930029035">
        <ele>713.5</ele>
        <time>2024-05-28T16:47:47.683Z</time>
      </trkpt>
      <trkpt lat="45.8732819929719" lon="8.714934960007668">
        <ele>713.13</ele>
        <time>2024-05-28T16:47:53.706Z</time>
      </trkpt>
      <trkpt lat="45.87329791858792" lon="8.714912999421358">
        <ele>712.77</ele>
        <time>2024-05-28T16:47:59.729Z</time>
      </trkpt>
      <trkpt lat="45.87331493385136" lon="8.714887937530875">
        <ele>712.42</ele>
        <time>2024-05-28T16:48:05.753Z</time>
      </trkpt>
      <trkpt lat="45.873319962993264" lon="8.714854996651411">
        <ele>712.08</ele>
        <time>2024-05-28T16:48:11.778Z</time>
      </trkpt>
      <trkpt lat="45.87333295494318" lon="8.714827923104167">
        <ele>711.75</ele>
        <time>2024-05-28T16:48:17.804Z</time>
      </trkpt>
      <trkpt lat="45.873339995741844" lon="8.714796993881464">
        <ele>711.42</ele>
        <time>2024-05-28T16:48:23.830Z</time>
      </trkpt>
      <trkpt lat="45.87334695272148" lon="8.714764975011349">
        <ele>711.09</ele>
        <time>2024-05-28T16:48:29.857Z</time>
      </trkpt>
      <trkpt lat="45.87335692718625" lon="8.714731950312853">
        <ele>710.77</ele>
        <time>2024-05-28T16:48:35.885Z</time>
      </trkpt>
      <trkpt lat="45.87337796576321" lon="8.714709989726543">
        <ele>710.45</ele>
        <time>2024-05-28T16:48:41.914Z</time>
      </trkpt>
      <trkpt lat="45.87339992634952" lon="8.71468199416995">
        <ele>710.14</ele>
        <time>2024-05-28T16:48:47.944Z</time>
      </trkpt>
      <trkpt lat="45.87341291829944" lon="8.714651986956596">
        <ele>709.84</ele>
        <time>2024-05-28T16:48:53.975Z</time>
      </trkpt>
      <trkpt lat="45.873426999896765" lon="8.71461695060134">
        <ele>709.54</ele>
        <time>2024-05-28T16:49:00.007Z</time>
      </trkpt>
      <trkpt lat="45.87343697436154" lon="8.714581998065114">
        <ele>709.26</ele>
        <time>2024-05-28T16:49:06.039Z</time>
      </trkpt>
      <trkpt lat="45.873451977968216" lon="8.714541932567954">
        <ele>708.97</ele>
        <time>2024-05-28T16:49:12.073Z</time>
      </trkpt>
      <trkpt lat="45.87346496991813" lon="8.714506980031729">
        <ele>708.69</ele>
        <time>2024-05-28T16:49:18.107Z</time>
      </trkpt>
      <trkpt lat="45.87347997352481" lon="8.714471943676472">
        <ele>708.42</ele>
        <time>2024-05-28T16:49:24.142Z</time>
      </trkpt>
      <trkpt lat="45.87348693050444" lon="8.714441936463118">
        <ele>708.16</ele>
        <time>2024-05-28T16:49:30.178Z</time>
      </trkpt>
      <trkpt lat="45.87349992245436" lon="8.714407989755273">
        <ele>707.9</ele>
        <time>2024-05-28T16:49:36.215Z</time>
      </trkpt>
      <trkpt lat="45.87351995520294" lon="8.714372953400016">
        <ele>707.65</ele>
        <time>2024-05-28T16:49:42.253Z</time>
      </trkpt>
      <trkpt lat="45.87353194132447" lon="8.714332971721888">
        <ele>707.4</ele>
        <time>2024-05-28T16:49:48.292Z</time>
      </trkpt>
      <trkpt lat="45.87354199960828" lon="8.714287960901856">
        <ele>707.17</ele>
        <time>2024-05-28T16:49:54.332Z</time>
      </trkpt>
      <trkpt lat="45.87355197407305" lon="8.7142529245466">
        <ele>706.95</ele>
        <time>2024-05-28T16:50:00.373Z</time>
      </trkpt>
      <trkpt lat="45.87354493327439" lon="8.714204980060458">
        <ele>706.75</ele>
        <time>2024-05-28T16:50:06.415Z</time>
      </trkpt>
      <trkpt lat="45.873534958809614" lon="8.71416793204844">
        <ele>706.57</ele>
        <time>2024-05-28T16:50:12.458Z</time>
      </trkpt>
      <trkpt lat="45.87353194132447" lon="8.714136919006705">
        <ele>706.39</ele>
        <time>2024-05-28T16:50:18.502Z</time>
      </trkpt>
      <trkpt lat="45.87353194132447" lon="8.714096937328577">
        <ele>706.21</ele>
        <time>2024-05-28T16:50:24.547Z</time>
      </trkpt>
      <trkpt lat="45.87353194132447" lon="8.714042957872152">
        <ele>706.03</ele>
        <time>2024-05-28T16:50:30.593Z</time>
      </trkpt>
      <trkpt lat="45.87352498434484" lon="8.714006999507546">
        <ele>705.86</ele>
        <time>2024-05-28T16:50:36.640Z</time>
      </trkpt>
      <trkpt lat="45.8735219668597" lon="8.71397196315229">
        <ele>705.7</ele>
        <time>2024-05-28T16:50:42.688Z</time>
      </trkpt>
      <trkpt lat="45.87352498434484" lon="8.713939944282174">
        <ele>705.52</ele>
        <time>2024-05-28T16:50:48.737Z</time>
      </trkpt>
      <trkpt lat="45.87351995520294" lon="8.713891999796033">
        <ele>705.35</ele>
        <time>2024-05-28T16:50:54.787Z</time>
      </trkpt>
      <trkpt lat="45.87351995520294" lon="8.713849922642112">
        <ele>705.18</ele>
        <time>2024-05-28T16:51:00.838Z</time>
      </trkpt>
      <trkpt lat="45.87351995520294" lon="8.713812958449125">
        <ele>705.01</ele>
        <time>2024-05-28T16:51:06.890Z</time>
      </trkpt>
      <trkpt lat="45.87352498434484" lon="8.713787980377674">
        <ele>704.84</ele>
        <time>2024-05-28T16:51:12.942Z</time>
      </trkpt>
      <trkpt lat="45.873534958809614" lon="8.71375696733594">
        <ele>704.66</ele>
        <time>2024-05-28T16:51:18.995Z</time>
      </trkpt>
      <trkpt lat="45.87354199960828" lon="8.713722936809063">
        <ele>704.48</ele>
        <time>2024-05-28T16:51:25.049Z</time>
      </trkpt>
      <trkpt lat="45.87354493327439" lon="8.713686978444457">
        <ele>704.3</ele>
        <time>2024-05-28T16:51:31.104Z</time>
      </trkpt>
      <trkpt lat="45.873559936881065" lon="8.713654959574342">
        <ele>704.11</ele>
        <time>2024-05-28T16:51:37.159Z</time>
      </trkpt>
      <trkpt lat="45.87356295436621" lon="8.713617995381355">
        <ele>703.92</ele>
        <time>2024-05-28T16:51:43.215Z</time>
      </trkpt>
      <trkpt lat="45.87356697767973" lon="8.713587988168001">
        <ele>703.73</ele>
        <time>2024-05-28T16:51:49.272Z</time>
      </trkpt>
      <trkpt lat="45.87356295436621" lon="8.713554963469505">
        <ele>703.55</ele>
        <time>2024-05-28T16:51:55.330Z</time>
      </trkpt>
      <trkpt lat="45.87354493327439" lon="8.713514981791377">
        <ele>703.37</ele>
        <time>2024-05-28T16:52:01.389Z</time>
      </trkpt>
      <trkpt lat="45.87353194132447" lon="8.713469970971346">
        <ele>703.19</ele>
        <time>2024-05-28T16:52:07.449Z</time>
      </trkpt>
      <trkpt lat="45.873512998223305" lon="8.713422948494554">
        <ele>703.0</ele>
        <time>2024-05-28T16:52:13.510Z</time>
      </trkpt>
      <trkpt lat="45.87347997352481" lon="8.71334994211793">
        <ele>702.8</ele>
        <time>2024-05-28T16:52:19.573Z</time>
      </trkpt>
      <trkpt lat="45.873467987403274" lon="8.713309960439801">
        <ele>702.59</ele>
        <time>2024-05-28T16:52:25.637Z</time>
      </trkpt>
      <trkpt lat="45.87346496991813" lon="8.713271990418434">
        <ele>702.35</ele>
        <time>2024-05-28T16:52:31.702Z</time>
      </trkpt>
      <trkpt lat="45.87345792911947" lon="8.713234942406416">
        <ele>702.12</ele>
        <time>2024-05-28T16:52:37.768Z</time>
      </trkpt>
      <trkpt lat="45.87346195243299" lon="8.713194960728288">
        <ele>701.86</ele>
        <time>2024-05-28T16:52:43.835Z</time>
      </trkpt>
      <trkpt lat="45.87345792911947" lon="8.713164953514934">
        <ele>701.6</ele>
        <time>2024-05-28T16:52:49.903Z</time>
      </trkpt>
      <trkpt lat="45.873451977968216" lon="8.713131928816438">
        <ele>701.34</ele>
        <time>2024-05-28T16:52:55.972Z</time>
      </trkpt>
      <trkpt lat="45.87344191968441" lon="8.713079961016774">
        <ele>701.07</ele>
        <time>2024-05-28T16:53:02.042Z</time>
      </trkpt>
      <trkpt lat="45.873426999896765" lon="8.713032938539982">
        <ele>700.78</ele>
        <time>2024-05-28T16:53:08.113Z</time>
      </trkpt>
      <trkpt lat="45.87341291829944" lon="8.712999997660518">
        <ele>700.5</ele>
        <time>2024-05-28T16:53:14.185Z</time>
      </trkpt>
      <trkpt lat="45.87340294383466" lon="8.71294199489057">
        <ele>700.19</ele>
        <time>2024-05-28T16:53:20.258Z</time>
      </trkpt>
      <trkpt lat="45.87340294383466" lon="8.712907964363694">
        <ele>699.87</ele>
        <time>2024-05-28T16:53:26.332Z</time>
      </trkpt>
      <trkpt lat="45.87339992634952" lon="8.712874939665198">
        <ele>699.54</ele>
        <time>2024-05-28T16:53:32.407Z</time>
      </trkpt>
      <trkpt lat="45.87339498102665" lon="8.712829928845167">
        <ele>699.2</ele>
        <time>2024-05-28T16:53:38.483Z</time>
      </trkpt>
      <trkpt lat="45.873384922742844" lon="8.712804950773716">
        <ele>698.87</ele>
        <time>2024-05-28T16:53:44.560Z</time>
      </trkpt>
      <trkpt lat="45.87337494827807" lon="8.712774943560362">
        <ele>698.52</ele>
        <time>2024-05-28T16:53:50.637Z</time>
      </trkpt>
      <trkpt lat="45.873364973813295" lon="8.712739991024137">
        <ele>698.16</ele>
        <time>2024-05-28T16:53:56.715Z</time>
      </trkpt>
      <trkpt lat="45.87335298769176" lon="8.712702943012118">
        <ele>697.79</ele>
        <time>2024-05-28T16:54:02.794Z</time>
      </trkpt>
      <trkpt lat="45.873342929407954" lon="8.71266296133399">
        <ele>697.41</ele>
        <time>2024-05-28T16:54:08.874Z</time>
      </trkpt>
      <trkpt lat="45.873342929407954" lon="8.712629936635494">
        <ele>697.01</ele>
        <time>2024-05-28T16:54:14.955Z</time>
      </trkpt>
      <trkpt lat="45.87334695272148" lon="8.712602946907282">
        <ele>696.61</ele>
        <time>2024-05-28T16:54:21.037Z</time>
      </trkpt>
      <trkpt lat="45.87334695272148" lon="8.71255693025887">
        <ele>696.19</ele>
        <time>2024-05-28T16:54:27.120Z</time>
      </trkpt>
      <trkpt lat="45.87335793301463" lon="8.712536981329322">
        <ele>695.76</ele>
        <time>2024-05-28T16:54:33.203Z</time>
      </trkpt>
      <trkpt lat="45.873364973813295" lon="8.712499933317304">
        <ele>695.32</ele>
        <time>2024-05-28T16:54:39.287Z</time>
      </trkpt>
      <trkpt lat="45.87334695272148" lon="8.712474955245852">
        <ele>694.9</ele>
        <time>2024-05-28T16:54:45.372Z</time>
      </trkpt>
      <trkpt lat="45.873339995741844" lon="8.712437991052866">
        <ele>694.46</ele>
        <time>2024-05-28T16:54:51.458Z</time>
      </trkpt>
      <trkpt lat="45.87333295494318" lon="8.712406978011131">
        <ele>694.02</ele>
        <time>2024-05-28T16:54:57.545Z</time>
      </trkpt>
      <trkpt lat="45.873322980478406" lon="8.712367918342352">
        <ele>693.57</ele>
        <time>2024-05-28T16:55:03.633Z</time>
      </trkpt>
      <trkpt lat="45.873322980478406" lon="8.712322991341352">
        <ele>693.1</ele>
        <time>2024-05-28T16:55:09.722Z</time>
      </trkpt>
      <trkpt lat="45.873319962993264" lon="8.71227697469294">
        <ele>692.64</ele>
        <time>2024-05-28T16:55:15.812Z</time>
      </trkpt>
      <trkpt lat="45.87331493385136" lon="8.712239926680923">
        <ele>692.18</ele>
        <time>2024-05-28T16:55:21.903Z</time>
      </trkpt>
      <trkpt lat="45.87330797687173" lon="8.71221293695271">
        <ele>691.71</ele>
        <time>2024-05-28T16:55:27.994Z</time>
      </trkpt>
      <trkpt lat="45.873319962993264" lon="8.712186953052878">
        <ele>691.24</ele>
        <time>2024-05-28T16:55:34.086Z</time>
      </trkpt>
      <trkpt lat="45.87333295494318" lon="8.712152922526002">
        <ele>690.76</ele>
        <time>2024-05-28T16:55:40.179Z</time>
      </trkpt>
      <trkpt lat="45.87330797687173" lon="8.712114952504635">
        <ele>690.3</ele>
        <time>2024-05-28T16:55:46.273Z</time>
      </trkpt>
      <trkpt lat="45.8732819929719" lon="8.71207999996841">
        <ele>689.83</ele>
        <time>2024-05-28T16:55:52.368Z</time>
      </trkpt>
      <trkpt lat="45.8732629660517" lon="8.712032977491617">
        <ele>689.36</ele>
        <time>2024-05-28T16:55:58.465Z</time>
      </trkpt>
      <trkpt lat="45.873279981315136" lon="8.712009927257895">
        <ele>688.88</ele>
        <time>2024-05-28T16:56:04.562Z</time>
      </trkpt>
      <trkpt lat="45.8732819929719" lon="8.711982937529683">
        <ele>688.4</ele>
        <time>2024-05-28T16:56:10.660Z</time>
      </trkpt>
      <trkpt lat="45.8732819929719" lon="8.711956953629851">
        <ele>687.93</ele>
        <time>2024-05-28T16:56:16.759Z</time>
      </trkpt>
      <trkpt lat="45.8732819929719" lon="8.711929963901639">
        <ele>687.46</ele>
        <time>2024-05-28T16:56:22.858Z</time>
      </trkpt>
      <trkpt lat="45.8732819929719" lon="8.711901968345046">
        <ele>686.98</ele>
        <time>2024-05-28T16:56:28.958Z</time>
      </trkpt>
      <trkpt lat="45.87328794412315" lon="8.711851928383112">
        <ele>686.5</ele>
        <time>2024-05-28T16:56:35.059Z</time>
      </trkpt>
      <trkpt lat="45.8732819929719" lon="8.711804989725351">
        <ele>686.03</ele>
        <time>2024-05-28T16:56:41.161Z</time>
      </trkpt>
      <trkpt lat="45.87326992303133" lon="8.711774982511997">
        <ele>685.58</ele>
        <time>2024-05-28T16:56:47.264Z</time>
      </trkpt>
      <trkpt lat="45.873259948566556" lon="8.711751932278275">
        <ele>685.13</ele>
        <time>2024-05-28T16:56:53.368Z</time>
      </trkpt>
      <trkpt lat="45.87324695661664" lon="8.711724942550063">
        <ele>684.68</ele>
        <time>2024-05-28T16:56:59.472Z</time>
      </trkpt>
      <trkpt lat="45.87322499603033" lon="8.711679931730032">
        <ele>684.23</ele>
        <time>2024-05-28T16:57:05.578Z</time>
      </trkpt>
      <trkpt lat="45.87320798076689" lon="8.71165294200182">
        <ele>683.79</ele>
        <time>2024-05-28T16:57:11.685Z</time>
      </trkpt>
      <trkpt lat="45.873189959675074" lon="8.711619917303324">
        <ele>683.36</ele>
        <time>2024-05-28T16:57:17.793Z</time>
      </trkpt>
      <trkpt lat="45.873169926926494" lon="8.711599968373775">
        <ele>682.94</ele>
        <time>2024-05-28T16:57:23.901Z</time>
      </trkpt>
      <trkpt lat="45.87316296994686" lon="8.71156794950366">
        <ele>682.51</ele>
        <time>2024-05-28T16:57:30.010Z</time>
      </trkpt>
      <trkpt lat="45.873147966340184" lon="8.711532996967435">
        <ele>682.09</ele>
        <time>2024-05-28T16:57:36.120Z</time>
      </trkpt>
      <trkpt lat="45.87313497439027" lon="8.7115019839257">
        <ele>681.69</ele>
        <time>2024-05-28T16:57:42.231Z</time>
      </trkpt>
      <trkpt lat="45.87312198244035" lon="8.711467953398824">
        <ele>681.29</ele>
        <time>2024-05-28T16:57:48.343Z</time>
      </trkpt>
      <trkpt lat="45.87310999631882" lon="8.711434928700328">
        <ele>680.89</ele>
        <time>2024-05-28T16:57:54.456Z</time>
      </trkpt>
      <trkpt lat="45.87309993803501" lon="8.711401987820864">
        <ele>680.51</ele>
        <time>2024-05-28T16:58:00.570Z</time>
      </trkpt>
      <trkpt lat="45.87309692054987" lon="8.711374998092651">
        <ele>680.14</ele>
        <time>2024-05-28T16:58:06.684Z</time>
      </trkpt>
      <trkpt lat="45.87309692054987" lon="8.711339961737394">
        <ele>679.77</ele>
        <time>2024-05-28T16:58:12.799Z</time>
      </trkpt>
      <trkpt lat="45.87308996357024" lon="8.711302997544408">
        <ele>679.41</ele>
        <time>2024-05-28T16:58:18.915Z</time>
      </trkpt>
      <trkpt lat="45.8730779774487" lon="8.711239965632558">
        <ele>679.06</ele>
        <time>2024-05-28T16:58:25.032Z</time>
      </trkpt>
      <trkpt lat="45.87305794470012" lon="8.71119998395443">
        <ele>678.73</ele>
        <time>2024-05-28T16:58:31.151Z</time>
      </trkpt>
      <trkpt lat="45.87304797023535" lon="8.711164947599173">
        <ele>678.4</ele>
        <time>2024-05-28T16:58:37.270Z</time>
      </trkpt>
      <trkpt lat="45.8730399236083" lon="8.711121948435903">
        <ele>678.07</ele>
        <time>2024-05-28T16:58:43.390Z</time>
      </trkpt>
      <trkpt lat="45.87302994914353" lon="8.711079955101013">
        <ele>677.76</ele>
        <time>2024-05-28T16:58:49.512Z</time>
      </trkpt>
      <trkpt lat="45.87302994914353" lon="8.711044918745756">
        <ele>677.44</ele>
        <time>2024-05-28T16:58:55.634Z</time>
      </trkpt>
      <trkpt lat="45.8730229921639" lon="8.711001919582486">
        <ele>677.15</ele>
        <time>2024-05-28T16:59:01.757Z</time>
      </trkpt>
      <trkpt lat="45.87301695719361" lon="8.710971996188164">
        <ele>676.86</ele>
        <time>2024-05-28T16:59:07.881Z</time>
      </trkpt>
      <trkpt lat="45.87302693165839" lon="8.710912987589836">
        <ele>676.56</ele>
        <time>2024-05-28T16:59:14.007Z</time>
      </trkpt>
      <trkpt lat="45.87302994914353" lon="8.710877951234579">
        <ele>676.28</ele>
        <time>2024-05-28T16:59:20.133Z</time>
      </trkpt>
      <trkpt lat="45.87303698994219" lon="8.710847944021225">
        <ele>676.01</ele>
        <time>2024-05-28T16:59:26.260Z</time>
      </trkpt>
      <trkpt lat="45.873044952750206" lon="8.710807962343097">
        <ele>675.74</ele>
        <time>2024-05-28T16:59:32.388Z</time>
      </trkpt>
      <trkpt lat="45.87305492721498" lon="8.710761945694685">
        <ele>675.48</ele>
        <time>2024-05-28T16:59:38.517Z</time>
      </trkpt>
      <trkpt lat="45.873044952750206" lon="8.710721964016557">
        <ele>675.24</ele>
        <time>2024-05-28T16:59:44.647Z</time>
      </trkpt>
      <trkpt lat="45.873041935265064" lon="8.710679970681667">
        <ele>675.01</ele>
        <time>2024-05-28T16:59:50.778Z</time>
      </trkpt>
      <trkpt lat="45.87303698994219" lon="8.710629930719733">
        <ele>674.78</ele>
        <time>2024-05-28T16:59:56.910Z</time>
      </trkpt>
      <trkpt lat="45.87302994914353" lon="8.71060294099152">
        <ele>674.57</ele>
        <time>2024-05-28T17:00:03.043Z</time>
      </trkpt>
      <trkpt lat="45.87302693165839" lon="8.710562959313393">
        <ele>674.35</ele>
        <time>2024-05-28T17:00:09.177Z</time>
      </trkpt>
      <trkpt lat="45.87301695719361" lon="8.710522977635264">
        <ele>674.15</ele>
        <time>2024-05-28T17:00:15.312Z</time>
      </trkpt>
      <trkpt lat="45.873019974678755" lon="8.710486935451627">
        <ele>673.94</ele>
        <time>2024-05-28T17:00:21.448Z</time>
      </trkpt>
      <trkpt lat="45.873019974678755" lon="8.710454916581511">
        <ele>673.74</ele>
        <time>2024-05-28T17:00:27.585Z</time>
      </trkpt>
      <trkpt lat="45.87302994914353" lon="8.710424993187189">
        <ele>673.55</ele>
        <time>2024-05-28T17:00:33.722Z</time>
      </trkpt>
      <trkpt lat="45.8730399236083" lon="8.710399931296706">
        <ele>673.36</ele>
        <time>2024-05-28T17:00:39.860Z</time>
      </trkpt>
      <trkpt lat="45.8730229921639" lon="8.710349975153804">
        <ele>673.18</ele>
        <time>2024-05-28T17:00:45.999Z</time>
      </trkpt>
      <trkpt lat="45.87301695719361" lon="8.71031996794045">
        <ele>673.0</ele>
        <time>2024-05-28T17:00:52.139Z</time>
      </trkpt>
      <trkpt lat="45.87300991639495" lon="8.710292978212237">
        <ele>672.84</ele>
        <time>2024-05-28T17:00:58.280Z</time>
      </trkpt>
      <trkpt lat="45.87300295941532" lon="8.710266994312406">
        <ele>672.67</ele>
        <time>2024-05-28T17:01:04.421Z</time>
      </trkpt>
      <trkpt lat="45.8729849383235" lon="8.710236987099051">
        <ele>672.52</ele>
        <time>2024-05-28T17:01:10.563Z</time>
      </trkpt>
      <trkpt lat="45.87297194637358" lon="8.710199939087033">
        <ele>672.36</ele>
        <time>2024-05-28T17:01:16.706Z</time>
      </trkpt>
      <trkpt lat="45.87294998578727" lon="8.71017194353044">
        <ele>672.22</ele>
        <time>2024-05-28T17:01:22.850Z</time>
      </trkpt>
      <trkpt lat="45.87293992750347" lon="8.710131961852312">
        <ele>672.06</ele>
        <time>2024-05-28T17:01:28.995Z</time>
      </trkpt>
      <trkpt lat="45.872911931946874" lon="8.710082927718759">
        <ele>671.92</ele>
        <time>2024-05-28T17:01:35.142Z</time>
      </trkpt>
      <trkpt lat="45.87288192473352" lon="8.710039928555489">
        <ele>671.78</ele>
        <time>2024-05-28T17:01:41.290Z</time>
      </trkpt>
      <trkpt lat="45.872869938611984" lon="8.71001796796918">
        <ele>671.64</ele>
        <time>2024-05-28T17:01:47.439Z</time>
      </trkpt>
      <trkpt lat="45.87286298163235" lon="8.709992989897728">
        <ele>671.49</ele>
        <time>2024-05-28T17:01:53.588Z</time>
      </trkpt>
      <trkpt lat="45.87284294888377" lon="8.709959965199232">
        <ele>671.36</ele>
        <time>2024-05-28T17:01:59.738Z</time>
      </trkpt>
      <trkpt lat="45.87282492779195" lon="8.709927946329117">
        <ele>671.22</ele>
        <time>2024-05-28T17:02:05.889Z</time>
      </trkpt>
      <trkpt lat="45.87281193584204" lon="8.709897939115763">
        <ele>671.08</ele>
        <time>2024-05-28T17:02:12.041Z</time>
      </trkpt>
      <trkpt lat="45.8727999497205" lon="8.709867931902409">
        <ele>670.94</ele>
        <time>2024-05-28T17:02:18.194Z</time>
      </trkpt>
      <trkpt lat="45.872786957770586" lon="8.709836918860674">
        <ele>670.79</ele>
        <time>2024-05-28T17:02:24.348Z</time>
      </trkpt>
      <trkpt lat="45.872786957770586" lon="8.709799954667687">
        <ele>670.63</ele>
        <time>2024-05-28T17:02:30.503Z</time>
      </trkpt>
      <trkpt lat="45.872786957770586" lon="8.709769947454333">
        <ele>670.47</ele>
        <time>2024-05-28T17:02:36.658Z</time>
      </trkpt>
      <trkpt lat="45.87277698330581" lon="8.70973994024098">
        <ele>670.32</ele>
        <time>2024-05-28T17:02:42.814Z</time>
      </trkpt>
      <trkpt lat="45.872762985527515" lon="8.709711944684386">
        <ele>670.16</ele>
        <time>2024-05-28T17:02:48.971Z</time>
      </trkpt>
      <trkpt lat="45.8727449644357" lon="8.709669951349497">
        <ele>670.0</ele>
        <time>2024-05-28T17:02:55.129Z</time>
      </trkpt>
      <trkpt lat="45.87273197248578" lon="8.709639944136143">
        <ele>669.83</ele>
        <time>2024-05-28T17:03:01.288Z</time>
      </trkpt>
      <trkpt lat="45.87272794917226" lon="8.70961194857955">
        <ele>669.66</ele>
        <time>2024-05-28T17:03:07.448Z</time>
      </trkpt>
      <trkpt lat="45.87270992808044" lon="8.709561992436647">
        <ele>669.48</ele>
        <time>2024-05-28T17:03:13.609Z</time>
      </trkpt>
      <trkpt lat="45.87269299663603" lon="8.709532991051674">
        <ele>669.31</ele>
        <time>2024-05-28T17:03:19.771Z</time>
      </trkpt>
      <trkpt lat="45.872679920867085" lon="8.70950692333281">
        <ele>669.13</ele>
        <time>2024-05-28T17:03:25.933Z</time>
      </trkpt>
      <trkpt lat="45.87266793474555" lon="8.709486974403262">
        <ele>668.95</ele>
        <time>2024-05-28T17:03:32.096Z</time>
      </trkpt>
      <trkpt lat="45.87264496833086" lon="8.709456967189908">
        <ele>668.75</ele>
        <time>2024-05-28T17:03:38.260Z</time>
      </trkpt>
      <trkpt lat="45.87262996472418" lon="8.70943995192647">
        <ele>668.56</ele>
        <time>2024-05-28T17:03:44.425Z</time>
      </trkpt>
      <trkpt lat="45.872612949460745" lon="8.709421930834651">
        <ele>668.36</ele>
        <time>2024-05-28T17:03:50.590Z</time>
      </trkpt>
      <trkpt lat="45.872594928368926" lon="8.709387984126806">
        <ele>668.14</ele>
        <time>2024-05-28T17:03:56.756Z</time>
      </trkpt>
      <trkpt lat="45.87257799692452" lon="8.709362922236323">
        <ele>667.91</ele>
        <time>2024-05-28T17:04:02.923Z</time>
      </trkpt>
      <trkpt lat="45.872549917548895" lon="8.70930994860828">
        <ele>667.67</ele>
        <time>2024-05-28T17:04:09.092Z</time>
      </trkpt>
      <trkpt lat="45.87252292782068" lon="8.709259992465377">
        <ele>667.42</ele>
        <time>2024-05-28T17:04:15.262Z</time>
      </trkpt>
      <trkpt lat="45.872504990547895" lon="8.709227973595262">
        <ele>667.17</ele>
        <time>2024-05-28T17:04:21.433Z</time>
      </trkpt>
      <trkpt lat="45.87248797528446" lon="8.709184974431992">
        <ele>666.91</ele>
        <time>2024-05-28T17:04:27.605Z</time>
      </trkpt>
      <trkpt lat="45.87247297167778" lon="8.709156978875399">
        <ele>666.64</ele>
        <time>2024-05-28T17:04:33.778Z</time>
      </trkpt>
      <trkpt lat="45.872459979727864" lon="8.709131916984916">
        <ele>666.36</ele>
        <time>2024-05-28T17:04:39.952Z</time>
      </trkpt>
      <trkpt lat="45.872442964464426" lon="8.709097970277071">
        <ele>666.07</ele>
        <time>2024-05-28T17:04:46.127Z</time>
      </trkpt>
      <trkpt lat="45.87242494337261" lon="8.709069974720478">
        <ele>665.78</ele>
        <time>2024-05-28T17:04:52.303Z</time>
      </trkpt>
      <trkpt lat="45.87240792810917" lon="8.709036950021982">
        <ele>665.48</ele>
        <time>2024-05-28T17:04:58.480Z</time>
      </trkpt>
      <trkpt lat="45.87238295003772" lon="8.709004931151867">
        <ele>665.17</ele>
        <time>2024-05-28T17:05:04.658Z</time>
      </trkpt>
      <trkpt lat="45.87235193699598" lon="8.708971990272403">
        <ele>664.85</ele>
        <time>2024-05-28T17:05:10.837Z</time>
      </trkpt>
      <trkpt lat="45.872331988066435" lon="8.70894692838192">
        <ele>664.53</ele>
        <time>2024-05-28T17:05:17.017Z</time>
      </trkpt>
      <trkpt lat="45.872312961146235" lon="8.708912981674075">
        <ele>664.19</ele>
        <time>2024-05-28T17:05:23.198Z</time>
      </trkpt>
      <trkpt lat="45.872289994731545" lon="8.708872999995947">
        <ele>663.84</ele>
        <time>2024-05-28T17:05:29.380Z</time>
      </trkpt>
      <trkpt lat="45.872267950326204" lon="8.708822960034013">
        <ele>663.48</ele>
        <time>2024-05-28T17:05:35.564Z</time>
      </trkpt>
      <trkpt lat="45.87226493284106" lon="8.708772920072079">
        <ele>663.11</ele>
        <time>2024-05-28T17:05:41.749Z</time>
      </trkpt>
      <trkpt lat="45.87226199917495" lon="8.708746936172247">
        <ele>662.74</ele>
        <time>2024-05-28T17:05:47.934Z</time>
      </trkpt>
      <trkpt lat="45.872247917577624" lon="8.708717934787273">
        <ele>662.37</ele>
        <time>2024-05-28T17:05:54.120Z</time>
      </trkpt>
      <trkpt lat="45.872226962819695" lon="8.70868792757392">
        <ele>661.99</ele>
        <time>2024-05-28T17:06:00.307Z</time>
      </trkpt>
      <trkpt lat="45.872206930071115" lon="8.708659932017326">
        <ele>661.61</ele>
        <time>2024-05-28T17:06:06.495Z</time>
      </trkpt>
      <trkpt lat="45.87217499502003" lon="8.708609975874424">
        <ele>661.21</ele>
        <time>2024-05-28T17:06:12.685Z</time>
      </trkpt>
      <trkpt lat="45.872164936736226" lon="8.708564965054393">
        <ele>660.81</ele>
        <time>2024-05-28T17:06:18.876Z</time>
      </trkpt>
      <trkpt lat="45.87214993312955" lon="8.708529928699136">
        <ele>660.41</ele>
        <time>2024-05-28T17:06:25.068Z</time>
      </trkpt>
      <trkpt lat="45.87212696671486" lon="8.708502938970923">
        <ele>660.0</ele>
        <time>2024-05-28T17:06:31.261Z</time>
      </trkpt>
      <trkpt lat="45.87210793979466" lon="8.708462957292795">
        <ele>659.58</ele>
        <time>2024-05-28T17:06:37.455Z</time>
      </trkpt>
      <trkpt lat="45.8720919303596" lon="8.708437979221344">
        <ele>659.16</ele>
        <time>2024-05-28T17:06:43.650Z</time>
      </trkpt>
      <trkpt lat="45.872076926752925" lon="8.708404954522848">
        <ele>658.73</ele>
        <time>2024-05-28T17:06:49.846Z</time>
      </trkpt>
      <trkpt lat="45.87206292897463" lon="8.708379976451397">
        <ele>658.3</ele>
        <time>2024-05-28T17:06:56.042Z</time>
      </trkpt>
      <trkpt lat="45.87204691953957" lon="8.708357932046056">
        <ele>657.87</ele>
        <time>2024-05-28T17:07:02.239Z</time>
      </trkpt>
      <trkpt lat="45.8720179181546" lon="8.708337983116508">
        <ele>657.42</ele>
        <time>2024-05-28T17:07:08.437Z</time>
      </trkpt>
      <trkpt lat="45.87200794368982" lon="8.708304958418012">
        <ele>656.96</ele>
        <time>2024-05-28T17:07:14.636Z</time>
      </trkpt>
      <trkpt lat="45.87200199253857" lon="8.708276962861419">
        <ele>656.5</ele>
        <time>2024-05-28T17:07:20.836Z</time>
      </trkpt>
      <trkpt lat="45.87199696339667" lon="8.708244943991303">
        <ele>656.03</ele>
        <time>2024-05-28T17:07:27.036Z</time>
      </trkpt>
      <trkpt lat="45.871986988931894" lon="8.708212925121188">
        <ele>655.56</ele>
        <time>2024-05-28T17:07:33.237Z</time>
      </trkpt>
      <trkpt lat="45.871969973668456" lon="8.708182917907834">
        <ele>655.08</ele>
        <time>2024-05-28T17:07:39.439Z</time>
      </trkpt>
      <trkpt lat="45.87195195257664" lon="8.708159951493144">
        <ele>654.59</ele>
        <time>2024-05-28T17:07:45.642Z</time>
      </trkpt>
      <trkpt lat="45.871924962848425" lon="8.708162968978286">
        <ele>654.12</ele>
        <time>2024-05-28T17:07:51.846Z</time>
      </trkpt>
      <trkpt lat="45.871902918443084" lon="8.708159951493144">
        <ele>653.64</ele>
        <time>2024-05-28T17:07:58.051Z</time>
      </trkpt>
      <trkpt lat="45.87187492288649" lon="8.708151988685131">
        <ele>653.15</ele>
        <time>2024-05-28T17:08:04.257Z</time>
      </trkpt>
      <trkpt lat="45.87184793315828" lon="8.708146959543228">
        <ele>652.66</ele>
        <time>2024-05-28T17:08:10.463Z</time>
      </trkpt>
      <trkpt lat="45.87182999588549" lon="8.708142936229706">
        <ele>652.15</ele>
        <time>2024-05-28T17:08:16.670Z</time>
      </trkpt>
      <trkpt lat="45.871777944266796" lon="8.708126926794648">
        <ele>651.64</ele>
        <time>2024-05-28T17:08:22.879Z</time>
      </trkpt>
      <trkpt lat="45.871732933446765" lon="8.708099937066436">
        <ele>651.11</ele>
        <time>2024-05-28T17:08:29.090Z</time>
      </trkpt>
      <trkpt lat="45.87169798091054" lon="8.708066996186972">
        <ele>650.56</ele>
        <time>2024-05-28T17:08:35.302Z</time>
      </trkpt>
      <trkpt lat="45.87167694233358" lon="8.708032965660095">
        <ele>650.01</ele>
        <time>2024-05-28T17:08:41.515Z</time>
      </trkpt>
      <trkpt lat="45.871666967868805" lon="8.7079999409616">
        <ele>649.45</ele>
        <time>2024-05-28T17:08:47.729Z</time>
      </trkpt>
      <trkpt lat="45.87164995260537" lon="8.707969933748245">
        <ele>648.89</ele>
        <time>2024-05-28T17:08:53.944Z</time>
      </trkpt>
      <trkpt lat="45.87162799201906" lon="8.707942944020033">
        <ele>648.33</ele>
        <time>2024-05-28T17:09:00.160Z</time>
      </trkpt>
      <trkpt lat="45.87158993817866" lon="8.707917965948582">
        <ele>647.76</ele>
        <time>2024-05-28T17:09:06.377Z</time>
      </trkpt>
      <trkpt lat="45.87156697176397" lon="8.707899944856763">
        <ele>647.19</ele>
        <time>2024-05-28T17:09:12.595Z</time>
      </trkpt>
      <trkpt lat="45.871537970378995" lon="8.707869937643409">
        <ele>646.62</ele>
        <time>2024-05-28T17:09:18.814Z</time>
      </trkpt>
      <trkpt lat="45.871516931802034" lon="8.707839930430055">
        <ele>646.04</ele>
        <time>2024-05-28T17:09:25.034Z</time>
      </trkpt>
      <trkpt lat="45.87148994207382" lon="8.70780497789383">
        <ele>645.46</ele>
        <time>2024-05-28T17:09:31.255Z</time>
      </trkpt>
      <trkpt lat="45.87145792320371" lon="8.707764996215701">
        <ele>644.88</ele>
        <time>2024-05-28T17:09:37.478Z</time>
      </trkpt>
      <trkpt lat="45.87144199758768" lon="8.70774295181036">
        <ele>644.31</ele>
        <time>2024-05-28T17:09:43.701Z</time>
      </trkpt>
      <trkpt lat="45.871432945132256" lon="8.70771998539567">
        <ele>643.74</ele>
        <time>2024-05-28T17:09:49.925Z</time>
      </trkpt>
      <trkpt lat="45.87139497511089" lon="8.707659970968962">
        <ele>643.15</ele>
        <time>2024-05-28T17:09:56.151Z</time>
      </trkpt>
      <trkpt lat="45.871367985382676" lon="8.707629963755608">
        <ele>642.57</ele>
        <time>2024-05-28T17:10:02.378Z</time>
      </trkpt>
      <trkpt lat="45.871352981776" lon="8.707596939057112">
        <ele>642.0</ele>
        <time>2024-05-28T17:10:08.606Z</time>
      </trkpt>
      <trkpt lat="45.87133998982608" lon="8.70757196098566">
        <ele>641.42</ele>
        <time>2024-05-28T17:10:14.835Z</time>
      </trkpt>
      <trkpt lat="45.87131199426949" lon="8.707544971257448">
        <ele>640.85</ele>
        <time>2024-05-28T17:10:21.065Z</time>
      </trkpt>
      <trkpt lat="45.87127695791423" lon="8.70750498957932">
        <ele>640.28</ele>
        <time>2024-05-28T17:10:27.296Z</time>
      </trkpt>
      <trkpt lat="45.87127695791423" lon="8.707479927688837">
        <ele>639.72</ele>
        <time>2024-05-28T17:10:33.528Z</time>
      </trkpt>
      <trkpt lat="45.87125692516565" lon="8.707447992637753">
        <ele>639.15</ele>
        <time>2024-05-28T17:10:39.761Z</time>
      </trkpt>
      <trkpt lat="45.871237982064486" lon="8.70741999708116">
        <ele>638.59</ele>
        <time>2024-05-28T17:10:45.995Z</time>
      </trkpt>
      <trkpt lat="45.871217949315906" lon="8.707387978211045">
        <ele>638.02</ele>
        <time>2024-05-28T17:10:52.230Z</time>
      </trkpt>
      <trkpt lat="45.87117997929454" lon="8.707362916320562">
        <ele>637.46</ele>
        <time>2024-05-28T17:10:58.466Z</time>
      </trkpt>
      <trkpt lat="45.871154917404056" lon="8.707337938249111">
        <ele>636.89</ele>
        <time>2024-05-28T17:11:04.703Z</time>
      </trkpt>
      <trkpt lat="45.87112792767584" lon="8.707301979884505">
        <ele>636.33</ele>
        <time>2024-05-28T17:11:10.942Z</time>
      </trkpt>
      <trkpt lat="45.87109297513962" lon="8.707254957407713">
        <ele>635.76</ele>
        <time>2024-05-28T17:11:17.182Z</time>
      </trkpt>
      <trkpt lat="45.87106196209788" lon="8.707209946587682">
        <ele>635.19</ele>
        <time>2024-05-28T17:11:23.424Z</time>
      </trkpt>
      <trkpt lat="45.871044946834445" lon="8.70716493576765">
        <ele>634.63</ele>
        <time>2024-05-28T17:11:29.667Z</time>
      </trkpt>
      <trkpt lat="45.87103698402643" lon="8.7071399576962">
        <ele>634.08</ele>
        <time>2024-05-28T17:11:35.910Z</time>
      </trkpt>
      <trkpt lat="45.871019968762994" lon="8.707122942432761">
        <ele>633.54</ele>
        <time>2024-05-28T17:11:42.154Z</time>
      </trkpt>
      <trkpt lat="45.8709919732064" lon="8.707104921340942">
        <ele>633.01</ele>
        <time>2024-05-28T17:11:48.399Z</time>
      </trkpt>
      <trkpt lat="45.87097194045782" lon="8.707082960754633">
        <ele>632.47</ele>
        <time>2024-05-28T17:11:54.645Z</time>
      </trkpt>
      <trkpt lat="45.870959954336286" lon="8.707062928006053">
        <ele>631.95</ele>
        <time>2024-05-28T17:12:00.892Z</time>
      </trkpt>
      <trkpt lat="45.870939921587706" lon="8.707004925236106">
        <ele>631.41</ele>
        <time>2024-05-28T17:12:07.140Z</time>
      </trkpt>
      <trkpt lat="45.87093296460807" lon="8.706976929679513">
        <ele>630.89</ele>
        <time>2024-05-28T17:12:13.389Z</time>
      </trkpt>
      <trkpt lat="45.8709229901433" lon="8.706954969093204">
        <ele>630.38</ele>
        <time>2024-05-28T17:12:19.638Z</time>
      </trkpt>
      <trkpt lat="45.870917961001396" lon="8.70690492913127">
        <ele>629.85</ele>
        <time>2024-05-28T17:12:25.889Z</time>
      </trkpt>
      <trkpt lat="45.8709229901433" lon="8.706876933574677">
        <ele>629.35</ele>
        <time>2024-05-28T17:12:32.140Z</time>
      </trkpt>
      <trkpt lat="45.87090496905148" lon="8.706844998523593">
        <ele>628.86</ele>
        <time>2024-05-28T17:12:38.392Z</time>
      </trkpt>
      <trkpt lat="45.8708849363029" lon="8.706821948289871">
        <ele>628.38</ele>
        <time>2024-05-28T17:12:44.645Z</time>
      </trkpt>
      <trkpt lat="45.87086297571659" lon="8.706799987703562">
        <ele>627.9</ele>
        <time>2024-05-28T17:12:50.899Z</time>
      </trkpt>
      <trkpt lat="45.870831962674856" lon="8.706757994368672">
        <ele>627.42</ele>
        <time>2024-05-28T17:12:57.154Z</time>
      </trkpt>
      <trkpt lat="45.87081494741142" lon="8.706727987155318">
        <ele>626.96</ele>
        <time>2024-05-28T17:13:03.410Z</time>
      </trkpt>
      <trkpt lat="45.87081796489656" lon="8.706699991598725">
        <ele>626.51</ele>
        <time>2024-05-28T17:13:09.667Z</time>
      </trkpt>
      <trkpt lat="45.870811929926276" lon="8.706657998263836">
        <ele>626.06</ele>
        <time>2024-05-28T17:13:15.925Z</time>
      </trkpt>
      <trkpt lat="45.870804972946644" lon="8.706636959686875">
        <ele>625.64</ele>
        <time>2024-05-28T17:13:22.183Z</time>
      </trkpt>
      <trkpt lat="45.87079994380474" lon="8.706592954695225">
        <ele>625.2</ele>
        <time>2024-05-28T17:13:28.443Z</time>
      </trkpt>
      <trkpt lat="45.8707829285413" lon="8.706557918339968">
        <ele>624.78</ele>
        <time>2024-05-28T17:13:34.704Z</time>
      </trkpt>
      <trkpt lat="45.87077295407653" lon="8.706524977460504">
        <ele>624.37</ele>
        <time>2024-05-28T17:13:40.965Z</time>
      </trkpt>
      <trkpt lat="45.87075795046985" lon="8.70649497024715">
        <ele>623.96</ele>
        <time>2024-05-28T17:13:47.227Z</time>
      </trkpt>
      <trkpt lat="45.870744958519936" lon="8.706472925841808">
        <ele>623.57</ele>
        <time>2024-05-28T17:13:53.490Z</time>
      </trkpt>
      <trkpt lat="45.87073196657002" lon="8.70643294416368">
        <ele>623.18</ele>
        <time>2024-05-28T17:13:59.754Z</time>
      </trkpt>
      <trkpt lat="45.87071696296334" lon="8.706416934728622">
        <ele>622.81</ele>
        <time>2024-05-28T17:14:06.019Z</time>
      </trkpt>
      <trkpt lat="45.87069299072027" lon="8.706402936950326">
        <ele>622.44</ele>
        <time>2024-05-28T17:14:12.284Z</time>
      </trkpt>
      <trkpt lat="45.87066499516368" lon="8.70638994500041">
        <ele>622.08</ele>
        <time>2024-05-28T17:14:18.550Z</time>
      </trkpt>
      <trkpt lat="45.8706449624151" lon="8.70638994500041">
        <ele>621.73</ele>
        <time>2024-05-28T17:14:24.817Z</time>
      </trkpt>
      <trkpt lat="45.87062291800976" lon="8.706382988020778">
        <ele>621.37</ele>
        <time>2024-05-28T17:14:31.085Z</time>
      </trkpt>
      <trkpt lat="45.87059793993831" lon="8.706362955272198">
        <ele>621.0</ele>
        <time>2024-05-28T17:14:37.354Z</time>
      </trkpt>
      <trkpt lat="45.8705619815737" lon="8.706349963322282">
        <ele>620.64</ele>
        <time>2024-05-28T17:14:43.624Z</time>
      </trkpt>
      <trkpt lat="45.870526945218444" lon="8.706339988857508">
        <ele>620.27</ele>
        <time>2024-05-28T17:14:49.895Z</time>
      </trkpt>
      <trkpt lat="45.87049492634833" lon="8.706336971372366">
        <ele>619.91</ele>
        <time>2024-05-28T17:14:56.167Z</time>
      </trkpt>
      <trkpt lat="45.870466930791736" lon="8.706339988857508">
        <ele>619.55</ele>
        <time>2024-05-28T17:15:02.440Z</time>
      </trkpt>
      <trkpt lat="45.870442958548665" lon="8.706342922523618">
        <ele>619.18</ele>
        <time>2024-05-28T17:15:08.714Z</time>
      </trkpt>
      <trkpt lat="45.87042795494199" lon="8.706356920301914">
        <ele>618.81</ele>
        <time>2024-05-28T17:15:14.989Z</time>
      </trkpt>
      <trkpt lat="45.87038294412196" lon="8.7063679844141">
        <ele>618.43</ele>
        <time>2024-05-28T17:15:21.265Z</time>
      </trkpt>
      <trkpt lat="45.87036995217204" lon="8.706399919465184">
        <ele>618.05</ele>
        <time>2024-05-28T17:15:27.542Z</time>
      </trkpt>
      <trkpt lat="45.870337933301926" lon="8.70638994500041">
        <ele>617.66</ele>
        <time>2024-05-28T17:15:33.820Z</time>
      </trkpt>
      <trkpt lat="45.870316978544" lon="8.706379970535636">
        <ele>617.25</ele>
        <time>2024-05-28T17:15:40.099Z</time>
      </trkpt>
      <trkpt lat="45.870289988815784" lon="8.7063679844141">
        <ele>616.84</ele>
        <time>2024-05-28T17:15:46.379Z</time>
      </trkpt>
      <trkpt lat="45.87025796994567" lon="8.706336971372366">
        <ele>616.41</ele>
        <time>2024-05-28T17:15:52.660Z</time>
      </trkpt>
      <trkpt lat="45.87023994885385" lon="8.706319956108928">
        <ele>615.98</ele>
        <time>2024-05-28T17:15:58.942Z</time>
      </trkpt>
      <trkpt lat="45.870202984660864" lon="8.706294978037477">
        <ele>615.53</ele>
        <time>2024-05-28T17:16:05.225Z</time>
      </trkpt>
      <trkpt lat="45.8701819460839" lon="8.706294978037477">
        <ele>615.07</ele>
        <time>2024-05-28T17:16:11.509Z</time>
      </trkpt>
      <trkpt lat="45.87015696801245" lon="8.70628491975367">
        <ele>614.61</ele>
        <time>2024-05-28T17:16:17.794Z</time>
      </trkpt>
      <trkpt lat="45.870122937485576" lon="8.706256924197078">
        <ele>614.12</ele>
        <time>2024-05-28T17:16:24.080Z</time>
      </trkpt>
      <trkpt lat="45.87008496746421" lon="8.706214930862188">
        <ele>613.6</ele>
        <time>2024-05-28T17:16:30.368Z</time>
      </trkpt>
      <trkpt lat="45.870056971907616" lon="8.706199927255511">
        <ele>613.08</ele>
        <time>2024-05-28T17:16:36.657Z</time>
      </trkpt>
      <trkpt lat="45.8700249530375" lon="8.70619498193264">
        <ele>612.54</ele>
        <time>2024-05-28T17:16:42.947Z</time>
      </trkpt>
      <trkpt lat="45.86998991668224" lon="8.706179978325963">
        <ele>611.98</ele>
        <time>2024-05-28T17:16:49.238Z</time>
      </trkpt>
      <trkpt lat="45.86995999328792" lon="8.706157933920622">
        <ele>611.41</ele>
        <time>2024-05-28T17:16:55.530Z</time>
      </trkpt>
      <trkpt lat="45.86992193944752" lon="8.706146953627467">
        <ele>610.82</ele>
        <time>2024-05-28T17:17:01.823Z</time>
      </trkpt>
      <trkpt lat="45.86989293806255" lon="8.70611191727221">
        <ele>610.22</ele>
        <time>2024-05-28T17:17:08.118Z</time>
      </trkpt>
      <trkpt lat="45.86987793445587" lon="8.706076964735985">
        <ele>609.6</ele>
        <time>2024-05-28T17:17:14.414Z</time>
      </trkpt>
      <trkpt lat="45.86985195055604" lon="8.706039916723967">
        <ele>608.97</ele>
        <time>2024-05-28T17:17:20.711Z</time>
      </trkpt>
      <trkpt lat="45.86983292363584" lon="8.706019967794418">
        <ele>608.33</ele>
        <time>2024-05-28T17:17:27.009Z</time>
      </trkpt>
      <trkpt lat="45.86980995722115" lon="8.706006975844502">
        <ele>607.69</ele>
        <time>2024-05-28T17:17:33.307Z</time>
      </trkpt>
      <trkpt lat="45.86976796388626" lon="8.705977974459529">
        <ele>607.03</ele>
        <time>2024-05-28T17:17:39.607Z</time>
      </trkpt>
      <trkpt lat="45.8697469253093" lon="8.705966994166374">
        <ele>606.37</ele>
        <time>2024-05-28T17:17:45.908Z</time>
      </trkpt>
      <trkpt lat="45.86972295306623" lon="8.705951990559697">
        <ele>605.69</ele>
        <time>2024-05-28T17:17:52.210Z</time>
      </trkpt>
      <trkpt lat="45.869691940024495" lon="8.70593698695302">
        <ele>605.01</ele>
        <time>2024-05-28T17:17:58.513Z</time>
      </trkpt>
      <trkpt lat="45.86968196555972" lon="8.705911925062537">
        <ele>604.31</ele>
        <time>2024-05-28T17:18:04.816Z</time>
      </trkpt>
      <trkpt lat="45.86965992115438" lon="8.705881917849183">
        <ele>603.6</ele>
        <time>2024-05-28T17:18:11.120Z</time>
      </trkpt>
      <trkpt lat="45.869627986103296" lon="8.705847971141338">
        <ele>602.87</ele>
        <time>2024-05-28T17:18:17.426Z</time>
      </trkpt>
      <trkpt lat="45.869607953354716" lon="8.705819975584745">
        <ele>602.14</ele>
        <time>2024-05-28T17:18:23.733Z</time>
      </trkpt>
      <trkpt lat="45.86958699859679" lon="8.705799942836165">
        <ele>601.41</ele>
        <time>2024-05-28T17:18:30.040Z</time>
      </trkpt>
      <trkpt lat="45.86955992504954" lon="8.70576499029994">
        <ele>600.66</ele>
        <time>2024-05-28T17:18:36.349Z</time>
      </trkpt>
      <trkpt lat="45.86953192949295" lon="8.705732971429825">
        <ele>599.9</ele>
        <time>2024-05-28T17:18:42.659Z</time>
      </trkpt>
      <trkpt lat="45.8695069514215" lon="8.70570296421647">
        <ele>599.14</ele>
        <time>2024-05-28T17:18:48.970Z</time>
      </trkpt>
      <trkpt lat="45.8694929536432" lon="8.70568293146789">
        <ele>598.39</ele>
        <time>2024-05-28T17:18:55.282Z</time>
      </trkpt>
      <trkpt lat="45.86947996169329" lon="8.705651918426156">
        <ele>597.62</ele>
        <time>2024-05-28T17:19:01.594Z</time>
      </trkpt>
      <trkpt lat="45.86946194060147" lon="8.705624928697944">
        <ele>596.85</ele>
        <time>2024-05-28T17:19:07.907Z</time>
      </trkpt>
      <trkpt lat="45.86943696253002" lon="8.705584947019815">
        <ele>596.06</ele>
        <time>2024-05-28T17:19:14.222Z</time>
      </trkpt>
      <trkpt lat="45.86941692978144" lon="8.705562986433506">
        <ele>595.29</ele>
        <time>2024-05-28T17:19:20.537Z</time>
      </trkpt>
      <trkpt lat="45.869409972801805" lon="8.705539936199784">
        <ele>594.52</ele>
        <time>2024-05-28T17:19:26.853Z</time>
      </trkpt>
      <trkpt lat="45.86938197724521" lon="8.70550699532032">
        <ele>593.72</ele>
        <time>2024-05-28T17:19:33.170Z</time>
      </trkpt>
      <trkpt lat="45.86935297586024" lon="8.705484950914979">
        <ele>592.94</ele>
        <time>2024-05-28T17:19:39.488Z</time>
      </trkpt>
      <trkpt lat="45.86933696642518" lon="8.70546692982316">
        <ele>592.17</ele>
        <time>2024-05-28T17:19:45.807Z</time>
      </trkpt>
      <trkpt lat="45.86931793950498" lon="8.705449998378754">
        <ele>591.39</ele>
        <time>2024-05-28T17:19:52.127Z</time>
      </trkpt>
      <trkpt lat="45.86930193006992" lon="8.70542493648827">
        <ele>590.61</ele>
        <time>2024-05-28T17:19:58.447Z</time>
      </trkpt>
      <trkpt lat="45.869281981140375" lon="8.705391995608807">
        <ele>589.83</ele>
        <time>2024-05-28T17:20:04.768Z</time>
      </trkpt>
      <trkpt lat="45.8692669775337" lon="8.70537699200213">
        <ele>589.06</ele>
        <time>2024-05-28T17:20:11.090Z</time>
      </trkpt>
      <trkpt lat="45.86925691924989" lon="8.70539995841682">
        <ele>588.33</ele>
        <time>2024-05-28T17:20:17.413Z</time>
      </trkpt>
      <trkpt lat="45.86922791786492" lon="8.705404987558722">
        <ele>587.57</ele>
        <time>2024-05-28T17:20:23.737Z</time>
      </trkpt>
      <trkpt lat="45.86920495145023" lon="8.70537992566824">
        <ele>586.81</ele>
        <time>2024-05-28T17:20:30.062Z</time>
      </trkpt>
      <trkpt lat="45.86918994784355" lon="8.705347990617156">
        <ele>586.04</ele>
        <time>2024-05-28T17:20:36.388Z</time>
      </trkpt>
      <trkpt lat="45.86917293258011" lon="8.705326952040195">
        <ele>585.29</ele>
        <time>2024-05-28T17:20:42.714Z</time>
      </trkpt>
      <trkpt lat="45.86914795450866" lon="8.705286970362067">
        <ele>584.53</ele>
        <time>2024-05-28T17:20:49.042Z</time>
      </trkpt>
      <trkpt lat="45.86912498809397" lon="8.70524799451232">
        <ele>583.77</ele>
        <time>2024-05-28T17:20:55.371Z</time>
      </trkpt>
      <trkpt lat="45.869109984487295" lon="8.705216981470585">
        <ele>583.03</ele>
        <time>2024-05-28T17:21:01.701Z</time>
      </trkpt>
      <trkpt lat="45.86909699253738" lon="8.705182950943708">
        <ele>582.29</ele>
        <time>2024-05-28T17:21:08.032Z</time>
      </trkpt>
      <trkpt lat="45.86908693425357" lon="8.705154955387115">
        <ele>581.56</ele>
        <time>2024-05-28T17:21:14.363Z</time>
      </trkpt>
      <trkpt lat="45.869071930646896" lon="8.705119919031858">
        <ele>580.83</ele>
        <time>2024-05-28T17:21:20.695Z</time>
      </trkpt>
      <trkpt lat="45.8690579328686" lon="8.705097958445549">
        <ele>580.12</ele>
        <time>2024-05-28T17:21:27.028Z</time>
      </trkpt>
      <trkpt lat="45.869047958403826" lon="8.705064933747053">
        <ele>579.4</ele>
        <time>2024-05-28T17:21:33.362Z</time>
      </trkpt>
      <trkpt lat="45.86903798393905" lon="8.705027969554067">
        <ele>578.7</ele>
        <time>2024-05-28T17:21:39.697Z</time>
      </trkpt>
      <trkpt lat="45.86903295479715" lon="8.705002991482615">
        <ele>578.01</ele>
        <time>2024-05-28T17:21:46.032Z</time>
      </trkpt>
      <trkpt lat="45.86901694536209" lon="8.704979941248894">
        <ele>577.32</ele>
        <time>2024-05-28T17:21:52.368Z</time>
      </trkpt>
      <trkpt lat="45.869002947583795" lon="8.70494993403554">
        <ele>576.64</ele>
        <time>2024-05-28T17:21:58.705Z</time>
      </trkpt>
      <trkpt lat="45.86899196729064" lon="8.704929985105991">
        <ele>575.97</ele>
        <time>2024-05-28T17:22:05.042Z</time>
      </trkpt>
      <trkpt lat="45.86897796951234" lon="8.704902995377779">
        <ele>575.31</ele>
        <time>2024-05-28T17:22:11.380Z</time>
      </trkpt>
      <trkpt lat="45.86896799504757" lon="8.704861924052238">
        <ele>574.65</ele>
        <time>2024-05-28T17:22:17.719Z</time>
      </trkpt>
      <trkpt lat="45.868959948420525" lon="8.704839963465929">
        <ele>574.01</ele>
        <time>2024-05-28T17:22:24.059Z</time>
      </trkpt>
      <trkpt lat="45.86899196729064" lon="8.704831916838884">
        <ele>573.38</ele>
        <time>2024-05-28T17:22:30.400Z</time>
      </trkpt>
      <trkpt lat="45.86897193454206" lon="8.704791935160756">
        <ele>572.74</ele>
        <time>2024-05-28T17:22:36.742Z</time>
      </trkpt>
      <trkpt lat="45.86893295869231" lon="8.704739967361093">
        <ele>572.1</ele>
        <time>2024-05-28T17:22:43.086Z</time>
      </trkpt>
      <trkpt lat="45.868876967579126" lon="8.704686993733048">
        <ele>571.47</ele>
        <time>2024-05-28T17:22:49.432Z</time>
      </trkpt>
      <trkpt lat="45.868852995336056" lon="8.704666960984468">
        <ele>570.86</ele>
        <time>2024-05-28T17:22:55.779Z</time>
      </trkpt>
      <trkpt lat="45.86886992678046" lon="8.704679952934384">
        <ele>570.29</ele>
        <time>2024-05-28T17:23:02.127Z</time>
      </trkpt>
      <trkpt lat="45.86886699311435" lon="8.704646928235888">
        <ele>569.69</ele>
        <time>2024-05-28T17:23:08.475Z</time>
      </trkpt>
      <trkpt lat="45.868856934830546" lon="8.704619938507676">
        <ele>569.11</ele>
        <time>2024-05-28T17:23:14.824Z</time>
      </trkpt>
      <trkpt lat="45.86883799172938" lon="8.704579956829548">
        <ele>568.53</ele>
        <time>2024-05-28T17:23:21.174Z</time>
      </trkpt>
      <trkpt lat="45.868831956759095" lon="8.704542992636561">
        <ele>567.96</ele>
        <time>2024-05-28T17:23:27.525Z</time>
      </trkpt>
      <trkpt lat="45.86882499977946" lon="8.7045219540596">
        <ele>567.41</ele>
        <time>2024-05-28T17:23:33.877Z</time>
      </trkpt>
      <trkpt lat="45.8688179589808" lon="8.704492952674627">
        <ele>566.87</ele>
        <time>2024-05-28T17:23:40.229Z</time>
      </trkpt>
      <trkpt lat="45.868807984516025" lon="8.704461939632893">
        <ele>566.33</ele>
        <time>2024-05-28T17:23:46.582Z</time>
      </trkpt>
      <trkpt lat="45.86879298090935" lon="8.704424975439906">
        <ele>565.8</ele>
        <time>2024-05-28T17:23:52.936Z</time>
      </trkpt>
      <trkpt lat="45.86879298090935" lon="8.70439295656979">
        <ele>565.28</ele>
        <time>2024-05-28T17:23:59.291Z</time>
      </trkpt>
      <trkpt lat="45.86882793344557" lon="8.704384993761778">
        <ele>564.79</ele>
        <time>2024-05-28T17:24:05.647Z</time>
      </trkpt>
      <trkpt lat="45.868831956759095" lon="8.704342916607857">
        <ele>564.29</ele>
        <time>2024-05-28T17:24:12.004Z</time>
      </trkpt>
      <trkpt lat="45.868831956759095" lon="8.704296983778477">
        <ele>563.8</ele>
        <time>2024-05-28T17:24:18.362Z</time>
      </trkpt>
      <trkpt lat="45.86882499977946" lon="8.7042629532516">
        <ele>563.32</ele>
        <time>2024-05-28T17:24:24.721Z</time>
      </trkpt>
      <trkpt lat="45.86881494149566" lon="8.704229928553104">
        <ele>562.86</ele>
        <time>2024-05-28T17:24:31.081Z</time>
      </trkpt>
      <trkpt lat="45.86882793344557" lon="8.704202938824892">
        <ele>562.42</ele>
        <time>2024-05-28T17:24:37.442Z</time>
      </trkpt>
      <trkpt lat="45.86883799172938" lon="8.704184917733073">
        <ele>562.0</ele>
        <time>2024-05-28T17:24:43.803Z</time>
      </trkpt>
      <trkpt lat="45.868856934830546" lon="8.70417796075344">
        <ele>561.59</ele>
        <time>2024-05-28T17:24:50.165Z</time>
      </trkpt>
      <trkpt lat="45.868872944265604" lon="8.704161951318383">
        <ele>561.2</ele>
        <time>2024-05-28T17:24:56.527Z</time>
      </trkpt>
      <trkpt lat="45.86886699311435" lon="8.704121969640255">
        <ele>560.79</ele>
        <time>2024-05-28T17:25:02.890Z</time>
      </trkpt>
      <trkpt lat="45.868876967579126" lon="8.704076958820224">
        <ele>560.4</ele>
        <time>2024-05-28T17:25:09.255Z</time>
      </trkpt>
      <trkpt lat="45.86887998506427" lon="8.704012921079993">
        <ele>560.02</ele>
        <time>2024-05-28T17:25:15.621Z</time>
      </trkpt>
      <trkpt lat="45.868876967579126" lon="8.70398199185729">
        <ele>559.65</ele>
        <time>2024-05-28T17:25:21.988Z</time>
      </trkpt>
      <trkpt lat="45.868876967579126" lon="8.703952990472317">
        <ele>559.31</ele>
        <time>2024-05-28T17:25:28.355Z</time>
      </trkpt>
      <trkpt lat="45.868872944265604" lon="8.703912924975157">
        <ele>558.97</ele>
        <time>2024-05-28T17:25:34.723Z</time>
      </trkpt>
      <trkpt lat="45.86886992678046" lon="8.703882917761803">
        <ele>558.65</ele>
        <time>2024-05-28T17:25:41.092Z</time>
      </trkpt>
      <trkpt lat="45.868876967579126" lon="8.703847965225577">
        <ele>558.34</ele>
        <time>2024-05-28T17:25:47.462Z</time>
      </trkpt>
      <trkpt lat="45.8688919711858" lon="8.703827932476997">
        <ele>558.04</ele>
        <time>2024-05-28T17:25:53.833Z</time>
      </trkpt>
      <trkpt lat="45.868894988670945" lon="8.703794991597533">
        <ele>557.76</ele>
        <time>2024-05-28T17:26:00.204Z</time>
      </trkpt>
      <trkpt lat="45.86891192011535" lon="8.70376992970705">
        <ele>557.49</ele>
        <time>2024-05-28T17:26:06.576Z</time>
      </trkpt>
      <trkpt lat="45.86892692372203" lon="8.703749980777502">
        <ele>557.23</ele>
        <time>2024-05-28T17:26:12.949Z</time>
      </trkpt>
      <trkpt lat="45.86894997395575" lon="8.703727936372161">
        <ele>556.98</ele>
        <time>2024-05-28T17:26:19.323Z</time>
      </trkpt>
      <trkpt lat="45.86896497756243" lon="8.703709999099374">
        <ele>556.74</ele>
        <time>2024-05-28T17:26:25.697Z</time>
      </trkpt>
      <trkpt lat="45.86899196729064" lon="8.70372299104929">
        <ele>556.53</ele>
        <time>2024-05-28T17:26:32.072Z</time>
      </trkpt>
      <trkpt lat="45.86901292204857" lon="8.70372491888702">
        <ele>556.33</ele>
        <time>2024-05-28T17:26:38.448Z</time>
      </trkpt>
      <trkpt lat="45.86902993731201" lon="8.703714944422245">
        <ele>556.13</ele>
        <time>2024-05-28T17:26:44.825Z</time>
      </trkpt>
      <trkpt lat="45.869044940918684" lon="8.70370195247233">
        <ele>555.93</ele>
        <time>2024-05-28T17:26:51.202Z</time>
      </trkpt>
      <trkpt lat="45.869067991152406" lon="8.703684937208891">
        <ele>555.74</ele>
        <time>2024-05-28T17:26:57.580Z</time>
      </trkpt>
      <trkpt lat="45.86908693425357" lon="8.703662976622581">
        <ele>555.56</ele>
        <time>2024-05-28T17:27:03.959Z</time>
      </trkpt>
      <trkpt lat="45.86908299475908" lon="8.703634981065989">
        <ele>555.37</ele>
        <time>2024-05-28T17:27:10.339Z</time>
      </trkpt>
      <trkpt lat="45.86909296922386" lon="8.703604973852634">
        <ele>555.2</ele>
        <time>2024-05-28T17:27:16.719Z</time>
      </trkpt>
      <trkpt lat="45.869109984487295" lon="8.703582929447293">
        <ele>555.04</ele>
        <time>2024-05-28T17:27:23.100Z</time>
      </trkpt>
      <trkpt lat="45.86909296922386" lon="8.703559963032603">
        <ele>554.87</ele>
        <time>2024-05-28T17:27:29.482Z</time>
      </trkpt>
      <trkpt lat="45.86908299475908" lon="8.70353196747601">
        <ele>554.72</ele>
        <time>2024-05-28T17:27:35.865Z</time>
      </trkpt>
      <trkpt lat="45.86907796561718" lon="8.703502966091037">
        <ele>554.57</ele>
        <time>2024-05-28T17:27:42.248Z</time>
      </trkpt>
      <trkpt lat="45.869089951738715" lon="8.703481927514076">
        <ele>554.44</ele>
        <time>2024-05-28T17:27:48.632Z</time>
      </trkpt>
      <trkpt lat="45.86910696700215" lon="8.703457955271006">
        <ele>554.31</ele>
        <time>2024-05-28T17:27:55.017Z</time>
      </trkpt>
      <trkpt lat="45.869109984487295" lon="8.703404981642962">
        <ele>554.17</ele>
        <time>2024-05-28T17:28:01.403Z</time>
      </trkpt>
      <trkpt lat="45.869109984487295" lon="8.70335795916617">
        <ele>554.04</ele>
        <time>2024-05-28T17:28:07.790Z</time>
      </trkpt>
      <trkpt lat="45.869112918153405" lon="8.703317977488041">
        <ele>553.92</ele>
        <time>2024-05-28T17:28:14.178Z</time>
      </trkpt>
      <trkpt lat="45.86911694146693" lon="8.703281935304403">
        <ele>553.8</ele>
        <time>2024-05-28T17:28:20.567Z</time>
      </trkpt>
      <trkpt lat="45.86911995895207" lon="8.703246982768178">
        <ele>553.7</ele>
        <time>2024-05-28T17:28:26.957Z</time>
      </trkpt>
      <trkpt lat="45.86912792176008" lon="8.703206917271018">
        <ele>553.61</ele>
        <time>2024-05-28T17:28:33.348Z</time>
      </trkpt>
      <trkpt lat="45.86914795450866" lon="8.7031629960984">
        <ele>553.52</ele>
        <time>2024-05-28T17:28:39.740Z</time>
      </trkpt>
      <trkpt lat="45.869151977822185" lon="8.703132988885045">
        <ele>553.45</ele>
        <time>2024-05-28T17:28:46.133Z</time>
      </trkpt>
      <trkpt lat="45.869176955893636" lon="8.70311999693513">
        <ele>553.4</ele>
        <time>2024-05-28T17:28:52.527Z</time>
      </trkpt>
      <trkpt lat="45.869196988642216" lon="8.703106921166182">
        <ele>553.35</ele>
        <time>2024-05-28T17:28:58.921Z</time>
      </trkpt>
      <trkpt lat="45.869214925915" lon="8.70310197584331">
        <ele>553.31</ele>
        <time>2024-05-28T17:29:05.316Z</time>
      </trkpt>
      <trkpt lat="45.86923194117844" lon="8.703091917559505">
        <ele>553.28</ele>
        <time>2024-05-28T17:29:11.711Z</time>
      </trkpt>
      <trkpt lat="45.8692529797554" lon="8.703094935044646">
        <ele>553.26</ele>
        <time>2024-05-28T17:29:18.107Z</time>
      </trkpt>
      <trkpt lat="45.86927695199847" lon="8.703094935044646">
        <ele>553.23</ele>
        <time>2024-05-28T17:29:24.504Z</time>
      </trkpt>
      <trkpt lat="45.86930796504021" lon="8.703094935044646">
        <ele>553.22</ele>
        <time>2024-05-28T17:29:30.902Z</time>
      </trkpt>
      <trkpt lat="45.869329925626516" lon="8.703066939488053">
        <ele>553.18</ele>
        <time>2024-05-28T17:29:37.301Z</time>
      </trkpt>
      <trkpt lat="45.869371918961406" lon="8.703032992780209">
        <ele>553.15</ele>
        <time>2024-05-28T17:29:43.702Z</time>
      </trkpt>
      <trkpt lat="45.86940293200314" lon="8.703021928668022">
        <ele>553.13</ele>
        <time>2024-05-28T17:29:50.104Z</time>
      </trkpt>
      <trkpt lat="45.869432939216495" lon="8.703009942546487">
        <ele>553.1</ele>
        <time>2024-05-28T17:29:56.507Z</time>
      </trkpt>
      <trkpt lat="45.86946194060147" lon="8.703007930889726">
        <ele>553.07</ele>
        <time>2024-05-28T17:30:02.911Z</time>
      </trkpt>
      <trkpt lat="45.8694929536432" lon="8.703019917011261">
        <ele>553.05</ele>
        <time>2024-05-28T17:30:09.316Z</time>
      </trkpt>
      <trkpt lat="45.86952497251332" lon="8.703024946153164">
        <ele>553.02</ele>
        <time>2024-05-28T17:30:15.722Z</time>
      </trkpt>
      <trkpt lat="45.86954793892801" lon="8.703019917011261">
        <ele>552.97</ele>
        <time>2024-05-28T17:30:22.129Z</time>
      </trkpt>
      <trkpt lat="45.86956998333335" lon="8.703004997223616">
        <ele>552.9</ele>
        <time>2024-05-28T17:30:28.536Z</time>
      </trkpt>
      <trkpt lat="45.86960191838443" lon="8.703012960031629">
        <ele>552.84</ele>
        <time>2024-05-28T17:30:34.944Z</time>
      </trkpt>
      <trkpt lat="45.86962195113301" lon="8.703019917011261">
        <ele>552.77</ele>
        <time>2024-05-28T17:30:41.353Z</time>
      </trkpt>
      <trkpt lat="45.869649946689606" lon="8.703021928668022">
        <ele>552.68</ele>
        <time>2024-05-28T17:30:47.763Z</time>
      </trkpt>
      <trkpt lat="45.869669979438186" lon="8.703027963638306">
        <ele>552.58</ele>
        <time>2024-05-28T17:30:54.174Z</time>
      </trkpt>
      <trkpt lat="45.86971499025822" lon="8.703039949759841">
        <ele>552.48</ele>
        <time>2024-05-28T17:31:00.586Z</time>
      </trkpt>
      <trkpt lat="45.869732927531004" lon="8.703041961416602">
        <ele>552.35</ele>
        <time>2024-05-28T17:31:06.999Z</time>
      </trkpt>
      <trkpt lat="45.869752960279584" lon="8.703034920617938">
        <ele>552.2</ele>
        <time>2024-05-28T17:31:13.413Z</time>
      </trkpt>
      <trkpt lat="45.8697849791497" lon="8.703039949759841">
        <ele>552.04</ele>
        <time>2024-05-28T17:31:19.828Z</time>
      </trkpt>
      <trkpt lat="45.86980693973601" lon="8.703042967244983">
        <ele>551.86</ele>
        <time>2024-05-28T17:31:26.243Z</time>
      </trkpt>
      <trkpt lat="45.86982697248459" lon="8.703044978901744">
        <ele>551.66</ele>
        <time>2024-05-28T17:31:32.659Z</time>
      </trkpt>
      <trkpt lat="45.86985798552632" lon="8.703047996386886">
        <ele>551.43</ele>
        <time>2024-05-28T17:31:39.076Z</time>
      </trkpt>
      <trkpt lat="45.8698869869113" lon="8.703047996386886">
        <ele>551.19</ele>
        <time>2024-05-28T17:31:45.494Z</time>
      </trkpt>
      <trkpt lat="45.86993199773133" lon="8.703066939488053">
        <ele>550.92</ele>
        <time>2024-05-28T17:31:51.914Z</time>
      </trkpt>
      <trkpt lat="45.869951946660876" lon="8.703062999993563">
        <ele>550.63</ele>
        <time>2024-05-28T17:31:58.334Z</time>
      </trkpt>
      <trkpt lat="45.869969967752695" lon="8.703077919781208">
        <ele>550.34</ele>
        <time>2024-05-28T17:32:04.755Z</time>
      </trkpt>
      <trkpt lat="45.869992934167385" lon="8.703082948923111">
        <ele>550.02</ele>
        <time>2024-05-28T17:32:11.177Z</time>
      </trkpt>
      <trkpt lat="45.870031993836164" lon="8.703111950308084">
        <ele>549.68</ele>
        <time>2024-05-28T17:32:17.600Z</time>
      </trkpt>
      <trkpt lat="45.87006292305887" lon="8.703114967793226">
        <ele>549.31</ele>
        <time>2024-05-28T17:32:24.024Z</time>
      </trkpt>
      <trkpt lat="45.87008496746421" lon="8.703106921166182">
        <ele>548.91</ele>
        <time>2024-05-28T17:32:30.449Z</time>
      </trkpt>
      <trkpt lat="45.87010198272765" lon="8.703086972236633">
        <ele>548.49</ele>
        <time>2024-05-28T17:32:36.875Z</time>
      </trkpt>
      <trkpt lat="45.8701269607991" lon="8.70310197584331">
        <ele>548.08</ele>
        <time>2024-05-28T17:32:43.302Z</time>
      </trkpt>
      <trkpt lat="45.87015696801245" lon="8.703106921166182">
        <ele>547.63</ele>
        <time>2024-05-28T17:32:49.730Z</time>
      </trkpt>
      <trkpt lat="45.870184963569045" lon="8.70308194309473">
        <ele>547.15</ele>
        <time>2024-05-28T17:32:56.159Z</time>
      </trkpt>
      <trkpt lat="45.87021698243916" lon="8.703074986115098">
        <ele>546.66</ele>
        <time>2024-05-28T17:33:02.589Z</time>
      </trkpt>
      <trkpt lat="45.87023693136871" lon="8.703049924224615">
        <ele>546.14</ele>
        <time>2024-05-28T17:33:09.020Z</time>
      </trkpt>
      <trkpt lat="45.87023994885385" lon="8.703021928668022">
        <ele>545.6</ele>
        <time>2024-05-28T17:33:15.451Z</time>
      </trkpt>
      <trkpt lat="45.8702649269253" lon="8.703007930889726">
        <ele>545.05</ele>
        <time>2024-05-28T17:33:21.883Z</time>
      </trkpt>
      <trkpt lat="45.87030692026019" lon="8.702992927283049">
        <ele>544.48</ele>
        <time>2024-05-28T17:33:28.317Z</time>
      </trkpt>
      <trkpt lat="45.870337933301926" lon="8.702959986403584">
        <ele>543.86</ele>
        <time>2024-05-28T17:33:34.752Z</time>
      </trkpt>
      <trkpt lat="45.870354948565364" lon="8.70292997919023">
        <ele>543.25</ele>
        <time>2024-05-28T17:33:41.188Z</time>
      </trkpt>
      <trkpt lat="45.87036995217204" lon="8.702897960320115">
        <ele>542.63</ele>
        <time>2024-05-28T17:33:47.625Z</time>
      </trkpt>
      <trkpt lat="45.870399959385395" lon="8.702872982248664">
        <ele>542.0</ele>
        <time>2024-05-28T17:33:54.063Z</time>
      </trkpt>
      <trkpt lat="45.87042795494199" lon="8.702849932014942">
        <ele>541.37</ele>
        <time>2024-05-28T17:34:00.502Z</time>
      </trkpt>
      <trkpt lat="45.8704599738121" lon="8.702836940065026">
        <ele>540.75</ele>
        <time>2024-05-28T17:34:06.942Z</time>
      </trkpt>
      <trkpt lat="45.870487969368696" lon="8.702834928408265">
        <ele>540.13</ele>
        <time>2024-05-28T17:34:13.383Z</time>
      </trkpt>
      <trkpt lat="45.870507918298244" lon="8.702819924801588">
        <ele>539.5</ele>
        <time>2024-05-28T17:34:19.825Z</time>
      </trkpt>
      <trkpt lat="45.87052292190492" lon="8.70279997587204">
        <ele>538.85</ele>
        <time>2024-05-28T17:34:26.268Z</time>
      </trkpt>
      <trkpt lat="45.87053993716836" lon="8.702784972265363">
        <ele>538.21</ele>
        <time>2024-05-28T17:34:32.711Z</time>
      </trkpt>
      <trkpt lat="45.87055795826018" lon="8.702784972265363">
        <ele>537.59</ele>
        <time>2024-05-28T17:34:39.155Z</time>
      </trkpt>
      <trkpt lat="45.87058193050325" lon="8.702786983922124">
        <ele>536.97</ele>
        <time>2024-05-28T17:34:45.600Z</time>
      </trkpt>
      <trkpt lat="45.870612943544984" lon="8.702789917588234">
        <ele>536.34</ele>
        <time>2024-05-28T17:34:52.046Z</time>
      </trkpt>
      <trkpt lat="45.870639933273196" lon="8.702802993357182">
        <ele>535.73</ele>
        <time>2024-05-28T17:34:58.493Z</time>
      </trkpt>
      <trkpt lat="45.87066499516368" lon="8.702809950336814">
        <ele>535.12</ele>
        <time>2024-05-28T17:35:04.940Z</time>
      </trkpt>
      <trkpt lat="45.870699947699904" lon="8.702806932851672">
        <ele>534.48</ele>
        <time>2024-05-28T17:35:11.389Z</time>
      </trkpt>
      <trkpt lat="45.870724925771356" lon="8.702809950336814">
        <ele>533.86</ele>
        <time>2024-05-28T17:35:17.838Z</time>
      </trkpt>
      <trkpt lat="45.87075493298471" lon="8.702802993357182">
        <ele>533.23</ele>
        <time>2024-05-28T17:35:24.288Z</time>
      </trkpt>
      <trkpt lat="45.87077295407653" lon="8.702809950336814">
        <ele>532.62</ele>
        <time>2024-05-28T17:35:30.739Z</time>
      </trkpt>
      <trkpt lat="45.87079994380474" lon="8.702809950336814">
        <ele>532.0</ele>
        <time>2024-05-28T17:35:37.191Z</time>
      </trkpt>
      <trkpt lat="45.870831962674856" lon="8.702789917588234">
        <ele>531.36</ele>
        <time>2024-05-28T17:35:43.644Z</time>
      </trkpt>
      <trkpt lat="45.870849983766675" lon="8.702796958386898">
        <ele>530.76</ele>
        <time>2024-05-28T17:35:50.098Z</time>
      </trkpt>
      <trkpt lat="45.870891977101564" lon="8.702784972265363">
        <ele>530.13</ele>
        <time>2024-05-28T17:35:56.553Z</time>
      </trkpt>
      <trkpt lat="45.870917961001396" lon="8.702784972265363">
        <ele>529.52</ele>
        <time>2024-05-28T17:36:03.009Z</time>
      </trkpt>
      <trkpt lat="45.870939921587706" lon="8.702764939516783">
        <ele>528.9</ele>
        <time>2024-05-28T17:36:09.466Z</time>
      </trkpt>
      <trkpt lat="45.87096498347819" lon="8.702769968658686">
        <ele>528.31</ele>
        <time>2024-05-28T17:36:15.924Z</time>
      </trkpt>
      <trkpt lat="45.87099499069154" lon="8.702776925638318">
        <ele>527.72</ele>
        <time>2024-05-28T17:36:22.383Z</time>
      </trkpt>
      <trkpt lat="45.87101695127785" lon="8.70277994312346">
        <ele>527.14</ele>
        <time>2024-05-28T17:36:28.843Z</time>
      </trkpt>
      <trkpt lat="45.87103698402643" lon="8.702769968658686">
        <ele>526.55</ele>
        <time>2024-05-28T17:36:35.303Z</time>
      </trkpt>
      <trkpt lat="45.87105793878436" lon="8.702759994193912">
        <ele>525.97</ele>
        <time>2024-05-28T17:36:41.764Z</time>
      </trkpt>
      <trkpt lat="45.87107797153294" lon="8.702751947566867">
        <ele>525.4</ele>
        <time>2024-05-28T17:36:48.226Z</time>
      </trkpt>
      <trkpt lat="45.87110294960439" lon="8.702744990587234">
        <ele>524.84</ele>
        <time>2024-05-28T17:36:54.689Z</time>
      </trkpt>
      <trkpt lat="45.87111996486783" lon="8.70273694396019">
        <ele>524.3</ele>
        <time>2024-05-28T17:37:01.152Z</time>
      </trkpt>
      <trkpt lat="45.87114192545414" lon="8.702726969495416">
        <ele>523.76</ele>
        <time>2024-05-28T17:37:07.616Z</time>
      </trkpt>
      <trkpt lat="45.87116992101073" lon="8.702716995030642">
        <ele>523.23</ele>
        <time>2024-05-28T17:37:14.081Z</time>
      </trkpt>
      <trkpt lat="45.87117997929454" lon="8.702691933140159">
        <ele>522.7</ele>
        <time>2024-05-28T17:37:20.547Z</time>
      </trkpt>
      <trkpt lat="45.87118995375931" lon="8.702664943411946">
        <ele>522.18</ele>
        <time>2024-05-28T17:37:27.013Z</time>
      </trkpt>
      <trkpt lat="45.87120797485113" lon="8.702639965340495">
        <ele>521.67</ele>
        <time>2024-05-28T17:37:33.480Z</time>
      </trkpt>
      <trkpt lat="45.871234964579344" lon="8.702604928985238">
        <ele>521.16</ele>
        <time>2024-05-28T17:37:39.948Z</time>
      </trkpt>
      <trkpt lat="45.87124996818602" lon="8.702587997540832">
        <ele>520.69</ele>
        <time>2024-05-28T17:37:46.417Z</time>
      </trkpt>
      <trkpt lat="45.87126991711557" lon="8.702587997540832">
        <ele>520.25</ele>
        <time>2024-05-28T17:37:52.887Z</time>
      </trkpt>
      <trkpt lat="45.87131199426949" lon="8.702592942863703">
        <ele>519.82</ele>
        <time>2024-05-28T17:37:59.358Z</time>
      </trkpt>
      <trkpt lat="45.87132993154228" lon="8.702601995319128">
        <ele>519.42</ele>
        <time>2024-05-28T17:38:05.830Z</time>
      </trkpt>
      <trkpt lat="45.87136195041239" lon="8.702609958127141">
        <ele>519.03</ele>
        <time>2024-05-28T17:38:12.303Z</time>
      </trkpt>
      <trkpt lat="45.87137795984745" lon="8.702619932591915">
        <ele>518.67</ele>
        <time>2024-05-28T17:38:18.776Z</time>
      </trkpt>
      <trkpt lat="45.87139799259603" lon="8.70263191871345">
        <ele>518.32</ele>
        <time>2024-05-28T17:38:25.250Z</time>
      </trkpt>
      <trkpt lat="45.871429927647114" lon="8.702644994482398">
        <ele>517.98</ele>
        <time>2024-05-28T17:38:31.725Z</time>
      </trkpt>
      <trkpt lat="45.87144794873893" lon="8.70265195146203">
        <ele>517.66</ele>
        <time>2024-05-28T17:38:38.201Z</time>
      </trkpt>
      <trkpt lat="45.871471920982" lon="8.70264993980527">
        <ele>517.34</ele>
        <time>2024-05-28T17:38:44.678Z</time>
      </trkpt>
      <trkpt lat="45.871492959558964" lon="8.70264993980527">
        <ele>517.05</ele>
        <time>2024-05-28T17:38:51.155Z</time>
      </trkpt>
      <trkpt lat="45.87152497842908" lon="8.702654968947172">
        <ele>516.76</ele>
        <time>2024-05-28T17:38:57.633Z</time>
      </trkpt>
      <trkpt lat="45.87155196815729" lon="8.702659998089075">
        <ele>516.5</ele>
        <time>2024-05-28T17:39:04.112Z</time>
      </trkpt>
      <trkpt lat="45.87156998924911" lon="8.70267198421061">
        <ele>516.26</ele>
        <time>2024-05-28T17:39:10.592Z</time>
      </trkpt>
      <trkpt lat="45.8715929556638" lon="8.702684976160526">
        <ele>516.03</ele>
        <time>2024-05-28T17:39:17.073Z</time>
      </trkpt>
      <trkpt lat="45.871611982584" lon="8.702699979767203">
        <ele>515.81</ele>
        <time>2024-05-28T17:39:23.554Z</time>
      </trkpt>
      <trkpt lat="45.87163494899869" lon="8.702711965888739">
        <ele>515.61</ele>
        <time>2024-05-28T17:39:30.036Z</time>
      </trkpt>
      <trkpt lat="45.87165699340403" lon="8.702719928696752">
        <ele>515.41</ele>
        <time>2024-05-28T17:39:36.519Z</time>
      </trkpt>
      <trkpt lat="45.8716949634254" lon="8.702739961445332">
        <ele>515.23</ele>
        <time>2024-05-28T17:39:43.003Z</time>
      </trkpt>
      <trkpt lat="45.871732933446765" lon="8.702744990587234">
        <ele>515.04</ele>
        <time>2024-05-28T17:39:49.489Z</time>
      </trkpt>
      <trkpt lat="45.87175992317498" lon="8.702739961445332">
        <ele>514.86</ele>
        <time>2024-05-28T17:39:55.976Z</time>
      </trkpt>
      <trkpt lat="45.871777944266796" lon="8.702731998637319">
        <ele>514.69</ele>
        <time>2024-05-28T17:40:02.463Z</time>
      </trkpt>
      <trkpt lat="45.871794959530234" lon="8.702711965888739">
        <ele>514.52</ele>
        <time>2024-05-28T17:40:08.951Z</time>
      </trkpt>
      <trkpt lat="45.871839970350266" lon="8.702699979767203">
        <ele>514.36</ele>
        <time>2024-05-28T17:40:15.440Z</time>
      </trkpt>
      <trkpt lat="45.87186796590686" lon="8.702706936746836">
        <ele>514.22</ele>
        <time>2024-05-28T17:40:21.930Z</time>
      </trkpt>
      <trkpt lat="45.87188699282706" lon="8.702711965888739">
        <ele>514.1</ele>
        <time>2024-05-28T17:40:28.421Z</time>
      </trkpt>
      <trkpt lat="45.87190995924175" lon="8.702704925090075">
        <ele>513.96</ele>
        <time>2024-05-28T17:40:34.913Z</time>
      </trkpt>
      <trkpt lat="45.8719349373132" lon="8.702704925090075">
        <ele>513.84</ele>
        <time>2024-05-28T17:40:41.406Z</time>
      </trkpt>
      <trkpt lat="45.871969973668456" lon="8.702704925090075">
        <ele>513.73</ele>
        <time>2024-05-28T17:40:47.900Z</time>
      </trkpt>
      <trkpt lat="45.87200492620468" lon="8.702704925090075">
        <ele>513.61</ele>
        <time>2024-05-28T17:40:54.395Z</time>
      </trkpt>
      <trkpt lat="45.8720279764384" lon="8.702696962282062">
        <ele>513.5</ele>
        <time>2024-05-28T17:41:00.891Z</time>
      </trkpt>
      <trkpt lat="45.87204691953957" lon="8.702686987817287">
        <ele>513.38</ele>
        <time>2024-05-28T17:41:07.387Z</time>
      </trkpt>
      <trkpt lat="45.87206996977329" lon="8.702679947018623">
        <ele>513.27</ele>
        <time>2024-05-28T17:41:13.884Z</time>
      </trkpt>
      <trkpt lat="45.8720919303596" lon="8.70267491787672">
        <ele>513.15</ele>
        <time>2024-05-28T17:41:20.382Z</time>
      </trkpt>
      <trkpt lat="45.87212696671486" lon="8.702664943411946">
        <ele>513.04</ele>
        <time>2024-05-28T17:41:26.881Z</time>
      </trkpt>
      <trkpt lat="45.87216795422137" lon="8.702659998089075">
        <ele>512.92</ele>
        <time>2024-05-28T17:41:33.382Z</time>
      </trkpt>
      <trkpt lat="45.87219192646444" lon="8.702664943411946">
        <ele>512.82</ele>
        <time>2024-05-28T17:41:39.883Z</time>
      </trkpt>
      <trkpt lat="45.87223693728447" lon="8.70267198421061">
        <ele>512.71</ele>
        <time>2024-05-28T17:41:46.386Z</time>
      </trkpt>
      <trkpt lat="45.87228295393288" lon="8.702679947018623">
        <ele>512.59</ele>
        <time>2024-05-28T17:41:52.890Z</time>
      </trkpt>
      <trkpt lat="45.87232192978263" lon="8.702684976160526">
        <ele>512.47</ele>
        <time>2024-05-28T17:41:59.396Z</time>
      </trkpt>
      <trkpt lat="45.87234498001635" lon="8.702679947018623">
        <ele>512.33</ele>
        <time>2024-05-28T17:42:05.903Z</time>
      </trkpt>
      <trkpt lat="45.87236694060266" lon="8.70267198421061">
        <ele>512.17</ele>
        <time>2024-05-28T17:42:12.410Z</time>
      </trkpt>
      <trkpt lat="45.872396947816014" lon="8.702679947018623">
        <ele>512.03</ele>
        <time>2024-05-28T17:42:18.918Z</time>
      </trkpt>
      <trkpt lat="45.87242494337261" lon="8.702691933140159">
        <ele>511.88</ele>
        <time>2024-05-28T17:42:25.427Z</time>
      </trkpt>
      <trkpt lat="45.87244698777795" lon="8.702701991423965">
        <ele>511.71</ele>
        <time>2024-05-28T17:42:31.937Z</time>
      </trkpt>
      <trkpt lat="45.8724669367075" lon="8.702691933140159">
        <ele>511.52</ele>
        <time>2024-05-28T17:42:38.448Z</time>
      </trkpt>
      <trkpt lat="45.872484957799315" lon="8.702704925090075">
        <ele>511.34</ele>
        <time>2024-05-28T17:42:44.959Z</time>
      </trkpt>
      <trkpt lat="45.87251999415457" lon="8.702697968110442">
        <ele>511.13</ele>
        <time>2024-05-28T17:42:51.472Z</time>
      </trkpt>
      <trkpt lat="45.872549917548895" lon="8.702704925090075">
        <ele>510.92</ele>
        <time>2024-05-28T17:42:57.986Z</time>
      </trkpt>
      <trkpt lat="45.872567938640714" lon="8.702706936746836">
        <ele>510.68</ele>
        <time>2024-05-28T17:43:04.500Z</time>
      </trkpt>
      <trkpt lat="45.872612949460745" lon="8.702699979767203">
        <ele>510.43</ele>
        <time>2024-05-28T17:43:11.016Z</time>
      </trkpt>
      <trkpt lat="45.87264195084572" lon="8.702704925090075">
        <ele>510.16</ele>
        <time>2024-05-28T17:43:17.533Z</time>
      </trkpt>
      <trkpt lat="45.872679920867085" lon="8.702709954231977">
        <ele>509.87</ele>
        <time>2024-05-28T17:43:24.051Z</time>
      </trkpt>
      <trkpt lat="45.87270297110081" lon="8.702716995030642">
        <ele>509.58</ele>
        <time>2024-05-28T17:43:30.570Z</time>
      </trkpt>
      <trkpt lat="45.87272199802101" lon="8.702709954231977">
        <ele>509.26</ele>
        <time>2024-05-28T17:43:37.089Z</time>
      </trkpt>
      <trkpt lat="45.87273792363703" lon="8.702696962282062">
        <ele>508.93</ele>
        <time>2024-05-28T17:43:43.609Z</time>
      </trkpt>
      <trkpt lat="45.872741946950555" lon="8.702664943411946">
        <ele>508.58</ele>
        <time>2024-05-28T17:43:50.130Z</time>
      </trkpt>
      <trkpt lat="45.87274798192084" lon="8.702637953683734">
        <ele>508.22</ele>
        <time>2024-05-28T17:43:56.651Z</time>
      </trkpt>
      <trkpt lat="45.8727449644357" lon="8.702597972005606">
        <ele>507.85</ele>
        <time>2024-05-28T17:44:03.173Z</time>
      </trkpt>
      <trkpt lat="45.87274798192084" lon="8.702571988105774">
        <ele>507.48</ele>
        <time>2024-05-28T17:44:09.696Z</time>
      </trkpt>
      <trkpt lat="45.87275795638561" lon="8.70254198089242">
        <ele>507.09</ele>
        <time>2024-05-28T17:44:16.220Z</time>
      </trkpt>
      <trkpt lat="45.872766925022006" lon="8.702506944537163">
        <ele>506.69</ele>
        <time>2024-05-28T17:44:22.745Z</time>
      </trkpt>
      <trkpt lat="45.87278997525573" lon="8.70247995480895">
        <ele>506.28</ele>
        <time>2024-05-28T17:44:29.271Z</time>
      </trkpt>
      <trkpt lat="45.87279299274087" lon="8.702441984787583">
        <ele>505.87</ele>
        <time>2024-05-28T17:44:35.797Z</time>
      </trkpt>
      <trkpt lat="45.87281193584204" lon="8.70241197757423">
        <ele>505.45</ele>
        <time>2024-05-28T17:44:42.324Z</time>
      </trkpt>
      <trkpt lat="45.87283993139863" lon="8.702382976189256">
        <ele>505.02</ele>
        <time>2024-05-28T17:44:48.853Z</time>
      </trkpt>
      <trkpt lat="45.87285694666207" lon="8.702361937612295">
        <ele>504.6</ele>
        <time>2024-05-28T17:44:55.382Z</time>
      </trkpt>
      <trkpt lat="45.87287697941065" lon="8.702332936227322">
        <ele>504.18</ele>
        <time>2024-05-28T17:45:01.912Z</time>
      </trkpt>
      <trkpt lat="45.87288192473352" lon="8.702299995347857">
        <ele>503.75</ele>
        <time>2024-05-28T17:45:08.443Z</time>
      </trkpt>
      <trkpt lat="45.87289793416858" lon="8.702279962599277">
        <ele>503.33</ele>
        <time>2024-05-28T17:45:14.975Z</time>
      </trkpt>
      <trkpt lat="45.87290497496724" lon="8.702252972871065">
        <ele>502.91</ele>
        <time>2024-05-28T17:45:21.507Z</time>
      </trkpt>
      <trkpt lat="45.87293699383736" lon="8.702234951779246">
        <ele>502.5</ele>
        <time>2024-05-28T17:45:28.041Z</time>
      </trkpt>
      <trkpt lat="45.87294294498861" lon="8.702202932909131">
        <ele>502.08</ele>
        <time>2024-05-28T17:45:34.575Z</time>
      </trkpt>
      <trkpt lat="45.872956942766905" lon="8.70217795483768">
        <ele>501.68</ele>
        <time>2024-05-28T17:45:41.110Z</time>
      </trkpt>
      <trkpt lat="45.87296792306006" lon="8.702159933745861">
        <ele>501.28</ele>
        <time>2024-05-28T17:45:47.646Z</time>
      </trkpt>
      <trkpt lat="45.87299197912216" lon="8.702144930139184">
        <ele>500.89</ele>
        <time>2024-05-28T17:45:54.183Z</time>
      </trkpt>
      <trkpt lat="45.87301695719361" lon="8.702124981209636">
        <ele>500.5</ele>
        <time>2024-05-28T17:46:00.721Z</time>
      </trkpt>
      <trkpt lat="45.8730399236083" lon="8.702104948461056">
        <ele>500.12</ele>
        <time>2024-05-28T17:46:07.259Z</time>
      </trkpt>
      <trkpt lat="45.8730399236083" lon="8.702011993154883">
        <ele>499.73</ele>
        <time>2024-05-28T17:46:13.800Z</time>
      </trkpt>
      <trkpt lat="45.87302994914353" lon="8.701971927657723">
        <ele>499.36</ele>
        <time>2024-05-28T17:46:20.342Z</time>
      </trkpt>
      <trkpt lat="45.872999941930175" lon="8.701931945979595">
        <ele>499.01</ele>
        <time>2024-05-28T17:46:26.885Z</time>
      </trkpt>
      <trkpt lat="45.872981920838356" lon="8.70189992710948">
        <ele>498.67</ele>
        <time>2024-05-28T17:46:33.429Z</time>
      </trkpt>
      <trkpt lat="45.87296498939395" lon="8.701881989836693">
        <ele>498.36</ele>
        <time>2024-05-28T17:46:39.974Z</time>
      </trkpt>
      <trkpt lat="45.87294294498861" lon="8.701866986230016">
        <ele>498.06</ele>
        <time>2024-05-28T17:46:46.519Z</time>
      </trkpt>
      <trkpt lat="45.87291997857392" lon="8.701859945431352">
        <ele>497.78</ele>
        <time>2024-05-28T17:46:53.065Z</time>
      </trkpt>
      <trkpt lat="45.87289793416858" lon="8.701851982623339">
        <ele>497.51</ele>
        <time>2024-05-28T17:46:59.612Z</time>
      </trkpt>
      <trkpt lat="45.872869938611984" lon="8.701841924339533">
        <ele>497.26</ele>
        <time>2024-05-28T17:47:06.160Z</time>
      </trkpt>
      <trkpt lat="45.87284294888377" lon="8.701837984845042">
        <ele>497.03</ele>
        <time>2024-05-28T17:47:12.709Z</time>
      </trkpt>
      <trkpt lat="45.87282492779195" lon="8.701826920732856">
        <ele>496.8</ele>
        <time>2024-05-28T17:47:19.258Z</time>
      </trkpt>
      <trkpt lat="45.87280196137726" lon="8.701811917126179">
        <ele>496.59</ele>
        <time>2024-05-28T17:47:25.808Z</time>
      </trkpt>
      <trkpt lat="45.87277991697192" lon="8.701786939054728">
        <ele>496.39</ele>
        <time>2024-05-28T17:47:32.359Z</time>
      </trkpt>
      <trkpt lat="45.872759968042374" lon="8.701759949326515">
        <ele>496.2</ele>
        <time>2024-05-28T17:47:38.911Z</time>
      </trkpt>
      <trkpt lat="45.8727449644357" lon="8.701737988740206">
        <ele>496.03</ele>
        <time>2024-05-28T17:47:45.464Z</time>
      </trkpt>
      <trkpt lat="45.87272199802101" lon="8.7017279304564">
        <ele>495.88</ele>
        <time>2024-05-28T17:47:52.018Z</time>
      </trkpt>
      <trkpt lat="45.872699953615665" lon="8.701721979305148">
        <ele>495.75</ele>
        <time>2024-05-28T17:47:58.572Z</time>
      </trkpt>
      <trkpt lat="45.87267195805907" lon="8.701719967648387">
        <ele>495.63</ele>
        <time>2024-05-28T17:48:05.127Z</time>
      </trkpt>
      <trkpt lat="45.87264195084572" lon="8.701712926849723">
        <ele>495.53</ele>
        <time>2024-05-28T17:48:11.683Z</time>
      </trkpt>
      <trkpt lat="45.87260297499597" lon="8.701694989576936">
        <ele>495.44</ele>
        <time>2024-05-28T17:48:18.241Z</time>
      </trkpt>
      <trkpt lat="45.87257799692452" lon="8.701682919636369">
        <ele>495.36</ele>
        <time>2024-05-28T17:48:24.800Z</time>
      </trkpt>
      <trkpt lat="45.872549917548895" lon="8.701679985970259">
        <ele>495.29</ele>
        <time>2024-05-28T17:48:31.360Z</time>
      </trkpt>
      <trkpt lat="45.872526951134205" lon="8.701679985970259">
        <ele>495.23</ele>
        <time>2024-05-28T17:48:37.920Z</time>
      </trkpt>
      <trkpt lat="45.872504990547895" lon="8.701686942949891">
        <ele>495.18</ele>
        <time>2024-05-28T17:48:44.481Z</time>
      </trkpt>
      <trkpt lat="45.87247992865741" lon="8.701686942949891">
        <ele>495.14</ele>
        <time>2024-05-28T17:48:51.043Z</time>
      </trkpt>
      <trkpt lat="45.872459979727864" lon="8.701687948778272">
        <ele>495.11</ele>
        <time>2024-05-28T17:48:57.606Z</time>
      </trkpt>
      <trkpt lat="45.872439946979284" lon="8.701694989576936">
        <ele>495.09</ele>
        <time>2024-05-28T17:49:04.169Z</time>
      </trkpt>
      <trkpt lat="45.87243198417127" lon="8.701719967648387">
        <ele>495.08</ele>
        <time>2024-05-28T17:49:10.733Z</time>
      </trkpt>
      <trkpt lat="45.87240499444306" lon="8.701719967648387">
        <ele>495.07</ele>
        <time>2024-05-28T17:49:17.298Z</time>
      </trkpt>
      <trkpt lat="45.87238295003772" lon="8.701721979305148">
        <ele>495.07</ele>
        <time>2024-05-28T17:49:23.864Z</time>
      </trkpt>
      <trkpt lat="45.87235998362303" lon="8.7017279304564">
        <ele>495.07</ele>
        <time>2024-05-28T17:49:30.430Z</time>
      </trkpt>
      <trkpt lat="45.87232796475291" lon="8.701737988740206">
        <ele>495.08</ele>
        <time>2024-05-28T17:49:36.997Z</time>
      </trkpt>
      <trkpt lat="45.872292928397655" lon="8.701742934063077">
        <ele>495.08</ele>
        <time>2024-05-28T17:49:43.566Z</time>
      </trkpt>
      <trkpt lat="45.87227197363973" lon="8.7017469573766">
        <ele>495.09</ele>
        <time>2024-05-28T17:49:50.135Z</time>
      </trkpt>
      <trkpt lat="45.872244983911514" lon="8.701751986518502">
        <ele>495.1</ele>
        <time>2024-05-28T17:49:56.705Z</time>
      </trkpt>
      <trkpt lat="45.8722129650414" lon="8.701751986518502">
        <ele>495.1</ele>
        <time>2024-05-28T17:50:03.276Z</time>
      </trkpt>
      <trkpt lat="45.87219192646444" lon="8.701751986518502">
        <ele>495.11</ele>
        <time>2024-05-28T17:50:09.848Z</time>
      </trkpt>
      <trkpt lat="45.872164936736226" lon="8.701751986518502">
        <ele>495.12</ele>
        <time>2024-05-28T17:50:16.421Z</time>
      </trkpt>
      <trkpt lat="45.8721299842" lon="8.701741928234696">
        <ele>495.13</ele>
        <time>2024-05-28T17:50:22.995Z</time>
      </trkpt>
      <trkpt lat="45.87208497337997" lon="8.7017279304564">
        <ele>495.13</ele>
        <time>2024-05-28T17:50:29.571Z</time>
      </trkpt>
      <trkpt lat="45.872052954509854" lon="8.7017279304564">
        <ele>495.14</ele>
        <time>2024-05-28T17:50:36.148Z</time>
      </trkpt>
      <trkpt lat="45.87202495895326" lon="8.701736982911825">
        <ele>495.15</ele>
        <time>2024-05-28T17:50:42.726Z</time>
      </trkpt>
      <trkpt lat="45.871992940083146" lon="8.70176699012518">
        <ele>495.16</ele>
        <time>2024-05-28T17:50:49.305Z</time>
      </trkpt>
      <trkpt lat="45.8719729911536" lon="8.701782999560237">
        <ele>495.16</ele>
        <time>2024-05-28T17:50:55.885Z</time>
      </trkpt>
      <trkpt lat="45.87195798754692" lon="8.701799931004643">
        <ele>495.17</ele>
        <time>2024-05-28T17:51:02.465Z</time>
      </trkpt>
      <trkpt lat="45.8719349373132" lon="8.701819963753223">
        <ele>495.17</ele>
        <time>2024-05-28T17:51:09.046Z</time>
      </trkpt>
      <trkpt lat="45.87191691622138" lon="8.701837984845042">
        <ele>495.17</ele>
        <time>2024-05-28T17:51:15.628Z</time>
      </trkpt>
      <trkpt lat="45.87188992649317" lon="8.701851982623339">
        <ele>495.16</ele>
        <time>2024-05-28T17:51:22.211Z</time>
      </trkpt>
      <trkpt lat="45.87186494842172" lon="8.701866986230016">
        <ele>495.15</ele>
        <time>2024-05-28T17:51:28.795Z</time>
      </trkpt>
      <trkpt lat="45.87182999588549" lon="8.701892970129848">
        <ele>495.13</ele>
        <time>2024-05-28T17:51:35.380Z</time>
      </trkpt>
      <trkpt lat="45.87179194204509" lon="8.701891964301467">
        <ele>495.11</ele>
        <time>2024-05-28T17:51:41.966Z</time>
      </trkpt>
      <trkpt lat="45.8717499487102" lon="8.701881989836693">
        <ele>495.08</ele>
        <time>2024-05-28T17:51:48.554Z</time>
      </trkpt>
      <trkpt lat="45.87171792984009" lon="8.70187696069479">
        <ele>495.05</ele>
        <time>2024-05-28T17:51:55.143Z</time>
      </trkpt>
      <trkpt lat="45.871684988960624" lon="8.70185298845172">
        <ele>495.02</ele>
        <time>2024-05-28T17:52:01.733Z</time>
      </trkpt>
      <trkpt lat="45.87165297009051" lon="8.701839996501803">
        <ele>494.98</ele>
        <time>2024-05-28T17:52:08.324Z</time>
      </trkpt>
      <trkpt lat="45.87161793373525" lon="8.701831949874759">
        <ele>494.94</ele>
        <time>2024-05-28T17:52:14.916Z</time>
      </trkpt>
      <trkpt lat="45.87159697897732" lon="8.701821975409985">
        <ele>494.89</ele>
        <time>2024-05-28T17:52:21.509Z</time>
      </trkpt>
      <trkpt lat="45.87157292291522" lon="8.70183295570314">
        <ele>494.86</ele>
        <time>2024-05-28T17:52:28.103Z</time>
      </trkpt>
      <trkpt lat="45.87154794484377" lon="8.701837984845042">
        <ele>494.82</ele>
        <time>2024-05-28T17:52:34.698Z</time>
      </trkpt>
      <trkpt lat="45.871519949287176" lon="8.701839996501803">
        <ele>494.77</ele>
        <time>2024-05-28T17:52:41.294Z</time>
      </trkpt>
      <trkpt lat="45.871496982872486" lon="8.701841924339533">
        <ele>494.72</ele>
        <time>2024-05-28T17:52:47.890Z</time>
      </trkpt>
      <trkpt lat="45.87145792320371" lon="8.701836979016662">
        <ele>494.64</ele>
        <time>2024-05-28T17:52:54.488Z</time>
      </trkpt>
      <trkpt lat="45.87143998593092" lon="8.701819963753223">
        <ele>494.55</ele>
        <time>2024-05-28T17:53:01.087Z</time>
      </trkpt>
      <trkpt lat="45.87139992043376" lon="8.70179196819663">
        <ele>494.45</ele>
        <time>2024-05-28T17:53:07.687Z</time>
      </trkpt>
      <trkpt lat="45.871367985382676" lon="8.701759949326515">
        <ele>494.34</ele>
        <time>2024-05-28T17:53:14.288Z</time>
      </trkpt>
      <trkpt lat="45.87133998982608" lon="8.701732959598303">
        <ele>494.24</ele>
        <time>2024-05-28T17:53:20.890Z</time>
      </trkpt>
      <trkpt lat="45.87130797095597" lon="8.701701946556568">
        <ele>494.13</ele>
        <time>2024-05-28T17:53:27.494Z</time>
      </trkpt>
      <trkpt lat="45.871281987056136" lon="8.701674956828356">
        <ele>494.02</ele>
        <time>2024-05-28T17:53:34.099Z</time>
      </trkpt>
      <trkpt lat="45.871259942650795" lon="8.701652996242046">
        <ele>493.91</ele>
        <time>2024-05-28T17:53:40.705Z</time>
      </trkpt>
      <trkpt lat="45.871237982064486" lon="8.701632963493466">
        <ele>493.8</ele>
        <time>2024-05-28T17:53:47.312Z</time>
      </trkpt>
      <trkpt lat="45.87122197262943" lon="8.701612930744886">
        <ele>493.69</ele>
        <time>2024-05-28T17:53:53.919Z</time>
      </trkpt>
      <trkpt lat="45.871192971244454" lon="8.701581917703152">
        <ele>493.56</ele>
        <time>2024-05-28T17:54:00.527Z</time>
      </trkpt>
      <trkpt lat="45.871172938495874" lon="8.701561968773603">
        <ele>493.44</ele>
        <time>2024-05-28T17:54:07.136Z</time>
      </trkpt>
      <trkpt lat="45.871154917404056" lon="8.701547970995307">
        <ele>493.33</ele>
        <time>2024-05-28T17:54:13.746Z</time>
      </trkpt>
      <trkpt lat="45.871131950989366" lon="8.701529949903488">
        <ele>493.21</ele>
        <time>2024-05-28T17:54:20.357Z</time>
      </trkpt>
      <trkpt lat="45.871089957654476" lon="8.701496925204992">
        <ele>493.08</ele>
        <time>2024-05-28T17:54:26.969Z</time>
      </trkpt>
      <trkpt lat="45.871064979583025" lon="8.701479993760586">
        <ele>492.95</ele>
        <time>2024-05-28T17:54:33.582Z</time>
      </trkpt>
      <trkpt lat="45.871044946834445" lon="8.70146993547678">
        <ele>492.83</ele>
        <time>2024-05-28T17:54:40.196Z</time>
      </trkpt>
      <trkpt lat="45.871022986248136" lon="8.701462978497148">
        <ele>492.72</ele>
        <time>2024-05-28T17:54:46.811Z</time>
      </trkpt>
      <trkpt lat="45.870999936014414" lon="8.701456943526864">
        <ele>492.6</ele>
        <time>2024-05-28T17:54:53.427Z</time>
      </trkpt>
      <trkpt lat="45.870977975428104" lon="8.701456943526864">
        <ele>492.48</ele>
        <time>2024-05-28T17:55:00.043Z</time>
      </trkpt>
      <trkpt lat="45.870959954336286" lon="8.701459961012006">
        <ele>492.36</ele>
        <time>2024-05-28T17:55:06.660Z</time>
      </trkpt>
      <trkpt lat="45.870939921587706" lon="8.701464990153909">
        <ele>492.25</ele>
        <time>2024-05-28T17:55:13.278Z</time>
      </trkpt>
      <trkpt lat="45.870914943516254" lon="8.701459961012006">
        <ele>492.13</ele>
        <time>2024-05-28T17:55:19.896Z</time>
      </trkpt>
      <trkpt lat="45.87088191881776" lon="8.701454931870103">
        <ele>492.01</ele>
        <time>2024-05-28T17:55:26.516Z</time>
      </trkpt>
      <trkpt lat="45.87085694074631" lon="8.701456943526864">
        <ele>491.89</ele>
        <time>2024-05-28T17:55:33.136Z</time>
      </trkpt>
      <trkpt lat="45.87083799764514" lon="8.701462978497148">
        <ele>491.77</ele>
        <time>2024-05-28T17:55:39.757Z</time>
      </trkpt>
      <trkpt lat="45.87082492187619" lon="8.701482927426696">
        <ele>491.66</ele>
        <time>2024-05-28T17:55:46.379Z</time>
      </trkpt>
      <trkpt lat="45.87081494741142" lon="8.701529949903488">
        <ele>491.56</ele>
        <time>2024-05-28T17:55:53.002Z</time>
      </trkpt>
      <trkpt lat="45.8708019554615" lon="8.701564986258745">
        <ele>491.44</ele>
        <time>2024-05-28T17:55:59.626Z</time>
      </trkpt>
      <trkpt lat="45.870786951854825" lon="8.701581917703152">
        <ele>491.31</ele>
        <time>2024-05-28T17:56:06.250Z</time>
      </trkpt>
      <trkpt lat="45.870766919106245" lon="8.7015949934721">
        <ele>491.16</ele>
        <time>2024-05-28T17:56:12.875Z</time>
      </trkpt>
      <trkpt lat="45.8707519993186" lon="8.701607985422015">
        <ele>491.01</ele>
        <time>2024-05-28T17:56:19.501Z</time>
      </trkpt>
      <trkpt lat="45.870724925771356" lon="8.701604967936873">
        <ele>490.83</ele>
        <time>2024-05-28T17:56:26.128Z</time>
      </trkpt>
      <trkpt lat="45.87070698849857" lon="8.701621983200312">
        <ele>490.67</ele>
        <time>2024-05-28T17:56:32.755Z</time>
      </trkpt>
      <trkpt lat="45.870682932436466" lon="8.701614942401648">
        <ele>490.48</ele>
        <time>2024-05-28T17:56:39.383Z</time>
      </trkpt>
      <trkpt lat="45.87066197767854" lon="8.70159792713821">
        <ele>490.27</ele>
        <time>2024-05-28T17:56:46.012Z</time>
      </trkpt>
      <trkpt lat="45.87064194492996" lon="8.701581917703152">
        <ele>490.07</ele>
        <time>2024-05-28T17:56:52.642Z</time>
      </trkpt>
      <trkpt lat="45.87062291800976" lon="8.701537996530533">
        <ele>489.84</ele>
        <time>2024-05-28T17:56:59.273Z</time>
      </trkpt>
      <trkpt lat="45.87060699239373" lon="8.70151293464005">
        <ele>489.62</ele>
        <time>2024-05-28T17:57:05.905Z</time>
      </trkpt>
      <trkpt lat="45.87059995159507" lon="8.701487956568599">
        <ele>489.39</ele>
        <time>2024-05-28T17:57:12.537Z</time>
      </trkpt>
      <trkpt lat="45.87058796547353" lon="8.701459961012006">
        <ele>489.15</ele>
        <time>2024-05-28T17:57:19.170Z</time>
      </trkpt>
      <trkpt lat="45.8705619815737" lon="8.701419979333878">
        <ele>488.91</ele>
        <time>2024-05-28T17:57:25.804Z</time>
      </trkpt>
      <trkpt lat="45.870552929118276" lon="8.701396929100156">
        <ele>488.67</ele>
        <time>2024-05-28T17:57:32.439Z</time>
      </trkpt>
      <trkpt lat="45.87053993716836" lon="8.701376980170608">
        <ele>488.43</ele>
        <time>2024-05-28T17:57:39.075Z</time>
      </trkpt>
      <trkpt lat="45.870526945218444" lon="8.70133993215859">
        <ele>488.17</ele>
        <time>2024-05-28T17:57:45.712Z</time>
      </trkpt>
      <trkpt lat="45.870507918298244" lon="8.7013169657439">
        <ele>487.93</ele>
        <time>2024-05-28T17:57:52.349Z</time>
      </trkpt>
      <trkpt lat="45.87047992274165" lon="8.701291987672448">
        <ele>487.68</ele>
        <time>2024-05-28T17:57:58.988Z</time>
      </trkpt>
      <trkpt lat="45.87045695632696" lon="8.701271954923868">
        <ele>487.44</ele>
        <time>2024-05-28T17:58:05.627Z</time>
      </trkpt>
      <trkpt lat="45.87043792940676" lon="8.701244965195656">
        <ele>487.19</ele>
        <time>2024-05-28T17:58:12.267Z</time>
      </trkpt>
      <trkpt lat="45.87042795494199" lon="8.701217975467443">
        <ele>486.93</ele>
        <time>2024-05-28T17:58:18.908Z</time>
      </trkpt>
      <trkpt lat="45.87041496299207" lon="8.701197942718863">
        <ele>486.69</ele>
        <time>2024-05-28T17:58:25.550Z</time>
      </trkpt>
      <trkpt lat="45.8704049885273" lon="8.701176987960935">
        <ele>486.45</ele>
        <time>2024-05-28T17:58:32.192Z</time>
      </trkpt>
      <trkpt lat="45.87040792219341" lon="8.701139939948916">
        <ele>486.2</ele>
        <time>2024-05-28T17:58:38.835Z</time>
      </trkpt>
      <trkpt lat="45.870399959385395" lon="8.701106999069452">
        <ele>485.97</ele>
        <time>2024-05-28T17:58:45.479Z</time>
      </trkpt>
      <trkpt lat="45.87041496299207" lon="8.701079925522208">
        <ele>485.73</ele>
        <time>2024-05-28T17:58:52.124Z</time>
      </trkpt>
      <trkpt lat="45.87042795494199" lon="8.70103994384408">
        <ele>485.5</ele>
        <time>2024-05-28T17:58:58.770Z</time>
      </trkpt>
      <trkpt lat="45.870424937456846" lon="8.701011948287487">
        <ele>485.29</ele>
        <time>2024-05-28T17:59:05.416Z</time>
      </trkpt>
      <trkpt lat="45.87042795494199" lon="8.700981941074133">
        <ele>485.08</ele>
        <time>2024-05-28T17:59:12.063Z</time>
      </trkpt>
      <trkpt lat="45.8704049885273" lon="8.70095293968916">
        <ele>484.88</ele>
        <time>2024-05-28T17:59:18.711Z</time>
      </trkpt>
      <trkpt lat="45.870376992970705" lon="8.700919998809695">
        <ele>484.7</ele>
        <time>2024-05-28T17:59:25.360Z</time>
      </trkpt>
      <trkpt lat="45.870379926636815" lon="8.700879933312535">
        <ele>484.51</ele>
        <time>2024-05-28T17:59:32.010Z</time>
      </trkpt>
      <trkpt lat="45.87039694190025" lon="8.700856966897845">
        <ele>484.35</ele>
        <time>2024-05-28T17:59:38.661Z</time>
      </trkpt>
      <trkpt lat="45.870401971042156" lon="8.700829977169633">
        <ele>484.2</ele>
        <time>2024-05-28T17:59:45.313Z</time>
      </trkpt>
      <trkpt lat="45.87043499574065" lon="8.700809944421053">
        <ele>484.06</ele>
        <time>2024-05-28T17:59:51.966Z</time>
      </trkpt>
      <trkpt lat="45.87045695632696" lon="8.700797958299518">
        <ele>483.93</ele>
        <time>2024-05-28T17:59:58.620Z</time>
      </trkpt>
      <trkpt lat="45.870466930791736" lon="8.700769962742925">
        <ele>483.81</ele>
        <time>2024-05-28T18:00:05.274Z</time>
      </trkpt>
      <trkpt lat="45.87045695632696" lon="8.700734926387668">
        <ele>483.7</ele>
        <time>2024-05-28T18:00:11.929Z</time>
      </trkpt>
      <trkpt lat="45.87042795494199" lon="8.700709948316216">
        <ele>483.61</ele>
        <time>2024-05-28T18:00:18.585Z</time>
      </trkpt>
      <trkpt lat="45.87040792219341" lon="8.700686981901526">
        <ele>483.53</ele>
        <time>2024-05-28T18:00:25.242Z</time>
      </trkpt>
      <trkpt lat="45.87040792219341" lon="8.70065194554627">
        <ele>483.45</ele>
        <time>2024-05-28T18:00:31.900Z</time>
      </trkpt>
      <trkpt lat="45.870401971042156" lon="8.700626967474818">
        <ele>483.39</ele>
        <time>2024-05-28T18:00:38.559Z</time>
      </trkpt>
      <trkpt lat="45.870401971042156" lon="8.700594948604703">
        <ele>483.34</ele>
        <time>2024-05-28T18:00:45.218Z</time>
      </trkpt>
      <trkpt lat="45.87040792219341" lon="8.700564941391349">
        <ele>483.3</ele>
        <time>2024-05-28T18:00:51.878Z</time>
      </trkpt>
      <trkpt lat="45.87042795494199" lon="8.7005449924618">
        <ele>483.26</ele>
        <time>2024-05-28T18:00:58.539Z</time>
      </trkpt>
      <trkpt lat="45.87042795494199" lon="8.70050492696464">
        <ele>483.24</ele>
        <time>2024-05-28T18:01:05.201Z</time>
      </trkpt>
      <trkpt lat="45.870421919971704" lon="8.70047994889319">
        <ele>483.22</ele>
        <time>2024-05-28T18:01:11.864Z</time>
      </trkpt>
      <trkpt lat="45.87041496299207" lon="8.700452959164977">
        <ele>483.22</ele>
        <time>2024-05-28T18:01:18.527Z</time>
      </trkpt>
      <trkpt lat="45.87040792219341" lon="8.700426975265145">
        <ele>483.22</ele>
        <time>2024-05-28T18:01:25.191Z</time>
      </trkpt>
      <trkpt lat="45.87043792940676" lon="8.700401997193694">
        <ele>483.22</ele>
        <time>2024-05-28T18:01:31.856Z</time>
      </trkpt>
      <trkpt lat="45.870442958548665" lon="8.70037299580872">
        <ele>483.23</ele>
        <time>2024-05-28T18:01:38.522Z</time>
      </trkpt>
      <trkpt lat="45.87043792940676" lon="8.70033192448318">
        <ele>483.24</ele>
        <time>2024-05-28T18:01:45.189Z</time>
      </trkpt>
      <trkpt lat="45.87042795494199" lon="8.700301917269826">
        <ele>483.26</ele>
        <time>2024-05-28T18:01:51.856Z</time>
      </trkpt>
      <trkpt lat="45.870424937456846" lon="8.700254978612065">
        <ele>483.28</ele>
        <time>2024-05-28T18:01:58.525Z</time>
      </trkpt>
      <trkpt lat="45.870417980477214" lon="8.700229916721582">
        <ele>483.3</ele>
        <time>2024-05-28T18:02:05.194Z</time>
      </trkpt>
      <trkpt lat="45.870417980477214" lon="8.70019999332726">
        <ele>483.32</ele>
        <time>2024-05-28T18:02:11.864Z</time>
      </trkpt>
      <trkpt lat="45.870417980477214" lon="8.700169986113906">
        <ele>483.34</ele>
        <time>2024-05-28T18:02:18.535Z</time>
      </trkpt>
      <trkpt lat="45.87041496299207" lon="8.700142996385694">
        <ele>483.36</ele>
        <time>2024-05-28T18:02:25.206Z</time>
      </trkpt>
      <trkpt lat="45.87040792219341" lon="8.700104942545295">
        <ele>483.38</ele>
        <time>2024-05-28T18:02:31.878Z</time>
      </trkpt>
      <trkpt lat="45.870401971042156" lon="8.700059931725264">
        <ele>483.39</ele>
        <time>2024-05-28T18:02:38.551Z</time>
      </trkpt>
      <trkpt lat="45.870399959385395" lon="8.700019950047135">
        <ele>483.41</ele>
        <time>2024-05-28T18:02:45.225Z</time>
      </trkpt>
      <trkpt lat="45.87040792219341" lon="8.69998692534864">
        <ele>483.42</ele>
        <time>2024-05-28T18:02:51.900Z</time>
      </trkpt>
      <trkpt lat="45.8704049885273" lon="8.699957923963666">
        <ele>483.42</ele>
        <time>2024-05-28T18:02:58.576Z</time>
      </trkpt>
      <trkpt lat="45.8704049885273" lon="8.69992196559906">
        <ele>483.41</ele>
        <time>2024-05-28T18:03:05.252Z</time>
      </trkpt>
      <trkpt lat="45.8704049885273" lon="8.699894975870848">
        <ele>483.39</ele>
        <time>2024-05-28T18:03:11.929Z</time>
      </trkpt>
      <trkpt lat="45.87040792219341" lon="8.699861951172352">
        <ele>483.35</ele>
        <time>2024-05-28T18:03:18.607Z</time>
      </trkpt>
      <trkpt lat="45.870424937456846" lon="8.699837978929281">
        <ele>483.3</ele>
        <time>2024-05-28T18:03:25.286Z</time>
      </trkpt>
      <trkpt lat="45.87043994106352" lon="8.69981199502945">
        <ele>483.23</ele>
        <time>2024-05-28T18:03:31.965Z</time>
      </trkpt>
      <trkpt lat="45.87043994106352" lon="8.699776958674192">
        <ele>483.14</ele>
        <time>2024-05-28T18:03:38.645Z</time>
      </trkpt>
      <trkpt lat="45.87045293301344" lon="8.699731947854161">
        <ele>483.04</ele>
        <time>2024-05-28T18:03:45.326Z</time>
      </trkpt>
      <trkpt lat="45.8704599738121" lon="8.69968693703413">
        <ele>482.93</ele>
        <time>2024-05-28T18:03:52.009Z</time>
      </trkpt>
      <trkpt lat="45.87047992274165" lon="8.699679980054498">
        <ele>482.79</ele>
        <time>2024-05-28T18:03:58.692Z</time>
      </trkpt>
      <trkpt lat="45.87049794383347" lon="8.699676962569356">
        <ele>482.63</ele>
        <time>2024-05-28T18:04:05.376Z</time>
      </trkpt>
      <trkpt lat="45.87051797658205" lon="8.69963999837637">
        <ele>482.46</ele>
        <time>2024-05-28T18:04:12.061Z</time>
      </trkpt>
      <trkpt lat="45.870546977967024" lon="8.69960194453597">
        <ele>482.25</ele>
        <time>2024-05-28T18:04:18.747Z</time>
      </trkpt>
      <trkpt lat="45.87056499905884" lon="8.699591970071197">
        <ele>482.04</ele>
        <time>2024-05-28T18:04:25.434Z</time>
      </trkpt>
      <trkpt lat="45.87058796547353" lon="8.699547965079546">
        <ele>481.8</ele>
        <time>2024-05-28T18:04:32.122Z</time>
      </trkpt>
      <trkpt lat="45.870612943544984" lon="8.699519969522953">
        <ele>481.54</ele>
        <time>2024-05-28T18:04:38.811Z</time>
      </trkpt>
      <trkpt lat="45.87062694132328" lon="8.69949297979474">
        <ele>481.28</ele>
        <time>2024-05-28T18:04:45.501Z</time>
      </trkpt>
      <trkpt lat="45.87064194492996" lon="8.699467917904258">
        <ele>480.99</ele>
        <time>2024-05-28T18:04:52.192Z</time>
      </trkpt>
      <trkpt lat="45.870657954365015" lon="8.69944998063147">
        <ele>480.68</ele>
        <time>2024-05-28T18:04:58.883Z</time>
      </trkpt>
      <trkpt lat="45.87066499516368" lon="8.699422990903258">
        <ele>480.37</ele>
        <time>2024-05-28T18:05:05.575Z</time>
      </trkpt>
      <trkpt lat="45.870679998770356" lon="8.699394995346665">
        <ele>480.02</ele>
        <time>2024-05-28T18:05:12.268Z</time>
      </trkpt>
      <trkpt lat="45.87069299072027" lon="8.699377980083227">
        <ele>479.67</ele>
        <time>2024-05-28T18:05:18.961Z</time>
      </trkpt>
      <trkpt lat="45.87069693021476" lon="8.69934294372797">
        <ele>479.31</ele>
        <time>2024-05-28T18:05:25.655Z</time>
      </trkpt>
      <trkpt lat="45.870702965185046" lon="8.69931997731328">
        <ele>478.93</ele>
        <time>2024-05-28T18:05:32.350Z</time>
      </trkpt>
      <trkpt lat="45.870724925771356" lon="8.699289970099926">
        <ele>478.53</ele>
        <time>2024-05-28T18:05:39.046Z</time>
      </trkpt>
      <trkpt lat="45.870744958519936" lon="8.699261974543333">
        <ele>478.11</ele>
        <time>2024-05-28T18:05:45.743Z</time>
      </trkpt>
      <trkpt lat="45.87077697739005" lon="8.699239930137992">
        <ele>477.67</ele>
        <time>2024-05-28T18:05:52.441Z</time>
      </trkpt>
      <trkpt lat="45.8708019554615" lon="8.699216963723302">
        <ele>477.22</ele>
        <time>2024-05-28T18:05:59.140Z</time>
      </trkpt>
      <trkpt lat="45.87079994380474" lon="8.699181927368045">
        <ele>476.79</ele>
        <time>2024-05-28T18:06:05.840Z</time>
      </trkpt>
      <trkpt lat="45.87077999487519" lon="8.699144963175058">
        <ele>476.37</ele>
        <time>2024-05-28T18:06:12.541Z</time>
      </trkpt>
      <trkpt lat="45.870766919106245" lon="8.699124930426478">
        <ele>475.94</ele>
        <time>2024-05-28T18:06:19.243Z</time>
      </trkpt>
      <trkpt lat="45.87075996212661" lon="8.699099952355027">
        <ele>475.48</ele>
        <time>2024-05-28T18:06:25.945Z</time>
      </trkpt>
      <trkpt lat="45.87075996212661" lon="8.699076985940337">
        <ele>475.01</ele>
        <time>2024-05-28T18:06:32.648Z</time>
      </trkpt>
      <trkpt lat="45.87075996212661" lon="8.69904295541346">
        <ele>474.53</ele>
        <time>2024-05-28T18:06:39.352Z</time>
      </trkpt>
      <trkpt lat="45.87075996212661" lon="8.699007919058204">
        <ele>474.05</ele>
        <time>2024-05-28T18:06:46.056Z</time>
      </trkpt>
      <trkpt lat="45.870766919106245" lon="8.698977995663881">
        <ele>473.55</ele>
        <time>2024-05-28T18:06:52.761Z</time>
      </trkpt>
      <trkpt lat="45.87077697739005" lon="8.698942959308624">
        <ele>473.04</ele>
        <time>2024-05-28T18:06:59.467Z</time>
      </trkpt>
      <trkpt lat="45.87079298682511" lon="8.698901971802115">
        <ele>472.51</ele>
        <time>2024-05-28T18:07:06.174Z</time>
      </trkpt>
      <trkpt lat="45.8707969263196" lon="8.698872970417142">
        <ele>472.0</ele>
        <time>2024-05-28T18:07:12.882Z</time>
      </trkpt>
      <trkpt lat="45.870804972946644" lon="8.69884698651731">
        <ele>471.48</ele>
        <time>2024-05-28T18:07:19.590Z</time>
      </trkpt>
      <trkpt lat="45.870811929926276" lon="8.698821924626827">
        <ele>470.96</ele>
        <time>2024-05-28T18:07:26.299Z</time>
      </trkpt>
      <trkpt lat="45.87083992548287" lon="8.69878496043384">
        <ele>470.44</ele>
        <time>2024-05-28T18:07:33.009Z</time>
      </trkpt>
      <trkpt lat="45.87085995823145" lon="8.698777919635177">
        <ele>469.93</ele>
        <time>2024-05-28T18:07:39.720Z</time>
      </trkpt>
      <trkpt lat="45.87088191881776" lon="8.698774985969067">
        <ele>469.42</ele>
        <time>2024-05-28T18:07:46.432Z</time>
      </trkpt>
      <trkpt lat="45.87086699903011" lon="8.698752941563725">
        <ele>468.94</ele>
        <time>2024-05-28T18:07:53.144Z</time>
      </trkpt>
      <trkpt lat="45.87088191881776" lon="8.698729975149035">
        <ele>468.43</ele>
        <time>2024-05-28T18:07:59.857Z</time>
      </trkpt>
      <trkpt lat="45.870897928252816" lon="8.698714971542358">
        <ele>467.92</ele>
        <time>2024-05-28T18:08:06.571Z</time>
      </trkpt>
      <trkpt lat="45.87090496905148" lon="8.69867792353034">
        <ele>467.42</ele>
        <time>2024-05-28T18:08:13.286Z</time>
      </trkpt>
      <trkpt lat="45.87091997265816" lon="8.698647916316986">
        <ele>466.91</ele>
        <time>2024-05-28T18:08:20.002Z</time>
      </trkpt>
      <trkpt lat="45.87092994712293" lon="8.698609946295619">
        <ele>466.41</ele>
        <time>2024-05-28T18:08:26.718Z</time>
      </trkpt>
      <trkpt lat="45.870939921587706" lon="8.698574993759394">
        <ele>465.92</ele>
        <time>2024-05-28T18:08:33.435Z</time>
      </trkpt>
      <trkpt lat="45.87095299735665" lon="8.698536939918995">
        <ele>465.43</ele>
        <time>2024-05-28T18:08:40.153Z</time>
      </trkpt>
      <trkpt lat="45.870959954336286" lon="8.698496958240867">
        <ele>464.94</ele>
        <time>2024-05-28T18:08:46.872Z</time>
      </trkpt>
      <trkpt lat="45.87094696238637" lon="8.698471980169415">
        <ele>464.47</ele>
        <time>2024-05-28T18:08:53.592Z</time>
      </trkpt>
      <trkpt lat="45.87094696238637" lon="8.698437949642539">
        <ele>463.99</ele>
        <time>2024-05-28T18:09:00.313Z</time>
      </trkpt>
      <trkpt lat="45.8709229901433" lon="8.698399979621172">
        <ele>463.52</ele>
        <time>2024-05-28T18:09:07.035Z</time>
      </trkpt>
      <trkpt lat="45.87090496905148" lon="8.69837298989296">
        <ele>463.04</ele>
        <time>2024-05-28T18:09:13.758Z</time>
      </trkpt>
      <trkpt lat="45.87090195156634" lon="8.698346922174096">
        <ele>462.57</ele>
        <time>2024-05-28T18:09:20.482Z</time>
      </trkpt>
      <trkpt lat="45.870897928252816" lon="8.698302917182446">
        <ele>462.1</ele>
        <time>2024-05-28T18:09:27.207Z</time>
      </trkpt>
      <trkpt lat="45.870894994586706" lon="8.698276933282614">
        <ele>461.63</ele>
        <time>2024-05-28T18:09:33.932Z</time>
      </trkpt>
      <trkpt lat="45.870897928252816" lon="8.698227982968092">
        <ele>461.17</ele>
        <time>2024-05-28T18:09:40.658Z</time>
      </trkpt>
      <trkpt lat="45.870894994586706" lon="8.698192946612835">
        <ele>460.7</ele>
        <time>2024-05-28T18:09:47.385Z</time>
      </trkpt>
      <trkpt lat="45.870894994586706" lon="8.6981619335711">
        <ele>460.25</ele>
        <time>2024-05-28T18:09:54.113Z</time>
      </trkpt>
      <trkpt lat="45.870872950181365" lon="8.698121951892972">
        <ele>459.79</ele>
        <time>2024-05-28T18:10:00.842Z</time>
      </trkpt>
      <trkpt lat="45.87085995823145" lon="8.698089933022857">
        <ele>459.33</ele>
        <time>2024-05-28T18:10:07.572Z</time>
      </trkpt>
      <trkpt lat="45.870849983766675" lon="8.698059925809503">
        <ele>458.87</ele>
        <time>2024-05-28T18:10:14.303Z</time>
      </trkpt>
      <trkpt lat="45.87083799764514" lon="8.698029918596148">
        <ele>458.41</ele>
        <time>2024-05-28T18:10:21.034Z</time>
      </trkpt>
      <trkpt lat="45.87081796489656" lon="8.697996977716684">
        <ele>457.96</ele>
        <time>2024-05-28T18:10:27.766Z</time>
      </trkpt>
      <trkpt lat="45.87079994380474" lon="8.697959929704666">
        <ele>457.51</ele>
        <time>2024-05-28T18:10:34.500Z</time>
      </trkpt>
      <trkpt lat="45.870786951854825" lon="8.697931934148073">
        <ele>457.08</ele>
        <time>2024-05-28T18:10:41.234Z</time>
      </trkpt>
      <trkpt lat="45.8707829285413" lon="8.69789999909699">
        <ele>456.64</ele>
        <time>2024-05-28T18:10:47.969Z</time>
      </trkpt>
      <trkpt lat="45.87077697739005" lon="8.697871919721365">
        <ele>456.22</ele>
        <time>2024-05-28T18:10:54.705Z</time>
      </trkpt>
      <trkpt lat="45.870762979611754" lon="8.697834955528378">
        <ele>455.79</ele>
        <time>2024-05-28T18:11:01.442Z</time>
      </trkpt>
      <trkpt lat="45.87075996212661" lon="8.697799919173121">
        <ele>455.36</ele>
        <time>2024-05-28T18:11:08.180Z</time>
      </trkpt>
      <trkpt lat="45.87075996212661" lon="8.697764966636896">
        <ele>454.95</ele>
        <time>2024-05-28T18:11:14.918Z</time>
      </trkpt>
      <trkpt lat="45.87075996212661" lon="8.697726996615529">
        <ele>454.53</ele>
        <time>2024-05-28T18:11:21.657Z</time>
      </trkpt>
      <trkpt lat="45.87075795046985" lon="8.697686931118369">
        <ele>454.12</ele>
        <time>2024-05-28T18:11:28.397Z</time>
      </trkpt>
      <trkpt lat="45.87075795046985" lon="8.697647955268621">
        <ele>453.72</ele>
        <time>2024-05-28T18:11:35.138Z</time>
      </trkpt>
      <trkpt lat="45.87075795046985" lon="8.697611996904016">
        <ele>453.33</ele>
        <time>2024-05-28T18:11:41.880Z</time>
      </trkpt>
      <trkpt lat="45.87075996212661" lon="8.6975799780339">
        <ele>452.95</ele>
        <time>2024-05-28T18:11:48.623Z</time>
      </trkpt>
      <trkpt lat="45.87075493298471" lon="8.697532955557108">
        <ele>452.56</ele>
        <time>2024-05-28T18:11:55.367Z</time>
      </trkpt>
      <trkpt lat="45.8707519993186" lon="8.69749297387898">
        <ele>452.19</ele>
        <time>2024-05-28T18:12:02.112Z</time>
      </trkpt>
      <trkpt lat="45.870744958519936" lon="8.697442933917046">
        <ele>451.82</ele>
        <time>2024-05-28T18:12:08.858Z</time>
      </trkpt>
      <trkpt lat="45.87073791772127" lon="8.697394989430904">
        <ele>451.46</ele>
        <time>2024-05-28T18:12:15.605Z</time>
      </trkpt>
      <trkpt lat="45.87073498405516" lon="8.697347966954112">
        <ele>451.1</ele>
        <time>2024-05-28T18:12:22.353Z</time>
      </trkpt>
      <trkpt lat="45.87073498405516" lon="8.697309996932745">
        <ele>450.75</ele>
        <time>2024-05-28T18:12:29.102Z</time>
      </trkpt>
      <trkpt lat="45.87073498405516" lon="8.697272948920727">
        <ele>450.41</ele>
        <time>2024-05-28T18:12:35.852Z</time>
      </trkpt>
      <trkpt lat="45.87073498405516" lon="8.697229949757457">
        <ele>450.07</ele>
        <time>2024-05-28T18:12:42.603Z</time>
      </trkpt>
      <trkpt lat="45.87073498405516" lon="8.697184938937426">
        <ele>449.75</ele>
        <time>2024-05-28T18:12:49.355Z</time>
      </trkpt>
      <trkpt lat="45.87073196657002" lon="8.697144957259297">
        <ele>449.43</ele>
        <time>2024-05-28T18:12:56.108Z</time>
      </trkpt>
      <trkpt lat="45.87073196657002" lon="8.697099946439266">
        <ele>449.11</ele>
        <time>2024-05-28T18:13:02.862Z</time>
      </trkpt>
      <trkpt lat="45.870724925771356" lon="8.697059964761138">
        <ele>448.79</ele>
        <time>2024-05-28T18:13:09.617Z</time>
      </trkpt>
      <trkpt lat="45.870721992105246" lon="8.697021994739771">
        <ele>448.47</ele>
        <time>2024-05-28T18:13:16.373Z</time>
      </trkpt>
      <trkpt lat="45.870721992105246" lon="8.696986958384514">
        <ele>448.16</ele>
        <time>2024-05-28T18:13:23.130Z</time>
      </trkpt>
      <trkpt lat="45.870719980448484" lon="8.696946976706386">
        <ele>447.85</ele>
        <time>2024-05-28T18:13:29.888Z</time>
      </trkpt>
      <trkpt lat="45.87071293964982" lon="8.696911940351129">
        <ele>447.55</ele>
        <time>2024-05-28T18:13:36.646Z</time>
      </trkpt>
      <trkpt lat="45.870699947699904" lon="8.696881933137774">
        <ele>447.25</ele>
        <time>2024-05-28T18:13:43.405Z</time>
      </trkpt>
      <trkpt lat="45.870679998770356" lon="8.696856955066323">
        <ele>446.97</ele>
        <time>2024-05-28T18:13:50.165Z</time>
      </trkpt>
      <trkpt lat="45.87066197767854" lon="8.696831976994872">
        <ele>446.69</ele>
        <time>2024-05-28T18:13:56.926Z</time>
      </trkpt>
      <trkpt lat="45.870639933273196" lon="8.696806998923421">
        <ele>446.41</ele>
        <time>2024-05-28T18:14:03.688Z</time>
      </trkpt>
      <trkpt lat="45.87061998434365" lon="8.696787972003222">
        <ele>446.14</ele>
        <time>2024-05-28T18:14:10.451Z</time>
      </trkpt>
      <trkpt lat="45.87060699239373" lon="8.696766933426261">
        <ele>445.87</ele>
        <time>2024-05-28T18:14:17.214Z</time>
      </trkpt>
      <trkpt lat="45.87059793993831" lon="8.69672292843461">
        <ele>445.6</ele>
        <time>2024-05-28T18:14:23.978Z</time>
      </trkpt>
      <trkpt lat="45.87057799100876" lon="8.696712953969836">
        <ele>445.34</ele>
        <time>2024-05-28T18:14:30.743Z</time>
      </trkpt>
      <trkpt lat="45.870552929118276" lon="8.696701973676682">
        <ele>445.08</ele>
        <time>2024-05-28T18:14:37.509Z</time>
      </trkpt>
      <trkpt lat="45.870526945218444" lon="8.696694932878017">
        <ele>444.82</ele>
        <time>2024-05-28T18:14:44.276Z</time>
      </trkpt>
      <trkpt lat="45.870504984632134" lon="8.69667992927134">
        <ele>444.56</ele>
        <time>2024-05-28T18:14:51.044Z</time>
      </trkpt>
      <trkpt lat="45.87046994827688" lon="8.696657968685031">
        <ele>444.3</ele>
        <time>2024-05-28T18:14:57.813Z</time>
      </trkpt>
      <trkpt lat="45.870442958548665" lon="8.696639947593212">
        <ele>444.04</ele>
        <time>2024-05-28T18:15:04.583Z</time>
      </trkpt>
      <trkpt lat="45.87041496299207" lon="8.696622932329774">
        <ele>443.78</ele>
        <time>2024-05-28T18:15:11.354Z</time>
      </trkpt>
      <trkpt lat="45.870379926636815" lon="8.696609940379858">
        <ele>443.52</ele>
        <time>2024-05-28T18:15:18.126Z</time>
      </trkpt>
      <trkpt lat="45.87034497410059" lon="8.696599965915084">
        <ele>443.25</ele>
        <time>2024-05-28T18:15:24.899Z</time>
      </trkpt>
      <trkpt lat="45.87031999602914" lon="8.696584962308407">
        <ele>442.98</ele>
        <time>2024-05-28T18:15:31.673Z</time>
      </trkpt>
      <trkpt lat="45.87028294801712" lon="8.696559984236956">
        <ele>442.69</ele>
        <time>2024-05-28T18:15:38.449Z</time>
      </trkpt>
      <trkpt lat="45.87026794441044" lon="8.696536934003234">
        <ele>442.42</ele>
        <time>2024-05-28T18:15:45.225Z</time>
      </trkpt>
      <trkpt lat="45.87027993053198" lon="8.696516985073686">
        <ele>442.16</ele>
        <time>2024-05-28T18:15:52.002Z</time>
      </trkpt>
      <trkpt lat="45.87029694579542" lon="8.696499969810247">
        <ele>441.9</ele>
        <time>2024-05-28T18:15:58.780Z</time>
      </trkpt>
      <trkpt lat="45.87032192386687" lon="8.69650298729539">
        <ele>441.71</ele>
        <time>2024-05-28T18:16:05.559Z</time>
      </trkpt>
      <trkpt lat="45.870357966050506" lon="8.696499969810247">
        <ele>441.39</ele>
        <time>2024-05-28T18:16:12.339Z</time>
      </trkpt>
      <trkpt lat="45.87038696743548" lon="8.696489995345473">
        <ele>441.12</ele>
        <time>2024-05-28T18:16:19.120Z</time>
      </trkpt>
      <trkpt lat="45.870424937456846" lon="8.69648496620357">
        <ele>440.84</ele>
        <time>2024-05-28T18:16:25.902Z</time>
      </trkpt>
      <trkpt lat="45.87045695632696" lon="8.696486977860332">
        <ele>440.57</ele>
        <time>2024-05-28T18:16:32.685Z</time>
      </trkpt>
      <trkpt lat="45.87049492634833" lon="8.696494940668344">
        <ele>440.29</ele>
        <time>2024-05-28T18:16:39.469Z</time>
      </trkpt>
      <trkpt lat="45.87051495909691" lon="8.696489995345473">
        <ele>439.99</ele>
        <time>2024-05-28T18:16:46.254Z</time>
      </trkpt>
      <trkpt lat="45.8705429546535" lon="8.696466945111752">
        <ele>439.68</ele>
        <time>2024-05-28T18:16:53.040Z</time>
      </trkpt>
      <trkpt lat="45.87056499905884" lon="8.696456970646977">
        <ele>439.38</ele>
        <time>2024-05-28T18:16:59.827Z</time>
      </trkpt>
      <trkpt lat="45.87061998434365" lon="8.696444984525442">
        <ele>439.06</ele>
        <time>2024-05-28T18:17:06.616Z</time>
      </trkpt>
      <trkpt lat="45.87065191939473" lon="8.696436937898397">
        <ele>438.74</ele>
        <time>2024-05-28T18:17:13.406Z</time>
      </trkpt>
      <trkpt lat="45.870677987113595" lon="8.696424951776862">
        <ele>438.4</ele>
        <time>2024-05-28T18:17:20.197Z</time>
      </trkpt>
      <trkpt lat="45.87069299072027" lon="8.696404919028282">
        <ele>438.06</ele>
        <time>2024-05-28T18:17:26.988Z</time>
      </trkpt>
      <trkpt lat="45.87071696296334" lon="8.696386981755495">
        <ele>437.71</ele>
        <time>2024-05-28T18:17:33.780Z</time>
      </trkpt>
      <trkpt lat="45.870741941034794" lon="8.69637499563396">
        <ele>437.36</ele>
        <time>2024-05-28T18:17:40.573Z</time>
      </trkpt>
      <trkpt lat="45.87075493298471" lon="8.696344988420606">
        <ele>436.99</ele>
        <time>2024-05-28T18:17:47.367Z</time>
      </trkpt>
      <trkpt lat="45.870762979611754" lon="8.696316992864013">
        <ele>436.62</ele>
        <time>2024-05-28T18:17:54.162Z</time>
      </trkpt>
      <trkpt lat="45.870786951854825" lon="8.696299977600574">
        <ele>436.26</ele>
        <time>2024-05-28T18:18:00.958Z</time>
      </trkpt>
      <trkpt lat="45.87082198821008" lon="8.696289919316769">
        <ele>435.91</ele>
        <time>2024-05-28T18:18:07.755Z</time>
      </trkpt>
      <trkpt lat="45.870852917432785" lon="8.696252955123782">
        <ele>435.53</ele>
        <time>2024-05-28T18:18:14.553Z</time>
      </trkpt>
      <trkpt lat="45.870872950181365" lon="8.696216996759176">
        <ele>435.16</ele>
        <time>2024-05-28T18:18:21.352Z</time>
      </trkpt>
      <trkpt lat="45.87086297571659" lon="8.696179948747158">
        <ele>434.77</ele>
        <time>2024-05-28T18:18:28.152Z</time>
      </trkpt>
      <trkpt lat="45.870852917432785" lon="8.696137955412269">
        <ele>434.38</ele>
        <time>2024-05-28T18:18:34.953Z</time>
      </trkpt>
      <trkpt lat="45.870852917432785" lon="8.696101997047663">
        <ele>434.0</ele>
        <time>2024-05-28T18:18:41.755Z</time>
      </trkpt>
      <trkpt lat="45.870849983766675" lon="8.696066960692406">
        <ele>433.62</ele>
        <time>2024-05-28T18:18:48.558Z</time>
      </trkpt>
      <trkpt lat="45.87083992548287" lon="8.69603494182229">
        <ele>433.23</ele>
        <time>2024-05-28T18:18:55.362Z</time>
      </trkpt>
      <trkpt lat="45.87083992548287" lon="8.696002922952175">
        <ele>432.84</ele>
        <time>2024-05-28T18:19:02.166Z</time>
      </trkpt>
      <trkpt lat="45.87083992548287" lon="8.695974927395582">
        <ele>432.46</ele>
        <time>2024-05-28T18:19:08.971Z</time>
      </trkpt>
      <trkpt lat="45.870849983766675" lon="8.695934945717454">
        <ele>432.06</ele>
        <time>2024-05-28T18:19:15.777Z</time>
      </trkpt>
      <trkpt lat="45.87084294296801" lon="8.69588297791779">
        <ele>431.67</ele>
        <time>2024-05-28T18:19:22.584Z</time>
      </trkpt>
      <trkpt lat="45.87083992548287" lon="8.695836961269379">
        <ele>431.3</ele>
        <time>2024-05-28T18:19:29.392Z</time>
      </trkpt>
      <trkpt lat="45.870849983766675" lon="8.695799997076392">
        <ele>430.92</ele>
        <time>2024-05-28T18:19:36.201Z</time>
      </trkpt>
      <trkpt lat="45.870852917432785" lon="8.695736965164542">
        <ele>430.53</ele>
        <time>2024-05-28T18:19:43.012Z</time>
      </trkpt>
      <trkpt lat="45.87083799764514" lon="8.695686925202608">
        <ele>430.13</ele>
        <time>2024-05-28T18:19:49.824Z</time>
      </trkpt>
      <trkpt lat="45.87082492187619" lon="8.695644931867719">
        <ele>429.74</ele>
        <time>2024-05-28T18:19:56.637Z</time>
      </trkpt>
      <trkpt lat="45.87082198821008" lon="8.69560495018959">
        <ele>429.34</ele>
        <time>2024-05-28T18:20:03.451Z</time>
      </trkpt>
      <trkpt lat="45.87081494741142" lon="8.695557927712798">
        <ele>428.94</ele>
        <time>2024-05-28T18:20:10.266Z</time>
      </trkpt>
      <trkpt lat="45.870804972946644" lon="8.695507971569896">
        <ele>428.53</ele>
        <time>2024-05-28T18:20:17.082Z</time>
      </trkpt>
      <trkpt lat="45.87079298682511" lon="8.695457931607962">
        <ele>428.11</ele>
        <time>2024-05-28T18:20:23.900Z</time>
      </trkpt>
      <trkpt lat="45.870786951854825" lon="8.695416944101453">
        <ele>427.66</ele>
        <time>2024-05-28T18:20:30.719Z</time>
      </trkpt>
      <trkpt lat="45.87077697739005" lon="8.69536698795855">
        <ele>427.19</ele>
        <time>2024-05-28T18:20:37.539Z</time>
      </trkpt>
      <trkpt lat="45.87077697739005" lon="8.69532692246139">
        <ele>426.7</ele>
        <time>2024-05-28T18:20:44.360Z</time>
      </trkpt>
      <trkpt lat="45.87077999487519" lon="8.69528291746974">
        <ele>426.2</ele>
        <time>2024-05-28T18:20:51.182Z</time>
      </trkpt>
      <trkpt lat="45.87077999487519" lon="8.695229943841696">
        <ele>425.68</ele>
        <time>2024-05-28T18:20:58.005Z</time>
      </trkpt>
      <trkpt lat="45.87079298682511" lon="8.695187950506806">
        <ele>425.13</ele>
        <time>2024-05-28T18:21:04.829Z</time>
      </trkpt>
      <trkpt lat="45.870804972946644" lon="8.69514998048544">
        <ele>424.55</ele>
        <time>2024-05-28T18:21:11.654Z</time>
      </trkpt>
      <trkpt lat="45.87082492187619" lon="8.695114944130182">
        <ele>423.96</ele>
        <time>2024-05-28T18:21:18.480Z</time>
      </trkpt>
      <trkpt lat="45.87083992548287" lon="8.695079991593957">
        <ele>423.34</ele>
        <time>2024-05-28T18:21:25.307Z</time>
      </trkpt>
      <trkpt lat="45.87086297571659" lon="8.695039926096797">
        <ele>422.71</ele>
        <time>2024-05-28T18:21:32.135Z</time>
      </trkpt>
      <trkpt lat="45.87087999098003" lon="8.695016959682107">
        <ele>422.06</ele>
        <time>2024-05-28T18:21:38.964Z</time>
      </trkpt>
      <trkpt lat="45.87090195156634" lon="8.694997932761908">
        <ele>421.38</ele>
        <time>2024-05-28T18:21:45.794Z</time>
      </trkpt>
      <trkpt lat="45.87091997265816" lon="8.694976978003979">
        <ele>420.69</ele>
        <time>2024-05-28T18:21:52.625Z</time>
      </trkpt>
      <trkpt lat="45.870939921587706" lon="8.694941941648722">
        <ele>419.97</ele>
        <time>2024-05-28T18:21:59.457Z</time>
      </trkpt>
      <trkpt lat="45.87096196599305" lon="8.694917969405651">
        <ele>419.25</ele>
        <time>2024-05-28T18:22:06.290Z</time>
      </trkpt>
      <trkpt lat="45.870977975428104" lon="8.694889973849058">
        <ele>418.51</ele>
        <time>2024-05-28T18:22:13.123Z</time>
      </trkpt>
      <trkpt lat="45.87099792435765" lon="8.694842951372266">
        <ele>417.76</ele>
        <time>2024-05-28T18:22:19.958Z</time>
      </trkpt>
      <trkpt lat="45.871002953499556" lon="8.694812944158912">
        <ele>417.01</ele>
        <time>2024-05-28T18:22:26.793Z</time>
      </trkpt>
      <trkpt lat="45.871019968762994" lon="8.694779919460416">
        <ele>416.24</ele>
        <time>2024-05-28T18:22:33.629Z</time>
      </trkpt>
      <trkpt lat="45.87103991769254" lon="8.69474295526743">
        <ele>415.46</ele>
        <time>2024-05-28T18:22:40.466Z</time>
      </trkpt>
      <trkpt lat="45.87105198763311" lon="8.694706996902823">
        <ele>414.68</ele>
        <time>2024-05-28T18:22:47.304Z</time>
      </trkpt>
      <trkpt lat="45.87105492129922" lon="8.694662991911173">
        <ele>413.91</ele>
        <time>2024-05-28T18:22:54.143Z</time>
      </trkpt>
      <trkpt lat="45.871064979583025" lon="8.694622926414013">
        <ele>413.14</ele>
        <time>2024-05-28T18:23:00.983Z</time>
      </trkpt>
      <trkpt lat="45.8710749540478" lon="8.694582944735885">
        <ele>412.36</ele>
        <time>2024-05-28T18:23:07.824Z</time>
      </trkpt>
      <trkpt lat="45.8710799831897" lon="8.694542963057756">
        <ele>411.6</ele>
        <time>2024-05-28T18:23:14.666Z</time>
      </trkpt>
      <trkpt lat="45.871089957654476" lon="8.69450993835926">
        <ele>410.84</ele>
        <time>2024-05-28T18:23:21.509Z</time>
      </trkpt>
      <trkpt lat="45.87109993211925" lon="8.694472974166274">
        <ele>410.09</ele>
        <time>2024-05-28T18:23:28.353Z</time>
      </trkpt>
      <trkpt lat="45.871112924069166" lon="8.694432992488146">
        <ele>409.35</ele>
        <time>2024-05-28T18:23:35.198Z</time>
      </trkpt>
      <trkpt lat="45.87111694738269" lon="8.694389993324876">
        <ele>408.62</ele>
        <time>2024-05-28T18:23:42.044Z</time>
      </trkpt>
      <trkpt lat="45.871131950989366" lon="8.694351939484477">
        <ele>407.91</ele>
        <time>2024-05-28T18:23:48.891Z</time>
      </trkpt>
      <trkpt lat="45.87114494293928" lon="8.69431497529149">
        <ele>407.22</ele>
        <time>2024-05-28T18:23:55.739Z</time>
      </trkpt>
      <trkpt lat="45.8711629640311" lon="8.694281950592995">
        <ele>406.54</ele>
        <time>2024-05-28T18:24:02.588Z</time>
      </trkpt>
      <trkpt lat="45.87117997929454" lon="8.69424993172288">
        <ele>405.89</ele>
        <time>2024-05-28T18:24:09.438Z</time>
      </trkpt>
      <trkpt lat="45.87119992822409" lon="8.694217996671796">
        <ele>405.25</ele>
        <time>2024-05-28T18:24:16.289Z</time>
      </trkpt>
      <trkpt lat="45.87122197262943" lon="8.694189917296171">
        <ele>404.65</ele>
        <time>2024-05-28T18:24:23.141Z</time>
      </trkpt>
      <trkpt lat="45.87124996818602" lon="8.694151947274804">
        <ele>404.07</ele>
        <time>2024-05-28T18:24:29.994Z</time>
      </trkpt>
      <trkpt lat="45.87127293460071" lon="8.69412294588983">
        <ele>403.51</ele>
        <time>2024-05-28T18:24:36.848Z</time>
      </trkpt>
      <trkpt lat="45.871301935985684" lon="8.69409997947514">
        <ele>402.98</ele>
        <time>2024-05-28T18:24:43.703Z</time>
      </trkpt>
      <trkpt lat="45.87131794542074" lon="8.694066954776645">
        <ele>402.46</ele>
        <time>2024-05-28T18:24:50.559Z</time>
      </trkpt>
      <trkpt lat="45.87133998982608" lon="8.694037953391671">
        <ele>401.97</ele>
        <time>2024-05-28T18:24:57.416Z</time>
      </trkpt>
      <trkpt lat="45.871367985382676" lon="8.694017920643091">
        <ele>401.51</ele>
        <time>2024-05-28T18:25:04.274Z</time>
      </trkpt>
      <trkpt lat="45.87139195762575" lon="8.694016998633742">
        <ele>401.06</ele>
        <time>2024-05-28T18:25:11.133Z</time>
      </trkpt>
      <trkpt lat="45.87141299620271" lon="8.694021943956614">
        <ele>400.63</ele>
        <time>2024-05-28T18:25:17.993Z</time>
      </trkpt>
      <trkpt lat="45.871432945132256" lon="8.694022949784994">
        <ele>400.21</ele>
        <time>2024-05-28T18:25:24.854Z</time>
      </trkpt>
      <trkpt lat="45.87145792320371" lon="8.694022949784994">
        <ele>399.81</ele>
        <time>2024-05-28T18:25:31.715Z</time>
      </trkpt>
      <trkpt lat="45.87147996760905" lon="8.694017920643091">
        <ele>399.41</ele>
        <time>2024-05-28T18:25:38.577Z</time>
      </trkpt>
      <trkpt lat="45.871499916538596" lon="8.694006940349936">
        <ele>399.02</ele>
        <time>2024-05-28T18:25:45.440Z</time>
      </trkpt>
      <trkpt lat="45.871519949287176" lon="8.693981962278485">
        <ele>398.65</ele>
        <time>2024-05-28T18:25:52.304Z</time>
      </trkpt>
      <trkpt lat="45.87154199369252" lon="8.693954972550273">
        <ele>398.28</ele>
        <time>2024-05-28T18:25:59.169Z</time>
      </trkpt>
      <trkpt lat="45.87155791930854" lon="8.693921947851777">
        <ele>397.93</ele>
        <time>2024-05-28T18:26:06.035Z</time>
      </trkpt>
      <trkpt lat="45.87158692069352" lon="8.693889928981662">
        <ele>397.59</ele>
        <time>2024-05-28T18:26:12.902Z</time>
      </trkpt>
      <trkpt lat="45.87160795927048" lon="8.693859921768308">
        <ele>397.26</ele>
        <time>2024-05-28T18:26:19.770Z</time>
      </trkpt>
      <trkpt lat="45.87163193151355" lon="8.693829998373985">
        <ele>396.94</ele>
        <time>2024-05-28T18:26:26.639Z</time>
      </trkpt>
      <trkpt lat="45.87165297009051" lon="8.693794962018728">
        <ele>396.64</ele>
        <time>2024-05-28T18:26:33.509Z</time>
      </trkpt>
      <trkpt lat="45.87167291902006" lon="8.693757997825742">
        <ele>396.35</ele>
        <time>2024-05-28T18:26:40.380Z</time>
      </trkpt>
      <trkpt lat="45.87167995981872" lon="8.69371198117733">
        <ele>396.08</ele>
        <time>2024-05-28T18:26:47.252Z</time>
      </trkpt>
      <trkpt lat="45.87169798091054" lon="8.693679962307215">
        <ele>395.81</ele>
        <time>2024-05-28T18:26:54.125Z</time>
      </trkpt>
      <trkpt lat="45.87171499617398" lon="8.693644925951958">
        <ele>395.54</ele>
        <time>2024-05-28T18:27:00.999Z</time>
      </trkpt>
      <trkpt lat="45.87173997424543" lon="8.693616930395365">
        <ele>395.29</ele>
        <time>2024-05-28T18:27:07.874Z</time>
      </trkpt>
      <trkpt lat="45.87175992317498" lon="8.693579966202378">
        <ele>395.04</ele>
        <time>2024-05-28T18:27:14.750Z</time>
      </trkpt>
      <trkpt lat="45.87178791873157" lon="8.693536967039108">
        <ele>394.79</ele>
        <time>2024-05-28T18:27:21.628Z</time>
      </trkpt>
      <trkpt lat="45.871816920116544" lon="8.693492962047458">
        <ele>394.55</ele>
        <time>2024-05-28T18:27:28.507Z</time>
      </trkpt>
      <trkpt lat="45.87184793315828" lon="8.693451974540949">
        <ele>394.33</ele>
        <time>2024-05-28T18:27:35.387Z</time>
      </trkpt>
      <trkpt lat="45.87187794037163" lon="8.693399922922254">
        <ele>394.13</ele>
        <time>2024-05-28T18:27:42.269Z</time>
      </trkpt>
      <trkpt lat="45.87190995924175" lon="8.693352984264493">
        <ele>393.93</ele>
        <time>2024-05-28T18:27:49.153Z</time>
      </trkpt>
      <trkpt lat="45.87191993370652" lon="8.693301938474178">
        <ele>393.74</ele>
        <time>2024-05-28T18:27:56.038Z</time>
      </trkpt>
      <trkpt lat="45.8719349373132" lon="8.693247959017754">
        <ele>393.55</ele>
        <time>2024-05-28T18:28:02.924Z</time>
      </trkpt>
      <trkpt lat="45.87196293286979" lon="8.693202948197722">
        <ele>393.37</ele>
        <time>2024-05-28T18:28:09.812Z</time>
      </trkpt>
      <trkpt lat="45.87198296561837" lon="8.69315491989255">
        <ele>393.19</ele>
        <time>2024-05-28T18:28:16.701Z</time>
      </trkpt>
      <trkpt lat="45.87199696339667" lon="8.693102952092886">
        <ele>393.01</ele>
        <time>2024-05-28T18:28:23.591Z</time>
      </trkpt>
      <trkpt lat="45.87200794368982" lon="8.693054923787713">
        <ele>392.84</ele>
        <time>2024-05-28T18:28:30.482Z</time>
      </trkpt>
      <trkpt lat="45.872031999751925" lon="8.693016953766346">
        <ele>392.68</ele>
        <time>2024-05-28T18:28:37.375Z</time>
      </trkpt>
      <trkpt lat="45.872034933418036" lon="8.692962974309921">
        <ele>392.52</ele>
        <time>2024-05-28T18:28:44.269Z</time>
      </trkpt>
      <trkpt lat="45.87203795090318" lon="8.692904971539974">
        <ele>392.36</ele>
        <time>2024-05-28T18:28:51.164Z</time>
      </trkpt>
      <trkpt lat="45.87204993702471" lon="8.692844957113266">
        <ele>392.21</ele>
        <time>2024-05-28T18:28:58.061Z</time>
      </trkpt>
      <trkpt lat="45.87206292897463" lon="8.692797934636474">
        <ele>392.07</ele>
        <time>2024-05-28T18:29:04.959Z</time>
      </trkpt>
      <trkpt lat="45.87206996977329" lon="8.69274697266519">
        <ele>391.92</ele>
        <time>2024-05-28T18:29:11.858Z</time>
      </trkpt>
      <trkpt lat="45.87206695228815" lon="8.692691987380385">
        <ele>391.79</ele>
        <time>2024-05-28T18:29:18.758Z</time>
      </trkpt>
      <trkpt lat="45.87205697782338" lon="8.692621998488903">
        <ele>391.66</ele>
        <time>2024-05-28T18:29:25.660Z</time>
      </trkpt>
      <trkpt lat="45.872052954509854" lon="8.69255494326353">
        <ele>391.53</ele>
        <time>2024-05-28T18:29:32.564Z</time>
      </trkpt>
      <trkpt lat="45.87205697782338" lon="8.692494928836823">
        <ele>391.41</ele>
        <time>2024-05-28T18:29:39.469Z</time>
      </trkpt>
      <trkpt lat="45.87205697782338" lon="8.692422928288579">
        <ele>391.3</ele>
        <time>2024-05-28T18:29:46.376Z</time>
      </trkpt>
      <trkpt lat="45.87206695228815" lon="8.692376995459199">
        <ele>391.21</ele>
        <time>2024-05-28T18:29:53.284Z</time>
      </trkpt>
      <trkpt lat="45.87206996977329" lon="8.692322932183743">
        <ele>391.11</ele>
        <time>2024-05-28T18:30:00.193Z</time>
      </trkpt>
      <trkpt lat="45.87206695228815" lon="8.692274987697601">
        <ele>391.03</ele>
        <time>2024-05-28T18:30:07.103Z</time>
      </trkpt>
      <trkpt lat="45.87206292897463" lon="8.692222936078906">
        <ele>390.96</ele>
        <time>2024-05-28T18:30:14.014Z</time>
      </trkpt>
      <trkpt lat="45.87206292897463" lon="8.692189995199442">
        <ele>390.89</ele>
        <time>2024-05-28T18:30:20.926Z</time>
      </trkpt>
      <trkpt lat="45.87205697782338" lon="8.692156970500946">
        <ele>390.84</ele>
        <time>2024-05-28T18:30:27.839Z</time>
      </trkpt>
      <trkpt lat="45.87202495895326" lon="8.692116988822818">
        <ele>390.79</ele>
        <time>2024-05-28T18:30:34.753Z</time>
      </trkpt>
      <trkpt lat="45.871992940083146" lon="8.692111959680915">
        <ele>390.76</ele>
        <time>2024-05-28T18:30:41.668Z</time>
      </trkpt>
      <trkpt lat="45.871969973668456" lon="8.692111959680915">
        <ele>390.74</ele>
        <time>2024-05-28T18:30:48.584Z</time>
      </trkpt>
      <trkpt lat="45.871944995597005" lon="8.692119922488928">
        <ele>390.72</ele>
        <time>2024-05-28T18:30:55.501Z</time>
      </trkpt>
      <trkpt lat="45.87190995924175" lon="8.692131992429495">
        <ele>390.71</ele>
        <time>2024-05-28T18:31:02.419Z</time>
      </trkpt>
      <trkpt lat="45.87187492288649" lon="8.692137943580747">
        <ele>390.71</ele>
        <time>2024-05-28T18:31:09.338Z</time>
      </trkpt>
      <trkpt lat="45.871836952865124" lon="8.692139955237508">
        <ele>390.71</ele>
        <time>2024-05-28T18:31:16.259Z</time>
      </trkpt>
      <trkpt lat="45.871797977015376" lon="8.692141966894269">
        <ele>390.72</ele>
        <time>2024-05-28T18:31:23.181Z</time>
      </trkpt>
      <trkpt lat="45.87175992317498" lon="8.692149929702282">
        <ele>390.74</ele>
        <time>2024-05-28T18:31:30.104Z</time>
      </trkpt>
      <trkpt lat="45.87172698229551" lon="8.692159987986088">
        <ele>390.76</ele>
        <time>2024-05-28T18:31:37.028Z</time>
      </trkpt>
      <trkpt lat="45.871684988960624" lon="8.692157976329327">
        <ele>390.79</ele>
        <time>2024-05-28T18:31:43.954Z</time>
      </trkpt>
      <trkpt lat="45.87163997814059" lon="8.692157976329327">
        <ele>390.83</ele>
        <time>2024-05-28T18:31:50.881Z</time>
      </trkpt>
      <trkpt lat="45.871604941785336" lon="8.692157976329327">
        <ele>390.89</ele>
        <time>2024-05-28T18:31:57.809Z</time>
      </trkpt>
      <trkpt lat="45.87156998924911" lon="8.692159987986088">
        <ele>390.96</ele>
        <time>2024-05-28T18:32:04.739Z</time>
      </trkpt>
      <trkpt lat="45.87154199369252" lon="8.692164933308959">
        <ele>391.03</ele>
        <time>2024-05-28T18:32:11.670Z</time>
      </trkpt>
      <trkpt lat="45.871512992307544" lon="8.692174991592765">
        <ele>391.11</ele>
        <time>2024-05-28T18:32:18.602Z</time>
      </trkpt>
      <trkpt lat="45.87147795595229" lon="8.692184966057539">
        <ele>391.19</ele>
        <time>2024-05-28T18:32:25.535Z</time>
      </trkpt>
      <trkpt lat="45.87144199758768" lon="8.692191923037171">
        <ele>391.27</ele>
        <time>2024-05-28T18:32:32.469Z</time>
      </trkpt>
      <trkpt lat="45.871409978717566" lon="8.69220994412899">
        <ele>391.35</ele>
        <time>2024-05-28T18:32:39.404Z</time>
      </trkpt>
      <trkpt lat="45.87137795984745" lon="8.692221930250525">
        <ele>391.43</ele>
        <time>2024-05-28T18:32:46.340Z</time>
      </trkpt>
      <trkpt lat="45.87133998982608" lon="8.692231988534331">
        <ele>391.5</ele>
        <time>2024-05-28T18:32:53.277Z</time>
      </trkpt>
      <trkpt lat="45.87131199426949" lon="8.692231988534331">
        <ele>391.57</ele>
        <time>2024-05-28T18:33:00.215Z</time>
      </trkpt>
      <trkpt lat="45.87128793820739" lon="8.692231988534331">
        <ele>391.63</ele>
        <time>2024-05-28T18:33:07.154Z</time>
      </trkpt>
      <trkpt lat="45.87126991711557" lon="8.69222997687757">
        <ele>391.69</ele>
        <time>2024-05-28T18:33:14.094Z</time>
      </trkpt>
      <trkpt lat="45.87124996818602" lon="8.692239951342344">
        <ele>391.75</ele>
        <time>2024-05-28T18:33:21.035Z</time>
      </trkpt>
    </trkseg>
  </trk>
</gpx>
